<?xml version="1.0" encoding="utf-8"?>
<gpx xmlns:xsi="http://www.w3.org/2001/XMLSchema-instance" xmlns:xsd="http://www.w3.org/2001/XMLSchema" version="1.1" creator="Shapelink.com" xmlns="http://www.topografix.com/GPX/1/1" xmlns:gpxtpx="http://www.garmin.com/xmlschemas/TrackPointExtension/v1">
  <metadata>
    <name>Sykling 44.20 km, 2014-05-16</name>
    <desc></desc>
    <author><name>Mikael Blom</name></author> 
    <time>2014-05-16T17:02:41Z</time>
  </metadata>
  <trk>
    <name>Sykling 44.20 km, 2014-05-16</name>
    <trkseg>
      <trkpt lat="59.9787257" lon="17.739258">
        <ele>37.6287</ele>
        <time>2014-05-16T17:02:41Z</time>
      </trkpt>
      <trkpt lat="59.9786965" lon="17.7392663">
        <ele>37.1481</ele>
        <time>2014-05-16T17:02:42Z</time>
      </trkpt>
      <trkpt lat="59.9786616" lon="17.7392652">
        <ele>36.6675</ele>
        <time>2014-05-16T17:02:43Z</time>
      </trkpt>
      <trkpt lat="59.9786247" lon="17.7392576">
        <ele>36.1868</ele>
        <time>2014-05-16T17:02:44Z</time>
      </trkpt>
      <trkpt lat="59.9785906" lon="17.7392538">
        <ele>35.7061</ele>
        <time>2014-05-16T17:02:45Z</time>
      </trkpt>
      <trkpt lat="59.9785538" lon="17.7392517">
        <ele>35.2255</ele>
        <time>2014-05-16T17:02:46Z</time>
      </trkpt>
      <trkpt lat="59.9785148" lon="17.7392543">
        <ele>34.2642</ele>
        <time>2014-05-16T17:02:47Z</time>
      </trkpt>
      <trkpt lat="59.978474" lon="17.7392588">
        <ele>33.7834</ele>
        <time>2014-05-16T17:02:48Z</time>
      </trkpt>
      <trkpt lat="59.9784304" lon="17.7392557">
        <ele>32.8223</ele>
        <time>2014-05-16T17:02:49Z</time>
      </trkpt>
      <trkpt lat="59.9783834" lon="17.739246">
        <ele>32.8223</ele>
        <time>2014-05-16T17:02:50Z</time>
      </trkpt>
      <trkpt lat="59.9783347" lon="17.7392337">
        <ele>32.3416</ele>
        <time>2014-05-16T17:02:51Z</time>
      </trkpt>
      <trkpt lat="59.9782834" lon="17.739221">
        <ele>32.3416</ele>
        <time>2014-05-16T17:02:52Z</time>
      </trkpt>
      <trkpt lat="59.9782296" lon="17.7392042">
        <ele>31.8607</ele>
        <time>2014-05-16T17:02:53Z</time>
      </trkpt>
      <trkpt lat="59.9781768" lon="17.7391849">
        <ele>31.8607</ele>
        <time>2014-05-16T17:02:54Z</time>
      </trkpt>
      <trkpt lat="59.9781202" lon="17.7391579">
        <ele>31.3801</ele>
        <time>2014-05-16T17:02:55Z</time>
      </trkpt>
      <trkpt lat="59.9780615" lon="17.7391238">
        <ele>31.3801</ele>
        <time>2014-05-16T17:02:56Z</time>
      </trkpt>
      <trkpt lat="59.9780081" lon="17.7390938">
        <ele>30.8995</ele>
        <time>2014-05-16T17:02:57Z</time>
      </trkpt>
      <trkpt lat="59.9779509" lon="17.7390641">
        <ele>30.4188</ele>
        <time>2014-05-16T17:02:58Z</time>
      </trkpt>
      <trkpt lat="59.9778917" lon="17.7390383">
        <ele>30.4188</ele>
        <time>2014-05-16T17:02:59Z</time>
      </trkpt>
      <trkpt lat="59.9778342" lon="17.7390176">
        <ele>29.4575</ele>
        <time>2014-05-16T17:03:00Z</time>
      </trkpt>
      <trkpt lat="59.9777691" lon="17.7389987">
        <ele>28.9769</ele>
        <time>2014-05-16T17:03:01Z</time>
      </trkpt>
      <trkpt lat="59.9776985" lon="17.7389876">
        <ele>28.9769</ele>
        <time>2014-05-16T17:03:02Z</time>
      </trkpt>
      <trkpt lat="59.9776271" lon="17.7389902">
        <ele>28.0155</ele>
        <time>2014-05-16T17:03:03Z</time>
      </trkpt>
      <trkpt lat="59.9775526" lon="17.739005">
        <ele>27.5349</ele>
        <time>2014-05-16T17:03:04Z</time>
      </trkpt>
      <trkpt lat="59.9774758" lon="17.7390316">
        <ele>27.0543</ele>
        <time>2014-05-16T17:03:05Z</time>
      </trkpt>
      <trkpt lat="59.9773862" lon="17.7390559">
        <ele>28.0155</ele>
        <time>2014-05-16T17:03:06Z</time>
      </trkpt>
      <trkpt lat="59.9773003" lon="17.7390912">
        <ele>28.4962</ele>
        <time>2014-05-16T17:03:07Z</time>
      </trkpt>
      <trkpt lat="59.9772166" lon="17.7391314">
        <ele>28.4962</ele>
        <time>2014-05-16T17:03:08Z</time>
      </trkpt>
      <trkpt lat="59.9771327" lon="17.7391729">
        <ele>28.4962</ele>
        <time>2014-05-16T17:03:09Z</time>
      </trkpt>
      <trkpt lat="59.9770486" lon="17.7392129">
        <ele>28.4962</ele>
        <time>2014-05-16T17:03:10Z</time>
      </trkpt>
      <trkpt lat="59.9769625" lon="17.7392471">
        <ele>28.9769</ele>
        <time>2014-05-16T17:03:11Z</time>
      </trkpt>
      <trkpt lat="59.976855" lon="17.7392771">
        <ele>29.4575</ele>
        <time>2014-05-16T17:03:12Z</time>
      </trkpt>
      <trkpt lat="59.9767623" lon="17.7393056">
        <ele>29.4575</ele>
        <time>2014-05-16T17:03:13Z</time>
      </trkpt>
      <trkpt lat="59.9766813" lon="17.7393422">
        <ele>28.9769</ele>
        <time>2014-05-16T17:03:14Z</time>
      </trkpt>
      <trkpt lat="59.976601" lon="17.7393888">
        <ele>28.9769</ele>
        <time>2014-05-16T17:03:15Z</time>
      </trkpt>
      <trkpt lat="59.9765219" lon="17.7394497">
        <ele>28.4962</ele>
        <time>2014-05-16T17:03:16Z</time>
      </trkpt>
      <trkpt lat="59.9764515" lon="17.7395299">
        <ele>28.0155</ele>
        <time>2014-05-16T17:03:17Z</time>
      </trkpt>
      <trkpt lat="59.9763869" lon="17.7396245">
        <ele>27.5349</ele>
        <time>2014-05-16T17:03:18Z</time>
      </trkpt>
      <trkpt lat="59.9763289" lon="17.7397309">
        <ele>27.0543</ele>
        <time>2014-05-16T17:03:19Z</time>
      </trkpt>
      <trkpt lat="59.976277" lon="17.7398465">
        <ele>27.5349</ele>
        <time>2014-05-16T17:03:20Z</time>
      </trkpt>
      <trkpt lat="59.9762324" lon="17.7399726">
        <ele>28.0155</ele>
        <time>2014-05-16T17:03:21Z</time>
      </trkpt>
      <trkpt lat="59.9761927" lon="17.7401006">
        <ele>28.0155</ele>
        <time>2014-05-16T17:03:22Z</time>
      </trkpt>
      <trkpt lat="59.9761542" lon="17.7402264">
        <ele>28.4962</ele>
        <time>2014-05-16T17:03:23Z</time>
      </trkpt>
      <trkpt lat="59.9761169" lon="17.7403499">
        <ele>28.4962</ele>
        <time>2014-05-16T17:03:24Z</time>
      </trkpt>
      <trkpt lat="59.9760798" lon="17.740471">
        <ele>28.4962</ele>
        <time>2014-05-16T17:03:25Z</time>
      </trkpt>
      <trkpt lat="59.9760449" lon="17.7405949">
        <ele>28.0155</ele>
        <time>2014-05-16T17:03:26Z</time>
      </trkpt>
      <trkpt lat="59.9760109" lon="17.7407188">
        <ele>28.0155</ele>
        <time>2014-05-16T17:03:27Z</time>
      </trkpt>
      <trkpt lat="59.9759778" lon="17.7408431">
        <ele>28.0155</ele>
        <time>2014-05-16T17:03:28Z</time>
      </trkpt>
      <trkpt lat="59.9759454" lon="17.7409675">
        <ele>28.0155</ele>
        <time>2014-05-16T17:03:29Z</time>
      </trkpt>
      <trkpt lat="59.975914" lon="17.7410918">
        <ele>28.0155</ele>
        <time>2014-05-16T17:03:30Z</time>
      </trkpt>
      <trkpt lat="59.975884" lon="17.7412162">
        <ele>28.0155</ele>
        <time>2014-05-16T17:03:31Z</time>
      </trkpt>
      <trkpt lat="59.975855" lon="17.7413404">
        <ele>28.4962</ele>
        <time>2014-05-16T17:03:32Z</time>
      </trkpt>
      <trkpt lat="59.9758263" lon="17.7414637">
        <ele>28.4962</ele>
        <time>2014-05-16T17:03:33Z</time>
      </trkpt>
      <trkpt lat="59.9757967" lon="17.741586">
        <ele>28.4962</ele>
        <time>2014-05-16T17:03:34Z</time>
      </trkpt>
      <trkpt lat="59.9757669" lon="17.7417075">
        <ele>28.9769</ele>
        <time>2014-05-16T17:03:35Z</time>
      </trkpt>
      <trkpt lat="59.9757374" lon="17.7418293">
        <ele>28.9769</ele>
        <time>2014-05-16T17:03:36Z</time>
      </trkpt>
      <trkpt lat="59.9757076" lon="17.7419512">
        <ele>28.9769</ele>
        <time>2014-05-16T17:03:37Z</time>
      </trkpt>
      <trkpt lat="59.9756768" lon="17.7420737">
        <ele>29.4575</ele>
        <time>2014-05-16T17:03:38Z</time>
      </trkpt>
      <trkpt lat="59.9756452" lon="17.742197">
        <ele>29.4575</ele>
        <time>2014-05-16T17:03:39Z</time>
      </trkpt>
      <trkpt lat="59.9756131" lon="17.742322">
        <ele>29.4575</ele>
        <time>2014-05-16T17:03:40Z</time>
      </trkpt>
      <trkpt lat="59.9755809" lon="17.742448">
        <ele>29.4575</ele>
        <time>2014-05-16T17:03:41Z</time>
      </trkpt>
      <trkpt lat="59.9755473" lon="17.7425735">
        <ele>29.9381</ele>
        <time>2014-05-16T17:03:42Z</time>
      </trkpt>
      <trkpt lat="59.9755136" lon="17.7426981">
        <ele>29.9381</ele>
        <time>2014-05-16T17:03:43Z</time>
      </trkpt>
      <trkpt lat="59.9754805" lon="17.7428224">
        <ele>29.9381</ele>
        <time>2014-05-16T17:03:44Z</time>
      </trkpt>
      <trkpt lat="59.9754473" lon="17.7429472">
        <ele>29.9381</ele>
        <time>2014-05-16T17:03:45Z</time>
      </trkpt>
      <trkpt lat="59.9754145" lon="17.7430743">
        <ele>29.9381</ele>
        <time>2014-05-16T17:03:46Z</time>
      </trkpt>
      <trkpt lat="59.9753826" lon="17.743202">
        <ele>29.9381</ele>
        <time>2014-05-16T17:03:47Z</time>
      </trkpt>
      <trkpt lat="59.9753534" lon="17.7433301">
        <ele>29.9381</ele>
        <time>2014-05-16T17:03:48Z</time>
      </trkpt>
      <trkpt lat="59.9753272" lon="17.7434617">
        <ele>29.9381</ele>
        <time>2014-05-16T17:03:49Z</time>
      </trkpt>
      <trkpt lat="59.9753032" lon="17.7435954">
        <ele>29.9381</ele>
        <time>2014-05-16T17:03:50Z</time>
      </trkpt>
      <trkpt lat="59.9752804" lon="17.7437303">
        <ele>29.9381</ele>
        <time>2014-05-16T17:03:51Z</time>
      </trkpt>
      <trkpt lat="59.9752591" lon="17.7438649">
        <ele>29.9381</ele>
        <time>2014-05-16T17:03:52Z</time>
      </trkpt>
      <trkpt lat="59.9752373" lon="17.7439972">
        <ele>29.9381</ele>
        <time>2014-05-16T17:03:53Z</time>
      </trkpt>
      <trkpt lat="59.9752137" lon="17.7441272">
        <ele>29.9381</ele>
        <time>2014-05-16T17:03:54Z</time>
      </trkpt>
      <trkpt lat="59.9751875" lon="17.7442552">
        <ele>29.9381</ele>
        <time>2014-05-16T17:03:55Z</time>
      </trkpt>
      <trkpt lat="59.9751582" lon="17.744381">
        <ele>29.9381</ele>
        <time>2014-05-16T17:03:56Z</time>
      </trkpt>
      <trkpt lat="59.9751267" lon="17.7445075">
        <ele>29.9381</ele>
        <time>2014-05-16T17:03:57Z</time>
      </trkpt>
      <trkpt lat="59.9750939" lon="17.7446352">
        <ele>29.4575</ele>
        <time>2014-05-16T17:03:58Z</time>
      </trkpt>
      <trkpt lat="59.9750588" lon="17.7447609">
        <ele>29.4575</ele>
        <time>2014-05-16T17:03:59Z</time>
      </trkpt>
      <trkpt lat="59.9750226" lon="17.7448841">
        <ele>29.9381</ele>
        <time>2014-05-16T17:04:00Z</time>
      </trkpt>
      <trkpt lat="59.9749857" lon="17.7450037">
        <ele>29.9381</ele>
        <time>2014-05-16T17:04:01Z</time>
      </trkpt>
      <trkpt lat="59.9749482" lon="17.7451196">
        <ele>29.9381</ele>
        <time>2014-05-16T17:04:02Z</time>
      </trkpt>
      <trkpt lat="59.9749105" lon="17.7452318">
        <ele>29.9381</ele>
        <time>2014-05-16T17:04:03Z</time>
      </trkpt>
      <trkpt lat="59.9748718" lon="17.7453404">
        <ele>29.9381</ele>
        <time>2014-05-16T17:04:04Z</time>
      </trkpt>
      <trkpt lat="59.9748324" lon="17.7454452">
        <ele>30.4188</ele>
        <time>2014-05-16T17:04:05Z</time>
      </trkpt>
      <trkpt lat="59.974793" lon="17.7455456">
        <ele>30.4188</ele>
        <time>2014-05-16T17:04:06Z</time>
      </trkpt>
      <trkpt lat="59.9747522" lon="17.745641">
        <ele>30.8995</ele>
        <time>2014-05-16T17:04:07Z</time>
      </trkpt>
      <trkpt lat="59.97471" lon="17.7457327">
        <ele>30.8995</ele>
        <time>2014-05-16T17:04:08Z</time>
      </trkpt>
      <trkpt lat="59.9746671" lon="17.7458209">
        <ele>30.8995</ele>
        <time>2014-05-16T17:04:09Z</time>
      </trkpt>
      <trkpt lat="59.9746237" lon="17.7459046">
        <ele>30.8995</ele>
        <time>2014-05-16T17:04:10Z</time>
      </trkpt>
      <trkpt lat="59.9745787" lon="17.7459867">
        <ele>30.8995</ele>
        <time>2014-05-16T17:04:11Z</time>
      </trkpt>
      <trkpt lat="59.9745325" lon="17.7460673">
        <ele>30.8995</ele>
        <time>2014-05-16T17:04:12Z</time>
      </trkpt>
      <trkpt lat="59.9744859" lon="17.7461461">
        <ele>30.8995</ele>
        <time>2014-05-16T17:04:13Z</time>
      </trkpt>
      <trkpt lat="59.9744367" lon="17.7462221">
        <ele>30.8995</ele>
        <time>2014-05-16T17:04:14Z</time>
      </trkpt>
      <trkpt lat="59.9743848" lon="17.7462982">
        <ele>30.8995</ele>
        <time>2014-05-16T17:04:15Z</time>
      </trkpt>
      <trkpt lat="59.9743304" lon="17.7463744">
        <ele>30.4188</ele>
        <time>2014-05-16T17:04:16Z</time>
      </trkpt>
      <trkpt lat="59.9742735" lon="17.7464505">
        <ele>30.4188</ele>
        <time>2014-05-16T17:04:17Z</time>
      </trkpt>
      <trkpt lat="59.9742163" lon="17.7465252">
        <ele>30.4188</ele>
        <time>2014-05-16T17:04:18Z</time>
      </trkpt>
      <trkpt lat="59.9741603" lon="17.7466029">
        <ele>30.4188</ele>
        <time>2014-05-16T17:04:19Z</time>
      </trkpt>
      <trkpt lat="59.9741056" lon="17.7466822">
        <ele>30.4188</ele>
        <time>2014-05-16T17:04:20Z</time>
      </trkpt>
      <trkpt lat="59.9740502" lon="17.746758">
        <ele>30.4188</ele>
        <time>2014-05-16T17:04:21Z</time>
      </trkpt>
      <trkpt lat="59.9739944" lon="17.7468312">
        <ele>30.4188</ele>
        <time>2014-05-16T17:04:22Z</time>
      </trkpt>
      <trkpt lat="59.9739377" lon="17.7469005">
        <ele>30.4188</ele>
        <time>2014-05-16T17:04:23Z</time>
      </trkpt>
      <trkpt lat="59.9738814" lon="17.7469669">
        <ele>30.4188</ele>
        <time>2014-05-16T17:04:24Z</time>
      </trkpt>
      <trkpt lat="59.9738267" lon="17.7470327">
        <ele>29.9381</ele>
        <time>2014-05-16T17:04:25Z</time>
      </trkpt>
      <trkpt lat="59.9737729" lon="17.7471007">
        <ele>29.9381</ele>
        <time>2014-05-16T17:04:26Z</time>
      </trkpt>
      <trkpt lat="59.9737192" lon="17.7471675">
        <ele>29.9381</ele>
        <time>2014-05-16T17:04:27Z</time>
      </trkpt>
      <trkpt lat="59.973661" lon="17.7472291">
        <ele>29.4575</ele>
        <time>2014-05-16T17:04:28Z</time>
      </trkpt>
      <trkpt lat="59.9736011" lon="17.7472871">
        <ele>29.4575</ele>
        <time>2014-05-16T17:04:29Z</time>
      </trkpt>
      <trkpt lat="59.9735389" lon="17.7473415">
        <ele>29.4575</ele>
        <time>2014-05-16T17:04:30Z</time>
      </trkpt>
      <trkpt lat="59.9734764" lon="17.7474">
        <ele>29.4575</ele>
        <time>2014-05-16T17:04:31Z</time>
      </trkpt>
      <trkpt lat="59.9734162" lon="17.747456">
        <ele>28.9769</ele>
        <time>2014-05-16T17:04:32Z</time>
      </trkpt>
      <trkpt lat="59.9733556" lon="17.7475161">
        <ele>28.4962</ele>
        <time>2014-05-16T17:04:33Z</time>
      </trkpt>
      <trkpt lat="59.9732934" lon="17.7475791">
        <ele>28.0155</ele>
        <time>2014-05-16T17:04:34Z</time>
      </trkpt>
      <trkpt lat="59.9732305" lon="17.7476451">
        <ele>28.0155</ele>
        <time>2014-05-16T17:04:35Z</time>
      </trkpt>
      <trkpt lat="59.9731686" lon="17.7477165">
        <ele>28.0155</ele>
        <time>2014-05-16T17:04:36Z</time>
      </trkpt>
      <trkpt lat="59.9731088" lon="17.74779">
        <ele>27.5349</ele>
        <time>2014-05-16T17:04:37Z</time>
      </trkpt>
      <trkpt lat="59.9730488" lon="17.747863">
        <ele>27.5349</ele>
        <time>2014-05-16T17:04:38Z</time>
      </trkpt>
      <trkpt lat="59.9729918" lon="17.7479376">
        <ele>27.5349</ele>
        <time>2014-05-16T17:04:39Z</time>
      </trkpt>
      <trkpt lat="59.9729368" lon="17.7480134">
        <ele>27.5349</ele>
        <time>2014-05-16T17:04:40Z</time>
      </trkpt>
      <trkpt lat="59.9728846" lon="17.7480935">
        <ele>27.5349</ele>
        <time>2014-05-16T17:04:41Z</time>
      </trkpt>
      <trkpt lat="59.9728358" lon="17.7481808">
        <ele>27.5349</ele>
        <time>2014-05-16T17:04:42Z</time>
      </trkpt>
      <trkpt lat="59.9727905" lon="17.7482742">
        <ele>27.5349</ele>
        <time>2014-05-16T17:04:43Z</time>
      </trkpt>
      <trkpt lat="59.9727479" lon="17.7483685">
        <ele>28.0155</ele>
        <time>2014-05-16T17:04:44Z</time>
      </trkpt>
      <trkpt lat="59.9727073" lon="17.7484602">
        <ele>28.0155</ele>
        <time>2014-05-16T17:04:45Z</time>
      </trkpt>
      <trkpt lat="59.9726674" lon="17.7485485">
        <ele>28.0155</ele>
        <time>2014-05-16T17:04:46Z</time>
      </trkpt>
      <trkpt lat="59.9726278" lon="17.748634">
        <ele>27.5349</ele>
        <time>2014-05-16T17:04:47Z</time>
      </trkpt>
      <trkpt lat="59.9725875" lon="17.7487189">
        <ele>27.5349</ele>
        <time>2014-05-16T17:04:48Z</time>
      </trkpt>
      <trkpt lat="59.972548" lon="17.7487986">
        <ele>27.0543</ele>
        <time>2014-05-16T17:04:49Z</time>
      </trkpt>
      <trkpt lat="59.9725092" lon="17.7488966">
        <ele>26.5736</ele>
        <time>2014-05-16T17:04:50Z</time>
      </trkpt>
      <trkpt lat="59.9724744" lon="17.7489917">
        <ele>27.0543</ele>
        <time>2014-05-16T17:04:51Z</time>
      </trkpt>
      <trkpt lat="59.9724335" lon="17.7490893">
        <ele>27.0543</ele>
        <time>2014-05-16T17:04:52Z</time>
      </trkpt>
      <trkpt lat="59.9723931" lon="17.7491777">
        <ele>27.0543</ele>
        <time>2014-05-16T17:04:53Z</time>
      </trkpt>
      <trkpt lat="59.9723526" lon="17.7492689">
        <ele>27.0543</ele>
        <time>2014-05-16T17:04:54Z</time>
      </trkpt>
      <trkpt lat="59.9723093" lon="17.7493648">
        <ele>27.5349</ele>
        <time>2014-05-16T17:04:55Z</time>
      </trkpt>
      <trkpt lat="59.9722703" lon="17.749452">
        <ele>27.5349</ele>
        <time>2014-05-16T17:04:56Z</time>
      </trkpt>
      <trkpt lat="59.9722321" lon="17.7495363">
        <ele>27.5349</ele>
        <time>2014-05-16T17:04:57Z</time>
      </trkpt>
      <trkpt lat="59.9721973" lon="17.7496255">
        <ele>27.0543</ele>
        <time>2014-05-16T17:04:58Z</time>
      </trkpt>
      <trkpt lat="59.9721622" lon="17.7497078">
        <ele>26.5736</ele>
        <time>2014-05-16T17:04:59Z</time>
      </trkpt>
      <trkpt lat="59.972124" lon="17.7497916">
        <ele>26.5736</ele>
        <time>2014-05-16T17:05:00Z</time>
      </trkpt>
      <trkpt lat="59.9720862" lon="17.7498787">
        <ele>25.6123</ele>
        <time>2014-05-16T17:05:01Z</time>
      </trkpt>
      <trkpt lat="59.972049" lon="17.7499681">
        <ele>25.1317</ele>
        <time>2014-05-16T17:05:02Z</time>
      </trkpt>
      <trkpt lat="59.9720098" lon="17.7500569">
        <ele>24.651</ele>
        <time>2014-05-16T17:05:03Z</time>
      </trkpt>
      <trkpt lat="59.9719669" lon="17.7501495">
        <ele>24.651</ele>
        <time>2014-05-16T17:05:04Z</time>
      </trkpt>
      <trkpt lat="59.9719218" lon="17.7502454">
        <ele>24.651</ele>
        <time>2014-05-16T17:05:05Z</time>
      </trkpt>
      <trkpt lat="59.9718728" lon="17.7503407">
        <ele>24.1703</ele>
        <time>2014-05-16T17:05:06Z</time>
      </trkpt>
      <trkpt lat="59.9718229" lon="17.7504392">
        <ele>24.1703</ele>
        <time>2014-05-16T17:05:07Z</time>
      </trkpt>
      <trkpt lat="59.9717699" lon="17.7505352">
        <ele>24.1703</ele>
        <time>2014-05-16T17:05:08Z</time>
      </trkpt>
      <trkpt lat="59.9717184" lon="17.7506312">
        <ele>23.6896</ele>
        <time>2014-05-16T17:05:09Z</time>
      </trkpt>
      <trkpt lat="59.9716631" lon="17.7507226">
        <ele>23.6896</ele>
        <time>2014-05-16T17:05:10Z</time>
      </trkpt>
      <trkpt lat="59.9716053" lon="17.7508114">
        <ele>23.6896</ele>
        <time>2014-05-16T17:05:11Z</time>
      </trkpt>
      <trkpt lat="59.9715451" lon="17.7508988">
        <ele>23.209</ele>
        <time>2014-05-16T17:05:12Z</time>
      </trkpt>
      <trkpt lat="59.9714813" lon="17.7509835">
        <ele>23.209</ele>
        <time>2014-05-16T17:05:13Z</time>
      </trkpt>
      <trkpt lat="59.9714165" lon="17.7510661">
        <ele>23.209</ele>
        <time>2014-05-16T17:05:14Z</time>
      </trkpt>
      <trkpt lat="59.9713483" lon="17.7511457">
        <ele>23.6896</ele>
        <time>2014-05-16T17:05:15Z</time>
      </trkpt>
      <trkpt lat="59.9712808" lon="17.7512246">
        <ele>23.6896</ele>
        <time>2014-05-16T17:05:16Z</time>
      </trkpt>
      <trkpt lat="59.971215" lon="17.7513022">
        <ele>23.6896</ele>
        <time>2014-05-16T17:05:17Z</time>
      </trkpt>
      <trkpt lat="59.9711495" lon="17.7513768">
        <ele>23.209</ele>
        <time>2014-05-16T17:05:18Z</time>
      </trkpt>
      <trkpt lat="59.9710836" lon="17.7514525">
        <ele>23.209</ele>
        <time>2014-05-16T17:05:19Z</time>
      </trkpt>
      <trkpt lat="59.9710192" lon="17.7515306">
        <ele>23.209</ele>
        <time>2014-05-16T17:05:20Z</time>
      </trkpt>
      <trkpt lat="59.9709566" lon="17.7516097">
        <ele>23.209</ele>
        <time>2014-05-16T17:05:21Z</time>
      </trkpt>
      <trkpt lat="59.9708945" lon="17.7516943">
        <ele>23.209</ele>
        <time>2014-05-16T17:05:22Z</time>
      </trkpt>
      <trkpt lat="59.9708323" lon="17.751785">
        <ele>23.209</ele>
        <time>2014-05-16T17:05:23Z</time>
      </trkpt>
      <trkpt lat="59.9707726" lon="17.7518777">
        <ele>23.209</ele>
        <time>2014-05-16T17:05:24Z</time>
      </trkpt>
      <trkpt lat="59.9707158" lon="17.7519752">
        <ele>23.209</ele>
        <time>2014-05-16T17:05:25Z</time>
      </trkpt>
      <trkpt lat="59.9706565" lon="17.752073">
        <ele>23.209</ele>
        <time>2014-05-16T17:05:26Z</time>
      </trkpt>
      <trkpt lat="59.970598" lon="17.7521735">
        <ele>23.6896</ele>
        <time>2014-05-16T17:05:27Z</time>
      </trkpt>
      <trkpt lat="59.9705459" lon="17.7522795">
        <ele>23.6896</ele>
        <time>2014-05-16T17:05:28Z</time>
      </trkpt>
      <trkpt lat="59.9704988" lon="17.7523896">
        <ele>23.6896</ele>
        <time>2014-05-16T17:05:29Z</time>
      </trkpt>
      <trkpt lat="59.970453" lon="17.752501">
        <ele>23.6896</ele>
        <time>2014-05-16T17:05:30Z</time>
      </trkpt>
      <trkpt lat="59.9704096" lon="17.7526138">
        <ele>23.6896</ele>
        <time>2014-05-16T17:05:31Z</time>
      </trkpt>
      <trkpt lat="59.970369" lon="17.7527286">
        <ele>23.6896</ele>
        <time>2014-05-16T17:05:32Z</time>
      </trkpt>
      <trkpt lat="59.9703293" lon="17.7528441">
        <ele>23.6896</ele>
        <time>2014-05-16T17:05:33Z</time>
      </trkpt>
      <trkpt lat="59.9702898" lon="17.7529594">
        <ele>23.209</ele>
        <time>2014-05-16T17:05:34Z</time>
      </trkpt>
      <trkpt lat="59.9702512" lon="17.7530748">
        <ele>23.209</ele>
        <time>2014-05-16T17:05:35Z</time>
      </trkpt>
      <trkpt lat="59.9702128" lon="17.7531898">
        <ele>23.209</ele>
        <time>2014-05-16T17:05:36Z</time>
      </trkpt>
      <trkpt lat="59.9701739" lon="17.7533038">
        <ele>23.209</ele>
        <time>2014-05-16T17:05:37Z</time>
      </trkpt>
      <trkpt lat="59.9701352" lon="17.7534158">
        <ele>23.209</ele>
        <time>2014-05-16T17:05:38Z</time>
      </trkpt>
      <trkpt lat="59.970096" lon="17.7535265">
        <ele>23.209</ele>
        <time>2014-05-16T17:05:39Z</time>
      </trkpt>
      <trkpt lat="59.9700547" lon="17.753633">
        <ele>23.209</ele>
        <time>2014-05-16T17:05:40Z</time>
      </trkpt>
      <trkpt lat="59.9700123" lon="17.7537347">
        <ele>23.209</ele>
        <time>2014-05-16T17:05:41Z</time>
      </trkpt>
      <trkpt lat="59.9699708" lon="17.7538341">
        <ele>23.209</ele>
        <time>2014-05-16T17:05:42Z</time>
      </trkpt>
      <trkpt lat="59.9699293" lon="17.7539296">
        <ele>23.209</ele>
        <time>2014-05-16T17:05:43Z</time>
      </trkpt>
      <trkpt lat="59.9698869" lon="17.7540197">
        <ele>23.209</ele>
        <time>2014-05-16T17:05:44Z</time>
      </trkpt>
      <trkpt lat="59.9698449" lon="17.7541078">
        <ele>23.6896</ele>
        <time>2014-05-16T17:05:45Z</time>
      </trkpt>
      <trkpt lat="59.9698033" lon="17.7541956">
        <ele>23.6896</ele>
        <time>2014-05-16T17:05:46Z</time>
      </trkpt>
      <trkpt lat="59.9697619" lon="17.7542822">
        <ele>23.6896</ele>
        <time>2014-05-16T17:05:47Z</time>
      </trkpt>
      <trkpt lat="59.9697218" lon="17.754365">
        <ele>24.1703</ele>
        <time>2014-05-16T17:05:48Z</time>
      </trkpt>
      <trkpt lat="59.9696822" lon="17.754446">
        <ele>24.1703</ele>
        <time>2014-05-16T17:05:49Z</time>
      </trkpt>
      <trkpt lat="59.9696435" lon="17.7545269">
        <ele>24.1703</ele>
        <time>2014-05-16T17:05:50Z</time>
      </trkpt>
      <trkpt lat="59.9696048" lon="17.7546079">
        <ele>24.1703</ele>
        <time>2014-05-16T17:05:51Z</time>
      </trkpt>
      <trkpt lat="59.9695659" lon="17.7546915">
        <ele>24.651</ele>
        <time>2014-05-16T17:05:52Z</time>
      </trkpt>
      <trkpt lat="59.9695273" lon="17.7547765">
        <ele>25.1317</ele>
        <time>2014-05-16T17:05:53Z</time>
      </trkpt>
      <trkpt lat="59.9694885" lon="17.7548578">
        <ele>25.1317</ele>
        <time>2014-05-16T17:05:54Z</time>
      </trkpt>
      <trkpt lat="59.9694497" lon="17.7549382">
        <ele>25.1317</ele>
        <time>2014-05-16T17:05:55Z</time>
      </trkpt>
      <trkpt lat="59.9694105" lon="17.7550193">
        <ele>25.1317</ele>
        <time>2014-05-16T17:05:56Z</time>
      </trkpt>
      <trkpt lat="59.9693711" lon="17.7551022">
        <ele>25.1317</ele>
        <time>2014-05-16T17:05:57Z</time>
      </trkpt>
      <trkpt lat="59.9693322" lon="17.7551858">
        <ele>25.1317</ele>
        <time>2014-05-16T17:05:58Z</time>
      </trkpt>
      <trkpt lat="59.9692933" lon="17.7552696">
        <ele>25.1317</ele>
        <time>2014-05-16T17:05:59Z</time>
      </trkpt>
      <trkpt lat="59.9692544" lon="17.7553536">
        <ele>25.1317</ele>
        <time>2014-05-16T17:06:00Z</time>
      </trkpt>
      <trkpt lat="59.9692157" lon="17.7554365">
        <ele>25.1317</ele>
        <time>2014-05-16T17:06:01Z</time>
      </trkpt>
      <trkpt lat="59.9691772" lon="17.7555189">
        <ele>25.1317</ele>
        <time>2014-05-16T17:06:02Z</time>
      </trkpt>
      <trkpt lat="59.9691384" lon="17.7556001">
        <ele>25.1317</ele>
        <time>2014-05-16T17:06:03Z</time>
      </trkpt>
      <trkpt lat="59.9690992" lon="17.755681">
        <ele>25.1317</ele>
        <time>2014-05-16T17:06:04Z</time>
      </trkpt>
      <trkpt lat="59.9690605" lon="17.7557616">
        <ele>25.1317</ele>
        <time>2014-05-16T17:06:05Z</time>
      </trkpt>
      <trkpt lat="59.9690214" lon="17.7558427">
        <ele>25.1317</ele>
        <time>2014-05-16T17:06:06Z</time>
      </trkpt>
      <trkpt lat="59.9689821" lon="17.7559253">
        <ele>25.1317</ele>
        <time>2014-05-16T17:06:07Z</time>
      </trkpt>
      <trkpt lat="59.9689426" lon="17.7560073">
        <ele>25.1317</ele>
        <time>2014-05-16T17:06:08Z</time>
      </trkpt>
      <trkpt lat="59.9689027" lon="17.7560881">
        <ele>25.6123</ele>
        <time>2014-05-16T17:06:09Z</time>
      </trkpt>
      <trkpt lat="59.9688635" lon="17.7561669">
        <ele>25.6123</ele>
        <time>2014-05-16T17:06:10Z</time>
      </trkpt>
      <trkpt lat="59.9688254" lon="17.7562446">
        <ele>25.6123</ele>
        <time>2014-05-16T17:06:11Z</time>
      </trkpt>
      <trkpt lat="59.9687872" lon="17.7563207">
        <ele>26.0929</ele>
        <time>2014-05-16T17:06:12Z</time>
      </trkpt>
      <trkpt lat="59.9687482" lon="17.7563953">
        <ele>26.0929</ele>
        <time>2014-05-16T17:06:13Z</time>
      </trkpt>
      <trkpt lat="59.968708" lon="17.7564678">
        <ele>26.0929</ele>
        <time>2014-05-16T17:06:14Z</time>
      </trkpt>
      <trkpt lat="59.9686664" lon="17.7565407">
        <ele>26.0929</ele>
        <time>2014-05-16T17:06:15Z</time>
      </trkpt>
      <trkpt lat="59.9686235" lon="17.7566149">
        <ele>26.0929</ele>
        <time>2014-05-16T17:06:16Z</time>
      </trkpt>
      <trkpt lat="59.9685785" lon="17.756688">
        <ele>26.0929</ele>
        <time>2014-05-16T17:06:17Z</time>
      </trkpt>
      <trkpt lat="59.9685307" lon="17.7567606">
        <ele>25.6123</ele>
        <time>2014-05-16T17:06:18Z</time>
      </trkpt>
      <trkpt lat="59.9684816" lon="17.7568341">
        <ele>25.6123</ele>
        <time>2014-05-16T17:06:19Z</time>
      </trkpt>
      <trkpt lat="59.9684322" lon="17.7569076">
        <ele>25.6123</ele>
        <time>2014-05-16T17:06:20Z</time>
      </trkpt>
      <trkpt lat="59.968382" lon="17.75698">
        <ele>25.6123</ele>
        <time>2014-05-16T17:06:21Z</time>
      </trkpt>
      <trkpt lat="59.9683319" lon="17.7570509">
        <ele>25.6123</ele>
        <time>2014-05-16T17:06:22Z</time>
      </trkpt>
      <trkpt lat="59.968282" lon="17.7571231">
        <ele>25.6123</ele>
        <time>2014-05-16T17:06:23Z</time>
      </trkpt>
      <trkpt lat="59.9682319" lon="17.7571956">
        <ele>25.6123</ele>
        <time>2014-05-16T17:06:24Z</time>
      </trkpt>
      <trkpt lat="59.9681806" lon="17.7572671">
        <ele>25.6123</ele>
        <time>2014-05-16T17:06:25Z</time>
      </trkpt>
      <trkpt lat="59.9681272" lon="17.7573386">
        <ele>25.1317</ele>
        <time>2014-05-16T17:06:26Z</time>
      </trkpt>
      <trkpt lat="59.9680713" lon="17.7574111">
        <ele>25.1317</ele>
        <time>2014-05-16T17:06:27Z</time>
      </trkpt>
      <trkpt lat="59.9680133" lon="17.7574852">
        <ele>24.651</ele>
        <time>2014-05-16T17:06:28Z</time>
      </trkpt>
      <trkpt lat="59.9679536" lon="17.7575607">
        <ele>24.1703</ele>
        <time>2014-05-16T17:06:29Z</time>
      </trkpt>
      <trkpt lat="59.9678917" lon="17.7576363">
        <ele>24.1703</ele>
        <time>2014-05-16T17:06:30Z</time>
      </trkpt>
      <trkpt lat="59.9678284" lon="17.7577115">
        <ele>23.6896</ele>
        <time>2014-05-16T17:06:31Z</time>
      </trkpt>
      <trkpt lat="59.9677639" lon="17.7577867">
        <ele>23.209</ele>
        <time>2014-05-16T17:06:32Z</time>
      </trkpt>
      <trkpt lat="59.9676984" lon="17.7578613">
        <ele>22.7283</ele>
        <time>2014-05-16T17:06:33Z</time>
      </trkpt>
      <trkpt lat="59.9676326" lon="17.7579352">
        <ele>22.7283</ele>
        <time>2014-05-16T17:06:34Z</time>
      </trkpt>
      <trkpt lat="59.9675678" lon="17.7580056">
        <ele>22.2476</ele>
        <time>2014-05-16T17:06:35Z</time>
      </trkpt>
      <trkpt lat="59.967503" lon="17.7580757">
        <ele>21.767</ele>
        <time>2014-05-16T17:06:36Z</time>
      </trkpt>
      <trkpt lat="59.9674378" lon="17.7581432">
        <ele>21.767</ele>
        <time>2014-05-16T17:06:37Z</time>
      </trkpt>
      <trkpt lat="59.9673731" lon="17.7582078">
        <ele>21.2864</ele>
        <time>2014-05-16T17:06:38Z</time>
      </trkpt>
      <trkpt lat="59.9673086" lon="17.7582708">
        <ele>20.8057</ele>
        <time>2014-05-16T17:06:39Z</time>
      </trkpt>
      <trkpt lat="59.9672437" lon="17.7583314">
        <ele>20.325</ele>
        <time>2014-05-16T17:06:40Z</time>
      </trkpt>
      <trkpt lat="59.9671793" lon="17.7583886">
        <ele>20.325</ele>
        <time>2014-05-16T17:06:41Z</time>
      </trkpt>
      <trkpt lat="59.9671176" lon="17.7584443">
        <ele>19.8444</ele>
        <time>2014-05-16T17:06:42Z</time>
      </trkpt>
      <trkpt lat="59.9670555" lon="17.7584988">
        <ele>19.8444</ele>
        <time>2014-05-16T17:06:43Z</time>
      </trkpt>
      <trkpt lat="59.9669939" lon="17.7585523">
        <ele>19.8444</ele>
        <time>2014-05-16T17:06:44Z</time>
      </trkpt>
      <trkpt lat="59.9669347" lon="17.7586054">
        <ele>19.3638</ele>
        <time>2014-05-16T17:06:45Z</time>
      </trkpt>
      <trkpt lat="59.9668752" lon="17.758658">
        <ele>18.8831</ele>
        <time>2014-05-16T17:06:46Z</time>
      </trkpt>
      <trkpt lat="59.9668157" lon="17.7587109">
        <ele>18.8831</ele>
        <time>2014-05-16T17:06:47Z</time>
      </trkpt>
      <trkpt lat="59.9667571" lon="17.7587665">
        <ele>18.8831</ele>
        <time>2014-05-16T17:06:48Z</time>
      </trkpt>
      <trkpt lat="59.9666997" lon="17.758824">
        <ele>18.4023</ele>
        <time>2014-05-16T17:06:49Z</time>
      </trkpt>
      <trkpt lat="59.966644" lon="17.7588831">
        <ele>18.4023</ele>
        <time>2014-05-16T17:06:50Z</time>
      </trkpt>
      <trkpt lat="59.9665893" lon="17.7589452">
        <ele>18.4023</ele>
        <time>2014-05-16T17:06:51Z</time>
      </trkpt>
      <trkpt lat="59.9665353" lon="17.7590107">
        <ele>18.4023</ele>
        <time>2014-05-16T17:06:52Z</time>
      </trkpt>
      <trkpt lat="59.9664825" lon="17.7590796">
        <ele>18.4023</ele>
        <time>2014-05-16T17:06:53Z</time>
      </trkpt>
      <trkpt lat="59.9664316" lon="17.7591514">
        <ele>18.4023</ele>
        <time>2014-05-16T17:06:54Z</time>
      </trkpt>
      <trkpt lat="59.9663827" lon="17.7592273">
        <ele>18.4023</ele>
        <time>2014-05-16T17:06:55Z</time>
      </trkpt>
      <trkpt lat="59.9663344" lon="17.7593014">
        <ele>17.9218</ele>
        <time>2014-05-16T17:06:56Z</time>
      </trkpt>
      <trkpt lat="59.9662852" lon="17.7593768">
        <ele>18.4023</ele>
        <time>2014-05-16T17:06:57Z</time>
      </trkpt>
      <trkpt lat="59.9662351" lon="17.7594526">
        <ele>18.8831</ele>
        <time>2014-05-16T17:06:58Z</time>
      </trkpt>
      <trkpt lat="59.9661873" lon="17.7595299">
        <ele>18.8831</ele>
        <time>2014-05-16T17:06:59Z</time>
      </trkpt>
      <trkpt lat="59.9661413" lon="17.7596085">
        <ele>18.8831</ele>
        <time>2014-05-16T17:07:00Z</time>
      </trkpt>
      <trkpt lat="59.9660951" lon="17.7596867">
        <ele>18.8831</ele>
        <time>2014-05-16T17:07:01Z</time>
      </trkpt>
      <trkpt lat="59.9660502" lon="17.759766">
        <ele>18.8831</ele>
        <time>2014-05-16T17:07:02Z</time>
      </trkpt>
      <trkpt lat="59.9660061" lon="17.7598455">
        <ele>18.8831</ele>
        <time>2014-05-16T17:07:03Z</time>
      </trkpt>
      <trkpt lat="59.9659628" lon="17.7599241">
        <ele>18.8831</ele>
        <time>2014-05-16T17:07:04Z</time>
      </trkpt>
      <trkpt lat="59.9659163" lon="17.7599996">
        <ele>19.3638</ele>
        <time>2014-05-16T17:07:05Z</time>
      </trkpt>
      <trkpt lat="59.9658723" lon="17.7600767">
        <ele>19.3638</ele>
        <time>2014-05-16T17:07:06Z</time>
      </trkpt>
      <trkpt lat="59.9658273" lon="17.7601524">
        <ele>19.3638</ele>
        <time>2014-05-16T17:07:07Z</time>
      </trkpt>
      <trkpt lat="59.9657827" lon="17.7602255">
        <ele>19.8444</ele>
        <time>2014-05-16T17:07:08Z</time>
      </trkpt>
      <trkpt lat="59.9657387" lon="17.7602969">
        <ele>20.325</ele>
        <time>2014-05-16T17:07:09Z</time>
      </trkpt>
      <trkpt lat="59.965696" lon="17.7603669">
        <ele>20.325</ele>
        <time>2014-05-16T17:07:10Z</time>
      </trkpt>
      <trkpt lat="59.9656526" lon="17.7604342">
        <ele>20.8057</ele>
        <time>2014-05-16T17:07:11Z</time>
      </trkpt>
      <trkpt lat="59.9656103" lon="17.7605004">
        <ele>20.8057</ele>
        <time>2014-05-16T17:07:12Z</time>
      </trkpt>
      <trkpt lat="59.9655678" lon="17.7605642">
        <ele>21.2864</ele>
        <time>2014-05-16T17:07:13Z</time>
      </trkpt>
      <trkpt lat="59.9655262" lon="17.7606293">
        <ele>21.2864</ele>
        <time>2014-05-16T17:07:14Z</time>
      </trkpt>
      <trkpt lat="59.9654865" lon="17.7606967">
        <ele>21.2864</ele>
        <time>2014-05-16T17:07:15Z</time>
      </trkpt>
      <trkpt lat="59.9654465" lon="17.7607657">
        <ele>21.2864</ele>
        <time>2014-05-16T17:07:16Z</time>
      </trkpt>
      <trkpt lat="59.9654062" lon="17.7608393">
        <ele>21.2864</ele>
        <time>2014-05-16T17:07:17Z</time>
      </trkpt>
      <trkpt lat="59.9653668" lon="17.760919">
        <ele>21.767</ele>
        <time>2014-05-16T17:07:18Z</time>
      </trkpt>
      <trkpt lat="59.9653284" lon="17.7610041">
        <ele>21.767</ele>
        <time>2014-05-16T17:07:19Z</time>
      </trkpt>
      <trkpt lat="59.9652915" lon="17.7610937">
        <ele>21.767</ele>
        <time>2014-05-16T17:07:20Z</time>
      </trkpt>
      <trkpt lat="59.9652554" lon="17.7611852">
        <ele>22.2476</ele>
        <time>2014-05-16T17:07:21Z</time>
      </trkpt>
      <trkpt lat="59.9652205" lon="17.7612744">
        <ele>22.2476</ele>
        <time>2014-05-16T17:07:22Z</time>
      </trkpt>
      <trkpt lat="59.9651871" lon="17.761362">
        <ele>22.7283</ele>
        <time>2014-05-16T17:07:23Z</time>
      </trkpt>
      <trkpt lat="59.9651545" lon="17.7614485">
        <ele>22.7283</ele>
        <time>2014-05-16T17:07:24Z</time>
      </trkpt>
      <trkpt lat="59.9651223" lon="17.7615337">
        <ele>23.209</ele>
        <time>2014-05-16T17:07:25Z</time>
      </trkpt>
      <trkpt lat="59.9650902" lon="17.7616173">
        <ele>23.209</ele>
        <time>2014-05-16T17:07:26Z</time>
      </trkpt>
      <trkpt lat="59.965058" lon="17.7616997">
        <ele>23.209</ele>
        <time>2014-05-16T17:07:27Z</time>
      </trkpt>
      <trkpt lat="59.9650253" lon="17.761784">
        <ele>23.209</ele>
        <time>2014-05-16T17:07:28Z</time>
      </trkpt>
      <trkpt lat="59.9649918" lon="17.7618708">
        <ele>23.209</ele>
        <time>2014-05-16T17:07:29Z</time>
      </trkpt>
      <trkpt lat="59.9649576" lon="17.7619592">
        <ele>23.209</ele>
        <time>2014-05-16T17:07:30Z</time>
      </trkpt>
      <trkpt lat="59.9649225" lon="17.7620494">
        <ele>23.209</ele>
        <time>2014-05-16T17:07:31Z</time>
      </trkpt>
      <trkpt lat="59.9648872" lon="17.7621426">
        <ele>23.209</ele>
        <time>2014-05-16T17:07:32Z</time>
      </trkpt>
      <trkpt lat="59.9648519" lon="17.7622373">
        <ele>23.209</ele>
        <time>2014-05-16T17:07:33Z</time>
      </trkpt>
      <trkpt lat="59.9648167" lon="17.7623338">
        <ele>23.209</ele>
        <time>2014-05-16T17:07:34Z</time>
      </trkpt>
      <trkpt lat="59.964781" lon="17.7624325">
        <ele>23.209</ele>
        <time>2014-05-16T17:07:35Z</time>
      </trkpt>
      <trkpt lat="59.964746" lon="17.7625311">
        <ele>23.209</ele>
        <time>2014-05-16T17:07:36Z</time>
      </trkpt>
      <trkpt lat="59.9647123" lon="17.7626296">
        <ele>23.6896</ele>
        <time>2014-05-16T17:07:37Z</time>
      </trkpt>
      <trkpt lat="59.96468" lon="17.7627285">
        <ele>23.6896</ele>
        <time>2014-05-16T17:07:38Z</time>
      </trkpt>
      <trkpt lat="59.9646503" lon="17.7628278">
        <ele>23.6896</ele>
        <time>2014-05-16T17:07:39Z</time>
      </trkpt>
      <trkpt lat="59.964622" lon="17.7629268">
        <ele>24.1703</ele>
        <time>2014-05-16T17:07:40Z</time>
      </trkpt>
      <trkpt lat="59.964595" lon="17.7630263">
        <ele>24.1703</ele>
        <time>2014-05-16T17:07:41Z</time>
      </trkpt>
      <trkpt lat="59.9645697" lon="17.7631284">
        <ele>24.1703</ele>
        <time>2014-05-16T17:07:42Z</time>
      </trkpt>
      <trkpt lat="59.9645446" lon="17.763231">
        <ele>24.1703</ele>
        <time>2014-05-16T17:07:43Z</time>
      </trkpt>
      <trkpt lat="59.9645207" lon="17.7633345">
        <ele>24.1703</ele>
        <time>2014-05-16T17:07:44Z</time>
      </trkpt>
      <trkpt lat="59.9644956" lon="17.7634375">
        <ele>24.1703</ele>
        <time>2014-05-16T17:07:45Z</time>
      </trkpt>
      <trkpt lat="59.9644712" lon="17.7635421">
        <ele>24.1703</ele>
        <time>2014-05-16T17:07:46Z</time>
      </trkpt>
      <trkpt lat="59.9644463" lon="17.7636469">
        <ele>24.1703</ele>
        <time>2014-05-16T17:07:47Z</time>
      </trkpt>
      <trkpt lat="59.964422" lon="17.7637515">
        <ele>24.1703</ele>
        <time>2014-05-16T17:07:48Z</time>
      </trkpt>
      <trkpt lat="59.9643975" lon="17.7638542">
        <ele>23.6896</ele>
        <time>2014-05-16T17:07:49Z</time>
      </trkpt>
      <trkpt lat="59.9643721" lon="17.7639542">
        <ele>23.6896</ele>
        <time>2014-05-16T17:07:50Z</time>
      </trkpt>
      <trkpt lat="59.9643462" lon="17.764053">
        <ele>23.6896</ele>
        <time>2014-05-16T17:07:51Z</time>
      </trkpt>
      <trkpt lat="59.9643202" lon="17.764152">
        <ele>23.6896</ele>
        <time>2014-05-16T17:07:52Z</time>
      </trkpt>
      <trkpt lat="59.9642939" lon="17.7642517">
        <ele>24.1703</ele>
        <time>2014-05-16T17:07:53Z</time>
      </trkpt>
      <trkpt lat="59.9642681" lon="17.7643518">
        <ele>23.6896</ele>
        <time>2014-05-16T17:07:54Z</time>
      </trkpt>
      <trkpt lat="59.9642435" lon="17.7644534">
        <ele>23.6896</ele>
        <time>2014-05-16T17:07:55Z</time>
      </trkpt>
      <trkpt lat="59.9642184" lon="17.764554">
        <ele>23.6896</ele>
        <time>2014-05-16T17:07:56Z</time>
      </trkpt>
      <trkpt lat="59.9641926" lon="17.7646535">
        <ele>23.6896</ele>
        <time>2014-05-16T17:07:57Z</time>
      </trkpt>
      <trkpt lat="59.9641695" lon="17.764753">
        <ele>23.6896</ele>
        <time>2014-05-16T17:07:58Z</time>
      </trkpt>
      <trkpt lat="59.9641493" lon="17.7648496">
        <ele>23.6896</ele>
        <time>2014-05-16T17:07:59Z</time>
      </trkpt>
      <trkpt lat="59.9641281" lon="17.7649425">
        <ele>23.6896</ele>
        <time>2014-05-16T17:08:00Z</time>
      </trkpt>
      <trkpt lat="59.9641109" lon="17.7650268">
        <ele>23.209</ele>
        <time>2014-05-16T17:08:01Z</time>
      </trkpt>
      <trkpt lat="59.9640987" lon="17.765107">
        <ele>23.209</ele>
        <time>2014-05-16T17:08:02Z</time>
      </trkpt>
      <trkpt lat="59.9640918" lon="17.7651848">
        <ele>22.2476</ele>
        <time>2014-05-16T17:08:03Z</time>
      </trkpt>
      <trkpt lat="59.964085" lon="17.7652735">
        <ele>21.767</ele>
        <time>2014-05-16T17:08:04Z</time>
      </trkpt>
      <trkpt lat="59.9640758" lon="17.7653786">
        <ele>21.2864</ele>
        <time>2014-05-16T17:08:05Z</time>
      </trkpt>
      <trkpt lat="59.9640691" lon="17.7654766">
        <ele>20.8057</ele>
        <time>2014-05-16T17:08:06Z</time>
      </trkpt>
      <trkpt lat="59.9640635" lon="17.7655713">
        <ele>20.325</ele>
        <time>2014-05-16T17:08:07Z</time>
      </trkpt>
      <trkpt lat="59.9640614" lon="17.7656537">
        <ele>20.325</ele>
        <time>2014-05-16T17:08:08Z</time>
      </trkpt>
      <trkpt lat="59.9640599" lon="17.7657384">
        <ele>20.8057</ele>
        <time>2014-05-16T17:08:09Z</time>
      </trkpt>
      <trkpt lat="59.9640551" lon="17.7658405">
        <ele>20.8057</ele>
        <time>2014-05-16T17:08:10Z</time>
      </trkpt>
      <trkpt lat="59.9640568" lon="17.7659173">
        <ele>20.8057</ele>
        <time>2014-05-16T17:08:11Z</time>
      </trkpt>
      <trkpt lat="59.9640607" lon="17.7659883">
        <ele>20.325</ele>
        <time>2014-05-16T17:08:12Z</time>
      </trkpt>
      <trkpt lat="59.9640656" lon="17.7660578">
        <ele>19.8444</ele>
        <time>2014-05-16T17:08:13Z</time>
      </trkpt>
      <trkpt lat="59.9640685" lon="17.7661355">
        <ele>20.325</ele>
        <time>2014-05-16T17:08:14Z</time>
      </trkpt>
      <trkpt lat="59.9640681" lon="17.766213">
        <ele>19.8444</ele>
        <time>2014-05-16T17:08:15Z</time>
      </trkpt>
      <trkpt lat="59.9640687" lon="17.7662961">
        <ele>19.3638</ele>
        <time>2014-05-16T17:08:16Z</time>
      </trkpt>
      <trkpt lat="59.9640706" lon="17.7663904">
        <ele>19.8444</ele>
        <time>2014-05-16T17:08:17Z</time>
      </trkpt>
      <trkpt lat="59.9640727" lon="17.7664838">
        <ele>19.8444</ele>
        <time>2014-05-16T17:08:18Z</time>
      </trkpt>
      <trkpt lat="59.9640744" lon="17.766581">
        <ele>20.325</ele>
        <time>2014-05-16T17:08:19Z</time>
      </trkpt>
      <trkpt lat="59.9640753" lon="17.7666788">
        <ele>20.8057</ele>
        <time>2014-05-16T17:08:20Z</time>
      </trkpt>
      <trkpt lat="59.9640742" lon="17.766776">
        <ele>20.8057</ele>
        <time>2014-05-16T17:08:21Z</time>
      </trkpt>
      <trkpt lat="59.9640711" lon="17.766873">
        <ele>21.2864</ele>
        <time>2014-05-16T17:08:22Z</time>
      </trkpt>
      <trkpt lat="59.9640659" lon="17.766972">
        <ele>21.2864</ele>
        <time>2014-05-16T17:08:23Z</time>
      </trkpt>
      <trkpt lat="59.9640588" lon="17.7670721">
        <ele>21.767</ele>
        <time>2014-05-16T17:08:24Z</time>
      </trkpt>
      <trkpt lat="59.9640484" lon="17.7671719">
        <ele>22.2476</ele>
        <time>2014-05-16T17:08:25Z</time>
      </trkpt>
      <trkpt lat="59.9640351" lon="17.7672674">
        <ele>22.2476</ele>
        <time>2014-05-16T17:08:26Z</time>
      </trkpt>
      <trkpt lat="59.9640206" lon="17.7673636">
        <ele>22.7283</ele>
        <time>2014-05-16T17:08:27Z</time>
      </trkpt>
      <trkpt lat="59.9640042" lon="17.767461">
        <ele>23.209</ele>
        <time>2014-05-16T17:08:28Z</time>
      </trkpt>
      <trkpt lat="59.9639871" lon="17.7675614">
        <ele>23.209</ele>
        <time>2014-05-16T17:08:29Z</time>
      </trkpt>
      <trkpt lat="59.9639678" lon="17.7676639">
        <ele>23.6896</ele>
        <time>2014-05-16T17:08:30Z</time>
      </trkpt>
      <trkpt lat="59.9639462" lon="17.7677677">
        <ele>23.6896</ele>
        <time>2014-05-16T17:08:31Z</time>
      </trkpt>
      <trkpt lat="59.9639235" lon="17.7678748">
        <ele>23.6896</ele>
        <time>2014-05-16T17:08:32Z</time>
      </trkpt>
      <trkpt lat="59.9638998" lon="17.7679831">
        <ele>23.6896</ele>
        <time>2014-05-16T17:08:33Z</time>
      </trkpt>
      <trkpt lat="59.9638728" lon="17.7680936">
        <ele>23.209</ele>
        <time>2014-05-16T17:08:34Z</time>
      </trkpt>
      <trkpt lat="59.9638433" lon="17.768207">
        <ele>23.209</ele>
        <time>2014-05-16T17:08:35Z</time>
      </trkpt>
      <trkpt lat="59.9638117" lon="17.7683241">
        <ele>23.209</ele>
        <time>2014-05-16T17:08:36Z</time>
      </trkpt>
      <trkpt lat="59.9637781" lon="17.7684443">
        <ele>22.7283</ele>
        <time>2014-05-16T17:08:37Z</time>
      </trkpt>
      <trkpt lat="59.9637433" lon="17.7685664">
        <ele>23.209</ele>
        <time>2014-05-16T17:08:38Z</time>
      </trkpt>
      <trkpt lat="59.9637082" lon="17.7686897">
        <ele>23.209</ele>
        <time>2014-05-16T17:08:39Z</time>
      </trkpt>
      <trkpt lat="59.9636734" lon="17.7688129">
        <ele>23.209</ele>
        <time>2014-05-16T17:08:40Z</time>
      </trkpt>
      <trkpt lat="59.9636392" lon="17.7689346">
        <ele>23.6896</ele>
        <time>2014-05-16T17:08:41Z</time>
      </trkpt>
      <trkpt lat="59.9636057" lon="17.7690537">
        <ele>23.6896</ele>
        <time>2014-05-16T17:08:42Z</time>
      </trkpt>
      <trkpt lat="59.963573" lon="17.7691689">
        <ele>24.1703</ele>
        <time>2014-05-16T17:08:43Z</time>
      </trkpt>
      <trkpt lat="59.9635422" lon="17.7692817">
        <ele>24.1703</ele>
        <time>2014-05-16T17:08:44Z</time>
      </trkpt>
      <trkpt lat="59.9635129" lon="17.7693947">
        <ele>25.1317</ele>
        <time>2014-05-16T17:08:45Z</time>
      </trkpt>
      <trkpt lat="59.9634879" lon="17.7695073">
        <ele>25.6123</ele>
        <time>2014-05-16T17:08:46Z</time>
      </trkpt>
      <trkpt lat="59.9634703" lon="17.7696199">
        <ele>25.6123</ele>
        <time>2014-05-16T17:08:47Z</time>
      </trkpt>
      <trkpt lat="59.9634585" lon="17.7697318">
        <ele>26.0929</ele>
        <time>2014-05-16T17:08:48Z</time>
      </trkpt>
      <trkpt lat="59.9634521" lon="17.7698445">
        <ele>26.0929</ele>
        <time>2014-05-16T17:08:49Z</time>
      </trkpt>
      <trkpt lat="59.9634498" lon="17.7699587">
        <ele>26.0929</ele>
        <time>2014-05-16T17:08:50Z</time>
      </trkpt>
      <trkpt lat="59.963451" lon="17.7700738">
        <ele>26.0929</ele>
        <time>2014-05-16T17:08:51Z</time>
      </trkpt>
      <trkpt lat="59.9634533" lon="17.7701902">
        <ele>26.0929</ele>
        <time>2014-05-16T17:08:52Z</time>
      </trkpt>
      <trkpt lat="59.9634569" lon="17.7703095">
        <ele>26.0929</ele>
        <time>2014-05-16T17:08:53Z</time>
      </trkpt>
      <trkpt lat="59.9634635" lon="17.7704322">
        <ele>26.0929</ele>
        <time>2014-05-16T17:08:54Z</time>
      </trkpt>
      <trkpt lat="59.9634733" lon="17.7705586">
        <ele>26.0929</ele>
        <time>2014-05-16T17:08:55Z</time>
      </trkpt>
      <trkpt lat="59.9634871" lon="17.7706868">
        <ele>25.6123</ele>
        <time>2014-05-16T17:08:56Z</time>
      </trkpt>
      <trkpt lat="59.9635057" lon="17.7708162">
        <ele>25.1317</ele>
        <time>2014-05-16T17:08:57Z</time>
      </trkpt>
      <trkpt lat="59.963529" lon="17.7709472">
        <ele>25.1317</ele>
        <time>2014-05-16T17:08:58Z</time>
      </trkpt>
      <trkpt lat="59.9635558" lon="17.7710796">
        <ele>24.651</ele>
        <time>2014-05-16T17:08:59Z</time>
      </trkpt>
      <trkpt lat="59.9635848" lon="17.771213">
        <ele>24.651</ele>
        <time>2014-05-16T17:09:00Z</time>
      </trkpt>
      <trkpt lat="59.963615" lon="17.7713466">
        <ele>24.651</ele>
        <time>2014-05-16T17:09:01Z</time>
      </trkpt>
      <trkpt lat="59.9636461" lon="17.7714797">
        <ele>24.651</ele>
        <time>2014-05-16T17:09:02Z</time>
      </trkpt>
      <trkpt lat="59.9636776" lon="17.7716127">
        <ele>24.651</ele>
        <time>2014-05-16T17:09:03Z</time>
      </trkpt>
      <trkpt lat="59.963709" lon="17.7717466">
        <ele>24.651</ele>
        <time>2014-05-16T17:09:04Z</time>
      </trkpt>
      <trkpt lat="59.9637403" lon="17.7718822">
        <ele>24.651</ele>
        <time>2014-05-16T17:09:05Z</time>
      </trkpt>
      <trkpt lat="59.9637718" lon="17.7720189">
        <ele>24.651</ele>
        <time>2014-05-16T17:09:06Z</time>
      </trkpt>
      <trkpt lat="59.9638024" lon="17.7721594">
        <ele>24.1703</ele>
        <time>2014-05-16T17:09:07Z</time>
      </trkpt>
      <trkpt lat="59.9638304" lon="17.7723047">
        <ele>24.1703</ele>
        <time>2014-05-16T17:09:08Z</time>
      </trkpt>
      <trkpt lat="59.9638552" lon="17.7724536">
        <ele>24.1703</ele>
        <time>2014-05-16T17:09:09Z</time>
      </trkpt>
      <trkpt lat="59.9638754" lon="17.7726054">
        <ele>24.651</ele>
        <time>2014-05-16T17:09:10Z</time>
      </trkpt>
      <trkpt lat="59.963889" lon="17.7727573">
        <ele>24.651</ele>
        <time>2014-05-16T17:09:11Z</time>
      </trkpt>
      <trkpt lat="59.9638949" lon="17.7729068">
        <ele>25.1317</ele>
        <time>2014-05-16T17:09:12Z</time>
      </trkpt>
      <trkpt lat="59.9638925" lon="17.7730512">
        <ele>25.1317</ele>
        <time>2014-05-16T17:09:13Z</time>
      </trkpt>
      <trkpt lat="59.9638832" lon="17.7731913">
        <ele>25.1317</ele>
        <time>2014-05-16T17:09:14Z</time>
      </trkpt>
      <trkpt lat="59.9638693" lon="17.773329">
        <ele>25.1317</ele>
        <time>2014-05-16T17:09:15Z</time>
      </trkpt>
      <trkpt lat="59.9638528" lon="17.7734653">
        <ele>25.1317</ele>
        <time>2014-05-16T17:09:16Z</time>
      </trkpt>
      <trkpt lat="59.9638333" lon="17.7736015">
        <ele>25.6123</ele>
        <time>2014-05-16T17:09:17Z</time>
      </trkpt>
      <trkpt lat="59.9638106" lon="17.7737335">
        <ele>26.0929</ele>
        <time>2014-05-16T17:09:18Z</time>
      </trkpt>
      <trkpt lat="59.9637861" lon="17.7738613">
        <ele>26.5736</ele>
        <time>2014-05-16T17:09:19Z</time>
      </trkpt>
      <trkpt lat="59.9637614" lon="17.7739848">
        <ele>27.0543</ele>
        <time>2014-05-16T17:09:20Z</time>
      </trkpt>
      <trkpt lat="59.9637376" lon="17.7741051">
        <ele>27.0543</ele>
        <time>2014-05-16T17:09:21Z</time>
      </trkpt>
      <trkpt lat="59.9637159" lon="17.7742239">
        <ele>27.5349</ele>
        <time>2014-05-16T17:09:22Z</time>
      </trkpt>
      <trkpt lat="59.9636966" lon="17.7743427">
        <ele>27.5349</ele>
        <time>2014-05-16T17:09:23Z</time>
      </trkpt>
      <trkpt lat="59.9636789" lon="17.7744627">
        <ele>27.5349</ele>
        <time>2014-05-16T17:09:24Z</time>
      </trkpt>
      <trkpt lat="59.9636609" lon="17.7745841">
        <ele>27.5349</ele>
        <time>2014-05-16T17:09:25Z</time>
      </trkpt>
      <trkpt lat="59.9636407" lon="17.7747069">
        <ele>27.5349</ele>
        <time>2014-05-16T17:09:26Z</time>
      </trkpt>
      <trkpt lat="59.9636176" lon="17.7748292">
        <ele>27.5349</ele>
        <time>2014-05-16T17:09:27Z</time>
      </trkpt>
      <trkpt lat="59.9635926" lon="17.7749508">
        <ele>27.5349</ele>
        <time>2014-05-16T17:09:28Z</time>
      </trkpt>
      <trkpt lat="59.9635665" lon="17.7750706">
        <ele>27.5349</ele>
        <time>2014-05-16T17:09:29Z</time>
      </trkpt>
      <trkpt lat="59.9635382" lon="17.7751862">
        <ele>27.5349</ele>
        <time>2014-05-16T17:09:30Z</time>
      </trkpt>
      <trkpt lat="59.9635069" lon="17.775297">
        <ele>27.5349</ele>
        <time>2014-05-16T17:09:31Z</time>
      </trkpt>
      <trkpt lat="59.9634731" lon="17.7754036">
        <ele>27.5349</ele>
        <time>2014-05-16T17:09:32Z</time>
      </trkpt>
      <trkpt lat="59.9634387" lon="17.7755067">
        <ele>27.5349</ele>
        <time>2014-05-16T17:09:33Z</time>
      </trkpt>
      <trkpt lat="59.9634037" lon="17.7756078">
        <ele>27.5349</ele>
        <time>2014-05-16T17:09:34Z</time>
      </trkpt>
      <trkpt lat="59.9633689" lon="17.7757075">
        <ele>27.5349</ele>
        <time>2014-05-16T17:09:35Z</time>
      </trkpt>
      <trkpt lat="59.9633357" lon="17.7758067">
        <ele>28.0155</ele>
        <time>2014-05-16T17:09:36Z</time>
      </trkpt>
      <trkpt lat="59.9633042" lon="17.7759056">
        <ele>28.0155</ele>
        <time>2014-05-16T17:09:37Z</time>
      </trkpt>
      <trkpt lat="59.9632738" lon="17.7760039">
        <ele>28.0155</ele>
        <time>2014-05-16T17:09:38Z</time>
      </trkpt>
      <trkpt lat="59.963244" lon="17.7761019">
        <ele>28.0155</ele>
        <time>2014-05-16T17:09:39Z</time>
      </trkpt>
      <trkpt lat="59.963214" lon="17.776201">
        <ele>28.4962</ele>
        <time>2014-05-16T17:09:40Z</time>
      </trkpt>
      <trkpt lat="59.9631834" lon="17.7762996">
        <ele>28.4962</ele>
        <time>2014-05-16T17:09:41Z</time>
      </trkpt>
      <trkpt lat="59.9631528" lon="17.7763978">
        <ele>28.4962</ele>
        <time>2014-05-16T17:09:42Z</time>
      </trkpt>
      <trkpt lat="59.9631232" lon="17.7764976">
        <ele>28.4962</ele>
        <time>2014-05-16T17:09:43Z</time>
      </trkpt>
      <trkpt lat="59.9630941" lon="17.7765998">
        <ele>28.0155</ele>
        <time>2014-05-16T17:09:44Z</time>
      </trkpt>
      <trkpt lat="59.9630637" lon="17.7767047">
        <ele>28.0155</ele>
        <time>2014-05-16T17:09:45Z</time>
      </trkpt>
      <trkpt lat="59.9630311" lon="17.7768122">
        <ele>28.0155</ele>
        <time>2014-05-16T17:09:46Z</time>
      </trkpt>
      <trkpt lat="59.9629963" lon="17.7769214">
        <ele>27.5349</ele>
        <time>2014-05-16T17:09:47Z</time>
      </trkpt>
      <trkpt lat="59.9629586" lon="17.777029">
        <ele>27.5349</ele>
        <time>2014-05-16T17:09:48Z</time>
      </trkpt>
      <trkpt lat="59.9629182" lon="17.7771328">
        <ele>27.5349</ele>
        <time>2014-05-16T17:09:49Z</time>
      </trkpt>
      <trkpt lat="59.9628757" lon="17.7772312">
        <ele>27.5349</ele>
        <time>2014-05-16T17:09:50Z</time>
      </trkpt>
      <trkpt lat="59.9628315" lon="17.7773258">
        <ele>27.5349</ele>
        <time>2014-05-16T17:09:51Z</time>
      </trkpt>
      <trkpt lat="59.9627861" lon="17.7774192">
        <ele>27.0543</ele>
        <time>2014-05-16T17:09:52Z</time>
      </trkpt>
      <trkpt lat="59.9627409" lon="17.7775126">
        <ele>27.0543</ele>
        <time>2014-05-16T17:09:53Z</time>
      </trkpt>
      <trkpt lat="59.9626957" lon="17.7776043">
        <ele>27.0543</ele>
        <time>2014-05-16T17:09:54Z</time>
      </trkpt>
      <trkpt lat="59.9626507" lon="17.7776944">
        <ele>27.0543</ele>
        <time>2014-05-16T17:09:55Z</time>
      </trkpt>
      <trkpt lat="59.9626062" lon="17.7777855">
        <ele>27.0543</ele>
        <time>2014-05-16T17:09:56Z</time>
      </trkpt>
      <trkpt lat="59.9625621" lon="17.7778777">
        <ele>27.0543</ele>
        <time>2014-05-16T17:09:57Z</time>
      </trkpt>
      <trkpt lat="59.9625187" lon="17.7779704">
        <ele>27.0543</ele>
        <time>2014-05-16T17:09:58Z</time>
      </trkpt>
      <trkpt lat="59.9624761" lon="17.7780625">
        <ele>27.0543</ele>
        <time>2014-05-16T17:09:59Z</time>
      </trkpt>
      <trkpt lat="59.9624341" lon="17.7781534">
        <ele>27.0543</ele>
        <time>2014-05-16T17:10:00Z</time>
      </trkpt>
      <trkpt lat="59.9623924" lon="17.7782458">
        <ele>27.0543</ele>
        <time>2014-05-16T17:10:01Z</time>
      </trkpt>
      <trkpt lat="59.9623516" lon="17.7783403">
        <ele>27.0543</ele>
        <time>2014-05-16T17:10:02Z</time>
      </trkpt>
      <trkpt lat="59.9623111" lon="17.7784345">
        <ele>27.0543</ele>
        <time>2014-05-16T17:10:03Z</time>
      </trkpt>
      <trkpt lat="59.9622712" lon="17.7785281">
        <ele>27.0543</ele>
        <time>2014-05-16T17:10:04Z</time>
      </trkpt>
      <trkpt lat="59.9622317" lon="17.7786214">
        <ele>27.0543</ele>
        <time>2014-05-16T17:10:05Z</time>
      </trkpt>
      <trkpt lat="59.9621919" lon="17.7787147">
        <ele>27.0543</ele>
        <time>2014-05-16T17:10:06Z</time>
      </trkpt>
      <trkpt lat="59.9621525" lon="17.7788069">
        <ele>27.0543</ele>
        <time>2014-05-16T17:10:07Z</time>
      </trkpt>
      <trkpt lat="59.9621132" lon="17.7788974">
        <ele>27.0543</ele>
        <time>2014-05-16T17:10:08Z</time>
      </trkpt>
      <trkpt lat="59.9620741" lon="17.7789865">
        <ele>27.0543</ele>
        <time>2014-05-16T17:10:09Z</time>
      </trkpt>
      <trkpt lat="59.9620348" lon="17.7790736">
        <ele>27.0543</ele>
        <time>2014-05-16T17:10:10Z</time>
      </trkpt>
      <trkpt lat="59.9619952" lon="17.7791587">
        <ele>27.5349</ele>
        <time>2014-05-16T17:10:11Z</time>
      </trkpt>
      <trkpt lat="59.9619558" lon="17.7792421">
        <ele>27.5349</ele>
        <time>2014-05-16T17:10:12Z</time>
      </trkpt>
      <trkpt lat="59.9619164" lon="17.7793255">
        <ele>27.5349</ele>
        <time>2014-05-16T17:10:13Z</time>
      </trkpt>
      <trkpt lat="59.9618771" lon="17.7794103">
        <ele>27.5349</ele>
        <time>2014-05-16T17:10:14Z</time>
      </trkpt>
      <trkpt lat="59.9618384" lon="17.7794959">
        <ele>27.5349</ele>
        <time>2014-05-16T17:10:15Z</time>
      </trkpt>
      <trkpt lat="59.9618003" lon="17.7795817">
        <ele>27.5349</ele>
        <time>2014-05-16T17:10:16Z</time>
      </trkpt>
      <trkpt lat="59.9617633" lon="17.7796682">
        <ele>28.0155</ele>
        <time>2014-05-16T17:10:17Z</time>
      </trkpt>
      <trkpt lat="59.9617267" lon="17.779755">
        <ele>28.0155</ele>
        <time>2014-05-16T17:10:18Z</time>
      </trkpt>
      <trkpt lat="59.9616909" lon="17.7798433">
        <ele>28.0155</ele>
        <time>2014-05-16T17:10:19Z</time>
      </trkpt>
      <trkpt lat="59.9616538" lon="17.7799314">
        <ele>28.0155</ele>
        <time>2014-05-16T17:10:20Z</time>
      </trkpt>
      <trkpt lat="59.9616152" lon="17.780018">
        <ele>28.0155</ele>
        <time>2014-05-16T17:10:21Z</time>
      </trkpt>
      <trkpt lat="59.9615759" lon="17.7801035">
        <ele>28.0155</ele>
        <time>2014-05-16T17:10:22Z</time>
      </trkpt>
      <trkpt lat="59.9615357" lon="17.7801865">
        <ele>28.0155</ele>
        <time>2014-05-16T17:10:23Z</time>
      </trkpt>
      <trkpt lat="59.9614947" lon="17.7802673">
        <ele>28.0155</ele>
        <time>2014-05-16T17:10:24Z</time>
      </trkpt>
      <trkpt lat="59.9614533" lon="17.7803466">
        <ele>28.0155</ele>
        <time>2014-05-16T17:10:25Z</time>
      </trkpt>
      <trkpt lat="59.9614114" lon="17.7804246">
        <ele>28.0155</ele>
        <time>2014-05-16T17:10:26Z</time>
      </trkpt>
      <trkpt lat="59.9613694" lon="17.7805017">
        <ele>28.0155</ele>
        <time>2014-05-16T17:10:27Z</time>
      </trkpt>
      <trkpt lat="59.9613272" lon="17.7805785">
        <ele>28.0155</ele>
        <time>2014-05-16T17:10:28Z</time>
      </trkpt>
      <trkpt lat="59.9612843" lon="17.7806557">
        <ele>28.0155</ele>
        <time>2014-05-16T17:10:29Z</time>
      </trkpt>
      <trkpt lat="59.9612412" lon="17.7807343">
        <ele>28.0155</ele>
        <time>2014-05-16T17:10:30Z</time>
      </trkpt>
      <trkpt lat="59.9611979" lon="17.7808134">
        <ele>28.0155</ele>
        <time>2014-05-16T17:10:31Z</time>
      </trkpt>
      <trkpt lat="59.9611549" lon="17.7808929">
        <ele>27.5349</ele>
        <time>2014-05-16T17:10:32Z</time>
      </trkpt>
      <trkpt lat="59.9611115" lon="17.7809723">
        <ele>27.5349</ele>
        <time>2014-05-16T17:10:33Z</time>
      </trkpt>
      <trkpt lat="59.9610681" lon="17.7810496">
        <ele>27.5349</ele>
        <time>2014-05-16T17:10:34Z</time>
      </trkpt>
      <trkpt lat="59.9610248" lon="17.7811266">
        <ele>27.5349</ele>
        <time>2014-05-16T17:10:35Z</time>
      </trkpt>
      <trkpt lat="59.9609812" lon="17.7812047">
        <ele>27.5349</ele>
        <time>2014-05-16T17:10:36Z</time>
      </trkpt>
      <trkpt lat="59.9609368" lon="17.7812834">
        <ele>27.5349</ele>
        <time>2014-05-16T17:10:37Z</time>
      </trkpt>
      <trkpt lat="59.960892" lon="17.7813629">
        <ele>28.0155</ele>
        <time>2014-05-16T17:10:38Z</time>
      </trkpt>
      <trkpt lat="59.960847" lon="17.7814442">
        <ele>28.0155</ele>
        <time>2014-05-16T17:10:39Z</time>
      </trkpt>
      <trkpt lat="59.9608012" lon="17.7815265">
        <ele>28.0155</ele>
        <time>2014-05-16T17:10:40Z</time>
      </trkpt>
      <trkpt lat="59.9607553" lon="17.781609">
        <ele>28.0155</ele>
        <time>2014-05-16T17:10:41Z</time>
      </trkpt>
      <trkpt lat="59.9607099" lon="17.7816926">
        <ele>27.5349</ele>
        <time>2014-05-16T17:10:42Z</time>
      </trkpt>
      <trkpt lat="59.9606653" lon="17.7817772">
        <ele>28.0155</ele>
        <time>2014-05-16T17:10:43Z</time>
      </trkpt>
      <trkpt lat="59.9606219" lon="17.7818636">
        <ele>28.0155</ele>
        <time>2014-05-16T17:10:44Z</time>
      </trkpt>
      <trkpt lat="59.9605803" lon="17.7819509">
        <ele>28.0155</ele>
        <time>2014-05-16T17:10:45Z</time>
      </trkpt>
      <trkpt lat="59.96054" lon="17.7820397">
        <ele>28.4962</ele>
        <time>2014-05-16T17:10:46Z</time>
      </trkpt>
      <trkpt lat="59.9605035" lon="17.7821301">
        <ele>28.4962</ele>
        <time>2014-05-16T17:10:47Z</time>
      </trkpt>
      <trkpt lat="59.9604702" lon="17.7822212">
        <ele>28.9769</ele>
        <time>2014-05-16T17:10:48Z</time>
      </trkpt>
      <trkpt lat="59.9604394" lon="17.7823129">
        <ele>28.9769</ele>
        <time>2014-05-16T17:10:49Z</time>
      </trkpt>
      <trkpt lat="59.9604093" lon="17.7824041">
        <ele>29.4575</ele>
        <time>2014-05-16T17:10:50Z</time>
      </trkpt>
      <trkpt lat="59.9603794" lon="17.7824951">
        <ele>29.4575</ele>
        <time>2014-05-16T17:10:51Z</time>
      </trkpt>
      <trkpt lat="59.9603491" lon="17.7825867">
        <ele>29.4575</ele>
        <time>2014-05-16T17:10:52Z</time>
      </trkpt>
      <trkpt lat="59.9603188" lon="17.7826801">
        <ele>29.4575</ele>
        <time>2014-05-16T17:10:53Z</time>
      </trkpt>
      <trkpt lat="59.960288" lon="17.7827734">
        <ele>29.4575</ele>
        <time>2014-05-16T17:10:54Z</time>
      </trkpt>
      <trkpt lat="59.960257" lon="17.782865">
        <ele>29.9381</ele>
        <time>2014-05-16T17:10:55Z</time>
      </trkpt>
      <trkpt lat="59.960225" lon="17.7829617">
        <ele>29.9381</ele>
        <time>2014-05-16T17:10:56Z</time>
      </trkpt>
      <trkpt lat="59.9601919" lon="17.7830594">
        <ele>29.4575</ele>
        <time>2014-05-16T17:10:57Z</time>
      </trkpt>
      <trkpt lat="59.9601587" lon="17.7831589">
        <ele>29.4575</ele>
        <time>2014-05-16T17:10:58Z</time>
      </trkpt>
      <trkpt lat="59.9601257" lon="17.7832615">
        <ele>29.4575</ele>
        <time>2014-05-16T17:10:59Z</time>
      </trkpt>
      <trkpt lat="59.9600929" lon="17.783365">
        <ele>29.4575</ele>
        <time>2014-05-16T17:11:00Z</time>
      </trkpt>
      <trkpt lat="59.9600596" lon="17.7834686">
        <ele>28.9769</ele>
        <time>2014-05-16T17:11:01Z</time>
      </trkpt>
      <trkpt lat="59.9600252" lon="17.7835727">
        <ele>28.9769</ele>
        <time>2014-05-16T17:11:02Z</time>
      </trkpt>
      <trkpt lat="59.9599897" lon="17.7836763">
        <ele>28.9769</ele>
        <time>2014-05-16T17:11:03Z</time>
      </trkpt>
      <trkpt lat="59.9599526" lon="17.7837778">
        <ele>28.9769</ele>
        <time>2014-05-16T17:11:04Z</time>
      </trkpt>
      <trkpt lat="59.9599136" lon="17.7838762">
        <ele>28.9769</ele>
        <time>2014-05-16T17:11:05Z</time>
      </trkpt>
      <trkpt lat="59.9598727" lon="17.783971">
        <ele>28.9769</ele>
        <time>2014-05-16T17:11:06Z</time>
      </trkpt>
      <trkpt lat="59.9598303" lon="17.7840627">
        <ele>28.9769</ele>
        <time>2014-05-16T17:11:07Z</time>
      </trkpt>
      <trkpt lat="59.9597864" lon="17.7841509">
        <ele>28.9769</ele>
        <time>2014-05-16T17:11:08Z</time>
      </trkpt>
      <trkpt lat="59.9597416" lon="17.784235">
        <ele>29.4575</ele>
        <time>2014-05-16T17:11:09Z</time>
      </trkpt>
      <trkpt lat="59.959696" lon="17.7843153">
        <ele>29.4575</ele>
        <time>2014-05-16T17:11:10Z</time>
      </trkpt>
      <trkpt lat="59.9596506" lon="17.7843932">
        <ele>29.4575</ele>
        <time>2014-05-16T17:11:11Z</time>
      </trkpt>
      <trkpt lat="59.9596051" lon="17.7844682">
        <ele>29.4575</ele>
        <time>2014-05-16T17:11:12Z</time>
      </trkpt>
      <trkpt lat="59.9595599" lon="17.7845408">
        <ele>29.4575</ele>
        <time>2014-05-16T17:11:13Z</time>
      </trkpt>
      <trkpt lat="59.959515" lon="17.7846109">
        <ele>28.9769</ele>
        <time>2014-05-16T17:11:14Z</time>
      </trkpt>
      <trkpt lat="59.9594706" lon="17.7846803">
        <ele>28.9769</ele>
        <time>2014-05-16T17:11:15Z</time>
      </trkpt>
      <trkpt lat="59.9594263" lon="17.7847501">
        <ele>28.4962</ele>
        <time>2014-05-16T17:11:16Z</time>
      </trkpt>
      <trkpt lat="59.9593802" lon="17.7848183">
        <ele>28.4962</ele>
        <time>2014-05-16T17:11:17Z</time>
      </trkpt>
      <trkpt lat="59.959332" lon="17.7848858">
        <ele>28.0155</ele>
        <time>2014-05-16T17:11:18Z</time>
      </trkpt>
      <trkpt lat="59.9592812" lon="17.784952">
        <ele>27.5349</ele>
        <time>2014-05-16T17:11:19Z</time>
      </trkpt>
      <trkpt lat="59.9592277" lon="17.7850153">
        <ele>27.5349</ele>
        <time>2014-05-16T17:11:20Z</time>
      </trkpt>
      <trkpt lat="59.9591722" lon="17.7850739">
        <ele>27.5349</ele>
        <time>2014-05-16T17:11:21Z</time>
      </trkpt>
      <trkpt lat="59.9591153" lon="17.7851282">
        <ele>27.0543</ele>
        <time>2014-05-16T17:11:22Z</time>
      </trkpt>
      <trkpt lat="59.9590568" lon="17.7851775">
        <ele>27.0543</ele>
        <time>2014-05-16T17:11:23Z</time>
      </trkpt>
      <trkpt lat="59.9589972" lon="17.7852235">
        <ele>27.0543</ele>
        <time>2014-05-16T17:11:24Z</time>
      </trkpt>
      <trkpt lat="59.9589374" lon="17.7852684">
        <ele>27.0543</ele>
        <time>2014-05-16T17:11:25Z</time>
      </trkpt>
      <trkpt lat="59.9588777" lon="17.7853125">
        <ele>27.0543</ele>
        <time>2014-05-16T17:11:26Z</time>
      </trkpt>
      <trkpt lat="59.9588197" lon="17.7853563">
        <ele>27.0543</ele>
        <time>2014-05-16T17:11:27Z</time>
      </trkpt>
      <trkpt lat="59.9587638" lon="17.7854023">
        <ele>27.0543</ele>
        <time>2014-05-16T17:11:28Z</time>
      </trkpt>
      <trkpt lat="59.9587092" lon="17.7854511">
        <ele>27.0543</ele>
        <time>2014-05-16T17:11:29Z</time>
      </trkpt>
      <trkpt lat="59.9586539" lon="17.7855017">
        <ele>27.0543</ele>
        <time>2014-05-16T17:11:30Z</time>
      </trkpt>
      <trkpt lat="59.958598" lon="17.7855559">
        <ele>27.0543</ele>
        <time>2014-05-16T17:11:31Z</time>
      </trkpt>
      <trkpt lat="59.9585428" lon="17.7856173">
        <ele>26.5736</ele>
        <time>2014-05-16T17:11:32Z</time>
      </trkpt>
      <trkpt lat="59.9584875" lon="17.7856814">
        <ele>26.5736</ele>
        <time>2014-05-16T17:11:33Z</time>
      </trkpt>
      <trkpt lat="59.9584318" lon="17.7857463">
        <ele>26.0929</ele>
        <time>2014-05-16T17:11:34Z</time>
      </trkpt>
      <trkpt lat="59.9583746" lon="17.7858123">
        <ele>26.0929</ele>
        <time>2014-05-16T17:11:35Z</time>
      </trkpt>
      <trkpt lat="59.9583172" lon="17.7858793">
        <ele>26.0929</ele>
        <time>2014-05-16T17:11:36Z</time>
      </trkpt>
      <trkpt lat="59.9582595" lon="17.7859446">
        <ele>26.0929</ele>
        <time>2014-05-16T17:11:37Z</time>
      </trkpt>
      <trkpt lat="59.9582013" lon="17.7860092">
        <ele>26.0929</ele>
        <time>2014-05-16T17:11:38Z</time>
      </trkpt>
      <trkpt lat="59.9581442" lon="17.7860747">
        <ele>26.0929</ele>
        <time>2014-05-16T17:11:39Z</time>
      </trkpt>
      <trkpt lat="59.9580872" lon="17.7861408">
        <ele>26.0929</ele>
        <time>2014-05-16T17:11:40Z</time>
      </trkpt>
      <trkpt lat="59.9580308" lon="17.7862071">
        <ele>26.0929</ele>
        <time>2014-05-16T17:11:41Z</time>
      </trkpt>
      <trkpt lat="59.9579748" lon="17.7862747">
        <ele>26.0929</ele>
        <time>2014-05-16T17:11:42Z</time>
      </trkpt>
      <trkpt lat="59.95792" lon="17.786344">
        <ele>25.6123</ele>
        <time>2014-05-16T17:11:43Z</time>
      </trkpt>
      <trkpt lat="59.957867" lon="17.7864141">
        <ele>25.6123</ele>
        <time>2014-05-16T17:11:44Z</time>
      </trkpt>
      <trkpt lat="59.9578153" lon="17.7864876">
        <ele>26.0929</ele>
        <time>2014-05-16T17:11:45Z</time>
      </trkpt>
      <trkpt lat="59.9577675" lon="17.7865673">
        <ele>26.0929</ele>
        <time>2014-05-16T17:11:46Z</time>
      </trkpt>
      <trkpt lat="59.9577241" lon="17.7866548">
        <ele>26.5736</ele>
        <time>2014-05-16T17:11:47Z</time>
      </trkpt>
      <trkpt lat="59.9576881" lon="17.7867502">
        <ele>26.5736</ele>
        <time>2014-05-16T17:11:48Z</time>
      </trkpt>
      <trkpt lat="59.9576599" lon="17.7868522">
        <ele>26.5736</ele>
        <time>2014-05-16T17:11:49Z</time>
      </trkpt>
      <trkpt lat="59.9576375" lon="17.7869575">
        <ele>27.0543</ele>
        <time>2014-05-16T17:11:50Z</time>
      </trkpt>
      <trkpt lat="59.9576177" lon="17.7870639">
        <ele>27.0543</ele>
        <time>2014-05-16T17:11:51Z</time>
      </trkpt>
      <trkpt lat="59.9575986" lon="17.7871713">
        <ele>27.0543</ele>
        <time>2014-05-16T17:11:52Z</time>
      </trkpt>
      <trkpt lat="59.9575795" lon="17.7872809">
        <ele>27.0543</ele>
        <time>2014-05-16T17:11:53Z</time>
      </trkpt>
      <trkpt lat="59.9575583" lon="17.7873915">
        <ele>27.0543</ele>
        <time>2014-05-16T17:11:54Z</time>
      </trkpt>
      <trkpt lat="59.9575335" lon="17.7875009">
        <ele>26.5736</ele>
        <time>2014-05-16T17:11:55Z</time>
      </trkpt>
      <trkpt lat="59.9575065" lon="17.7876105">
        <ele>26.5736</ele>
        <time>2014-05-16T17:11:56Z</time>
      </trkpt>
      <trkpt lat="59.9574781" lon="17.7877184">
        <ele>26.5736</ele>
        <time>2014-05-16T17:11:57Z</time>
      </trkpt>
      <trkpt lat="59.9574483" lon="17.7878234">
        <ele>26.5736</ele>
        <time>2014-05-16T17:11:58Z</time>
      </trkpt>
      <trkpt lat="59.9574179" lon="17.7879271">
        <ele>26.5736</ele>
        <time>2014-05-16T17:11:59Z</time>
      </trkpt>
      <trkpt lat="59.957389" lon="17.7880299">
        <ele>26.5736</ele>
        <time>2014-05-16T17:12:00Z</time>
      </trkpt>
      <trkpt lat="59.9573609" lon="17.7881306">
        <ele>26.5736</ele>
        <time>2014-05-16T17:12:01Z</time>
      </trkpt>
      <trkpt lat="59.9573329" lon="17.7882301">
        <ele>26.5736</ele>
        <time>2014-05-16T17:12:02Z</time>
      </trkpt>
      <trkpt lat="59.9573053" lon="17.7883296">
        <ele>26.5736</ele>
        <time>2014-05-16T17:12:03Z</time>
      </trkpt>
      <trkpt lat="59.9572771" lon="17.7884302">
        <ele>26.5736</ele>
        <time>2014-05-16T17:12:04Z</time>
      </trkpt>
      <trkpt lat="59.957246" lon="17.7885303">
        <ele>26.5736</ele>
        <time>2014-05-16T17:12:05Z</time>
      </trkpt>
      <trkpt lat="59.9572095" lon="17.7886278">
        <ele>26.5736</ele>
        <time>2014-05-16T17:12:06Z</time>
      </trkpt>
      <trkpt lat="59.9571712" lon="17.7887251">
        <ele>26.5736</ele>
        <time>2014-05-16T17:12:07Z</time>
      </trkpt>
      <trkpt lat="59.9571289" lon="17.7888208">
        <ele>26.5736</ele>
        <time>2014-05-16T17:12:08Z</time>
      </trkpt>
      <trkpt lat="59.9570818" lon="17.7889128">
        <ele>26.5736</ele>
        <time>2014-05-16T17:12:09Z</time>
      </trkpt>
      <trkpt lat="59.957031" lon="17.7889999">
        <ele>26.0929</ele>
        <time>2014-05-16T17:12:10Z</time>
      </trkpt>
      <trkpt lat="59.9569676" lon="17.7890712">
        <ele>26.0929</ele>
        <time>2014-05-16T17:12:11Z</time>
      </trkpt>
      <trkpt lat="59.9569085" lon="17.789149">
        <ele>26.0929</ele>
        <time>2014-05-16T17:12:12Z</time>
      </trkpt>
      <trkpt lat="59.9568529" lon="17.7892314">
        <ele>26.0929</ele>
        <time>2014-05-16T17:12:13Z</time>
      </trkpt>
      <trkpt lat="59.9567948" lon="17.7893055">
        <ele>25.6123</ele>
        <time>2014-05-16T17:12:14Z</time>
      </trkpt>
      <trkpt lat="59.9567407" lon="17.7893708">
        <ele>25.1317</ele>
        <time>2014-05-16T17:12:15Z</time>
      </trkpt>
      <trkpt lat="59.9566871" lon="17.7894505">
        <ele>25.1317</ele>
        <time>2014-05-16T17:12:16Z</time>
      </trkpt>
      <trkpt lat="59.9566404" lon="17.7895288">
        <ele>24.651</ele>
        <time>2014-05-16T17:12:17Z</time>
      </trkpt>
      <trkpt lat="59.9565995" lon="17.7896209">
        <ele>24.651</ele>
        <time>2014-05-16T17:12:18Z</time>
      </trkpt>
      <trkpt lat="59.9565632" lon="17.7897847">
        <ele>24.651</ele>
        <time>2014-05-16T17:12:19Z</time>
      </trkpt>
      <trkpt lat="59.956542" lon="17.7899023">
        <ele>25.1317</ele>
        <time>2014-05-16T17:12:20Z</time>
      </trkpt>
      <trkpt lat="59.9565361" lon="17.7900258">
        <ele>25.1317</ele>
        <time>2014-05-16T17:12:21Z</time>
      </trkpt>
      <trkpt lat="59.9565441" lon="17.7901473">
        <ele>25.6123</ele>
        <time>2014-05-16T17:12:22Z</time>
      </trkpt>
      <trkpt lat="59.9565606" lon="17.7902646">
        <ele>25.6123</ele>
        <time>2014-05-16T17:12:23Z</time>
      </trkpt>
      <trkpt lat="59.9565813" lon="17.7903818">
        <ele>26.0929</ele>
        <time>2014-05-16T17:12:24Z</time>
      </trkpt>
      <trkpt lat="59.9566058" lon="17.7904986">
        <ele>26.0929</ele>
        <time>2014-05-16T17:12:25Z</time>
      </trkpt>
      <trkpt lat="59.956632" lon="17.790613">
        <ele>26.5736</ele>
        <time>2014-05-16T17:12:26Z</time>
      </trkpt>
      <trkpt lat="59.956657" lon="17.7907268">
        <ele>27.0543</ele>
        <time>2014-05-16T17:12:27Z</time>
      </trkpt>
      <trkpt lat="59.9566786" lon="17.7908439">
        <ele>27.5349</ele>
        <time>2014-05-16T17:12:28Z</time>
      </trkpt>
      <trkpt lat="59.9566992" lon="17.7909611">
        <ele>28.0155</ele>
        <time>2014-05-16T17:12:29Z</time>
      </trkpt>
      <trkpt lat="59.9567165" lon="17.79108">
        <ele>28.0155</ele>
        <time>2014-05-16T17:12:30Z</time>
      </trkpt>
      <trkpt lat="59.9567275" lon="17.7912057">
        <ele>28.0155</ele>
        <time>2014-05-16T17:12:31Z</time>
      </trkpt>
      <trkpt lat="59.9567304" lon="17.7913422">
        <ele>28.4962</ele>
        <time>2014-05-16T17:12:32Z</time>
      </trkpt>
      <trkpt lat="59.9567228" lon="17.7914827">
        <ele>28.4962</ele>
        <time>2014-05-16T17:12:33Z</time>
      </trkpt>
      <trkpt lat="59.9567062" lon="17.7916133">
        <ele>28.0155</ele>
        <time>2014-05-16T17:12:34Z</time>
      </trkpt>
      <trkpt lat="59.9566859" lon="17.7917401">
        <ele>28.0155</ele>
        <time>2014-05-16T17:12:35Z</time>
      </trkpt>
      <trkpt lat="59.9566648" lon="17.7918687">
        <ele>28.0155</ele>
        <time>2014-05-16T17:12:36Z</time>
      </trkpt>
      <trkpt lat="59.9566444" lon="17.7919955">
        <ele>28.4962</ele>
        <time>2014-05-16T17:12:37Z</time>
      </trkpt>
      <trkpt lat="59.9566232" lon="17.7921188">
        <ele>28.4962</ele>
        <time>2014-05-16T17:12:38Z</time>
      </trkpt>
      <trkpt lat="59.9566016" lon="17.79224">
        <ele>28.9769</ele>
        <time>2014-05-16T17:12:39Z</time>
      </trkpt>
      <trkpt lat="59.9565807" lon="17.7923605">
        <ele>28.9769</ele>
        <time>2014-05-16T17:12:40Z</time>
      </trkpt>
      <trkpt lat="59.9565596" lon="17.7924804">
        <ele>28.9769</ele>
        <time>2014-05-16T17:12:41Z</time>
      </trkpt>
      <trkpt lat="59.9565384" lon="17.7926001">
        <ele>29.4575</ele>
        <time>2014-05-16T17:12:42Z</time>
      </trkpt>
      <trkpt lat="59.9565167" lon="17.7927205">
        <ele>29.4575</ele>
        <time>2014-05-16T17:12:43Z</time>
      </trkpt>
      <trkpt lat="59.9564946" lon="17.7928412">
        <ele>29.4575</ele>
        <time>2014-05-16T17:12:44Z</time>
      </trkpt>
      <trkpt lat="59.9564714" lon="17.792961">
        <ele>29.4575</ele>
        <time>2014-05-16T17:12:45Z</time>
      </trkpt>
      <trkpt lat="59.9564478" lon="17.7930795">
        <ele>29.9381</ele>
        <time>2014-05-16T17:12:46Z</time>
      </trkpt>
      <trkpt lat="59.9564254" lon="17.7931969">
        <ele>29.9381</ele>
        <time>2014-05-16T17:12:47Z</time>
      </trkpt>
      <trkpt lat="59.956403" lon="17.7933147">
        <ele>29.9381</ele>
        <time>2014-05-16T17:12:48Z</time>
      </trkpt>
      <trkpt lat="59.9563793" lon="17.7934318">
        <ele>29.4575</ele>
        <time>2014-05-16T17:12:49Z</time>
      </trkpt>
      <trkpt lat="59.956354" lon="17.7935501">
        <ele>29.4575</ele>
        <time>2014-05-16T17:12:50Z</time>
      </trkpt>
      <trkpt lat="59.9563279" lon="17.7936704">
        <ele>29.4575</ele>
        <time>2014-05-16T17:12:51Z</time>
      </trkpt>
      <trkpt lat="59.9563016" lon="17.7937926">
        <ele>28.9769</ele>
        <time>2014-05-16T17:12:52Z</time>
      </trkpt>
      <trkpt lat="59.9562752" lon="17.7939162">
        <ele>28.9769</ele>
        <time>2014-05-16T17:12:53Z</time>
      </trkpt>
      <trkpt lat="59.9562477" lon="17.7940405">
        <ele>28.4962</ele>
        <time>2014-05-16T17:12:54Z</time>
      </trkpt>
      <trkpt lat="59.9562194" lon="17.7941647">
        <ele>28.4962</ele>
        <time>2014-05-16T17:12:55Z</time>
      </trkpt>
      <trkpt lat="59.9561914" lon="17.7942889">
        <ele>28.0155</ele>
        <time>2014-05-16T17:12:56Z</time>
      </trkpt>
      <trkpt lat="59.9561632" lon="17.7944132">
        <ele>28.0155</ele>
        <time>2014-05-16T17:12:57Z</time>
      </trkpt>
      <trkpt lat="59.9561347" lon="17.7945373">
        <ele>28.0155</ele>
        <time>2014-05-16T17:12:58Z</time>
      </trkpt>
      <trkpt lat="59.9561058" lon="17.79466">
        <ele>27.5349</ele>
        <time>2014-05-16T17:12:59Z</time>
      </trkpt>
      <trkpt lat="59.9560754" lon="17.7947805">
        <ele>27.5349</ele>
        <time>2014-05-16T17:13:00Z</time>
      </trkpt>
      <trkpt lat="59.9560443" lon="17.7949001">
        <ele>27.5349</ele>
        <time>2014-05-16T17:13:01Z</time>
      </trkpt>
      <trkpt lat="59.9560141" lon="17.7950198">
        <ele>27.0543</ele>
        <time>2014-05-16T17:13:02Z</time>
      </trkpt>
      <trkpt lat="59.9559846" lon="17.7951398">
        <ele>27.0543</ele>
        <time>2014-05-16T17:13:03Z</time>
      </trkpt>
      <trkpt lat="59.9559566" lon="17.7952595">
        <ele>27.0543</ele>
        <time>2014-05-16T17:13:04Z</time>
      </trkpt>
      <trkpt lat="59.9559305" lon="17.7953782">
        <ele>27.0543</ele>
        <time>2014-05-16T17:13:05Z</time>
      </trkpt>
      <trkpt lat="59.9559057" lon="17.7954962">
        <ele>27.0543</ele>
        <time>2014-05-16T17:13:06Z</time>
      </trkpt>
      <trkpt lat="59.9558826" lon="17.7956147">
        <ele>27.0543</ele>
        <time>2014-05-16T17:13:07Z</time>
      </trkpt>
      <trkpt lat="59.9558608" lon="17.7957357">
        <ele>27.0543</ele>
        <time>2014-05-16T17:13:08Z</time>
      </trkpt>
      <trkpt lat="59.9558397" lon="17.7958592">
        <ele>27.0543</ele>
        <time>2014-05-16T17:13:09Z</time>
      </trkpt>
      <trkpt lat="59.9558198" lon="17.7959842">
        <ele>27.0543</ele>
        <time>2014-05-16T17:13:10Z</time>
      </trkpt>
      <trkpt lat="59.9557997" lon="17.7961111">
        <ele>26.5736</ele>
        <time>2014-05-16T17:13:11Z</time>
      </trkpt>
      <trkpt lat="59.955778" lon="17.7962391">
        <ele>26.5736</ele>
        <time>2014-05-16T17:13:12Z</time>
      </trkpt>
      <trkpt lat="59.9557555" lon="17.7963659">
        <ele>26.5736</ele>
        <time>2014-05-16T17:13:13Z</time>
      </trkpt>
      <trkpt lat="59.9557313" lon="17.7964923">
        <ele>26.5736</ele>
        <time>2014-05-16T17:13:14Z</time>
      </trkpt>
      <trkpt lat="59.9557053" lon="17.7966154">
        <ele>26.0929</ele>
        <time>2014-05-16T17:13:15Z</time>
      </trkpt>
      <trkpt lat="59.9556785" lon="17.7967367">
        <ele>26.0929</ele>
        <time>2014-05-16T17:13:16Z</time>
      </trkpt>
      <trkpt lat="59.9556516" lon="17.7968556">
        <ele>26.0929</ele>
        <time>2014-05-16T17:13:17Z</time>
      </trkpt>
      <trkpt lat="59.9556242" lon="17.796972">
        <ele>26.0929</ele>
        <time>2014-05-16T17:13:18Z</time>
      </trkpt>
      <trkpt lat="59.9555962" lon="17.7970855">
        <ele>26.0929</ele>
        <time>2014-05-16T17:13:19Z</time>
      </trkpt>
      <trkpt lat="59.9555677" lon="17.7971961">
        <ele>26.5736</ele>
        <time>2014-05-16T17:13:20Z</time>
      </trkpt>
      <trkpt lat="59.9555386" lon="17.7973035">
        <ele>26.5736</ele>
        <time>2014-05-16T17:13:21Z</time>
      </trkpt>
      <trkpt lat="59.9555091" lon="17.7974061">
        <ele>26.5736</ele>
        <time>2014-05-16T17:13:22Z</time>
      </trkpt>
      <trkpt lat="59.95548" lon="17.7975047">
        <ele>26.5736</ele>
        <time>2014-05-16T17:13:23Z</time>
      </trkpt>
      <trkpt lat="59.9554516" lon="17.7976008">
        <ele>27.0543</ele>
        <time>2014-05-16T17:13:24Z</time>
      </trkpt>
      <trkpt lat="59.9554237" lon="17.7976961">
        <ele>27.0543</ele>
        <time>2014-05-16T17:13:25Z</time>
      </trkpt>
      <trkpt lat="59.9553957" lon="17.7977913">
        <ele>27.0543</ele>
        <time>2014-05-16T17:13:26Z</time>
      </trkpt>
      <trkpt lat="59.9553675" lon="17.7978863">
        <ele>27.0543</ele>
        <time>2014-05-16T17:13:27Z</time>
      </trkpt>
      <trkpt lat="59.9553391" lon="17.7979804">
        <ele>27.0543</ele>
        <time>2014-05-16T17:13:28Z</time>
      </trkpt>
      <trkpt lat="59.9553107" lon="17.7980737">
        <ele>27.0543</ele>
        <time>2014-05-16T17:13:29Z</time>
      </trkpt>
      <trkpt lat="59.9552818" lon="17.798167">
        <ele>27.0543</ele>
        <time>2014-05-16T17:13:30Z</time>
      </trkpt>
      <trkpt lat="59.9552515" lon="17.7982602">
        <ele>27.0543</ele>
        <time>2014-05-16T17:13:31Z</time>
      </trkpt>
      <trkpt lat="59.9552189" lon="17.7983526">
        <ele>27.0543</ele>
        <time>2014-05-16T17:13:32Z</time>
      </trkpt>
      <trkpt lat="59.9551844" lon="17.7984436">
        <ele>27.5349</ele>
        <time>2014-05-16T17:13:33Z</time>
      </trkpt>
      <trkpt lat="59.9551499" lon="17.7985308">
        <ele>27.5349</ele>
        <time>2014-05-16T17:13:34Z</time>
      </trkpt>
      <trkpt lat="59.955116" lon="17.7986131">
        <ele>27.5349</ele>
        <time>2014-05-16T17:13:35Z</time>
      </trkpt>
      <trkpt lat="59.9550821" lon="17.7986916">
        <ele>27.5349</ele>
        <time>2014-05-16T17:13:36Z</time>
      </trkpt>
      <trkpt lat="59.9550459" lon="17.7987675">
        <ele>27.5349</ele>
        <time>2014-05-16T17:13:37Z</time>
      </trkpt>
      <trkpt lat="59.9550077" lon="17.7988409">
        <ele>27.5349</ele>
        <time>2014-05-16T17:13:38Z</time>
      </trkpt>
      <trkpt lat="59.9549679" lon="17.7989147">
        <ele>27.5349</ele>
        <time>2014-05-16T17:13:39Z</time>
      </trkpt>
      <trkpt lat="59.9549274" lon="17.7989912">
        <ele>27.0543</ele>
        <time>2014-05-16T17:13:40Z</time>
      </trkpt>
      <trkpt lat="59.9548854" lon="17.799069">
        <ele>27.0543</ele>
        <time>2014-05-16T17:13:41Z</time>
      </trkpt>
      <trkpt lat="59.9548413" lon="17.7991497">
        <ele>27.0543</ele>
        <time>2014-05-16T17:13:42Z</time>
      </trkpt>
      <trkpt lat="59.9547959" lon="17.799233">
        <ele>27.0543</ele>
        <time>2014-05-16T17:13:43Z</time>
      </trkpt>
      <trkpt lat="59.9547502" lon="17.7993191">
        <ele>27.0543</ele>
        <time>2014-05-16T17:13:44Z</time>
      </trkpt>
      <trkpt lat="59.9547044" lon="17.7994093">
        <ele>26.5736</ele>
        <time>2014-05-16T17:13:45Z</time>
      </trkpt>
      <trkpt lat="59.9546584" lon="17.7995025">
        <ele>26.5736</ele>
        <time>2014-05-16T17:13:46Z</time>
      </trkpt>
      <trkpt lat="59.9546124" lon="17.7995979">
        <ele>26.5736</ele>
        <time>2014-05-16T17:13:47Z</time>
      </trkpt>
      <trkpt lat="59.9545671" lon="17.7996957">
        <ele>26.5736</ele>
        <time>2014-05-16T17:13:48Z</time>
      </trkpt>
      <trkpt lat="59.9545219" lon="17.7997952">
        <ele>26.5736</ele>
        <time>2014-05-16T17:13:49Z</time>
      </trkpt>
      <trkpt lat="59.9544786" lon="17.7998971">
        <ele>26.5736</ele>
        <time>2014-05-16T17:13:50Z</time>
      </trkpt>
      <trkpt lat="59.9544372" lon="17.7999984">
        <ele>26.5736</ele>
        <time>2014-05-16T17:13:51Z</time>
      </trkpt>
      <trkpt lat="59.9543978" lon="17.8000973">
        <ele>26.5736</ele>
        <time>2014-05-16T17:13:52Z</time>
      </trkpt>
      <trkpt lat="59.9543607" lon="17.8001926">
        <ele>26.5736</ele>
        <time>2014-05-16T17:13:53Z</time>
      </trkpt>
      <trkpt lat="59.954324" lon="17.8002879">
        <ele>26.5736</ele>
        <time>2014-05-16T17:13:54Z</time>
      </trkpt>
      <trkpt lat="59.9542876" lon="17.8003817">
        <ele>26.5736</ele>
        <time>2014-05-16T17:13:55Z</time>
      </trkpt>
      <trkpt lat="59.9542507" lon="17.8004748">
        <ele>26.5736</ele>
        <time>2014-05-16T17:13:56Z</time>
      </trkpt>
      <trkpt lat="59.954213" lon="17.800568">
        <ele>26.0929</ele>
        <time>2014-05-16T17:13:57Z</time>
      </trkpt>
      <trkpt lat="59.9541761" lon="17.8006603">
        <ele>26.0929</ele>
        <time>2014-05-16T17:13:58Z</time>
      </trkpt>
      <trkpt lat="59.954142" lon="17.8007472">
        <ele>26.0929</ele>
        <time>2014-05-16T17:13:59Z</time>
      </trkpt>
      <trkpt lat="59.9541069" lon="17.8008334">
        <ele>26.0929</ele>
        <time>2014-05-16T17:14:00Z</time>
      </trkpt>
      <trkpt lat="59.9540719" lon="17.8009188">
        <ele>26.0929</ele>
        <time>2014-05-16T17:14:01Z</time>
      </trkpt>
      <trkpt lat="59.9540377" lon="17.8010041">
        <ele>26.0929</ele>
        <time>2014-05-16T17:14:02Z</time>
      </trkpt>
      <trkpt lat="59.9540042" lon="17.8010866">
        <ele>26.0929</ele>
        <time>2014-05-16T17:14:03Z</time>
      </trkpt>
      <trkpt lat="59.9539707" lon="17.8011649">
        <ele>26.0929</ele>
        <time>2014-05-16T17:14:04Z</time>
      </trkpt>
      <trkpt lat="59.9539381" lon="17.8012431">
        <ele>25.6123</ele>
        <time>2014-05-16T17:14:05Z</time>
      </trkpt>
      <trkpt lat="59.9539038" lon="17.8013301">
        <ele>25.6123</ele>
        <time>2014-05-16T17:14:06Z</time>
      </trkpt>
      <trkpt lat="59.9538696" lon="17.8014135">
        <ele>25.6123</ele>
        <time>2014-05-16T17:14:07Z</time>
      </trkpt>
      <trkpt lat="59.9538362" lon="17.8015003">
        <ele>25.1317</ele>
        <time>2014-05-16T17:14:08Z</time>
      </trkpt>
      <trkpt lat="59.9538048" lon="17.8015891">
        <ele>25.1317</ele>
        <time>2014-05-16T17:14:09Z</time>
      </trkpt>
      <trkpt lat="59.9537758" lon="17.8016761">
        <ele>24.651</ele>
        <time>2014-05-16T17:14:10Z</time>
      </trkpt>
      <trkpt lat="59.9537492" lon="17.8017635">
        <ele>24.651</ele>
        <time>2014-05-16T17:14:11Z</time>
      </trkpt>
      <trkpt lat="59.9537234" lon="17.8018538">
        <ele>25.1317</ele>
        <time>2014-05-16T17:14:12Z</time>
      </trkpt>
      <trkpt lat="59.9536986" lon="17.8019475">
        <ele>25.1317</ele>
        <time>2014-05-16T17:14:13Z</time>
      </trkpt>
      <trkpt lat="59.9536768" lon="17.8020444">
        <ele>25.6123</ele>
        <time>2014-05-16T17:14:14Z</time>
      </trkpt>
      <trkpt lat="59.9536554" lon="17.8021433">
        <ele>25.6123</ele>
        <time>2014-05-16T17:14:15Z</time>
      </trkpt>
      <trkpt lat="59.9536335" lon="17.8022434">
        <ele>25.6123</ele>
        <time>2014-05-16T17:14:16Z</time>
      </trkpt>
      <trkpt lat="59.9536125" lon="17.8023442">
        <ele>25.6123</ele>
        <time>2014-05-16T17:14:17Z</time>
      </trkpt>
      <trkpt lat="59.9535909" lon="17.8024441">
        <ele>25.6123</ele>
        <time>2014-05-16T17:14:18Z</time>
      </trkpt>
      <trkpt lat="59.9535696" lon="17.8025477">
        <ele>25.6123</ele>
        <time>2014-05-16T17:14:19Z</time>
      </trkpt>
      <trkpt lat="59.9535505" lon="17.8026514">
        <ele>26.0929</ele>
        <time>2014-05-16T17:14:20Z</time>
      </trkpt>
      <trkpt lat="59.9535319" lon="17.8027498">
        <ele>26.5736</ele>
        <time>2014-05-16T17:14:21Z</time>
      </trkpt>
      <trkpt lat="59.9535115" lon="17.8028421">
        <ele>26.0929</ele>
        <time>2014-05-16T17:14:22Z</time>
      </trkpt>
      <trkpt lat="59.9534887" lon="17.8029332">
        <ele>26.0929</ele>
        <time>2014-05-16T17:14:23Z</time>
      </trkpt>
      <trkpt lat="59.9534645" lon="17.803025">
        <ele>26.0929</ele>
        <time>2014-05-16T17:14:24Z</time>
      </trkpt>
      <trkpt lat="59.9534401" lon="17.8031156">
        <ele>26.0929</ele>
        <time>2014-05-16T17:14:25Z</time>
      </trkpt>
      <trkpt lat="59.953414" lon="17.8032014">
        <ele>25.6123</ele>
        <time>2014-05-16T17:14:26Z</time>
      </trkpt>
      <trkpt lat="59.9533847" lon="17.8032891">
        <ele>25.6123</ele>
        <time>2014-05-16T17:14:27Z</time>
      </trkpt>
      <trkpt lat="59.9533534" lon="17.8033808">
        <ele>25.6123</ele>
        <time>2014-05-16T17:14:28Z</time>
      </trkpt>
      <trkpt lat="59.9533203" lon="17.8034719">
        <ele>25.6123</ele>
        <time>2014-05-16T17:14:29Z</time>
      </trkpt>
      <trkpt lat="59.9532837" lon="17.8035607">
        <ele>25.1317</ele>
        <time>2014-05-16T17:14:30Z</time>
      </trkpt>
      <trkpt lat="59.9532449" lon="17.8036475">
        <ele>25.1317</ele>
        <time>2014-05-16T17:14:31Z</time>
      </trkpt>
      <trkpt lat="59.9532042" lon="17.8037327">
        <ele>24.651</ele>
        <time>2014-05-16T17:14:32Z</time>
      </trkpt>
      <trkpt lat="59.9531628" lon="17.8038191">
        <ele>24.1703</ele>
        <time>2014-05-16T17:14:33Z</time>
      </trkpt>
      <trkpt lat="59.9531204" lon="17.8039061">
        <ele>23.6896</ele>
        <time>2014-05-16T17:14:34Z</time>
      </trkpt>
      <trkpt lat="59.9530745" lon="17.8039977">
        <ele>23.6896</ele>
        <time>2014-05-16T17:14:35Z</time>
      </trkpt>
      <trkpt lat="59.9530284" lon="17.8040965">
        <ele>23.209</ele>
        <time>2014-05-16T17:14:36Z</time>
      </trkpt>
      <trkpt lat="59.9529833" lon="17.8042041">
        <ele>23.209</ele>
        <time>2014-05-16T17:14:37Z</time>
      </trkpt>
      <trkpt lat="59.9529413" lon="17.8043222">
        <ele>22.7283</ele>
        <time>2014-05-16T17:14:38Z</time>
      </trkpt>
      <trkpt lat="59.952904" lon="17.8044531">
        <ele>22.7283</ele>
        <time>2014-05-16T17:14:39Z</time>
      </trkpt>
      <trkpt lat="59.9528728" lon="17.8045915">
        <ele>23.209</ele>
        <time>2014-05-16T17:14:40Z</time>
      </trkpt>
      <trkpt lat="59.9528496" lon="17.8047353">
        <ele>23.209</ele>
        <time>2014-05-16T17:14:41Z</time>
      </trkpt>
      <trkpt lat="59.9528302" lon="17.8048821">
        <ele>23.209</ele>
        <time>2014-05-16T17:14:42Z</time>
      </trkpt>
      <trkpt lat="59.9528131" lon="17.8050286">
        <ele>23.6896</ele>
        <time>2014-05-16T17:14:43Z</time>
      </trkpt>
      <trkpt lat="59.9527967" lon="17.8051728">
        <ele>23.209</ele>
        <time>2014-05-16T17:14:44Z</time>
      </trkpt>
      <trkpt lat="59.9527805" lon="17.8053172">
        <ele>23.209</ele>
        <time>2014-05-16T17:14:45Z</time>
      </trkpt>
      <trkpt lat="59.952764" lon="17.8054627">
        <ele>23.209</ele>
        <time>2014-05-16T17:14:46Z</time>
      </trkpt>
      <trkpt lat="59.9527476" lon="17.8056067">
        <ele>23.209</ele>
        <time>2014-05-16T17:14:47Z</time>
      </trkpt>
      <trkpt lat="59.95273" lon="17.8057498">
        <ele>23.209</ele>
        <time>2014-05-16T17:14:48Z</time>
      </trkpt>
      <trkpt lat="59.9526951" lon="17.8059272">
        <ele>23.6896</ele>
        <time>2014-05-16T17:14:49Z</time>
      </trkpt>
      <trkpt lat="59.9526699" lon="17.8060762">
        <ele>24.1703</ele>
        <time>2014-05-16T17:14:50Z</time>
      </trkpt>
      <trkpt lat="59.9526466" lon="17.8062092">
        <ele>24.1703</ele>
        <time>2014-05-16T17:14:51Z</time>
      </trkpt>
      <trkpt lat="59.9526201" lon="17.8063396">
        <ele>24.1703</ele>
        <time>2014-05-16T17:14:52Z</time>
      </trkpt>
      <trkpt lat="59.9525917" lon="17.8064698">
        <ele>24.1703</ele>
        <time>2014-05-16T17:14:53Z</time>
      </trkpt>
      <trkpt lat="59.9525631" lon="17.8066018">
        <ele>24.1703</ele>
        <time>2014-05-16T17:14:54Z</time>
      </trkpt>
      <trkpt lat="59.9525304" lon="17.8067335">
        <ele>24.1703</ele>
        <time>2014-05-16T17:14:55Z</time>
      </trkpt>
      <trkpt lat="59.9524979" lon="17.8068686">
        <ele>24.1703</ele>
        <time>2014-05-16T17:14:56Z</time>
      </trkpt>
      <trkpt lat="59.9524642" lon="17.8070064">
        <ele>24.1703</ele>
        <time>2014-05-16T17:14:57Z</time>
      </trkpt>
      <trkpt lat="59.9524286" lon="17.8071458">
        <ele>23.6896</ele>
        <time>2014-05-16T17:14:58Z</time>
      </trkpt>
      <trkpt lat="59.9523915" lon="17.8072855">
        <ele>23.6896</ele>
        <time>2014-05-16T17:14:59Z</time>
      </trkpt>
      <trkpt lat="59.9523543" lon="17.8074255">
        <ele>23.6896</ele>
        <time>2014-05-16T17:15:00Z</time>
      </trkpt>
      <trkpt lat="59.9523177" lon="17.8075657">
        <ele>23.6896</ele>
        <time>2014-05-16T17:15:01Z</time>
      </trkpt>
      <trkpt lat="59.9522814" lon="17.807706">
        <ele>23.209</ele>
        <time>2014-05-16T17:15:02Z</time>
      </trkpt>
      <trkpt lat="59.9522446" lon="17.807845">
        <ele>23.209</ele>
        <time>2014-05-16T17:15:03Z</time>
      </trkpt>
      <trkpt lat="59.9522078" lon="17.8079823">
        <ele>23.209</ele>
        <time>2014-05-16T17:15:04Z</time>
      </trkpt>
      <trkpt lat="59.9521714" lon="17.8081191">
        <ele>23.209</ele>
        <time>2014-05-16T17:15:05Z</time>
      </trkpt>
      <trkpt lat="59.9521362" lon="17.808257">
        <ele>23.209</ele>
        <time>2014-05-16T17:15:06Z</time>
      </trkpt>
      <trkpt lat="59.9521011" lon="17.8083952">
        <ele>22.7283</ele>
        <time>2014-05-16T17:15:07Z</time>
      </trkpt>
      <trkpt lat="59.9520651" lon="17.808532">
        <ele>22.7283</ele>
        <time>2014-05-16T17:15:08Z</time>
      </trkpt>
      <trkpt lat="59.9520291" lon="17.8086664">
        <ele>22.7283</ele>
        <time>2014-05-16T17:15:09Z</time>
      </trkpt>
      <trkpt lat="59.9519929" lon="17.8087982">
        <ele>22.7283</ele>
        <time>2014-05-16T17:15:10Z</time>
      </trkpt>
      <trkpt lat="59.9519576" lon="17.8089302">
        <ele>22.7283</ele>
        <time>2014-05-16T17:15:11Z</time>
      </trkpt>
      <trkpt lat="59.9519228" lon="17.8090614">
        <ele>22.7283</ele>
        <time>2014-05-16T17:15:12Z</time>
      </trkpt>
      <trkpt lat="59.9518883" lon="17.8091908">
        <ele>22.7283</ele>
        <time>2014-05-16T17:15:13Z</time>
      </trkpt>
      <trkpt lat="59.9518546" lon="17.8093191">
        <ele>22.7283</ele>
        <time>2014-05-16T17:15:14Z</time>
      </trkpt>
      <trkpt lat="59.9518215" lon="17.8094458">
        <ele>22.7283</ele>
        <time>2014-05-16T17:15:15Z</time>
      </trkpt>
      <trkpt lat="59.9517887" lon="17.8095704">
        <ele>22.7283</ele>
        <time>2014-05-16T17:15:16Z</time>
      </trkpt>
      <trkpt lat="59.9517566" lon="17.8096933">
        <ele>22.7283</ele>
        <time>2014-05-16T17:15:17Z</time>
      </trkpt>
      <trkpt lat="59.9517249" lon="17.8098156">
        <ele>22.7283</ele>
        <time>2014-05-16T17:15:18Z</time>
      </trkpt>
      <trkpt lat="59.9516929" lon="17.8099369">
        <ele>22.7283</ele>
        <time>2014-05-16T17:15:19Z</time>
      </trkpt>
      <trkpt lat="59.9516613" lon="17.8100579">
        <ele>22.7283</ele>
        <time>2014-05-16T17:15:20Z</time>
      </trkpt>
      <trkpt lat="59.9516313" lon="17.810179">
        <ele>22.7283</ele>
        <time>2014-05-16T17:15:21Z</time>
      </trkpt>
      <trkpt lat="59.9516028" lon="17.8102997">
        <ele>22.7283</ele>
        <time>2014-05-16T17:15:22Z</time>
      </trkpt>
      <trkpt lat="59.9515753" lon="17.81042">
        <ele>22.7283</ele>
        <time>2014-05-16T17:15:23Z</time>
      </trkpt>
      <trkpt lat="59.9515494" lon="17.8105413">
        <ele>22.7283</ele>
        <time>2014-05-16T17:15:24Z</time>
      </trkpt>
      <trkpt lat="59.9515248" lon="17.8106641">
        <ele>22.7283</ele>
        <time>2014-05-16T17:15:25Z</time>
      </trkpt>
      <trkpt lat="59.9515012" lon="17.8107885">
        <ele>22.7283</ele>
        <time>2014-05-16T17:15:26Z</time>
      </trkpt>
      <trkpt lat="59.9514791" lon="17.8109143">
        <ele>22.7283</ele>
        <time>2014-05-16T17:15:27Z</time>
      </trkpt>
      <trkpt lat="59.9514587" lon="17.8110416">
        <ele>22.7283</ele>
        <time>2014-05-16T17:15:28Z</time>
      </trkpt>
      <trkpt lat="59.9514396" lon="17.8111687">
        <ele>22.7283</ele>
        <time>2014-05-16T17:15:29Z</time>
      </trkpt>
      <trkpt lat="59.9514215" lon="17.8112951">
        <ele>22.7283</ele>
        <time>2014-05-16T17:15:30Z</time>
      </trkpt>
      <trkpt lat="59.9514043" lon="17.8114214">
        <ele>22.7283</ele>
        <time>2014-05-16T17:15:31Z</time>
      </trkpt>
      <trkpt lat="59.9513884" lon="17.8115483">
        <ele>22.7283</ele>
        <time>2014-05-16T17:15:32Z</time>
      </trkpt>
      <trkpt lat="59.9513744" lon="17.8116758">
        <ele>22.7283</ele>
        <time>2014-05-16T17:15:33Z</time>
      </trkpt>
      <trkpt lat="59.9513625" lon="17.8118051">
        <ele>22.7283</ele>
        <time>2014-05-16T17:15:34Z</time>
      </trkpt>
      <trkpt lat="59.9513529" lon="17.8119363">
        <ele>22.7283</ele>
        <time>2014-05-16T17:15:35Z</time>
      </trkpt>
      <trkpt lat="59.9513462" lon="17.8120695">
        <ele>22.7283</ele>
        <time>2014-05-16T17:15:36Z</time>
      </trkpt>
      <trkpt lat="59.9513425" lon="17.8122046">
        <ele>22.7283</ele>
        <time>2014-05-16T17:15:37Z</time>
      </trkpt>
      <trkpt lat="59.95134" lon="17.812341">
        <ele>22.2476</ele>
        <time>2014-05-16T17:15:38Z</time>
      </trkpt>
      <trkpt lat="59.9513379" lon="17.8124796">
        <ele>22.2476</ele>
        <time>2014-05-16T17:15:39Z</time>
      </trkpt>
      <trkpt lat="59.9513364" lon="17.8126194">
        <ele>22.2476</ele>
        <time>2014-05-16T17:15:40Z</time>
      </trkpt>
      <trkpt lat="59.9513351" lon="17.8127589">
        <ele>22.2476</ele>
        <time>2014-05-16T17:15:41Z</time>
      </trkpt>
      <trkpt lat="59.9513335" lon="17.8128978">
        <ele>22.2476</ele>
        <time>2014-05-16T17:15:42Z</time>
      </trkpt>
      <trkpt lat="59.9513327" lon="17.8130365">
        <ele>22.2476</ele>
        <time>2014-05-16T17:15:43Z</time>
      </trkpt>
      <trkpt lat="59.9513318" lon="17.8131744">
        <ele>22.2476</ele>
        <time>2014-05-16T17:15:44Z</time>
      </trkpt>
      <trkpt lat="59.9513313" lon="17.8133115">
        <ele>22.2476</ele>
        <time>2014-05-16T17:15:45Z</time>
      </trkpt>
      <trkpt lat="59.9513299" lon="17.8134485">
        <ele>22.2476</ele>
        <time>2014-05-16T17:15:46Z</time>
      </trkpt>
      <trkpt lat="59.9513282" lon="17.813586">
        <ele>22.2476</ele>
        <time>2014-05-16T17:15:47Z</time>
      </trkpt>
      <trkpt lat="59.9513272" lon="17.8137233">
        <ele>22.2476</ele>
        <time>2014-05-16T17:15:48Z</time>
      </trkpt>
      <trkpt lat="59.9513271" lon="17.8138595">
        <ele>22.2476</ele>
        <time>2014-05-16T17:15:49Z</time>
      </trkpt>
      <trkpt lat="59.951327" lon="17.8139959">
        <ele>21.767</ele>
        <time>2014-05-16T17:15:50Z</time>
      </trkpt>
      <trkpt lat="59.9513267" lon="17.814134">
        <ele>21.767</ele>
        <time>2014-05-16T17:15:51Z</time>
      </trkpt>
      <trkpt lat="59.9513261" lon="17.8142731">
        <ele>21.767</ele>
        <time>2014-05-16T17:15:52Z</time>
      </trkpt>
      <trkpt lat="59.9513247" lon="17.8144138">
        <ele>21.767</ele>
        <time>2014-05-16T17:15:53Z</time>
      </trkpt>
      <trkpt lat="59.9513234" lon="17.8145549">
        <ele>21.767</ele>
        <time>2014-05-16T17:15:54Z</time>
      </trkpt>
      <trkpt lat="59.9513215" lon="17.8146959">
        <ele>21.767</ele>
        <time>2014-05-16T17:15:55Z</time>
      </trkpt>
      <trkpt lat="59.9513194" lon="17.8148368">
        <ele>21.767</ele>
        <time>2014-05-16T17:15:56Z</time>
      </trkpt>
      <trkpt lat="59.9513171" lon="17.8149791">
        <ele>21.767</ele>
        <time>2014-05-16T17:15:57Z</time>
      </trkpt>
      <trkpt lat="59.9513132" lon="17.8151226">
        <ele>21.767</ele>
        <time>2014-05-16T17:15:58Z</time>
      </trkpt>
      <trkpt lat="59.9513084" lon="17.8152662">
        <ele>21.767</ele>
        <time>2014-05-16T17:15:59Z</time>
      </trkpt>
      <trkpt lat="59.9513028" lon="17.8154105">
        <ele>21.767</ele>
        <time>2014-05-16T17:16:00Z</time>
      </trkpt>
      <trkpt lat="59.9512969" lon="17.8155547">
        <ele>21.767</ele>
        <time>2014-05-16T17:16:01Z</time>
      </trkpt>
      <trkpt lat="59.95129" lon="17.8156981">
        <ele>22.2476</ele>
        <time>2014-05-16T17:16:02Z</time>
      </trkpt>
      <trkpt lat="59.951282" lon="17.8158405">
        <ele>22.2476</ele>
        <time>2014-05-16T17:16:03Z</time>
      </trkpt>
      <trkpt lat="59.9512726" lon="17.815982">
        <ele>22.2476</ele>
        <time>2014-05-16T17:16:04Z</time>
      </trkpt>
      <trkpt lat="59.9512618" lon="17.8161219">
        <ele>22.2476</ele>
        <time>2014-05-16T17:16:05Z</time>
      </trkpt>
      <trkpt lat="59.9512505" lon="17.8162603">
        <ele>22.2476</ele>
        <time>2014-05-16T17:16:06Z</time>
      </trkpt>
      <trkpt lat="59.9512392" lon="17.8163978">
        <ele>22.2476</ele>
        <time>2014-05-16T17:16:07Z</time>
      </trkpt>
      <trkpt lat="59.9512273" lon="17.8165342">
        <ele>22.7283</ele>
        <time>2014-05-16T17:16:08Z</time>
      </trkpt>
      <trkpt lat="59.9512148" lon="17.816669">
        <ele>22.7283</ele>
        <time>2014-05-16T17:16:09Z</time>
      </trkpt>
      <trkpt lat="59.9512021" lon="17.8168029">
        <ele>22.7283</ele>
        <time>2014-05-16T17:16:10Z</time>
      </trkpt>
      <trkpt lat="59.9511895" lon="17.8169356">
        <ele>22.7283</ele>
        <time>2014-05-16T17:16:11Z</time>
      </trkpt>
      <trkpt lat="59.9511764" lon="17.8170667">
        <ele>22.7283</ele>
        <time>2014-05-16T17:16:12Z</time>
      </trkpt>
      <trkpt lat="59.9511623" lon="17.8171972">
        <ele>22.7283</ele>
        <time>2014-05-16T17:16:13Z</time>
      </trkpt>
      <trkpt lat="59.9511489" lon="17.8173272">
        <ele>22.7283</ele>
        <time>2014-05-16T17:16:14Z</time>
      </trkpt>
      <trkpt lat="59.9511364" lon="17.8174565">
        <ele>23.209</ele>
        <time>2014-05-16T17:16:15Z</time>
      </trkpt>
      <trkpt lat="59.9511231" lon="17.8175846">
        <ele>23.209</ele>
        <time>2014-05-16T17:16:16Z</time>
      </trkpt>
      <trkpt lat="59.9511092" lon="17.8177112">
        <ele>23.209</ele>
        <time>2014-05-16T17:16:17Z</time>
      </trkpt>
      <trkpt lat="59.9510956" lon="17.817837">
        <ele>23.209</ele>
        <time>2014-05-16T17:16:18Z</time>
      </trkpt>
      <trkpt lat="59.951083" lon="17.8179621">
        <ele>23.209</ele>
        <time>2014-05-16T17:16:19Z</time>
      </trkpt>
      <trkpt lat="59.9510713" lon="17.8180859">
        <ele>23.209</ele>
        <time>2014-05-16T17:16:20Z</time>
      </trkpt>
      <trkpt lat="59.9510592" lon="17.8182083">
        <ele>23.209</ele>
        <time>2014-05-16T17:16:21Z</time>
      </trkpt>
      <trkpt lat="59.9510465" lon="17.8183291">
        <ele>23.209</ele>
        <time>2014-05-16T17:16:22Z</time>
      </trkpt>
      <trkpt lat="59.9510345" lon="17.8184503">
        <ele>23.209</ele>
        <time>2014-05-16T17:16:23Z</time>
      </trkpt>
      <trkpt lat="59.9510229" lon="17.8185715">
        <ele>23.209</ele>
        <time>2014-05-16T17:16:24Z</time>
      </trkpt>
      <trkpt lat="59.9510111" lon="17.8186932">
        <ele>23.209</ele>
        <time>2014-05-16T17:16:25Z</time>
      </trkpt>
      <trkpt lat="59.9509994" lon="17.8188175">
        <ele>23.209</ele>
        <time>2014-05-16T17:16:26Z</time>
      </trkpt>
      <trkpt lat="59.9509895" lon="17.8189445">
        <ele>23.209</ele>
        <time>2014-05-16T17:16:27Z</time>
      </trkpt>
      <trkpt lat="59.9509821" lon="17.8190746">
        <ele>22.7283</ele>
        <time>2014-05-16T17:16:28Z</time>
      </trkpt>
      <trkpt lat="59.950977" lon="17.8192067">
        <ele>22.7283</ele>
        <time>2014-05-16T17:16:29Z</time>
      </trkpt>
      <trkpt lat="59.9509739" lon="17.81934">
        <ele>22.7283</ele>
        <time>2014-05-16T17:16:30Z</time>
      </trkpt>
      <trkpt lat="59.9509724" lon="17.8194739">
        <ele>22.7283</ele>
        <time>2014-05-16T17:16:31Z</time>
      </trkpt>
      <trkpt lat="59.9509712" lon="17.8196085">
        <ele>22.2476</ele>
        <time>2014-05-16T17:16:32Z</time>
      </trkpt>
      <trkpt lat="59.9509692" lon="17.8197442">
        <ele>22.2476</ele>
        <time>2014-05-16T17:16:33Z</time>
      </trkpt>
      <trkpt lat="59.9509672" lon="17.8198814">
        <ele>22.2476</ele>
        <time>2014-05-16T17:16:34Z</time>
      </trkpt>
      <trkpt lat="59.9509638" lon="17.8200197">
        <ele>21.767</ele>
        <time>2014-05-16T17:16:35Z</time>
      </trkpt>
      <trkpt lat="59.9509584" lon="17.8201583">
        <ele>21.767</ele>
        <time>2014-05-16T17:16:36Z</time>
      </trkpt>
      <trkpt lat="59.950952" lon="17.8202974">
        <ele>21.767</ele>
        <time>2014-05-16T17:16:37Z</time>
      </trkpt>
      <trkpt lat="59.9509449" lon="17.8204373">
        <ele>21.2864</ele>
        <time>2014-05-16T17:16:38Z</time>
      </trkpt>
      <trkpt lat="59.9509375" lon="17.8205771">
        <ele>21.2864</ele>
        <time>2014-05-16T17:16:39Z</time>
      </trkpt>
      <trkpt lat="59.9509282" lon="17.820716">
        <ele>21.2864</ele>
        <time>2014-05-16T17:16:40Z</time>
      </trkpt>
      <trkpt lat="59.9509185" lon="17.8208544">
        <ele>21.2864</ele>
        <time>2014-05-16T17:16:41Z</time>
      </trkpt>
      <trkpt lat="59.9509086" lon="17.820993">
        <ele>21.2864</ele>
        <time>2014-05-16T17:16:42Z</time>
      </trkpt>
      <trkpt lat="59.9508972" lon="17.8211327">
        <ele>21.2864</ele>
        <time>2014-05-16T17:16:43Z</time>
      </trkpt>
      <trkpt lat="59.9508844" lon="17.8212736">
        <ele>21.2864</ele>
        <time>2014-05-16T17:16:44Z</time>
      </trkpt>
      <trkpt lat="59.9508709" lon="17.8214154">
        <ele>21.2864</ele>
        <time>2014-05-16T17:16:45Z</time>
      </trkpt>
      <trkpt lat="59.9508566" lon="17.8215579">
        <ele>21.2864</ele>
        <time>2014-05-16T17:16:46Z</time>
      </trkpt>
      <trkpt lat="59.9508413" lon="17.8217013">
        <ele>21.2864</ele>
        <time>2014-05-16T17:16:47Z</time>
      </trkpt>
      <trkpt lat="59.9508253" lon="17.8218444">
        <ele>21.2864</ele>
        <time>2014-05-16T17:16:48Z</time>
      </trkpt>
      <trkpt lat="59.9508086" lon="17.8219873">
        <ele>21.2864</ele>
        <time>2014-05-16T17:16:49Z</time>
      </trkpt>
      <trkpt lat="59.9507922" lon="17.8221291">
        <ele>21.2864</ele>
        <time>2014-05-16T17:16:50Z</time>
      </trkpt>
      <trkpt lat="59.9507753" lon="17.822269">
        <ele>21.2864</ele>
        <time>2014-05-16T17:16:51Z</time>
      </trkpt>
      <trkpt lat="59.9507568" lon="17.8224069">
        <ele>21.2864</ele>
        <time>2014-05-16T17:16:52Z</time>
      </trkpt>
      <trkpt lat="59.9507387" lon="17.8225436">
        <ele>21.2864</ele>
        <time>2014-05-16T17:16:53Z</time>
      </trkpt>
      <trkpt lat="59.9507222" lon="17.8226807">
        <ele>21.2864</ele>
        <time>2014-05-16T17:16:54Z</time>
      </trkpt>
      <trkpt lat="59.9507085" lon="17.8228176">
        <ele>21.2864</ele>
        <time>2014-05-16T17:16:55Z</time>
      </trkpt>
      <trkpt lat="59.9506968" lon="17.822954">
        <ele>20.8057</ele>
        <time>2014-05-16T17:16:56Z</time>
      </trkpt>
      <trkpt lat="59.9506869" lon="17.8230899">
        <ele>20.8057</ele>
        <time>2014-05-16T17:16:57Z</time>
      </trkpt>
      <trkpt lat="59.9506764" lon="17.8232253">
        <ele>20.8057</ele>
        <time>2014-05-16T17:16:58Z</time>
      </trkpt>
      <trkpt lat="59.9506631" lon="17.8233595">
        <ele>20.8057</ele>
        <time>2014-05-16T17:16:59Z</time>
      </trkpt>
      <trkpt lat="59.9506473" lon="17.8234943">
        <ele>20.8057</ele>
        <time>2014-05-16T17:17:00Z</time>
      </trkpt>
      <trkpt lat="59.9506294" lon="17.8236288">
        <ele>20.8057</ele>
        <time>2014-05-16T17:17:01Z</time>
      </trkpt>
      <trkpt lat="59.9506108" lon="17.823763">
        <ele>20.8057</ele>
        <time>2014-05-16T17:17:02Z</time>
      </trkpt>
      <trkpt lat="59.9505898" lon="17.8238959">
        <ele>20.8057</ele>
        <time>2014-05-16T17:17:03Z</time>
      </trkpt>
      <trkpt lat="59.9505657" lon="17.8240263">
        <ele>20.8057</ele>
        <time>2014-05-16T17:17:04Z</time>
      </trkpt>
      <trkpt lat="59.9505396" lon="17.8241546">
        <ele>20.325</ele>
        <time>2014-05-16T17:17:05Z</time>
      </trkpt>
      <trkpt lat="59.9505124" lon="17.8242814">
        <ele>20.325</ele>
        <time>2014-05-16T17:17:06Z</time>
      </trkpt>
      <trkpt lat="59.950485" lon="17.8244089">
        <ele>20.325</ele>
        <time>2014-05-16T17:17:07Z</time>
      </trkpt>
      <trkpt lat="59.9504572" lon="17.8245374">
        <ele>19.8444</ele>
        <time>2014-05-16T17:17:08Z</time>
      </trkpt>
      <trkpt lat="59.9504285" lon="17.8246652">
        <ele>19.8444</ele>
        <time>2014-05-16T17:17:09Z</time>
      </trkpt>
      <trkpt lat="59.9503998" lon="17.8247923">
        <ele>19.8444</ele>
        <time>2014-05-16T17:17:10Z</time>
      </trkpt>
      <trkpt lat="59.9503714" lon="17.8249191">
        <ele>19.8444</ele>
        <time>2014-05-16T17:17:11Z</time>
      </trkpt>
      <trkpt lat="59.9503424" lon="17.8250452">
        <ele>19.8444</ele>
        <time>2014-05-16T17:17:12Z</time>
      </trkpt>
      <trkpt lat="59.9503134" lon="17.8251708">
        <ele>20.325</ele>
        <time>2014-05-16T17:17:13Z</time>
      </trkpt>
      <trkpt lat="59.9502851" lon="17.8252956">
        <ele>20.325</ele>
        <time>2014-05-16T17:17:14Z</time>
      </trkpt>
      <trkpt lat="59.9502573" lon="17.8254192">
        <ele>20.325</ele>
        <time>2014-05-16T17:17:15Z</time>
      </trkpt>
      <trkpt lat="59.9502294" lon="17.8255413">
        <ele>20.325</ele>
        <time>2014-05-16T17:17:16Z</time>
      </trkpt>
      <trkpt lat="59.950201" lon="17.8256616">
        <ele>20.325</ele>
        <time>2014-05-16T17:17:17Z</time>
      </trkpt>
      <trkpt lat="59.9501725" lon="17.8257812">
        <ele>20.325</ele>
        <time>2014-05-16T17:17:18Z</time>
      </trkpt>
      <trkpt lat="59.9501444" lon="17.8259004">
        <ele>20.325</ele>
        <time>2014-05-16T17:17:19Z</time>
      </trkpt>
      <trkpt lat="59.9501179" lon="17.8260213">
        <ele>20.325</ele>
        <time>2014-05-16T17:17:20Z</time>
      </trkpt>
      <trkpt lat="59.9500938" lon="17.8261447">
        <ele>20.325</ele>
        <time>2014-05-16T17:17:21Z</time>
      </trkpt>
      <trkpt lat="59.9500729" lon="17.8262706">
        <ele>20.325</ele>
        <time>2014-05-16T17:17:22Z</time>
      </trkpt>
      <trkpt lat="59.950055" lon="17.8263986">
        <ele>20.325</ele>
        <time>2014-05-16T17:17:23Z</time>
      </trkpt>
      <trkpt lat="59.9500402" lon="17.826528">
        <ele>20.325</ele>
        <time>2014-05-16T17:17:24Z</time>
      </trkpt>
      <trkpt lat="59.9500271" lon="17.8266572">
        <ele>20.325</ele>
        <time>2014-05-16T17:17:25Z</time>
      </trkpt>
      <trkpt lat="59.9500171" lon="17.8267861">
        <ele>20.325</ele>
        <time>2014-05-16T17:17:26Z</time>
      </trkpt>
      <trkpt lat="59.9500103" lon="17.8269142">
        <ele>20.325</ele>
        <time>2014-05-16T17:17:27Z</time>
      </trkpt>
      <trkpt lat="59.9500056" lon="17.8270425">
        <ele>20.325</ele>
        <time>2014-05-16T17:17:28Z</time>
      </trkpt>
      <trkpt lat="59.9500015" lon="17.8271711">
        <ele>20.325</ele>
        <time>2014-05-16T17:17:29Z</time>
      </trkpt>
      <trkpt lat="59.9499979" lon="17.8272994">
        <ele>20.325</ele>
        <time>2014-05-16T17:17:30Z</time>
      </trkpt>
      <trkpt lat="59.9499962" lon="17.8274275">
        <ele>20.325</ele>
        <time>2014-05-16T17:17:31Z</time>
      </trkpt>
      <trkpt lat="59.949996" lon="17.8275559">
        <ele>20.325</ele>
        <time>2014-05-16T17:17:32Z</time>
      </trkpt>
      <trkpt lat="59.9499969" lon="17.8276843">
        <ele>20.325</ele>
        <time>2014-05-16T17:17:33Z</time>
      </trkpt>
      <trkpt lat="59.9499985" lon="17.8278126">
        <ele>20.325</ele>
        <time>2014-05-16T17:17:34Z</time>
      </trkpt>
      <trkpt lat="59.9499995" lon="17.8279411">
        <ele>20.325</ele>
        <time>2014-05-16T17:17:35Z</time>
      </trkpt>
      <trkpt lat="59.9500001" lon="17.828069">
        <ele>20.325</ele>
        <time>2014-05-16T17:17:36Z</time>
      </trkpt>
      <trkpt lat="59.9500016" lon="17.8281967">
        <ele>20.325</ele>
        <time>2014-05-16T17:17:37Z</time>
      </trkpt>
      <trkpt lat="59.9500051" lon="17.8283247">
        <ele>20.325</ele>
        <time>2014-05-16T17:17:38Z</time>
      </trkpt>
      <trkpt lat="59.9500099" lon="17.8284525">
        <ele>20.325</ele>
        <time>2014-05-16T17:17:39Z</time>
      </trkpt>
      <trkpt lat="59.9500139" lon="17.8285799">
        <ele>20.8057</ele>
        <time>2014-05-16T17:17:40Z</time>
      </trkpt>
      <trkpt lat="59.9500164" lon="17.8287068">
        <ele>20.8057</ele>
        <time>2014-05-16T17:17:41Z</time>
      </trkpt>
      <trkpt lat="59.9500174" lon="17.8288332">
        <ele>20.8057</ele>
        <time>2014-05-16T17:17:42Z</time>
      </trkpt>
      <trkpt lat="59.9500171" lon="17.8289602">
        <ele>20.8057</ele>
        <time>2014-05-16T17:17:43Z</time>
      </trkpt>
      <trkpt lat="59.9500136" lon="17.8290871">
        <ele>20.8057</ele>
        <time>2014-05-16T17:17:44Z</time>
      </trkpt>
      <trkpt lat="59.9500066" lon="17.8292118">
        <ele>20.8057</ele>
        <time>2014-05-16T17:17:45Z</time>
      </trkpt>
      <trkpt lat="59.9499978" lon="17.8293328">
        <ele>20.8057</ele>
        <time>2014-05-16T17:17:46Z</time>
      </trkpt>
      <trkpt lat="59.9499884" lon="17.8294508">
        <ele>21.2864</ele>
        <time>2014-05-16T17:17:47Z</time>
      </trkpt>
      <trkpt lat="59.9499717" lon="17.829561">
        <ele>21.2864</ele>
        <time>2014-05-16T17:17:48Z</time>
      </trkpt>
      <trkpt lat="59.949942" lon="17.829656">
        <ele>21.2864</ele>
        <time>2014-05-16T17:17:49Z</time>
      </trkpt>
      <trkpt lat="59.9498995" lon="17.8297243">
        <ele>21.2864</ele>
        <time>2014-05-16T17:17:50Z</time>
      </trkpt>
      <trkpt lat="59.9498476" lon="17.8297505">
        <ele>21.2864</ele>
        <time>2014-05-16T17:17:51Z</time>
      </trkpt>
      <trkpt lat="59.9497929" lon="17.8297252">
        <ele>21.767</ele>
        <time>2014-05-16T17:17:52Z</time>
      </trkpt>
      <trkpt lat="59.9497431" lon="17.8296651">
        <ele>21.2864</ele>
        <time>2014-05-16T17:17:53Z</time>
      </trkpt>
      <trkpt lat="59.9496964" lon="17.8295916">
        <ele>21.2864</ele>
        <time>2014-05-16T17:17:54Z</time>
      </trkpt>
      <trkpt lat="59.9496495" lon="17.8295156">
        <ele>21.2864</ele>
        <time>2014-05-16T17:17:55Z</time>
      </trkpt>
      <trkpt lat="59.9496022" lon="17.8294391">
        <ele>21.2864</ele>
        <time>2014-05-16T17:17:56Z</time>
      </trkpt>
      <trkpt lat="59.949554" lon="17.8293601">
        <ele>21.2864</ele>
        <time>2014-05-16T17:17:57Z</time>
      </trkpt>
      <trkpt lat="59.9495046" lon="17.8292809">
        <ele>20.8057</ele>
        <time>2014-05-16T17:17:58Z</time>
      </trkpt>
      <trkpt lat="59.9494526" lon="17.8292041">
        <ele>20.8057</ele>
        <time>2014-05-16T17:17:59Z</time>
      </trkpt>
      <trkpt lat="59.9493977" lon="17.8291297">
        <ele>20.8057</ele>
        <time>2014-05-16T17:18:00Z</time>
      </trkpt>
      <trkpt lat="59.9493412" lon="17.8290555">
        <ele>20.8057</ele>
        <time>2014-05-16T17:18:01Z</time>
      </trkpt>
      <trkpt lat="59.9492845" lon="17.8289807">
        <ele>20.8057</ele>
        <time>2014-05-16T17:18:02Z</time>
      </trkpt>
      <trkpt lat="59.9492267" lon="17.8289073">
        <ele>20.8057</ele>
        <time>2014-05-16T17:18:03Z</time>
      </trkpt>
      <trkpt lat="59.9491674" lon="17.8288374">
        <ele>20.8057</ele>
        <time>2014-05-16T17:18:04Z</time>
      </trkpt>
      <trkpt lat="59.9491075" lon="17.8287694">
        <ele>20.8057</ele>
        <time>2014-05-16T17:18:05Z</time>
      </trkpt>
      <trkpt lat="59.9490478" lon="17.8287015">
        <ele>20.8057</ele>
        <time>2014-05-16T17:18:06Z</time>
      </trkpt>
      <trkpt lat="59.9489882" lon="17.8286345">
        <ele>20.8057</ele>
        <time>2014-05-16T17:18:07Z</time>
      </trkpt>
      <trkpt lat="59.9489284" lon="17.8285681">
        <ele>20.8057</ele>
        <time>2014-05-16T17:18:08Z</time>
      </trkpt>
      <trkpt lat="59.9488695" lon="17.8285021">
        <ele>20.8057</ele>
        <time>2014-05-16T17:18:09Z</time>
      </trkpt>
      <trkpt lat="59.948811" lon="17.8284375">
        <ele>20.8057</ele>
        <time>2014-05-16T17:18:10Z</time>
      </trkpt>
      <trkpt lat="59.9487522" lon="17.8283736">
        <ele>21.2864</ele>
        <time>2014-05-16T17:18:11Z</time>
      </trkpt>
      <trkpt lat="59.9486944" lon="17.8283101">
        <ele>21.2864</ele>
        <time>2014-05-16T17:18:12Z</time>
      </trkpt>
      <trkpt lat="59.948637" lon="17.8282477">
        <ele>21.2864</ele>
        <time>2014-05-16T17:18:13Z</time>
      </trkpt>
      <trkpt lat="59.9485802" lon="17.8281868">
        <ele>21.2864</ele>
        <time>2014-05-16T17:18:14Z</time>
      </trkpt>
      <trkpt lat="59.9485241" lon="17.8281283">
        <ele>21.2864</ele>
        <time>2014-05-16T17:18:15Z</time>
      </trkpt>
      <trkpt lat="59.9484693" lon="17.8280713">
        <ele>21.2864</ele>
        <time>2014-05-16T17:18:16Z</time>
      </trkpt>
      <trkpt lat="59.9484155" lon="17.8280142">
        <ele>21.2864</ele>
        <time>2014-05-16T17:18:17Z</time>
      </trkpt>
      <trkpt lat="59.9483626" lon="17.8279573">
        <ele>21.2864</ele>
        <time>2014-05-16T17:18:18Z</time>
      </trkpt>
      <trkpt lat="59.9483104" lon="17.8279004">
        <ele>21.2864</ele>
        <time>2014-05-16T17:18:19Z</time>
      </trkpt>
      <trkpt lat="59.9482588" lon="17.8278445">
        <ele>21.2864</ele>
        <time>2014-05-16T17:18:20Z</time>
      </trkpt>
      <trkpt lat="59.9482068" lon="17.82779">
        <ele>21.2864</ele>
        <time>2014-05-16T17:18:21Z</time>
      </trkpt>
      <trkpt lat="59.948155" lon="17.8277363">
        <ele>21.2864</ele>
        <time>2014-05-16T17:18:22Z</time>
      </trkpt>
      <trkpt lat="59.9481036" lon="17.8276827">
        <ele>21.2864</ele>
        <time>2014-05-16T17:18:23Z</time>
      </trkpt>
      <trkpt lat="59.9480522" lon="17.8276292">
        <ele>21.2864</ele>
        <time>2014-05-16T17:18:24Z</time>
      </trkpt>
      <trkpt lat="59.9480006" lon="17.8275755">
        <ele>21.2864</ele>
        <time>2014-05-16T17:18:25Z</time>
      </trkpt>
      <trkpt lat="59.947949" lon="17.8275208">
        <ele>20.8057</ele>
        <time>2014-05-16T17:18:26Z</time>
      </trkpt>
      <trkpt lat="59.9478969" lon="17.8274652">
        <ele>20.8057</ele>
        <time>2014-05-16T17:18:27Z</time>
      </trkpt>
      <trkpt lat="59.947844" lon="17.8274101">
        <ele>20.8057</ele>
        <time>2014-05-16T17:18:28Z</time>
      </trkpt>
      <trkpt lat="59.9477908" lon="17.8273559">
        <ele>20.8057</ele>
        <time>2014-05-16T17:18:29Z</time>
      </trkpt>
      <trkpt lat="59.9477388" lon="17.8273018">
        <ele>20.8057</ele>
        <time>2014-05-16T17:18:30Z</time>
      </trkpt>
      <trkpt lat="59.9476876" lon="17.8272481">
        <ele>20.8057</ele>
        <time>2014-05-16T17:18:31Z</time>
      </trkpt>
      <trkpt lat="59.9476367" lon="17.8271964">
        <ele>20.8057</ele>
        <time>2014-05-16T17:18:32Z</time>
      </trkpt>
      <trkpt lat="59.9475862" lon="17.8271452">
        <ele>20.8057</ele>
        <time>2014-05-16T17:18:33Z</time>
      </trkpt>
      <trkpt lat="59.9475362" lon="17.8270929">
        <ele>20.8057</ele>
        <time>2014-05-16T17:18:34Z</time>
      </trkpt>
      <trkpt lat="59.9474859" lon="17.8270406">
        <ele>20.8057</ele>
        <time>2014-05-16T17:18:35Z</time>
      </trkpt>
      <trkpt lat="59.9474354" lon="17.8269893">
        <ele>20.8057</ele>
        <time>2014-05-16T17:18:36Z</time>
      </trkpt>
      <trkpt lat="59.9473849" lon="17.8269389">
        <ele>20.8057</ele>
        <time>2014-05-16T17:18:37Z</time>
      </trkpt>
      <trkpt lat="59.9473344" lon="17.826887">
        <ele>20.8057</ele>
        <time>2014-05-16T17:18:38Z</time>
      </trkpt>
      <trkpt lat="59.9472844" lon="17.8268338">
        <ele>21.2864</ele>
        <time>2014-05-16T17:18:39Z</time>
      </trkpt>
      <trkpt lat="59.9472347" lon="17.826782">
        <ele>21.2864</ele>
        <time>2014-05-16T17:18:40Z</time>
      </trkpt>
      <trkpt lat="59.9471858" lon="17.8267307">
        <ele>21.2864</ele>
        <time>2014-05-16T17:18:41Z</time>
      </trkpt>
      <trkpt lat="59.9471376" lon="17.8266802">
        <ele>21.2864</ele>
        <time>2014-05-16T17:18:42Z</time>
      </trkpt>
      <trkpt lat="59.9470894" lon="17.82663">
        <ele>21.2864</ele>
        <time>2014-05-16T17:18:43Z</time>
      </trkpt>
      <trkpt lat="59.9470405" lon="17.8265788">
        <ele>21.2864</ele>
        <time>2014-05-16T17:18:44Z</time>
      </trkpt>
      <trkpt lat="59.946991" lon="17.8265271">
        <ele>21.2864</ele>
        <time>2014-05-16T17:18:45Z</time>
      </trkpt>
      <trkpt lat="59.9469417" lon="17.8264764">
        <ele>21.2864</ele>
        <time>2014-05-16T17:18:46Z</time>
      </trkpt>
      <trkpt lat="59.946892" lon="17.826426">
        <ele>21.2864</ele>
        <time>2014-05-16T17:18:47Z</time>
      </trkpt>
      <trkpt lat="59.9468422" lon="17.8263743">
        <ele>21.767</ele>
        <time>2014-05-16T17:18:48Z</time>
      </trkpt>
      <trkpt lat="59.9467923" lon="17.8263221">
        <ele>21.767</ele>
        <time>2014-05-16T17:18:49Z</time>
      </trkpt>
      <trkpt lat="59.9467419" lon="17.8262711">
        <ele>21.767</ele>
        <time>2014-05-16T17:18:50Z</time>
      </trkpt>
      <trkpt lat="59.946691" lon="17.8262198">
        <ele>22.2476</ele>
        <time>2014-05-16T17:18:51Z</time>
      </trkpt>
      <trkpt lat="59.9466395" lon="17.8261658">
        <ele>21.767</ele>
        <time>2014-05-16T17:18:52Z</time>
      </trkpt>
      <trkpt lat="59.9465883" lon="17.8261116">
        <ele>22.2476</ele>
        <time>2014-05-16T17:18:53Z</time>
      </trkpt>
      <trkpt lat="59.9465376" lon="17.8260588">
        <ele>22.2476</ele>
        <time>2014-05-16T17:18:54Z</time>
      </trkpt>
      <trkpt lat="59.9464869" lon="17.8260063">
        <ele>22.2476</ele>
        <time>2014-05-16T17:18:55Z</time>
      </trkpt>
      <trkpt lat="59.9464365" lon="17.8259542">
        <ele>22.2476</ele>
        <time>2014-05-16T17:18:56Z</time>
      </trkpt>
      <trkpt lat="59.9463864" lon="17.8259027">
        <ele>22.2476</ele>
        <time>2014-05-16T17:18:57Z</time>
      </trkpt>
      <trkpt lat="59.9463368" lon="17.8258506">
        <ele>22.7283</ele>
        <time>2014-05-16T17:18:58Z</time>
      </trkpt>
      <trkpt lat="59.9462876" lon="17.8257992">
        <ele>22.7283</ele>
        <time>2014-05-16T17:18:59Z</time>
      </trkpt>
      <trkpt lat="59.9462386" lon="17.8257489">
        <ele>22.7283</ele>
        <time>2014-05-16T17:19:00Z</time>
      </trkpt>
      <trkpt lat="59.9461895" lon="17.8256983">
        <ele>22.7283</ele>
        <time>2014-05-16T17:19:01Z</time>
      </trkpt>
      <trkpt lat="59.9461403" lon="17.825647">
        <ele>22.7283</ele>
        <time>2014-05-16T17:19:02Z</time>
      </trkpt>
      <trkpt lat="59.946091" lon="17.8255952">
        <ele>22.7283</ele>
        <time>2014-05-16T17:19:03Z</time>
      </trkpt>
      <trkpt lat="59.9460419" lon="17.8255445">
        <ele>23.209</ele>
        <time>2014-05-16T17:19:04Z</time>
      </trkpt>
      <trkpt lat="59.945993" lon="17.8254943">
        <ele>23.209</ele>
        <time>2014-05-16T17:19:05Z</time>
      </trkpt>
      <trkpt lat="59.9459448" lon="17.8254449">
        <ele>23.209</ele>
        <time>2014-05-16T17:19:06Z</time>
      </trkpt>
      <trkpt lat="59.9458979" lon="17.8253963">
        <ele>23.209</ele>
        <time>2014-05-16T17:19:07Z</time>
      </trkpt>
      <trkpt lat="59.9458519" lon="17.825348">
        <ele>23.209</ele>
        <time>2014-05-16T17:19:08Z</time>
      </trkpt>
      <trkpt lat="59.9458067" lon="17.8253005">
        <ele>23.209</ele>
        <time>2014-05-16T17:19:09Z</time>
      </trkpt>
      <trkpt lat="59.9457621" lon="17.8252538">
        <ele>23.6896</ele>
        <time>2014-05-16T17:19:10Z</time>
      </trkpt>
      <trkpt lat="59.9457174" lon="17.8252076">
        <ele>23.6896</ele>
        <time>2014-05-16T17:19:11Z</time>
      </trkpt>
      <trkpt lat="59.9456726" lon="17.8251616">
        <ele>23.6896</ele>
        <time>2014-05-16T17:19:12Z</time>
      </trkpt>
      <trkpt lat="59.945628" lon="17.8251155">
        <ele>23.6896</ele>
        <time>2014-05-16T17:19:13Z</time>
      </trkpt>
      <trkpt lat="59.9455826" lon="17.8250683">
        <ele>23.6896</ele>
        <time>2014-05-16T17:19:14Z</time>
      </trkpt>
      <trkpt lat="59.9455368" lon="17.8250201">
        <ele>23.6896</ele>
        <time>2014-05-16T17:19:15Z</time>
      </trkpt>
      <trkpt lat="59.9454907" lon="17.8249725">
        <ele>23.6896</ele>
        <time>2014-05-16T17:19:16Z</time>
      </trkpt>
      <trkpt lat="59.9454442" lon="17.8249245">
        <ele>24.1703</ele>
        <time>2014-05-16T17:19:17Z</time>
      </trkpt>
      <trkpt lat="59.9453978" lon="17.8248761">
        <ele>24.1703</ele>
        <time>2014-05-16T17:19:18Z</time>
      </trkpt>
      <trkpt lat="59.9453515" lon="17.8248284">
        <ele>24.1703</ele>
        <time>2014-05-16T17:19:19Z</time>
      </trkpt>
      <trkpt lat="59.9453056" lon="17.8247805">
        <ele>24.1703</ele>
        <time>2014-05-16T17:19:20Z</time>
      </trkpt>
      <trkpt lat="59.9452598" lon="17.8247326">
        <ele>24.1703</ele>
        <time>2014-05-16T17:19:21Z</time>
      </trkpt>
      <trkpt lat="59.9452137" lon="17.8246851">
        <ele>24.1703</ele>
        <time>2014-05-16T17:19:22Z</time>
      </trkpt>
      <trkpt lat="59.9451673" lon="17.8246374">
        <ele>24.1703</ele>
        <time>2014-05-16T17:19:23Z</time>
      </trkpt>
      <trkpt lat="59.9451212" lon="17.8245898">
        <ele>24.651</ele>
        <time>2014-05-16T17:19:24Z</time>
      </trkpt>
      <trkpt lat="59.9450756" lon="17.8245416">
        <ele>24.651</ele>
        <time>2014-05-16T17:19:25Z</time>
      </trkpt>
      <trkpt lat="59.9450302" lon="17.8244939">
        <ele>24.651</ele>
        <time>2014-05-16T17:19:26Z</time>
      </trkpt>
      <trkpt lat="59.9449852" lon="17.8244461">
        <ele>24.651</ele>
        <time>2014-05-16T17:19:27Z</time>
      </trkpt>
      <trkpt lat="59.9449406" lon="17.8243981">
        <ele>24.651</ele>
        <time>2014-05-16T17:19:28Z</time>
      </trkpt>
      <trkpt lat="59.9448956" lon="17.8243505">
        <ele>24.651</ele>
        <time>2014-05-16T17:19:29Z</time>
      </trkpt>
      <trkpt lat="59.9448506" lon="17.8243026">
        <ele>24.651</ele>
        <time>2014-05-16T17:19:30Z</time>
      </trkpt>
      <trkpt lat="59.9448054" lon="17.8242551">
        <ele>24.651</ele>
        <time>2014-05-16T17:19:31Z</time>
      </trkpt>
      <trkpt lat="59.94476" lon="17.824208">
        <ele>24.651</ele>
        <time>2014-05-16T17:19:32Z</time>
      </trkpt>
      <trkpt lat="59.9447153" lon="17.8241611">
        <ele>24.651</ele>
        <time>2014-05-16T17:19:33Z</time>
      </trkpt>
      <trkpt lat="59.9446707" lon="17.8241136">
        <ele>24.651</ele>
        <time>2014-05-16T17:19:34Z</time>
      </trkpt>
      <trkpt lat="59.9446262" lon="17.8240653">
        <ele>24.651</ele>
        <time>2014-05-16T17:19:35Z</time>
      </trkpt>
      <trkpt lat="59.9445814" lon="17.8240168">
        <ele>24.651</ele>
        <time>2014-05-16T17:19:36Z</time>
      </trkpt>
      <trkpt lat="59.9445365" lon="17.8239681">
        <ele>24.651</ele>
        <time>2014-05-16T17:19:37Z</time>
      </trkpt>
      <trkpt lat="59.944491" lon="17.8239199">
        <ele>24.651</ele>
        <time>2014-05-16T17:19:38Z</time>
      </trkpt>
      <trkpt lat="59.9444459" lon="17.8238703">
        <ele>24.651</ele>
        <time>2014-05-16T17:19:39Z</time>
      </trkpt>
      <trkpt lat="59.9444001" lon="17.8238195">
        <ele>24.651</ele>
        <time>2014-05-16T17:19:40Z</time>
      </trkpt>
      <trkpt lat="59.944354" lon="17.8237696">
        <ele>24.651</ele>
        <time>2014-05-16T17:19:41Z</time>
      </trkpt>
      <trkpt lat="59.9443079" lon="17.8237186">
        <ele>24.651</ele>
        <time>2014-05-16T17:19:42Z</time>
      </trkpt>
      <trkpt lat="59.9442615" lon="17.8236649">
        <ele>24.651</ele>
        <time>2014-05-16T17:19:43Z</time>
      </trkpt>
      <trkpt lat="59.944214" lon="17.8236095">
        <ele>24.651</ele>
        <time>2014-05-16T17:19:44Z</time>
      </trkpt>
      <trkpt lat="59.9441657" lon="17.8235527">
        <ele>24.651</ele>
        <time>2014-05-16T17:19:45Z</time>
      </trkpt>
      <trkpt lat="59.9441174" lon="17.8234943">
        <ele>24.651</ele>
        <time>2014-05-16T17:19:46Z</time>
      </trkpt>
      <trkpt lat="59.9440678" lon="17.8234354">
        <ele>24.651</ele>
        <time>2014-05-16T17:19:47Z</time>
      </trkpt>
      <trkpt lat="59.9440173" lon="17.8233746">
        <ele>24.651</ele>
        <time>2014-05-16T17:19:48Z</time>
      </trkpt>
      <trkpt lat="59.9439667" lon="17.8233112">
        <ele>24.651</ele>
        <time>2014-05-16T17:19:49Z</time>
      </trkpt>
      <trkpt lat="59.943916" lon="17.8232458">
        <ele>24.1703</ele>
        <time>2014-05-16T17:19:50Z</time>
      </trkpt>
      <trkpt lat="59.9438643" lon="17.8231798">
        <ele>24.1703</ele>
        <time>2014-05-16T17:19:51Z</time>
      </trkpt>
      <trkpt lat="59.9438118" lon="17.8231134">
        <ele>24.1703</ele>
        <time>2014-05-16T17:19:52Z</time>
      </trkpt>
      <trkpt lat="59.9437585" lon="17.8230456">
        <ele>24.1703</ele>
        <time>2014-05-16T17:19:53Z</time>
      </trkpt>
      <trkpt lat="59.9437045" lon="17.8229771">
        <ele>24.1703</ele>
        <time>2014-05-16T17:19:54Z</time>
      </trkpt>
      <trkpt lat="59.9436497" lon="17.8229087">
        <ele>24.1703</ele>
        <time>2014-05-16T17:19:55Z</time>
      </trkpt>
      <trkpt lat="59.9435944" lon="17.82284">
        <ele>24.1703</ele>
        <time>2014-05-16T17:19:56Z</time>
      </trkpt>
      <trkpt lat="59.943539" lon="17.8227716">
        <ele>24.1703</ele>
        <time>2014-05-16T17:19:57Z</time>
      </trkpt>
      <trkpt lat="59.9434836" lon="17.8227043">
        <ele>24.1703</ele>
        <time>2014-05-16T17:19:58Z</time>
      </trkpt>
      <trkpt lat="59.9434282" lon="17.8226358">
        <ele>24.1703</ele>
        <time>2014-05-16T17:19:59Z</time>
      </trkpt>
      <trkpt lat="59.9433731" lon="17.8225669">
        <ele>23.6896</ele>
        <time>2014-05-16T17:20:00Z</time>
      </trkpt>
      <trkpt lat="59.9433168" lon="17.8224978">
        <ele>23.6896</ele>
        <time>2014-05-16T17:20:01Z</time>
      </trkpt>
      <trkpt lat="59.9432603" lon="17.8224291">
        <ele>23.6896</ele>
        <time>2014-05-16T17:20:02Z</time>
      </trkpt>
      <trkpt lat="59.9432032" lon="17.8223598">
        <ele>23.6896</ele>
        <time>2014-05-16T17:20:03Z</time>
      </trkpt>
      <trkpt lat="59.9431461" lon="17.8222889">
        <ele>23.209</ele>
        <time>2014-05-16T17:20:04Z</time>
      </trkpt>
      <trkpt lat="59.9430885" lon="17.8222183">
        <ele>23.209</ele>
        <time>2014-05-16T17:20:05Z</time>
      </trkpt>
      <trkpt lat="59.9430307" lon="17.8221469">
        <ele>23.209</ele>
        <time>2014-05-16T17:20:06Z</time>
      </trkpt>
      <trkpt lat="59.9429725" lon="17.8220754">
        <ele>23.209</ele>
        <time>2014-05-16T17:20:07Z</time>
      </trkpt>
      <trkpt lat="59.942914" lon="17.8220038">
        <ele>23.209</ele>
        <time>2014-05-16T17:20:08Z</time>
      </trkpt>
      <trkpt lat="59.9428554" lon="17.8219304">
        <ele>22.7283</ele>
        <time>2014-05-16T17:20:09Z</time>
      </trkpt>
      <trkpt lat="59.9427965" lon="17.8218567">
        <ele>22.7283</ele>
        <time>2014-05-16T17:20:10Z</time>
      </trkpt>
      <trkpt lat="59.9427369" lon="17.8217833">
        <ele>22.7283</ele>
        <time>2014-05-16T17:20:11Z</time>
      </trkpt>
      <trkpt lat="59.9426769" lon="17.8217095">
        <ele>22.2476</ele>
        <time>2014-05-16T17:20:12Z</time>
      </trkpt>
      <trkpt lat="59.9426168" lon="17.8216353">
        <ele>22.2476</ele>
        <time>2014-05-16T17:20:13Z</time>
      </trkpt>
      <trkpt lat="59.9425562" lon="17.8215605">
        <ele>22.2476</ele>
        <time>2014-05-16T17:20:14Z</time>
      </trkpt>
      <trkpt lat="59.942495" lon="17.8214853">
        <ele>22.2476</ele>
        <time>2014-05-16T17:20:15Z</time>
      </trkpt>
      <trkpt lat="59.9424329" lon="17.8214102">
        <ele>21.767</ele>
        <time>2014-05-16T17:20:16Z</time>
      </trkpt>
      <trkpt lat="59.9423708" lon="17.8213335">
        <ele>21.767</ele>
        <time>2014-05-16T17:20:17Z</time>
      </trkpt>
      <trkpt lat="59.9423081" lon="17.8212549">
        <ele>21.2864</ele>
        <time>2014-05-16T17:20:18Z</time>
      </trkpt>
      <trkpt lat="59.9422439" lon="17.8211759">
        <ele>21.2864</ele>
        <time>2014-05-16T17:20:19Z</time>
      </trkpt>
      <trkpt lat="59.9421789" lon="17.8210959">
        <ele>21.2864</ele>
        <time>2014-05-16T17:20:20Z</time>
      </trkpt>
      <trkpt lat="59.9421134" lon="17.8210149">
        <ele>21.2864</ele>
        <time>2014-05-16T17:20:21Z</time>
      </trkpt>
      <trkpt lat="59.9420476" lon="17.8209337">
        <ele>20.8057</ele>
        <time>2014-05-16T17:20:22Z</time>
      </trkpt>
      <trkpt lat="59.9419817" lon="17.8208528">
        <ele>20.8057</ele>
        <time>2014-05-16T17:20:23Z</time>
      </trkpt>
      <trkpt lat="59.941916" lon="17.8207728">
        <ele>20.8057</ele>
        <time>2014-05-16T17:20:24Z</time>
      </trkpt>
      <trkpt lat="59.9418513" lon="17.8206937">
        <ele>20.8057</ele>
        <time>2014-05-16T17:20:25Z</time>
      </trkpt>
      <trkpt lat="59.9417881" lon="17.8206148">
        <ele>20.8057</ele>
        <time>2014-05-16T17:20:26Z</time>
      </trkpt>
      <trkpt lat="59.9417259" lon="17.8205369">
        <ele>20.325</ele>
        <time>2014-05-16T17:20:27Z</time>
      </trkpt>
      <trkpt lat="59.9416643" lon="17.8204607">
        <ele>20.325</ele>
        <time>2014-05-16T17:20:28Z</time>
      </trkpt>
      <trkpt lat="59.9416036" lon="17.8203856">
        <ele>20.325</ele>
        <time>2014-05-16T17:20:29Z</time>
      </trkpt>
      <trkpt lat="59.9415446" lon="17.8203111">
        <ele>20.325</ele>
        <time>2014-05-16T17:20:30Z</time>
      </trkpt>
      <trkpt lat="59.9414871" lon="17.8202388">
        <ele>20.8057</ele>
        <time>2014-05-16T17:20:31Z</time>
      </trkpt>
      <trkpt lat="59.9414311" lon="17.8201695">
        <ele>20.8057</ele>
        <time>2014-05-16T17:20:32Z</time>
      </trkpt>
      <trkpt lat="59.9413771" lon="17.8201025">
        <ele>20.8057</ele>
        <time>2014-05-16T17:20:33Z</time>
      </trkpt>
      <trkpt lat="59.9413249" lon="17.8200369">
        <ele>20.8057</ele>
        <time>2014-05-16T17:20:34Z</time>
      </trkpt>
      <trkpt lat="59.9412741" lon="17.8199731">
        <ele>21.2864</ele>
        <time>2014-05-16T17:20:35Z</time>
      </trkpt>
      <trkpt lat="59.9412248" lon="17.8199109">
        <ele>21.2864</ele>
        <time>2014-05-16T17:20:36Z</time>
      </trkpt>
      <trkpt lat="59.9411769" lon="17.8198501">
        <ele>21.2864</ele>
        <time>2014-05-16T17:20:37Z</time>
      </trkpt>
      <trkpt lat="59.9411302" lon="17.8197915">
        <ele>21.2864</ele>
        <time>2014-05-16T17:20:38Z</time>
      </trkpt>
      <trkpt lat="59.9410846" lon="17.8197345">
        <ele>21.767</ele>
        <time>2014-05-16T17:20:39Z</time>
      </trkpt>
      <trkpt lat="59.9410395" lon="17.8196785">
        <ele>21.767</ele>
        <time>2014-05-16T17:20:40Z</time>
      </trkpt>
      <trkpt lat="59.940995" lon="17.8196227">
        <ele>21.767</ele>
        <time>2014-05-16T17:20:41Z</time>
      </trkpt>
      <trkpt lat="59.9409503" lon="17.8195671">
        <ele>22.2476</ele>
        <time>2014-05-16T17:20:42Z</time>
      </trkpt>
      <trkpt lat="59.9409057" lon="17.8195106">
        <ele>22.2476</ele>
        <time>2014-05-16T17:20:43Z</time>
      </trkpt>
      <trkpt lat="59.9408609" lon="17.8194543">
        <ele>22.2476</ele>
        <time>2014-05-16T17:20:44Z</time>
      </trkpt>
      <trkpt lat="59.9408161" lon="17.8193998">
        <ele>22.2476</ele>
        <time>2014-05-16T17:20:45Z</time>
      </trkpt>
      <trkpt lat="59.9407721" lon="17.8193449">
        <ele>22.7283</ele>
        <time>2014-05-16T17:20:46Z</time>
      </trkpt>
      <trkpt lat="59.9407287" lon="17.8192914">
        <ele>22.7283</ele>
        <time>2014-05-16T17:20:47Z</time>
      </trkpt>
      <trkpt lat="59.9406862" lon="17.8192382">
        <ele>22.7283</ele>
        <time>2014-05-16T17:20:48Z</time>
      </trkpt>
      <trkpt lat="59.9406448" lon="17.8191848">
        <ele>22.7283</ele>
        <time>2014-05-16T17:20:49Z</time>
      </trkpt>
      <trkpt lat="59.9406038" lon="17.8191329">
        <ele>22.7283</ele>
        <time>2014-05-16T17:20:50Z</time>
      </trkpt>
      <trkpt lat="59.9405625" lon="17.8190815">
        <ele>23.209</ele>
        <time>2014-05-16T17:20:51Z</time>
      </trkpt>
      <trkpt lat="59.9405213" lon="17.8190295">
        <ele>23.209</ele>
        <time>2014-05-16T17:20:52Z</time>
      </trkpt>
      <trkpt lat="59.9404791" lon="17.8189767">
        <ele>23.209</ele>
        <time>2014-05-16T17:20:53Z</time>
      </trkpt>
      <trkpt lat="59.9404358" lon="17.8189227">
        <ele>23.6896</ele>
        <time>2014-05-16T17:20:54Z</time>
      </trkpt>
      <trkpt lat="59.9403915" lon="17.8188678">
        <ele>23.6896</ele>
        <time>2014-05-16T17:20:55Z</time>
      </trkpt>
      <trkpt lat="59.9403469" lon="17.8188119">
        <ele>23.6896</ele>
        <time>2014-05-16T17:20:56Z</time>
      </trkpt>
      <trkpt lat="59.9403013" lon="17.8187557">
        <ele>24.1703</ele>
        <time>2014-05-16T17:20:57Z</time>
      </trkpt>
      <trkpt lat="59.9402543" lon="17.8187001">
        <ele>24.1703</ele>
        <time>2014-05-16T17:20:58Z</time>
      </trkpt>
      <trkpt lat="59.9402065" lon="17.8186464">
        <ele>24.1703</ele>
        <time>2014-05-16T17:20:59Z</time>
      </trkpt>
      <trkpt lat="59.9401578" lon="17.8185968">
        <ele>24.651</ele>
        <time>2014-05-16T17:21:00Z</time>
      </trkpt>
      <trkpt lat="59.9401087" lon="17.8185503">
        <ele>24.651</ele>
        <time>2014-05-16T17:21:01Z</time>
      </trkpt>
      <trkpt lat="59.9400593" lon="17.8185076">
        <ele>24.651</ele>
        <time>2014-05-16T17:21:02Z</time>
      </trkpt>
      <trkpt lat="59.9400087" lon="17.8184678">
        <ele>24.651</ele>
        <time>2014-05-16T17:21:03Z</time>
      </trkpt>
      <trkpt lat="59.9399572" lon="17.818432">
        <ele>24.651</ele>
        <time>2014-05-16T17:21:04Z</time>
      </trkpt>
      <trkpt lat="59.9399045" lon="17.8184041">
        <ele>25.1317</ele>
        <time>2014-05-16T17:21:05Z</time>
      </trkpt>
      <trkpt lat="59.9398512" lon="17.8183835">
        <ele>25.1317</ele>
        <time>2014-05-16T17:21:06Z</time>
      </trkpt>
      <trkpt lat="59.9397977" lon="17.8183684">
        <ele>25.1317</ele>
        <time>2014-05-16T17:21:07Z</time>
      </trkpt>
      <trkpt lat="59.939744" lon="17.8183592">
        <ele>25.1317</ele>
        <time>2014-05-16T17:21:08Z</time>
      </trkpt>
      <trkpt lat="59.9396894" lon="17.8183534">
        <ele>25.1317</ele>
        <time>2014-05-16T17:21:09Z</time>
      </trkpt>
      <trkpt lat="59.9396336" lon="17.8183498">
        <ele>25.1317</ele>
        <time>2014-05-16T17:21:10Z</time>
      </trkpt>
      <trkpt lat="59.9395775" lon="17.8183503">
        <ele>25.1317</ele>
        <time>2014-05-16T17:21:11Z</time>
      </trkpt>
      <trkpt lat="59.9395217" lon="17.8183556">
        <ele>25.1317</ele>
        <time>2014-05-16T17:21:12Z</time>
      </trkpt>
      <trkpt lat="59.9394654" lon="17.8183639">
        <ele>25.1317</ele>
        <time>2014-05-16T17:21:13Z</time>
      </trkpt>
      <trkpt lat="59.9394083" lon="17.8183755">
        <ele>24.651</ele>
        <time>2014-05-16T17:21:14Z</time>
      </trkpt>
      <trkpt lat="59.9393527" lon="17.8183944">
        <ele>24.651</ele>
        <time>2014-05-16T17:21:15Z</time>
      </trkpt>
      <trkpt lat="59.9392993" lon="17.8184229">
        <ele>24.651</ele>
        <time>2014-05-16T17:21:16Z</time>
      </trkpt>
      <trkpt lat="59.9392472" lon="17.8184601">
        <ele>24.651</ele>
        <time>2014-05-16T17:21:17Z</time>
      </trkpt>
      <trkpt lat="59.9391985" lon="17.8185082">
        <ele>24.651</ele>
        <time>2014-05-16T17:21:18Z</time>
      </trkpt>
      <trkpt lat="59.9391532" lon="17.8185685">
        <ele>24.1703</ele>
        <time>2014-05-16T17:21:19Z</time>
      </trkpt>
      <trkpt lat="59.939111" lon="17.8186407">
        <ele>23.6896</ele>
        <time>2014-05-16T17:21:20Z</time>
      </trkpt>
      <trkpt lat="59.9390701" lon="17.8187187">
        <ele>23.6896</ele>
        <time>2014-05-16T17:21:21Z</time>
      </trkpt>
      <trkpt lat="59.939029" lon="17.8187984">
        <ele>23.6896</ele>
        <time>2014-05-16T17:21:22Z</time>
      </trkpt>
      <trkpt lat="59.9389867" lon="17.8188782">
        <ele>23.209</ele>
        <time>2014-05-16T17:21:23Z</time>
      </trkpt>
      <trkpt lat="59.9389436" lon="17.8189579">
        <ele>23.209</ele>
        <time>2014-05-16T17:21:24Z</time>
      </trkpt>
      <trkpt lat="59.9389006" lon="17.8190387">
        <ele>23.209</ele>
        <time>2014-05-16T17:21:25Z</time>
      </trkpt>
      <trkpt lat="59.9388587" lon="17.8191216">
        <ele>23.209</ele>
        <time>2014-05-16T17:21:26Z</time>
      </trkpt>
      <trkpt lat="59.9388182" lon="17.8192071">
        <ele>23.209</ele>
        <time>2014-05-16T17:21:27Z</time>
      </trkpt>
      <trkpt lat="59.9387785" lon="17.8192941">
        <ele>23.209</ele>
        <time>2014-05-16T17:21:28Z</time>
      </trkpt>
      <trkpt lat="59.9387396" lon="17.8193832">
        <ele>23.209</ele>
        <time>2014-05-16T17:21:29Z</time>
      </trkpt>
      <trkpt lat="59.9387012" lon="17.8194757">
        <ele>22.7283</ele>
        <time>2014-05-16T17:21:30Z</time>
      </trkpt>
      <trkpt lat="59.9386603" lon="17.8195697">
        <ele>22.7283</ele>
        <time>2014-05-16T17:21:31Z</time>
      </trkpt>
      <trkpt lat="59.9386169" lon="17.8196627">
        <ele>22.2476</ele>
        <time>2014-05-16T17:21:32Z</time>
      </trkpt>
      <trkpt lat="59.938572" lon="17.8197556">
        <ele>22.2476</ele>
        <time>2014-05-16T17:21:33Z</time>
      </trkpt>
      <trkpt lat="59.9385265" lon="17.8198495">
        <ele>21.767</ele>
        <time>2014-05-16T17:21:34Z</time>
      </trkpt>
      <trkpt lat="59.9384816" lon="17.8199456">
        <ele>21.767</ele>
        <time>2014-05-16T17:21:35Z</time>
      </trkpt>
      <trkpt lat="59.9384348" lon="17.8200411">
        <ele>21.2864</ele>
        <time>2014-05-16T17:21:36Z</time>
      </trkpt>
      <trkpt lat="59.9383845" lon="17.8201323">
        <ele>21.2864</ele>
        <time>2014-05-16T17:21:37Z</time>
      </trkpt>
      <trkpt lat="59.9383311" lon="17.8202196">
        <ele>20.8057</ele>
        <time>2014-05-16T17:21:38Z</time>
      </trkpt>
      <trkpt lat="59.9382759" lon="17.8203074">
        <ele>20.325</ele>
        <time>2014-05-16T17:21:39Z</time>
      </trkpt>
      <trkpt lat="59.9382196" lon="17.8204002">
        <ele>19.8444</ele>
        <time>2014-05-16T17:21:40Z</time>
      </trkpt>
      <trkpt lat="59.9381633" lon="17.8204983">
        <ele>19.8444</ele>
        <time>2014-05-16T17:21:41Z</time>
      </trkpt>
      <trkpt lat="59.9381065" lon="17.8206003">
        <ele>19.3638</ele>
        <time>2014-05-16T17:21:42Z</time>
      </trkpt>
      <trkpt lat="59.9380488" lon="17.820702">
        <ele>19.3638</ele>
        <time>2014-05-16T17:21:43Z</time>
      </trkpt>
      <trkpt lat="59.9379888" lon="17.8208004">
        <ele>18.8831</ele>
        <time>2014-05-16T17:21:44Z</time>
      </trkpt>
      <trkpt lat="59.9379255" lon="17.8208932">
        <ele>18.4023</ele>
        <time>2014-05-16T17:21:45Z</time>
      </trkpt>
      <trkpt lat="59.9378574" lon="17.8209751">
        <ele>17.9218</ele>
        <time>2014-05-16T17:21:46Z</time>
      </trkpt>
      <trkpt lat="59.9377855" lon="17.8210481">
        <ele>17.4412</ele>
        <time>2014-05-16T17:21:47Z</time>
      </trkpt>
      <trkpt lat="59.9377132" lon="17.8211227">
        <ele>16.9604</ele>
        <time>2014-05-16T17:21:48Z</time>
      </trkpt>
      <trkpt lat="59.9376425" lon="17.8212085">
        <ele>16.9604</ele>
        <time>2014-05-16T17:21:49Z</time>
      </trkpt>
      <trkpt lat="59.9375757" lon="17.8213033">
        <ele>16.9604</ele>
        <time>2014-05-16T17:21:50Z</time>
      </trkpt>
      <trkpt lat="59.9375132" lon="17.8213991">
        <ele>16.4797</ele>
        <time>2014-05-16T17:21:51Z</time>
      </trkpt>
      <trkpt lat="59.9374585" lon="17.8215065">
        <ele>15.999</ele>
        <time>2014-05-16T17:21:52Z</time>
      </trkpt>
      <trkpt lat="59.9374117" lon="17.8216532">
        <ele>15.5184</ele>
        <time>2014-05-16T17:21:53Z</time>
      </trkpt>
      <trkpt lat="59.9373778" lon="17.8218016">
        <ele>15.999</ele>
        <time>2014-05-16T17:21:54Z</time>
      </trkpt>
      <trkpt lat="59.9373713" lon="17.8219602">
        <ele>16.4797</ele>
        <time>2014-05-16T17:21:55Z</time>
      </trkpt>
      <trkpt lat="59.9373829" lon="17.8221091">
        <ele>16.4797</ele>
        <time>2014-05-16T17:21:56Z</time>
      </trkpt>
      <trkpt lat="59.9373958" lon="17.8222556">
        <ele>16.4797</ele>
        <time>2014-05-16T17:21:57Z</time>
      </trkpt>
      <trkpt lat="59.9373983" lon="17.8223996">
        <ele>16.9604</ele>
        <time>2014-05-16T17:21:58Z</time>
      </trkpt>
      <trkpt lat="59.9373833" lon="17.8225382">
        <ele>17.4412</ele>
        <time>2014-05-16T17:21:59Z</time>
      </trkpt>
      <trkpt lat="59.9373549" lon="17.8226605">
        <ele>17.4412</ele>
        <time>2014-05-16T17:22:00Z</time>
      </trkpt>
      <trkpt lat="59.9373202" lon="17.8227731">
        <ele>17.9218</ele>
        <time>2014-05-16T17:22:01Z</time>
      </trkpt>
      <trkpt lat="59.9372873" lon="17.8228835">
        <ele>17.9218</ele>
        <time>2014-05-16T17:22:02Z</time>
      </trkpt>
      <trkpt lat="59.9372566" lon="17.8229921">
        <ele>18.4023</ele>
        <time>2014-05-16T17:22:03Z</time>
      </trkpt>
      <trkpt lat="59.9372281" lon="17.8231016">
        <ele>18.8831</ele>
        <time>2014-05-16T17:22:04Z</time>
      </trkpt>
      <trkpt lat="59.9372093" lon="17.8232144">
        <ele>18.8831</ele>
        <time>2014-05-16T17:22:05Z</time>
      </trkpt>
      <trkpt lat="59.9372012" lon="17.823332">
        <ele>19.3638</ele>
        <time>2014-05-16T17:22:06Z</time>
      </trkpt>
      <trkpt lat="59.9371877" lon="17.8234473">
        <ele>19.8444</ele>
        <time>2014-05-16T17:22:07Z</time>
      </trkpt>
      <trkpt lat="59.9371591" lon="17.8235492">
        <ele>19.8444</ele>
        <time>2014-05-16T17:22:08Z</time>
      </trkpt>
      <trkpt lat="59.9371228" lon="17.8236438">
        <ele>19.8444</ele>
        <time>2014-05-16T17:22:09Z</time>
      </trkpt>
      <trkpt lat="59.9370853" lon="17.8237403">
        <ele>19.8444</ele>
        <time>2014-05-16T17:22:10Z</time>
      </trkpt>
      <trkpt lat="59.9370465" lon="17.8238367">
        <ele>19.8444</ele>
        <time>2014-05-16T17:22:11Z</time>
      </trkpt>
      <trkpt lat="59.9370056" lon="17.8239312">
        <ele>19.8444</ele>
        <time>2014-05-16T17:22:12Z</time>
      </trkpt>
      <trkpt lat="59.9369638" lon="17.824026">
        <ele>19.3638</ele>
        <time>2014-05-16T17:22:13Z</time>
      </trkpt>
      <trkpt lat="59.9369211" lon="17.8241204">
        <ele>19.3638</ele>
        <time>2014-05-16T17:22:14Z</time>
      </trkpt>
      <trkpt lat="59.9368767" lon="17.8242161">
        <ele>19.3638</ele>
        <time>2014-05-16T17:22:15Z</time>
      </trkpt>
      <trkpt lat="59.9368294" lon="17.8243096">
        <ele>18.8831</ele>
        <time>2014-05-16T17:22:16Z</time>
      </trkpt>
      <trkpt lat="59.9367789" lon="17.8243989">
        <ele>18.8831</ele>
        <time>2014-05-16T17:22:17Z</time>
      </trkpt>
      <trkpt lat="59.9367259" lon="17.8244816">
        <ele>18.8831</ele>
        <time>2014-05-16T17:22:18Z</time>
      </trkpt>
      <trkpt lat="59.9366706" lon="17.8245586">
        <ele>18.8831</ele>
        <time>2014-05-16T17:22:19Z</time>
      </trkpt>
      <trkpt lat="59.9366135" lon="17.8246311">
        <ele>18.8831</ele>
        <time>2014-05-16T17:22:20Z</time>
      </trkpt>
      <trkpt lat="59.9365541" lon="17.824694">
        <ele>18.8831</ele>
        <time>2014-05-16T17:22:21Z</time>
      </trkpt>
      <trkpt lat="59.9364919" lon="17.8247444">
        <ele>18.8831</ele>
        <time>2014-05-16T17:22:22Z</time>
      </trkpt>
      <trkpt lat="59.9364281" lon="17.8247861">
        <ele>18.8831</ele>
        <time>2014-05-16T17:22:23Z</time>
      </trkpt>
      <trkpt lat="59.9363624" lon="17.8248178">
        <ele>18.4023</ele>
        <time>2014-05-16T17:22:24Z</time>
      </trkpt>
      <trkpt lat="59.9362962" lon="17.8248439">
        <ele>18.4023</ele>
        <time>2014-05-16T17:22:25Z</time>
      </trkpt>
      <trkpt lat="59.9362301" lon="17.8248683">
        <ele>17.9218</ele>
        <time>2014-05-16T17:22:26Z</time>
      </trkpt>
      <trkpt lat="59.9361634" lon="17.8248923">
        <ele>17.9218</ele>
        <time>2014-05-16T17:22:27Z</time>
      </trkpt>
      <trkpt lat="59.9360967" lon="17.8249171">
        <ele>17.9218</ele>
        <time>2014-05-16T17:22:28Z</time>
      </trkpt>
      <trkpt lat="59.9360304" lon="17.8249434">
        <ele>17.4412</ele>
        <time>2014-05-16T17:22:29Z</time>
      </trkpt>
      <trkpt lat="59.9359633" lon="17.8249713">
        <ele>17.4412</ele>
        <time>2014-05-16T17:22:30Z</time>
      </trkpt>
      <trkpt lat="59.9358956" lon="17.8250004">
        <ele>17.4412</ele>
        <time>2014-05-16T17:22:31Z</time>
      </trkpt>
      <trkpt lat="59.9358288" lon="17.8250238">
        <ele>16.9604</ele>
        <time>2014-05-16T17:22:32Z</time>
      </trkpt>
      <trkpt lat="59.935766" lon="17.8250435">
        <ele>17.4412</ele>
        <time>2014-05-16T17:22:33Z</time>
      </trkpt>
      <trkpt lat="59.9357004" lon="17.8250705">
        <ele>16.9604</ele>
        <time>2014-05-16T17:22:34Z</time>
      </trkpt>
      <trkpt lat="59.9356359" lon="17.8251">
        <ele>16.9604</ele>
        <time>2014-05-16T17:22:35Z</time>
      </trkpt>
      <trkpt lat="59.9355708" lon="17.8251269">
        <ele>16.9604</ele>
        <time>2014-05-16T17:22:36Z</time>
      </trkpt>
      <trkpt lat="59.9355073" lon="17.8251543">
        <ele>16.9604</ele>
        <time>2014-05-16T17:22:37Z</time>
      </trkpt>
      <trkpt lat="59.9354435" lon="17.8251818">
        <ele>16.4797</ele>
        <time>2014-05-16T17:22:38Z</time>
      </trkpt>
      <trkpt lat="59.9353785" lon="17.8252094">
        <ele>16.4797</ele>
        <time>2014-05-16T17:22:39Z</time>
      </trkpt>
      <trkpt lat="59.9353144" lon="17.8252366">
        <ele>16.4797</ele>
        <time>2014-05-16T17:22:40Z</time>
      </trkpt>
      <trkpt lat="59.9352507" lon="17.825262">
        <ele>16.4797</ele>
        <time>2014-05-16T17:22:41Z</time>
      </trkpt>
      <trkpt lat="59.9351891" lon="17.8252891">
        <ele>16.4797</ele>
        <time>2014-05-16T17:22:42Z</time>
      </trkpt>
      <trkpt lat="59.935128" lon="17.8253166">
        <ele>16.4797</ele>
        <time>2014-05-16T17:22:43Z</time>
      </trkpt>
      <trkpt lat="59.9350677" lon="17.825343">
        <ele>16.4797</ele>
        <time>2014-05-16T17:22:44Z</time>
      </trkpt>
      <trkpt lat="59.9350078" lon="17.8253694">
        <ele>16.4797</ele>
        <time>2014-05-16T17:22:45Z</time>
      </trkpt>
      <trkpt lat="59.9349482" lon="17.825395">
        <ele>16.4797</ele>
        <time>2014-05-16T17:22:46Z</time>
      </trkpt>
      <trkpt lat="59.9348885" lon="17.82542">
        <ele>16.4797</ele>
        <time>2014-05-16T17:22:47Z</time>
      </trkpt>
      <trkpt lat="59.9348292" lon="17.8254455">
        <ele>16.4797</ele>
        <time>2014-05-16T17:22:48Z</time>
      </trkpt>
      <trkpt lat="59.934771" lon="17.8254724">
        <ele>16.4797</ele>
        <time>2014-05-16T17:22:49Z</time>
      </trkpt>
      <trkpt lat="59.9347135" lon="17.8254979">
        <ele>16.4797</ele>
        <time>2014-05-16T17:22:50Z</time>
      </trkpt>
      <trkpt lat="59.9346571" lon="17.8255218">
        <ele>16.9604</ele>
        <time>2014-05-16T17:22:51Z</time>
      </trkpt>
      <trkpt lat="59.9346018" lon="17.825548">
        <ele>16.9604</ele>
        <time>2014-05-16T17:22:52Z</time>
      </trkpt>
      <trkpt lat="59.9345467" lon="17.8255744">
        <ele>16.9604</ele>
        <time>2014-05-16T17:22:53Z</time>
      </trkpt>
      <trkpt lat="59.9344913" lon="17.8255999">
        <ele>16.9604</ele>
        <time>2014-05-16T17:22:54Z</time>
      </trkpt>
      <trkpt lat="59.9344359" lon="17.8256246">
        <ele>16.9604</ele>
        <time>2014-05-16T17:22:55Z</time>
      </trkpt>
      <trkpt lat="59.9343804" lon="17.8256485">
        <ele>16.9604</ele>
        <time>2014-05-16T17:22:56Z</time>
      </trkpt>
      <trkpt lat="59.9343245" lon="17.8256732">
        <ele>17.4412</ele>
        <time>2014-05-16T17:22:57Z</time>
      </trkpt>
      <trkpt lat="59.9342686" lon="17.8256982">
        <ele>17.4412</ele>
        <time>2014-05-16T17:22:58Z</time>
      </trkpt>
      <trkpt lat="59.9342126" lon="17.8257221">
        <ele>17.4412</ele>
        <time>2014-05-16T17:22:59Z</time>
      </trkpt>
      <trkpt lat="59.9341572" lon="17.8257453">
        <ele>17.4412</ele>
        <time>2014-05-16T17:23:00Z</time>
      </trkpt>
      <trkpt lat="59.9341033" lon="17.8257692">
        <ele>17.4412</ele>
        <time>2014-05-16T17:23:01Z</time>
      </trkpt>
      <trkpt lat="59.9340505" lon="17.8257939">
        <ele>17.9218</ele>
        <time>2014-05-16T17:23:02Z</time>
      </trkpt>
      <trkpt lat="59.933998" lon="17.8258185">
        <ele>17.9218</ele>
        <time>2014-05-16T17:23:03Z</time>
      </trkpt>
      <trkpt lat="59.933946" lon="17.8258419">
        <ele>17.9218</ele>
        <time>2014-05-16T17:23:04Z</time>
      </trkpt>
      <trkpt lat="59.9338952" lon="17.8258647">
        <ele>17.9218</ele>
        <time>2014-05-16T17:23:05Z</time>
      </trkpt>
      <trkpt lat="59.9338455" lon="17.8258888">
        <ele>17.9218</ele>
        <time>2014-05-16T17:23:06Z</time>
      </trkpt>
      <trkpt lat="59.9337962" lon="17.8259143">
        <ele>18.4023</ele>
        <time>2014-05-16T17:23:07Z</time>
      </trkpt>
      <trkpt lat="59.9337464" lon="17.8259407">
        <ele>18.4023</ele>
        <time>2014-05-16T17:23:08Z</time>
      </trkpt>
      <trkpt lat="59.9336965" lon="17.8259676">
        <ele>18.4023</ele>
        <time>2014-05-16T17:23:09Z</time>
      </trkpt>
      <trkpt lat="59.933647" lon="17.8259963">
        <ele>18.4023</ele>
        <time>2014-05-16T17:23:10Z</time>
      </trkpt>
      <trkpt lat="59.9335983" lon="17.8260289">
        <ele>18.4023</ele>
        <time>2014-05-16T17:23:11Z</time>
      </trkpt>
      <trkpt lat="59.9335497" lon="17.826065">
        <ele>18.4023</ele>
        <time>2014-05-16T17:23:12Z</time>
      </trkpt>
      <trkpt lat="59.9335013" lon="17.8261024">
        <ele>18.4023</ele>
        <time>2014-05-16T17:23:13Z</time>
      </trkpt>
      <trkpt lat="59.9334527" lon="17.8261418">
        <ele>18.4023</ele>
        <time>2014-05-16T17:23:14Z</time>
      </trkpt>
      <trkpt lat="59.9334045" lon="17.8261857">
        <ele>17.9218</ele>
        <time>2014-05-16T17:23:15Z</time>
      </trkpt>
      <trkpt lat="59.9333559" lon="17.826233">
        <ele>17.9218</ele>
        <time>2014-05-16T17:23:16Z</time>
      </trkpt>
      <trkpt lat="59.9333068" lon="17.826283">
        <ele>17.9218</ele>
        <time>2014-05-16T17:23:17Z</time>
      </trkpt>
      <trkpt lat="59.9332584" lon="17.8263368">
        <ele>17.9218</ele>
        <time>2014-05-16T17:23:18Z</time>
      </trkpt>
      <trkpt lat="59.9332103" lon="17.8263953">
        <ele>17.9218</ele>
        <time>2014-05-16T17:23:19Z</time>
      </trkpt>
      <trkpt lat="59.933163" lon="17.8264583">
        <ele>17.9218</ele>
        <time>2014-05-16T17:23:20Z</time>
      </trkpt>
      <trkpt lat="59.9331165" lon="17.8265249">
        <ele>17.4412</ele>
        <time>2014-05-16T17:23:21Z</time>
      </trkpt>
      <trkpt lat="59.9330703" lon="17.8265939">
        <ele>17.4412</ele>
        <time>2014-05-16T17:23:22Z</time>
      </trkpt>
      <trkpt lat="59.9330244" lon="17.826665">
        <ele>17.4412</ele>
        <time>2014-05-16T17:23:23Z</time>
      </trkpt>
      <trkpt lat="59.9329757" lon="17.8267473">
        <ele>17.4412</ele>
        <time>2014-05-16T17:23:24Z</time>
      </trkpt>
      <trkpt lat="59.9329286" lon="17.8268269">
        <ele>17.4412</ele>
        <time>2014-05-16T17:23:25Z</time>
      </trkpt>
      <trkpt lat="59.9328819" lon="17.8269072">
        <ele>16.9604</ele>
        <time>2014-05-16T17:23:26Z</time>
      </trkpt>
      <trkpt lat="59.9328359" lon="17.8269884">
        <ele>16.9604</ele>
        <time>2014-05-16T17:23:27Z</time>
      </trkpt>
      <trkpt lat="59.9327902" lon="17.8270691">
        <ele>17.4412</ele>
        <time>2014-05-16T17:23:28Z</time>
      </trkpt>
      <trkpt lat="59.9327446" lon="17.8271485">
        <ele>17.4412</ele>
        <time>2014-05-16T17:23:29Z</time>
      </trkpt>
      <trkpt lat="59.932699" lon="17.827226">
        <ele>17.4412</ele>
        <time>2014-05-16T17:23:30Z</time>
      </trkpt>
      <trkpt lat="59.9326543" lon="17.8273021">
        <ele>17.4412</ele>
        <time>2014-05-16T17:23:31Z</time>
      </trkpt>
      <trkpt lat="59.9326103" lon="17.8273768">
        <ele>17.4412</ele>
        <time>2014-05-16T17:23:32Z</time>
      </trkpt>
      <trkpt lat="59.932567" lon="17.8274507">
        <ele>17.4412</ele>
        <time>2014-05-16T17:23:33Z</time>
      </trkpt>
      <trkpt lat="59.932525" lon="17.8275243">
        <ele>17.4412</ele>
        <time>2014-05-16T17:23:34Z</time>
      </trkpt>
      <trkpt lat="59.9324845" lon="17.8275978">
        <ele>17.9218</ele>
        <time>2014-05-16T17:23:35Z</time>
      </trkpt>
      <trkpt lat="59.9324457" lon="17.8276702">
        <ele>17.9218</ele>
        <time>2014-05-16T17:23:36Z</time>
      </trkpt>
      <trkpt lat="59.9324083" lon="17.8277414">
        <ele>17.9218</ele>
        <time>2014-05-16T17:23:37Z</time>
      </trkpt>
      <trkpt lat="59.9323717" lon="17.8278132">
        <ele>17.9218</ele>
        <time>2014-05-16T17:23:38Z</time>
      </trkpt>
      <trkpt lat="59.9323353" lon="17.8278867">
        <ele>17.9218</ele>
        <time>2014-05-16T17:23:39Z</time>
      </trkpt>
      <trkpt lat="59.9322977" lon="17.8279608">
        <ele>18.4023</ele>
        <time>2014-05-16T17:23:40Z</time>
      </trkpt>
      <trkpt lat="59.9322599" lon="17.8280351">
        <ele>18.4023</ele>
        <time>2014-05-16T17:23:41Z</time>
      </trkpt>
      <trkpt lat="59.9322236" lon="17.8281122">
        <ele>18.4023</ele>
        <time>2014-05-16T17:23:42Z</time>
      </trkpt>
      <trkpt lat="59.9321882" lon="17.8281921">
        <ele>18.4023</ele>
        <time>2014-05-16T17:23:43Z</time>
      </trkpt>
      <trkpt lat="59.9321529" lon="17.8282732">
        <ele>18.4023</ele>
        <time>2014-05-16T17:23:44Z</time>
      </trkpt>
      <trkpt lat="59.9321194" lon="17.8283556">
        <ele>18.8831</ele>
        <time>2014-05-16T17:23:45Z</time>
      </trkpt>
      <trkpt lat="59.9320876" lon="17.8284396">
        <ele>18.8831</ele>
        <time>2014-05-16T17:23:46Z</time>
      </trkpt>
      <trkpt lat="59.9320565" lon="17.8285256">
        <ele>18.8831</ele>
        <time>2014-05-16T17:23:47Z</time>
      </trkpt>
      <trkpt lat="59.9320267" lon="17.828615">
        <ele>18.8831</ele>
        <time>2014-05-16T17:23:48Z</time>
      </trkpt>
      <trkpt lat="59.9319987" lon="17.8287075">
        <ele>18.8831</ele>
        <time>2014-05-16T17:23:49Z</time>
      </trkpt>
      <trkpt lat="59.9319723" lon="17.8288037">
        <ele>18.8831</ele>
        <time>2014-05-16T17:23:50Z</time>
      </trkpt>
      <trkpt lat="59.9319468" lon="17.828902">
        <ele>19.3638</ele>
        <time>2014-05-16T17:23:51Z</time>
      </trkpt>
      <trkpt lat="59.9319216" lon="17.8290002">
        <ele>19.3638</ele>
        <time>2014-05-16T17:23:52Z</time>
      </trkpt>
      <trkpt lat="59.9318972" lon="17.829098">
        <ele>19.3638</ele>
        <time>2014-05-16T17:23:53Z</time>
      </trkpt>
      <trkpt lat="59.9318742" lon="17.8291954">
        <ele>19.8444</ele>
        <time>2014-05-16T17:23:54Z</time>
      </trkpt>
      <trkpt lat="59.9318506" lon="17.8292923">
        <ele>19.8444</ele>
        <time>2014-05-16T17:23:55Z</time>
      </trkpt>
      <trkpt lat="59.931826" lon="17.8293869">
        <ele>19.8444</ele>
        <time>2014-05-16T17:23:56Z</time>
      </trkpt>
      <trkpt lat="59.9318009" lon="17.8294785">
        <ele>20.325</ele>
        <time>2014-05-16T17:23:57Z</time>
      </trkpt>
      <trkpt lat="59.931776" lon="17.8295688">
        <ele>20.325</ele>
        <time>2014-05-16T17:23:58Z</time>
      </trkpt>
      <trkpt lat="59.9317515" lon="17.8296574">
        <ele>20.8057</ele>
        <time>2014-05-16T17:23:59Z</time>
      </trkpt>
      <trkpt lat="59.9317273" lon="17.8297451">
        <ele>20.8057</ele>
        <time>2014-05-16T17:24:00Z</time>
      </trkpt>
      <trkpt lat="59.9317038" lon="17.829832">
        <ele>20.8057</ele>
        <time>2014-05-16T17:24:01Z</time>
      </trkpt>
      <trkpt lat="59.9316801" lon="17.8299162">
        <ele>21.2864</ele>
        <time>2014-05-16T17:24:02Z</time>
      </trkpt>
      <trkpt lat="59.9316589" lon="17.8299978">
        <ele>21.2864</ele>
        <time>2014-05-16T17:24:03Z</time>
      </trkpt>
      <trkpt lat="59.9316376" lon="17.830077">
        <ele>21.2864</ele>
        <time>2014-05-16T17:24:04Z</time>
      </trkpt>
      <trkpt lat="59.9316163" lon="17.8301547">
        <ele>21.2864</ele>
        <time>2014-05-16T17:24:05Z</time>
      </trkpt>
      <trkpt lat="59.9315951" lon="17.8302314">
        <ele>21.2864</ele>
        <time>2014-05-16T17:24:06Z</time>
      </trkpt>
      <trkpt lat="59.9315728" lon="17.8303085">
        <ele>21.2864</ele>
        <time>2014-05-16T17:24:07Z</time>
      </trkpt>
      <trkpt lat="59.9315485" lon="17.8303863">
        <ele>21.2864</ele>
        <time>2014-05-16T17:24:08Z</time>
      </trkpt>
      <trkpt lat="59.9315229" lon="17.830465">
        <ele>21.2864</ele>
        <time>2014-05-16T17:24:09Z</time>
      </trkpt>
      <trkpt lat="59.9314957" lon="17.8305459">
        <ele>21.2864</ele>
        <time>2014-05-16T17:24:10Z</time>
      </trkpt>
      <trkpt lat="59.9314672" lon="17.8306287">
        <ele>21.2864</ele>
        <time>2014-05-16T17:24:11Z</time>
      </trkpt>
      <trkpt lat="59.9314349" lon="17.8307136">
        <ele>20.8057</ele>
        <time>2014-05-16T17:24:12Z</time>
      </trkpt>
      <trkpt lat="59.9313987" lon="17.8308048">
        <ele>20.8057</ele>
        <time>2014-05-16T17:24:13Z</time>
      </trkpt>
      <trkpt lat="59.9313598" lon="17.8308939">
        <ele>20.8057</ele>
        <time>2014-05-16T17:24:14Z</time>
      </trkpt>
      <trkpt lat="59.9313206" lon="17.8309795">
        <ele>20.8057</ele>
        <time>2014-05-16T17:24:15Z</time>
      </trkpt>
      <trkpt lat="59.9312805" lon="17.8310652">
        <ele>20.8057</ele>
        <time>2014-05-16T17:24:16Z</time>
      </trkpt>
      <trkpt lat="59.9312389" lon="17.8311489">
        <ele>20.325</ele>
        <time>2014-05-16T17:24:17Z</time>
      </trkpt>
      <trkpt lat="59.9311978" lon="17.831231">
        <ele>20.325</ele>
        <time>2014-05-16T17:24:18Z</time>
      </trkpt>
      <trkpt lat="59.9311569" lon="17.8313121">
        <ele>20.8057</ele>
        <time>2014-05-16T17:24:19Z</time>
      </trkpt>
      <trkpt lat="59.9311144" lon="17.8313882">
        <ele>20.8057</ele>
        <time>2014-05-16T17:24:20Z</time>
      </trkpt>
      <trkpt lat="59.9310709" lon="17.8314601">
        <ele>20.8057</ele>
        <time>2014-05-16T17:24:21Z</time>
      </trkpt>
      <trkpt lat="59.931028" lon="17.8315316">
        <ele>20.8057</ele>
        <time>2014-05-16T17:24:22Z</time>
      </trkpt>
      <trkpt lat="59.9309854" lon="17.8316018">
        <ele>20.8057</ele>
        <time>2014-05-16T17:24:23Z</time>
      </trkpt>
      <trkpt lat="59.9309424" lon="17.8316708">
        <ele>20.8057</ele>
        <time>2014-05-16T17:24:24Z</time>
      </trkpt>
      <trkpt lat="59.930899" lon="17.8317392">
        <ele>20.8057</ele>
        <time>2014-05-16T17:24:25Z</time>
      </trkpt>
      <trkpt lat="59.9308557" lon="17.8318072">
        <ele>21.2864</ele>
        <time>2014-05-16T17:24:26Z</time>
      </trkpt>
      <trkpt lat="59.9308118" lon="17.8318724">
        <ele>21.2864</ele>
        <time>2014-05-16T17:24:27Z</time>
      </trkpt>
      <trkpt lat="59.9307673" lon="17.8319349">
        <ele>21.2864</ele>
        <time>2014-05-16T17:24:28Z</time>
      </trkpt>
      <trkpt lat="59.9307242" lon="17.8319994">
        <ele>21.2864</ele>
        <time>2014-05-16T17:24:29Z</time>
      </trkpt>
      <trkpt lat="59.930682" lon="17.8320657">
        <ele>21.2864</ele>
        <time>2014-05-16T17:24:30Z</time>
      </trkpt>
      <trkpt lat="59.9306394" lon="17.8321288">
        <ele>21.2864</ele>
        <time>2014-05-16T17:24:31Z</time>
      </trkpt>
      <trkpt lat="59.9305968" lon="17.8321906">
        <ele>21.767</ele>
        <time>2014-05-16T17:24:32Z</time>
      </trkpt>
      <trkpt lat="59.9305538" lon="17.8322515">
        <ele>21.767</ele>
        <time>2014-05-16T17:24:33Z</time>
      </trkpt>
      <trkpt lat="59.9305104" lon="17.83231">
        <ele>21.767</ele>
        <time>2014-05-16T17:24:34Z</time>
      </trkpt>
      <trkpt lat="59.930467" lon="17.8323688">
        <ele>21.767</ele>
        <time>2014-05-16T17:24:35Z</time>
      </trkpt>
      <trkpt lat="59.9304243" lon="17.8324324">
        <ele>21.767</ele>
        <time>2014-05-16T17:24:36Z</time>
      </trkpt>
      <trkpt lat="59.9303814" lon="17.8324991">
        <ele>21.2864</ele>
        <time>2014-05-16T17:24:37Z</time>
      </trkpt>
      <trkpt lat="59.9303372" lon="17.8325665">
        <ele>21.2864</ele>
        <time>2014-05-16T17:24:38Z</time>
      </trkpt>
      <trkpt lat="59.9302914" lon="17.8326345">
        <ele>21.2864</ele>
        <time>2014-05-16T17:24:39Z</time>
      </trkpt>
      <trkpt lat="59.9302457" lon="17.8327054">
        <ele>21.2864</ele>
        <time>2014-05-16T17:24:40Z</time>
      </trkpt>
      <trkpt lat="59.9301997" lon="17.8327786">
        <ele>21.2864</ele>
        <time>2014-05-16T17:24:41Z</time>
      </trkpt>
      <trkpt lat="59.9301529" lon="17.8328518">
        <ele>21.2864</ele>
        <time>2014-05-16T17:24:42Z</time>
      </trkpt>
      <trkpt lat="59.9301058" lon="17.8329252">
        <ele>21.2864</ele>
        <time>2014-05-16T17:24:43Z</time>
      </trkpt>
      <trkpt lat="59.9300593" lon="17.8330007">
        <ele>21.2864</ele>
        <time>2014-05-16T17:24:44Z</time>
      </trkpt>
      <trkpt lat="59.9300132" lon="17.8330761">
        <ele>20.8057</ele>
        <time>2014-05-16T17:24:45Z</time>
      </trkpt>
      <trkpt lat="59.9299676" lon="17.8331494">
        <ele>21.2864</ele>
        <time>2014-05-16T17:24:46Z</time>
      </trkpt>
      <trkpt lat="59.9299226" lon="17.8332219">
        <ele>21.2864</ele>
        <time>2014-05-16T17:24:47Z</time>
      </trkpt>
      <trkpt lat="59.9298783" lon="17.8332929">
        <ele>21.2864</ele>
        <time>2014-05-16T17:24:48Z</time>
      </trkpt>
      <trkpt lat="59.9298349" lon="17.8333633">
        <ele>21.2864</ele>
        <time>2014-05-16T17:24:49Z</time>
      </trkpt>
      <trkpt lat="59.929793" lon="17.8334348">
        <ele>21.2864</ele>
        <time>2014-05-16T17:24:50Z</time>
      </trkpt>
      <trkpt lat="59.9297514" lon="17.8335057">
        <ele>21.2864</ele>
        <time>2014-05-16T17:24:51Z</time>
      </trkpt>
      <trkpt lat="59.929709" lon="17.8335762">
        <ele>21.767</ele>
        <time>2014-05-16T17:24:52Z</time>
      </trkpt>
      <trkpt lat="59.929667" lon="17.8336455">
        <ele>21.767</ele>
        <time>2014-05-16T17:24:53Z</time>
      </trkpt>
      <trkpt lat="59.929627" lon="17.8337145">
        <ele>21.767</ele>
        <time>2014-05-16T17:24:54Z</time>
      </trkpt>
      <trkpt lat="59.9295884" lon="17.8337823">
        <ele>21.767</ele>
        <time>2014-05-16T17:24:55Z</time>
      </trkpt>
      <trkpt lat="59.929549" lon="17.8338481">
        <ele>22.2476</ele>
        <time>2014-05-16T17:24:56Z</time>
      </trkpt>
      <trkpt lat="59.9295081" lon="17.8339117">
        <ele>22.2476</ele>
        <time>2014-05-16T17:24:57Z</time>
      </trkpt>
      <trkpt lat="59.929466" lon="17.8339736">
        <ele>22.2476</ele>
        <time>2014-05-16T17:24:58Z</time>
      </trkpt>
      <trkpt lat="59.9294231" lon="17.8340371">
        <ele>22.2476</ele>
        <time>2014-05-16T17:24:59Z</time>
      </trkpt>
      <trkpt lat="59.9293801" lon="17.8341034">
        <ele>22.2476</ele>
        <time>2014-05-16T17:25:00Z</time>
      </trkpt>
      <trkpt lat="59.9293364" lon="17.8341709">
        <ele>22.2476</ele>
        <time>2014-05-16T17:25:01Z</time>
      </trkpt>
      <trkpt lat="59.9292915" lon="17.8342377">
        <ele>22.2476</ele>
        <time>2014-05-16T17:25:02Z</time>
      </trkpt>
      <trkpt lat="59.9292449" lon="17.834303">
        <ele>22.2476</ele>
        <time>2014-05-16T17:25:03Z</time>
      </trkpt>
      <trkpt lat="59.9291972" lon="17.8343672">
        <ele>21.767</ele>
        <time>2014-05-16T17:25:04Z</time>
      </trkpt>
      <trkpt lat="59.9291471" lon="17.8344314">
        <ele>21.767</ele>
        <time>2014-05-16T17:25:05Z</time>
      </trkpt>
      <trkpt lat="59.9290961" lon="17.8344962">
        <ele>21.767</ele>
        <time>2014-05-16T17:25:06Z</time>
      </trkpt>
      <trkpt lat="59.9290443" lon="17.8345603">
        <ele>21.767</ele>
        <time>2014-05-16T17:25:07Z</time>
      </trkpt>
      <trkpt lat="59.9289916" lon="17.8346231">
        <ele>21.767</ele>
        <time>2014-05-16T17:25:08Z</time>
      </trkpt>
      <trkpt lat="59.9289383" lon="17.8346858">
        <ele>21.767</ele>
        <time>2014-05-16T17:25:09Z</time>
      </trkpt>
      <trkpt lat="59.9288844" lon="17.8347495">
        <ele>21.767</ele>
        <time>2014-05-16T17:25:10Z</time>
      </trkpt>
      <trkpt lat="59.9288313" lon="17.8348173">
        <ele>21.767</ele>
        <time>2014-05-16T17:25:11Z</time>
      </trkpt>
      <trkpt lat="59.9287787" lon="17.8348887">
        <ele>21.767</ele>
        <time>2014-05-16T17:25:12Z</time>
      </trkpt>
      <trkpt lat="59.9287264" lon="17.8349612">
        <ele>21.767</ele>
        <time>2014-05-16T17:25:13Z</time>
      </trkpt>
      <trkpt lat="59.9286751" lon="17.8350328">
        <ele>21.767</ele>
        <time>2014-05-16T17:25:14Z</time>
      </trkpt>
      <trkpt lat="59.9286249" lon="17.8351052">
        <ele>21.767</ele>
        <time>2014-05-16T17:25:15Z</time>
      </trkpt>
      <trkpt lat="59.9285756" lon="17.8351784">
        <ele>21.767</ele>
        <time>2014-05-16T17:25:16Z</time>
      </trkpt>
      <trkpt lat="59.928527" lon="17.8352517">
        <ele>21.767</ele>
        <time>2014-05-16T17:25:17Z</time>
      </trkpt>
      <trkpt lat="59.9284792" lon="17.8353249">
        <ele>21.767</ele>
        <time>2014-05-16T17:25:18Z</time>
      </trkpt>
      <trkpt lat="59.9284311" lon="17.835397">
        <ele>21.767</ele>
        <time>2014-05-16T17:25:19Z</time>
      </trkpt>
      <trkpt lat="59.928383" lon="17.8354685">
        <ele>21.767</ele>
        <time>2014-05-16T17:25:20Z</time>
      </trkpt>
      <trkpt lat="59.9283352" lon="17.8355404">
        <ele>21.767</ele>
        <time>2014-05-16T17:25:21Z</time>
      </trkpt>
      <trkpt lat="59.9282876" lon="17.8356124">
        <ele>21.767</ele>
        <time>2014-05-16T17:25:22Z</time>
      </trkpt>
      <trkpt lat="59.92824" lon="17.8356832">
        <ele>21.767</ele>
        <time>2014-05-16T17:25:23Z</time>
      </trkpt>
      <trkpt lat="59.9281918" lon="17.8357516">
        <ele>22.2476</ele>
        <time>2014-05-16T17:25:24Z</time>
      </trkpt>
      <trkpt lat="59.9281436" lon="17.8358197">
        <ele>22.2476</ele>
        <time>2014-05-16T17:25:25Z</time>
      </trkpt>
      <trkpt lat="59.9280959" lon="17.8358901">
        <ele>21.767</ele>
        <time>2014-05-16T17:25:26Z</time>
      </trkpt>
      <trkpt lat="59.9280483" lon="17.8359631">
        <ele>21.767</ele>
        <time>2014-05-16T17:25:27Z</time>
      </trkpt>
      <trkpt lat="59.9280001" lon="17.8360376">
        <ele>22.2476</ele>
        <time>2014-05-16T17:25:28Z</time>
      </trkpt>
      <trkpt lat="59.9279518" lon="17.8361139">
        <ele>22.2476</ele>
        <time>2014-05-16T17:25:29Z</time>
      </trkpt>
      <trkpt lat="59.9279038" lon="17.8361905">
        <ele>22.2476</ele>
        <time>2014-05-16T17:25:30Z</time>
      </trkpt>
      <trkpt lat="59.9278557" lon="17.8362696">
        <ele>22.2476</ele>
        <time>2014-05-16T17:25:31Z</time>
      </trkpt>
      <trkpt lat="59.9278068" lon="17.8363512">
        <ele>22.2476</ele>
        <time>2014-05-16T17:25:32Z</time>
      </trkpt>
      <trkpt lat="59.927758" lon="17.8364304">
        <ele>22.7283</ele>
        <time>2014-05-16T17:25:33Z</time>
      </trkpt>
      <trkpt lat="59.9277107" lon="17.8365081">
        <ele>22.7283</ele>
        <time>2014-05-16T17:25:34Z</time>
      </trkpt>
      <trkpt lat="59.9276646" lon="17.8365843">
        <ele>22.7283</ele>
        <time>2014-05-16T17:25:35Z</time>
      </trkpt>
      <trkpt lat="59.9276187" lon="17.8366577">
        <ele>22.7283</ele>
        <time>2014-05-16T17:25:36Z</time>
      </trkpt>
      <trkpt lat="59.9275727" lon="17.8367279">
        <ele>22.7283</ele>
        <time>2014-05-16T17:25:37Z</time>
      </trkpt>
      <trkpt lat="59.9275268" lon="17.8367967">
        <ele>22.2476</ele>
        <time>2014-05-16T17:25:38Z</time>
      </trkpt>
      <trkpt lat="59.9274775" lon="17.8368615">
        <ele>22.2476</ele>
        <time>2014-05-16T17:25:39Z</time>
      </trkpt>
      <trkpt lat="59.9274288" lon="17.8369267">
        <ele>22.2476</ele>
        <time>2014-05-16T17:25:40Z</time>
      </trkpt>
      <trkpt lat="59.9273788" lon="17.8369914">
        <ele>21.767</ele>
        <time>2014-05-16T17:25:41Z</time>
      </trkpt>
      <trkpt lat="59.9273288" lon="17.8370552">
        <ele>21.767</ele>
        <time>2014-05-16T17:25:42Z</time>
      </trkpt>
      <trkpt lat="59.9272802" lon="17.8371203">
        <ele>21.2864</ele>
        <time>2014-05-16T17:25:43Z</time>
      </trkpt>
      <trkpt lat="59.9272303" lon="17.8371881">
        <ele>21.2864</ele>
        <time>2014-05-16T17:25:44Z</time>
      </trkpt>
      <trkpt lat="59.9271825" lon="17.837254">
        <ele>20.8057</ele>
        <time>2014-05-16T17:25:45Z</time>
      </trkpt>
      <trkpt lat="59.9271351" lon="17.8373158">
        <ele>20.8057</ele>
        <time>2014-05-16T17:25:46Z</time>
      </trkpt>
      <trkpt lat="59.9270879" lon="17.8373793">
        <ele>20.325</ele>
        <time>2014-05-16T17:25:47Z</time>
      </trkpt>
      <trkpt lat="59.9270392" lon="17.8374462">
        <ele>20.325</ele>
        <time>2014-05-16T17:25:48Z</time>
      </trkpt>
      <trkpt lat="59.9269895" lon="17.8375077">
        <ele>19.8444</ele>
        <time>2014-05-16T17:25:49Z</time>
      </trkpt>
      <trkpt lat="59.9269396" lon="17.8375647">
        <ele>19.3638</ele>
        <time>2014-05-16T17:25:50Z</time>
      </trkpt>
      <trkpt lat="59.9268864" lon="17.8376142">
        <ele>19.3638</ele>
        <time>2014-05-16T17:25:51Z</time>
      </trkpt>
      <trkpt lat="59.9268295" lon="17.8376591">
        <ele>18.8831</ele>
        <time>2014-05-16T17:25:52Z</time>
      </trkpt>
      <trkpt lat="59.9267694" lon="17.8377004">
        <ele>18.4023</ele>
        <time>2014-05-16T17:25:53Z</time>
      </trkpt>
      <trkpt lat="59.9267077" lon="17.8377456">
        <ele>17.9218</ele>
        <time>2014-05-16T17:25:54Z</time>
      </trkpt>
      <trkpt lat="59.926643" lon="17.8377964">
        <ele>17.9218</ele>
        <time>2014-05-16T17:25:55Z</time>
      </trkpt>
      <trkpt lat="59.9265768" lon="17.8378586">
        <ele>17.4412</ele>
        <time>2014-05-16T17:25:56Z</time>
      </trkpt>
      <trkpt lat="59.9265128" lon="17.8379357">
        <ele>17.4412</ele>
        <time>2014-05-16T17:25:57Z</time>
      </trkpt>
      <trkpt lat="59.9264523" lon="17.83803">
        <ele>16.9604</ele>
        <time>2014-05-16T17:25:58Z</time>
      </trkpt>
      <trkpt lat="59.9263969" lon="17.8381391">
        <ele>16.9604</ele>
        <time>2014-05-16T17:25:59Z</time>
      </trkpt>
      <trkpt lat="59.9263434" lon="17.8382549">
        <ele>16.4797</ele>
        <time>2014-05-16T17:26:00Z</time>
      </trkpt>
      <trkpt lat="59.9262896" lon="17.8383712">
        <ele>16.4797</ele>
        <time>2014-05-16T17:26:01Z</time>
      </trkpt>
      <trkpt lat="59.9262372" lon="17.8384859">
        <ele>16.4797</ele>
        <time>2014-05-16T17:26:02Z</time>
      </trkpt>
      <trkpt lat="59.926185" lon="17.8385993">
        <ele>15.999</ele>
        <time>2014-05-16T17:26:03Z</time>
      </trkpt>
      <trkpt lat="59.9261318" lon="17.8387142">
        <ele>15.999</ele>
        <time>2014-05-16T17:26:04Z</time>
      </trkpt>
      <trkpt lat="59.9260786" lon="17.8388294">
        <ele>15.999</ele>
        <time>2014-05-16T17:26:05Z</time>
      </trkpt>
      <trkpt lat="59.9260241" lon="17.8389424">
        <ele>15.999</ele>
        <time>2014-05-16T17:26:06Z</time>
      </trkpt>
      <trkpt lat="59.9259679" lon="17.8390525">
        <ele>15.999</ele>
        <time>2014-05-16T17:26:07Z</time>
      </trkpt>
      <trkpt lat="59.9259083" lon="17.8391566">
        <ele>15.999</ele>
        <time>2014-05-16T17:26:08Z</time>
      </trkpt>
      <trkpt lat="59.925844" lon="17.8392466">
        <ele>15.999</ele>
        <time>2014-05-16T17:26:09Z</time>
      </trkpt>
      <trkpt lat="59.9257742" lon="17.8393153">
        <ele>16.4797</ele>
        <time>2014-05-16T17:26:10Z</time>
      </trkpt>
      <trkpt lat="59.9257008" lon="17.8393582">
        <ele>16.4797</ele>
        <time>2014-05-16T17:26:11Z</time>
      </trkpt>
      <trkpt lat="59.9256271" lon="17.8393759">
        <ele>16.4797</ele>
        <time>2014-05-16T17:26:12Z</time>
      </trkpt>
      <trkpt lat="59.9255542" lon="17.8393756">
        <ele>16.4797</ele>
        <time>2014-05-16T17:26:13Z</time>
      </trkpt>
      <trkpt lat="59.925483" lon="17.8393661">
        <ele>16.9604</ele>
        <time>2014-05-16T17:26:14Z</time>
      </trkpt>
      <trkpt lat="59.9254135" lon="17.8393552">
        <ele>16.9604</ele>
        <time>2014-05-16T17:26:15Z</time>
      </trkpt>
      <trkpt lat="59.9253457" lon="17.8393477">
        <ele>16.9604</ele>
        <time>2014-05-16T17:26:16Z</time>
      </trkpt>
      <trkpt lat="59.9252792" lon="17.8393425">
        <ele>17.4412</ele>
        <time>2014-05-16T17:26:17Z</time>
      </trkpt>
      <trkpt lat="59.9252131" lon="17.8393383">
        <ele>17.4412</ele>
        <time>2014-05-16T17:26:18Z</time>
      </trkpt>
      <trkpt lat="59.9251469" lon="17.8393363">
        <ele>17.4412</ele>
        <time>2014-05-16T17:26:19Z</time>
      </trkpt>
      <trkpt lat="59.92508" lon="17.8393375">
        <ele>17.4412</ele>
        <time>2014-05-16T17:26:20Z</time>
      </trkpt>
      <trkpt lat="59.9250121" lon="17.8393396">
        <ele>17.4412</ele>
        <time>2014-05-16T17:26:21Z</time>
      </trkpt>
      <trkpt lat="59.9249428" lon="17.8393431">
        <ele>17.4412</ele>
        <time>2014-05-16T17:26:22Z</time>
      </trkpt>
      <trkpt lat="59.9248724" lon="17.8393479">
        <ele>17.4412</ele>
        <time>2014-05-16T17:26:23Z</time>
      </trkpt>
      <trkpt lat="59.9248015" lon="17.8393525">
        <ele>17.4412</ele>
        <time>2014-05-16T17:26:24Z</time>
      </trkpt>
      <trkpt lat="59.92473" lon="17.8393566">
        <ele>17.4412</ele>
        <time>2014-05-16T17:26:25Z</time>
      </trkpt>
      <trkpt lat="59.9246584" lon="17.8393639">
        <ele>17.4412</ele>
        <time>2014-05-16T17:26:26Z</time>
      </trkpt>
      <trkpt lat="59.9245865" lon="17.8393737">
        <ele>17.4412</ele>
        <time>2014-05-16T17:26:27Z</time>
      </trkpt>
      <trkpt lat="59.9245144" lon="17.8393855">
        <ele>16.9604</ele>
        <time>2014-05-16T17:26:28Z</time>
      </trkpt>
      <trkpt lat="59.9244415" lon="17.8394018">
        <ele>16.9604</ele>
        <time>2014-05-16T17:26:29Z</time>
      </trkpt>
      <trkpt lat="59.9243692" lon="17.8394207">
        <ele>16.9604</ele>
        <time>2014-05-16T17:26:30Z</time>
      </trkpt>
      <trkpt lat="59.9242969" lon="17.8394399">
        <ele>16.9604</ele>
        <time>2014-05-16T17:26:31Z</time>
      </trkpt>
      <trkpt lat="59.9242242" lon="17.8394604">
        <ele>16.9604</ele>
        <time>2014-05-16T17:26:32Z</time>
      </trkpt>
      <trkpt lat="59.9241533" lon="17.8394844">
        <ele>16.9604</ele>
        <time>2014-05-16T17:26:33Z</time>
      </trkpt>
      <trkpt lat="59.924082" lon="17.839512">
        <ele>16.9604</ele>
        <time>2014-05-16T17:26:34Z</time>
      </trkpt>
      <trkpt lat="59.9240103" lon="17.8395426">
        <ele>16.9604</ele>
        <time>2014-05-16T17:26:35Z</time>
      </trkpt>
      <trkpt lat="59.9239398" lon="17.8395716">
        <ele>16.9604</ele>
        <time>2014-05-16T17:26:36Z</time>
      </trkpt>
      <trkpt lat="59.9238696" lon="17.8396015">
        <ele>16.9604</ele>
        <time>2014-05-16T17:26:37Z</time>
      </trkpt>
      <trkpt lat="59.9237987" lon="17.8396323">
        <ele>16.4797</ele>
        <time>2014-05-16T17:26:38Z</time>
      </trkpt>
      <trkpt lat="59.9237286" lon="17.8396596">
        <ele>16.4797</ele>
        <time>2014-05-16T17:26:39Z</time>
      </trkpt>
      <trkpt lat="59.9236587" lon="17.8396866">
        <ele>16.4797</ele>
        <time>2014-05-16T17:26:40Z</time>
      </trkpt>
      <trkpt lat="59.9235892" lon="17.8397178">
        <ele>16.4797</ele>
        <time>2014-05-16T17:26:41Z</time>
      </trkpt>
      <trkpt lat="59.9235194" lon="17.8397525">
        <ele>16.4797</ele>
        <time>2014-05-16T17:26:42Z</time>
      </trkpt>
      <trkpt lat="59.9234494" lon="17.8397881">
        <ele>16.4797</ele>
        <time>2014-05-16T17:26:43Z</time>
      </trkpt>
      <trkpt lat="59.9233795" lon="17.8398256">
        <ele>16.4797</ele>
        <time>2014-05-16T17:26:44Z</time>
      </trkpt>
      <trkpt lat="59.923311" lon="17.8398655">
        <ele>16.4797</ele>
        <time>2014-05-16T17:26:45Z</time>
      </trkpt>
      <trkpt lat="59.9232421" lon="17.8399042">
        <ele>16.4797</ele>
        <time>2014-05-16T17:26:46Z</time>
      </trkpt>
      <trkpt lat="59.9231734" lon="17.8399423">
        <ele>16.4797</ele>
        <time>2014-05-16T17:26:47Z</time>
      </trkpt>
      <trkpt lat="59.9231061" lon="17.8399803">
        <ele>16.4797</ele>
        <time>2014-05-16T17:26:48Z</time>
      </trkpt>
      <trkpt lat="59.9230397" lon="17.8400195">
        <ele>16.4797</ele>
        <time>2014-05-16T17:26:49Z</time>
      </trkpt>
      <trkpt lat="59.9229734" lon="17.8400569">
        <ele>16.4797</ele>
        <time>2014-05-16T17:26:50Z</time>
      </trkpt>
      <trkpt lat="59.9229079" lon="17.8400917">
        <ele>16.9604</ele>
        <time>2014-05-16T17:26:51Z</time>
      </trkpt>
      <trkpt lat="59.9228428" lon="17.8401269">
        <ele>16.9604</ele>
        <time>2014-05-16T17:26:52Z</time>
      </trkpt>
      <trkpt lat="59.9227782" lon="17.8401611">
        <ele>16.9604</ele>
        <time>2014-05-16T17:26:53Z</time>
      </trkpt>
      <trkpt lat="59.922714" lon="17.8401953">
        <ele>16.4797</ele>
        <time>2014-05-16T17:26:54Z</time>
      </trkpt>
      <trkpt lat="59.9226503" lon="17.84023">
        <ele>16.4797</ele>
        <time>2014-05-16T17:26:55Z</time>
      </trkpt>
      <trkpt lat="59.9225864" lon="17.840263">
        <ele>16.4797</ele>
        <time>2014-05-16T17:26:56Z</time>
      </trkpt>
      <trkpt lat="59.9225227" lon="17.8402942">
        <ele>16.4797</ele>
        <time>2014-05-16T17:26:57Z</time>
      </trkpt>
      <trkpt lat="59.922459" lon="17.8403259">
        <ele>16.4797</ele>
        <time>2014-05-16T17:26:58Z</time>
      </trkpt>
      <trkpt lat="59.9223958" lon="17.8403572">
        <ele>16.4797</ele>
        <time>2014-05-16T17:26:59Z</time>
      </trkpt>
      <trkpt lat="59.9223316" lon="17.840384">
        <ele>16.4797</ele>
        <time>2014-05-16T17:27:00Z</time>
      </trkpt>
      <trkpt lat="59.9222676" lon="17.8404065">
        <ele>16.4797</ele>
        <time>2014-05-16T17:27:01Z</time>
      </trkpt>
      <trkpt lat="59.922205" lon="17.8404269">
        <ele>16.4797</ele>
        <time>2014-05-16T17:27:02Z</time>
      </trkpt>
      <trkpt lat="59.9221428" lon="17.8404466">
        <ele>16.4797</ele>
        <time>2014-05-16T17:27:03Z</time>
      </trkpt>
      <trkpt lat="59.9220807" lon="17.8404642">
        <ele>16.4797</ele>
        <time>2014-05-16T17:27:04Z</time>
      </trkpt>
      <trkpt lat="59.9220193" lon="17.8404813">
        <ele>15.999</ele>
        <time>2014-05-16T17:27:05Z</time>
      </trkpt>
      <trkpt lat="59.9219581" lon="17.8404987">
        <ele>15.999</ele>
        <time>2014-05-16T17:27:06Z</time>
      </trkpt>
      <trkpt lat="59.9218975" lon="17.8405144">
        <ele>15.999</ele>
        <time>2014-05-16T17:27:07Z</time>
      </trkpt>
      <trkpt lat="59.9218382" lon="17.8405299">
        <ele>15.999</ele>
        <time>2014-05-16T17:27:08Z</time>
      </trkpt>
      <trkpt lat="59.9217786" lon="17.8405459">
        <ele>15.999</ele>
        <time>2014-05-16T17:27:09Z</time>
      </trkpt>
      <trkpt lat="59.9217193" lon="17.8405621">
        <ele>15.999</ele>
        <time>2014-05-16T17:27:10Z</time>
      </trkpt>
      <trkpt lat="59.9216605" lon="17.8405781">
        <ele>15.999</ele>
        <time>2014-05-16T17:27:11Z</time>
      </trkpt>
      <trkpt lat="59.9216012" lon="17.8405931">
        <ele>15.999</ele>
        <time>2014-05-16T17:27:12Z</time>
      </trkpt>
      <trkpt lat="59.9215421" lon="17.8406072">
        <ele>15.999</ele>
        <time>2014-05-16T17:27:13Z</time>
      </trkpt>
      <trkpt lat="59.9214835" lon="17.8406201">
        <ele>15.999</ele>
        <time>2014-05-16T17:27:14Z</time>
      </trkpt>
      <trkpt lat="59.9214245" lon="17.8406311">
        <ele>15.999</ele>
        <time>2014-05-16T17:27:15Z</time>
      </trkpt>
      <trkpt lat="59.9213655" lon="17.8406406">
        <ele>15.999</ele>
        <time>2014-05-16T17:27:16Z</time>
      </trkpt>
      <trkpt lat="59.9213075" lon="17.8406492">
        <ele>15.999</ele>
        <time>2014-05-16T17:27:17Z</time>
      </trkpt>
      <trkpt lat="59.9212499" lon="17.8406568">
        <ele>15.999</ele>
        <time>2014-05-16T17:27:18Z</time>
      </trkpt>
      <trkpt lat="59.9211924" lon="17.8406615">
        <ele>15.999</ele>
        <time>2014-05-16T17:27:19Z</time>
      </trkpt>
      <trkpt lat="59.9211346" lon="17.8406641">
        <ele>16.4797</ele>
        <time>2014-05-16T17:27:20Z</time>
      </trkpt>
      <trkpt lat="59.9210779" lon="17.840666">
        <ele>16.4797</ele>
        <time>2014-05-16T17:27:21Z</time>
      </trkpt>
      <trkpt lat="59.9210223" lon="17.8406676">
        <ele>16.4797</ele>
        <time>2014-05-16T17:27:22Z</time>
      </trkpt>
      <trkpt lat="59.9209681" lon="17.8406691">
        <ele>16.4797</ele>
        <time>2014-05-16T17:27:23Z</time>
      </trkpt>
      <trkpt lat="59.9209142" lon="17.8406709">
        <ele>16.4797</ele>
        <time>2014-05-16T17:27:24Z</time>
      </trkpt>
      <trkpt lat="59.9208599" lon="17.8406734">
        <ele>16.4797</ele>
        <time>2014-05-16T17:27:25Z</time>
      </trkpt>
      <trkpt lat="59.9208064" lon="17.8406765">
        <ele>16.4797</ele>
        <time>2014-05-16T17:27:26Z</time>
      </trkpt>
      <trkpt lat="59.9207527" lon="17.8406797">
        <ele>16.4797</ele>
        <time>2014-05-16T17:27:27Z</time>
      </trkpt>
      <trkpt lat="59.9206988" lon="17.8406833">
        <ele>16.4797</ele>
        <time>2014-05-16T17:27:28Z</time>
      </trkpt>
      <trkpt lat="59.9206449" lon="17.8406869">
        <ele>16.4797</ele>
        <time>2014-05-16T17:27:29Z</time>
      </trkpt>
      <trkpt lat="59.9205916" lon="17.8406916">
        <ele>16.4797</ele>
        <time>2014-05-16T17:27:30Z</time>
      </trkpt>
      <trkpt lat="59.9205387" lon="17.8406951">
        <ele>16.4797</ele>
        <time>2014-05-16T17:27:31Z</time>
      </trkpt>
      <trkpt lat="59.9204863" lon="17.8406962">
        <ele>16.4797</ele>
        <time>2014-05-16T17:27:32Z</time>
      </trkpt>
      <trkpt lat="59.9204349" lon="17.8406976">
        <ele>16.9604</ele>
        <time>2014-05-16T17:27:33Z</time>
      </trkpt>
      <trkpt lat="59.9203879" lon="17.8406998">
        <ele>16.4797</ele>
        <time>2014-05-16T17:27:34Z</time>
      </trkpt>
      <trkpt lat="59.9203424" lon="17.8407039">
        <ele>16.4797</ele>
        <time>2014-05-16T17:27:35Z</time>
      </trkpt>
      <trkpt lat="59.9202942" lon="17.8407034">
        <ele>16.4797</ele>
        <time>2014-05-16T17:27:36Z</time>
      </trkpt>
      <trkpt lat="59.9202441" lon="17.8407019">
        <ele>16.4797</ele>
        <time>2014-05-16T17:27:37Z</time>
      </trkpt>
      <trkpt lat="59.9201942" lon="17.8407004">
        <ele>16.4797</ele>
        <time>2014-05-16T17:27:38Z</time>
      </trkpt>
      <trkpt lat="59.9201434" lon="17.8406988">
        <ele>16.4797</ele>
        <time>2014-05-16T17:27:39Z</time>
      </trkpt>
      <trkpt lat="59.9200871" lon="17.8406973">
        <ele>16.4797</ele>
        <time>2014-05-16T17:27:40Z</time>
      </trkpt>
      <trkpt lat="59.92003" lon="17.8406974">
        <ele>16.4797</ele>
        <time>2014-05-16T17:27:41Z</time>
      </trkpt>
      <trkpt lat="59.9199739" lon="17.8406999">
        <ele>16.4797</ele>
        <time>2014-05-16T17:27:42Z</time>
      </trkpt>
      <trkpt lat="59.9199181" lon="17.8407043">
        <ele>16.4797</ele>
        <time>2014-05-16T17:27:43Z</time>
      </trkpt>
      <trkpt lat="59.9198617" lon="17.840711">
        <ele>15.999</ele>
        <time>2014-05-16T17:27:44Z</time>
      </trkpt>
      <trkpt lat="59.9198047" lon="17.840723">
        <ele>15.999</ele>
        <time>2014-05-16T17:27:45Z</time>
      </trkpt>
      <trkpt lat="59.9197477" lon="17.8407406">
        <ele>15.999</ele>
        <time>2014-05-16T17:27:46Z</time>
      </trkpt>
      <trkpt lat="59.9196898" lon="17.840761">
        <ele>15.999</ele>
        <time>2014-05-16T17:27:47Z</time>
      </trkpt>
      <trkpt lat="59.9196321" lon="17.8407848">
        <ele>15.5184</ele>
        <time>2014-05-16T17:27:48Z</time>
      </trkpt>
      <trkpt lat="59.9195742" lon="17.8408141">
        <ele>15.5184</ele>
        <time>2014-05-16T17:27:49Z</time>
      </trkpt>
      <trkpt lat="59.9195168" lon="17.8408475">
        <ele>15.5184</ele>
        <time>2014-05-16T17:27:50Z</time>
      </trkpt>
      <trkpt lat="59.9194588" lon="17.8408823">
        <ele>15.0377</ele>
        <time>2014-05-16T17:27:51Z</time>
      </trkpt>
      <trkpt lat="59.9194007" lon="17.8409186">
        <ele>15.0377</ele>
        <time>2014-05-16T17:27:52Z</time>
      </trkpt>
      <trkpt lat="59.9193428" lon="17.8409569">
        <ele>15.0377</ele>
        <time>2014-05-16T17:27:53Z</time>
      </trkpt>
      <trkpt lat="59.9192846" lon="17.8409955">
        <ele>15.0377</ele>
        <time>2014-05-16T17:27:54Z</time>
      </trkpt>
      <trkpt lat="59.9192261" lon="17.8410345">
        <ele>15.0377</ele>
        <time>2014-05-16T17:27:55Z</time>
      </trkpt>
      <trkpt lat="59.9191681" lon="17.8410759">
        <ele>15.0377</ele>
        <time>2014-05-16T17:27:56Z</time>
      </trkpt>
      <trkpt lat="59.9191099" lon="17.8411184">
        <ele>15.0377</ele>
        <time>2014-05-16T17:27:57Z</time>
      </trkpt>
      <trkpt lat="59.9190503" lon="17.8411591">
        <ele>15.0377</ele>
        <time>2014-05-16T17:27:58Z</time>
      </trkpt>
      <trkpt lat="59.9189903" lon="17.8411996">
        <ele>15.0377</ele>
        <time>2014-05-16T17:27:59Z</time>
      </trkpt>
      <trkpt lat="59.9189307" lon="17.8412426">
        <ele>15.0377</ele>
        <time>2014-05-16T17:28:00Z</time>
      </trkpt>
      <trkpt lat="59.9188713" lon="17.8412868">
        <ele>15.0377</ele>
        <time>2014-05-16T17:28:01Z</time>
      </trkpt>
      <trkpt lat="59.9188111" lon="17.8413286">
        <ele>15.0377</ele>
        <time>2014-05-16T17:28:02Z</time>
      </trkpt>
      <trkpt lat="59.9187506" lon="17.8413712">
        <ele>15.0377</ele>
        <time>2014-05-16T17:28:03Z</time>
      </trkpt>
      <trkpt lat="59.9186905" lon="17.8414171">
        <ele>15.0377</ele>
        <time>2014-05-16T17:28:04Z</time>
      </trkpt>
      <trkpt lat="59.9186309" lon="17.8414649">
        <ele>15.0377</ele>
        <time>2014-05-16T17:28:05Z</time>
      </trkpt>
      <trkpt lat="59.9185708" lon="17.8415158">
        <ele>15.0377</ele>
        <time>2014-05-16T17:28:06Z</time>
      </trkpt>
      <trkpt lat="59.9185107" lon="17.8415692">
        <ele>15.0377</ele>
        <time>2014-05-16T17:28:07Z</time>
      </trkpt>
      <trkpt lat="59.9184513" lon="17.841623">
        <ele>15.0377</ele>
        <time>2014-05-16T17:28:08Z</time>
      </trkpt>
      <trkpt lat="59.9183927" lon="17.841678">
        <ele>15.0377</ele>
        <time>2014-05-16T17:28:09Z</time>
      </trkpt>
      <trkpt lat="59.9183352" lon="17.8417333">
        <ele>15.5184</ele>
        <time>2014-05-16T17:28:10Z</time>
      </trkpt>
      <trkpt lat="59.9182787" lon="17.8417873">
        <ele>15.5184</ele>
        <time>2014-05-16T17:28:11Z</time>
      </trkpt>
      <trkpt lat="59.9182232" lon="17.8418411">
        <ele>15.5184</ele>
        <time>2014-05-16T17:28:12Z</time>
      </trkpt>
      <trkpt lat="59.9181683" lon="17.8418955">
        <ele>15.999</ele>
        <time>2014-05-16T17:28:13Z</time>
      </trkpt>
      <trkpt lat="59.9181145" lon="17.8419512">
        <ele>15.999</ele>
        <time>2014-05-16T17:28:14Z</time>
      </trkpt>
      <trkpt lat="59.9180621" lon="17.8420048">
        <ele>15.999</ele>
        <time>2014-05-16T17:28:15Z</time>
      </trkpt>
      <trkpt lat="59.9180097" lon="17.8420586">
        <ele>16.4797</ele>
        <time>2014-05-16T17:28:16Z</time>
      </trkpt>
      <trkpt lat="59.9179574" lon="17.8421138">
        <ele>16.4797</ele>
        <time>2014-05-16T17:28:17Z</time>
      </trkpt>
      <trkpt lat="59.917905" lon="17.84217">
        <ele>16.4797</ele>
        <time>2014-05-16T17:28:18Z</time>
      </trkpt>
      <trkpt lat="59.9178527" lon="17.8422271">
        <ele>16.9604</ele>
        <time>2014-05-16T17:28:19Z</time>
      </trkpt>
      <trkpt lat="59.9178005" lon="17.8422829">
        <ele>16.9604</ele>
        <time>2014-05-16T17:28:20Z</time>
      </trkpt>
      <trkpt lat="59.9177493" lon="17.8423373">
        <ele>17.4412</ele>
        <time>2014-05-16T17:28:21Z</time>
      </trkpt>
      <trkpt lat="59.9176985" lon="17.8423902">
        <ele>17.4412</ele>
        <time>2014-05-16T17:28:22Z</time>
      </trkpt>
      <trkpt lat="59.9176477" lon="17.8424393">
        <ele>17.4412</ele>
        <time>2014-05-16T17:28:23Z</time>
      </trkpt>
      <trkpt lat="59.917598" lon="17.842487">
        <ele>17.4412</ele>
        <time>2014-05-16T17:28:24Z</time>
      </trkpt>
      <trkpt lat="59.9175465" lon="17.8425331">
        <ele>16.9604</ele>
        <time>2014-05-16T17:28:25Z</time>
      </trkpt>
      <trkpt lat="59.9174937" lon="17.8425785">
        <ele>16.9604</ele>
        <time>2014-05-16T17:28:26Z</time>
      </trkpt>
      <trkpt lat="59.9174388" lon="17.8426251">
        <ele>16.4797</ele>
        <time>2014-05-16T17:28:27Z</time>
      </trkpt>
      <trkpt lat="59.9173821" lon="17.8426709">
        <ele>16.4797</ele>
        <time>2014-05-16T17:28:28Z</time>
      </trkpt>
      <trkpt lat="59.9173255" lon="17.8427175">
        <ele>16.4797</ele>
        <time>2014-05-16T17:28:29Z</time>
      </trkpt>
      <trkpt lat="59.9172699" lon="17.8427632">
        <ele>15.999</ele>
        <time>2014-05-16T17:28:30Z</time>
      </trkpt>
      <trkpt lat="59.9172147" lon="17.8428097">
        <ele>15.999</ele>
        <time>2014-05-16T17:28:31Z</time>
      </trkpt>
      <trkpt lat="59.9171598" lon="17.8428553">
        <ele>15.999</ele>
        <time>2014-05-16T17:28:32Z</time>
      </trkpt>
      <trkpt lat="59.9171058" lon="17.8428983">
        <ele>15.999</ele>
        <time>2014-05-16T17:28:33Z</time>
      </trkpt>
      <trkpt lat="59.9170523" lon="17.8429396">
        <ele>15.999</ele>
        <time>2014-05-16T17:28:34Z</time>
      </trkpt>
      <trkpt lat="59.9169981" lon="17.8429716">
        <ele>15.999</ele>
        <time>2014-05-16T17:28:35Z</time>
      </trkpt>
      <trkpt lat="59.9169427" lon="17.8429822">
        <ele>15.999</ele>
        <time>2014-05-16T17:28:36Z</time>
      </trkpt>
      <trkpt lat="59.9168871" lon="17.8429661">
        <ele>15.999</ele>
        <time>2014-05-16T17:28:37Z</time>
      </trkpt>
      <trkpt lat="59.9168329" lon="17.8429242">
        <ele>15.999</ele>
        <time>2014-05-16T17:28:38Z</time>
      </trkpt>
      <trkpt lat="59.9167822" lon="17.8428614">
        <ele>15.5184</ele>
        <time>2014-05-16T17:28:39Z</time>
      </trkpt>
      <trkpt lat="59.9167333" lon="17.8427865">
        <ele>15.0377</ele>
        <time>2014-05-16T17:28:40Z</time>
      </trkpt>
      <trkpt lat="59.9166838" lon="17.8427072">
        <ele>15.0377</ele>
        <time>2014-05-16T17:28:41Z</time>
      </trkpt>
      <trkpt lat="59.9166335" lon="17.8426257">
        <ele>14.557</ele>
        <time>2014-05-16T17:28:42Z</time>
      </trkpt>
      <trkpt lat="59.916582" lon="17.8425423">
        <ele>14.557</ele>
        <time>2014-05-16T17:28:43Z</time>
      </trkpt>
      <trkpt lat="59.9165305" lon="17.842459">
        <ele>14.557</ele>
        <time>2014-05-16T17:28:44Z</time>
      </trkpt>
      <trkpt lat="59.9164796" lon="17.8423777">
        <ele>14.0764</ele>
        <time>2014-05-16T17:28:45Z</time>
      </trkpt>
      <trkpt lat="59.91643" lon="17.8422965">
        <ele>13.5958</ele>
        <time>2014-05-16T17:28:46Z</time>
      </trkpt>
      <trkpt lat="59.9163801" lon="17.842215">
        <ele>13.1151</ele>
        <time>2014-05-16T17:28:47Z</time>
      </trkpt>
      <trkpt lat="59.916329" lon="17.8421336">
        <ele>12.6344</ele>
        <time>2014-05-16T17:28:48Z</time>
      </trkpt>
      <trkpt lat="59.9162771" lon="17.8420533">
        <ele>12.1538</ele>
        <time>2014-05-16T17:28:49Z</time>
      </trkpt>
      <trkpt lat="59.9162227" lon="17.8419774">
        <ele>12.1538</ele>
        <time>2014-05-16T17:28:50Z</time>
      </trkpt>
      <trkpt lat="59.9161648" lon="17.8419118">
        <ele>11.6732</ele>
        <time>2014-05-16T17:28:51Z</time>
      </trkpt>
      <trkpt lat="59.9161039" lon="17.8418582">
        <ele>11.1925</ele>
        <time>2014-05-16T17:28:52Z</time>
      </trkpt>
      <trkpt lat="59.9160398" lon="17.8418183">
        <ele>10.7118</ele>
        <time>2014-05-16T17:28:53Z</time>
      </trkpt>
      <trkpt lat="59.915973" lon="17.8417924">
        <ele>10.7118</ele>
        <time>2014-05-16T17:28:54Z</time>
      </trkpt>
      <trkpt lat="59.9159036" lon="17.8417788">
        <ele>10.2312</ele>
        <time>2014-05-16T17:28:55Z</time>
      </trkpt>
      <trkpt lat="59.9158342" lon="17.841772">
        <ele>10.2312</ele>
        <time>2014-05-16T17:28:56Z</time>
      </trkpt>
      <trkpt lat="59.9157663" lon="17.8417669">
        <ele>9.75061</ele>
        <time>2014-05-16T17:28:57Z</time>
      </trkpt>
      <trkpt lat="59.9156998" lon="17.8417647">
        <ele>9.2699</ele>
        <time>2014-05-16T17:28:58Z</time>
      </trkpt>
      <trkpt lat="59.9156312" lon="17.8417606">
        <ele>9.2699</ele>
        <time>2014-05-16T17:28:59Z</time>
      </trkpt>
      <trkpt lat="59.9155613" lon="17.8417545">
        <ele>9.2699</ele>
        <time>2014-05-16T17:29:00Z</time>
      </trkpt>
      <trkpt lat="59.9154907" lon="17.8417462">
        <ele>9.2699</ele>
        <time>2014-05-16T17:29:01Z</time>
      </trkpt>
      <trkpt lat="59.9154198" lon="17.8417398">
        <ele>9.2699</ele>
        <time>2014-05-16T17:29:02Z</time>
      </trkpt>
      <trkpt lat="59.9153486" lon="17.8417281">
        <ele>9.2699</ele>
        <time>2014-05-16T17:29:03Z</time>
      </trkpt>
      <trkpt lat="59.9152766" lon="17.8417172">
        <ele>10.2312</ele>
        <time>2014-05-16T17:29:04Z</time>
      </trkpt>
      <trkpt lat="59.9152063" lon="17.8417139">
        <ele>10.2312</ele>
        <time>2014-05-16T17:29:05Z</time>
      </trkpt>
      <trkpt lat="59.9151374" lon="17.8417233">
        <ele>9.75061</ele>
        <time>2014-05-16T17:29:06Z</time>
      </trkpt>
      <trkpt lat="59.915069" lon="17.8417375">
        <ele>9.75061</ele>
        <time>2014-05-16T17:29:07Z</time>
      </trkpt>
      <trkpt lat="59.9150015" lon="17.8417611">
        <ele>9.75061</ele>
        <time>2014-05-16T17:29:08Z</time>
      </trkpt>
      <trkpt lat="59.9149331" lon="17.8417868">
        <ele>9.75061</ele>
        <time>2014-05-16T17:29:09Z</time>
      </trkpt>
      <trkpt lat="59.9148658" lon="17.8418206">
        <ele>9.2699</ele>
        <time>2014-05-16T17:29:10Z</time>
      </trkpt>
      <trkpt lat="59.9147972" lon="17.8418592">
        <ele>9.2699</ele>
        <time>2014-05-16T17:29:11Z</time>
      </trkpt>
      <trkpt lat="59.9147293" lon="17.8419052">
        <ele>8.78918</ele>
        <time>2014-05-16T17:29:12Z</time>
      </trkpt>
      <trkpt lat="59.9146624" lon="17.8419591">
        <ele>8.78918</ele>
        <time>2014-05-16T17:29:13Z</time>
      </trkpt>
      <trkpt lat="59.9145941" lon="17.8420208">
        <ele>9.2699</ele>
        <time>2014-05-16T17:29:14Z</time>
      </trkpt>
      <trkpt lat="59.9145279" lon="17.8420928">
        <ele>9.2699</ele>
        <time>2014-05-16T17:29:15Z</time>
      </trkpt>
      <trkpt lat="59.9144639" lon="17.8421722">
        <ele>9.2699</ele>
        <time>2014-05-16T17:29:16Z</time>
      </trkpt>
      <trkpt lat="59.9144003" lon="17.8422544">
        <ele>9.2699</ele>
        <time>2014-05-16T17:29:17Z</time>
      </trkpt>
      <trkpt lat="59.9143367" lon="17.842334">
        <ele>9.2699</ele>
        <time>2014-05-16T17:29:18Z</time>
      </trkpt>
      <trkpt lat="59.9142743" lon="17.8424093">
        <ele>9.2699</ele>
        <time>2014-05-16T17:29:19Z</time>
      </trkpt>
      <trkpt lat="59.9142103" lon="17.8424822">
        <ele>9.2699</ele>
        <time>2014-05-16T17:29:20Z</time>
      </trkpt>
      <trkpt lat="59.9141438" lon="17.8425503">
        <ele>9.75061</ele>
        <time>2014-05-16T17:29:21Z</time>
      </trkpt>
      <trkpt lat="59.9140756" lon="17.8426173">
        <ele>9.75061</ele>
        <time>2014-05-16T17:29:22Z</time>
      </trkpt>
      <trkpt lat="59.9140073" lon="17.8426859">
        <ele>9.75061</ele>
        <time>2014-05-16T17:29:23Z</time>
      </trkpt>
      <trkpt lat="59.9139397" lon="17.8427527">
        <ele>9.75061</ele>
        <time>2014-05-16T17:29:24Z</time>
      </trkpt>
      <trkpt lat="59.9138725" lon="17.8428145">
        <ele>9.75061</ele>
        <time>2014-05-16T17:29:25Z</time>
      </trkpt>
      <trkpt lat="59.9138057" lon="17.842873">
        <ele>10.2312</ele>
        <time>2014-05-16T17:29:26Z</time>
      </trkpt>
      <trkpt lat="59.9137396" lon="17.8429298">
        <ele>10.2312</ele>
        <time>2014-05-16T17:29:27Z</time>
      </trkpt>
      <trkpt lat="59.9136739" lon="17.8429832">
        <ele>10.2312</ele>
        <time>2014-05-16T17:29:28Z</time>
      </trkpt>
      <trkpt lat="59.9136088" lon="17.8430323">
        <ele>10.2312</ele>
        <time>2014-05-16T17:29:29Z</time>
      </trkpt>
      <trkpt lat="59.9135433" lon="17.843076">
        <ele>10.2312</ele>
        <time>2014-05-16T17:29:30Z</time>
      </trkpt>
      <trkpt lat="59.9134771" lon="17.843112">
        <ele>10.2312</ele>
        <time>2014-05-16T17:29:31Z</time>
      </trkpt>
      <trkpt lat="59.9134109" lon="17.8431416">
        <ele>10.7118</ele>
        <time>2014-05-16T17:29:32Z</time>
      </trkpt>
      <trkpt lat="59.9133456" lon="17.8431669">
        <ele>10.7118</ele>
        <time>2014-05-16T17:29:33Z</time>
      </trkpt>
      <trkpt lat="59.9132809" lon="17.8431888">
        <ele>10.7118</ele>
        <time>2014-05-16T17:29:34Z</time>
      </trkpt>
      <trkpt lat="59.9132186" lon="17.8432074">
        <ele>11.1925</ele>
        <time>2014-05-16T17:29:35Z</time>
      </trkpt>
      <trkpt lat="59.913158" lon="17.8432234">
        <ele>11.1925</ele>
        <time>2014-05-16T17:29:36Z</time>
      </trkpt>
      <trkpt lat="59.9130986" lon="17.8432386">
        <ele>11.6732</ele>
        <time>2014-05-16T17:29:37Z</time>
      </trkpt>
      <trkpt lat="59.9130414" lon="17.8432524">
        <ele>11.6732</ele>
        <time>2014-05-16T17:29:38Z</time>
      </trkpt>
      <trkpt lat="59.9129859" lon="17.8432665">
        <ele>11.6732</ele>
        <time>2014-05-16T17:29:39Z</time>
      </trkpt>
      <trkpt lat="59.9129326" lon="17.8432826">
        <ele>12.1538</ele>
        <time>2014-05-16T17:29:40Z</time>
      </trkpt>
      <trkpt lat="59.912881" lon="17.8432998">
        <ele>12.1538</ele>
        <time>2014-05-16T17:29:41Z</time>
      </trkpt>
      <trkpt lat="59.9128305" lon="17.8433188">
        <ele>12.1538</ele>
        <time>2014-05-16T17:29:42Z</time>
      </trkpt>
      <trkpt lat="59.912781" lon="17.8433417">
        <ele>12.1538</ele>
        <time>2014-05-16T17:29:43Z</time>
      </trkpt>
      <trkpt lat="59.9127323" lon="17.8433674">
        <ele>12.6344</ele>
        <time>2014-05-16T17:29:44Z</time>
      </trkpt>
      <trkpt lat="59.9126852" lon="17.843396">
        <ele>12.6344</ele>
        <time>2014-05-16T17:29:45Z</time>
      </trkpt>
      <trkpt lat="59.9126385" lon="17.8434293">
        <ele>13.1151</ele>
        <time>2014-05-16T17:29:46Z</time>
      </trkpt>
      <trkpt lat="59.9125915" lon="17.8434684">
        <ele>13.1151</ele>
        <time>2014-05-16T17:29:47Z</time>
      </trkpt>
      <trkpt lat="59.9125454" lon="17.8435115">
        <ele>13.1151</ele>
        <time>2014-05-16T17:29:48Z</time>
      </trkpt>
      <trkpt lat="59.9124998" lon="17.8435582">
        <ele>13.1151</ele>
        <time>2014-05-16T17:29:49Z</time>
      </trkpt>
      <trkpt lat="59.9124542" lon="17.8436089">
        <ele>13.1151</ele>
        <time>2014-05-16T17:29:50Z</time>
      </trkpt>
      <trkpt lat="59.9124073" lon="17.8436597">
        <ele>12.6344</ele>
        <time>2014-05-16T17:29:51Z</time>
      </trkpt>
      <trkpt lat="59.9123594" lon="17.8437085">
        <ele>12.6344</ele>
        <time>2014-05-16T17:29:52Z</time>
      </trkpt>
      <trkpt lat="59.9123108" lon="17.8437591">
        <ele>12.1538</ele>
        <time>2014-05-16T17:29:53Z</time>
      </trkpt>
      <trkpt lat="59.9122616" lon="17.84381">
        <ele>12.1538</ele>
        <time>2014-05-16T17:29:54Z</time>
      </trkpt>
      <trkpt lat="59.9122107" lon="17.8438605">
        <ele>11.6732</ele>
        <time>2014-05-16T17:29:55Z</time>
      </trkpt>
      <trkpt lat="59.9121573" lon="17.8439155">
        <ele>11.1925</ele>
        <time>2014-05-16T17:29:56Z</time>
      </trkpt>
      <trkpt lat="59.9121018" lon="17.8439669">
        <ele>10.2312</ele>
        <time>2014-05-16T17:29:57Z</time>
      </trkpt>
      <trkpt lat="59.9120438" lon="17.8440146">
        <ele>10.2312</ele>
        <time>2014-05-16T17:29:58Z</time>
      </trkpt>
      <trkpt lat="59.9119836" lon="17.8440576">
        <ele>10.2312</ele>
        <time>2014-05-16T17:29:59Z</time>
      </trkpt>
      <trkpt lat="59.9119223" lon="17.8440964">
        <ele>9.75061</ele>
        <time>2014-05-16T17:30:00Z</time>
      </trkpt>
      <trkpt lat="59.9118608" lon="17.8441291">
        <ele>9.2699</ele>
        <time>2014-05-16T17:30:01Z</time>
      </trkpt>
      <trkpt lat="59.911799" lon="17.8441537">
        <ele>9.2699</ele>
        <time>2014-05-16T17:30:02Z</time>
      </trkpt>
      <trkpt lat="59.9117366" lon="17.8441734">
        <ele>9.2699</ele>
        <time>2014-05-16T17:30:03Z</time>
      </trkpt>
      <trkpt lat="59.9116731" lon="17.8441857">
        <ele>9.2699</ele>
        <time>2014-05-16T17:30:04Z</time>
      </trkpt>
      <trkpt lat="59.9116088" lon="17.844195">
        <ele>8.78918</ele>
        <time>2014-05-16T17:30:05Z</time>
      </trkpt>
      <trkpt lat="59.9115433" lon="17.8442006">
        <ele>9.2699</ele>
        <time>2014-05-16T17:30:06Z</time>
      </trkpt>
      <trkpt lat="59.9114775" lon="17.8442021">
        <ele>9.2699</ele>
        <time>2014-05-16T17:30:07Z</time>
      </trkpt>
      <trkpt lat="59.9114119" lon="17.8442021">
        <ele>9.2699</ele>
        <time>2014-05-16T17:30:08Z</time>
      </trkpt>
      <trkpt lat="59.9113461" lon="17.8442002">
        <ele>9.2699</ele>
        <time>2014-05-16T17:30:09Z</time>
      </trkpt>
      <trkpt lat="59.9112803" lon="17.8441965">
        <ele>9.2699</ele>
        <time>2014-05-16T17:30:10Z</time>
      </trkpt>
      <trkpt lat="59.9112152" lon="17.8441906">
        <ele>9.75061</ele>
        <time>2014-05-16T17:30:11Z</time>
      </trkpt>
      <trkpt lat="59.9111503" lon="17.8441819">
        <ele>9.75061</ele>
        <time>2014-05-16T17:30:12Z</time>
      </trkpt>
      <trkpt lat="59.911086" lon="17.8441673">
        <ele>9.75061</ele>
        <time>2014-05-16T17:30:13Z</time>
      </trkpt>
      <trkpt lat="59.9110235" lon="17.8441431">
        <ele>10.2312</ele>
        <time>2014-05-16T17:30:14Z</time>
      </trkpt>
      <trkpt lat="59.9109639" lon="17.8441128">
        <ele>10.2312</ele>
        <time>2014-05-16T17:30:15Z</time>
      </trkpt>
      <trkpt lat="59.9109078" lon="17.8440777">
        <ele>10.7118</ele>
        <time>2014-05-16T17:30:16Z</time>
      </trkpt>
      <trkpt lat="59.910853" lon="17.8440385">
        <ele>10.7118</ele>
        <time>2014-05-16T17:30:17Z</time>
      </trkpt>
      <trkpt lat="59.9107996" lon="17.8439953">
        <ele>11.1925</ele>
        <time>2014-05-16T17:30:18Z</time>
      </trkpt>
      <trkpt lat="59.9107504" lon="17.8439528">
        <ele>11.1925</ele>
        <time>2014-05-16T17:30:19Z</time>
      </trkpt>
      <trkpt lat="59.9107002" lon="17.8439134">
        <ele>11.1925</ele>
        <time>2014-05-16T17:30:20Z</time>
      </trkpt>
      <trkpt lat="59.9106551" lon="17.8438736">
        <ele>11.1925</ele>
        <time>2014-05-16T17:30:21Z</time>
      </trkpt>
      <trkpt lat="59.9106093" lon="17.8438321">
        <ele>11.6732</ele>
        <time>2014-05-16T17:30:22Z</time>
      </trkpt>
      <trkpt lat="59.9105629" lon="17.8437907">
        <ele>11.6732</ele>
        <time>2014-05-16T17:30:23Z</time>
      </trkpt>
      <trkpt lat="59.9105172" lon="17.843753">
        <ele>11.6732</ele>
        <time>2014-05-16T17:30:24Z</time>
      </trkpt>
      <trkpt lat="59.9104718" lon="17.8437184">
        <ele>11.1925</ele>
        <time>2014-05-16T17:30:25Z</time>
      </trkpt>
      <trkpt lat="59.9104216" lon="17.8436815">
        <ele>11.6732</ele>
        <time>2014-05-16T17:30:26Z</time>
      </trkpt>
      <trkpt lat="59.9103772" lon="17.8436508">
        <ele>11.1925</ele>
        <time>2014-05-16T17:30:27Z</time>
      </trkpt>
      <trkpt lat="59.9103351" lon="17.8436125">
        <ele>11.1925</ele>
        <time>2014-05-16T17:30:28Z</time>
      </trkpt>
      <trkpt lat="59.9102899" lon="17.8435691">
        <ele>11.1925</ele>
        <time>2014-05-16T17:30:29Z</time>
      </trkpt>
      <trkpt lat="59.910242" lon="17.8435271">
        <ele>11.6732</ele>
        <time>2014-05-16T17:30:30Z</time>
      </trkpt>
      <trkpt lat="59.9101941" lon="17.8434841">
        <ele>11.6732</ele>
        <time>2014-05-16T17:30:31Z</time>
      </trkpt>
      <trkpt lat="59.9101397" lon="17.843442">
        <ele>12.6344</ele>
        <time>2014-05-16T17:30:32Z</time>
      </trkpt>
      <trkpt lat="59.9100935" lon="17.8433959">
        <ele>12.6344</ele>
        <time>2014-05-16T17:30:33Z</time>
      </trkpt>
      <trkpt lat="59.9100488" lon="17.8433462">
        <ele>12.6344</ele>
        <time>2014-05-16T17:30:34Z</time>
      </trkpt>
      <trkpt lat="59.910003" lon="17.8432999">
        <ele>12.1538</ele>
        <time>2014-05-16T17:30:35Z</time>
      </trkpt>
      <trkpt lat="59.9099546" lon="17.8432529">
        <ele>12.6344</ele>
        <time>2014-05-16T17:30:36Z</time>
      </trkpt>
      <trkpt lat="59.909909" lon="17.8432075">
        <ele>12.6344</ele>
        <time>2014-05-16T17:30:37Z</time>
      </trkpt>
      <trkpt lat="59.9098637" lon="17.8431609">
        <ele>12.1538</ele>
        <time>2014-05-16T17:30:38Z</time>
      </trkpt>
      <trkpt lat="59.9098132" lon="17.8431056">
        <ele>12.6344</ele>
        <time>2014-05-16T17:30:39Z</time>
      </trkpt>
      <trkpt lat="59.9097626" lon="17.843045">
        <ele>13.1151</ele>
        <time>2014-05-16T17:30:40Z</time>
      </trkpt>
      <trkpt lat="59.9097171" lon="17.8429832">
        <ele>13.1151</ele>
        <time>2014-05-16T17:30:41Z</time>
      </trkpt>
      <trkpt lat="59.9096729" lon="17.8429069">
        <ele>13.1151</ele>
        <time>2014-05-16T17:30:42Z</time>
      </trkpt>
      <trkpt lat="59.9096399" lon="17.8428065">
        <ele>13.1151</ele>
        <time>2014-05-16T17:30:43Z</time>
      </trkpt>
      <trkpt lat="59.9096218" lon="17.8426896">
        <ele>13.1151</ele>
        <time>2014-05-16T17:30:44Z</time>
      </trkpt>
      <trkpt lat="59.909619" lon="17.8425676">
        <ele>13.5958</ele>
        <time>2014-05-16T17:30:45Z</time>
      </trkpt>
      <trkpt lat="59.909627" lon="17.8424467">
        <ele>13.5958</ele>
        <time>2014-05-16T17:30:46Z</time>
      </trkpt>
      <trkpt lat="59.9096376" lon="17.8423299">
        <ele>13.1151</ele>
        <time>2014-05-16T17:30:47Z</time>
      </trkpt>
      <trkpt lat="59.9096471" lon="17.8422109">
        <ele>13.1151</ele>
        <time>2014-05-16T17:30:48Z</time>
      </trkpt>
      <trkpt lat="59.9096564" lon="17.8420866">
        <ele>12.6344</ele>
        <time>2014-05-16T17:30:49Z</time>
      </trkpt>
      <trkpt lat="59.9096643" lon="17.8419566">
        <ele>12.1538</ele>
        <time>2014-05-16T17:30:50Z</time>
      </trkpt>
      <trkpt lat="59.9096689" lon="17.8418202">
        <ele>12.1538</ele>
        <time>2014-05-16T17:30:51Z</time>
      </trkpt>
      <trkpt lat="59.9096704" lon="17.8416798">
        <ele>11.6732</ele>
        <time>2014-05-16T17:30:52Z</time>
      </trkpt>
      <trkpt lat="59.9096679" lon="17.8415358">
        <ele>11.1925</ele>
        <time>2014-05-16T17:30:53Z</time>
      </trkpt>
      <trkpt lat="59.909661" lon="17.8413893">
        <ele>10.7118</ele>
        <time>2014-05-16T17:30:54Z</time>
      </trkpt>
      <trkpt lat="59.9096481" lon="17.8412436">
        <ele>10.2312</ele>
        <time>2014-05-16T17:30:55Z</time>
      </trkpt>
      <trkpt lat="59.9096279" lon="17.8411019">
        <ele>10.2312</ele>
        <time>2014-05-16T17:30:56Z</time>
      </trkpt>
      <trkpt lat="59.9096019" lon="17.8409631">
        <ele>10.2312</ele>
        <time>2014-05-16T17:30:57Z</time>
      </trkpt>
      <trkpt lat="59.9095697" lon="17.8408331">
        <ele>10.2312</ele>
        <time>2014-05-16T17:30:58Z</time>
      </trkpt>
      <trkpt lat="59.9095326" lon="17.8407076">
        <ele>10.2312</ele>
        <time>2014-05-16T17:30:59Z</time>
      </trkpt>
      <trkpt lat="59.9094917" lon="17.840587">
        <ele>10.7118</ele>
        <time>2014-05-16T17:31:00Z</time>
      </trkpt>
      <trkpt lat="59.9094488" lon="17.8404729">
        <ele>10.7118</ele>
        <time>2014-05-16T17:31:01Z</time>
      </trkpt>
      <trkpt lat="59.9094055" lon="17.8403616">
        <ele>10.7118</ele>
        <time>2014-05-16T17:31:02Z</time>
      </trkpt>
      <trkpt lat="59.909363" lon="17.8402495">
        <ele>10.7118</ele>
        <time>2014-05-16T17:31:03Z</time>
      </trkpt>
      <trkpt lat="59.9093212" lon="17.8401389">
        <ele>11.1925</ele>
        <time>2014-05-16T17:31:04Z</time>
      </trkpt>
      <trkpt lat="59.9092808" lon="17.8400301">
        <ele>11.1925</ele>
        <time>2014-05-16T17:31:05Z</time>
      </trkpt>
      <trkpt lat="59.9092416" lon="17.8399245">
        <ele>11.6732</ele>
        <time>2014-05-16T17:31:06Z</time>
      </trkpt>
      <trkpt lat="59.9092042" lon="17.8398229">
        <ele>12.1538</ele>
        <time>2014-05-16T17:31:07Z</time>
      </trkpt>
      <trkpt lat="59.9091689" lon="17.8397242">
        <ele>12.1538</ele>
        <time>2014-05-16T17:31:08Z</time>
      </trkpt>
      <trkpt lat="59.9091367" lon="17.8396322">
        <ele>12.6344</ele>
        <time>2014-05-16T17:31:09Z</time>
      </trkpt>
      <trkpt lat="59.9091062" lon="17.8395467">
        <ele>13.1151</ele>
        <time>2014-05-16T17:31:10Z</time>
      </trkpt>
      <trkpt lat="59.909076" lon="17.8394645">
        <ele>13.1151</ele>
        <time>2014-05-16T17:31:11Z</time>
      </trkpt>
      <trkpt lat="59.9090477" lon="17.8393857">
        <ele>13.5958</ele>
        <time>2014-05-16T17:31:12Z</time>
      </trkpt>
      <trkpt lat="59.9090182" lon="17.8393096">
        <ele>13.5958</ele>
        <time>2014-05-16T17:31:13Z</time>
      </trkpt>
      <trkpt lat="59.9089869" lon="17.8392354">
        <ele>14.0764</ele>
        <time>2014-05-16T17:31:14Z</time>
      </trkpt>
      <trkpt lat="59.908956" lon="17.8391615">
        <ele>14.557</ele>
        <time>2014-05-16T17:31:15Z</time>
      </trkpt>
      <trkpt lat="59.9089247" lon="17.8390874">
        <ele>14.557</ele>
        <time>2014-05-16T17:31:16Z</time>
      </trkpt>
      <trkpt lat="59.9088955" lon="17.8390194">
        <ele>15.0377</ele>
        <time>2014-05-16T17:31:17Z</time>
      </trkpt>
      <trkpt lat="59.9088586" lon="17.8389574">
        <ele>15.5184</ele>
        <time>2014-05-16T17:31:18Z</time>
      </trkpt>
      <trkpt lat="59.9088256" lon="17.8389004">
        <ele>15.5184</ele>
        <time>2014-05-16T17:31:19Z</time>
      </trkpt>
      <trkpt lat="59.9087883" lon="17.8388474">
        <ele>15.5184</ele>
        <time>2014-05-16T17:31:20Z</time>
      </trkpt>
      <trkpt lat="59.9087502" lon="17.8387957">
        <ele>15.999</ele>
        <time>2014-05-16T17:31:21Z</time>
      </trkpt>
      <trkpt lat="59.9087127" lon="17.8387459">
        <ele>15.999</ele>
        <time>2014-05-16T17:31:22Z</time>
      </trkpt>
      <trkpt lat="59.9086768" lon="17.8387017">
        <ele>15.999</ele>
        <time>2014-05-16T17:31:23Z</time>
      </trkpt>
      <trkpt lat="59.9086404" lon="17.8386625">
        <ele>16.4797</ele>
        <time>2014-05-16T17:31:24Z</time>
      </trkpt>
      <trkpt lat="59.9086038" lon="17.8386339">
        <ele>15.999</ele>
        <time>2014-05-16T17:31:25Z</time>
      </trkpt>
      <trkpt lat="59.9085659" lon="17.8386119">
        <ele>15.999</ele>
        <time>2014-05-16T17:31:26Z</time>
      </trkpt>
      <trkpt lat="59.9085224" lon="17.8385916">
        <ele>16.9604</ele>
        <time>2014-05-16T17:31:27Z</time>
      </trkpt>
      <trkpt lat="59.9084791" lon="17.8385787">
        <ele>17.4412</ele>
        <time>2014-05-16T17:31:28Z</time>
      </trkpt>
      <trkpt lat="59.908438" lon="17.8385729">
        <ele>17.4412</ele>
        <time>2014-05-16T17:31:29Z</time>
      </trkpt>
      <trkpt lat="59.9083965" lon="17.8385709">
        <ele>17.4412</ele>
        <time>2014-05-16T17:31:30Z</time>
      </trkpt>
      <trkpt lat="59.9083546" lon="17.8385718">
        <ele>17.4412</ele>
        <time>2014-05-16T17:31:31Z</time>
      </trkpt>
      <trkpt lat="59.9083097" lon="17.8385831">
        <ele>17.4412</ele>
        <time>2014-05-16T17:31:32Z</time>
      </trkpt>
      <trkpt lat="59.9082636" lon="17.8386025">
        <ele>17.4412</ele>
        <time>2014-05-16T17:31:33Z</time>
      </trkpt>
      <trkpt lat="59.9082147" lon="17.8386231">
        <ele>17.4412</ele>
        <time>2014-05-16T17:31:34Z</time>
      </trkpt>
      <trkpt lat="59.9081628" lon="17.8386527">
        <ele>17.9218</ele>
        <time>2014-05-16T17:31:35Z</time>
      </trkpt>
      <trkpt lat="59.9081151" lon="17.8386895">
        <ele>17.9218</ele>
        <time>2014-05-16T17:31:36Z</time>
      </trkpt>
      <trkpt lat="59.9080687" lon="17.8387277">
        <ele>17.9218</ele>
        <time>2014-05-16T17:31:37Z</time>
      </trkpt>
      <trkpt lat="59.9080234" lon="17.8387651">
        <ele>18.8831</ele>
        <time>2014-05-16T17:31:38Z</time>
      </trkpt>
      <trkpt lat="59.9079811" lon="17.8388044">
        <ele>19.3638</ele>
        <time>2014-05-16T17:31:39Z</time>
      </trkpt>
      <trkpt lat="59.9079424" lon="17.8388442">
        <ele>19.8444</ele>
        <time>2014-05-16T17:31:40Z</time>
      </trkpt>
      <trkpt lat="59.9079058" lon="17.8388838">
        <ele>20.325</ele>
        <time>2014-05-16T17:31:41Z</time>
      </trkpt>
      <trkpt lat="59.9078713" lon="17.8389245">
        <ele>20.325</ele>
        <time>2014-05-16T17:31:42Z</time>
      </trkpt>
      <trkpt lat="59.9078361" lon="17.8389639">
        <ele>21.2864</ele>
        <time>2014-05-16T17:31:43Z</time>
      </trkpt>
      <trkpt lat="59.9078018" lon="17.839005">
        <ele>21.767</ele>
        <time>2014-05-16T17:31:44Z</time>
      </trkpt>
      <trkpt lat="59.9077699" lon="17.83905">
        <ele>21.767</ele>
        <time>2014-05-16T17:31:45Z</time>
      </trkpt>
      <trkpt lat="59.9077396" lon="17.8390941">
        <ele>21.767</ele>
        <time>2014-05-16T17:31:46Z</time>
      </trkpt>
      <trkpt lat="59.9077097" lon="17.8391328">
        <ele>21.767</ele>
        <time>2014-05-16T17:31:47Z</time>
      </trkpt>
      <trkpt lat="59.9076787" lon="17.8391723">
        <ele>21.767</ele>
        <time>2014-05-16T17:31:48Z</time>
      </trkpt>
      <trkpt lat="59.9076512" lon="17.8392119">
        <ele>21.2864</ele>
        <time>2014-05-16T17:31:49Z</time>
      </trkpt>
      <trkpt lat="59.9076242" lon="17.8392514">
        <ele>21.2864</ele>
        <time>2014-05-16T17:31:50Z</time>
      </trkpt>
      <trkpt lat="59.9075937" lon="17.8392924">
        <ele>21.2864</ele>
        <time>2014-05-16T17:31:51Z</time>
      </trkpt>
      <trkpt lat="59.90756" lon="17.8393359">
        <ele>20.8057</ele>
        <time>2014-05-16T17:31:52Z</time>
      </trkpt>
      <trkpt lat="59.9075225" lon="17.83938">
        <ele>20.8057</ele>
        <time>2014-05-16T17:31:53Z</time>
      </trkpt>
      <trkpt lat="59.9074808" lon="17.8394256">
        <ele>20.325</ele>
        <time>2014-05-16T17:31:54Z</time>
      </trkpt>
      <trkpt lat="59.9074352" lon="17.8394738">
        <ele>19.8444</ele>
        <time>2014-05-16T17:31:55Z</time>
      </trkpt>
      <trkpt lat="59.9073849" lon="17.839525">
        <ele>19.8444</ele>
        <time>2014-05-16T17:31:56Z</time>
      </trkpt>
      <trkpt lat="59.9073332" lon="17.8395749">
        <ele>19.3638</ele>
        <time>2014-05-16T17:31:57Z</time>
      </trkpt>
      <trkpt lat="59.9072741" lon="17.8396227">
        <ele>18.8831</ele>
        <time>2014-05-16T17:31:58Z</time>
      </trkpt>
      <trkpt lat="59.9072148" lon="17.8396722">
        <ele>18.4023</ele>
        <time>2014-05-16T17:31:59Z</time>
      </trkpt>
      <trkpt lat="59.9071539" lon="17.8397237">
        <ele>17.9218</ele>
        <time>2014-05-16T17:32:00Z</time>
      </trkpt>
      <trkpt lat="59.9070895" lon="17.8397746">
        <ele>17.4412</ele>
        <time>2014-05-16T17:32:01Z</time>
      </trkpt>
      <trkpt lat="59.9070238" lon="17.8398265">
        <ele>16.4797</ele>
        <time>2014-05-16T17:32:02Z</time>
      </trkpt>
      <trkpt lat="59.906954" lon="17.8398814">
        <ele>15.999</ele>
        <time>2014-05-16T17:32:03Z</time>
      </trkpt>
      <trkpt lat="59.906875" lon="17.8399342">
        <ele>16.9604</ele>
        <time>2014-05-16T17:32:04Z</time>
      </trkpt>
      <trkpt lat="59.9067971" lon="17.8399898">
        <ele>17.4412</ele>
        <time>2014-05-16T17:32:05Z</time>
      </trkpt>
      <trkpt lat="59.9067224" lon="17.8400501">
        <ele>17.9218</ele>
        <time>2014-05-16T17:32:06Z</time>
      </trkpt>
      <trkpt lat="59.9066483" lon="17.8401115">
        <ele>17.9218</ele>
        <time>2014-05-16T17:32:07Z</time>
      </trkpt>
      <trkpt lat="59.9065746" lon="17.8401725">
        <ele>17.9218</ele>
        <time>2014-05-16T17:32:08Z</time>
      </trkpt>
      <trkpt lat="59.9065022" lon="17.8402329">
        <ele>17.9218</ele>
        <time>2014-05-16T17:32:09Z</time>
      </trkpt>
      <trkpt lat="59.9064308" lon="17.8402983">
        <ele>18.4023</ele>
        <time>2014-05-16T17:32:10Z</time>
      </trkpt>
      <trkpt lat="59.9063649" lon="17.8403725">
        <ele>17.9218</ele>
        <time>2014-05-16T17:32:11Z</time>
      </trkpt>
      <trkpt lat="59.9062972" lon="17.8404553">
        <ele>17.9218</ele>
        <time>2014-05-16T17:32:12Z</time>
      </trkpt>
      <trkpt lat="59.9062303" lon="17.8405456">
        <ele>17.9218</ele>
        <time>2014-05-16T17:32:13Z</time>
      </trkpt>
      <trkpt lat="59.9061658" lon="17.8406445">
        <ele>17.4412</ele>
        <time>2014-05-16T17:32:14Z</time>
      </trkpt>
      <trkpt lat="59.9061028" lon="17.8407464">
        <ele>17.9218</ele>
        <time>2014-05-16T17:32:15Z</time>
      </trkpt>
      <trkpt lat="59.9060392" lon="17.8408488">
        <ele>17.4412</ele>
        <time>2014-05-16T17:32:16Z</time>
      </trkpt>
      <trkpt lat="59.9059731" lon="17.8409421">
        <ele>17.4412</ele>
        <time>2014-05-16T17:32:17Z</time>
      </trkpt>
      <trkpt lat="59.9059035" lon="17.8410221">
        <ele>17.4412</ele>
        <time>2014-05-16T17:32:18Z</time>
      </trkpt>
      <trkpt lat="59.9058313" lon="17.8410889">
        <ele>17.4412</ele>
        <time>2014-05-16T17:32:19Z</time>
      </trkpt>
      <trkpt lat="59.9057562" lon="17.8411431">
        <ele>17.9218</ele>
        <time>2014-05-16T17:32:20Z</time>
      </trkpt>
      <trkpt lat="59.9056821" lon="17.8411863">
        <ele>18.4023</ele>
        <time>2014-05-16T17:32:21Z</time>
      </trkpt>
      <trkpt lat="59.9056098" lon="17.8412187">
        <ele>18.8831</ele>
        <time>2014-05-16T17:32:22Z</time>
      </trkpt>
      <trkpt lat="59.9055413" lon="17.8412456">
        <ele>18.8831</ele>
        <time>2014-05-16T17:32:23Z</time>
      </trkpt>
      <trkpt lat="59.9054755" lon="17.8412697">
        <ele>19.8444</ele>
        <time>2014-05-16T17:32:24Z</time>
      </trkpt>
      <trkpt lat="59.9054137" lon="17.8412909">
        <ele>20.325</ele>
        <time>2014-05-16T17:32:25Z</time>
      </trkpt>
      <trkpt lat="59.9053559" lon="17.8413091">
        <ele>20.8057</ele>
        <time>2014-05-16T17:32:26Z</time>
      </trkpt>
      <trkpt lat="59.9053018" lon="17.8413249">
        <ele>20.8057</ele>
        <time>2014-05-16T17:32:27Z</time>
      </trkpt>
      <trkpt lat="59.9052505" lon="17.8413412">
        <ele>21.2864</ele>
        <time>2014-05-16T17:32:28Z</time>
      </trkpt>
      <trkpt lat="59.9052049" lon="17.8413598">
        <ele>21.2864</ele>
        <time>2014-05-16T17:32:29Z</time>
      </trkpt>
      <trkpt lat="59.9051611" lon="17.8413764">
        <ele>21.767</ele>
        <time>2014-05-16T17:32:30Z</time>
      </trkpt>
      <trkpt lat="59.90512" lon="17.8413886">
        <ele>22.2476</ele>
        <time>2014-05-16T17:32:31Z</time>
      </trkpt>
      <trkpt lat="59.9050808" lon="17.8414031">
        <ele>22.2476</ele>
        <time>2014-05-16T17:32:32Z</time>
      </trkpt>
      <trkpt lat="59.9050429" lon="17.8414183">
        <ele>22.2476</ele>
        <time>2014-05-16T17:32:33Z</time>
      </trkpt>
      <trkpt lat="59.9050044" lon="17.8414334">
        <ele>22.2476</ele>
        <time>2014-05-16T17:32:34Z</time>
      </trkpt>
      <trkpt lat="59.9049643" lon="17.8414485">
        <ele>22.7283</ele>
        <time>2014-05-16T17:32:35Z</time>
      </trkpt>
      <trkpt lat="59.9049259" lon="17.8414644">
        <ele>23.209</ele>
        <time>2014-05-16T17:32:36Z</time>
      </trkpt>
      <trkpt lat="59.9048882" lon="17.8414837">
        <ele>23.209</ele>
        <time>2014-05-16T17:32:37Z</time>
      </trkpt>
      <trkpt lat="59.9048523" lon="17.8415057">
        <ele>23.209</ele>
        <time>2014-05-16T17:32:38Z</time>
      </trkpt>
      <trkpt lat="59.9048155" lon="17.8415311">
        <ele>23.209</ele>
        <time>2014-05-16T17:32:39Z</time>
      </trkpt>
      <trkpt lat="59.9047779" lon="17.8415525">
        <ele>23.209</ele>
        <time>2014-05-16T17:32:40Z</time>
      </trkpt>
      <trkpt lat="59.9047399" lon="17.8415691">
        <ele>23.6896</ele>
        <time>2014-05-16T17:32:41Z</time>
      </trkpt>
      <trkpt lat="59.9047043" lon="17.8415889">
        <ele>23.6896</ele>
        <time>2014-05-16T17:32:42Z</time>
      </trkpt>
      <trkpt lat="59.9046675" lon="17.8416099">
        <ele>23.6896</ele>
        <time>2014-05-16T17:32:43Z</time>
      </trkpt>
      <trkpt lat="59.9046292" lon="17.8416333">
        <ele>23.209</ele>
        <time>2014-05-16T17:32:44Z</time>
      </trkpt>
      <trkpt lat="59.9045869" lon="17.8416571">
        <ele>23.6896</ele>
        <time>2014-05-16T17:32:45Z</time>
      </trkpt>
      <trkpt lat="59.9045409" lon="17.8416839">
        <ele>24.1703</ele>
        <time>2014-05-16T17:32:46Z</time>
      </trkpt>
      <trkpt lat="59.9044958" lon="17.8417146">
        <ele>23.6896</ele>
        <time>2014-05-16T17:32:47Z</time>
      </trkpt>
      <trkpt lat="59.9044509" lon="17.8417411">
        <ele>23.6896</ele>
        <time>2014-05-16T17:32:48Z</time>
      </trkpt>
      <trkpt lat="59.9044038" lon="17.8417706">
        <ele>24.1703</ele>
        <time>2014-05-16T17:32:49Z</time>
      </trkpt>
      <trkpt lat="59.9043578" lon="17.8418048">
        <ele>23.6896</ele>
        <time>2014-05-16T17:32:50Z</time>
      </trkpt>
      <trkpt lat="59.904309" lon="17.8418299">
        <ele>24.1703</ele>
        <time>2014-05-16T17:32:51Z</time>
      </trkpt>
      <trkpt lat="59.9042659" lon="17.8418608">
        <ele>23.6896</ele>
        <time>2014-05-16T17:32:52Z</time>
      </trkpt>
      <trkpt lat="59.9042153" lon="17.8418856">
        <ele>23.6896</ele>
        <time>2014-05-16T17:32:53Z</time>
      </trkpt>
      <trkpt lat="59.904166" lon="17.8419069">
        <ele>24.1703</ele>
        <time>2014-05-16T17:32:54Z</time>
      </trkpt>
      <trkpt lat="59.9041147" lon="17.8419232">
        <ele>24.1703</ele>
        <time>2014-05-16T17:32:55Z</time>
      </trkpt>
      <trkpt lat="59.9040643" lon="17.8419357">
        <ele>24.1703</ele>
        <time>2014-05-16T17:32:56Z</time>
      </trkpt>
      <trkpt lat="59.9040128" lon="17.8419408">
        <ele>25.1317</ele>
        <time>2014-05-16T17:32:57Z</time>
      </trkpt>
      <trkpt lat="59.9039649" lon="17.8419356">
        <ele>25.6123</ele>
        <time>2014-05-16T17:32:58Z</time>
      </trkpt>
      <trkpt lat="59.903921" lon="17.8419258">
        <ele>25.6123</ele>
        <time>2014-05-16T17:32:59Z</time>
      </trkpt>
      <trkpt lat="59.903878" lon="17.8419114">
        <ele>25.6123</ele>
        <time>2014-05-16T17:33:00Z</time>
      </trkpt>
      <trkpt lat="59.9038384" lon="17.841896">
        <ele>25.1317</ele>
        <time>2014-05-16T17:33:01Z</time>
      </trkpt>
      <trkpt lat="59.9037968" lon="17.8418786">
        <ele>25.1317</ele>
        <time>2014-05-16T17:33:02Z</time>
      </trkpt>
      <trkpt lat="59.9037584" lon="17.8418561">
        <ele>25.1317</ele>
        <time>2014-05-16T17:33:03Z</time>
      </trkpt>
      <trkpt lat="59.9037201" lon="17.8418287">
        <ele>25.1317</ele>
        <time>2014-05-16T17:33:04Z</time>
      </trkpt>
      <trkpt lat="59.9036863" lon="17.8417959">
        <ele>25.1317</ele>
        <time>2014-05-16T17:33:05Z</time>
      </trkpt>
      <trkpt lat="59.9036536" lon="17.8417592">
        <ele>25.1317</ele>
        <time>2014-05-16T17:33:06Z</time>
      </trkpt>
      <trkpt lat="59.9036248" lon="17.8417191">
        <ele>25.1317</ele>
        <time>2014-05-16T17:33:07Z</time>
      </trkpt>
      <trkpt lat="59.9035955" lon="17.8416794">
        <ele>25.1317</ele>
        <time>2014-05-16T17:33:08Z</time>
      </trkpt>
      <trkpt lat="59.9035701" lon="17.8416333">
        <ele>25.1317</ele>
        <time>2014-05-16T17:33:09Z</time>
      </trkpt>
      <trkpt lat="59.9035445" lon="17.8415891">
        <ele>25.1317</ele>
        <time>2014-05-16T17:33:10Z</time>
      </trkpt>
      <trkpt lat="59.9035188" lon="17.8415457">
        <ele>25.1317</ele>
        <time>2014-05-16T17:33:11Z</time>
      </trkpt>
      <trkpt lat="59.9034915" lon="17.8415037">
        <ele>25.1317</ele>
        <time>2014-05-16T17:33:12Z</time>
      </trkpt>
      <trkpt lat="59.9034624" lon="17.8414614">
        <ele>25.1317</ele>
        <time>2014-05-16T17:33:13Z</time>
      </trkpt>
      <trkpt lat="59.9034312" lon="17.8414183">
        <ele>25.1317</ele>
        <time>2014-05-16T17:33:14Z</time>
      </trkpt>
      <trkpt lat="59.9033983" lon="17.8413759">
        <ele>25.1317</ele>
        <time>2014-05-16T17:33:15Z</time>
      </trkpt>
      <trkpt lat="59.9033636" lon="17.8413339">
        <ele>25.1317</ele>
        <time>2014-05-16T17:33:16Z</time>
      </trkpt>
      <trkpt lat="59.9033263" lon="17.8412936">
        <ele>25.6123</ele>
        <time>2014-05-16T17:33:17Z</time>
      </trkpt>
      <trkpt lat="59.9032858" lon="17.8412615">
        <ele>26.0929</ele>
        <time>2014-05-16T17:33:18Z</time>
      </trkpt>
      <trkpt lat="59.9032423" lon="17.8412381">
        <ele>26.0929</ele>
        <time>2014-05-16T17:33:19Z</time>
      </trkpt>
      <trkpt lat="59.9031961" lon="17.8412223">
        <ele>26.0929</ele>
        <time>2014-05-16T17:33:20Z</time>
      </trkpt>
      <trkpt lat="59.9031484" lon="17.8412128">
        <ele>26.0929</ele>
        <time>2014-05-16T17:33:21Z</time>
      </trkpt>
      <trkpt lat="59.9031005" lon="17.8412137">
        <ele>25.6123</ele>
        <time>2014-05-16T17:33:22Z</time>
      </trkpt>
      <trkpt lat="59.9030511" lon="17.8412244">
        <ele>25.6123</ele>
        <time>2014-05-16T17:33:23Z</time>
      </trkpt>
      <trkpt lat="59.9029999" lon="17.8412418">
        <ele>25.6123</ele>
        <time>2014-05-16T17:33:24Z</time>
      </trkpt>
      <trkpt lat="59.902949" lon="17.8412619">
        <ele>25.1317</ele>
        <time>2014-05-16T17:33:25Z</time>
      </trkpt>
      <trkpt lat="59.9028952" lon="17.8412816">
        <ele>25.1317</ele>
        <time>2014-05-16T17:33:26Z</time>
      </trkpt>
      <trkpt lat="59.902841" lon="17.8413033">
        <ele>25.1317</ele>
        <time>2014-05-16T17:33:27Z</time>
      </trkpt>
      <trkpt lat="59.902786" lon="17.8413241">
        <ele>25.6123</ele>
        <time>2014-05-16T17:33:28Z</time>
      </trkpt>
      <trkpt lat="59.9027322" lon="17.8413431">
        <ele>25.6123</ele>
        <time>2014-05-16T17:33:29Z</time>
      </trkpt>
      <trkpt lat="59.9026794" lon="17.8413629">
        <ele>26.0929</ele>
        <time>2014-05-16T17:33:30Z</time>
      </trkpt>
      <trkpt lat="59.9026285" lon="17.8413821">
        <ele>26.0929</ele>
        <time>2014-05-16T17:33:31Z</time>
      </trkpt>
      <trkpt lat="59.9025766" lon="17.8414012">
        <ele>26.5736</ele>
        <time>2014-05-16T17:33:32Z</time>
      </trkpt>
      <trkpt lat="59.9025255" lon="17.8414221">
        <ele>26.5736</ele>
        <time>2014-05-16T17:33:33Z</time>
      </trkpt>
      <trkpt lat="59.9024756" lon="17.8414432">
        <ele>27.0543</ele>
        <time>2014-05-16T17:33:34Z</time>
      </trkpt>
      <trkpt lat="59.9024275" lon="17.8414634">
        <ele>27.5349</ele>
        <time>2014-05-16T17:33:35Z</time>
      </trkpt>
      <trkpt lat="59.9023829" lon="17.8414829">
        <ele>28.0155</ele>
        <time>2014-05-16T17:33:36Z</time>
      </trkpt>
      <trkpt lat="59.90234" lon="17.8415006">
        <ele>28.0155</ele>
        <time>2014-05-16T17:33:37Z</time>
      </trkpt>
      <trkpt lat="59.9022999" lon="17.8415153">
        <ele>28.0155</ele>
        <time>2014-05-16T17:33:38Z</time>
      </trkpt>
      <trkpt lat="59.9022614" lon="17.8415283">
        <ele>28.0155</ele>
        <time>2014-05-16T17:33:39Z</time>
      </trkpt>
      <trkpt lat="59.9022188" lon="17.8415364">
        <ele>28.9769</ele>
        <time>2014-05-16T17:33:40Z</time>
      </trkpt>
      <trkpt lat="59.9021797" lon="17.841539">
        <ele>29.4575</ele>
        <time>2014-05-16T17:33:41Z</time>
      </trkpt>
      <trkpt lat="59.902144" lon="17.8415385">
        <ele>29.4575</ele>
        <time>2014-05-16T17:33:42Z</time>
      </trkpt>
      <trkpt lat="59.9021063" lon="17.8415383">
        <ele>29.9381</ele>
        <time>2014-05-16T17:33:43Z</time>
      </trkpt>
      <trkpt lat="59.9020678" lon="17.841537">
        <ele>29.9381</ele>
        <time>2014-05-16T17:33:44Z</time>
      </trkpt>
      <trkpt lat="59.9020291" lon="17.8415317">
        <ele>29.9381</ele>
        <time>2014-05-16T17:33:45Z</time>
      </trkpt>
      <trkpt lat="59.9019886" lon="17.8415255">
        <ele>29.4575</ele>
        <time>2014-05-16T17:33:46Z</time>
      </trkpt>
      <trkpt lat="59.9019467" lon="17.8415209">
        <ele>28.9769</ele>
        <time>2014-05-16T17:33:47Z</time>
      </trkpt>
      <trkpt lat="59.9019033" lon="17.8415163">
        <ele>28.4962</ele>
        <time>2014-05-16T17:33:48Z</time>
      </trkpt>
      <trkpt lat="59.9018593" lon="17.8415132">
        <ele>27.5349</ele>
        <time>2014-05-16T17:33:49Z</time>
      </trkpt>
      <trkpt lat="59.9018066" lon="17.8415038">
        <ele>27.5349</ele>
        <time>2014-05-16T17:33:50Z</time>
      </trkpt>
      <trkpt lat="59.9017552" lon="17.8414939">
        <ele>27.5349</ele>
        <time>2014-05-16T17:33:51Z</time>
      </trkpt>
      <trkpt lat="59.9017014" lon="17.8414826">
        <ele>27.5349</ele>
        <time>2014-05-16T17:33:52Z</time>
      </trkpt>
      <trkpt lat="59.901651" lon="17.8414687">
        <ele>27.0543</ele>
        <time>2014-05-16T17:33:53Z</time>
      </trkpt>
      <trkpt lat="59.901597" lon="17.8414549">
        <ele>27.5349</ele>
        <time>2014-05-16T17:33:54Z</time>
      </trkpt>
      <trkpt lat="59.9015439" lon="17.8414431">
        <ele>27.0543</ele>
        <time>2014-05-16T17:33:55Z</time>
      </trkpt>
      <trkpt lat="59.9014915" lon="17.8414339">
        <ele>27.0543</ele>
        <time>2014-05-16T17:33:56Z</time>
      </trkpt>
      <trkpt lat="59.9014345" lon="17.8414228">
        <ele>27.5349</ele>
        <time>2014-05-16T17:33:57Z</time>
      </trkpt>
      <trkpt lat="59.9013808" lon="17.8414111">
        <ele>27.5349</ele>
        <time>2014-05-16T17:33:58Z</time>
      </trkpt>
      <trkpt lat="59.9013281" lon="17.8414047">
        <ele>27.0543</ele>
        <time>2014-05-16T17:33:59Z</time>
      </trkpt>
      <trkpt lat="59.901276" lon="17.8413944">
        <ele>27.0543</ele>
        <time>2014-05-16T17:34:00Z</time>
      </trkpt>
      <trkpt lat="59.9012235" lon="17.8413848">
        <ele>27.0543</ele>
        <time>2014-05-16T17:34:01Z</time>
      </trkpt>
      <trkpt lat="59.9011729" lon="17.8413774">
        <ele>26.5736</ele>
        <time>2014-05-16T17:34:02Z</time>
      </trkpt>
      <trkpt lat="59.9011227" lon="17.8413712">
        <ele>26.0929</ele>
        <time>2014-05-16T17:34:03Z</time>
      </trkpt>
      <trkpt lat="59.9010672" lon="17.8413625">
        <ele>26.5736</ele>
        <time>2014-05-16T17:34:04Z</time>
      </trkpt>
      <trkpt lat="59.9010107" lon="17.8413539">
        <ele>27.0543</ele>
        <time>2014-05-16T17:34:05Z</time>
      </trkpt>
      <trkpt lat="59.9009574" lon="17.8413457">
        <ele>27.5349</ele>
        <time>2014-05-16T17:34:06Z</time>
      </trkpt>
      <trkpt lat="59.9009046" lon="17.841337">
        <ele>28.0155</ele>
        <time>2014-05-16T17:34:07Z</time>
      </trkpt>
      <trkpt lat="59.9008522" lon="17.8413297">
        <ele>28.4962</ele>
        <time>2014-05-16T17:34:08Z</time>
      </trkpt>
      <trkpt lat="59.9008003" lon="17.8413228">
        <ele>28.4962</ele>
        <time>2014-05-16T17:34:09Z</time>
      </trkpt>
      <trkpt lat="59.9007496" lon="17.8413153">
        <ele>28.9769</ele>
        <time>2014-05-16T17:34:10Z</time>
      </trkpt>
      <trkpt lat="59.9007032" lon="17.8413081">
        <ele>28.9769</ele>
        <time>2014-05-16T17:34:11Z</time>
      </trkpt>
      <trkpt lat="59.9006569" lon="17.8413031">
        <ele>28.9769</ele>
        <time>2014-05-16T17:34:12Z</time>
      </trkpt>
      <trkpt lat="59.9006102" lon="17.8413012">
        <ele>29.4575</ele>
        <time>2014-05-16T17:34:13Z</time>
      </trkpt>
      <trkpt lat="59.9005648" lon="17.8412976">
        <ele>29.9381</ele>
        <time>2014-05-16T17:34:14Z</time>
      </trkpt>
      <trkpt lat="59.9005207" lon="17.8412948">
        <ele>29.9381</ele>
        <time>2014-05-16T17:34:15Z</time>
      </trkpt>
      <trkpt lat="59.9004774" lon="17.8412908">
        <ele>29.9381</ele>
        <time>2014-05-16T17:34:16Z</time>
      </trkpt>
      <trkpt lat="59.9004315" lon="17.84129">
        <ele>29.9381</ele>
        <time>2014-05-16T17:34:17Z</time>
      </trkpt>
      <trkpt lat="59.9003857" lon="17.8412919">
        <ele>29.9381</ele>
        <time>2014-05-16T17:34:18Z</time>
      </trkpt>
      <trkpt lat="59.9003409" lon="17.8412935">
        <ele>29.9381</ele>
        <time>2014-05-16T17:34:19Z</time>
      </trkpt>
      <trkpt lat="59.9002943" lon="17.8412931">
        <ele>30.4188</ele>
        <time>2014-05-16T17:34:20Z</time>
      </trkpt>
      <trkpt lat="59.9002514" lon="17.8412956">
        <ele>29.9381</ele>
        <time>2014-05-16T17:34:21Z</time>
      </trkpt>
      <trkpt lat="59.9002109" lon="17.8412971">
        <ele>29.9381</ele>
        <time>2014-05-16T17:34:22Z</time>
      </trkpt>
      <trkpt lat="59.9001642" lon="17.8412998">
        <ele>30.8995</ele>
        <time>2014-05-16T17:34:23Z</time>
      </trkpt>
      <trkpt lat="59.9001212" lon="17.8413022">
        <ele>30.8995</ele>
        <time>2014-05-16T17:34:24Z</time>
      </trkpt>
      <trkpt lat="59.9000767" lon="17.8413064">
        <ele>31.3801</ele>
        <time>2014-05-16T17:34:25Z</time>
      </trkpt>
      <trkpt lat="59.9000322" lon="17.84131">
        <ele>31.8607</ele>
        <time>2014-05-16T17:34:26Z</time>
      </trkpt>
      <trkpt lat="59.8999861" lon="17.8413141">
        <ele>32.3416</ele>
        <time>2014-05-16T17:34:27Z</time>
      </trkpt>
      <trkpt lat="59.8999441" lon="17.8413197">
        <ele>32.3416</ele>
        <time>2014-05-16T17:34:28Z</time>
      </trkpt>
      <trkpt lat="59.8999012" lon="17.8413271">
        <ele>32.3416</ele>
        <time>2014-05-16T17:34:29Z</time>
      </trkpt>
      <trkpt lat="59.8998568" lon="17.841333">
        <ele>32.8223</ele>
        <time>2014-05-16T17:34:30Z</time>
      </trkpt>
      <trkpt lat="59.8998158" lon="17.8413401">
        <ele>33.3029</ele>
        <time>2014-05-16T17:34:31Z</time>
      </trkpt>
      <trkpt lat="59.899778" lon="17.8413444">
        <ele>33.3029</ele>
        <time>2014-05-16T17:34:32Z</time>
      </trkpt>
      <trkpt lat="59.8997389" lon="17.8413526">
        <ele>33.3029</ele>
        <time>2014-05-16T17:34:33Z</time>
      </trkpt>
      <trkpt lat="59.8997007" lon="17.8413582">
        <ele>32.8223</ele>
        <time>2014-05-16T17:34:34Z</time>
      </trkpt>
      <trkpt lat="59.899662" lon="17.8413641">
        <ele>32.3416</ele>
        <time>2014-05-16T17:34:35Z</time>
      </trkpt>
      <trkpt lat="59.8996246" lon="17.8413746">
        <ele>32.3416</ele>
        <time>2014-05-16T17:34:36Z</time>
      </trkpt>
      <trkpt lat="59.899581" lon="17.8413898">
        <ele>33.3029</ele>
        <time>2014-05-16T17:34:37Z</time>
      </trkpt>
      <trkpt lat="59.8995395" lon="17.8414084">
        <ele>33.3029</ele>
        <time>2014-05-16T17:34:38Z</time>
      </trkpt>
      <trkpt lat="59.8994962" lon="17.8414328">
        <ele>34.2642</ele>
        <time>2014-05-16T17:34:39Z</time>
      </trkpt>
      <trkpt lat="59.8994563" lon="17.8414639">
        <ele>34.2642</ele>
        <time>2014-05-16T17:34:40Z</time>
      </trkpt>
      <trkpt lat="59.8994127" lon="17.8414961">
        <ele>34.7449</ele>
        <time>2014-05-16T17:34:41Z</time>
      </trkpt>
      <trkpt lat="59.89937" lon="17.8415359">
        <ele>34.7449</ele>
        <time>2014-05-16T17:34:42Z</time>
      </trkpt>
      <trkpt lat="59.8992774" lon="17.8416396">
        <ele>35.2255</ele>
        <time>2014-05-16T17:34:44Z</time>
      </trkpt>
      <trkpt lat="59.8992299" lon="17.8416917">
        <ele>35.7061</ele>
        <time>2014-05-16T17:34:45Z</time>
      </trkpt>
      <trkpt lat="59.8991869" lon="17.8417391">
        <ele>35.2255</ele>
        <time>2014-05-16T17:34:46Z</time>
      </trkpt>
      <trkpt lat="59.8991444" lon="17.8417804">
        <ele>35.2255</ele>
        <time>2014-05-16T17:34:47Z</time>
      </trkpt>
      <trkpt lat="59.8990998" lon="17.8418149">
        <ele>35.2255</ele>
        <time>2014-05-16T17:34:48Z</time>
      </trkpt>
      <trkpt lat="59.8990532" lon="17.8418467">
        <ele>35.7061</ele>
        <time>2014-05-16T17:34:49Z</time>
      </trkpt>
      <trkpt lat="59.8990093" lon="17.8418757">
        <ele>35.2255</ele>
        <time>2014-05-16T17:34:50Z</time>
      </trkpt>
      <trkpt lat="59.8989637" lon="17.8419063">
        <ele>34.7449</ele>
        <time>2014-05-16T17:34:51Z</time>
      </trkpt>
      <trkpt lat="59.8989159" lon="17.8419379">
        <ele>34.7449</ele>
        <time>2014-05-16T17:34:52Z</time>
      </trkpt>
      <trkpt lat="59.8988626" lon="17.8419678">
        <ele>35.2255</ele>
        <time>2014-05-16T17:34:53Z</time>
      </trkpt>
      <trkpt lat="59.8988107" lon="17.8420005">
        <ele>35.2255</ele>
        <time>2014-05-16T17:34:54Z</time>
      </trkpt>
      <trkpt lat="59.8987542" lon="17.8420296">
        <ele>34.7449</ele>
        <time>2014-05-16T17:34:55Z</time>
      </trkpt>
      <trkpt lat="59.8986927" lon="17.8420607">
        <ele>34.7449</ele>
        <time>2014-05-16T17:34:56Z</time>
      </trkpt>
      <trkpt lat="59.8986273" lon="17.8420881">
        <ele>34.7449</ele>
        <time>2014-05-16T17:34:57Z</time>
      </trkpt>
      <trkpt lat="59.898562" lon="17.8421166">
        <ele>34.7449</ele>
        <time>2014-05-16T17:34:58Z</time>
      </trkpt>
      <trkpt lat="59.8984959" lon="17.8421487">
        <ele>35.2255</ele>
        <time>2014-05-16T17:34:59Z</time>
      </trkpt>
      <trkpt lat="59.8984295" lon="17.8421747">
        <ele>35.2255</ele>
        <time>2014-05-16T17:35:00Z</time>
      </trkpt>
      <trkpt lat="59.8983667" lon="17.8421933">
        <ele>34.7449</ele>
        <time>2014-05-16T17:35:01Z</time>
      </trkpt>
      <trkpt lat="59.898302" lon="17.8422087">
        <ele>34.7449</ele>
        <time>2014-05-16T17:35:02Z</time>
      </trkpt>
      <trkpt lat="59.8982377" lon="17.8422191">
        <ele>35.2255</ele>
        <time>2014-05-16T17:35:03Z</time>
      </trkpt>
      <trkpt lat="59.8981717" lon="17.8422205">
        <ele>35.2255</ele>
        <time>2014-05-16T17:35:04Z</time>
      </trkpt>
      <trkpt lat="59.8981056" lon="17.842218">
        <ele>35.7061</ele>
        <time>2014-05-16T17:35:05Z</time>
      </trkpt>
      <trkpt lat="59.8980434" lon="17.8422089">
        <ele>35.7061</ele>
        <time>2014-05-16T17:35:06Z</time>
      </trkpt>
      <trkpt lat="59.897978" lon="17.8421964">
        <ele>35.7061</ele>
        <time>2014-05-16T17:35:07Z</time>
      </trkpt>
      <trkpt lat="59.8979145" lon="17.8421958">
        <ele>35.7061</ele>
        <time>2014-05-16T17:35:08Z</time>
      </trkpt>
      <trkpt lat="59.8978492" lon="17.8422024">
        <ele>35.7061</ele>
        <time>2014-05-16T17:35:09Z</time>
      </trkpt>
      <trkpt lat="59.8977769" lon="17.842218">
        <ele>36.1868</ele>
        <time>2014-05-16T17:35:10Z</time>
      </trkpt>
      <trkpt lat="59.8977075" lon="17.8422363">
        <ele>35.7061</ele>
        <time>2014-05-16T17:35:11Z</time>
      </trkpt>
      <trkpt lat="59.8976364" lon="17.8422628">
        <ele>35.2255</ele>
        <time>2014-05-16T17:35:12Z</time>
      </trkpt>
      <trkpt lat="59.8975618" lon="17.8422895">
        <ele>36.1868</ele>
        <time>2014-05-16T17:35:13Z</time>
      </trkpt>
      <trkpt lat="59.8974975" lon="17.842318">
        <ele>35.7061</ele>
        <time>2014-05-16T17:35:14Z</time>
      </trkpt>
      <trkpt lat="59.897437" lon="17.8423514">
        <ele>35.2255</ele>
        <time>2014-05-16T17:35:15Z</time>
      </trkpt>
      <trkpt lat="59.897381" lon="17.8423896">
        <ele>34.7449</ele>
        <time>2014-05-16T17:35:16Z</time>
      </trkpt>
      <trkpt lat="59.8973205" lon="17.8424396">
        <ele>35.2255</ele>
        <time>2014-05-16T17:35:17Z</time>
      </trkpt>
      <trkpt lat="59.8972625" lon="17.842491">
        <ele>34.7449</ele>
        <time>2014-05-16T17:35:18Z</time>
      </trkpt>
      <trkpt lat="59.8972081" lon="17.8425459">
        <ele>33.7834</ele>
        <time>2014-05-16T17:35:19Z</time>
      </trkpt>
      <trkpt lat="59.8971444" lon="17.8426044">
        <ele>32.8223</ele>
        <time>2014-05-16T17:35:20Z</time>
      </trkpt>
      <trkpt lat="59.8970775" lon="17.8426546">
        <ele>32.3416</ele>
        <time>2014-05-16T17:35:21Z</time>
      </trkpt>
      <trkpt lat="59.8970108" lon="17.8427033">
        <ele>31.8607</ele>
        <time>2014-05-16T17:35:22Z</time>
      </trkpt>
      <trkpt lat="59.8969402" lon="17.8427522">
        <ele>31.3801</ele>
        <time>2014-05-16T17:35:23Z</time>
      </trkpt>
      <trkpt lat="59.8968667" lon="17.8427941">
        <ele>30.8995</ele>
        <time>2014-05-16T17:35:24Z</time>
      </trkpt>
      <trkpt lat="59.8967929" lon="17.842824">
        <ele>30.4188</ele>
        <time>2014-05-16T17:35:25Z</time>
      </trkpt>
      <trkpt lat="59.8967156" lon="17.8428381">
        <ele>29.4575</ele>
        <time>2014-05-16T17:35:26Z</time>
      </trkpt>
      <trkpt lat="59.8966346" lon="17.8428435">
        <ele>29.4575</ele>
        <time>2014-05-16T17:35:27Z</time>
      </trkpt>
      <trkpt lat="59.8965407" lon="17.8428274">
        <ele>29.4575</ele>
        <time>2014-05-16T17:35:28Z</time>
      </trkpt>
      <trkpt lat="59.89645" lon="17.8427924">
        <ele>28.9769</ele>
        <time>2014-05-16T17:35:29Z</time>
      </trkpt>
      <trkpt lat="59.8963544" lon="17.8427546">
        <ele>28.4962</ele>
        <time>2014-05-16T17:35:30Z</time>
      </trkpt>
      <trkpt lat="59.896259" lon="17.8427244">
        <ele>28.4962</ele>
        <time>2014-05-16T17:35:31Z</time>
      </trkpt>
      <trkpt lat="59.8961664" lon="17.8427015">
        <ele>28.0155</ele>
        <time>2014-05-16T17:35:32Z</time>
      </trkpt>
      <trkpt lat="59.8960783" lon="17.8426915">
        <ele>28.0155</ele>
        <time>2014-05-16T17:35:33Z</time>
      </trkpt>
      <trkpt lat="59.8959912" lon="17.84269">
        <ele>28.0155</ele>
        <time>2014-05-16T17:35:34Z</time>
      </trkpt>
      <trkpt lat="59.8959082" lon="17.8426994">
        <ele>28.0155</ele>
        <time>2014-05-16T17:35:35Z</time>
      </trkpt>
      <trkpt lat="59.8958245" lon="17.8427201">
        <ele>27.5349</ele>
        <time>2014-05-16T17:35:36Z</time>
      </trkpt>
      <trkpt lat="59.8957399" lon="17.8427508">
        <ele>28.0155</ele>
        <time>2014-05-16T17:35:37Z</time>
      </trkpt>
      <trkpt lat="59.8956611" lon="17.8427874">
        <ele>28.0155</ele>
        <time>2014-05-16T17:35:38Z</time>
      </trkpt>
      <trkpt lat="59.895583" lon="17.8428272">
        <ele>28.0155</ele>
        <time>2014-05-16T17:35:39Z</time>
      </trkpt>
      <trkpt lat="59.8955049" lon="17.8428681">
        <ele>28.0155</ele>
        <time>2014-05-16T17:35:40Z</time>
      </trkpt>
      <trkpt lat="59.8954287" lon="17.8429111">
        <ele>28.0155</ele>
        <time>2014-05-16T17:35:41Z</time>
      </trkpt>
      <trkpt lat="59.895357" lon="17.8429538">
        <ele>27.5349</ele>
        <time>2014-05-16T17:35:42Z</time>
      </trkpt>
      <trkpt lat="59.8952878" lon="17.8429916">
        <ele>27.0543</ele>
        <time>2014-05-16T17:35:43Z</time>
      </trkpt>
      <trkpt lat="59.8952127" lon="17.8430263">
        <ele>27.0543</ele>
        <time>2014-05-16T17:35:44Z</time>
      </trkpt>
      <trkpt lat="59.8951349" lon="17.8430548">
        <ele>27.0543</ele>
        <time>2014-05-16T17:35:45Z</time>
      </trkpt>
      <trkpt lat="59.895055" lon="17.8430752">
        <ele>27.0543</ele>
        <time>2014-05-16T17:35:46Z</time>
      </trkpt>
      <trkpt lat="59.8949774" lon="17.8430916">
        <ele>27.5349</ele>
        <time>2014-05-16T17:35:47Z</time>
      </trkpt>
      <trkpt lat="59.8948989" lon="17.8431019">
        <ele>28.0155</ele>
        <time>2014-05-16T17:35:48Z</time>
      </trkpt>
      <trkpt lat="59.8948162" lon="17.8430989">
        <ele>28.0155</ele>
        <time>2014-05-16T17:35:49Z</time>
      </trkpt>
      <trkpt lat="59.8947315" lon="17.843089">
        <ele>28.4962</ele>
        <time>2014-05-16T17:35:50Z</time>
      </trkpt>
      <trkpt lat="59.8946559" lon="17.8430765">
        <ele>28.9769</ele>
        <time>2014-05-16T17:35:51Z</time>
      </trkpt>
      <trkpt lat="59.8945813" lon="17.8430641">
        <ele>29.4575</ele>
        <time>2014-05-16T17:35:52Z</time>
      </trkpt>
      <trkpt lat="59.8945123" lon="17.8430536">
        <ele>29.4575</ele>
        <time>2014-05-16T17:35:53Z</time>
      </trkpt>
      <trkpt lat="59.8944404" lon="17.8430459">
        <ele>29.9381</ele>
        <time>2014-05-16T17:35:54Z</time>
      </trkpt>
      <trkpt lat="59.8943715" lon="17.843033">
        <ele>29.9381</ele>
        <time>2014-05-16T17:35:55Z</time>
      </trkpt>
      <trkpt lat="59.8943031" lon="17.8430205">
        <ele>29.9381</ele>
        <time>2014-05-16T17:35:56Z</time>
      </trkpt>
      <trkpt lat="59.8942383" lon="17.8430157">
        <ele>30.4188</ele>
        <time>2014-05-16T17:35:57Z</time>
      </trkpt>
      <trkpt lat="59.8941737" lon="17.8430102">
        <ele>31.3801</ele>
        <time>2014-05-16T17:35:58Z</time>
      </trkpt>
      <trkpt lat="59.894113" lon="17.843011">
        <ele>31.3801</ele>
        <time>2014-05-16T17:35:59Z</time>
      </trkpt>
      <trkpt lat="59.8940461" lon="17.8430086">
        <ele>31.3801</ele>
        <time>2014-05-16T17:36:00Z</time>
      </trkpt>
      <trkpt lat="59.8939729" lon="17.8430098">
        <ele>32.3416</ele>
        <time>2014-05-16T17:36:01Z</time>
      </trkpt>
      <trkpt lat="59.8939063" lon="17.8430036">
        <ele>32.3416</ele>
        <time>2014-05-16T17:36:02Z</time>
      </trkpt>
      <trkpt lat="59.893847" lon="17.8429967">
        <ele>31.8607</ele>
        <time>2014-05-16T17:36:03Z</time>
      </trkpt>
      <trkpt lat="59.8937861" lon="17.8429896">
        <ele>31.8607</ele>
        <time>2014-05-16T17:36:04Z</time>
      </trkpt>
      <trkpt lat="59.8937287" lon="17.8429773">
        <ele>31.3801</ele>
        <time>2014-05-16T17:36:05Z</time>
      </trkpt>
      <trkpt lat="59.8936673" lon="17.8429651">
        <ele>30.4188</ele>
        <time>2014-05-16T17:36:06Z</time>
      </trkpt>
      <trkpt lat="59.8936038" lon="17.8429506">
        <ele>29.9381</ele>
        <time>2014-05-16T17:36:07Z</time>
      </trkpt>
      <trkpt lat="59.8935393" lon="17.8429312">
        <ele>29.9381</ele>
        <time>2014-05-16T17:36:08Z</time>
      </trkpt>
      <trkpt lat="59.8934735" lon="17.8429123">
        <ele>29.9381</ele>
        <time>2014-05-16T17:36:09Z</time>
      </trkpt>
      <trkpt lat="59.8934054" lon="17.8428895">
        <ele>30.4188</ele>
        <time>2014-05-16T17:36:10Z</time>
      </trkpt>
      <trkpt lat="59.8933433" lon="17.8428649">
        <ele>29.9381</ele>
        <time>2014-05-16T17:36:11Z</time>
      </trkpt>
      <trkpt lat="59.893281" lon="17.8428403">
        <ele>29.4575</ele>
        <time>2014-05-16T17:36:12Z</time>
      </trkpt>
      <trkpt lat="59.8932173" lon="17.842817">
        <ele>29.4575</ele>
        <time>2014-05-16T17:36:13Z</time>
      </trkpt>
      <trkpt lat="59.8931548" lon="17.8427916">
        <ele>29.4575</ele>
        <time>2014-05-16T17:36:14Z</time>
      </trkpt>
      <trkpt lat="59.8930956" lon="17.8427662">
        <ele>28.9769</ele>
        <time>2014-05-16T17:36:15Z</time>
      </trkpt>
      <trkpt lat="59.893036" lon="17.8427406">
        <ele>28.9769</ele>
        <time>2014-05-16T17:36:16Z</time>
      </trkpt>
      <trkpt lat="59.892977" lon="17.8427127">
        <ele>28.9769</ele>
        <time>2014-05-16T17:36:17Z</time>
      </trkpt>
      <trkpt lat="59.8929195" lon="17.8426839">
        <ele>28.9769</ele>
        <time>2014-05-16T17:36:18Z</time>
      </trkpt>
      <trkpt lat="59.892863" lon="17.8426542">
        <ele>28.9769</ele>
        <time>2014-05-16T17:36:19Z</time>
      </trkpt>
      <trkpt lat="59.8928072" lon="17.8426232">
        <ele>28.9769</ele>
        <time>2014-05-16T17:36:20Z</time>
      </trkpt>
      <trkpt lat="59.8927511" lon="17.8425948">
        <ele>28.9769</ele>
        <time>2014-05-16T17:36:21Z</time>
      </trkpt>
      <trkpt lat="59.8926955" lon="17.8425674">
        <ele>28.9769</ele>
        <time>2014-05-16T17:36:22Z</time>
      </trkpt>
      <trkpt lat="59.8926413" lon="17.8425414">
        <ele>28.9769</ele>
        <time>2014-05-16T17:36:23Z</time>
      </trkpt>
      <trkpt lat="59.8925859" lon="17.8425143">
        <ele>28.9769</ele>
        <time>2014-05-16T17:36:24Z</time>
      </trkpt>
      <trkpt lat="59.8925302" lon="17.8424875">
        <ele>28.9769</ele>
        <time>2014-05-16T17:36:25Z</time>
      </trkpt>
      <trkpt lat="59.892474" lon="17.8424606">
        <ele>29.4575</ele>
        <time>2014-05-16T17:36:26Z</time>
      </trkpt>
      <trkpt lat="59.892417" lon="17.8424341">
        <ele>29.4575</ele>
        <time>2014-05-16T17:36:27Z</time>
      </trkpt>
      <trkpt lat="59.8923616" lon="17.8424077">
        <ele>29.9381</ele>
        <time>2014-05-16T17:36:28Z</time>
      </trkpt>
      <trkpt lat="59.8923081" lon="17.8423825">
        <ele>29.9381</ele>
        <time>2014-05-16T17:36:29Z</time>
      </trkpt>
      <trkpt lat="59.8922544" lon="17.8423566">
        <ele>29.9381</ele>
        <time>2014-05-16T17:36:30Z</time>
      </trkpt>
      <trkpt lat="59.8922037" lon="17.8423316">
        <ele>29.9381</ele>
        <time>2014-05-16T17:36:31Z</time>
      </trkpt>
      <trkpt lat="59.8921513" lon="17.8423087">
        <ele>29.9381</ele>
        <time>2014-05-16T17:36:32Z</time>
      </trkpt>
      <trkpt lat="59.8921011" lon="17.8422871">
        <ele>29.9381</ele>
        <time>2014-05-16T17:36:33Z</time>
      </trkpt>
      <trkpt lat="59.8920473" lon="17.8422658">
        <ele>29.9381</ele>
        <time>2014-05-16T17:36:34Z</time>
      </trkpt>
      <trkpt lat="59.8919941" lon="17.8422485">
        <ele>29.9381</ele>
        <time>2014-05-16T17:36:35Z</time>
      </trkpt>
      <trkpt lat="59.8919409" lon="17.842234">
        <ele>29.9381</ele>
        <time>2014-05-16T17:36:36Z</time>
      </trkpt>
      <trkpt lat="59.8918851" lon="17.8422187">
        <ele>29.9381</ele>
        <time>2014-05-16T17:36:37Z</time>
      </trkpt>
      <trkpt lat="59.891829" lon="17.8422068">
        <ele>30.4188</ele>
        <time>2014-05-16T17:36:38Z</time>
      </trkpt>
      <trkpt lat="59.8917726" lon="17.8421979">
        <ele>30.8995</ele>
        <time>2014-05-16T17:36:39Z</time>
      </trkpt>
      <trkpt lat="59.8917163" lon="17.842187">
        <ele>31.3801</ele>
        <time>2014-05-16T17:36:40Z</time>
      </trkpt>
      <trkpt lat="59.8916581" lon="17.842174">
        <ele>31.8607</ele>
        <time>2014-05-16T17:36:41Z</time>
      </trkpt>
      <trkpt lat="59.8916059" lon="17.8421625">
        <ele>31.8607</ele>
        <time>2014-05-16T17:36:42Z</time>
      </trkpt>
      <trkpt lat="59.8915566" lon="17.8421493">
        <ele>31.3801</ele>
        <time>2014-05-16T17:36:43Z</time>
      </trkpt>
      <trkpt lat="59.8915062" lon="17.8421338">
        <ele>31.8607</ele>
        <time>2014-05-16T17:36:44Z</time>
      </trkpt>
      <trkpt lat="59.8914566" lon="17.8421121">
        <ele>31.8607</ele>
        <time>2014-05-16T17:36:45Z</time>
      </trkpt>
      <trkpt lat="59.8914065" lon="17.842088">
        <ele>31.8607</ele>
        <time>2014-05-16T17:36:46Z</time>
      </trkpt>
      <trkpt lat="59.891356" lon="17.8420612">
        <ele>31.8607</ele>
        <time>2014-05-16T17:36:47Z</time>
      </trkpt>
      <trkpt lat="59.8913075" lon="17.8420281">
        <ele>31.3801</ele>
        <time>2014-05-16T17:36:48Z</time>
      </trkpt>
      <trkpt lat="59.891256" lon="17.8419928">
        <ele>31.8607</ele>
        <time>2014-05-16T17:36:49Z</time>
      </trkpt>
      <trkpt lat="59.8912088" lon="17.8419566">
        <ele>31.3801</ele>
        <time>2014-05-16T17:36:50Z</time>
      </trkpt>
      <trkpt lat="59.8911575" lon="17.8419192">
        <ele>31.3801</ele>
        <time>2014-05-16T17:36:51Z</time>
      </trkpt>
      <trkpt lat="59.8911078" lon="17.8418778">
        <ele>31.3801</ele>
        <time>2014-05-16T17:36:52Z</time>
      </trkpt>
      <trkpt lat="59.8910596" lon="17.8418327">
        <ele>31.3801</ele>
        <time>2014-05-16T17:36:53Z</time>
      </trkpt>
      <trkpt lat="59.8910115" lon="17.8417842">
        <ele>31.3801</ele>
        <time>2014-05-16T17:36:54Z</time>
      </trkpt>
      <trkpt lat="59.8909655" lon="17.8417327">
        <ele>30.8995</ele>
        <time>2014-05-16T17:36:55Z</time>
      </trkpt>
      <trkpt lat="59.8909175" lon="17.8416779">
        <ele>30.8995</ele>
        <time>2014-05-16T17:36:56Z</time>
      </trkpt>
      <trkpt lat="59.8908685" lon="17.8416214">
        <ele>31.3801</ele>
        <time>2014-05-16T17:36:57Z</time>
      </trkpt>
      <trkpt lat="59.8908167" lon="17.8415635">
        <ele>31.3801</ele>
        <time>2014-05-16T17:36:58Z</time>
      </trkpt>
      <trkpt lat="59.8907683" lon="17.8414967">
        <ele>31.3801</ele>
        <time>2014-05-16T17:36:59Z</time>
      </trkpt>
      <trkpt lat="59.8907245" lon="17.8414283">
        <ele>30.8995</ele>
        <time>2014-05-16T17:37:00Z</time>
      </trkpt>
      <trkpt lat="59.8906775" lon="17.8413557">
        <ele>30.4188</ele>
        <time>2014-05-16T17:37:01Z</time>
      </trkpt>
      <trkpt lat="59.890631" lon="17.84128">
        <ele>30.4188</ele>
        <time>2014-05-16T17:37:02Z</time>
      </trkpt>
      <trkpt lat="59.8905858" lon="17.8412018">
        <ele>29.9381</ele>
        <time>2014-05-16T17:37:03Z</time>
      </trkpt>
      <trkpt lat="59.8905408" lon="17.8411225">
        <ele>29.4575</ele>
        <time>2014-05-16T17:37:04Z</time>
      </trkpt>
      <trkpt lat="59.8904957" lon="17.8410449">
        <ele>28.9769</ele>
        <time>2014-05-16T17:37:05Z</time>
      </trkpt>
      <trkpt lat="59.8904501" lon="17.8409696">
        <ele>28.4962</ele>
        <time>2014-05-16T17:37:06Z</time>
      </trkpt>
      <trkpt lat="59.8904013" lon="17.8408991">
        <ele>28.0155</ele>
        <time>2014-05-16T17:37:07Z</time>
      </trkpt>
      <trkpt lat="59.8903476" lon="17.8408386">
        <ele>27.5349</ele>
        <time>2014-05-16T17:37:08Z</time>
      </trkpt>
      <trkpt lat="59.8902895" lon="17.8407941">
        <ele>27.5349</ele>
        <time>2014-05-16T17:37:09Z</time>
      </trkpt>
      <trkpt lat="59.8902277" lon="17.8407689">
        <ele>27.5349</ele>
        <time>2014-05-16T17:37:10Z</time>
      </trkpt>
      <trkpt lat="59.8901667" lon="17.8407673">
        <ele>27.0543</ele>
        <time>2014-05-16T17:37:11Z</time>
      </trkpt>
      <trkpt lat="59.8901067" lon="17.8407952">
        <ele>27.0543</ele>
        <time>2014-05-16T17:37:12Z</time>
      </trkpt>
      <trkpt lat="59.89005" lon="17.8408512">
        <ele>27.5349</ele>
        <time>2014-05-16T17:37:13Z</time>
      </trkpt>
      <trkpt lat="59.89" lon="17.8409273">
        <ele>27.5349</ele>
        <time>2014-05-16T17:37:14Z</time>
      </trkpt>
      <trkpt lat="59.8899606" lon="17.8410191">
        <ele>27.5349</ele>
        <time>2014-05-16T17:37:15Z</time>
      </trkpt>
      <trkpt lat="59.8899241" lon="17.8411474">
        <ele>27.5349</ele>
        <time>2014-05-16T17:37:16Z</time>
      </trkpt>
      <trkpt lat="59.8898906" lon="17.8412634">
        <ele>28.0155</ele>
        <time>2014-05-16T17:37:17Z</time>
      </trkpt>
      <trkpt lat="59.8898538" lon="17.8413685">
        <ele>28.0155</ele>
        <time>2014-05-16T17:37:18Z</time>
      </trkpt>
      <trkpt lat="59.8898301" lon="17.8414811">
        <ele>28.0155</ele>
        <time>2014-05-16T17:37:19Z</time>
      </trkpt>
      <trkpt lat="59.8898037" lon="17.8416145">
        <ele>28.0155</ele>
        <time>2014-05-16T17:37:20Z</time>
      </trkpt>
      <trkpt lat="59.8897957" lon="17.8417381">
        <ele>28.4962</ele>
        <time>2014-05-16T17:37:21Z</time>
      </trkpt>
      <trkpt lat="59.889791" lon="17.8418694">
        <ele>28.9769</ele>
        <time>2014-05-16T17:37:22Z</time>
      </trkpt>
      <trkpt lat="59.8897887" lon="17.8420002">
        <ele>29.4575</ele>
        <time>2014-05-16T17:37:23Z</time>
      </trkpt>
      <trkpt lat="59.8897859" lon="17.842126">
        <ele>29.4575</ele>
        <time>2014-05-16T17:37:24Z</time>
      </trkpt>
      <trkpt lat="59.889783" lon="17.842257">
        <ele>29.4575</ele>
        <time>2014-05-16T17:37:25Z</time>
      </trkpt>
      <trkpt lat="59.8897817" lon="17.8423961">
        <ele>29.9381</ele>
        <time>2014-05-16T17:37:26Z</time>
      </trkpt>
      <trkpt lat="59.8897746" lon="17.8425356">
        <ele>29.9381</ele>
        <time>2014-05-16T17:37:27Z</time>
      </trkpt>
      <trkpt lat="59.8897581" lon="17.8426771">
        <ele>29.4575</ele>
        <time>2014-05-16T17:37:28Z</time>
      </trkpt>
      <trkpt lat="59.8897353" lon="17.8428139">
        <ele>29.4575</ele>
        <time>2014-05-16T17:37:29Z</time>
      </trkpt>
      <trkpt lat="59.8897145" lon="17.8429558">
        <ele>29.4575</ele>
        <time>2014-05-16T17:37:30Z</time>
      </trkpt>
      <trkpt lat="59.8896814" lon="17.8430905">
        <ele>28.9769</ele>
        <time>2014-05-16T17:37:31Z</time>
      </trkpt>
      <trkpt lat="59.8896294" lon="17.8432029">
        <ele>28.4962</ele>
        <time>2014-05-16T17:37:32Z</time>
      </trkpt>
      <trkpt lat="59.8895657" lon="17.8432911">
        <ele>28.0155</ele>
        <time>2014-05-16T17:37:33Z</time>
      </trkpt>
      <trkpt lat="59.8894914" lon="17.8433444">
        <ele>27.5349</ele>
        <time>2014-05-16T17:37:34Z</time>
      </trkpt>
      <trkpt lat="59.8894167" lon="17.8433648">
        <ele>26.5736</ele>
        <time>2014-05-16T17:37:35Z</time>
      </trkpt>
      <trkpt lat="59.8893434" lon="17.8433583">
        <ele>26.0929</ele>
        <time>2014-05-16T17:37:36Z</time>
      </trkpt>
      <trkpt lat="59.889268" lon="17.8433251">
        <ele>26.5736</ele>
        <time>2014-05-16T17:37:37Z</time>
      </trkpt>
      <trkpt lat="59.8892017" lon="17.8432737">
        <ele>26.5736</ele>
        <time>2014-05-16T17:37:38Z</time>
      </trkpt>
      <trkpt lat="59.8891416" lon="17.8432174">
        <ele>26.5736</ele>
        <time>2014-05-16T17:37:39Z</time>
      </trkpt>
      <trkpt lat="59.8890806" lon="17.8431682">
        <ele>26.5736</ele>
        <time>2014-05-16T17:37:40Z</time>
      </trkpt>
      <trkpt lat="59.8890168" lon="17.8431281">
        <ele>26.5736</ele>
        <time>2014-05-16T17:37:41Z</time>
      </trkpt>
      <trkpt lat="59.8889523" lon="17.8430931">
        <ele>26.5736</ele>
        <time>2014-05-16T17:37:42Z</time>
      </trkpt>
      <trkpt lat="59.8888847" lon="17.8430683">
        <ele>26.5736</ele>
        <time>2014-05-16T17:37:43Z</time>
      </trkpt>
      <trkpt lat="59.8888143" lon="17.8430527">
        <ele>26.5736</ele>
        <time>2014-05-16T17:37:44Z</time>
      </trkpt>
      <trkpt lat="59.8887451" lon="17.8430413">
        <ele>26.5736</ele>
        <time>2014-05-16T17:37:45Z</time>
      </trkpt>
      <trkpt lat="59.8886763" lon="17.843032">
        <ele>26.0929</ele>
        <time>2014-05-16T17:37:46Z</time>
      </trkpt>
      <trkpt lat="59.8886086" lon="17.8430248">
        <ele>26.0929</ele>
        <time>2014-05-16T17:37:47Z</time>
      </trkpt>
      <trkpt lat="59.8885392" lon="17.8430133">
        <ele>26.0929</ele>
        <time>2014-05-16T17:37:48Z</time>
      </trkpt>
      <trkpt lat="59.8884723" lon="17.8429906">
        <ele>25.6123</ele>
        <time>2014-05-16T17:37:49Z</time>
      </trkpt>
      <trkpt lat="59.8884066" lon="17.84296">
        <ele>25.1317</ele>
        <time>2014-05-16T17:37:50Z</time>
      </trkpt>
      <trkpt lat="59.8883383" lon="17.8429205">
        <ele>25.1317</ele>
        <time>2014-05-16T17:37:51Z</time>
      </trkpt>
      <trkpt lat="59.8882703" lon="17.8428738">
        <ele>24.651</ele>
        <time>2014-05-16T17:37:52Z</time>
      </trkpt>
      <trkpt lat="59.8882035" lon="17.8428197">
        <ele>24.651</ele>
        <time>2014-05-16T17:37:53Z</time>
      </trkpt>
      <trkpt lat="59.8881357" lon="17.842761">
        <ele>24.651</ele>
        <time>2014-05-16T17:37:54Z</time>
      </trkpt>
      <trkpt lat="59.8880679" lon="17.8426977">
        <ele>24.651</ele>
        <time>2014-05-16T17:37:55Z</time>
      </trkpt>
      <trkpt lat="59.8880005" lon="17.8426309">
        <ele>24.1703</ele>
        <time>2014-05-16T17:37:56Z</time>
      </trkpt>
      <trkpt lat="59.8879337" lon="17.8425595">
        <ele>24.1703</ele>
        <time>2014-05-16T17:37:57Z</time>
      </trkpt>
      <trkpt lat="59.8878682" lon="17.8424834">
        <ele>24.1703</ele>
        <time>2014-05-16T17:37:58Z</time>
      </trkpt>
      <trkpt lat="59.8878036" lon="17.8424036">
        <ele>24.1703</ele>
        <time>2014-05-16T17:37:59Z</time>
      </trkpt>
      <trkpt lat="59.887739" lon="17.8423207">
        <ele>24.651</ele>
        <time>2014-05-16T17:38:00Z</time>
      </trkpt>
      <trkpt lat="59.8876767" lon="17.8422346">
        <ele>24.651</ele>
        <time>2014-05-16T17:38:01Z</time>
      </trkpt>
      <trkpt lat="59.8876171" lon="17.8421451">
        <ele>24.651</ele>
        <time>2014-05-16T17:38:02Z</time>
      </trkpt>
      <trkpt lat="59.8875612" lon="17.8420513">
        <ele>24.651</ele>
        <time>2014-05-16T17:38:03Z</time>
      </trkpt>
      <trkpt lat="59.8875102" lon="17.8419535">
        <ele>25.1317</ele>
        <time>2014-05-16T17:38:04Z</time>
      </trkpt>
      <trkpt lat="59.8874643" lon="17.8418535">
        <ele>25.1317</ele>
        <time>2014-05-16T17:38:05Z</time>
      </trkpt>
      <trkpt lat="59.8874229" lon="17.8417519">
        <ele>25.6123</ele>
        <time>2014-05-16T17:38:06Z</time>
      </trkpt>
      <trkpt lat="59.887384" lon="17.8416514">
        <ele>25.6123</ele>
        <time>2014-05-16T17:38:07Z</time>
      </trkpt>
      <trkpt lat="59.8873435" lon="17.8415504">
        <ele>25.1317</ele>
        <time>2014-05-16T17:38:08Z</time>
      </trkpt>
      <trkpt lat="59.8873012" lon="17.8414463">
        <ele>25.1317</ele>
        <time>2014-05-16T17:38:09Z</time>
      </trkpt>
      <trkpt lat="59.8872553" lon="17.8413466">
        <ele>24.651</ele>
        <time>2014-05-16T17:38:10Z</time>
      </trkpt>
      <trkpt lat="59.887203" lon="17.841256">
        <ele>24.651</ele>
        <time>2014-05-16T17:38:11Z</time>
      </trkpt>
      <trkpt lat="59.8871453" lon="17.8411759">
        <ele>24.651</ele>
        <time>2014-05-16T17:38:12Z</time>
      </trkpt>
      <trkpt lat="59.8870842" lon="17.8411065">
        <ele>24.1703</ele>
        <time>2014-05-16T17:38:13Z</time>
      </trkpt>
      <trkpt lat="59.8870194" lon="17.841052">
        <ele>24.1703</ele>
        <time>2014-05-16T17:38:14Z</time>
      </trkpt>
      <trkpt lat="59.8869509" lon="17.841016">
        <ele>24.1703</ele>
        <time>2014-05-16T17:38:15Z</time>
      </trkpt>
      <trkpt lat="59.8868808" lon="17.8409972">
        <ele>24.1703</ele>
        <time>2014-05-16T17:38:16Z</time>
      </trkpt>
      <trkpt lat="59.8868106" lon="17.8409925">
        <ele>24.1703</ele>
        <time>2014-05-16T17:38:17Z</time>
      </trkpt>
      <trkpt lat="59.8867412" lon="17.8409998">
        <ele>23.6896</ele>
        <time>2014-05-16T17:38:18Z</time>
      </trkpt>
      <trkpt lat="59.8866738" lon="17.8410139">
        <ele>23.6896</ele>
        <time>2014-05-16T17:38:19Z</time>
      </trkpt>
      <trkpt lat="59.8866101" lon="17.841038">
        <ele>23.209</ele>
        <time>2014-05-16T17:38:20Z</time>
      </trkpt>
      <trkpt lat="59.8865498" lon="17.8410703">
        <ele>22.7283</ele>
        <time>2014-05-16T17:38:21Z</time>
      </trkpt>
      <trkpt lat="59.8864894" lon="17.8411065">
        <ele>22.7283</ele>
        <time>2014-05-16T17:38:22Z</time>
      </trkpt>
      <trkpt lat="59.8864288" lon="17.8411391">
        <ele>22.2476</ele>
        <time>2014-05-16T17:38:23Z</time>
      </trkpt>
      <trkpt lat="59.8863693" lon="17.8411722">
        <ele>21.767</ele>
        <time>2014-05-16T17:38:24Z</time>
      </trkpt>
      <trkpt lat="59.886311" lon="17.8412014">
        <ele>21.2864</ele>
        <time>2014-05-16T17:38:25Z</time>
      </trkpt>
      <trkpt lat="59.8862527" lon="17.8412265">
        <ele>20.8057</ele>
        <time>2014-05-16T17:38:26Z</time>
      </trkpt>
      <trkpt lat="59.8861934" lon="17.8412504">
        <ele>20.325</ele>
        <time>2014-05-16T17:38:27Z</time>
      </trkpt>
      <trkpt lat="59.8861349" lon="17.8412733">
        <ele>19.3638</ele>
        <time>2014-05-16T17:38:28Z</time>
      </trkpt>
      <trkpt lat="59.8860751" lon="17.8412878">
        <ele>19.3638</ele>
        <time>2014-05-16T17:38:29Z</time>
      </trkpt>
      <trkpt lat="59.8860144" lon="17.8413003">
        <ele>19.3638</ele>
        <time>2014-05-16T17:38:30Z</time>
      </trkpt>
      <trkpt lat="59.8859455" lon="17.8413075">
        <ele>20.325</ele>
        <time>2014-05-16T17:38:31Z</time>
      </trkpt>
      <trkpt lat="59.885885" lon="17.8413168">
        <ele>19.8444</ele>
        <time>2014-05-16T17:38:32Z</time>
      </trkpt>
      <trkpt lat="59.8858238" lon="17.841322">
        <ele>19.3638</ele>
        <time>2014-05-16T17:38:33Z</time>
      </trkpt>
      <trkpt lat="59.8857593" lon="17.8413247">
        <ele>19.8444</ele>
        <time>2014-05-16T17:38:34Z</time>
      </trkpt>
      <trkpt lat="59.8856965" lon="17.8413339">
        <ele>19.3638</ele>
        <time>2014-05-16T17:38:35Z</time>
      </trkpt>
      <trkpt lat="59.8856341" lon="17.8413451">
        <ele>19.3638</ele>
        <time>2014-05-16T17:38:36Z</time>
      </trkpt>
      <trkpt lat="59.8855674" lon="17.841351">
        <ele>19.8444</ele>
        <time>2014-05-16T17:38:37Z</time>
      </trkpt>
      <trkpt lat="59.8855052" lon="17.8413557">
        <ele>20.325</ele>
        <time>2014-05-16T17:38:38Z</time>
      </trkpt>
      <trkpt lat="59.885444" lon="17.8413583">
        <ele>20.325</ele>
        <time>2014-05-16T17:38:39Z</time>
      </trkpt>
      <trkpt lat="59.8853161" lon="17.8413668">
        <ele>20.8057</ele>
        <time>2014-05-16T17:38:41Z</time>
      </trkpt>
      <trkpt lat="59.8852515" lon="17.8413706">
        <ele>20.8057</ele>
        <time>2014-05-16T17:38:42Z</time>
      </trkpt>
      <trkpt lat="59.8851851" lon="17.8413768">
        <ele>20.325</ele>
        <time>2014-05-16T17:38:43Z</time>
      </trkpt>
      <trkpt lat="59.8851177" lon="17.8413836">
        <ele>19.8444</ele>
        <time>2014-05-16T17:38:44Z</time>
      </trkpt>
      <trkpt lat="59.8850473" lon="17.8413865">
        <ele>19.3638</ele>
        <time>2014-05-16T17:38:45Z</time>
      </trkpt>
      <trkpt lat="59.8849763" lon="17.841384">
        <ele>19.3638</ele>
        <time>2014-05-16T17:38:46Z</time>
      </trkpt>
      <trkpt lat="59.8849054" lon="17.8413752">
        <ele>19.3638</ele>
        <time>2014-05-16T17:38:47Z</time>
      </trkpt>
      <trkpt lat="59.8848362" lon="17.8413587">
        <ele>19.3638</ele>
        <time>2014-05-16T17:38:48Z</time>
      </trkpt>
      <trkpt lat="59.8847689" lon="17.8413339">
        <ele>19.3638</ele>
        <time>2014-05-16T17:38:49Z</time>
      </trkpt>
      <trkpt lat="59.8847036" lon="17.8413031">
        <ele>19.3638</ele>
        <time>2014-05-16T17:38:50Z</time>
      </trkpt>
      <trkpt lat="59.8846404" lon="17.8412656">
        <ele>19.3638</ele>
        <time>2014-05-16T17:38:51Z</time>
      </trkpt>
      <trkpt lat="59.8845789" lon="17.8412228">
        <ele>19.3638</ele>
        <time>2014-05-16T17:38:52Z</time>
      </trkpt>
      <trkpt lat="59.8845189" lon="17.8411758">
        <ele>19.8444</ele>
        <time>2014-05-16T17:38:53Z</time>
      </trkpt>
      <trkpt lat="59.8844603" lon="17.8411255">
        <ele>19.8444</ele>
        <time>2014-05-16T17:38:54Z</time>
      </trkpt>
      <trkpt lat="59.8844013" lon="17.8410721">
        <ele>19.8444</ele>
        <time>2014-05-16T17:38:55Z</time>
      </trkpt>
      <trkpt lat="59.8843433" lon="17.8410153">
        <ele>20.325</ele>
        <time>2014-05-16T17:38:56Z</time>
      </trkpt>
      <trkpt lat="59.8842858" lon="17.8409563">
        <ele>20.325</ele>
        <time>2014-05-16T17:38:57Z</time>
      </trkpt>
      <trkpt lat="59.8842308" lon="17.8408931">
        <ele>20.325</ele>
        <time>2014-05-16T17:38:58Z</time>
      </trkpt>
      <trkpt lat="59.8841766" lon="17.8408255">
        <ele>20.8057</ele>
        <time>2014-05-16T17:38:59Z</time>
      </trkpt>
      <trkpt lat="59.8841217" lon="17.8407571">
        <ele>20.8057</ele>
        <time>2014-05-16T17:39:00Z</time>
      </trkpt>
      <trkpt lat="59.8840671" lon="17.84069">
        <ele>20.8057</ele>
        <time>2014-05-16T17:39:01Z</time>
      </trkpt>
      <trkpt lat="59.8840138" lon="17.8406233">
        <ele>21.2864</ele>
        <time>2014-05-16T17:39:02Z</time>
      </trkpt>
      <trkpt lat="59.8839613" lon="17.8405568">
        <ele>21.2864</ele>
        <time>2014-05-16T17:39:03Z</time>
      </trkpt>
      <trkpt lat="59.8839102" lon="17.8404905">
        <ele>21.767</ele>
        <time>2014-05-16T17:39:04Z</time>
      </trkpt>
      <trkpt lat="59.8838601" lon="17.8404264">
        <ele>21.767</ele>
        <time>2014-05-16T17:39:05Z</time>
      </trkpt>
      <trkpt lat="59.8838111" lon="17.8403647">
        <ele>22.2476</ele>
        <time>2014-05-16T17:39:06Z</time>
      </trkpt>
      <trkpt lat="59.8837637" lon="17.8403036">
        <ele>22.7283</ele>
        <time>2014-05-16T17:39:07Z</time>
      </trkpt>
      <trkpt lat="59.8837201" lon="17.8402455">
        <ele>22.7283</ele>
        <time>2014-05-16T17:39:08Z</time>
      </trkpt>
      <trkpt lat="59.8836812" lon="17.8401907">
        <ele>23.209</ele>
        <time>2014-05-16T17:39:09Z</time>
      </trkpt>
      <trkpt lat="59.8836443" lon="17.8401374">
        <ele>23.209</ele>
        <time>2014-05-16T17:39:10Z</time>
      </trkpt>
      <trkpt lat="59.8836068" lon="17.840086">
        <ele>23.209</ele>
        <time>2014-05-16T17:39:11Z</time>
      </trkpt>
      <trkpt lat="59.8835684" lon="17.8400341">
        <ele>23.6896</ele>
        <time>2014-05-16T17:39:12Z</time>
      </trkpt>
      <trkpt lat="59.8835307" lon="17.8399804">
        <ele>23.6896</ele>
        <time>2014-05-16T17:39:13Z</time>
      </trkpt>
      <trkpt lat="59.8834933" lon="17.8399283">
        <ele>23.6896</ele>
        <time>2014-05-16T17:39:14Z</time>
      </trkpt>
      <trkpt lat="59.8834552" lon="17.8398763">
        <ele>23.6896</ele>
        <time>2014-05-16T17:39:15Z</time>
      </trkpt>
      <trkpt lat="59.8834175" lon="17.8398234">
        <ele>24.1703</ele>
        <time>2014-05-16T17:39:16Z</time>
      </trkpt>
      <trkpt lat="59.8833813" lon="17.8397705">
        <ele>24.1703</ele>
        <time>2014-05-16T17:39:17Z</time>
      </trkpt>
      <trkpt lat="59.883342" lon="17.8397171">
        <ele>24.651</ele>
        <time>2014-05-16T17:39:18Z</time>
      </trkpt>
      <trkpt lat="59.8833021" lon="17.8396644">
        <ele>25.1317</ele>
        <time>2014-05-16T17:39:19Z</time>
      </trkpt>
      <trkpt lat="59.8832648" lon="17.8396144">
        <ele>25.6123</ele>
        <time>2014-05-16T17:39:20Z</time>
      </trkpt>
      <trkpt lat="59.883229" lon="17.8395649">
        <ele>25.6123</ele>
        <time>2014-05-16T17:39:21Z</time>
      </trkpt>
      <trkpt lat="59.8831933" lon="17.8395158">
        <ele>26.0929</ele>
        <time>2014-05-16T17:39:22Z</time>
      </trkpt>
      <trkpt lat="59.883156" lon="17.8394691">
        <ele>26.5736</ele>
        <time>2014-05-16T17:39:23Z</time>
      </trkpt>
      <trkpt lat="59.8831196" lon="17.8394264">
        <ele>27.0543</ele>
        <time>2014-05-16T17:39:24Z</time>
      </trkpt>
      <trkpt lat="59.8830851" lon="17.8393834">
        <ele>28.0155</ele>
        <time>2014-05-16T17:39:25Z</time>
      </trkpt>
      <trkpt lat="59.8830527" lon="17.8393397">
        <ele>28.0155</ele>
        <time>2014-05-16T17:39:26Z</time>
      </trkpt>
      <trkpt lat="59.8830194" lon="17.839298">
        <ele>28.4962</ele>
        <time>2014-05-16T17:39:27Z</time>
      </trkpt>
      <trkpt lat="59.882987" lon="17.8392593">
        <ele>28.9769</ele>
        <time>2014-05-16T17:39:28Z</time>
      </trkpt>
      <trkpt lat="59.8829556" lon="17.8392215">
        <ele>29.4575</ele>
        <time>2014-05-16T17:39:29Z</time>
      </trkpt>
      <trkpt lat="59.8829255" lon="17.8391831">
        <ele>29.4575</ele>
        <time>2014-05-16T17:39:30Z</time>
      </trkpt>
      <trkpt lat="59.8828947" lon="17.8391485">
        <ele>29.9381</ele>
        <time>2014-05-16T17:39:31Z</time>
      </trkpt>
      <trkpt lat="59.8828631" lon="17.8391164">
        <ele>29.9381</ele>
        <time>2014-05-16T17:39:32Z</time>
      </trkpt>
      <trkpt lat="59.8828292" lon="17.8390833">
        <ele>30.4188</ele>
        <time>2014-05-16T17:39:33Z</time>
      </trkpt>
      <trkpt lat="59.8827918" lon="17.8390566">
        <ele>30.4188</ele>
        <time>2014-05-16T17:39:34Z</time>
      </trkpt>
      <trkpt lat="59.882754" lon="17.8390312">
        <ele>30.4188</ele>
        <time>2014-05-16T17:39:35Z</time>
      </trkpt>
      <trkpt lat="59.8827131" lon="17.8390083">
        <ele>30.4188</ele>
        <time>2014-05-16T17:39:36Z</time>
      </trkpt>
      <trkpt lat="59.8826685" lon="17.8389868">
        <ele>30.4188</ele>
        <time>2014-05-16T17:39:37Z</time>
      </trkpt>
      <trkpt lat="59.8826204" lon="17.8389654">
        <ele>29.9381</ele>
        <time>2014-05-16T17:39:38Z</time>
      </trkpt>
      <trkpt lat="59.8825689" lon="17.8389453">
        <ele>29.4575</ele>
        <time>2014-05-16T17:39:39Z</time>
      </trkpt>
      <trkpt lat="59.882512" lon="17.8389297">
        <ele>28.9769</ele>
        <time>2014-05-16T17:39:40Z</time>
      </trkpt>
      <trkpt lat="59.8824518" lon="17.8389139">
        <ele>28.4962</ele>
        <time>2014-05-16T17:39:41Z</time>
      </trkpt>
      <trkpt lat="59.8823887" lon="17.8388945">
        <ele>28.0155</ele>
        <time>2014-05-16T17:39:42Z</time>
      </trkpt>
      <trkpt lat="59.8823234" lon="17.8388717">
        <ele>28.0155</ele>
        <time>2014-05-16T17:39:43Z</time>
      </trkpt>
      <trkpt lat="59.8822557" lon="17.8388417">
        <ele>27.5349</ele>
        <time>2014-05-16T17:39:44Z</time>
      </trkpt>
      <trkpt lat="59.882188" lon="17.8388008">
        <ele>27.0543</ele>
        <time>2014-05-16T17:39:45Z</time>
      </trkpt>
      <trkpt lat="59.8821206" lon="17.838749">
        <ele>26.5736</ele>
        <time>2014-05-16T17:39:46Z</time>
      </trkpt>
      <trkpt lat="59.8820558" lon="17.8386822">
        <ele>26.5736</ele>
        <time>2014-05-16T17:39:47Z</time>
      </trkpt>
      <trkpt lat="59.8819947" lon="17.8386045">
        <ele>26.0929</ele>
        <time>2014-05-16T17:39:48Z</time>
      </trkpt>
      <trkpt lat="59.8819356" lon="17.8385227">
        <ele>26.0929</ele>
        <time>2014-05-16T17:39:49Z</time>
      </trkpt>
      <trkpt lat="59.8818776" lon="17.8384406">
        <ele>25.6123</ele>
        <time>2014-05-16T17:39:50Z</time>
      </trkpt>
      <trkpt lat="59.8818185" lon="17.8383589">
        <ele>25.6123</ele>
        <time>2014-05-16T17:39:51Z</time>
      </trkpt>
      <trkpt lat="59.8817631" lon="17.8382767">
        <ele>25.1317</ele>
        <time>2014-05-16T17:39:52Z</time>
      </trkpt>
      <trkpt lat="59.8817103" lon="17.8381914">
        <ele>24.651</ele>
        <time>2014-05-16T17:39:53Z</time>
      </trkpt>
      <trkpt lat="59.881658" lon="17.8381057">
        <ele>24.651</ele>
        <time>2014-05-16T17:39:54Z</time>
      </trkpt>
      <trkpt lat="59.8816051" lon="17.8380197">
        <ele>24.1703</ele>
        <time>2014-05-16T17:39:55Z</time>
      </trkpt>
      <trkpt lat="59.8815529" lon="17.8379392">
        <ele>24.1703</ele>
        <time>2014-05-16T17:39:56Z</time>
      </trkpt>
      <trkpt lat="59.8815001" lon="17.837859">
        <ele>24.1703</ele>
        <time>2014-05-16T17:39:57Z</time>
      </trkpt>
      <trkpt lat="59.8814456" lon="17.8377783">
        <ele>24.1703</ele>
        <time>2014-05-16T17:39:58Z</time>
      </trkpt>
      <trkpt lat="59.8813885" lon="17.8377037">
        <ele>24.651</ele>
        <time>2014-05-16T17:39:59Z</time>
      </trkpt>
      <trkpt lat="59.8813311" lon="17.8376312">
        <ele>25.1317</ele>
        <time>2014-05-16T17:40:00Z</time>
      </trkpt>
      <trkpt lat="59.8812751" lon="17.8375571">
        <ele>25.1317</ele>
        <time>2014-05-16T17:40:01Z</time>
      </trkpt>
      <trkpt lat="59.8812202" lon="17.837482">
        <ele>25.6123</ele>
        <time>2014-05-16T17:40:02Z</time>
      </trkpt>
      <trkpt lat="59.8811689" lon="17.8374073">
        <ele>25.6123</ele>
        <time>2014-05-16T17:40:03Z</time>
      </trkpt>
      <trkpt lat="59.881119" lon="17.8373322">
        <ele>25.1317</ele>
        <time>2014-05-16T17:40:04Z</time>
      </trkpt>
      <trkpt lat="59.881071" lon="17.8372559">
        <ele>25.1317</ele>
        <time>2014-05-16T17:40:05Z</time>
      </trkpt>
      <trkpt lat="59.8810252" lon="17.8371784">
        <ele>25.1317</ele>
        <time>2014-05-16T17:40:06Z</time>
      </trkpt>
      <trkpt lat="59.8809824" lon="17.8370998">
        <ele>25.1317</ele>
        <time>2014-05-16T17:40:07Z</time>
      </trkpt>
      <trkpt lat="59.880941" lon="17.8370216">
        <ele>24.651</ele>
        <time>2014-05-16T17:40:08Z</time>
      </trkpt>
      <trkpt lat="59.8808527" lon="17.8368744">
        <ele>24.651</ele>
        <time>2014-05-16T17:40:10Z</time>
      </trkpt>
      <trkpt lat="59.8808056" lon="17.8368021">
        <ele>24.651</ele>
        <time>2014-05-16T17:40:11Z</time>
      </trkpt>
      <trkpt lat="59.8807579" lon="17.8367266">
        <ele>24.651</ele>
        <time>2014-05-16T17:40:12Z</time>
      </trkpt>
      <trkpt lat="59.8807085" lon="17.8366495">
        <ele>24.651</ele>
        <time>2014-05-16T17:40:13Z</time>
      </trkpt>
      <trkpt lat="59.8806572" lon="17.8365718">
        <ele>24.651</ele>
        <time>2014-05-16T17:40:14Z</time>
      </trkpt>
      <trkpt lat="59.8806048" lon="17.8364951">
        <ele>24.651</ele>
        <time>2014-05-16T17:40:15Z</time>
      </trkpt>
      <trkpt lat="59.8805505" lon="17.8364201">
        <ele>24.651</ele>
        <time>2014-05-16T17:40:16Z</time>
      </trkpt>
      <trkpt lat="59.8804955" lon="17.8363474">
        <ele>24.651</ele>
        <time>2014-05-16T17:40:17Z</time>
      </trkpt>
      <trkpt lat="59.880439" lon="17.8362786">
        <ele>24.651</ele>
        <time>2014-05-16T17:40:18Z</time>
      </trkpt>
      <trkpt lat="59.880381" lon="17.8362139">
        <ele>24.651</ele>
        <time>2014-05-16T17:40:19Z</time>
      </trkpt>
      <trkpt lat="59.8803228" lon="17.8361517">
        <ele>24.651</ele>
        <time>2014-05-16T17:40:20Z</time>
      </trkpt>
      <trkpt lat="59.880265" lon="17.8360914">
        <ele>24.651</ele>
        <time>2014-05-16T17:40:21Z</time>
      </trkpt>
      <trkpt lat="59.8802084" lon="17.8360314">
        <ele>25.1317</ele>
        <time>2014-05-16T17:40:22Z</time>
      </trkpt>
      <trkpt lat="59.8801515" lon="17.835973">
        <ele>25.1317</ele>
        <time>2014-05-16T17:40:23Z</time>
      </trkpt>
      <trkpt lat="59.8800945" lon="17.8359207">
        <ele>25.6123</ele>
        <time>2014-05-16T17:40:24Z</time>
      </trkpt>
      <trkpt lat="59.8800382" lon="17.8358747">
        <ele>25.6123</ele>
        <time>2014-05-16T17:40:25Z</time>
      </trkpt>
      <trkpt lat="59.8799837" lon="17.8358347">
        <ele>25.6123</ele>
        <time>2014-05-16T17:40:26Z</time>
      </trkpt>
      <trkpt lat="59.8799295" lon="17.8358016">
        <ele>26.0929</ele>
        <time>2014-05-16T17:40:27Z</time>
      </trkpt>
      <trkpt lat="59.879877" lon="17.8357772">
        <ele>26.0929</ele>
        <time>2014-05-16T17:40:28Z</time>
      </trkpt>
      <trkpt lat="59.8798226" lon="17.8357596">
        <ele>26.0929</ele>
        <time>2014-05-16T17:40:29Z</time>
      </trkpt>
      <trkpt lat="59.8797651" lon="17.8357513">
        <ele>26.0929</ele>
        <time>2014-05-16T17:40:30Z</time>
      </trkpt>
      <trkpt lat="59.8797048" lon="17.8357495">
        <ele>26.0929</ele>
        <time>2014-05-16T17:40:31Z</time>
      </trkpt>
      <trkpt lat="59.8796399" lon="17.8357497">
        <ele>25.1317</ele>
        <time>2014-05-16T17:40:32Z</time>
      </trkpt>
      <trkpt lat="59.8795719" lon="17.8357478">
        <ele>25.1317</ele>
        <time>2014-05-16T17:40:33Z</time>
      </trkpt>
      <trkpt lat="59.879502" lon="17.8357433">
        <ele>24.1703</ele>
        <time>2014-05-16T17:40:34Z</time>
      </trkpt>
      <trkpt lat="59.8794289" lon="17.8357385">
        <ele>24.1703</ele>
        <time>2014-05-16T17:40:35Z</time>
      </trkpt>
      <trkpt lat="59.8793554" lon="17.8357332">
        <ele>23.6896</ele>
        <time>2014-05-16T17:40:36Z</time>
      </trkpt>
      <trkpt lat="59.8792796" lon="17.8357255">
        <ele>24.1703</ele>
        <time>2014-05-16T17:40:37Z</time>
      </trkpt>
      <trkpt lat="59.8792087" lon="17.8357165">
        <ele>24.651</ele>
        <time>2014-05-16T17:40:38Z</time>
      </trkpt>
      <trkpt lat="59.8791393" lon="17.8357042">
        <ele>25.6123</ele>
        <time>2014-05-16T17:40:39Z</time>
      </trkpt>
      <trkpt lat="59.8790732" lon="17.8356875">
        <ele>26.0929</ele>
        <time>2014-05-16T17:40:40Z</time>
      </trkpt>
      <trkpt lat="59.8790117" lon="17.8356664">
        <ele>26.0929</ele>
        <time>2014-05-16T17:40:41Z</time>
      </trkpt>
      <trkpt lat="59.8789507" lon="17.8356421">
        <ele>26.0929</ele>
        <time>2014-05-16T17:40:42Z</time>
      </trkpt>
      <trkpt lat="59.8788898" lon="17.8356151">
        <ele>26.0929</ele>
        <time>2014-05-16T17:40:43Z</time>
      </trkpt>
      <trkpt lat="59.8788296" lon="17.835584">
        <ele>25.6123</ele>
        <time>2014-05-16T17:40:44Z</time>
      </trkpt>
      <trkpt lat="59.8787639" lon="17.8355463">
        <ele>26.0929</ele>
        <time>2014-05-16T17:40:45Z</time>
      </trkpt>
      <trkpt lat="59.8786966" lon="17.8355085">
        <ele>26.5736</ele>
        <time>2014-05-16T17:40:46Z</time>
      </trkpt>
      <trkpt lat="59.8786317" lon="17.8354647">
        <ele>26.0929</ele>
        <time>2014-05-16T17:40:47Z</time>
      </trkpt>
      <trkpt lat="59.8785681" lon="17.8354149">
        <ele>26.0929</ele>
        <time>2014-05-16T17:40:48Z</time>
      </trkpt>
      <trkpt lat="59.8785026" lon="17.8353597">
        <ele>26.5736</ele>
        <time>2014-05-16T17:40:49Z</time>
      </trkpt>
      <trkpt lat="59.8784364" lon="17.8353094">
        <ele>26.5736</ele>
        <time>2014-05-16T17:40:50Z</time>
      </trkpt>
      <trkpt lat="59.8783735" lon="17.8352559">
        <ele>26.5736</ele>
        <time>2014-05-16T17:40:51Z</time>
      </trkpt>
      <trkpt lat="59.8783119" lon="17.8352007">
        <ele>26.0929</ele>
        <time>2014-05-16T17:40:52Z</time>
      </trkpt>
      <trkpt lat="59.8782489" lon="17.8351438">
        <ele>26.0929</ele>
        <time>2014-05-16T17:40:53Z</time>
      </trkpt>
      <trkpt lat="59.8781882" lon="17.8350821">
        <ele>26.0929</ele>
        <time>2014-05-16T17:40:54Z</time>
      </trkpt>
      <trkpt lat="59.8781293" lon="17.8350199">
        <ele>26.0929</ele>
        <time>2014-05-16T17:40:55Z</time>
      </trkpt>
      <trkpt lat="59.8780707" lon="17.8349614">
        <ele>26.0929</ele>
        <time>2014-05-16T17:40:56Z</time>
      </trkpt>
      <trkpt lat="59.8780143" lon="17.8348983">
        <ele>25.6123</ele>
        <time>2014-05-16T17:40:57Z</time>
      </trkpt>
      <trkpt lat="59.8779582" lon="17.8348366">
        <ele>25.6123</ele>
        <time>2014-05-16T17:40:58Z</time>
      </trkpt>
      <trkpt lat="59.8779002" lon="17.8347784">
        <ele>26.0929</ele>
        <time>2014-05-16T17:40:59Z</time>
      </trkpt>
      <trkpt lat="59.8778459" lon="17.8347141">
        <ele>26.0929</ele>
        <time>2014-05-16T17:41:00Z</time>
      </trkpt>
      <trkpt lat="59.877793" lon="17.8346477">
        <ele>25.6123</ele>
        <time>2014-05-16T17:41:01Z</time>
      </trkpt>
      <trkpt lat="59.8777403" lon="17.8345811">
        <ele>25.6123</ele>
        <time>2014-05-16T17:41:02Z</time>
      </trkpt>
      <trkpt lat="59.8776875" lon="17.8345138">
        <ele>25.6123</ele>
        <time>2014-05-16T17:41:03Z</time>
      </trkpt>
      <trkpt lat="59.8776331" lon="17.8344453">
        <ele>25.6123</ele>
        <time>2014-05-16T17:41:04Z</time>
      </trkpt>
      <trkpt lat="59.8775791" lon="17.8343759">
        <ele>25.1317</ele>
        <time>2014-05-16T17:41:05Z</time>
      </trkpt>
      <trkpt lat="59.8775251" lon="17.8343061">
        <ele>25.1317</ele>
        <time>2014-05-16T17:41:06Z</time>
      </trkpt>
      <trkpt lat="59.8774708" lon="17.8342366">
        <ele>25.1317</ele>
        <time>2014-05-16T17:41:07Z</time>
      </trkpt>
      <trkpt lat="59.8774169" lon="17.8341657">
        <ele>25.1317</ele>
        <time>2014-05-16T17:41:08Z</time>
      </trkpt>
      <trkpt lat="59.877363" lon="17.8340947">
        <ele>25.1317</ele>
        <time>2014-05-16T17:41:09Z</time>
      </trkpt>
      <trkpt lat="59.8773085" lon="17.8340243">
        <ele>25.1317</ele>
        <time>2014-05-16T17:41:10Z</time>
      </trkpt>
      <trkpt lat="59.8772538" lon="17.8339559">
        <ele>25.1317</ele>
        <time>2014-05-16T17:41:11Z</time>
      </trkpt>
      <trkpt lat="59.8771985" lon="17.8338902">
        <ele>25.1317</ele>
        <time>2014-05-16T17:41:12Z</time>
      </trkpt>
      <trkpt lat="59.8771425" lon="17.833829">
        <ele>25.1317</ele>
        <time>2014-05-16T17:41:13Z</time>
      </trkpt>
      <trkpt lat="59.8770859" lon="17.8337735">
        <ele>25.6123</ele>
        <time>2014-05-16T17:41:14Z</time>
      </trkpt>
      <trkpt lat="59.877029" lon="17.8337229">
        <ele>25.6123</ele>
        <time>2014-05-16T17:41:15Z</time>
      </trkpt>
      <trkpt lat="59.8769723" lon="17.8336756">
        <ele>25.6123</ele>
        <time>2014-05-16T17:41:16Z</time>
      </trkpt>
      <trkpt lat="59.8769164" lon="17.8336314">
        <ele>25.6123</ele>
        <time>2014-05-16T17:41:17Z</time>
      </trkpt>
      <trkpt lat="59.8768617" lon="17.8335906">
        <ele>26.0929</ele>
        <time>2014-05-16T17:41:18Z</time>
      </trkpt>
      <trkpt lat="59.8768089" lon="17.8335534">
        <ele>26.0929</ele>
        <time>2014-05-16T17:41:19Z</time>
      </trkpt>
      <trkpt lat="59.8767576" lon="17.8335205">
        <ele>26.0929</ele>
        <time>2014-05-16T17:41:20Z</time>
      </trkpt>
      <trkpt lat="59.8767081" lon="17.8334902">
        <ele>26.5736</ele>
        <time>2014-05-16T17:41:21Z</time>
      </trkpt>
      <trkpt lat="59.8766607" lon="17.8334629">
        <ele>26.5736</ele>
        <time>2014-05-16T17:41:22Z</time>
      </trkpt>
      <trkpt lat="59.8766142" lon="17.8334363">
        <ele>26.5736</ele>
        <time>2014-05-16T17:41:23Z</time>
      </trkpt>
      <trkpt lat="59.876568" lon="17.8334076">
        <ele>27.0543</ele>
        <time>2014-05-16T17:41:24Z</time>
      </trkpt>
      <trkpt lat="59.8765255" lon="17.8333763">
        <ele>26.5736</ele>
        <time>2014-05-16T17:41:25Z</time>
      </trkpt>
      <trkpt lat="59.8764794" lon="17.8333424">
        <ele>26.5736</ele>
        <time>2014-05-16T17:41:26Z</time>
      </trkpt>
      <trkpt lat="59.8764287" lon="17.8333103">
        <ele>26.0929</ele>
        <time>2014-05-16T17:41:27Z</time>
      </trkpt>
      <trkpt lat="59.8763769" lon="17.8332778">
        <ele>26.5736</ele>
        <time>2014-05-16T17:41:28Z</time>
      </trkpt>
      <trkpt lat="59.876321" lon="17.8332422">
        <ele>26.0929</ele>
        <time>2014-05-16T17:41:29Z</time>
      </trkpt>
      <trkpt lat="59.8762623" lon="17.8332017">
        <ele>26.0929</ele>
        <time>2014-05-16T17:41:30Z</time>
      </trkpt>
      <trkpt lat="59.8762013" lon="17.8331592">
        <ele>25.6123</ele>
        <time>2014-05-16T17:41:31Z</time>
      </trkpt>
      <trkpt lat="59.8761392" lon="17.8331139">
        <ele>25.6123</ele>
        <time>2014-05-16T17:41:32Z</time>
      </trkpt>
      <trkpt lat="59.8760805" lon="17.8330629">
        <ele>25.1317</ele>
        <time>2014-05-16T17:41:33Z</time>
      </trkpt>
      <trkpt lat="59.8760204" lon="17.8330114">
        <ele>24.651</ele>
        <time>2014-05-16T17:41:34Z</time>
      </trkpt>
      <trkpt lat="59.8759625" lon="17.8329575">
        <ele>24.1703</ele>
        <time>2014-05-16T17:41:35Z</time>
      </trkpt>
      <trkpt lat="59.8759065" lon="17.8329024">
        <ele>24.1703</ele>
        <time>2014-05-16T17:41:36Z</time>
      </trkpt>
      <trkpt lat="59.8758474" lon="17.8328447">
        <ele>24.651</ele>
        <time>2014-05-16T17:41:37Z</time>
      </trkpt>
      <trkpt lat="59.8757898" lon="17.8327873">
        <ele>25.1317</ele>
        <time>2014-05-16T17:41:38Z</time>
      </trkpt>
      <trkpt lat="59.8757369" lon="17.8327303">
        <ele>25.1317</ele>
        <time>2014-05-16T17:41:39Z</time>
      </trkpt>
      <trkpt lat="59.8756809" lon="17.8326723">
        <ele>25.6123</ele>
        <time>2014-05-16T17:41:40Z</time>
      </trkpt>
      <trkpt lat="59.875625" lon="17.8326175">
        <ele>26.0929</ele>
        <time>2014-05-16T17:41:41Z</time>
      </trkpt>
      <trkpt lat="59.8755685" lon="17.8325671">
        <ele>26.0929</ele>
        <time>2014-05-16T17:41:42Z</time>
      </trkpt>
      <trkpt lat="59.8755112" lon="17.8325214">
        <ele>26.0929</ele>
        <time>2014-05-16T17:41:43Z</time>
      </trkpt>
      <trkpt lat="59.8754513" lon="17.8324811">
        <ele>26.0929</ele>
        <time>2014-05-16T17:41:44Z</time>
      </trkpt>
      <trkpt lat="59.8753891" lon="17.8324469">
        <ele>26.0929</ele>
        <time>2014-05-16T17:41:45Z</time>
      </trkpt>
      <trkpt lat="59.8753251" lon="17.8324147">
        <ele>26.0929</ele>
        <time>2014-05-16T17:41:46Z</time>
      </trkpt>
      <trkpt lat="59.8752596" lon="17.8323858">
        <ele>26.0929</ele>
        <time>2014-05-16T17:41:47Z</time>
      </trkpt>
      <trkpt lat="59.8751931" lon="17.8323609">
        <ele>26.0929</ele>
        <time>2014-05-16T17:41:48Z</time>
      </trkpt>
      <trkpt lat="59.8751269" lon="17.8323375">
        <ele>26.0929</ele>
        <time>2014-05-16T17:41:49Z</time>
      </trkpt>
      <trkpt lat="59.8750605" lon="17.8323163">
        <ele>26.0929</ele>
        <time>2014-05-16T17:41:50Z</time>
      </trkpt>
      <trkpt lat="59.8749943" lon="17.8322971">
        <ele>26.0929</ele>
        <time>2014-05-16T17:41:51Z</time>
      </trkpt>
      <trkpt lat="59.8749293" lon="17.8322784">
        <ele>26.0929</ele>
        <time>2014-05-16T17:41:52Z</time>
      </trkpt>
      <trkpt lat="59.8748648" lon="17.8322579">
        <ele>26.0929</ele>
        <time>2014-05-16T17:41:53Z</time>
      </trkpt>
      <trkpt lat="59.8748006" lon="17.8322398">
        <ele>26.0929</ele>
        <time>2014-05-16T17:41:54Z</time>
      </trkpt>
      <trkpt lat="59.8747374" lon="17.8322229">
        <ele>26.5736</ele>
        <time>2014-05-16T17:41:55Z</time>
      </trkpt>
      <trkpt lat="59.8746748" lon="17.8322059">
        <ele>26.5736</ele>
        <time>2014-05-16T17:41:56Z</time>
      </trkpt>
      <trkpt lat="59.8746159" lon="17.8321885">
        <ele>26.5736</ele>
        <time>2014-05-16T17:41:57Z</time>
      </trkpt>
      <trkpt lat="59.8745575" lon="17.8321698">
        <ele>26.5736</ele>
        <time>2014-05-16T17:41:58Z</time>
      </trkpt>
      <trkpt lat="59.8745047" lon="17.8321491">
        <ele>26.5736</ele>
        <time>2014-05-16T17:41:59Z</time>
      </trkpt>
      <trkpt lat="59.8744498" lon="17.8321236">
        <ele>26.5736</ele>
        <time>2014-05-16T17:42:00Z</time>
      </trkpt>
      <trkpt lat="59.8743974" lon="17.8320896">
        <ele>27.0543</ele>
        <time>2014-05-16T17:42:01Z</time>
      </trkpt>
      <trkpt lat="59.8743507" lon="17.8320516">
        <ele>27.0543</ele>
        <time>2014-05-16T17:42:02Z</time>
      </trkpt>
      <trkpt lat="59.8743046" lon="17.8320155">
        <ele>27.0543</ele>
        <time>2014-05-16T17:42:03Z</time>
      </trkpt>
      <trkpt lat="59.8742609" lon="17.831975">
        <ele>27.0543</ele>
        <time>2014-05-16T17:42:04Z</time>
      </trkpt>
      <trkpt lat="59.8742204" lon="17.8319273">
        <ele>27.0543</ele>
        <time>2014-05-16T17:42:05Z</time>
      </trkpt>
      <trkpt lat="59.874182" lon="17.8318771">
        <ele>26.5736</ele>
        <time>2014-05-16T17:42:06Z</time>
      </trkpt>
      <trkpt lat="59.8741422" lon="17.8318241">
        <ele>26.5736</ele>
        <time>2014-05-16T17:42:07Z</time>
      </trkpt>
      <trkpt lat="59.8741012" lon="17.8317708">
        <ele>26.5736</ele>
        <time>2014-05-16T17:42:08Z</time>
      </trkpt>
      <trkpt lat="59.8740587" lon="17.8317176">
        <ele>26.5736</ele>
        <time>2014-05-16T17:42:09Z</time>
      </trkpt>
      <trkpt lat="59.8740145" lon="17.8316621">
        <ele>26.0929</ele>
        <time>2014-05-16T17:42:10Z</time>
      </trkpt>
      <trkpt lat="59.8739699" lon="17.8316058">
        <ele>26.0929</ele>
        <time>2014-05-16T17:42:11Z</time>
      </trkpt>
      <trkpt lat="59.8739262" lon="17.8315486">
        <ele>25.6123</ele>
        <time>2014-05-16T17:42:12Z</time>
      </trkpt>
      <trkpt lat="59.8738814" lon="17.8314896">
        <ele>25.6123</ele>
        <time>2014-05-16T17:42:13Z</time>
      </trkpt>
      <trkpt lat="59.8738343" lon="17.8314301">
        <ele>25.1317</ele>
        <time>2014-05-16T17:42:14Z</time>
      </trkpt>
      <trkpt lat="59.8737852" lon="17.8313691">
        <ele>25.1317</ele>
        <time>2014-05-16T17:42:15Z</time>
      </trkpt>
      <trkpt lat="59.873735" lon="17.8313063">
        <ele>24.651</ele>
        <time>2014-05-16T17:42:16Z</time>
      </trkpt>
      <trkpt lat="59.8736835" lon="17.8312416">
        <ele>24.651</ele>
        <time>2014-05-16T17:42:17Z</time>
      </trkpt>
      <trkpt lat="59.8736302" lon="17.8311758">
        <ele>24.1703</ele>
        <time>2014-05-16T17:42:18Z</time>
      </trkpt>
      <trkpt lat="59.8735739" lon="17.831111">
        <ele>23.6896</ele>
        <time>2014-05-16T17:42:19Z</time>
      </trkpt>
      <trkpt lat="59.8735142" lon="17.8310481">
        <ele>23.6896</ele>
        <time>2014-05-16T17:42:20Z</time>
      </trkpt>
      <trkpt lat="59.8734514" lon="17.8309883">
        <ele>23.209</ele>
        <time>2014-05-16T17:42:21Z</time>
      </trkpt>
      <trkpt lat="59.8733864" lon="17.8309313">
        <ele>23.209</ele>
        <time>2014-05-16T17:42:22Z</time>
      </trkpt>
      <trkpt lat="59.8733202" lon="17.8308754">
        <ele>22.7283</ele>
        <time>2014-05-16T17:42:23Z</time>
      </trkpt>
      <trkpt lat="59.8732527" lon="17.8308224">
        <ele>22.2476</ele>
        <time>2014-05-16T17:42:24Z</time>
      </trkpt>
      <trkpt lat="59.8731839" lon="17.8307722">
        <ele>22.2476</ele>
        <time>2014-05-16T17:42:25Z</time>
      </trkpt>
      <trkpt lat="59.8731145" lon="17.830724">
        <ele>21.767</ele>
        <time>2014-05-16T17:42:26Z</time>
      </trkpt>
      <trkpt lat="59.8730445" lon="17.83068">
        <ele>21.767</ele>
        <time>2014-05-16T17:42:27Z</time>
      </trkpt>
      <trkpt lat="59.8729743" lon="17.8306405">
        <ele>21.2864</ele>
        <time>2014-05-16T17:42:28Z</time>
      </trkpt>
      <trkpt lat="59.8729041" lon="17.8306064">
        <ele>20.8057</ele>
        <time>2014-05-16T17:42:29Z</time>
      </trkpt>
      <trkpt lat="59.8728322" lon="17.8305749">
        <ele>20.8057</ele>
        <time>2014-05-16T17:42:30Z</time>
      </trkpt>
      <trkpt lat="59.872759" lon="17.8305427">
        <ele>20.325</ele>
        <time>2014-05-16T17:42:31Z</time>
      </trkpt>
      <trkpt lat="59.8726839" lon="17.8305092">
        <ele>19.8444</ele>
        <time>2014-05-16T17:42:32Z</time>
      </trkpt>
      <trkpt lat="59.8726068" lon="17.8304726">
        <ele>19.3638</ele>
        <time>2014-05-16T17:42:33Z</time>
      </trkpt>
      <trkpt lat="59.8725279" lon="17.8304252">
        <ele>18.8831</ele>
        <time>2014-05-16T17:42:34Z</time>
      </trkpt>
      <trkpt lat="59.8724491" lon="17.8303675">
        <ele>18.4023</ele>
        <time>2014-05-16T17:42:35Z</time>
      </trkpt>
      <trkpt lat="59.8723683" lon="17.8303009">
        <ele>17.9218</ele>
        <time>2014-05-16T17:42:36Z</time>
      </trkpt>
      <trkpt lat="59.872287" lon="17.8302297">
        <ele>17.4412</ele>
        <time>2014-05-16T17:42:37Z</time>
      </trkpt>
      <trkpt lat="59.8722044" lon="17.8301548">
        <ele>17.4412</ele>
        <time>2014-05-16T17:42:38Z</time>
      </trkpt>
      <trkpt lat="59.872122" lon="17.8300779">
        <ele>16.9604</ele>
        <time>2014-05-16T17:42:39Z</time>
      </trkpt>
      <trkpt lat="59.8720395" lon="17.8300004">
        <ele>16.4797</ele>
        <time>2014-05-16T17:42:40Z</time>
      </trkpt>
      <trkpt lat="59.8719559" lon="17.8299231">
        <ele>16.4797</ele>
        <time>2014-05-16T17:42:41Z</time>
      </trkpt>
      <trkpt lat="59.8718707" lon="17.8298454">
        <ele>15.999</ele>
        <time>2014-05-16T17:42:42Z</time>
      </trkpt>
      <trkpt lat="59.8717843" lon="17.8297671">
        <ele>15.5184</ele>
        <time>2014-05-16T17:42:43Z</time>
      </trkpt>
      <trkpt lat="59.8716982" lon="17.8296875">
        <ele>15.5184</ele>
        <time>2014-05-16T17:42:44Z</time>
      </trkpt>
      <trkpt lat="59.8716131" lon="17.8296076">
        <ele>15.5184</ele>
        <time>2014-05-16T17:42:45Z</time>
      </trkpt>
      <trkpt lat="59.8715293" lon="17.829529">
        <ele>15.0377</ele>
        <time>2014-05-16T17:42:46Z</time>
      </trkpt>
      <trkpt lat="59.8714469" lon="17.8294521">
        <ele>15.0377</ele>
        <time>2014-05-16T17:42:47Z</time>
      </trkpt>
      <trkpt lat="59.8713661" lon="17.8293777">
        <ele>14.557</ele>
        <time>2014-05-16T17:42:48Z</time>
      </trkpt>
      <trkpt lat="59.8712865" lon="17.8293051">
        <ele>14.557</ele>
        <time>2014-05-16T17:42:49Z</time>
      </trkpt>
      <trkpt lat="59.8712087" lon="17.8292326">
        <ele>14.557</ele>
        <time>2014-05-16T17:42:50Z</time>
      </trkpt>
      <trkpt lat="59.8711326" lon="17.8291599">
        <ele>14.557</ele>
        <time>2014-05-16T17:42:51Z</time>
      </trkpt>
      <trkpt lat="59.8710579" lon="17.8290881">
        <ele>14.557</ele>
        <time>2014-05-16T17:42:52Z</time>
      </trkpt>
      <trkpt lat="59.8709844" lon="17.8290188">
        <ele>14.557</ele>
        <time>2014-05-16T17:42:53Z</time>
      </trkpt>
      <trkpt lat="59.8709122" lon="17.8289517">
        <ele>14.557</ele>
        <time>2014-05-16T17:42:54Z</time>
      </trkpt>
      <trkpt lat="59.8708422" lon="17.8288857">
        <ele>14.557</ele>
        <time>2014-05-16T17:42:55Z</time>
      </trkpt>
      <trkpt lat="59.8707744" lon="17.8288208">
        <ele>14.557</ele>
        <time>2014-05-16T17:42:56Z</time>
      </trkpt>
      <trkpt lat="59.8707087" lon="17.8287556">
        <ele>14.557</ele>
        <time>2014-05-16T17:42:57Z</time>
      </trkpt>
      <trkpt lat="59.8706446" lon="17.8286927">
        <ele>14.557</ele>
        <time>2014-05-16T17:42:58Z</time>
      </trkpt>
      <trkpt lat="59.8705819" lon="17.8286323">
        <ele>14.557</ele>
        <time>2014-05-16T17:42:59Z</time>
      </trkpt>
      <trkpt lat="59.8705205" lon="17.8285742">
        <ele>15.0377</ele>
        <time>2014-05-16T17:43:00Z</time>
      </trkpt>
      <trkpt lat="59.8704606" lon="17.8285178">
        <ele>15.0377</ele>
        <time>2014-05-16T17:43:01Z</time>
      </trkpt>
      <trkpt lat="59.870403" lon="17.8284596">
        <ele>15.0377</ele>
        <time>2014-05-16T17:43:02Z</time>
      </trkpt>
      <trkpt lat="59.8703468" lon="17.8284018">
        <ele>15.0377</ele>
        <time>2014-05-16T17:43:03Z</time>
      </trkpt>
      <trkpt lat="59.8702917" lon="17.8283479">
        <ele>15.5184</ele>
        <time>2014-05-16T17:43:04Z</time>
      </trkpt>
      <trkpt lat="59.8702387" lon="17.8282988">
        <ele>15.5184</ele>
        <time>2014-05-16T17:43:05Z</time>
      </trkpt>
      <trkpt lat="59.870188" lon="17.8282496">
        <ele>15.5184</ele>
        <time>2014-05-16T17:43:06Z</time>
      </trkpt>
      <trkpt lat="59.8701394" lon="17.8281997">
        <ele>15.999</ele>
        <time>2014-05-16T17:43:07Z</time>
      </trkpt>
      <trkpt lat="59.8700923" lon="17.82815">
        <ele>15.999</ele>
        <time>2014-05-16T17:43:08Z</time>
      </trkpt>
      <trkpt lat="59.8700462" lon="17.8281008">
        <ele>15.999</ele>
        <time>2014-05-16T17:43:09Z</time>
      </trkpt>
      <trkpt lat="59.8700011" lon="17.8280511">
        <ele>16.4797</ele>
        <time>2014-05-16T17:43:10Z</time>
      </trkpt>
      <trkpt lat="59.8699566" lon="17.8279999">
        <ele>16.4797</ele>
        <time>2014-05-16T17:43:11Z</time>
      </trkpt>
      <trkpt lat="59.8699121" lon="17.8279485">
        <ele>16.9604</ele>
        <time>2014-05-16T17:43:12Z</time>
      </trkpt>
      <trkpt lat="59.869868" lon="17.8278962">
        <ele>16.9604</ele>
        <time>2014-05-16T17:43:13Z</time>
      </trkpt>
      <trkpt lat="59.8698249" lon="17.8278409">
        <ele>17.4412</ele>
        <time>2014-05-16T17:43:14Z</time>
      </trkpt>
      <trkpt lat="59.8697829" lon="17.8277818">
        <ele>17.4412</ele>
        <time>2014-05-16T17:43:15Z</time>
      </trkpt>
      <trkpt lat="59.8697422" lon="17.8277196">
        <ele>17.9218</ele>
        <time>2014-05-16T17:43:16Z</time>
      </trkpt>
      <trkpt lat="59.8697022" lon="17.8276572">
        <ele>17.9218</ele>
        <time>2014-05-16T17:43:17Z</time>
      </trkpt>
      <trkpt lat="59.8696632" lon="17.8275935">
        <ele>18.4023</ele>
        <time>2014-05-16T17:43:18Z</time>
      </trkpt>
      <trkpt lat="59.8696251" lon="17.8275292">
        <ele>18.4023</ele>
        <time>2014-05-16T17:43:19Z</time>
      </trkpt>
      <trkpt lat="59.8695879" lon="17.8274646">
        <ele>18.4023</ele>
        <time>2014-05-16T17:43:20Z</time>
      </trkpt>
      <trkpt lat="59.8695514" lon="17.8273994">
        <ele>18.4023</ele>
        <time>2014-05-16T17:43:21Z</time>
      </trkpt>
      <trkpt lat="59.8695141" lon="17.8273334">
        <ele>18.4023</ele>
        <time>2014-05-16T17:43:22Z</time>
      </trkpt>
      <trkpt lat="59.8694765" lon="17.8272642">
        <ele>18.8831</ele>
        <time>2014-05-16T17:43:23Z</time>
      </trkpt>
      <trkpt lat="59.8694387" lon="17.8271949">
        <ele>18.8831</ele>
        <time>2014-05-16T17:43:24Z</time>
      </trkpt>
      <trkpt lat="59.8693992" lon="17.827128">
        <ele>18.8831</ele>
        <time>2014-05-16T17:43:25Z</time>
      </trkpt>
      <trkpt lat="59.8693588" lon="17.8270618">
        <ele>18.8831</ele>
        <time>2014-05-16T17:43:26Z</time>
      </trkpt>
      <trkpt lat="59.869319" lon="17.8269938">
        <ele>18.8831</ele>
        <time>2014-05-16T17:43:27Z</time>
      </trkpt>
      <trkpt lat="59.8692797" lon="17.8269252">
        <ele>18.8831</ele>
        <time>2014-05-16T17:43:28Z</time>
      </trkpt>
      <trkpt lat="59.8692397" lon="17.826858">
        <ele>18.8831</ele>
        <time>2014-05-16T17:43:29Z</time>
      </trkpt>
      <trkpt lat="59.8691987" lon="17.8267903">
        <ele>18.8831</ele>
        <time>2014-05-16T17:43:30Z</time>
      </trkpt>
      <trkpt lat="59.8691576" lon="17.8267212">
        <ele>18.8831</ele>
        <time>2014-05-16T17:43:31Z</time>
      </trkpt>
      <trkpt lat="59.8691169" lon="17.8266509">
        <ele>18.8831</ele>
        <time>2014-05-16T17:43:32Z</time>
      </trkpt>
      <trkpt lat="59.869076" lon="17.8265794">
        <ele>18.8831</ele>
        <time>2014-05-16T17:43:33Z</time>
      </trkpt>
      <trkpt lat="59.8690352" lon="17.8265065">
        <ele>18.8831</ele>
        <time>2014-05-16T17:43:34Z</time>
      </trkpt>
      <trkpt lat="59.8689951" lon="17.8264331">
        <ele>18.8831</ele>
        <time>2014-05-16T17:43:35Z</time>
      </trkpt>
      <trkpt lat="59.8689546" lon="17.8263598">
        <ele>19.3638</ele>
        <time>2014-05-16T17:43:36Z</time>
      </trkpt>
      <trkpt lat="59.8689147" lon="17.8262862">
        <ele>19.3638</ele>
        <time>2014-05-16T17:43:37Z</time>
      </trkpt>
      <trkpt lat="59.8688755" lon="17.8262121">
        <ele>19.3638</ele>
        <time>2014-05-16T17:43:38Z</time>
      </trkpt>
      <trkpt lat="59.8688362" lon="17.8261381">
        <ele>19.8444</ele>
        <time>2014-05-16T17:43:39Z</time>
      </trkpt>
      <trkpt lat="59.8687966" lon="17.8260681">
        <ele>19.8444</ele>
        <time>2014-05-16T17:43:40Z</time>
      </trkpt>
      <trkpt lat="59.8687569" lon="17.8259985">
        <ele>20.325</ele>
        <time>2014-05-16T17:43:41Z</time>
      </trkpt>
      <trkpt lat="59.868717" lon="17.8259305">
        <ele>20.325</ele>
        <time>2014-05-16T17:43:42Z</time>
      </trkpt>
      <trkpt lat="59.8686735" lon="17.8258659">
        <ele>20.8057</ele>
        <time>2014-05-16T17:43:43Z</time>
      </trkpt>
      <trkpt lat="59.8686305" lon="17.8258024">
        <ele>20.8057</ele>
        <time>2014-05-16T17:43:44Z</time>
      </trkpt>
      <trkpt lat="59.8685848" lon="17.8257435">
        <ele>20.8057</ele>
        <time>2014-05-16T17:43:45Z</time>
      </trkpt>
      <trkpt lat="59.8685351" lon="17.8256886">
        <ele>21.2864</ele>
        <time>2014-05-16T17:43:46Z</time>
      </trkpt>
      <trkpt lat="59.868484" lon="17.8256385">
        <ele>21.2864</ele>
        <time>2014-05-16T17:43:47Z</time>
      </trkpt>
      <trkpt lat="59.8684316" lon="17.8255968">
        <ele>21.2864</ele>
        <time>2014-05-16T17:43:48Z</time>
      </trkpt>
      <trkpt lat="59.8683783" lon="17.8255666">
        <ele>21.2864</ele>
        <time>2014-05-16T17:43:49Z</time>
      </trkpt>
      <trkpt lat="59.8683238" lon="17.8255484">
        <ele>21.2864</ele>
        <time>2014-05-16T17:43:50Z</time>
      </trkpt>
      <trkpt lat="59.8682669" lon="17.825545">
        <ele>21.2864</ele>
        <time>2014-05-16T17:43:51Z</time>
      </trkpt>
      <trkpt lat="59.8682083" lon="17.8255537">
        <ele>21.2864</ele>
        <time>2014-05-16T17:43:52Z</time>
      </trkpt>
      <trkpt lat="59.8681475" lon="17.8255709">
        <ele>21.2864</ele>
        <time>2014-05-16T17:43:53Z</time>
      </trkpt>
      <trkpt lat="59.8680865" lon="17.8255972">
        <ele>21.2864</ele>
        <time>2014-05-16T17:43:54Z</time>
      </trkpt>
      <trkpt lat="59.8680256" lon="17.8256339">
        <ele>21.2864</ele>
        <time>2014-05-16T17:43:55Z</time>
      </trkpt>
      <trkpt lat="59.8679638" lon="17.8256813">
        <ele>21.2864</ele>
        <time>2014-05-16T17:43:56Z</time>
      </trkpt>
      <trkpt lat="59.8679009" lon="17.825732">
        <ele>21.2864</ele>
        <time>2014-05-16T17:43:57Z</time>
      </trkpt>
      <trkpt lat="59.8678381" lon="17.8257827">
        <ele>20.8057</ele>
        <time>2014-05-16T17:43:58Z</time>
      </trkpt>
      <trkpt lat="59.8677746" lon="17.8258319">
        <ele>20.325</ele>
        <time>2014-05-16T17:43:59Z</time>
      </trkpt>
      <trkpt lat="59.86771" lon="17.8258795">
        <ele>20.325</ele>
        <time>2014-05-16T17:44:00Z</time>
      </trkpt>
      <trkpt lat="59.8676446" lon="17.8259266">
        <ele>19.8444</ele>
        <time>2014-05-16T17:44:01Z</time>
      </trkpt>
      <trkpt lat="59.867578" lon="17.8259728">
        <ele>19.3638</ele>
        <time>2014-05-16T17:44:02Z</time>
      </trkpt>
      <trkpt lat="59.8675101" lon="17.82602">
        <ele>18.8831</ele>
        <time>2014-05-16T17:44:03Z</time>
      </trkpt>
      <trkpt lat="59.867441" lon="17.8260727">
        <ele>18.8831</ele>
        <time>2014-05-16T17:44:04Z</time>
      </trkpt>
      <trkpt lat="59.8673708" lon="17.8261283">
        <ele>18.4023</ele>
        <time>2014-05-16T17:44:05Z</time>
      </trkpt>
      <trkpt lat="59.8672992" lon="17.8261835">
        <ele>17.9218</ele>
        <time>2014-05-16T17:44:06Z</time>
      </trkpt>
      <trkpt lat="59.8672267" lon="17.826235">
        <ele>17.4412</ele>
        <time>2014-05-16T17:44:07Z</time>
      </trkpt>
      <trkpt lat="59.8671542" lon="17.8262855">
        <ele>17.4412</ele>
        <time>2014-05-16T17:44:08Z</time>
      </trkpt>
      <trkpt lat="59.8670806" lon="17.826337">
        <ele>16.9604</ele>
        <time>2014-05-16T17:44:09Z</time>
      </trkpt>
      <trkpt lat="59.8670063" lon="17.8263861">
        <ele>16.4797</ele>
        <time>2014-05-16T17:44:10Z</time>
      </trkpt>
      <trkpt lat="59.8669321" lon="17.8264305">
        <ele>16.4797</ele>
        <time>2014-05-16T17:44:11Z</time>
      </trkpt>
      <trkpt lat="59.8668574" lon="17.8264732">
        <ele>15.999</ele>
        <time>2014-05-16T17:44:12Z</time>
      </trkpt>
      <trkpt lat="59.8667822" lon="17.8265146">
        <ele>15.5184</ele>
        <time>2014-05-16T17:44:13Z</time>
      </trkpt>
      <trkpt lat="59.8667071" lon="17.8265518">
        <ele>15.5184</ele>
        <time>2014-05-16T17:44:14Z</time>
      </trkpt>
      <trkpt lat="59.866633" lon="17.8265856">
        <ele>15.0377</ele>
        <time>2014-05-16T17:44:15Z</time>
      </trkpt>
      <trkpt lat="59.866557" lon="17.8266223">
        <ele>15.0377</ele>
        <time>2014-05-16T17:44:16Z</time>
      </trkpt>
      <trkpt lat="59.8664826" lon="17.8266474">
        <ele>15.5184</ele>
        <time>2014-05-16T17:44:17Z</time>
      </trkpt>
      <trkpt lat="59.8664078" lon="17.8266696">
        <ele>15.5184</ele>
        <time>2014-05-16T17:44:18Z</time>
      </trkpt>
      <trkpt lat="59.8663388" lon="17.8266856">
        <ele>15.5184</ele>
        <time>2014-05-16T17:44:19Z</time>
      </trkpt>
      <trkpt lat="59.8662694" lon="17.8266899">
        <ele>15.5184</ele>
        <time>2014-05-16T17:44:20Z</time>
      </trkpt>
      <trkpt lat="59.8661891" lon="17.8266892">
        <ele>15.999</ele>
        <time>2014-05-16T17:44:21Z</time>
      </trkpt>
      <trkpt lat="59.8661131" lon="17.8266766">
        <ele>15.999</ele>
        <time>2014-05-16T17:44:22Z</time>
      </trkpt>
      <trkpt lat="59.866043" lon="17.8266727">
        <ele>15.999</ele>
        <time>2014-05-16T17:44:23Z</time>
      </trkpt>
      <trkpt lat="59.8659737" lon="17.8266673">
        <ele>15.999</ele>
        <time>2014-05-16T17:44:24Z</time>
      </trkpt>
      <trkpt lat="59.8659043" lon="17.8266609">
        <ele>15.999</ele>
        <time>2014-05-16T17:44:25Z</time>
      </trkpt>
      <trkpt lat="59.8658312" lon="17.8266504">
        <ele>15.999</ele>
        <time>2014-05-16T17:44:26Z</time>
      </trkpt>
      <trkpt lat="59.8657586" lon="17.8266359">
        <ele>15.999</ele>
        <time>2014-05-16T17:44:27Z</time>
      </trkpt>
      <trkpt lat="59.8656864" lon="17.8266179">
        <ele>15.999</ele>
        <time>2014-05-16T17:44:28Z</time>
      </trkpt>
      <trkpt lat="59.8656141" lon="17.8266003">
        <ele>15.999</ele>
        <time>2014-05-16T17:44:29Z</time>
      </trkpt>
      <trkpt lat="59.8655445" lon="17.8265851">
        <ele>15.5184</ele>
        <time>2014-05-16T17:44:30Z</time>
      </trkpt>
      <trkpt lat="59.8654764" lon="17.826572">
        <ele>15.999</ele>
        <time>2014-05-16T17:44:31Z</time>
      </trkpt>
      <trkpt lat="59.8654093" lon="17.8265581">
        <ele>15.999</ele>
        <time>2014-05-16T17:44:32Z</time>
      </trkpt>
      <trkpt lat="59.8653437" lon="17.8265421">
        <ele>15.999</ele>
        <time>2014-05-16T17:44:33Z</time>
      </trkpt>
      <trkpt lat="59.8652805" lon="17.8265255">
        <ele>15.999</ele>
        <time>2014-05-16T17:44:34Z</time>
      </trkpt>
      <trkpt lat="59.8652195" lon="17.8265027">
        <ele>15.999</ele>
        <time>2014-05-16T17:44:35Z</time>
      </trkpt>
      <trkpt lat="59.8651608" lon="17.8264644">
        <ele>15.999</ele>
        <time>2014-05-16T17:44:36Z</time>
      </trkpt>
      <trkpt lat="59.8651054" lon="17.826408">
        <ele>15.999</ele>
        <time>2014-05-16T17:44:37Z</time>
      </trkpt>
      <trkpt lat="59.8650537" lon="17.826337">
        <ele>15.999</ele>
        <time>2014-05-16T17:44:38Z</time>
      </trkpt>
      <trkpt lat="59.8650043" lon="17.8262582">
        <ele>15.999</ele>
        <time>2014-05-16T17:44:39Z</time>
      </trkpt>
      <trkpt lat="59.8649562" lon="17.8261738">
        <ele>15.999</ele>
        <time>2014-05-16T17:44:40Z</time>
      </trkpt>
      <trkpt lat="59.8649082" lon="17.8260837">
        <ele>15.5184</ele>
        <time>2014-05-16T17:44:41Z</time>
      </trkpt>
      <trkpt lat="59.864859" lon="17.8259869">
        <ele>15.0377</ele>
        <time>2014-05-16T17:44:42Z</time>
      </trkpt>
      <trkpt lat="59.8648076" lon="17.825883">
        <ele>14.557</ele>
        <time>2014-05-16T17:44:43Z</time>
      </trkpt>
      <trkpt lat="59.8647543" lon="17.8257708">
        <ele>14.0764</ele>
        <time>2014-05-16T17:44:44Z</time>
      </trkpt>
      <trkpt lat="59.8646999" lon="17.8256511">
        <ele>13.5958</ele>
        <time>2014-05-16T17:44:45Z</time>
      </trkpt>
      <trkpt lat="59.864643" lon="17.8255283">
        <ele>13.1151</ele>
        <time>2014-05-16T17:44:46Z</time>
      </trkpt>
      <trkpt lat="59.8645843" lon="17.8254024">
        <ele>12.1538</ele>
        <time>2014-05-16T17:44:47Z</time>
      </trkpt>
      <trkpt lat="59.8645242" lon="17.825273">
        <ele>11.6732</ele>
        <time>2014-05-16T17:44:48Z</time>
      </trkpt>
      <trkpt lat="59.8644632" lon="17.8251414">
        <ele>11.1925</ele>
        <time>2014-05-16T17:44:49Z</time>
      </trkpt>
      <trkpt lat="59.8644018" lon="17.8250087">
        <ele>10.7118</ele>
        <time>2014-05-16T17:44:50Z</time>
      </trkpt>
      <trkpt lat="59.8643404" lon="17.824875">
        <ele>10.7118</ele>
        <time>2014-05-16T17:44:51Z</time>
      </trkpt>
      <trkpt lat="59.864279" lon="17.824742">
        <ele>10.2312</ele>
        <time>2014-05-16T17:44:52Z</time>
      </trkpt>
      <trkpt lat="59.8642181" lon="17.82461">
        <ele>9.75061</ele>
        <time>2014-05-16T17:44:53Z</time>
      </trkpt>
      <trkpt lat="59.8641578" lon="17.8244785">
        <ele>9.75061</ele>
        <time>2014-05-16T17:44:54Z</time>
      </trkpt>
      <trkpt lat="59.8640984" lon="17.8243481">
        <ele>9.75061</ele>
        <time>2014-05-16T17:44:55Z</time>
      </trkpt>
      <trkpt lat="59.8640399" lon="17.8242193">
        <ele>9.2699</ele>
        <time>2014-05-16T17:44:56Z</time>
      </trkpt>
      <trkpt lat="59.8639818" lon="17.8240918">
        <ele>9.2699</ele>
        <time>2014-05-16T17:44:57Z</time>
      </trkpt>
      <trkpt lat="59.8639243" lon="17.823965">
        <ele>8.78918</ele>
        <time>2014-05-16T17:44:58Z</time>
      </trkpt>
      <trkpt lat="59.8638675" lon="17.8238386">
        <ele>8.78918</ele>
        <time>2014-05-16T17:44:59Z</time>
      </trkpt>
      <trkpt lat="59.8638111" lon="17.8237143">
        <ele>8.78918</ele>
        <time>2014-05-16T17:45:00Z</time>
      </trkpt>
      <trkpt lat="59.8637555" lon="17.8235915">
        <ele>8.78918</ele>
        <time>2014-05-16T17:45:01Z</time>
      </trkpt>
      <trkpt lat="59.8637017" lon="17.8234694">
        <ele>8.78918</ele>
        <time>2014-05-16T17:45:02Z</time>
      </trkpt>
      <trkpt lat="59.86365" lon="17.8233484">
        <ele>8.78918</ele>
        <time>2014-05-16T17:45:03Z</time>
      </trkpt>
      <trkpt lat="59.8635995" lon="17.8232301">
        <ele>8.78918</ele>
        <time>2014-05-16T17:45:04Z</time>
      </trkpt>
      <trkpt lat="59.8635503" lon="17.8231172">
        <ele>8.78918</ele>
        <time>2014-05-16T17:45:05Z</time>
      </trkpt>
      <trkpt lat="59.8635044" lon="17.8230084">
        <ele>8.78918</ele>
        <time>2014-05-16T17:45:06Z</time>
      </trkpt>
      <trkpt lat="59.8634633" lon="17.8229034">
        <ele>9.2699</ele>
        <time>2014-05-16T17:45:07Z</time>
      </trkpt>
      <trkpt lat="59.863425" lon="17.8228031">
        <ele>9.2699</ele>
        <time>2014-05-16T17:45:08Z</time>
      </trkpt>
      <trkpt lat="59.8633884" lon="17.8227071">
        <ele>9.2699</ele>
        <time>2014-05-16T17:45:09Z</time>
      </trkpt>
      <trkpt lat="59.8633535" lon="17.8226151">
        <ele>9.2699</ele>
        <time>2014-05-16T17:45:10Z</time>
      </trkpt>
      <trkpt lat="59.8633197" lon="17.8225234">
        <ele>9.2699</ele>
        <time>2014-05-16T17:45:11Z</time>
      </trkpt>
      <trkpt lat="59.8632868" lon="17.822432">
        <ele>9.75061</ele>
        <time>2014-05-16T17:45:12Z</time>
      </trkpt>
      <trkpt lat="59.8632561" lon="17.8223437">
        <ele>9.75061</ele>
        <time>2014-05-16T17:45:13Z</time>
      </trkpt>
      <trkpt lat="59.8632272" lon="17.8222635">
        <ele>10.2312</ele>
        <time>2014-05-16T17:45:14Z</time>
      </trkpt>
      <trkpt lat="59.8632" lon="17.8221875">
        <ele>10.2312</ele>
        <time>2014-05-16T17:45:15Z</time>
      </trkpt>
      <trkpt lat="59.8631739" lon="17.8221142">
        <ele>10.7118</ele>
        <time>2014-05-16T17:45:16Z</time>
      </trkpt>
      <trkpt lat="59.8631494" lon="17.8220407">
        <ele>10.7118</ele>
        <time>2014-05-16T17:45:17Z</time>
      </trkpt>
      <trkpt lat="59.8631266" lon="17.8219672">
        <ele>11.1925</ele>
        <time>2014-05-16T17:45:18Z</time>
      </trkpt>
      <trkpt lat="59.8631049" lon="17.8218949">
        <ele>11.1925</ele>
        <time>2014-05-16T17:45:19Z</time>
      </trkpt>
      <trkpt lat="59.8630831" lon="17.8218244">
        <ele>11.6732</ele>
        <time>2014-05-16T17:45:20Z</time>
      </trkpt>
      <trkpt lat="59.863061" lon="17.8217588">
        <ele>11.6732</ele>
        <time>2014-05-16T17:45:21Z</time>
      </trkpt>
      <trkpt lat="59.8630407" lon="17.8216952">
        <ele>12.1538</ele>
        <time>2014-05-16T17:45:22Z</time>
      </trkpt>
      <trkpt lat="59.8630219" lon="17.8216293">
        <ele>12.1538</ele>
        <time>2014-05-16T17:45:23Z</time>
      </trkpt>
      <trkpt lat="59.8630029" lon="17.8215621">
        <ele>12.1538</ele>
        <time>2014-05-16T17:45:24Z</time>
      </trkpt>
      <trkpt lat="59.8629836" lon="17.8214949">
        <ele>12.6344</ele>
        <time>2014-05-16T17:45:25Z</time>
      </trkpt>
      <trkpt lat="59.8629631" lon="17.8214283">
        <ele>12.6344</ele>
        <time>2014-05-16T17:45:26Z</time>
      </trkpt>
      <trkpt lat="59.8629424" lon="17.8213615">
        <ele>13.1151</ele>
        <time>2014-05-16T17:45:27Z</time>
      </trkpt>
      <trkpt lat="59.8629223" lon="17.8212941">
        <ele>13.1151</ele>
        <time>2014-05-16T17:45:28Z</time>
      </trkpt>
      <trkpt lat="59.8629021" lon="17.8212284">
        <ele>13.5958</ele>
        <time>2014-05-16T17:45:29Z</time>
      </trkpt>
      <trkpt lat="59.8628825" lon="17.8211645">
        <ele>13.5958</ele>
        <time>2014-05-16T17:45:30Z</time>
      </trkpt>
      <trkpt lat="59.8628639" lon="17.8211004">
        <ele>14.0764</ele>
        <time>2014-05-16T17:45:31Z</time>
      </trkpt>
      <trkpt lat="59.8628459" lon="17.821036">
        <ele>14.0764</ele>
        <time>2014-05-16T17:45:32Z</time>
      </trkpt>
      <trkpt lat="59.8628284" lon="17.820972">
        <ele>14.0764</ele>
        <time>2014-05-16T17:45:33Z</time>
      </trkpt>
      <trkpt lat="59.8628112" lon="17.8209098">
        <ele>14.557</ele>
        <time>2014-05-16T17:45:34Z</time>
      </trkpt>
      <trkpt lat="59.8627939" lon="17.8208485">
        <ele>14.557</ele>
        <time>2014-05-16T17:45:35Z</time>
      </trkpt>
      <trkpt lat="59.8627764" lon="17.8207896">
        <ele>15.0377</ele>
        <time>2014-05-16T17:45:36Z</time>
      </trkpt>
      <trkpt lat="59.8627579" lon="17.820727">
        <ele>15.999</ele>
        <time>2014-05-16T17:45:37Z</time>
      </trkpt>
      <trkpt lat="59.8627449" lon="17.8206714">
        <ele>15.999</ele>
        <time>2014-05-16T17:45:38Z</time>
      </trkpt>
      <trkpt lat="59.8627304" lon="17.8206172">
        <ele>15.999</ele>
        <time>2014-05-16T17:45:39Z</time>
      </trkpt>
      <trkpt lat="59.8627141" lon="17.8205639">
        <ele>16.4797</ele>
        <time>2014-05-16T17:45:40Z</time>
      </trkpt>
      <trkpt lat="59.8626993" lon="17.8205108">
        <ele>15.999</ele>
        <time>2014-05-16T17:45:41Z</time>
      </trkpt>
      <trkpt lat="59.8626817" lon="17.8204532">
        <ele>16.4797</ele>
        <time>2014-05-16T17:45:42Z</time>
      </trkpt>
      <trkpt lat="59.8626677" lon="17.8203934">
        <ele>16.4797</ele>
        <time>2014-05-16T17:45:43Z</time>
      </trkpt>
      <trkpt lat="59.8626517" lon="17.8203323">
        <ele>16.4797</ele>
        <time>2014-05-16T17:45:44Z</time>
      </trkpt>
      <trkpt lat="59.8626397" lon="17.8202702">
        <ele>16.4797</ele>
        <time>2014-05-16T17:45:45Z</time>
      </trkpt>
      <trkpt lat="59.8626297" lon="17.820212">
        <ele>16.4797</ele>
        <time>2014-05-16T17:45:46Z</time>
      </trkpt>
      <trkpt lat="59.8626167" lon="17.8201514">
        <ele>16.4797</ele>
        <time>2014-05-16T17:45:47Z</time>
      </trkpt>
      <trkpt lat="59.8626019" lon="17.8200878">
        <ele>16.4797</ele>
        <time>2014-05-16T17:45:48Z</time>
      </trkpt>
      <trkpt lat="59.862587" lon="17.8200219">
        <ele>16.4797</ele>
        <time>2014-05-16T17:45:49Z</time>
      </trkpt>
      <trkpt lat="59.8625729" lon="17.8199551">
        <ele>16.4797</ele>
        <time>2014-05-16T17:45:50Z</time>
      </trkpt>
      <trkpt lat="59.8625583" lon="17.8198819">
        <ele>16.4797</ele>
        <time>2014-05-16T17:45:51Z</time>
      </trkpt>
      <trkpt lat="59.8625437" lon="17.8198088">
        <ele>16.4797</ele>
        <time>2014-05-16T17:45:52Z</time>
      </trkpt>
      <trkpt lat="59.8625294" lon="17.8197373">
        <ele>16.4797</ele>
        <time>2014-05-16T17:45:53Z</time>
      </trkpt>
      <trkpt lat="59.8625155" lon="17.819664">
        <ele>16.4797</ele>
        <time>2014-05-16T17:45:54Z</time>
      </trkpt>
      <trkpt lat="59.8625015" lon="17.8195874">
        <ele>16.4797</ele>
        <time>2014-05-16T17:45:55Z</time>
      </trkpt>
      <trkpt lat="59.8624869" lon="17.8195089">
        <ele>16.9604</ele>
        <time>2014-05-16T17:45:56Z</time>
      </trkpt>
      <trkpt lat="59.8624709" lon="17.8194314">
        <ele>16.9604</ele>
        <time>2014-05-16T17:45:57Z</time>
      </trkpt>
      <trkpt lat="59.8624527" lon="17.8193567">
        <ele>16.4797</ele>
        <time>2014-05-16T17:45:58Z</time>
      </trkpt>
      <trkpt lat="59.8624311" lon="17.8192828">
        <ele>16.9604</ele>
        <time>2014-05-16T17:45:59Z</time>
      </trkpt>
      <trkpt lat="59.8624071" lon="17.8192123">
        <ele>16.9604</ele>
        <time>2014-05-16T17:46:00Z</time>
      </trkpt>
      <trkpt lat="59.8623807" lon="17.8191435">
        <ele>16.9604</ele>
        <time>2014-05-16T17:46:01Z</time>
      </trkpt>
      <trkpt lat="59.8623508" lon="17.8190777">
        <ele>16.9604</ele>
        <time>2014-05-16T17:46:02Z</time>
      </trkpt>
      <trkpt lat="59.8623169" lon="17.8190168">
        <ele>16.9604</ele>
        <time>2014-05-16T17:46:03Z</time>
      </trkpt>
      <trkpt lat="59.8622793" lon="17.8189598">
        <ele>16.9604</ele>
        <time>2014-05-16T17:46:04Z</time>
      </trkpt>
      <trkpt lat="59.8622398" lon="17.8189067">
        <ele>16.9604</ele>
        <time>2014-05-16T17:46:05Z</time>
      </trkpt>
      <trkpt lat="59.8621989" lon="17.8188611">
        <ele>17.4412</ele>
        <time>2014-05-16T17:46:06Z</time>
      </trkpt>
      <trkpt lat="59.8621562" lon="17.8188223">
        <ele>17.4412</ele>
        <time>2014-05-16T17:46:07Z</time>
      </trkpt>
      <trkpt lat="59.862112" lon="17.8187874">
        <ele>17.4412</ele>
        <time>2014-05-16T17:46:08Z</time>
      </trkpt>
      <trkpt lat="59.8620673" lon="17.8187526">
        <ele>17.9218</ele>
        <time>2014-05-16T17:46:09Z</time>
      </trkpt>
      <trkpt lat="59.862016" lon="17.8186948">
        <ele>20.325</ele>
        <time>2014-05-16T17:46:10Z</time>
      </trkpt>
      <trkpt lat="59.8619698" lon="17.8186591">
        <ele>21.2864</ele>
        <time>2014-05-16T17:46:11Z</time>
      </trkpt>
      <trkpt lat="59.8619241" lon="17.8186306">
        <ele>21.767</ele>
        <time>2014-05-16T17:46:12Z</time>
      </trkpt>
      <trkpt lat="59.861882" lon="17.8186027">
        <ele>21.767</ele>
        <time>2014-05-16T17:46:13Z</time>
      </trkpt>
      <trkpt lat="59.8618418" lon="17.8185758">
        <ele>21.767</ele>
        <time>2014-05-16T17:46:14Z</time>
      </trkpt>
      <trkpt lat="59.8618004" lon="17.8185476">
        <ele>22.2476</ele>
        <time>2014-05-16T17:46:15Z</time>
      </trkpt>
      <trkpt lat="59.8617625" lon="17.8185207">
        <ele>22.2476</ele>
        <time>2014-05-16T17:46:16Z</time>
      </trkpt>
      <trkpt lat="59.8617213" lon="17.8184948">
        <ele>23.209</ele>
        <time>2014-05-16T17:46:17Z</time>
      </trkpt>
      <trkpt lat="59.8616831" lon="17.8184694">
        <ele>23.209</ele>
        <time>2014-05-16T17:46:18Z</time>
      </trkpt>
      <trkpt lat="59.8616466" lon="17.8184447">
        <ele>23.6896</ele>
        <time>2014-05-16T17:46:19Z</time>
      </trkpt>
      <trkpt lat="59.8616113" lon="17.8184268">
        <ele>23.6896</ele>
        <time>2014-05-16T17:46:20Z</time>
      </trkpt>
      <trkpt lat="59.8615727" lon="17.8184077">
        <ele>23.6896</ele>
        <time>2014-05-16T17:46:21Z</time>
      </trkpt>
      <trkpt lat="59.8615317" lon="17.8183814">
        <ele>23.209</ele>
        <time>2014-05-16T17:46:22Z</time>
      </trkpt>
      <trkpt lat="59.8614861" lon="17.8183486">
        <ele>23.209</ele>
        <time>2014-05-16T17:46:23Z</time>
      </trkpt>
      <trkpt lat="59.8614355" lon="17.8183099">
        <ele>23.209</ele>
        <time>2014-05-16T17:46:24Z</time>
      </trkpt>
      <trkpt lat="59.861386" lon="17.8182664">
        <ele>22.7283</ele>
        <time>2014-05-16T17:46:25Z</time>
      </trkpt>
      <trkpt lat="59.8613296" lon="17.8182219">
        <ele>22.2476</ele>
        <time>2014-05-16T17:46:26Z</time>
      </trkpt>
      <trkpt lat="59.8612706" lon="17.818167">
        <ele>22.2476</ele>
        <time>2014-05-16T17:46:27Z</time>
      </trkpt>
      <trkpt lat="59.8612108" lon="17.8181115">
        <ele>22.2476</ele>
        <time>2014-05-16T17:46:28Z</time>
      </trkpt>
      <trkpt lat="59.8611518" lon="17.8180524">
        <ele>22.2476</ele>
        <time>2014-05-16T17:46:29Z</time>
      </trkpt>
      <trkpt lat="59.861093" lon="17.8179925">
        <ele>22.2476</ele>
        <time>2014-05-16T17:46:30Z</time>
      </trkpt>
      <trkpt lat="59.8610347" lon="17.8179318">
        <ele>22.2476</ele>
        <time>2014-05-16T17:46:31Z</time>
      </trkpt>
      <trkpt lat="59.8609785" lon="17.8178696">
        <ele>22.7283</ele>
        <time>2014-05-16T17:46:32Z</time>
      </trkpt>
      <trkpt lat="59.8609241" lon="17.8178032">
        <ele>22.2476</ele>
        <time>2014-05-16T17:46:33Z</time>
      </trkpt>
      <trkpt lat="59.8608705" lon="17.8177339">
        <ele>22.2476</ele>
        <time>2014-05-16T17:46:34Z</time>
      </trkpt>
      <trkpt lat="59.8608163" lon="17.8176624">
        <ele>21.767</ele>
        <time>2014-05-16T17:46:35Z</time>
      </trkpt>
      <trkpt lat="59.8607597" lon="17.8175857">
        <ele>21.767</ele>
        <time>2014-05-16T17:46:36Z</time>
      </trkpt>
      <trkpt lat="59.8607011" lon="17.8175043">
        <ele>21.2864</ele>
        <time>2014-05-16T17:46:37Z</time>
      </trkpt>
      <trkpt lat="59.8606416" lon="17.8174201">
        <ele>20.8057</ele>
        <time>2014-05-16T17:46:38Z</time>
      </trkpt>
      <trkpt lat="59.8605794" lon="17.817334">
        <ele>20.325</ele>
        <time>2014-05-16T17:46:39Z</time>
      </trkpt>
      <trkpt lat="59.8605159" lon="17.8172462">
        <ele>20.325</ele>
        <time>2014-05-16T17:46:40Z</time>
      </trkpt>
      <trkpt lat="59.8604521" lon="17.8171572">
        <ele>19.8444</ele>
        <time>2014-05-16T17:46:41Z</time>
      </trkpt>
      <trkpt lat="59.8603879" lon="17.8170687">
        <ele>19.8444</ele>
        <time>2014-05-16T17:46:42Z</time>
      </trkpt>
      <trkpt lat="59.8603237" lon="17.8169818">
        <ele>19.8444</ele>
        <time>2014-05-16T17:46:43Z</time>
      </trkpt>
      <trkpt lat="59.86026" lon="17.8168968">
        <ele>19.8444</ele>
        <time>2014-05-16T17:46:44Z</time>
      </trkpt>
      <trkpt lat="59.8601967" lon="17.8168134">
        <ele>19.8444</ele>
        <time>2014-05-16T17:46:45Z</time>
      </trkpt>
      <trkpt lat="59.8601335" lon="17.8167347">
        <ele>19.8444</ele>
        <time>2014-05-16T17:46:46Z</time>
      </trkpt>
      <trkpt lat="59.8600709" lon="17.8166621">
        <ele>19.8444</ele>
        <time>2014-05-16T17:46:47Z</time>
      </trkpt>
      <trkpt lat="59.8600089" lon="17.8165953">
        <ele>19.8444</ele>
        <time>2014-05-16T17:46:48Z</time>
      </trkpt>
      <trkpt lat="59.8599471" lon="17.81653">
        <ele>19.8444</ele>
        <time>2014-05-16T17:46:49Z</time>
      </trkpt>
      <trkpt lat="59.8598854" lon="17.8164648">
        <ele>19.8444</ele>
        <time>2014-05-16T17:46:50Z</time>
      </trkpt>
      <trkpt lat="59.8598218" lon="17.8164042">
        <ele>19.8444</ele>
        <time>2014-05-16T17:46:51Z</time>
      </trkpt>
      <trkpt lat="59.8597571" lon="17.8163497">
        <ele>19.8444</ele>
        <time>2014-05-16T17:46:52Z</time>
      </trkpt>
      <trkpt lat="59.8596929" lon="17.8162974">
        <ele>19.8444</ele>
        <time>2014-05-16T17:46:53Z</time>
      </trkpt>
      <trkpt lat="59.8596295" lon="17.8162454">
        <ele>19.8444</ele>
        <time>2014-05-16T17:46:54Z</time>
      </trkpt>
      <trkpt lat="59.8595658" lon="17.8161934">
        <ele>19.8444</ele>
        <time>2014-05-16T17:46:55Z</time>
      </trkpt>
      <trkpt lat="59.8595015" lon="17.8161411">
        <ele>19.8444</ele>
        <time>2014-05-16T17:46:56Z</time>
      </trkpt>
      <trkpt lat="59.8594363" lon="17.8160878">
        <ele>19.8444</ele>
        <time>2014-05-16T17:46:57Z</time>
      </trkpt>
      <trkpt lat="59.8593709" lon="17.8160343">
        <ele>19.8444</ele>
        <time>2014-05-16T17:46:58Z</time>
      </trkpt>
      <trkpt lat="59.859307" lon="17.8159792">
        <ele>19.8444</ele>
        <time>2014-05-16T17:46:59Z</time>
      </trkpt>
      <trkpt lat="59.8592457" lon="17.8159255">
        <ele>19.8444</ele>
        <time>2014-05-16T17:47:00Z</time>
      </trkpt>
      <trkpt lat="59.8591845" lon="17.8158745">
        <ele>19.8444</ele>
        <time>2014-05-16T17:47:01Z</time>
      </trkpt>
      <trkpt lat="59.8591256" lon="17.8158262">
        <ele>19.8444</ele>
        <time>2014-05-16T17:47:02Z</time>
      </trkpt>
      <trkpt lat="59.859069" lon="17.8157779">
        <ele>19.8444</ele>
        <time>2014-05-16T17:47:03Z</time>
      </trkpt>
      <trkpt lat="59.8590126" lon="17.8157306">
        <ele>20.325</ele>
        <time>2014-05-16T17:47:04Z</time>
      </trkpt>
      <trkpt lat="59.8589565" lon="17.815684">
        <ele>20.325</ele>
        <time>2014-05-16T17:47:05Z</time>
      </trkpt>
      <trkpt lat="59.8589007" lon="17.8156371">
        <ele>20.325</ele>
        <time>2014-05-16T17:47:06Z</time>
      </trkpt>
      <trkpt lat="59.8588448" lon="17.8155917">
        <ele>20.325</ele>
        <time>2014-05-16T17:47:07Z</time>
      </trkpt>
      <trkpt lat="59.8587891" lon="17.8155467">
        <ele>20.325</ele>
        <time>2014-05-16T17:47:08Z</time>
      </trkpt>
      <trkpt lat="59.8587342" lon="17.8155019">
        <ele>20.325</ele>
        <time>2014-05-16T17:47:09Z</time>
      </trkpt>
      <trkpt lat="59.8586804" lon="17.8154573">
        <ele>20.8057</ele>
        <time>2014-05-16T17:47:10Z</time>
      </trkpt>
      <trkpt lat="59.8586271" lon="17.8154148">
        <ele>20.8057</ele>
        <time>2014-05-16T17:47:11Z</time>
      </trkpt>
      <trkpt lat="59.8585742" lon="17.8153745">
        <ele>20.8057</ele>
        <time>2014-05-16T17:47:12Z</time>
      </trkpt>
      <trkpt lat="59.8585232" lon="17.8153363">
        <ele>21.2864</ele>
        <time>2014-05-16T17:47:13Z</time>
      </trkpt>
      <trkpt lat="59.8584748" lon="17.8152986">
        <ele>21.2864</ele>
        <time>2014-05-16T17:47:14Z</time>
      </trkpt>
      <trkpt lat="59.8584278" lon="17.8152605">
        <ele>21.767</ele>
        <time>2014-05-16T17:47:15Z</time>
      </trkpt>
      <trkpt lat="59.8583827" lon="17.8152232">
        <ele>22.2476</ele>
        <time>2014-05-16T17:47:16Z</time>
      </trkpt>
      <trkpt lat="59.8583383" lon="17.8151902">
        <ele>22.2476</ele>
        <time>2014-05-16T17:47:17Z</time>
      </trkpt>
      <trkpt lat="59.8582942" lon="17.8151598">
        <ele>22.7283</ele>
        <time>2014-05-16T17:47:18Z</time>
      </trkpt>
      <trkpt lat="59.8582492" lon="17.8151293">
        <ele>22.7283</ele>
        <time>2014-05-16T17:47:19Z</time>
      </trkpt>
      <trkpt lat="59.8582024" lon="17.8150993">
        <ele>22.7283</ele>
        <time>2014-05-16T17:47:20Z</time>
      </trkpt>
      <trkpt lat="59.8581533" lon="17.8150694">
        <ele>22.7283</ele>
        <time>2014-05-16T17:47:21Z</time>
      </trkpt>
      <trkpt lat="59.8581014" lon="17.8150377">
        <ele>22.7283</ele>
        <time>2014-05-16T17:47:22Z</time>
      </trkpt>
      <trkpt lat="59.8580481" lon="17.8150024">
        <ele>22.2476</ele>
        <time>2014-05-16T17:47:23Z</time>
      </trkpt>
      <trkpt lat="59.8579922" lon="17.8149662">
        <ele>22.2476</ele>
        <time>2014-05-16T17:47:24Z</time>
      </trkpt>
      <trkpt lat="59.8579329" lon="17.8149349">
        <ele>21.767</ele>
        <time>2014-05-16T17:47:25Z</time>
      </trkpt>
      <trkpt lat="59.8578729" lon="17.8149065">
        <ele>21.767</ele>
        <time>2014-05-16T17:47:26Z</time>
      </trkpt>
      <trkpt lat="59.8578189" lon="17.814867">
        <ele>21.2864</ele>
        <time>2014-05-16T17:47:27Z</time>
      </trkpt>
      <trkpt lat="59.8577765" lon="17.8148041">
        <ele>21.2864</ele>
        <time>2014-05-16T17:47:28Z</time>
      </trkpt>
      <trkpt lat="59.8577502" lon="17.8147186">
        <ele>20.8057</ele>
        <time>2014-05-16T17:47:29Z</time>
      </trkpt>
      <trkpt lat="59.8577435" lon="17.8146192">
        <ele>20.8057</ele>
        <time>2014-05-16T17:47:30Z</time>
      </trkpt>
      <trkpt lat="59.8577527" lon="17.8145169">
        <ele>20.325</ele>
        <time>2014-05-16T17:47:31Z</time>
      </trkpt>
      <trkpt lat="59.8577707" lon="17.8144155">
        <ele>20.325</ele>
        <time>2014-05-16T17:47:32Z</time>
      </trkpt>
      <trkpt lat="59.857791" lon="17.8143102">
        <ele>20.325</ele>
        <time>2014-05-16T17:47:33Z</time>
      </trkpt>
      <trkpt lat="59.8578098" lon="17.8142005">
        <ele>19.8444</ele>
        <time>2014-05-16T17:47:34Z</time>
      </trkpt>
      <trkpt lat="59.8578267" lon="17.8140855">
        <ele>19.8444</ele>
        <time>2014-05-16T17:47:35Z</time>
      </trkpt>
      <trkpt lat="59.8578427" lon="17.8139668">
        <ele>19.8444</ele>
        <time>2014-05-16T17:47:36Z</time>
      </trkpt>
      <trkpt lat="59.8578584" lon="17.8138442">
        <ele>19.3638</ele>
        <time>2014-05-16T17:47:37Z</time>
      </trkpt>
      <trkpt lat="59.8578744" lon="17.8137183">
        <ele>19.3638</ele>
        <time>2014-05-16T17:47:38Z</time>
      </trkpt>
      <trkpt lat="59.85789" lon="17.8135882">
        <ele>19.3638</ele>
        <time>2014-05-16T17:47:39Z</time>
      </trkpt>
      <trkpt lat="59.8579054" lon="17.8134555">
        <ele>19.3638</ele>
        <time>2014-05-16T17:47:40Z</time>
      </trkpt>
      <trkpt lat="59.8579197" lon="17.8133214">
        <ele>18.8831</ele>
        <time>2014-05-16T17:47:41Z</time>
      </trkpt>
      <trkpt lat="59.8579341" lon="17.8131852">
        <ele>18.8831</ele>
        <time>2014-05-16T17:47:42Z</time>
      </trkpt>
      <trkpt lat="59.8579472" lon="17.8130479">
        <ele>18.8831</ele>
        <time>2014-05-16T17:47:43Z</time>
      </trkpt>
      <trkpt lat="59.8579591" lon="17.812909">
        <ele>18.4023</ele>
        <time>2014-05-16T17:47:44Z</time>
      </trkpt>
      <trkpt lat="59.8579699" lon="17.8127673">
        <ele>18.4023</ele>
        <time>2014-05-16T17:47:45Z</time>
      </trkpt>
      <trkpt lat="59.8579793" lon="17.8126247">
        <ele>18.4023</ele>
        <time>2014-05-16T17:47:46Z</time>
      </trkpt>
      <trkpt lat="59.8579867" lon="17.8124809">
        <ele>18.4023</ele>
        <time>2014-05-16T17:47:47Z</time>
      </trkpt>
      <trkpt lat="59.8579921" lon="17.8123378">
        <ele>17.9218</ele>
        <time>2014-05-16T17:47:48Z</time>
      </trkpt>
      <trkpt lat="59.8579968" lon="17.8121958">
        <ele>17.9218</ele>
        <time>2014-05-16T17:47:49Z</time>
      </trkpt>
      <trkpt lat="59.8579997" lon="17.8120545">
        <ele>17.9218</ele>
        <time>2014-05-16T17:47:50Z</time>
      </trkpt>
      <trkpt lat="59.8580009" lon="17.8119136">
        <ele>17.9218</ele>
        <time>2014-05-16T17:47:51Z</time>
      </trkpt>
      <trkpt lat="59.858" lon="17.8117735">
        <ele>17.4412</ele>
        <time>2014-05-16T17:47:52Z</time>
      </trkpt>
      <trkpt lat="59.8579973" lon="17.8116322">
        <ele>17.4412</ele>
        <time>2014-05-16T17:47:53Z</time>
      </trkpt>
      <trkpt lat="59.8579937" lon="17.8114908">
        <ele>17.4412</ele>
        <time>2014-05-16T17:47:54Z</time>
      </trkpt>
      <trkpt lat="59.85799" lon="17.8113499">
        <ele>17.4412</ele>
        <time>2014-05-16T17:47:55Z</time>
      </trkpt>
      <trkpt lat="59.8579848" lon="17.8112101">
        <ele>17.4412</ele>
        <time>2014-05-16T17:47:56Z</time>
      </trkpt>
      <trkpt lat="59.8579781" lon="17.8110727">
        <ele>17.4412</ele>
        <time>2014-05-16T17:47:57Z</time>
      </trkpt>
      <trkpt lat="59.8579699" lon="17.8109364">
        <ele>17.4412</ele>
        <time>2014-05-16T17:47:58Z</time>
      </trkpt>
      <trkpt lat="59.8579601" lon="17.8108006">
        <ele>16.9604</ele>
        <time>2014-05-16T17:47:59Z</time>
      </trkpt>
      <trkpt lat="59.8579496" lon="17.8106659">
        <ele>16.9604</ele>
        <time>2014-05-16T17:48:00Z</time>
      </trkpt>
      <trkpt lat="59.8579377" lon="17.8105315">
        <ele>16.9604</ele>
        <time>2014-05-16T17:48:01Z</time>
      </trkpt>
      <trkpt lat="59.8579241" lon="17.8103977">
        <ele>16.9604</ele>
        <time>2014-05-16T17:48:02Z</time>
      </trkpt>
      <trkpt lat="59.857909" lon="17.8102645">
        <ele>16.9604</ele>
        <time>2014-05-16T17:48:03Z</time>
      </trkpt>
      <trkpt lat="59.8578927" lon="17.8101324">
        <ele>16.4797</ele>
        <time>2014-05-16T17:48:04Z</time>
      </trkpt>
      <trkpt lat="59.857875" lon="17.8100011">
        <ele>16.4797</ele>
        <time>2014-05-16T17:48:05Z</time>
      </trkpt>
      <trkpt lat="59.8578557" lon="17.8098694">
        <ele>16.4797</ele>
        <time>2014-05-16T17:48:06Z</time>
      </trkpt>
      <trkpt lat="59.8578348" lon="17.8097377">
        <ele>15.999</ele>
        <time>2014-05-16T17:48:07Z</time>
      </trkpt>
      <trkpt lat="59.8578122" lon="17.8096061">
        <ele>15.999</ele>
        <time>2014-05-16T17:48:08Z</time>
      </trkpt>
      <trkpt lat="59.8577876" lon="17.8094748">
        <ele>15.999</ele>
        <time>2014-05-16T17:48:09Z</time>
      </trkpt>
      <trkpt lat="59.8577625" lon="17.809342">
        <ele>15.999</ele>
        <time>2014-05-16T17:48:10Z</time>
      </trkpt>
      <trkpt lat="59.8577363" lon="17.8092094">
        <ele>15.999</ele>
        <time>2014-05-16T17:48:11Z</time>
      </trkpt>
      <trkpt lat="59.8577083" lon="17.809078">
        <ele>15.999</ele>
        <time>2014-05-16T17:48:12Z</time>
      </trkpt>
      <trkpt lat="59.8576788" lon="17.8089458">
        <ele>15.999</ele>
        <time>2014-05-16T17:48:13Z</time>
      </trkpt>
      <trkpt lat="59.857649" lon="17.8088135">
        <ele>15.999</ele>
        <time>2014-05-16T17:48:14Z</time>
      </trkpt>
      <trkpt lat="59.8576181" lon="17.8086826">
        <ele>15.5184</ele>
        <time>2014-05-16T17:48:15Z</time>
      </trkpt>
      <trkpt lat="59.857586" lon="17.8085522">
        <ele>15.5184</ele>
        <time>2014-05-16T17:48:16Z</time>
      </trkpt>
      <trkpt lat="59.8575522" lon="17.8084221">
        <ele>15.5184</ele>
        <time>2014-05-16T17:48:17Z</time>
      </trkpt>
      <trkpt lat="59.8575179" lon="17.8082925">
        <ele>15.5184</ele>
        <time>2014-05-16T17:48:18Z</time>
      </trkpt>
      <trkpt lat="59.8574835" lon="17.8081637">
        <ele>15.5184</ele>
        <time>2014-05-16T17:48:19Z</time>
      </trkpt>
      <trkpt lat="59.8574485" lon="17.808036">
        <ele>15.5184</ele>
        <time>2014-05-16T17:48:20Z</time>
      </trkpt>
      <trkpt lat="59.8574125" lon="17.8079044">
        <ele>15.999</ele>
        <time>2014-05-16T17:48:21Z</time>
      </trkpt>
      <trkpt lat="59.8573756" lon="17.8077751">
        <ele>15.999</ele>
        <time>2014-05-16T17:48:22Z</time>
      </trkpt>
      <trkpt lat="59.8573387" lon="17.8076472">
        <ele>16.4797</ele>
        <time>2014-05-16T17:48:23Z</time>
      </trkpt>
      <trkpt lat="59.8573014" lon="17.8075194">
        <ele>16.4797</ele>
        <time>2014-05-16T17:48:24Z</time>
      </trkpt>
      <trkpt lat="59.8572638" lon="17.8073917">
        <ele>16.4797</ele>
        <time>2014-05-16T17:48:25Z</time>
      </trkpt>
      <trkpt lat="59.8572264" lon="17.8072635">
        <ele>16.9604</ele>
        <time>2014-05-16T17:48:26Z</time>
      </trkpt>
      <trkpt lat="59.8571896" lon="17.8071365">
        <ele>17.4412</ele>
        <time>2014-05-16T17:48:27Z</time>
      </trkpt>
      <trkpt lat="59.8571531" lon="17.8070121">
        <ele>17.4412</ele>
        <time>2014-05-16T17:48:28Z</time>
      </trkpt>
      <trkpt lat="59.8571167" lon="17.8068909">
        <ele>17.9218</ele>
        <time>2014-05-16T17:48:29Z</time>
      </trkpt>
      <trkpt lat="59.8570807" lon="17.8067728">
        <ele>17.9218</ele>
        <time>2014-05-16T17:48:30Z</time>
      </trkpt>
      <trkpt lat="59.8570451" lon="17.8066558">
        <ele>17.9218</ele>
        <time>2014-05-16T17:48:31Z</time>
      </trkpt>
      <trkpt lat="59.8570101" lon="17.8065406">
        <ele>18.4023</ele>
        <time>2014-05-16T17:48:32Z</time>
      </trkpt>
      <trkpt lat="59.8569754" lon="17.8064272">
        <ele>18.4023</ele>
        <time>2014-05-16T17:48:33Z</time>
      </trkpt>
      <trkpt lat="59.8569411" lon="17.8063153">
        <ele>18.4023</ele>
        <time>2014-05-16T17:48:34Z</time>
      </trkpt>
      <trkpt lat="59.8569074" lon="17.806204">
        <ele>18.8831</ele>
        <time>2014-05-16T17:48:35Z</time>
      </trkpt>
      <trkpt lat="59.8568742" lon="17.8060942">
        <ele>18.8831</ele>
        <time>2014-05-16T17:48:36Z</time>
      </trkpt>
      <trkpt lat="59.8568411" lon="17.805985">
        <ele>18.8831</ele>
        <time>2014-05-16T17:48:37Z</time>
      </trkpt>
      <trkpt lat="59.8568084" lon="17.8058771">
        <ele>18.8831</ele>
        <time>2014-05-16T17:48:38Z</time>
      </trkpt>
      <trkpt lat="59.8567762" lon="17.8057704">
        <ele>18.8831</ele>
        <time>2014-05-16T17:48:39Z</time>
      </trkpt>
      <trkpt lat="59.8567443" lon="17.8056649">
        <ele>19.3638</ele>
        <time>2014-05-16T17:48:40Z</time>
      </trkpt>
      <trkpt lat="59.8567128" lon="17.8055617">
        <ele>19.3638</ele>
        <time>2014-05-16T17:48:41Z</time>
      </trkpt>
      <trkpt lat="59.8566824" lon="17.8054602">
        <ele>19.3638</ele>
        <time>2014-05-16T17:48:42Z</time>
      </trkpt>
      <trkpt lat="59.8566524" lon="17.8053597">
        <ele>19.8444</ele>
        <time>2014-05-16T17:48:43Z</time>
      </trkpt>
      <trkpt lat="59.8566233" lon="17.8052606">
        <ele>19.8444</ele>
        <time>2014-05-16T17:48:44Z</time>
      </trkpt>
      <trkpt lat="59.8565947" lon="17.8051629">
        <ele>19.8444</ele>
        <time>2014-05-16T17:48:45Z</time>
      </trkpt>
      <trkpt lat="59.8565658" lon="17.805067">
        <ele>19.8444</ele>
        <time>2014-05-16T17:48:46Z</time>
      </trkpt>
      <trkpt lat="59.8565369" lon="17.8049717">
        <ele>20.325</ele>
        <time>2014-05-16T17:48:47Z</time>
      </trkpt>
      <trkpt lat="59.8565087" lon="17.8048775">
        <ele>20.325</ele>
        <time>2014-05-16T17:48:48Z</time>
      </trkpt>
      <trkpt lat="59.8564811" lon="17.8047851">
        <ele>20.325</ele>
        <time>2014-05-16T17:48:49Z</time>
      </trkpt>
      <trkpt lat="59.8564542" lon="17.8046943">
        <ele>20.325</ele>
        <time>2014-05-16T17:48:50Z</time>
      </trkpt>
      <trkpt lat="59.8564288" lon="17.8046029">
        <ele>20.8057</ele>
        <time>2014-05-16T17:48:51Z</time>
      </trkpt>
      <trkpt lat="59.8564047" lon="17.8045104">
        <ele>20.8057</ele>
        <time>2014-05-16T17:48:52Z</time>
      </trkpt>
      <trkpt lat="59.8563801" lon="17.8044184">
        <ele>20.8057</ele>
        <time>2014-05-16T17:48:53Z</time>
      </trkpt>
      <trkpt lat="59.8563542" lon="17.8043281">
        <ele>20.8057</ele>
        <time>2014-05-16T17:48:54Z</time>
      </trkpt>
      <trkpt lat="59.8563284" lon="17.8042372">
        <ele>21.2864</ele>
        <time>2014-05-16T17:48:55Z</time>
      </trkpt>
      <trkpt lat="59.8563037" lon="17.8041463">
        <ele>21.2864</ele>
        <time>2014-05-16T17:48:56Z</time>
      </trkpt>
      <trkpt lat="59.8562786" lon="17.8040564">
        <ele>21.2864</ele>
        <time>2014-05-16T17:48:57Z</time>
      </trkpt>
      <trkpt lat="59.8562526" lon="17.80397">
        <ele>21.767</ele>
        <time>2014-05-16T17:48:58Z</time>
      </trkpt>
      <trkpt lat="59.8562263" lon="17.8038864">
        <ele>21.767</ele>
        <time>2014-05-16T17:48:59Z</time>
      </trkpt>
      <trkpt lat="59.8562009" lon="17.8038045">
        <ele>21.767</ele>
        <time>2014-05-16T17:49:00Z</time>
      </trkpt>
      <trkpt lat="59.8561775" lon="17.8037225">
        <ele>22.2476</ele>
        <time>2014-05-16T17:49:01Z</time>
      </trkpt>
      <trkpt lat="59.8561611" lon="17.8036345">
        <ele>22.2476</ele>
        <time>2014-05-16T17:49:02Z</time>
      </trkpt>
      <trkpt lat="59.8561538" lon="17.8035409">
        <ele>22.2476</ele>
        <time>2014-05-16T17:49:03Z</time>
      </trkpt>
      <trkpt lat="59.8561475" lon="17.8034477">
        <ele>22.7283</ele>
        <time>2014-05-16T17:49:04Z</time>
      </trkpt>
      <trkpt lat="59.8561347" lon="17.8033584">
        <ele>22.7283</ele>
        <time>2014-05-16T17:49:05Z</time>
      </trkpt>
      <trkpt lat="59.8561136" lon="17.8032747">
        <ele>22.7283</ele>
        <time>2014-05-16T17:49:06Z</time>
      </trkpt>
      <trkpt lat="59.8560848" lon="17.8031989">
        <ele>22.7283</ele>
        <time>2014-05-16T17:49:07Z</time>
      </trkpt>
      <trkpt lat="59.8560507" lon="17.8031286">
        <ele>22.7283</ele>
        <time>2014-05-16T17:49:08Z</time>
      </trkpt>
      <trkpt lat="59.8560171" lon="17.8030575">
        <ele>22.7283</ele>
        <time>2014-05-16T17:49:09Z</time>
      </trkpt>
      <trkpt lat="59.8559877" lon="17.8029799">
        <ele>23.209</ele>
        <time>2014-05-16T17:49:10Z</time>
      </trkpt>
      <trkpt lat="59.8559615" lon="17.8028955">
        <ele>23.209</ele>
        <time>2014-05-16T17:49:11Z</time>
      </trkpt>
      <trkpt lat="59.855934" lon="17.8028074">
        <ele>23.209</ele>
        <time>2014-05-16T17:49:12Z</time>
      </trkpt>
      <trkpt lat="59.8559051" lon="17.8027173">
        <ele>23.6896</ele>
        <time>2014-05-16T17:49:13Z</time>
      </trkpt>
      <trkpt lat="59.8558771" lon="17.8026228">
        <ele>23.6896</ele>
        <time>2014-05-16T17:49:14Z</time>
      </trkpt>
      <trkpt lat="59.8558498" lon="17.8025268">
        <ele>24.1703</ele>
        <time>2014-05-16T17:49:15Z</time>
      </trkpt>
      <trkpt lat="59.8558222" lon="17.8024323">
        <ele>24.1703</ele>
        <time>2014-05-16T17:49:16Z</time>
      </trkpt>
      <trkpt lat="59.8557935" lon="17.8023381">
        <ele>24.651</ele>
        <time>2014-05-16T17:49:17Z</time>
      </trkpt>
      <trkpt lat="59.8557664" lon="17.8022422">
        <ele>24.651</ele>
        <time>2014-05-16T17:49:18Z</time>
      </trkpt>
      <trkpt lat="59.8557419" lon="17.8021437">
        <ele>25.1317</ele>
        <time>2014-05-16T17:49:19Z</time>
      </trkpt>
      <trkpt lat="59.8557211" lon="17.8020433">
        <ele>25.1317</ele>
        <time>2014-05-16T17:49:20Z</time>
      </trkpt>
      <trkpt lat="59.8557029" lon="17.8019444">
        <ele>25.6123</ele>
        <time>2014-05-16T17:49:21Z</time>
      </trkpt>
      <trkpt lat="59.8556895" lon="17.8018502">
        <ele>26.0929</ele>
        <time>2014-05-16T17:49:22Z</time>
      </trkpt>
      <trkpt lat="59.8556726" lon="17.801762">
        <ele>26.0929</ele>
        <time>2014-05-16T17:49:23Z</time>
      </trkpt>
      <trkpt lat="59.8556517" lon="17.8016782">
        <ele>26.0929</ele>
        <time>2014-05-16T17:49:24Z</time>
      </trkpt>
      <trkpt lat="59.8556315" lon="17.8015938">
        <ele>26.5736</ele>
        <time>2014-05-16T17:49:25Z</time>
      </trkpt>
      <trkpt lat="59.8556082" lon="17.8015097">
        <ele>26.5736</ele>
        <time>2014-05-16T17:49:26Z</time>
      </trkpt>
      <trkpt lat="59.8555824" lon="17.8014253">
        <ele>27.0543</ele>
        <time>2014-05-16T17:49:27Z</time>
      </trkpt>
      <trkpt lat="59.855561" lon="17.8013367">
        <ele>27.0543</ele>
        <time>2014-05-16T17:49:28Z</time>
      </trkpt>
      <trkpt lat="59.8555395" lon="17.8012476">
        <ele>27.0543</ele>
        <time>2014-05-16T17:49:29Z</time>
      </trkpt>
      <trkpt lat="59.8555186" lon="17.8011572">
        <ele>27.5349</ele>
        <time>2014-05-16T17:49:30Z</time>
      </trkpt>
      <trkpt lat="59.8554964" lon="17.8010701">
        <ele>27.5349</ele>
        <time>2014-05-16T17:49:31Z</time>
      </trkpt>
      <trkpt lat="59.8554714" lon="17.8009812">
        <ele>27.5349</ele>
        <time>2014-05-16T17:49:32Z</time>
      </trkpt>
      <trkpt lat="59.8554454" lon="17.8008974">
        <ele>28.0155</ele>
        <time>2014-05-16T17:49:33Z</time>
      </trkpt>
      <trkpt lat="59.8554238" lon="17.8008157">
        <ele>28.0155</ele>
        <time>2014-05-16T17:49:34Z</time>
      </trkpt>
      <trkpt lat="59.8554029" lon="17.8007354">
        <ele>28.4962</ele>
        <time>2014-05-16T17:49:35Z</time>
      </trkpt>
      <trkpt lat="59.8553832" lon="17.8006565">
        <ele>28.4962</ele>
        <time>2014-05-16T17:49:36Z</time>
      </trkpt>
      <trkpt lat="59.8553631" lon="17.8005801">
        <ele>28.9769</ele>
        <time>2014-05-16T17:49:37Z</time>
      </trkpt>
      <trkpt lat="59.8553424" lon="17.8005044">
        <ele>28.9769</ele>
        <time>2014-05-16T17:49:38Z</time>
      </trkpt>
      <trkpt lat="59.8553217" lon="17.8004286">
        <ele>28.9769</ele>
        <time>2014-05-16T17:49:39Z</time>
      </trkpt>
      <trkpt lat="59.8553" lon="17.8003521">
        <ele>28.9769</ele>
        <time>2014-05-16T17:49:40Z</time>
      </trkpt>
      <trkpt lat="59.8552799" lon="17.8002733">
        <ele>28.9769</ele>
        <time>2014-05-16T17:49:41Z</time>
      </trkpt>
      <trkpt lat="59.8552548" lon="17.8001937">
        <ele>28.9769</ele>
        <time>2014-05-16T17:49:42Z</time>
      </trkpt>
      <trkpt lat="59.8552279" lon="17.8001034">
        <ele>29.9381</ele>
        <time>2014-05-16T17:49:43Z</time>
      </trkpt>
      <trkpt lat="59.8552002" lon="17.8000174">
        <ele>29.9381</ele>
        <time>2014-05-16T17:49:44Z</time>
      </trkpt>
      <trkpt lat="59.8551748" lon="17.7999371">
        <ele>29.9381</ele>
        <time>2014-05-16T17:49:45Z</time>
      </trkpt>
      <trkpt lat="59.855153" lon="17.7998516">
        <ele>29.4575</ele>
        <time>2014-05-16T17:49:46Z</time>
      </trkpt>
      <trkpt lat="59.8551295" lon="17.7997679">
        <ele>29.9381</ele>
        <time>2014-05-16T17:49:47Z</time>
      </trkpt>
      <trkpt lat="59.8551038" lon="17.7996863">
        <ele>29.9381</ele>
        <time>2014-05-16T17:49:48Z</time>
      </trkpt>
      <trkpt lat="59.8550809" lon="17.7996015">
        <ele>29.9381</ele>
        <time>2014-05-16T17:49:49Z</time>
      </trkpt>
      <trkpt lat="59.8550566" lon="17.7995177">
        <ele>29.4575</ele>
        <time>2014-05-16T17:49:50Z</time>
      </trkpt>
      <trkpt lat="59.8550307" lon="17.7994334">
        <ele>29.4575</ele>
        <time>2014-05-16T17:49:51Z</time>
      </trkpt>
      <trkpt lat="59.8550048" lon="17.7993482">
        <ele>29.4575</ele>
        <time>2014-05-16T17:49:52Z</time>
      </trkpt>
      <trkpt lat="59.8549802" lon="17.7992611">
        <ele>29.4575</ele>
        <time>2014-05-16T17:49:53Z</time>
      </trkpt>
      <trkpt lat="59.854956" lon="17.7991731">
        <ele>29.4575</ele>
        <time>2014-05-16T17:49:54Z</time>
      </trkpt>
      <trkpt lat="59.8549324" lon="17.7990834">
        <ele>29.4575</ele>
        <time>2014-05-16T17:49:55Z</time>
      </trkpt>
      <trkpt lat="59.8549098" lon="17.7989949">
        <ele>28.9769</ele>
        <time>2014-05-16T17:49:56Z</time>
      </trkpt>
      <trkpt lat="59.854883" lon="17.7989006">
        <ele>28.9769</ele>
        <time>2014-05-16T17:49:57Z</time>
      </trkpt>
      <trkpt lat="59.8548626" lon="17.7987979">
        <ele>28.4962</ele>
        <time>2014-05-16T17:49:58Z</time>
      </trkpt>
      <trkpt lat="59.8548348" lon="17.7986937">
        <ele>28.9769</ele>
        <time>2014-05-16T17:49:59Z</time>
      </trkpt>
      <trkpt lat="59.8548075" lon="17.7985865">
        <ele>28.9769</ele>
        <time>2014-05-16T17:50:00Z</time>
      </trkpt>
      <trkpt lat="59.8547809" lon="17.7984832">
        <ele>28.9769</ele>
        <time>2014-05-16T17:50:01Z</time>
      </trkpt>
      <trkpt lat="59.854755" lon="17.7983816">
        <ele>28.4962</ele>
        <time>2014-05-16T17:50:02Z</time>
      </trkpt>
      <trkpt lat="59.8547288" lon="17.7982793">
        <ele>28.4962</ele>
        <time>2014-05-16T17:50:03Z</time>
      </trkpt>
      <trkpt lat="59.8547021" lon="17.798175">
        <ele>28.4962</ele>
        <time>2014-05-16T17:50:04Z</time>
      </trkpt>
      <trkpt lat="59.8546757" lon="17.7980676">
        <ele>28.4962</ele>
        <time>2014-05-16T17:50:05Z</time>
      </trkpt>
      <trkpt lat="59.8546494" lon="17.7979604">
        <ele>28.4962</ele>
        <time>2014-05-16T17:50:06Z</time>
      </trkpt>
      <trkpt lat="59.8546209" lon="17.7978564">
        <ele>28.4962</ele>
        <time>2014-05-16T17:50:07Z</time>
      </trkpt>
      <trkpt lat="59.8545914" lon="17.7977527">
        <ele>28.4962</ele>
        <time>2014-05-16T17:50:08Z</time>
      </trkpt>
      <trkpt lat="59.8545635" lon="17.7976479">
        <ele>28.9769</ele>
        <time>2014-05-16T17:50:09Z</time>
      </trkpt>
      <trkpt lat="59.8545353" lon="17.7975455">
        <ele>28.9769</ele>
        <time>2014-05-16T17:50:10Z</time>
      </trkpt>
      <trkpt lat="59.8545106" lon="17.7974413">
        <ele>29.4575</ele>
        <time>2014-05-16T17:50:11Z</time>
      </trkpt>
      <trkpt lat="59.8544878" lon="17.7973365">
        <ele>28.9769</ele>
        <time>2014-05-16T17:50:12Z</time>
      </trkpt>
      <trkpt lat="59.8544643" lon="17.7972327">
        <ele>28.9769</ele>
        <time>2014-05-16T17:50:13Z</time>
      </trkpt>
      <trkpt lat="59.8544391" lon="17.7971304">
        <ele>28.9769</ele>
        <time>2014-05-16T17:50:14Z</time>
      </trkpt>
      <trkpt lat="59.8544087" lon="17.7970304">
        <ele>29.4575</ele>
        <time>2014-05-16T17:50:15Z</time>
      </trkpt>
      <trkpt lat="59.8543786" lon="17.7969323">
        <ele>29.4575</ele>
        <time>2014-05-16T17:50:16Z</time>
      </trkpt>
      <trkpt lat="59.8543469" lon="17.7968364">
        <ele>29.4575</ele>
        <time>2014-05-16T17:50:17Z</time>
      </trkpt>
      <trkpt lat="59.8543172" lon="17.7967421">
        <ele>29.4575</ele>
        <time>2014-05-16T17:50:18Z</time>
      </trkpt>
      <trkpt lat="59.8542894" lon="17.796647">
        <ele>29.9381</ele>
        <time>2014-05-16T17:50:19Z</time>
      </trkpt>
      <trkpt lat="59.8542639" lon="17.7965529">
        <ele>29.4575</ele>
        <time>2014-05-16T17:50:20Z</time>
      </trkpt>
      <trkpt lat="59.8542366" lon="17.7964577">
        <ele>29.9381</ele>
        <time>2014-05-16T17:50:21Z</time>
      </trkpt>
      <trkpt lat="59.8542094" lon="17.7963603">
        <ele>29.9381</ele>
        <time>2014-05-16T17:50:22Z</time>
      </trkpt>
      <trkpt lat="59.8541826" lon="17.7962613">
        <ele>29.9381</ele>
        <time>2014-05-16T17:50:23Z</time>
      </trkpt>
      <trkpt lat="59.8541564" lon="17.796161">
        <ele>29.9381</ele>
        <time>2014-05-16T17:50:24Z</time>
      </trkpt>
      <trkpt lat="59.8541288" lon="17.7960578">
        <ele>30.4188</ele>
        <time>2014-05-16T17:50:25Z</time>
      </trkpt>
      <trkpt lat="59.8540991" lon="17.7959542">
        <ele>30.8995</ele>
        <time>2014-05-16T17:50:26Z</time>
      </trkpt>
      <trkpt lat="59.8540686" lon="17.7958516">
        <ele>30.8995</ele>
        <time>2014-05-16T17:50:27Z</time>
      </trkpt>
      <trkpt lat="59.8540412" lon="17.795748">
        <ele>30.8995</ele>
        <time>2014-05-16T17:50:28Z</time>
      </trkpt>
      <trkpt lat="59.8540107" lon="17.7956448">
        <ele>31.3801</ele>
        <time>2014-05-16T17:50:29Z</time>
      </trkpt>
      <trkpt lat="59.8539796" lon="17.7955413">
        <ele>31.3801</ele>
        <time>2014-05-16T17:50:30Z</time>
      </trkpt>
      <trkpt lat="59.8539522" lon="17.7954356">
        <ele>31.3801</ele>
        <time>2014-05-16T17:50:31Z</time>
      </trkpt>
      <trkpt lat="59.8539216" lon="17.7953316">
        <ele>31.8607</ele>
        <time>2014-05-16T17:50:32Z</time>
      </trkpt>
      <trkpt lat="59.8538921" lon="17.7952272">
        <ele>31.8607</ele>
        <time>2014-05-16T17:50:33Z</time>
      </trkpt>
      <trkpt lat="59.8538611" lon="17.7951239">
        <ele>31.8607</ele>
        <time>2014-05-16T17:50:34Z</time>
      </trkpt>
      <trkpt lat="59.8538285" lon="17.7950218">
        <ele>32.3416</ele>
        <time>2014-05-16T17:50:35Z</time>
      </trkpt>
      <trkpt lat="59.8537952" lon="17.7949192">
        <ele>32.3416</ele>
        <time>2014-05-16T17:50:36Z</time>
      </trkpt>
      <trkpt lat="59.8537657" lon="17.7948136">
        <ele>32.3416</ele>
        <time>2014-05-16T17:50:37Z</time>
      </trkpt>
      <trkpt lat="59.8537352" lon="17.7947083">
        <ele>32.3416</ele>
        <time>2014-05-16T17:50:38Z</time>
      </trkpt>
      <trkpt lat="59.8537019" lon="17.7946016">
        <ele>32.8223</ele>
        <time>2014-05-16T17:50:39Z</time>
      </trkpt>
      <trkpt lat="59.8536674" lon="17.7944939">
        <ele>32.8223</ele>
        <time>2014-05-16T17:50:40Z</time>
      </trkpt>
      <trkpt lat="59.8536314" lon="17.7943837">
        <ele>32.8223</ele>
        <time>2014-05-16T17:50:41Z</time>
      </trkpt>
      <trkpt lat="59.8535952" lon="17.7942716">
        <ele>32.3416</ele>
        <time>2014-05-16T17:50:42Z</time>
      </trkpt>
      <trkpt lat="59.8535594" lon="17.7941603">
        <ele>32.3416</ele>
        <time>2014-05-16T17:50:43Z</time>
      </trkpt>
      <trkpt lat="59.8535243" lon="17.7940475">
        <ele>31.8607</ele>
        <time>2014-05-16T17:50:44Z</time>
      </trkpt>
      <trkpt lat="59.8534889" lon="17.7939327">
        <ele>31.3801</ele>
        <time>2014-05-16T17:50:45Z</time>
      </trkpt>
      <trkpt lat="59.8534516" lon="17.7938161">
        <ele>31.3801</ele>
        <time>2014-05-16T17:50:46Z</time>
      </trkpt>
      <trkpt lat="59.8534135" lon="17.7936986">
        <ele>31.3801</ele>
        <time>2014-05-16T17:50:47Z</time>
      </trkpt>
      <trkpt lat="59.8533716" lon="17.7935848">
        <ele>31.8607</ele>
        <time>2014-05-16T17:50:48Z</time>
      </trkpt>
      <trkpt lat="59.8533311" lon="17.7934693">
        <ele>31.8607</ele>
        <time>2014-05-16T17:50:49Z</time>
      </trkpt>
      <trkpt lat="59.8532921" lon="17.7933559">
        <ele>31.8607</ele>
        <time>2014-05-16T17:50:50Z</time>
      </trkpt>
      <trkpt lat="59.8532482" lon="17.793248">
        <ele>31.8607</ele>
        <time>2014-05-16T17:50:51Z</time>
      </trkpt>
      <trkpt lat="59.8532052" lon="17.7931398">
        <ele>31.8607</ele>
        <time>2014-05-16T17:50:52Z</time>
      </trkpt>
      <trkpt lat="59.8531631" lon="17.79303">
        <ele>31.8607</ele>
        <time>2014-05-16T17:50:53Z</time>
      </trkpt>
      <trkpt lat="59.8531223" lon="17.7929171">
        <ele>31.8607</ele>
        <time>2014-05-16T17:50:54Z</time>
      </trkpt>
      <trkpt lat="59.853081" lon="17.7928041">
        <ele>31.8607</ele>
        <time>2014-05-16T17:50:55Z</time>
      </trkpt>
      <trkpt lat="59.8530419" lon="17.7926876">
        <ele>31.3801</ele>
        <time>2014-05-16T17:50:56Z</time>
      </trkpt>
      <trkpt lat="59.8530017" lon="17.7925713">
        <ele>31.3801</ele>
        <time>2014-05-16T17:50:57Z</time>
      </trkpt>
      <trkpt lat="59.8529607" lon="17.7924553">
        <ele>31.3801</ele>
        <time>2014-05-16T17:50:58Z</time>
      </trkpt>
      <trkpt lat="59.8529203" lon="17.7923388">
        <ele>30.8995</ele>
        <time>2014-05-16T17:50:59Z</time>
      </trkpt>
      <trkpt lat="59.8528785" lon="17.7922243">
        <ele>30.8995</ele>
        <time>2014-05-16T17:51:00Z</time>
      </trkpt>
      <trkpt lat="59.8528377" lon="17.7921103">
        <ele>30.4188</ele>
        <time>2014-05-16T17:51:01Z</time>
      </trkpt>
      <trkpt lat="59.8527959" lon="17.7919977">
        <ele>29.9381</ele>
        <time>2014-05-16T17:51:02Z</time>
      </trkpt>
      <trkpt lat="59.8527535" lon="17.7918861">
        <ele>29.9381</ele>
        <time>2014-05-16T17:51:03Z</time>
      </trkpt>
      <trkpt lat="59.8527119" lon="17.7917753">
        <ele>29.9381</ele>
        <time>2014-05-16T17:51:04Z</time>
      </trkpt>
      <trkpt lat="59.8526707" lon="17.7916661">
        <ele>29.9381</ele>
        <time>2014-05-16T17:51:05Z</time>
      </trkpt>
      <trkpt lat="59.8526302" lon="17.7915588">
        <ele>29.4575</ele>
        <time>2014-05-16T17:51:06Z</time>
      </trkpt>
      <trkpt lat="59.8525903" lon="17.7914521">
        <ele>29.4575</ele>
        <time>2014-05-16T17:51:07Z</time>
      </trkpt>
      <trkpt lat="59.8525508" lon="17.7913452">
        <ele>29.4575</ele>
        <time>2014-05-16T17:51:08Z</time>
      </trkpt>
      <trkpt lat="59.8525106" lon="17.7912399">
        <ele>29.4575</ele>
        <time>2014-05-16T17:51:09Z</time>
      </trkpt>
      <trkpt lat="59.8524702" lon="17.7911356">
        <ele>29.4575</ele>
        <time>2014-05-16T17:51:10Z</time>
      </trkpt>
      <trkpt lat="59.8524299" lon="17.7910319">
        <ele>29.4575</ele>
        <time>2014-05-16T17:51:11Z</time>
      </trkpt>
      <trkpt lat="59.8523887" lon="17.7909294">
        <ele>29.4575</ele>
        <time>2014-05-16T17:51:12Z</time>
      </trkpt>
      <trkpt lat="59.8523458" lon="17.7908273">
        <ele>29.4575</ele>
        <time>2014-05-16T17:51:13Z</time>
      </trkpt>
      <trkpt lat="59.8523026" lon="17.790725">
        <ele>29.4575</ele>
        <time>2014-05-16T17:51:14Z</time>
      </trkpt>
      <trkpt lat="59.8522597" lon="17.7906234">
        <ele>29.4575</ele>
        <time>2014-05-16T17:51:15Z</time>
      </trkpt>
      <trkpt lat="59.8522168" lon="17.7905219">
        <ele>29.9381</ele>
        <time>2014-05-16T17:51:16Z</time>
      </trkpt>
      <trkpt lat="59.8521736" lon="17.7904223">
        <ele>29.9381</ele>
        <time>2014-05-16T17:51:17Z</time>
      </trkpt>
      <trkpt lat="59.8521307" lon="17.7903234">
        <ele>29.9381</ele>
        <time>2014-05-16T17:51:18Z</time>
      </trkpt>
      <trkpt lat="59.8520894" lon="17.7902233">
        <ele>29.9381</ele>
        <time>2014-05-16T17:51:19Z</time>
      </trkpt>
      <trkpt lat="59.8520493" lon="17.7901224">
        <ele>29.9381</ele>
        <time>2014-05-16T17:51:20Z</time>
      </trkpt>
      <trkpt lat="59.8520091" lon="17.7900217">
        <ele>30.4188</ele>
        <time>2014-05-16T17:51:21Z</time>
      </trkpt>
      <trkpt lat="59.8519692" lon="17.7899208">
        <ele>30.4188</ele>
        <time>2014-05-16T17:51:22Z</time>
      </trkpt>
      <trkpt lat="59.8519295" lon="17.7898195">
        <ele>30.4188</ele>
        <time>2014-05-16T17:51:23Z</time>
      </trkpt>
      <trkpt lat="59.8518899" lon="17.7897181">
        <ele>30.4188</ele>
        <time>2014-05-16T17:51:24Z</time>
      </trkpt>
      <trkpt lat="59.8518501" lon="17.7896179">
        <ele>30.4188</ele>
        <time>2014-05-16T17:51:25Z</time>
      </trkpt>
      <trkpt lat="59.8518111" lon="17.7895182">
        <ele>30.8995</ele>
        <time>2014-05-16T17:51:26Z</time>
      </trkpt>
      <trkpt lat="59.8517724" lon="17.7894188">
        <ele>30.8995</ele>
        <time>2014-05-16T17:51:27Z</time>
      </trkpt>
      <trkpt lat="59.8517334" lon="17.7893209">
        <ele>30.8995</ele>
        <time>2014-05-16T17:51:28Z</time>
      </trkpt>
      <trkpt lat="59.8516942" lon="17.7892256">
        <ele>30.8995</ele>
        <time>2014-05-16T17:51:29Z</time>
      </trkpt>
      <trkpt lat="59.8516563" lon="17.7891326">
        <ele>30.8995</ele>
        <time>2014-05-16T17:51:30Z</time>
      </trkpt>
      <trkpt lat="59.8516195" lon="17.7890396">
        <ele>30.8995</ele>
        <time>2014-05-16T17:51:31Z</time>
      </trkpt>
      <trkpt lat="59.8515836" lon="17.7889453">
        <ele>30.8995</ele>
        <time>2014-05-16T17:51:32Z</time>
      </trkpt>
      <trkpt lat="59.8515481" lon="17.7888503">
        <ele>30.8995</ele>
        <time>2014-05-16T17:51:33Z</time>
      </trkpt>
      <trkpt lat="59.8515106" lon="17.7887593">
        <ele>30.8995</ele>
        <time>2014-05-16T17:51:34Z</time>
      </trkpt>
      <trkpt lat="59.8514715" lon="17.7886664">
        <ele>30.8995</ele>
        <time>2014-05-16T17:51:35Z</time>
      </trkpt>
      <trkpt lat="59.8514326" lon="17.7885706">
        <ele>30.8995</ele>
        <time>2014-05-16T17:51:36Z</time>
      </trkpt>
      <trkpt lat="59.8513948" lon="17.7884746">
        <ele>30.8995</ele>
        <time>2014-05-16T17:51:37Z</time>
      </trkpt>
      <trkpt lat="59.8513578" lon="17.7883779">
        <ele>30.4188</ele>
        <time>2014-05-16T17:51:38Z</time>
      </trkpt>
      <trkpt lat="59.8513195" lon="17.7882831">
        <ele>30.4188</ele>
        <time>2014-05-16T17:51:39Z</time>
      </trkpt>
      <trkpt lat="59.8512787" lon="17.7881892">
        <ele>30.4188</ele>
        <time>2014-05-16T17:51:40Z</time>
      </trkpt>
      <trkpt lat="59.8512381" lon="17.7880931">
        <ele>30.8995</ele>
        <time>2014-05-16T17:51:41Z</time>
      </trkpt>
      <trkpt lat="59.8511993" lon="17.7879947">
        <ele>30.4188</ele>
        <time>2014-05-16T17:51:42Z</time>
      </trkpt>
      <trkpt lat="59.8511595" lon="17.7878963">
        <ele>30.4188</ele>
        <time>2014-05-16T17:51:43Z</time>
      </trkpt>
      <trkpt lat="59.8511177" lon="17.7877986">
        <ele>30.4188</ele>
        <time>2014-05-16T17:51:44Z</time>
      </trkpt>
      <trkpt lat="59.8510747" lon="17.7877007">
        <ele>29.9381</ele>
        <time>2014-05-16T17:51:45Z</time>
      </trkpt>
      <trkpt lat="59.8510315" lon="17.7876022">
        <ele>29.9381</ele>
        <time>2014-05-16T17:51:46Z</time>
      </trkpt>
      <trkpt lat="59.8509892" lon="17.7875027">
        <ele>29.9381</ele>
        <time>2014-05-16T17:51:47Z</time>
      </trkpt>
      <trkpt lat="59.8509471" lon="17.7874029">
        <ele>29.4575</ele>
        <time>2014-05-16T17:51:48Z</time>
      </trkpt>
      <trkpt lat="59.8509036" lon="17.7873044">
        <ele>29.4575</ele>
        <time>2014-05-16T17:51:49Z</time>
      </trkpt>
      <trkpt lat="59.8508594" lon="17.787206">
        <ele>29.4575</ele>
        <time>2014-05-16T17:51:50Z</time>
      </trkpt>
      <trkpt lat="59.850816" lon="17.7871048">
        <ele>28.9769</ele>
        <time>2014-05-16T17:51:51Z</time>
      </trkpt>
      <trkpt lat="59.8507737" lon="17.7870008">
        <ele>28.9769</ele>
        <time>2014-05-16T17:51:52Z</time>
      </trkpt>
      <trkpt lat="59.8507317" lon="17.7868945">
        <ele>28.9769</ele>
        <time>2014-05-16T17:51:53Z</time>
      </trkpt>
      <trkpt lat="59.8506892" lon="17.7867863">
        <ele>28.4962</ele>
        <time>2014-05-16T17:51:54Z</time>
      </trkpt>
      <trkpt lat="59.8506467" lon="17.7866756">
        <ele>28.0155</ele>
        <time>2014-05-16T17:51:55Z</time>
      </trkpt>
      <trkpt lat="59.8506028" lon="17.7865619">
        <ele>28.0155</ele>
        <time>2014-05-16T17:51:56Z</time>
      </trkpt>
      <trkpt lat="59.8505583" lon="17.786447">
        <ele>27.5349</ele>
        <time>2014-05-16T17:51:57Z</time>
      </trkpt>
      <trkpt lat="59.8505147" lon="17.786332">
        <ele>27.0543</ele>
        <time>2014-05-16T17:51:58Z</time>
      </trkpt>
      <trkpt lat="59.8504723" lon="17.7862172">
        <ele>27.0543</ele>
        <time>2014-05-16T17:51:59Z</time>
      </trkpt>
      <trkpt lat="59.8504314" lon="17.7861026">
        <ele>26.5736</ele>
        <time>2014-05-16T17:52:00Z</time>
      </trkpt>
      <trkpt lat="59.8503905" lon="17.7859897">
        <ele>26.0929</ele>
        <time>2014-05-16T17:52:01Z</time>
      </trkpt>
      <trkpt lat="59.8503495" lon="17.7858751">
        <ele>26.0929</ele>
        <time>2014-05-16T17:52:02Z</time>
      </trkpt>
      <trkpt lat="59.8503052" lon="17.7857603">
        <ele>25.6123</ele>
        <time>2014-05-16T17:52:03Z</time>
      </trkpt>
      <trkpt lat="59.850258" lon="17.7856433">
        <ele>25.1317</ele>
        <time>2014-05-16T17:52:04Z</time>
      </trkpt>
      <trkpt lat="59.8502096" lon="17.7855184">
        <ele>24.1703</ele>
        <time>2014-05-16T17:52:05Z</time>
      </trkpt>
      <trkpt lat="59.8501613" lon="17.7853852">
        <ele>24.1703</ele>
        <time>2014-05-16T17:52:06Z</time>
      </trkpt>
      <trkpt lat="59.8501142" lon="17.7852478">
        <ele>23.6896</ele>
        <time>2014-05-16T17:52:07Z</time>
      </trkpt>
      <trkpt lat="59.850069" lon="17.7851022">
        <ele>23.209</ele>
        <time>2014-05-16T17:52:08Z</time>
      </trkpt>
      <trkpt lat="59.8500268" lon="17.7849542">
        <ele>23.209</ele>
        <time>2014-05-16T17:52:09Z</time>
      </trkpt>
      <trkpt lat="59.8499862" lon="17.7848033">
        <ele>23.209</ele>
        <time>2014-05-16T17:52:10Z</time>
      </trkpt>
      <trkpt lat="59.8499454" lon="17.7846497">
        <ele>23.209</ele>
        <time>2014-05-16T17:52:11Z</time>
      </trkpt>
      <trkpt lat="59.8499042" lon="17.7844943">
        <ele>22.7283</ele>
        <time>2014-05-16T17:52:12Z</time>
      </trkpt>
      <trkpt lat="59.849863" lon="17.7843358">
        <ele>22.7283</ele>
        <time>2014-05-16T17:52:13Z</time>
      </trkpt>
      <trkpt lat="59.8498252" lon="17.7841723">
        <ele>22.7283</ele>
        <time>2014-05-16T17:52:14Z</time>
      </trkpt>
      <trkpt lat="59.8497947" lon="17.784">
        <ele>22.2476</ele>
        <time>2014-05-16T17:52:15Z</time>
      </trkpt>
      <trkpt lat="59.849767" lon="17.7838218">
        <ele>22.2476</ele>
        <time>2014-05-16T17:52:16Z</time>
      </trkpt>
      <trkpt lat="59.8497345" lon="17.7836445">
        <ele>21.767</ele>
        <time>2014-05-16T17:52:17Z</time>
      </trkpt>
      <trkpt lat="59.8496972" lon="17.783471">
        <ele>21.767</ele>
        <time>2014-05-16T17:52:18Z</time>
      </trkpt>
      <trkpt lat="59.8496578" lon="17.7832997">
        <ele>21.767</ele>
        <time>2014-05-16T17:52:19Z</time>
      </trkpt>
      <trkpt lat="59.8496189" lon="17.7831312">
        <ele>21.767</ele>
        <time>2014-05-16T17:52:20Z</time>
      </trkpt>
      <trkpt lat="59.849581" lon="17.782961">
        <ele>21.767</ele>
        <time>2014-05-16T17:52:21Z</time>
      </trkpt>
      <trkpt lat="59.8495445" lon="17.7827895">
        <ele>21.2864</ele>
        <time>2014-05-16T17:52:22Z</time>
      </trkpt>
      <trkpt lat="59.8495097" lon="17.7826175">
        <ele>21.2864</ele>
        <time>2014-05-16T17:52:23Z</time>
      </trkpt>
      <trkpt lat="59.8494754" lon="17.7824472">
        <ele>21.2864</ele>
        <time>2014-05-16T17:52:24Z</time>
      </trkpt>
      <trkpt lat="59.8494411" lon="17.7822802">
        <ele>20.8057</ele>
        <time>2014-05-16T17:52:25Z</time>
      </trkpt>
      <trkpt lat="59.8494061" lon="17.7821143">
        <ele>20.8057</ele>
        <time>2014-05-16T17:52:26Z</time>
      </trkpt>
      <trkpt lat="59.8493708" lon="17.781948">
        <ele>20.325</ele>
        <time>2014-05-16T17:52:27Z</time>
      </trkpt>
      <trkpt lat="59.8493361" lon="17.7817823">
        <ele>20.325</ele>
        <time>2014-05-16T17:52:28Z</time>
      </trkpt>
      <trkpt lat="59.8493016" lon="17.7816177">
        <ele>20.325</ele>
        <time>2014-05-16T17:52:29Z</time>
      </trkpt>
      <trkpt lat="59.8492678" lon="17.7814551">
        <ele>20.325</ele>
        <time>2014-05-16T17:52:30Z</time>
      </trkpt>
      <trkpt lat="59.8492352" lon="17.7812956">
        <ele>20.325</ele>
        <time>2014-05-16T17:52:31Z</time>
      </trkpt>
      <trkpt lat="59.8492034" lon="17.7811363">
        <ele>20.325</ele>
        <time>2014-05-16T17:52:32Z</time>
      </trkpt>
      <trkpt lat="59.8491725" lon="17.7809759">
        <ele>20.325</ele>
        <time>2014-05-16T17:52:33Z</time>
      </trkpt>
      <trkpt lat="59.8491431" lon="17.7808158">
        <ele>20.325</ele>
        <time>2014-05-16T17:52:34Z</time>
      </trkpt>
      <trkpt lat="59.8491165" lon="17.7806573">
        <ele>20.8057</ele>
        <time>2014-05-16T17:52:35Z</time>
      </trkpt>
      <trkpt lat="59.8490917" lon="17.7805002">
        <ele>20.8057</ele>
        <time>2014-05-16T17:52:36Z</time>
      </trkpt>
      <trkpt lat="59.8490692" lon="17.7803456">
        <ele>20.8057</ele>
        <time>2014-05-16T17:52:37Z</time>
      </trkpt>
      <trkpt lat="59.8490478" lon="17.7801935">
        <ele>20.8057</ele>
        <time>2014-05-16T17:52:38Z</time>
      </trkpt>
      <trkpt lat="59.8490248" lon="17.7800438">
        <ele>20.8057</ele>
        <time>2014-05-16T17:52:39Z</time>
      </trkpt>
      <trkpt lat="59.848997" lon="17.7799015">
        <ele>20.8057</ele>
        <time>2014-05-16T17:52:40Z</time>
      </trkpt>
      <trkpt lat="59.8489656" lon="17.779768">
        <ele>20.8057</ele>
        <time>2014-05-16T17:52:41Z</time>
      </trkpt>
      <trkpt lat="59.8489373" lon="17.7796343">
        <ele>20.8057</ele>
        <time>2014-05-16T17:52:42Z</time>
      </trkpt>
      <trkpt lat="59.848918" lon="17.7794939">
        <ele>20.8057</ele>
        <time>2014-05-16T17:52:43Z</time>
      </trkpt>
      <trkpt lat="59.8489048" lon="17.7793514">
        <ele>20.8057</ele>
        <time>2014-05-16T17:52:44Z</time>
      </trkpt>
      <trkpt lat="59.8488943" lon="17.7792079">
        <ele>20.8057</ele>
        <time>2014-05-16T17:52:45Z</time>
      </trkpt>
      <trkpt lat="59.8488843" lon="17.7790642">
        <ele>20.8057</ele>
        <time>2014-05-16T17:52:46Z</time>
      </trkpt>
      <trkpt lat="59.8488755" lon="17.7789218">
        <ele>20.8057</ele>
        <time>2014-05-16T17:52:47Z</time>
      </trkpt>
      <trkpt lat="59.8488677" lon="17.7787811">
        <ele>20.8057</ele>
        <time>2014-05-16T17:52:48Z</time>
      </trkpt>
      <trkpt lat="59.8488605" lon="17.7786396">
        <ele>20.8057</ele>
        <time>2014-05-16T17:52:49Z</time>
      </trkpt>
      <trkpt lat="59.848854" lon="17.7784972">
        <ele>20.8057</ele>
        <time>2014-05-16T17:52:50Z</time>
      </trkpt>
      <trkpt lat="59.8488492" lon="17.7783551">
        <ele>20.8057</ele>
        <time>2014-05-16T17:52:51Z</time>
      </trkpt>
      <trkpt lat="59.8488475" lon="17.7782126">
        <ele>20.8057</ele>
        <time>2014-05-16T17:52:52Z</time>
      </trkpt>
      <trkpt lat="59.8488487" lon="17.7780688">
        <ele>20.8057</ele>
        <time>2014-05-16T17:52:53Z</time>
      </trkpt>
      <trkpt lat="59.8488498" lon="17.7779243">
        <ele>20.8057</ele>
        <time>2014-05-16T17:52:54Z</time>
      </trkpt>
      <trkpt lat="59.8488473" lon="17.7777804">
        <ele>20.8057</ele>
        <time>2014-05-16T17:52:55Z</time>
      </trkpt>
      <trkpt lat="59.8488392" lon="17.7776368">
        <ele>20.8057</ele>
        <time>2014-05-16T17:52:56Z</time>
      </trkpt>
      <trkpt lat="59.8488266" lon="17.7774928">
        <ele>20.325</ele>
        <time>2014-05-16T17:52:57Z</time>
      </trkpt>
      <trkpt lat="59.848813" lon="17.7773471">
        <ele>20.325</ele>
        <time>2014-05-16T17:52:58Z</time>
      </trkpt>
      <trkpt lat="59.8488011" lon="17.7771994">
        <ele>20.325</ele>
        <time>2014-05-16T17:52:59Z</time>
      </trkpt>
      <trkpt lat="59.8487918" lon="17.7770495">
        <ele>19.8444</ele>
        <time>2014-05-16T17:53:00Z</time>
      </trkpt>
      <trkpt lat="59.8487838" lon="17.7768972">
        <ele>19.8444</ele>
        <time>2014-05-16T17:53:01Z</time>
      </trkpt>
      <trkpt lat="59.8487767" lon="17.776742">
        <ele>19.8444</ele>
        <time>2014-05-16T17:53:02Z</time>
      </trkpt>
      <trkpt lat="59.8487694" lon="17.7765842">
        <ele>19.3638</ele>
        <time>2014-05-16T17:53:03Z</time>
      </trkpt>
      <trkpt lat="59.8487622" lon="17.7764236">
        <ele>19.3638</ele>
        <time>2014-05-16T17:53:04Z</time>
      </trkpt>
      <trkpt lat="59.8487551" lon="17.7762598">
        <ele>19.3638</ele>
        <time>2014-05-16T17:53:05Z</time>
      </trkpt>
      <trkpt lat="59.8487467" lon="17.776093">
        <ele>18.8831</ele>
        <time>2014-05-16T17:53:06Z</time>
      </trkpt>
      <trkpt lat="59.8487369" lon="17.7759238">
        <ele>18.8831</ele>
        <time>2014-05-16T17:53:07Z</time>
      </trkpt>
      <trkpt lat="59.8487266" lon="17.7757511">
        <ele>18.4023</ele>
        <time>2014-05-16T17:53:08Z</time>
      </trkpt>
      <trkpt lat="59.8487151" lon="17.7755745">
        <ele>18.4023</ele>
        <time>2014-05-16T17:53:09Z</time>
      </trkpt>
      <trkpt lat="59.8487007" lon="17.7753957">
        <ele>17.9218</ele>
        <time>2014-05-16T17:53:10Z</time>
      </trkpt>
      <trkpt lat="59.8486849" lon="17.7752146">
        <ele>17.4412</ele>
        <time>2014-05-16T17:53:11Z</time>
      </trkpt>
      <trkpt lat="59.8486683" lon="17.7750291">
        <ele>17.4412</ele>
        <time>2014-05-16T17:53:12Z</time>
      </trkpt>
      <trkpt lat="59.8486502" lon="17.77484">
        <ele>16.9604</ele>
        <time>2014-05-16T17:53:13Z</time>
      </trkpt>
      <trkpt lat="59.8486305" lon="17.7746489">
        <ele>16.4797</ele>
        <time>2014-05-16T17:53:14Z</time>
      </trkpt>
      <trkpt lat="59.8486099" lon="17.7744577">
        <ele>15.999</ele>
        <time>2014-05-16T17:53:15Z</time>
      </trkpt>
      <trkpt lat="59.8485885" lon="17.7742666">
        <ele>15.999</ele>
        <time>2014-05-16T17:53:16Z</time>
      </trkpt>
      <trkpt lat="59.8485669" lon="17.774075">
        <ele>15.5184</ele>
        <time>2014-05-16T17:53:17Z</time>
      </trkpt>
      <trkpt lat="59.8485447" lon="17.7738813">
        <ele>15.0377</ele>
        <time>2014-05-16T17:53:18Z</time>
      </trkpt>
      <trkpt lat="59.8485214" lon="17.773685">
        <ele>14.557</ele>
        <time>2014-05-16T17:53:19Z</time>
      </trkpt>
      <trkpt lat="59.848498" lon="17.7734848">
        <ele>14.557</ele>
        <time>2014-05-16T17:53:20Z</time>
      </trkpt>
      <trkpt lat="59.8484758" lon="17.7732807">
        <ele>14.0764</ele>
        <time>2014-05-16T17:53:21Z</time>
      </trkpt>
      <trkpt lat="59.8484548" lon="17.7730734">
        <ele>13.5958</ele>
        <time>2014-05-16T17:53:22Z</time>
      </trkpt>
      <trkpt lat="59.8484321" lon="17.7728613">
        <ele>12.6344</ele>
        <time>2014-05-16T17:53:23Z</time>
      </trkpt>
      <trkpt lat="59.8484041" lon="17.7726443">
        <ele>12.1538</ele>
        <time>2014-05-16T17:53:24Z</time>
      </trkpt>
      <trkpt lat="59.8483699" lon="17.7724267">
        <ele>11.6732</ele>
        <time>2014-05-16T17:53:25Z</time>
      </trkpt>
      <trkpt lat="59.8483322" lon="17.7722125">
        <ele>11.1925</ele>
        <time>2014-05-16T17:53:26Z</time>
      </trkpt>
      <trkpt lat="59.8482941" lon="17.7720014">
        <ele>11.1925</ele>
        <time>2014-05-16T17:53:27Z</time>
      </trkpt>
      <trkpt lat="59.8482573" lon="17.7717948">
        <ele>10.7118</ele>
        <time>2014-05-16T17:53:28Z</time>
      </trkpt>
      <trkpt lat="59.8482214" lon="17.7715925">
        <ele>10.7118</ele>
        <time>2014-05-16T17:53:29Z</time>
      </trkpt>
      <trkpt lat="59.8481861" lon="17.7713951">
        <ele>10.7118</ele>
        <time>2014-05-16T17:53:30Z</time>
      </trkpt>
      <trkpt lat="59.8481526" lon="17.7712">
        <ele>10.2312</ele>
        <time>2014-05-16T17:53:31Z</time>
      </trkpt>
      <trkpt lat="59.848123" lon="17.7710047">
        <ele>10.2312</ele>
        <time>2014-05-16T17:53:32Z</time>
      </trkpt>
      <trkpt lat="59.8480992" lon="17.7708083">
        <ele>10.2312</ele>
        <time>2014-05-16T17:53:33Z</time>
      </trkpt>
      <trkpt lat="59.8480824" lon="17.770611">
        <ele>10.2312</ele>
        <time>2014-05-16T17:53:34Z</time>
      </trkpt>
      <trkpt lat="59.848065" lon="17.7704166">
        <ele>10.2312</ele>
        <time>2014-05-16T17:53:35Z</time>
      </trkpt>
      <trkpt lat="59.8480381" lon="17.7702301">
        <ele>10.2312</ele>
        <time>2014-05-16T17:53:36Z</time>
      </trkpt>
      <trkpt lat="59.8479987" lon="17.7700556">
        <ele>10.2312</ele>
        <time>2014-05-16T17:53:37Z</time>
      </trkpt>
      <trkpt lat="59.8479515" lon="17.7698911">
        <ele>10.2312</ele>
        <time>2014-05-16T17:53:38Z</time>
      </trkpt>
      <trkpt lat="59.8479035" lon="17.7697326">
        <ele>10.2312</ele>
        <time>2014-05-16T17:53:39Z</time>
      </trkpt>
      <trkpt lat="59.8478623" lon="17.7695748">
        <ele>10.2312</ele>
        <time>2014-05-16T17:53:40Z</time>
      </trkpt>
      <trkpt lat="59.8478314" lon="17.769415">
        <ele>10.2312</ele>
        <time>2014-05-16T17:53:41Z</time>
      </trkpt>
      <trkpt lat="59.8478049" lon="17.7692507">
        <ele>10.2312</ele>
        <time>2014-05-16T17:53:42Z</time>
      </trkpt>
      <trkpt lat="59.8477797" lon="17.7690868">
        <ele>10.2312</ele>
        <time>2014-05-16T17:53:43Z</time>
      </trkpt>
      <trkpt lat="59.8477555" lon="17.7689242">
        <ele>10.2312</ele>
        <time>2014-05-16T17:53:44Z</time>
      </trkpt>
      <trkpt lat="59.8477315" lon="17.7687616">
        <ele>10.2312</ele>
        <time>2014-05-16T17:53:45Z</time>
      </trkpt>
      <trkpt lat="59.8477074" lon="17.7686002">
        <ele>10.2312</ele>
        <time>2014-05-16T17:53:46Z</time>
      </trkpt>
      <trkpt lat="59.8476818" lon="17.7684406">
        <ele>10.2312</ele>
        <time>2014-05-16T17:53:47Z</time>
      </trkpt>
      <trkpt lat="59.8476554" lon="17.7682814">
        <ele>10.2312</ele>
        <time>2014-05-16T17:53:48Z</time>
      </trkpt>
      <trkpt lat="59.8476293" lon="17.7681228">
        <ele>10.2312</ele>
        <time>2014-05-16T17:53:49Z</time>
      </trkpt>
      <trkpt lat="59.8476034" lon="17.7679651">
        <ele>10.2312</ele>
        <time>2014-05-16T17:53:50Z</time>
      </trkpt>
      <trkpt lat="59.8475782" lon="17.7678086">
        <ele>10.2312</ele>
        <time>2014-05-16T17:53:51Z</time>
      </trkpt>
      <trkpt lat="59.8475531" lon="17.7676537">
        <ele>10.2312</ele>
        <time>2014-05-16T17:53:52Z</time>
      </trkpt>
      <trkpt lat="59.8475277" lon="17.7675018">
        <ele>10.2312</ele>
        <time>2014-05-16T17:53:53Z</time>
      </trkpt>
      <trkpt lat="59.8475018" lon="17.7673517">
        <ele>10.7118</ele>
        <time>2014-05-16T17:53:54Z</time>
      </trkpt>
      <trkpt lat="59.847476" lon="17.7672042">
        <ele>10.7118</ele>
        <time>2014-05-16T17:53:55Z</time>
      </trkpt>
      <trkpt lat="59.8474511" lon="17.7670576">
        <ele>10.7118</ele>
        <time>2014-05-16T17:53:56Z</time>
      </trkpt>
      <trkpt lat="59.8474272" lon="17.7669125">
        <ele>10.7118</ele>
        <time>2014-05-16T17:53:57Z</time>
      </trkpt>
      <trkpt lat="59.8474034" lon="17.7667684">
        <ele>10.7118</ele>
        <time>2014-05-16T17:53:58Z</time>
      </trkpt>
      <trkpt lat="59.8473798" lon="17.7666259">
        <ele>11.1925</ele>
        <time>2014-05-16T17:53:59Z</time>
      </trkpt>
      <trkpt lat="59.8473579" lon="17.7664856">
        <ele>11.1925</ele>
        <time>2014-05-16T17:54:00Z</time>
      </trkpt>
      <trkpt lat="59.847336" lon="17.7663466">
        <ele>11.1925</ele>
        <time>2014-05-16T17:54:01Z</time>
      </trkpt>
      <trkpt lat="59.8473139" lon="17.7662079">
        <ele>11.1925</ele>
        <time>2014-05-16T17:54:02Z</time>
      </trkpt>
      <trkpt lat="59.8472909" lon="17.7660684">
        <ele>11.1925</ele>
        <time>2014-05-16T17:54:03Z</time>
      </trkpt>
      <trkpt lat="59.8472665" lon="17.7659292">
        <ele>11.1925</ele>
        <time>2014-05-16T17:54:04Z</time>
      </trkpt>
      <trkpt lat="59.8472412" lon="17.7657902">
        <ele>10.7118</ele>
        <time>2014-05-16T17:54:05Z</time>
      </trkpt>
      <trkpt lat="59.8472166" lon="17.7656511">
        <ele>10.7118</ele>
        <time>2014-05-16T17:54:06Z</time>
      </trkpt>
      <trkpt lat="59.8471978" lon="17.7655093">
        <ele>10.7118</ele>
        <time>2014-05-16T17:54:07Z</time>
      </trkpt>
      <trkpt lat="59.8471932" lon="17.7653635">
        <ele>10.7118</ele>
        <time>2014-05-16T17:54:08Z</time>
      </trkpt>
      <trkpt lat="59.8472102" lon="17.7652218">
        <ele>10.7118</ele>
        <time>2014-05-16T17:54:09Z</time>
      </trkpt>
      <trkpt lat="59.8472477" lon="17.7650937">
        <ele>10.7118</ele>
        <time>2014-05-16T17:54:10Z</time>
      </trkpt>
      <trkpt lat="59.8472969" lon="17.7649828">
        <ele>10.2312</ele>
        <time>2014-05-16T17:54:11Z</time>
      </trkpt>
      <trkpt lat="59.8473501" lon="17.7648786">
        <ele>10.2312</ele>
        <time>2014-05-16T17:54:12Z</time>
      </trkpt>
      <trkpt lat="59.847403" lon="17.7647725">
        <ele>10.2312</ele>
        <time>2014-05-16T17:54:13Z</time>
      </trkpt>
      <trkpt lat="59.8474556" lon="17.7646643">
        <ele>10.2312</ele>
        <time>2014-05-16T17:54:14Z</time>
      </trkpt>
      <trkpt lat="59.8475081" lon="17.7645559">
        <ele>10.2312</ele>
        <time>2014-05-16T17:54:15Z</time>
      </trkpt>
      <trkpt lat="59.8475603" lon="17.7644472">
        <ele>10.2312</ele>
        <time>2014-05-16T17:54:16Z</time>
      </trkpt>
      <trkpt lat="59.8476124" lon="17.7643408">
        <ele>10.2312</ele>
        <time>2014-05-16T17:54:17Z</time>
      </trkpt>
      <trkpt lat="59.8476647" lon="17.7642373">
        <ele>10.2312</ele>
        <time>2014-05-16T17:54:18Z</time>
      </trkpt>
      <trkpt lat="59.8477165" lon="17.764135">
        <ele>10.2312</ele>
        <time>2014-05-16T17:54:19Z</time>
      </trkpt>
      <trkpt lat="59.8477675" lon="17.7640327">
        <ele>10.2312</ele>
        <time>2014-05-16T17:54:20Z</time>
      </trkpt>
      <trkpt lat="59.8478175" lon="17.7639287">
        <ele>10.2312</ele>
        <time>2014-05-16T17:54:21Z</time>
      </trkpt>
      <trkpt lat="59.8478674" lon="17.7638241">
        <ele>10.2312</ele>
        <time>2014-05-16T17:54:22Z</time>
      </trkpt>
      <trkpt lat="59.8479177" lon="17.76372">
        <ele>10.2312</ele>
        <time>2014-05-16T17:54:23Z</time>
      </trkpt>
      <trkpt lat="59.8479681" lon="17.7636164">
        <ele>10.2312</ele>
        <time>2014-05-16T17:54:24Z</time>
      </trkpt>
      <trkpt lat="59.8480187" lon="17.7635133">
        <ele>10.2312</ele>
        <time>2014-05-16T17:54:25Z</time>
      </trkpt>
      <trkpt lat="59.8480691" lon="17.7634118">
        <ele>10.2312</ele>
        <time>2014-05-16T17:54:26Z</time>
      </trkpt>
      <trkpt lat="59.8481183" lon="17.7633108">
        <ele>10.2312</ele>
        <time>2014-05-16T17:54:27Z</time>
      </trkpt>
      <trkpt lat="59.8481665" lon="17.7632092">
        <ele>10.7118</ele>
        <time>2014-05-16T17:54:28Z</time>
      </trkpt>
      <trkpt lat="59.8482153" lon="17.7631085">
        <ele>10.7118</ele>
        <time>2014-05-16T17:54:29Z</time>
      </trkpt>
      <trkpt lat="59.8482624" lon="17.7630035">
        <ele>10.2312</ele>
        <time>2014-05-16T17:54:30Z</time>
      </trkpt>
      <trkpt lat="59.8483022" lon="17.7628873">
        <ele>10.7118</ele>
        <time>2014-05-16T17:54:31Z</time>
      </trkpt>
      <trkpt lat="59.8483295" lon="17.7627602">
        <ele>10.7118</ele>
        <time>2014-05-16T17:54:32Z</time>
      </trkpt>
      <trkpt lat="59.8483442" lon="17.7626264">
        <ele>10.7118</ele>
        <time>2014-05-16T17:54:33Z</time>
      </trkpt>
      <trkpt lat="59.848353" lon="17.7624907">
        <ele>10.7118</ele>
        <time>2014-05-16T17:54:34Z</time>
      </trkpt>
      <trkpt lat="59.8483597" lon="17.7623539">
        <ele>10.7118</ele>
        <time>2014-05-16T17:54:35Z</time>
      </trkpt>
      <trkpt lat="59.8483647" lon="17.7622157">
        <ele>10.7118</ele>
        <time>2014-05-16T17:54:36Z</time>
      </trkpt>
      <trkpt lat="59.8483696" lon="17.7620768">
        <ele>10.7118</ele>
        <time>2014-05-16T17:54:37Z</time>
      </trkpt>
      <trkpt lat="59.8483742" lon="17.7619379">
        <ele>10.7118</ele>
        <time>2014-05-16T17:54:38Z</time>
      </trkpt>
      <trkpt lat="59.8483782" lon="17.7617987">
        <ele>10.7118</ele>
        <time>2014-05-16T17:54:39Z</time>
      </trkpt>
      <trkpt lat="59.8483815" lon="17.7616588">
        <ele>10.7118</ele>
        <time>2014-05-16T17:54:40Z</time>
      </trkpt>
      <trkpt lat="59.8483847" lon="17.7615193">
        <ele>10.7118</ele>
        <time>2014-05-16T17:54:41Z</time>
      </trkpt>
      <trkpt lat="59.8483885" lon="17.7613801">
        <ele>10.7118</ele>
        <time>2014-05-16T17:54:42Z</time>
      </trkpt>
      <trkpt lat="59.848392" lon="17.7612408">
        <ele>10.7118</ele>
        <time>2014-05-16T17:54:43Z</time>
      </trkpt>
      <trkpt lat="59.8483956" lon="17.7611">
        <ele>10.7118</ele>
        <time>2014-05-16T17:54:44Z</time>
      </trkpt>
      <trkpt lat="59.8483985" lon="17.7609587">
        <ele>10.7118</ele>
        <time>2014-05-16T17:54:45Z</time>
      </trkpt>
      <trkpt lat="59.848401" lon="17.7608166">
        <ele>10.7118</ele>
        <time>2014-05-16T17:54:46Z</time>
      </trkpt>
      <trkpt lat="59.8484038" lon="17.7606733">
        <ele>10.7118</ele>
        <time>2014-05-16T17:54:47Z</time>
      </trkpt>
      <trkpt lat="59.8484074" lon="17.7605301">
        <ele>10.7118</ele>
        <time>2014-05-16T17:54:48Z</time>
      </trkpt>
      <trkpt lat="59.848411" lon="17.7603871">
        <ele>10.7118</ele>
        <time>2014-05-16T17:54:49Z</time>
      </trkpt>
      <trkpt lat="59.8484137" lon="17.7602425">
        <ele>10.7118</ele>
        <time>2014-05-16T17:54:50Z</time>
      </trkpt>
      <trkpt lat="59.8484163" lon="17.7600976">
        <ele>10.7118</ele>
        <time>2014-05-16T17:54:51Z</time>
      </trkpt>
      <trkpt lat="59.8484203" lon="17.7599525">
        <ele>10.7118</ele>
        <time>2014-05-16T17:54:52Z</time>
      </trkpt>
      <trkpt lat="59.848425" lon="17.7598069">
        <ele>10.7118</ele>
        <time>2014-05-16T17:54:53Z</time>
      </trkpt>
      <trkpt lat="59.8484291" lon="17.7596616">
        <ele>10.7118</ele>
        <time>2014-05-16T17:54:54Z</time>
      </trkpt>
      <trkpt lat="59.8484333" lon="17.7595163">
        <ele>10.7118</ele>
        <time>2014-05-16T17:54:55Z</time>
      </trkpt>
      <trkpt lat="59.8484372" lon="17.7593707">
        <ele>10.7118</ele>
        <time>2014-05-16T17:54:56Z</time>
      </trkpt>
      <trkpt lat="59.8484407" lon="17.7592241">
        <ele>10.7118</ele>
        <time>2014-05-16T17:54:57Z</time>
      </trkpt>
      <trkpt lat="59.8484443" lon="17.7590759">
        <ele>10.7118</ele>
        <time>2014-05-16T17:54:58Z</time>
      </trkpt>
      <trkpt lat="59.8484477" lon="17.7589274">
        <ele>10.7118</ele>
        <time>2014-05-16T17:54:59Z</time>
      </trkpt>
      <trkpt lat="59.8484512" lon="17.7587807">
        <ele>10.7118</ele>
        <time>2014-05-16T17:55:00Z</time>
      </trkpt>
      <trkpt lat="59.848455" lon="17.7586353">
        <ele>11.1925</ele>
        <time>2014-05-16T17:55:01Z</time>
      </trkpt>
      <trkpt lat="59.8484586" lon="17.7584913">
        <ele>11.1925</ele>
        <time>2014-05-16T17:55:02Z</time>
      </trkpt>
      <trkpt lat="59.8484618" lon="17.7583496">
        <ele>11.1925</ele>
        <time>2014-05-16T17:55:03Z</time>
      </trkpt>
      <trkpt lat="59.848465" lon="17.7582094">
        <ele>11.1925</ele>
        <time>2014-05-16T17:55:04Z</time>
      </trkpt>
      <trkpt lat="59.8484684" lon="17.7580696">
        <ele>11.6732</ele>
        <time>2014-05-16T17:55:05Z</time>
      </trkpt>
      <trkpt lat="59.8484716" lon="17.7579307">
        <ele>11.6732</ele>
        <time>2014-05-16T17:55:06Z</time>
      </trkpt>
      <trkpt lat="59.848475" lon="17.757792">
        <ele>11.6732</ele>
        <time>2014-05-16T17:55:07Z</time>
      </trkpt>
      <trkpt lat="59.8484784" lon="17.7576538">
        <ele>11.6732</ele>
        <time>2014-05-16T17:55:08Z</time>
      </trkpt>
      <trkpt lat="59.8484808" lon="17.7575148">
        <ele>11.6732</ele>
        <time>2014-05-16T17:55:09Z</time>
      </trkpt>
      <trkpt lat="59.8484823" lon="17.7573753">
        <ele>11.6732</ele>
        <time>2014-05-16T17:55:10Z</time>
      </trkpt>
      <trkpt lat="59.8484835" lon="17.757235">
        <ele>11.6732</ele>
        <time>2014-05-16T17:55:11Z</time>
      </trkpt>
      <trkpt lat="59.8484835" lon="17.7570936">
        <ele>11.6732</ele>
        <time>2014-05-16T17:55:12Z</time>
      </trkpt>
      <trkpt lat="59.848482" lon="17.7569506">
        <ele>11.6732</ele>
        <time>2014-05-16T17:55:13Z</time>
      </trkpt>
      <trkpt lat="59.8484799" lon="17.7568066">
        <ele>11.6732</ele>
        <time>2014-05-16T17:55:14Z</time>
      </trkpt>
      <trkpt lat="59.8484767" lon="17.7566615">
        <ele>11.6732</ele>
        <time>2014-05-16T17:55:15Z</time>
      </trkpt>
      <trkpt lat="59.8484716" lon="17.756516">
        <ele>11.6732</ele>
        <time>2014-05-16T17:55:16Z</time>
      </trkpt>
      <trkpt lat="59.8484649" lon="17.7563704">
        <ele>11.6732</ele>
        <time>2014-05-16T17:55:17Z</time>
      </trkpt>
      <trkpt lat="59.8484572" lon="17.7562241">
        <ele>11.6732</ele>
        <time>2014-05-16T17:55:18Z</time>
      </trkpt>
      <trkpt lat="59.8484492" lon="17.7560776">
        <ele>11.6732</ele>
        <time>2014-05-16T17:55:19Z</time>
      </trkpt>
      <trkpt lat="59.8484405" lon="17.7559326">
        <ele>11.6732</ele>
        <time>2014-05-16T17:55:20Z</time>
      </trkpt>
      <trkpt lat="59.8484307" lon="17.7557878">
        <ele>11.6732</ele>
        <time>2014-05-16T17:55:21Z</time>
      </trkpt>
      <trkpt lat="59.8484201" lon="17.7556434">
        <ele>11.6732</ele>
        <time>2014-05-16T17:55:22Z</time>
      </trkpt>
      <trkpt lat="59.8484078" lon="17.7554986">
        <ele>11.6732</ele>
        <time>2014-05-16T17:55:23Z</time>
      </trkpt>
      <trkpt lat="59.8483944" lon="17.755355">
        <ele>11.6732</ele>
        <time>2014-05-16T17:55:24Z</time>
      </trkpt>
      <trkpt lat="59.8483806" lon="17.7552123">
        <ele>11.6732</ele>
        <time>2014-05-16T17:55:25Z</time>
      </trkpt>
      <trkpt lat="59.848366" lon="17.7550708">
        <ele>11.6732</ele>
        <time>2014-05-16T17:55:26Z</time>
      </trkpt>
      <trkpt lat="59.8483509" lon="17.7549302">
        <ele>11.6732</ele>
        <time>2014-05-16T17:55:27Z</time>
      </trkpt>
      <trkpt lat="59.8483359" lon="17.7547903">
        <ele>11.6732</ele>
        <time>2014-05-16T17:55:28Z</time>
      </trkpt>
      <trkpt lat="59.8483199" lon="17.7546511">
        <ele>12.1538</ele>
        <time>2014-05-16T17:55:29Z</time>
      </trkpt>
      <trkpt lat="59.8483033" lon="17.7545129">
        <ele>12.1538</ele>
        <time>2014-05-16T17:55:30Z</time>
      </trkpt>
      <trkpt lat="59.8482865" lon="17.754375">
        <ele>12.1538</ele>
        <time>2014-05-16T17:55:31Z</time>
      </trkpt>
      <trkpt lat="59.8482689" lon="17.7542368">
        <ele>12.1538</ele>
        <time>2014-05-16T17:55:32Z</time>
      </trkpt>
      <trkpt lat="59.8482511" lon="17.7540996">
        <ele>12.1538</ele>
        <time>2014-05-16T17:55:33Z</time>
      </trkpt>
      <trkpt lat="59.8482342" lon="17.7539658">
        <ele>12.1538</ele>
        <time>2014-05-16T17:55:34Z</time>
      </trkpt>
      <trkpt lat="59.8482181" lon="17.7538354">
        <ele>12.6344</ele>
        <time>2014-05-16T17:55:35Z</time>
      </trkpt>
      <trkpt lat="59.8482016" lon="17.7537063">
        <ele>12.6344</ele>
        <time>2014-05-16T17:55:36Z</time>
      </trkpt>
      <trkpt lat="59.8481844" lon="17.7535774">
        <ele>12.6344</ele>
        <time>2014-05-16T17:55:37Z</time>
      </trkpt>
      <trkpt lat="59.8481682" lon="17.7534533">
        <ele>13.1151</ele>
        <time>2014-05-16T17:55:38Z</time>
      </trkpt>
      <trkpt lat="59.8481539" lon="17.7533385">
        <ele>13.1151</ele>
        <time>2014-05-16T17:55:39Z</time>
      </trkpt>
      <trkpt lat="59.8481405" lon="17.7532272">
        <ele>13.5958</ele>
        <time>2014-05-16T17:55:40Z</time>
      </trkpt>
      <trkpt lat="59.8481266" lon="17.7531146">
        <ele>13.5958</ele>
        <time>2014-05-16T17:55:41Z</time>
      </trkpt>
      <trkpt lat="59.8481125" lon="17.7530014">
        <ele>14.0764</ele>
        <time>2014-05-16T17:55:42Z</time>
      </trkpt>
      <trkpt lat="59.8480993" lon="17.7528884">
        <ele>14.0764</ele>
        <time>2014-05-16T17:55:43Z</time>
      </trkpt>
      <trkpt lat="59.8480858" lon="17.7527765">
        <ele>14.557</ele>
        <time>2014-05-16T17:55:44Z</time>
      </trkpt>
      <trkpt lat="59.8480717" lon="17.7526649">
        <ele>15.0377</ele>
        <time>2014-05-16T17:55:45Z</time>
      </trkpt>
      <trkpt lat="59.8480582" lon="17.752554">
        <ele>15.0377</ele>
        <time>2014-05-16T17:55:46Z</time>
      </trkpt>
      <trkpt lat="59.8480447" lon="17.7524447">
        <ele>15.5184</ele>
        <time>2014-05-16T17:55:47Z</time>
      </trkpt>
      <trkpt lat="59.8480309" lon="17.7523363">
        <ele>15.5184</ele>
        <time>2014-05-16T17:55:48Z</time>
      </trkpt>
      <trkpt lat="59.8480176" lon="17.7522293">
        <ele>15.999</ele>
        <time>2014-05-16T17:55:49Z</time>
      </trkpt>
      <trkpt lat="59.8480045" lon="17.7521243">
        <ele>16.4797</ele>
        <time>2014-05-16T17:55:50Z</time>
      </trkpt>
      <trkpt lat="59.8479919" lon="17.7520212">
        <ele>16.4797</ele>
        <time>2014-05-16T17:55:51Z</time>
      </trkpt>
      <trkpt lat="59.8479788" lon="17.7519198">
        <ele>16.9604</ele>
        <time>2014-05-16T17:55:52Z</time>
      </trkpt>
      <trkpt lat="59.8479659" lon="17.7518181">
        <ele>16.9604</ele>
        <time>2014-05-16T17:55:53Z</time>
      </trkpt>
      <trkpt lat="59.847954" lon="17.7517151">
        <ele>17.4412</ele>
        <time>2014-05-16T17:55:54Z</time>
      </trkpt>
      <trkpt lat="59.8479417" lon="17.751611">
        <ele>17.4412</ele>
        <time>2014-05-16T17:55:55Z</time>
      </trkpt>
      <trkpt lat="59.8479283" lon="17.7515061">
        <ele>17.9218</ele>
        <time>2014-05-16T17:55:56Z</time>
      </trkpt>
      <trkpt lat="59.8479156" lon="17.7514001">
        <ele>17.9218</ele>
        <time>2014-05-16T17:55:57Z</time>
      </trkpt>
      <trkpt lat="59.8479039" lon="17.7512927">
        <ele>18.4023</ele>
        <time>2014-05-16T17:55:58Z</time>
      </trkpt>
      <trkpt lat="59.847894" lon="17.7511837">
        <ele>18.4023</ele>
        <time>2014-05-16T17:55:59Z</time>
      </trkpt>
      <trkpt lat="59.8478837" lon="17.7510733">
        <ele>18.4023</ele>
        <time>2014-05-16T17:56:00Z</time>
      </trkpt>
      <trkpt lat="59.8478723" lon="17.7509613">
        <ele>18.8831</ele>
        <time>2014-05-16T17:56:01Z</time>
      </trkpt>
      <trkpt lat="59.8478614" lon="17.7508487">
        <ele>18.8831</ele>
        <time>2014-05-16T17:56:02Z</time>
      </trkpt>
      <trkpt lat="59.847851" lon="17.7507325">
        <ele>18.8831</ele>
        <time>2014-05-16T17:56:03Z</time>
      </trkpt>
      <trkpt lat="59.8478407" lon="17.7506184">
        <ele>18.8831</ele>
        <time>2014-05-16T17:56:04Z</time>
      </trkpt>
      <trkpt lat="59.8478318" lon="17.7505086">
        <ele>18.8831</ele>
        <time>2014-05-16T17:56:05Z</time>
      </trkpt>
      <trkpt lat="59.8478231" lon="17.7504001">
        <ele>18.8831</ele>
        <time>2014-05-16T17:56:06Z</time>
      </trkpt>
      <trkpt lat="59.8478146" lon="17.7502937">
        <ele>19.3638</ele>
        <time>2014-05-16T17:56:07Z</time>
      </trkpt>
      <trkpt lat="59.8478075" lon="17.7501844">
        <ele>19.3638</ele>
        <time>2014-05-16T17:56:08Z</time>
      </trkpt>
      <trkpt lat="59.8478017" lon="17.7500713">
        <ele>19.8444</ele>
        <time>2014-05-16T17:56:09Z</time>
      </trkpt>
      <trkpt lat="59.8477956" lon="17.749958">
        <ele>19.8444</ele>
        <time>2014-05-16T17:56:10Z</time>
      </trkpt>
      <trkpt lat="59.8477887" lon="17.749845">
        <ele>19.8444</ele>
        <time>2014-05-16T17:56:11Z</time>
      </trkpt>
      <trkpt lat="59.8477812" lon="17.7497307">
        <ele>19.8444</ele>
        <time>2014-05-16T17:56:12Z</time>
      </trkpt>
      <trkpt lat="59.8477737" lon="17.7496152">
        <ele>20.325</ele>
        <time>2014-05-16T17:56:13Z</time>
      </trkpt>
      <trkpt lat="59.847767" lon="17.7494981">
        <ele>20.325</ele>
        <time>2014-05-16T17:56:14Z</time>
      </trkpt>
      <trkpt lat="59.8477613" lon="17.7493786">
        <ele>20.325</ele>
        <time>2014-05-16T17:56:15Z</time>
      </trkpt>
      <trkpt lat="59.8477546" lon="17.7492571">
        <ele>20.325</ele>
        <time>2014-05-16T17:56:16Z</time>
      </trkpt>
      <trkpt lat="59.8477479" lon="17.7491336">
        <ele>20.325</ele>
        <time>2014-05-16T17:56:17Z</time>
      </trkpt>
      <trkpt lat="59.8477429" lon="17.7490081">
        <ele>20.325</ele>
        <time>2014-05-16T17:56:18Z</time>
      </trkpt>
      <trkpt lat="59.8477398" lon="17.7488814">
        <ele>20.325</ele>
        <time>2014-05-16T17:56:19Z</time>
      </trkpt>
      <trkpt lat="59.8477376" lon="17.7487526">
        <ele>20.325</ele>
        <time>2014-05-16T17:56:20Z</time>
      </trkpt>
      <trkpt lat="59.8477348" lon="17.7486229">
        <ele>20.325</ele>
        <time>2014-05-16T17:56:21Z</time>
      </trkpt>
      <trkpt lat="59.847732" lon="17.7484925">
        <ele>20.325</ele>
        <time>2014-05-16T17:56:22Z</time>
      </trkpt>
      <trkpt lat="59.8477294" lon="17.7483614">
        <ele>20.325</ele>
        <time>2014-05-16T17:56:23Z</time>
      </trkpt>
      <trkpt lat="59.8477278" lon="17.7482292">
        <ele>19.8444</ele>
        <time>2014-05-16T17:56:24Z</time>
      </trkpt>
      <trkpt lat="59.8477267" lon="17.748096">
        <ele>19.8444</ele>
        <time>2014-05-16T17:56:25Z</time>
      </trkpt>
      <trkpt lat="59.8477257" lon="17.747962">
        <ele>19.8444</ele>
        <time>2014-05-16T17:56:26Z</time>
      </trkpt>
      <trkpt lat="59.8477248" lon="17.7478275">
        <ele>19.8444</ele>
        <time>2014-05-16T17:56:27Z</time>
      </trkpt>
      <trkpt lat="59.8477245" lon="17.747693">
        <ele>19.8444</ele>
        <time>2014-05-16T17:56:28Z</time>
      </trkpt>
      <trkpt lat="59.8477246" lon="17.7475575">
        <ele>19.3638</ele>
        <time>2014-05-16T17:56:29Z</time>
      </trkpt>
      <trkpt lat="59.8477247" lon="17.7474203">
        <ele>19.3638</ele>
        <time>2014-05-16T17:56:30Z</time>
      </trkpt>
      <trkpt lat="59.8477253" lon="17.7472814">
        <ele>19.3638</ele>
        <time>2014-05-16T17:56:31Z</time>
      </trkpt>
      <trkpt lat="59.8477273" lon="17.7471395">
        <ele>18.8831</ele>
        <time>2014-05-16T17:56:32Z</time>
      </trkpt>
      <trkpt lat="59.84773" lon="17.7469948">
        <ele>18.8831</ele>
        <time>2014-05-16T17:56:33Z</time>
      </trkpt>
      <trkpt lat="59.847733" lon="17.7468468">
        <ele>18.4023</ele>
        <time>2014-05-16T17:56:34Z</time>
      </trkpt>
      <trkpt lat="59.8477361" lon="17.7466962">
        <ele>18.4023</ele>
        <time>2014-05-16T17:56:35Z</time>
      </trkpt>
      <trkpt lat="59.8477392" lon="17.7465433">
        <ele>17.9218</ele>
        <time>2014-05-16T17:56:36Z</time>
      </trkpt>
      <trkpt lat="59.8477423" lon="17.7463885">
        <ele>17.9218</ele>
        <time>2014-05-16T17:56:37Z</time>
      </trkpt>
      <trkpt lat="59.8477449" lon="17.7462317">
        <ele>17.4412</ele>
        <time>2014-05-16T17:56:38Z</time>
      </trkpt>
      <trkpt lat="59.8477473" lon="17.7460725">
        <ele>17.4412</ele>
        <time>2014-05-16T17:56:39Z</time>
      </trkpt>
      <trkpt lat="59.8477499" lon="17.7459111">
        <ele>16.9604</ele>
        <time>2014-05-16T17:56:40Z</time>
      </trkpt>
      <trkpt lat="59.8477529" lon="17.7457474">
        <ele>16.9604</ele>
        <time>2014-05-16T17:56:41Z</time>
      </trkpt>
      <trkpt lat="59.8477556" lon="17.7455821">
        <ele>16.4797</ele>
        <time>2014-05-16T17:56:42Z</time>
      </trkpt>
      <trkpt lat="59.8477581" lon="17.745414">
        <ele>16.4797</ele>
        <time>2014-05-16T17:56:43Z</time>
      </trkpt>
      <trkpt lat="59.8477605" lon="17.7452437">
        <ele>16.4797</ele>
        <time>2014-05-16T17:56:44Z</time>
      </trkpt>
      <trkpt lat="59.847763" lon="17.7450736">
        <ele>15.999</ele>
        <time>2014-05-16T17:56:45Z</time>
      </trkpt>
      <trkpt lat="59.8477654" lon="17.7449038">
        <ele>15.999</ele>
        <time>2014-05-16T17:56:46Z</time>
      </trkpt>
      <trkpt lat="59.8477681" lon="17.7447352">
        <ele>15.999</ele>
        <time>2014-05-16T17:56:47Z</time>
      </trkpt>
      <trkpt lat="59.8477706" lon="17.744569">
        <ele>15.5184</ele>
        <time>2014-05-16T17:56:48Z</time>
      </trkpt>
      <trkpt lat="59.8477739" lon="17.7444065">
        <ele>15.5184</ele>
        <time>2014-05-16T17:56:49Z</time>
      </trkpt>
      <trkpt lat="59.8477779" lon="17.7442462">
        <ele>15.5184</ele>
        <time>2014-05-16T17:56:50Z</time>
      </trkpt>
      <trkpt lat="59.8477807" lon="17.7440857">
        <ele>15.5184</ele>
        <time>2014-05-16T17:56:51Z</time>
      </trkpt>
      <trkpt lat="59.8477828" lon="17.7439253">
        <ele>15.0377</ele>
        <time>2014-05-16T17:56:52Z</time>
      </trkpt>
      <trkpt lat="59.8477849" lon="17.7437647">
        <ele>15.0377</ele>
        <time>2014-05-16T17:56:53Z</time>
      </trkpt>
      <trkpt lat="59.8477873" lon="17.7436041">
        <ele>15.0377</ele>
        <time>2014-05-16T17:56:54Z</time>
      </trkpt>
      <trkpt lat="59.84779" lon="17.7434438">
        <ele>15.0377</ele>
        <time>2014-05-16T17:56:55Z</time>
      </trkpt>
      <trkpt lat="59.8477923" lon="17.7432835">
        <ele>15.0377</ele>
        <time>2014-05-16T17:56:56Z</time>
      </trkpt>
      <trkpt lat="59.847795" lon="17.7431242">
        <ele>14.557</ele>
        <time>2014-05-16T17:56:57Z</time>
      </trkpt>
      <trkpt lat="59.8477977" lon="17.7429652">
        <ele>14.557</ele>
        <time>2014-05-16T17:56:58Z</time>
      </trkpt>
      <trkpt lat="59.8477998" lon="17.7428067">
        <ele>15.0377</ele>
        <time>2014-05-16T17:56:59Z</time>
      </trkpt>
      <trkpt lat="59.8478018" lon="17.742649">
        <ele>15.0377</ele>
        <time>2014-05-16T17:57:00Z</time>
      </trkpt>
      <trkpt lat="59.8478049" lon="17.7424915">
        <ele>15.0377</ele>
        <time>2014-05-16T17:57:01Z</time>
      </trkpt>
      <trkpt lat="59.8478081" lon="17.7423344">
        <ele>15.0377</ele>
        <time>2014-05-16T17:57:02Z</time>
      </trkpt>
      <trkpt lat="59.8478108" lon="17.7421775">
        <ele>15.0377</ele>
        <time>2014-05-16T17:57:03Z</time>
      </trkpt>
      <trkpt lat="59.8478138" lon="17.7420204">
        <ele>15.0377</ele>
        <time>2014-05-16T17:57:04Z</time>
      </trkpt>
      <trkpt lat="59.8478164" lon="17.7418618">
        <ele>15.0377</ele>
        <time>2014-05-16T17:57:05Z</time>
      </trkpt>
      <trkpt lat="59.847819" lon="17.7417033">
        <ele>15.0377</ele>
        <time>2014-05-16T17:57:06Z</time>
      </trkpt>
      <trkpt lat="59.8478216" lon="17.741545">
        <ele>15.0377</ele>
        <time>2014-05-16T17:57:07Z</time>
      </trkpt>
      <trkpt lat="59.8478234" lon="17.7413873">
        <ele>15.0377</ele>
        <time>2014-05-16T17:57:08Z</time>
      </trkpt>
      <trkpt lat="59.8478251" lon="17.74123">
        <ele>14.557</ele>
        <time>2014-05-16T17:57:09Z</time>
      </trkpt>
      <trkpt lat="59.8478277" lon="17.7410725">
        <ele>15.0377</ele>
        <time>2014-05-16T17:57:10Z</time>
      </trkpt>
      <trkpt lat="59.8478306" lon="17.7409159">
        <ele>15.0377</ele>
        <time>2014-05-16T17:57:11Z</time>
      </trkpt>
      <trkpt lat="59.8478323" lon="17.7407592">
        <ele>15.0377</ele>
        <time>2014-05-16T17:57:12Z</time>
      </trkpt>
      <trkpt lat="59.8478345" lon="17.7406025">
        <ele>15.0377</ele>
        <time>2014-05-16T17:57:13Z</time>
      </trkpt>
      <trkpt lat="59.8478366" lon="17.7404468">
        <ele>15.0377</ele>
        <time>2014-05-16T17:57:14Z</time>
      </trkpt>
      <trkpt lat="59.8478371" lon="17.7402918">
        <ele>15.5184</ele>
        <time>2014-05-16T17:57:15Z</time>
      </trkpt>
      <trkpt lat="59.8478376" lon="17.7401377">
        <ele>15.5184</ele>
        <time>2014-05-16T17:57:16Z</time>
      </trkpt>
      <trkpt lat="59.8478386" lon="17.7399854">
        <ele>15.5184</ele>
        <time>2014-05-16T17:57:17Z</time>
      </trkpt>
      <trkpt lat="59.8478392" lon="17.7398343">
        <ele>15.5184</ele>
        <time>2014-05-16T17:57:18Z</time>
      </trkpt>
      <trkpt lat="59.847838" lon="17.7396849">
        <ele>15.5184</ele>
        <time>2014-05-16T17:57:19Z</time>
      </trkpt>
      <trkpt lat="59.8478348" lon="17.7395412">
        <ele>15.5184</ele>
        <time>2014-05-16T17:57:20Z</time>
      </trkpt>
      <trkpt lat="59.8478309" lon="17.7394029">
        <ele>15.999</ele>
        <time>2014-05-16T17:57:21Z</time>
      </trkpt>
      <trkpt lat="59.8478307" lon="17.7392668">
        <ele>15.999</ele>
        <time>2014-05-16T17:57:22Z</time>
      </trkpt>
      <trkpt lat="59.8478405" lon="17.7391319">
        <ele>15.999</ele>
        <time>2014-05-16T17:57:23Z</time>
      </trkpt>
      <trkpt lat="59.8478655" lon="17.7390061">
        <ele>15.999</ele>
        <time>2014-05-16T17:57:24Z</time>
      </trkpt>
      <trkpt lat="59.8479091" lon="17.7388999">
        <ele>15.999</ele>
        <time>2014-05-16T17:57:25Z</time>
      </trkpt>
      <trkpt lat="59.8479707" lon="17.7388294">
        <ele>15.5184</ele>
        <time>2014-05-16T17:57:26Z</time>
      </trkpt>
      <trkpt lat="59.8480425" lon="17.7387918">
        <ele>15.5184</ele>
        <time>2014-05-16T17:57:27Z</time>
      </trkpt>
      <trkpt lat="59.8481178" lon="17.7387659">
        <ele>15.5184</ele>
        <time>2014-05-16T17:57:28Z</time>
      </trkpt>
      <trkpt lat="59.8481944" lon="17.7387398">
        <ele>15.0377</ele>
        <time>2014-05-16T17:57:29Z</time>
      </trkpt>
      <trkpt lat="59.8482711" lon="17.7387103">
        <ele>15.0377</ele>
        <time>2014-05-16T17:57:30Z</time>
      </trkpt>
      <trkpt lat="59.8483468" lon="17.7386791">
        <ele>15.0377</ele>
        <time>2014-05-16T17:57:31Z</time>
      </trkpt>
      <trkpt lat="59.8484225" lon="17.7386456">
        <ele>15.0377</ele>
        <time>2014-05-16T17:57:32Z</time>
      </trkpt>
      <trkpt lat="59.8484991" lon="17.7386108">
        <ele>15.0377</ele>
        <time>2014-05-16T17:57:33Z</time>
      </trkpt>
      <trkpt lat="59.8485759" lon="17.7385752">
        <ele>15.0377</ele>
        <time>2014-05-16T17:57:34Z</time>
      </trkpt>
      <trkpt lat="59.8486532" lon="17.7385375">
        <ele>15.0377</ele>
        <time>2014-05-16T17:57:35Z</time>
      </trkpt>
      <trkpt lat="59.8487316" lon="17.7384976">
        <ele>15.5184</ele>
        <time>2014-05-16T17:57:36Z</time>
      </trkpt>
      <trkpt lat="59.8488112" lon="17.7384587">
        <ele>15.5184</ele>
        <time>2014-05-16T17:57:37Z</time>
      </trkpt>
      <trkpt lat="59.8488922" lon="17.7384202">
        <ele>15.5184</ele>
        <time>2014-05-16T17:57:38Z</time>
      </trkpt>
      <trkpt lat="59.8489745" lon="17.7383802">
        <ele>15.5184</ele>
        <time>2014-05-16T17:57:39Z</time>
      </trkpt>
      <trkpt lat="59.8490578" lon="17.7383398">
        <ele>15.5184</ele>
        <time>2014-05-16T17:57:40Z</time>
      </trkpt>
      <trkpt lat="59.8491417" lon="17.7383008">
        <ele>15.999</ele>
        <time>2014-05-16T17:57:41Z</time>
      </trkpt>
      <trkpt lat="59.849226" lon="17.7382622">
        <ele>15.999</ele>
        <time>2014-05-16T17:57:42Z</time>
      </trkpt>
      <trkpt lat="59.8493102" lon="17.738223">
        <ele>15.999</ele>
        <time>2014-05-16T17:57:43Z</time>
      </trkpt>
      <trkpt lat="59.8493947" lon="17.7381862">
        <ele>15.999</ele>
        <time>2014-05-16T17:57:44Z</time>
      </trkpt>
      <trkpt lat="59.8494803" lon="17.738153">
        <ele>16.4797</ele>
        <time>2014-05-16T17:57:45Z</time>
      </trkpt>
      <trkpt lat="59.8495663" lon="17.73812">
        <ele>16.4797</ele>
        <time>2014-05-16T17:57:46Z</time>
      </trkpt>
      <trkpt lat="59.8496522" lon="17.7380878">
        <ele>16.4797</ele>
        <time>2014-05-16T17:57:47Z</time>
      </trkpt>
      <trkpt lat="59.8497385" lon="17.7380573">
        <ele>16.4797</ele>
        <time>2014-05-16T17:57:48Z</time>
      </trkpt>
      <trkpt lat="59.8498247" lon="17.7380267">
        <ele>16.4797</ele>
        <time>2014-05-16T17:57:49Z</time>
      </trkpt>
      <trkpt lat="59.8499112" lon="17.737994">
        <ele>16.4797</ele>
        <time>2014-05-16T17:57:50Z</time>
      </trkpt>
      <trkpt lat="59.8499983" lon="17.7379581">
        <ele>16.4797</ele>
        <time>2014-05-16T17:57:51Z</time>
      </trkpt>
      <trkpt lat="59.8500861" lon="17.7379175">
        <ele>16.4797</ele>
        <time>2014-05-16T17:57:52Z</time>
      </trkpt>
      <trkpt lat="59.8501743" lon="17.7378721">
        <ele>16.4797</ele>
        <time>2014-05-16T17:57:53Z</time>
      </trkpt>
      <trkpt lat="59.8502625" lon="17.7378226">
        <ele>16.4797</ele>
        <time>2014-05-16T17:57:54Z</time>
      </trkpt>
      <trkpt lat="59.8503509" lon="17.7377695">
        <ele>15.999</ele>
        <time>2014-05-16T17:57:55Z</time>
      </trkpt>
      <trkpt lat="59.850439" lon="17.7377141">
        <ele>15.999</ele>
        <time>2014-05-16T17:57:56Z</time>
      </trkpt>
      <trkpt lat="59.8505266" lon="17.7376557">
        <ele>15.999</ele>
        <time>2014-05-16T17:57:57Z</time>
      </trkpt>
      <trkpt lat="59.8506141" lon="17.7375925">
        <ele>15.999</ele>
        <time>2014-05-16T17:57:58Z</time>
      </trkpt>
      <trkpt lat="59.8507017" lon="17.7375264">
        <ele>15.999</ele>
        <time>2014-05-16T17:57:59Z</time>
      </trkpt>
      <trkpt lat="59.8507896" lon="17.7374594">
        <ele>15.999</ele>
        <time>2014-05-16T17:58:00Z</time>
      </trkpt>
      <trkpt lat="59.8508776" lon="17.737391">
        <ele>16.4797</ele>
        <time>2014-05-16T17:58:01Z</time>
      </trkpt>
      <trkpt lat="59.8509653" lon="17.7373205">
        <ele>16.4797</ele>
        <time>2014-05-16T17:58:02Z</time>
      </trkpt>
      <trkpt lat="59.8510522" lon="17.7372481">
        <ele>16.4797</ele>
        <time>2014-05-16T17:58:03Z</time>
      </trkpt>
      <trkpt lat="59.8511373" lon="17.7371761">
        <ele>16.9604</ele>
        <time>2014-05-16T17:58:04Z</time>
      </trkpt>
      <trkpt lat="59.8512198" lon="17.7371032">
        <ele>16.9604</ele>
        <time>2014-05-16T17:58:05Z</time>
      </trkpt>
      <trkpt lat="59.8513014" lon="17.7370273">
        <ele>16.9604</ele>
        <time>2014-05-16T17:58:06Z</time>
      </trkpt>
      <trkpt lat="59.8513814" lon="17.7369476">
        <ele>16.9604</ele>
        <time>2014-05-16T17:58:07Z</time>
      </trkpt>
      <trkpt lat="59.8514595" lon="17.7368632">
        <ele>16.9604</ele>
        <time>2014-05-16T17:58:08Z</time>
      </trkpt>
      <trkpt lat="59.8515355" lon="17.736772">
        <ele>16.9604</ele>
        <time>2014-05-16T17:58:09Z</time>
      </trkpt>
      <trkpt lat="59.8516097" lon="17.7366737">
        <ele>16.9604</ele>
        <time>2014-05-16T17:58:10Z</time>
      </trkpt>
      <trkpt lat="59.8516818" lon="17.7365686">
        <ele>16.9604</ele>
        <time>2014-05-16T17:58:11Z</time>
      </trkpt>
      <trkpt lat="59.8517522" lon="17.7364572">
        <ele>16.9604</ele>
        <time>2014-05-16T17:58:12Z</time>
      </trkpt>
      <trkpt lat="59.8518219" lon="17.7363408">
        <ele>16.9604</ele>
        <time>2014-05-16T17:58:13Z</time>
      </trkpt>
      <trkpt lat="59.8518919" lon="17.7362229">
        <ele>16.9604</ele>
        <time>2014-05-16T17:58:14Z</time>
      </trkpt>
      <trkpt lat="59.8519634" lon="17.7361067">
        <ele>16.9604</ele>
        <time>2014-05-16T17:58:15Z</time>
      </trkpt>
      <trkpt lat="59.8520369" lon="17.7359944">
        <ele>16.9604</ele>
        <time>2014-05-16T17:58:16Z</time>
      </trkpt>
      <trkpt lat="59.8521118" lon="17.7358868">
        <ele>16.9604</ele>
        <time>2014-05-16T17:58:17Z</time>
      </trkpt>
      <trkpt lat="59.8521881" lon="17.7357851">
        <ele>16.9604</ele>
        <time>2014-05-16T17:58:18Z</time>
      </trkpt>
      <trkpt lat="59.8522655" lon="17.7356882">
        <ele>16.9604</ele>
        <time>2014-05-16T17:58:19Z</time>
      </trkpt>
      <trkpt lat="59.8523436" lon="17.7355929">
        <ele>16.9604</ele>
        <time>2014-05-16T17:58:20Z</time>
      </trkpt>
      <trkpt lat="59.852422" lon="17.7354984">
        <ele>16.9604</ele>
        <time>2014-05-16T17:58:21Z</time>
      </trkpt>
      <trkpt lat="59.8525003" lon="17.735404">
        <ele>16.9604</ele>
        <time>2014-05-16T17:58:22Z</time>
      </trkpt>
      <trkpt lat="59.8525784" lon="17.7353102">
        <ele>16.9604</ele>
        <time>2014-05-16T17:58:23Z</time>
      </trkpt>
      <trkpt lat="59.8526566" lon="17.7352189">
        <ele>16.9604</ele>
        <time>2014-05-16T17:58:24Z</time>
      </trkpt>
      <trkpt lat="59.8527357" lon="17.7351294">
        <ele>17.4412</ele>
        <time>2014-05-16T17:58:25Z</time>
      </trkpt>
      <trkpt lat="59.8528145" lon="17.7350403">
        <ele>17.4412</ele>
        <time>2014-05-16T17:58:26Z</time>
      </trkpt>
      <trkpt lat="59.8528924" lon="17.7349496">
        <ele>17.4412</ele>
        <time>2014-05-16T17:58:27Z</time>
      </trkpt>
      <trkpt lat="59.8529699" lon="17.7348574">
        <ele>17.4412</ele>
        <time>2014-05-16T17:58:28Z</time>
      </trkpt>
      <trkpt lat="59.8530472" lon="17.734764">
        <ele>17.4412</ele>
        <time>2014-05-16T17:58:29Z</time>
      </trkpt>
      <trkpt lat="59.8531249" lon="17.7346694">
        <ele>16.9604</ele>
        <time>2014-05-16T17:58:30Z</time>
      </trkpt>
      <trkpt lat="59.8532035" lon="17.7345739">
        <ele>16.9604</ele>
        <time>2014-05-16T17:58:31Z</time>
      </trkpt>
      <trkpt lat="59.8532824" lon="17.7344752">
        <ele>16.4797</ele>
        <time>2014-05-16T17:58:32Z</time>
      </trkpt>
      <trkpt lat="59.8533611" lon="17.7343674">
        <ele>15.999</ele>
        <time>2014-05-16T17:58:33Z</time>
      </trkpt>
      <trkpt lat="59.8534373" lon="17.7342458">
        <ele>15.999</ele>
        <time>2014-05-16T17:58:34Z</time>
      </trkpt>
      <trkpt lat="59.8535097" lon="17.73411">
        <ele>15.5184</ele>
        <time>2014-05-16T17:58:35Z</time>
      </trkpt>
      <trkpt lat="59.8535776" lon="17.7339608">
        <ele>14.557</ele>
        <time>2014-05-16T17:58:36Z</time>
      </trkpt>
      <trkpt lat="59.8536407" lon="17.7337996">
        <ele>14.0764</ele>
        <time>2014-05-16T17:58:37Z</time>
      </trkpt>
      <trkpt lat="59.8536969" lon="17.7336258">
        <ele>13.5958</ele>
        <time>2014-05-16T17:58:38Z</time>
      </trkpt>
      <trkpt lat="59.8537465" lon="17.7334412">
        <ele>13.1151</ele>
        <time>2014-05-16T17:58:39Z</time>
      </trkpt>
      <trkpt lat="59.8537888" lon="17.733248">
        <ele>13.1151</ele>
        <time>2014-05-16T17:58:40Z</time>
      </trkpt>
      <trkpt lat="59.8538243" lon="17.7330475">
        <ele>12.6344</ele>
        <time>2014-05-16T17:58:41Z</time>
      </trkpt>
      <trkpt lat="59.8538543" lon="17.7328403">
        <ele>12.1538</ele>
        <time>2014-05-16T17:58:42Z</time>
      </trkpt>
      <trkpt lat="59.8538787" lon="17.7326327">
        <ele>12.1538</ele>
        <time>2014-05-16T17:58:43Z</time>
      </trkpt>
      <trkpt lat="59.853901" lon="17.7324237">
        <ele>11.6732</ele>
        <time>2014-05-16T17:58:44Z</time>
      </trkpt>
      <trkpt lat="59.8539233" lon="17.7322146">
        <ele>11.1925</ele>
        <time>2014-05-16T17:58:45Z</time>
      </trkpt>
      <trkpt lat="59.8539347" lon="17.7319732">
        <ele>10.2312</ele>
        <time>2014-05-16T17:58:48Z</time>
      </trkpt>
      <trkpt lat="59.853953" lon="17.7317644">
        <ele>9.75061</ele>
        <time>2014-05-16T17:58:49Z</time>
      </trkpt>
      <trkpt lat="59.8539719" lon="17.7315624">
        <ele>10.2312</ele>
        <time>2014-05-16T17:58:50Z</time>
      </trkpt>
      <trkpt lat="59.853994" lon="17.731368">
        <ele>10.7118</ele>
        <time>2014-05-16T17:58:51Z</time>
      </trkpt>
      <trkpt lat="59.8540174" lon="17.731181">
        <ele>11.1925</ele>
        <time>2014-05-16T17:58:52Z</time>
      </trkpt>
      <trkpt lat="59.8540427" lon="17.7310027">
        <ele>11.6732</ele>
        <time>2014-05-16T17:58:53Z</time>
      </trkpt>
      <trkpt lat="59.8540711" lon="17.7308323">
        <ele>12.1538</ele>
        <time>2014-05-16T17:58:54Z</time>
      </trkpt>
      <trkpt lat="59.8541035" lon="17.7306703">
        <ele>12.1538</ele>
        <time>2014-05-16T17:58:55Z</time>
      </trkpt>
      <trkpt lat="59.85414" lon="17.730517">
        <ele>12.6344</ele>
        <time>2014-05-16T17:58:56Z</time>
      </trkpt>
      <trkpt lat="59.8541791" lon="17.7303716">
        <ele>13.1151</ele>
        <time>2014-05-16T17:58:57Z</time>
      </trkpt>
      <trkpt lat="59.8542196" lon="17.7302331">
        <ele>13.5958</ele>
        <time>2014-05-16T17:58:58Z</time>
      </trkpt>
      <trkpt lat="59.8542619" lon="17.7301016">
        <ele>14.0764</ele>
        <time>2014-05-16T17:58:59Z</time>
      </trkpt>
      <trkpt lat="59.8543055" lon="17.7299768">
        <ele>14.557</ele>
        <time>2014-05-16T17:59:00Z</time>
      </trkpt>
      <trkpt lat="59.8543506" lon="17.7298577">
        <ele>14.557</ele>
        <time>2014-05-16T17:59:01Z</time>
      </trkpt>
      <trkpt lat="59.8543959" lon="17.7297404">
        <ele>15.0377</ele>
        <time>2014-05-16T17:59:02Z</time>
      </trkpt>
      <trkpt lat="59.8544407" lon="17.7296234">
        <ele>15.0377</ele>
        <time>2014-05-16T17:59:03Z</time>
      </trkpt>
      <trkpt lat="59.8544862" lon="17.7295068">
        <ele>15.5184</ele>
        <time>2014-05-16T17:59:04Z</time>
      </trkpt>
      <trkpt lat="59.8545324" lon="17.7293897">
        <ele>15.5184</ele>
        <time>2014-05-16T17:59:05Z</time>
      </trkpt>
      <trkpt lat="59.8545795" lon="17.7292697">
        <ele>15.5184</ele>
        <time>2014-05-16T17:59:06Z</time>
      </trkpt>
      <trkpt lat="59.8546271" lon="17.7291467">
        <ele>15.999</ele>
        <time>2014-05-16T17:59:07Z</time>
      </trkpt>
      <trkpt lat="59.8546759" lon="17.7290209">
        <ele>15.999</ele>
        <time>2014-05-16T17:59:08Z</time>
      </trkpt>
      <trkpt lat="59.8547266" lon="17.7288946">
        <ele>15.999</ele>
        <time>2014-05-16T17:59:09Z</time>
      </trkpt>
      <trkpt lat="59.8547763" lon="17.7287681">
        <ele>15.999</ele>
        <time>2014-05-16T17:59:10Z</time>
      </trkpt>
      <trkpt lat="59.8548236" lon="17.7286412">
        <ele>15.999</ele>
        <time>2014-05-16T17:59:11Z</time>
      </trkpt>
      <trkpt lat="59.8548718" lon="17.728517">
        <ele>15.999</ele>
        <time>2014-05-16T17:59:12Z</time>
      </trkpt>
      <trkpt lat="59.8549206" lon="17.7283942">
        <ele>15.999</ele>
        <time>2014-05-16T17:59:13Z</time>
      </trkpt>
      <trkpt lat="59.854969" lon="17.7282704">
        <ele>15.999</ele>
        <time>2014-05-16T17:59:14Z</time>
      </trkpt>
      <trkpt lat="59.8550167" lon="17.7281457">
        <ele>15.999</ele>
        <time>2014-05-16T17:59:15Z</time>
      </trkpt>
      <trkpt lat="59.8550648" lon="17.7280214">
        <ele>15.999</ele>
        <time>2014-05-16T17:59:16Z</time>
      </trkpt>
      <trkpt lat="59.8551135" lon="17.7278964">
        <ele>15.999</ele>
        <time>2014-05-16T17:59:17Z</time>
      </trkpt>
      <trkpt lat="59.8551618" lon="17.7277701">
        <ele>15.999</ele>
        <time>2014-05-16T17:59:18Z</time>
      </trkpt>
      <trkpt lat="59.8552099" lon="17.7276425">
        <ele>15.999</ele>
        <time>2014-05-16T17:59:19Z</time>
      </trkpt>
      <trkpt lat="59.8552577" lon="17.7275136">
        <ele>15.999</ele>
        <time>2014-05-16T17:59:20Z</time>
      </trkpt>
      <trkpt lat="59.8553052" lon="17.7273851">
        <ele>15.999</ele>
        <time>2014-05-16T17:59:21Z</time>
      </trkpt>
      <trkpt lat="59.8553519" lon="17.7272567">
        <ele>15.999</ele>
        <time>2014-05-16T17:59:22Z</time>
      </trkpt>
      <trkpt lat="59.8553981" lon="17.7271278">
        <ele>15.5184</ele>
        <time>2014-05-16T17:59:23Z</time>
      </trkpt>
      <trkpt lat="59.8554441" lon="17.7269973">
        <ele>15.5184</ele>
        <time>2014-05-16T17:59:24Z</time>
      </trkpt>
      <trkpt lat="59.8554896" lon="17.7268649">
        <ele>15.5184</ele>
        <time>2014-05-16T17:59:25Z</time>
      </trkpt>
      <trkpt lat="59.8555346" lon="17.7267304">
        <ele>15.5184</ele>
        <time>2014-05-16T17:59:26Z</time>
      </trkpt>
      <trkpt lat="59.8556248" lon="17.72646">
        <ele>15.5184</ele>
        <time>2014-05-16T17:59:27Z</time>
      </trkpt>
      <trkpt lat="59.8556715" lon="17.7263256">
        <ele>15.0377</ele>
        <time>2014-05-16T17:59:28Z</time>
      </trkpt>
      <trkpt lat="59.8557189" lon="17.7261908">
        <ele>15.0377</ele>
        <time>2014-05-16T17:59:29Z</time>
      </trkpt>
      <trkpt lat="59.8557657" lon="17.7260556">
        <ele>15.0377</ele>
        <time>2014-05-16T17:59:30Z</time>
      </trkpt>
      <trkpt lat="59.8558124" lon="17.7259208">
        <ele>15.0377</ele>
        <time>2014-05-16T17:59:31Z</time>
      </trkpt>
      <trkpt lat="59.8558594" lon="17.7257881">
        <ele>15.0377</ele>
        <time>2014-05-16T17:59:32Z</time>
      </trkpt>
      <trkpt lat="59.8559073" lon="17.7256586">
        <ele>15.0377</ele>
        <time>2014-05-16T17:59:33Z</time>
      </trkpt>
      <trkpt lat="59.8559564" lon="17.7255316">
        <ele>15.0377</ele>
        <time>2014-05-16T17:59:34Z</time>
      </trkpt>
      <trkpt lat="59.856007" lon="17.725407">
        <ele>15.5184</ele>
        <time>2014-05-16T17:59:35Z</time>
      </trkpt>
      <trkpt lat="59.856058" lon="17.7252847">
        <ele>15.5184</ele>
        <time>2014-05-16T17:59:36Z</time>
      </trkpt>
      <trkpt lat="59.8561087" lon="17.7251645">
        <ele>15.5184</ele>
        <time>2014-05-16T17:59:37Z</time>
      </trkpt>
      <trkpt lat="59.8561595" lon="17.7250465">
        <ele>15.5184</ele>
        <time>2014-05-16T17:59:38Z</time>
      </trkpt>
      <trkpt lat="59.8562106" lon="17.7249288">
        <ele>15.5184</ele>
        <time>2014-05-16T17:59:39Z</time>
      </trkpt>
      <trkpt lat="59.8562603" lon="17.7248092">
        <ele>15.5184</ele>
        <time>2014-05-16T17:59:40Z</time>
      </trkpt>
      <trkpt lat="59.8563087" lon="17.7246884">
        <ele>15.5184</ele>
        <time>2014-05-16T17:59:41Z</time>
      </trkpt>
      <trkpt lat="59.8563568" lon="17.7245668">
        <ele>15.5184</ele>
        <time>2014-05-16T17:59:42Z</time>
      </trkpt>
      <trkpt lat="59.856405" lon="17.7244455">
        <ele>15.5184</ele>
        <time>2014-05-16T17:59:43Z</time>
      </trkpt>
      <trkpt lat="59.8564541" lon="17.7243249">
        <ele>15.5184</ele>
        <time>2014-05-16T17:59:44Z</time>
      </trkpt>
      <trkpt lat="59.8565044" lon="17.7242062">
        <ele>15.999</ele>
        <time>2014-05-16T17:59:45Z</time>
      </trkpt>
      <trkpt lat="59.8565555" lon="17.7240901">
        <ele>15.999</ele>
        <time>2014-05-16T17:59:46Z</time>
      </trkpt>
      <trkpt lat="59.856607" lon="17.7239766">
        <ele>15.999</ele>
        <time>2014-05-16T17:59:47Z</time>
      </trkpt>
      <trkpt lat="59.8566594" lon="17.7238663">
        <ele>15.999</ele>
        <time>2014-05-16T17:59:48Z</time>
      </trkpt>
      <trkpt lat="59.8567122" lon="17.7237595">
        <ele>16.4797</ele>
        <time>2014-05-16T17:59:49Z</time>
      </trkpt>
      <trkpt lat="59.8567632" lon="17.723655">
        <ele>16.4797</ele>
        <time>2014-05-16T17:59:50Z</time>
      </trkpt>
      <trkpt lat="59.8568137" lon="17.7235517">
        <ele>16.9604</ele>
        <time>2014-05-16T17:59:51Z</time>
      </trkpt>
      <trkpt lat="59.8568653" lon="17.7234505">
        <ele>16.9604</ele>
        <time>2014-05-16T17:59:52Z</time>
      </trkpt>
      <trkpt lat="59.8569163" lon="17.7233526">
        <ele>17.4412</ele>
        <time>2014-05-16T17:59:53Z</time>
      </trkpt>
      <trkpt lat="59.8569668" lon="17.723256">
        <ele>17.9218</ele>
        <time>2014-05-16T17:59:54Z</time>
      </trkpt>
      <trkpt lat="59.8570181" lon="17.7231619">
        <ele>17.9218</ele>
        <time>2014-05-16T17:59:55Z</time>
      </trkpt>
      <trkpt lat="59.8570714" lon="17.7230723">
        <ele>18.4023</ele>
        <time>2014-05-16T17:59:56Z</time>
      </trkpt>
      <trkpt lat="59.8571265" lon="17.7229877">
        <ele>18.4023</ele>
        <time>2014-05-16T17:59:57Z</time>
      </trkpt>
      <trkpt lat="59.8571831" lon="17.7229043">
        <ele>18.8831</ele>
        <time>2014-05-16T17:59:58Z</time>
      </trkpt>
      <trkpt lat="59.85724" lon="17.7228175">
        <ele>18.8831</ele>
        <time>2014-05-16T17:59:59Z</time>
      </trkpt>
      <trkpt lat="59.8572978" lon="17.7227279">
        <ele>18.8831</ele>
        <time>2014-05-16T18:00:00Z</time>
      </trkpt>
      <trkpt lat="59.8573535" lon="17.7226367">
        <ele>19.3638</ele>
        <time>2014-05-16T18:00:01Z</time>
      </trkpt>
      <trkpt lat="59.8574068" lon="17.7225468">
        <ele>19.3638</ele>
        <time>2014-05-16T18:00:02Z</time>
      </trkpt>
      <trkpt lat="59.8574585" lon="17.7224573">
        <ele>19.3638</ele>
        <time>2014-05-16T18:00:03Z</time>
      </trkpt>
      <trkpt lat="59.8575076" lon="17.7223662">
        <ele>19.8444</ele>
        <time>2014-05-16T18:00:04Z</time>
      </trkpt>
      <trkpt lat="59.8575544" lon="17.7222746">
        <ele>19.8444</ele>
        <time>2014-05-16T18:00:05Z</time>
      </trkpt>
      <trkpt lat="59.8575972" lon="17.7221779">
        <ele>19.8444</ele>
        <time>2014-05-16T18:00:06Z</time>
      </trkpt>
      <trkpt lat="59.8576357" lon="17.7220756">
        <ele>19.8444</ele>
        <time>2014-05-16T18:00:07Z</time>
      </trkpt>
      <trkpt lat="59.8576694" lon="17.7219672">
        <ele>19.8444</ele>
        <time>2014-05-16T18:00:08Z</time>
      </trkpt>
      <trkpt lat="59.8576974" lon="17.7218517">
        <ele>19.8444</ele>
        <time>2014-05-16T18:00:09Z</time>
      </trkpt>
      <trkpt lat="59.8577202" lon="17.7217324">
        <ele>19.8444</ele>
        <time>2014-05-16T18:00:10Z</time>
      </trkpt>
      <trkpt lat="59.8577368" lon="17.7216083">
        <ele>19.8444</ele>
        <time>2014-05-16T18:00:11Z</time>
      </trkpt>
      <trkpt lat="59.8577482" lon="17.7214799">
        <ele>19.3638</ele>
        <time>2014-05-16T18:00:12Z</time>
      </trkpt>
      <trkpt lat="59.857754" lon="17.7213462">
        <ele>18.8831</ele>
        <time>2014-05-16T18:00:13Z</time>
      </trkpt>
      <trkpt lat="59.8577539" lon="17.721208">
        <ele>18.8831</ele>
        <time>2014-05-16T18:00:14Z</time>
      </trkpt>
      <trkpt lat="59.8577501" lon="17.7210681">
        <ele>18.4023</ele>
        <time>2014-05-16T18:00:15Z</time>
      </trkpt>
      <trkpt lat="59.8577475" lon="17.7209231">
        <ele>17.9218</ele>
        <time>2014-05-16T18:00:16Z</time>
      </trkpt>
      <trkpt lat="59.8577481" lon="17.7207712">
        <ele>17.4412</ele>
        <time>2014-05-16T18:00:17Z</time>
      </trkpt>
      <trkpt lat="59.8577503" lon="17.7206201">
        <ele>16.9604</ele>
        <time>2014-05-16T18:00:18Z</time>
      </trkpt>
      <trkpt lat="59.8577513" lon="17.7204636">
        <ele>16.4797</ele>
        <time>2014-05-16T18:00:19Z</time>
      </trkpt>
      <trkpt lat="59.8577487" lon="17.7203028">
        <ele>15.999</ele>
        <time>2014-05-16T18:00:20Z</time>
      </trkpt>
      <trkpt lat="59.8577433" lon="17.7201381">
        <ele>15.5184</ele>
        <time>2014-05-16T18:00:21Z</time>
      </trkpt>
      <trkpt lat="59.8577363" lon="17.7199713">
        <ele>15.0377</ele>
        <time>2014-05-16T18:00:22Z</time>
      </trkpt>
      <trkpt lat="59.8577285" lon="17.7198027">
        <ele>15.0377</ele>
        <time>2014-05-16T18:00:23Z</time>
      </trkpt>
      <trkpt lat="59.85772" lon="17.719633">
        <ele>14.557</ele>
        <time>2014-05-16T18:00:24Z</time>
      </trkpt>
      <trkpt lat="59.8577114" lon="17.7194613">
        <ele>14.557</ele>
        <time>2014-05-16T18:00:25Z</time>
      </trkpt>
      <trkpt lat="59.8577039" lon="17.7192897">
        <ele>14.557</ele>
        <time>2014-05-16T18:00:26Z</time>
      </trkpt>
      <trkpt lat="59.8576974" lon="17.7191188">
        <ele>14.0764</ele>
        <time>2014-05-16T18:00:27Z</time>
      </trkpt>
      <trkpt lat="59.8576927" lon="17.7189497">
        <ele>14.0764</ele>
        <time>2014-05-16T18:00:28Z</time>
      </trkpt>
      <trkpt lat="59.8576899" lon="17.7187826">
        <ele>14.0764</ele>
        <time>2014-05-16T18:00:29Z</time>
      </trkpt>
      <trkpt lat="59.857689" lon="17.7186173">
        <ele>14.0764</ele>
        <time>2014-05-16T18:00:30Z</time>
      </trkpt>
      <trkpt lat="59.8576897" lon="17.7184548">
        <ele>14.0764</ele>
        <time>2014-05-16T18:00:31Z</time>
      </trkpt>
      <trkpt lat="59.8576912" lon="17.718294">
        <ele>14.0764</ele>
        <time>2014-05-16T18:00:32Z</time>
      </trkpt>
      <trkpt lat="59.8576936" lon="17.718134">
        <ele>14.557</ele>
        <time>2014-05-16T18:00:33Z</time>
      </trkpt>
      <trkpt lat="59.8576973" lon="17.717974">
        <ele>14.557</ele>
        <time>2014-05-16T18:00:34Z</time>
      </trkpt>
      <trkpt lat="59.8577008" lon="17.7178149">
        <ele>14.557</ele>
        <time>2014-05-16T18:00:35Z</time>
      </trkpt>
      <trkpt lat="59.8577027" lon="17.7176578">
        <ele>14.557</ele>
        <time>2014-05-16T18:00:36Z</time>
      </trkpt>
      <trkpt lat="59.8577036" lon="17.717502">
        <ele>15.0377</ele>
        <time>2014-05-16T18:00:37Z</time>
      </trkpt>
      <trkpt lat="59.8577031" lon="17.7173468">
        <ele>15.0377</ele>
        <time>2014-05-16T18:00:38Z</time>
      </trkpt>
      <trkpt lat="59.8577" lon="17.7171923">
        <ele>15.0377</ele>
        <time>2014-05-16T18:00:39Z</time>
      </trkpt>
      <trkpt lat="59.8576944" lon="17.7170378">
        <ele>15.0377</ele>
        <time>2014-05-16T18:00:40Z</time>
      </trkpt>
      <trkpt lat="59.8576874" lon="17.7168833">
        <ele>15.0377</ele>
        <time>2014-05-16T18:00:41Z</time>
      </trkpt>
      <trkpt lat="59.8576793" lon="17.7167286">
        <ele>15.0377</ele>
        <time>2014-05-16T18:00:42Z</time>
      </trkpt>
      <trkpt lat="59.8576702" lon="17.7165748">
        <ele>15.0377</ele>
        <time>2014-05-16T18:00:43Z</time>
      </trkpt>
      <trkpt lat="59.8576616" lon="17.7164214">
        <ele>15.0377</ele>
        <time>2014-05-16T18:00:44Z</time>
      </trkpt>
      <trkpt lat="59.857656" lon="17.7162677">
        <ele>15.0377</ele>
        <time>2014-05-16T18:00:45Z</time>
      </trkpt>
      <trkpt lat="59.8576554" lon="17.7161137">
        <ele>15.0377</ele>
        <time>2014-05-16T18:00:46Z</time>
      </trkpt>
      <trkpt lat="59.8576601" lon="17.7159598">
        <ele>15.0377</ele>
        <time>2014-05-16T18:00:47Z</time>
      </trkpt>
      <trkpt lat="59.8576703" lon="17.715806">
        <ele>15.0377</ele>
        <time>2014-05-16T18:00:48Z</time>
      </trkpt>
      <trkpt lat="59.8576861" lon="17.7156534">
        <ele>15.0377</ele>
        <time>2014-05-16T18:00:49Z</time>
      </trkpt>
      <trkpt lat="59.8577071" lon="17.7155029">
        <ele>15.0377</ele>
        <time>2014-05-16T18:00:50Z</time>
      </trkpt>
      <trkpt lat="59.857732" lon="17.715354">
        <ele>15.0377</ele>
        <time>2014-05-16T18:00:51Z</time>
      </trkpt>
      <trkpt lat="59.8577595" lon="17.7152066">
        <ele>15.0377</ele>
        <time>2014-05-16T18:00:52Z</time>
      </trkpt>
      <trkpt lat="59.8577886" lon="17.71506">
        <ele>15.0377</ele>
        <time>2014-05-16T18:00:53Z</time>
      </trkpt>
      <trkpt lat="59.8578191" lon="17.7149144">
        <ele>15.0377</ele>
        <time>2014-05-16T18:00:54Z</time>
      </trkpt>
      <trkpt lat="59.8578533" lon="17.714772">
        <ele>15.0377</ele>
        <time>2014-05-16T18:00:55Z</time>
      </trkpt>
      <trkpt lat="59.8578921" lon="17.7146341">
        <ele>15.0377</ele>
        <time>2014-05-16T18:00:56Z</time>
      </trkpt>
      <trkpt lat="59.8579344" lon="17.7145006">
        <ele>15.0377</ele>
        <time>2014-05-16T18:00:57Z</time>
      </trkpt>
      <trkpt lat="59.8579795" lon="17.7143708">
        <ele>15.0377</ele>
        <time>2014-05-16T18:00:58Z</time>
      </trkpt>
      <trkpt lat="59.8580267" lon="17.7142434">
        <ele>15.0377</ele>
        <time>2014-05-16T18:00:59Z</time>
      </trkpt>
      <trkpt lat="59.8580736" lon="17.7141162">
        <ele>15.0377</ele>
        <time>2014-05-16T18:01:00Z</time>
      </trkpt>
      <trkpt lat="59.8581175" lon="17.7139851">
        <ele>15.0377</ele>
        <time>2014-05-16T18:01:01Z</time>
      </trkpt>
      <trkpt lat="59.8581553" lon="17.7138483">
        <ele>15.0377</ele>
        <time>2014-05-16T18:01:02Z</time>
      </trkpt>
      <trkpt lat="59.858186" lon="17.7137044">
        <ele>15.0377</ele>
        <time>2014-05-16T18:01:03Z</time>
      </trkpt>
      <trkpt lat="59.8582108" lon="17.7135546">
        <ele>15.0377</ele>
        <time>2014-05-16T18:01:04Z</time>
      </trkpt>
      <trkpt lat="59.8582314" lon="17.7134015">
        <ele>15.0377</ele>
        <time>2014-05-16T18:01:05Z</time>
      </trkpt>
      <trkpt lat="59.8582487" lon="17.7132462">
        <ele>15.0377</ele>
        <time>2014-05-16T18:01:06Z</time>
      </trkpt>
      <trkpt lat="59.8582646" lon="17.7130897">
        <ele>15.0377</ele>
        <time>2014-05-16T18:01:07Z</time>
      </trkpt>
      <trkpt lat="59.8582807" lon="17.712934">
        <ele>15.0377</ele>
        <time>2014-05-16T18:01:08Z</time>
      </trkpt>
      <trkpt lat="59.8582983" lon="17.7127807">
        <ele>15.5184</ele>
        <time>2014-05-16T18:01:09Z</time>
      </trkpt>
      <trkpt lat="59.8583174" lon="17.7126305">
        <ele>15.5184</ele>
        <time>2014-05-16T18:01:10Z</time>
      </trkpt>
      <trkpt lat="59.8583386" lon="17.7124841">
        <ele>15.999</ele>
        <time>2014-05-16T18:01:11Z</time>
      </trkpt>
      <trkpt lat="59.8583636" lon="17.7123442">
        <ele>15.999</ele>
        <time>2014-05-16T18:01:12Z</time>
      </trkpt>
      <trkpt lat="59.858392" lon="17.7122088">
        <ele>15.999</ele>
        <time>2014-05-16T18:01:13Z</time>
      </trkpt>
      <trkpt lat="59.8584221" lon="17.7120768">
        <ele>16.4797</ele>
        <time>2014-05-16T18:01:14Z</time>
      </trkpt>
      <trkpt lat="59.8584511" lon="17.7119459">
        <ele>16.4797</ele>
        <time>2014-05-16T18:01:15Z</time>
      </trkpt>
      <trkpt lat="59.8584787" lon="17.7118159">
        <ele>16.4797</ele>
        <time>2014-05-16T18:01:16Z</time>
      </trkpt>
      <trkpt lat="59.8585044" lon="17.7116851">
        <ele>16.4797</ele>
        <time>2014-05-16T18:01:17Z</time>
      </trkpt>
      <trkpt lat="59.858526" lon="17.7115515">
        <ele>16.4797</ele>
        <time>2014-05-16T18:01:18Z</time>
      </trkpt>
      <trkpt lat="59.8585415" lon="17.7114148">
        <ele>16.4797</ele>
        <time>2014-05-16T18:01:19Z</time>
      </trkpt>
      <trkpt lat="59.8585514" lon="17.7112766">
        <ele>15.999</ele>
        <time>2014-05-16T18:01:20Z</time>
      </trkpt>
      <trkpt lat="59.8585548" lon="17.7111361">
        <ele>15.999</ele>
        <time>2014-05-16T18:01:21Z</time>
      </trkpt>
      <trkpt lat="59.8585507" lon="17.7109932">
        <ele>15.999</ele>
        <time>2014-05-16T18:01:22Z</time>
      </trkpt>
      <trkpt lat="59.8585413" lon="17.7108489">
        <ele>15.999</ele>
        <time>2014-05-16T18:01:23Z</time>
      </trkpt>
      <trkpt lat="59.8585273" lon="17.7107048">
        <ele>15.999</ele>
        <time>2014-05-16T18:01:24Z</time>
      </trkpt>
      <trkpt lat="59.8585084" lon="17.7105627">
        <ele>15.999</ele>
        <time>2014-05-16T18:01:25Z</time>
      </trkpt>
      <trkpt lat="59.8584867" lon="17.7104244">
        <ele>15.999</ele>
        <time>2014-05-16T18:01:26Z</time>
      </trkpt>
      <trkpt lat="59.8584589" lon="17.7102965">
        <ele>15.999</ele>
        <time>2014-05-16T18:01:27Z</time>
      </trkpt>
      <trkpt lat="59.8584334" lon="17.7101765">
        <ele>16.4797</ele>
        <time>2014-05-16T18:01:28Z</time>
      </trkpt>
      <trkpt lat="59.8584154" lon="17.7100499">
        <ele>16.4797</ele>
        <time>2014-05-16T18:01:29Z</time>
      </trkpt>
      <trkpt lat="59.8583988" lon="17.709919">
        <ele>15.999</ele>
        <time>2014-05-16T18:01:30Z</time>
      </trkpt>
      <trkpt lat="59.8583822" lon="17.7097858">
        <ele>15.5184</ele>
        <time>2014-05-16T18:01:31Z</time>
      </trkpt>
      <trkpt lat="59.8583654" lon="17.7096486">
        <ele>15.5184</ele>
        <time>2014-05-16T18:01:32Z</time>
      </trkpt>
      <trkpt lat="59.8583496" lon="17.7095076">
        <ele>15.5184</ele>
        <time>2014-05-16T18:01:33Z</time>
      </trkpt>
      <trkpt lat="59.8583377" lon="17.7093625">
        <ele>15.0377</ele>
        <time>2014-05-16T18:01:34Z</time>
      </trkpt>
      <trkpt lat="59.8583347" lon="17.709203">
        <ele>15.0377</ele>
        <time>2014-05-16T18:01:35Z</time>
      </trkpt>
      <trkpt lat="59.8583377" lon="17.7090472">
        <ele>15.0377</ele>
        <time>2014-05-16T18:01:36Z</time>
      </trkpt>
      <trkpt lat="59.858349" lon="17.7088908">
        <ele>14.557</ele>
        <time>2014-05-16T18:01:37Z</time>
      </trkpt>
      <trkpt lat="59.8583598" lon="17.7087394">
        <ele>14.0764</ele>
        <time>2014-05-16T18:01:38Z</time>
      </trkpt>
      <trkpt lat="59.8583771" lon="17.7085831">
        <ele>14.0764</ele>
        <time>2014-05-16T18:01:39Z</time>
      </trkpt>
      <trkpt lat="59.8583946" lon="17.7084255">
        <ele>13.5958</ele>
        <time>2014-05-16T18:01:40Z</time>
      </trkpt>
      <trkpt lat="59.8584124" lon="17.7082665">
        <ele>13.1151</ele>
        <time>2014-05-16T18:01:41Z</time>
      </trkpt>
      <trkpt lat="59.8584305" lon="17.7081048">
        <ele>12.6344</ele>
        <time>2014-05-16T18:01:42Z</time>
      </trkpt>
      <trkpt lat="59.8584505" lon="17.7079396">
        <ele>12.1538</ele>
        <time>2014-05-16T18:01:43Z</time>
      </trkpt>
      <trkpt lat="59.8584672" lon="17.7077744">
        <ele>12.1538</ele>
        <time>2014-05-16T18:01:44Z</time>
      </trkpt>
      <trkpt lat="59.8584863" lon="17.7076056">
        <ele>11.1925</ele>
        <time>2014-05-16T18:01:45Z</time>
      </trkpt>
      <trkpt lat="59.8585075" lon="17.7074335">
        <ele>10.7118</ele>
        <time>2014-05-16T18:01:46Z</time>
      </trkpt>
      <trkpt lat="59.8585262" lon="17.7072601">
        <ele>10.7118</ele>
        <time>2014-05-16T18:01:47Z</time>
      </trkpt>
      <trkpt lat="59.8585468" lon="17.7070834">
        <ele>10.2312</ele>
        <time>2014-05-16T18:01:48Z</time>
      </trkpt>
      <trkpt lat="59.8585666" lon="17.7069072">
        <ele>9.75061</ele>
        <time>2014-05-16T18:01:49Z</time>
      </trkpt>
      <trkpt lat="59.8585866" lon="17.706732">
        <ele>9.75061</ele>
        <time>2014-05-16T18:01:50Z</time>
      </trkpt>
      <trkpt lat="59.8586081" lon="17.7065648">
        <ele>9.2699</ele>
        <time>2014-05-16T18:01:51Z</time>
      </trkpt>
      <trkpt lat="59.8586318" lon="17.7063986">
        <ele>9.2699</ele>
        <time>2014-05-16T18:01:52Z</time>
      </trkpt>
      <trkpt lat="59.8586558" lon="17.7062348">
        <ele>8.78918</ele>
        <time>2014-05-16T18:01:53Z</time>
      </trkpt>
      <trkpt lat="59.8586802" lon="17.7060727">
        <ele>8.78918</ele>
        <time>2014-05-16T18:01:54Z</time>
      </trkpt>
      <trkpt lat="59.8587059" lon="17.7059133">
        <ele>8.78918</ele>
        <time>2014-05-16T18:01:55Z</time>
      </trkpt>
      <trkpt lat="59.8587334" lon="17.7057571">
        <ele>8.78918</ele>
        <time>2014-05-16T18:01:56Z</time>
      </trkpt>
      <trkpt lat="59.8587633" lon="17.7056049">
        <ele>8.78918</ele>
        <time>2014-05-16T18:01:57Z</time>
      </trkpt>
      <trkpt lat="59.858794" lon="17.7054573">
        <ele>8.78918</ele>
        <time>2014-05-16T18:01:58Z</time>
      </trkpt>
      <trkpt lat="59.858822" lon="17.7053115">
        <ele>8.78918</ele>
        <time>2014-05-16T18:01:59Z</time>
      </trkpt>
      <trkpt lat="59.85885" lon="17.7051668">
        <ele>8.78918</ele>
        <time>2014-05-16T18:02:00Z</time>
      </trkpt>
      <trkpt lat="59.8588857" lon="17.7050293">
        <ele>8.78918</ele>
        <time>2014-05-16T18:02:01Z</time>
      </trkpt>
      <trkpt lat="59.8589318" lon="17.704903">
        <ele>8.78918</ele>
        <time>2014-05-16T18:02:02Z</time>
      </trkpt>
      <trkpt lat="59.8589867" lon="17.7047914">
        <ele>9.2699</ele>
        <time>2014-05-16T18:02:03Z</time>
      </trkpt>
      <trkpt lat="59.8590472" lon="17.7046917">
        <ele>9.2699</ele>
        <time>2014-05-16T18:02:04Z</time>
      </trkpt>
      <trkpt lat="59.8591131" lon="17.7046042">
        <ele>9.75061</ele>
        <time>2014-05-16T18:02:05Z</time>
      </trkpt>
      <trkpt lat="59.8591821" lon="17.7045299">
        <ele>9.75061</ele>
        <time>2014-05-16T18:02:06Z</time>
      </trkpt>
      <trkpt lat="59.8592557" lon="17.7044662">
        <ele>9.75061</ele>
        <time>2014-05-16T18:02:07Z</time>
      </trkpt>
      <trkpt lat="59.8593343" lon="17.7044136">
        <ele>9.75061</ele>
        <time>2014-05-16T18:02:08Z</time>
      </trkpt>
      <trkpt lat="59.8594118" lon="17.7043687">
        <ele>9.75061</ele>
        <time>2014-05-16T18:02:09Z</time>
      </trkpt>
      <trkpt lat="59.8594914" lon="17.7043316">
        <ele>9.2699</ele>
        <time>2014-05-16T18:02:10Z</time>
      </trkpt>
      <trkpt lat="59.859571" lon="17.7042959">
        <ele>9.2699</ele>
        <time>2014-05-16T18:02:11Z</time>
      </trkpt>
      <trkpt lat="59.8596499" lon="17.7042594">
        <ele>9.2699</ele>
        <time>2014-05-16T18:02:12Z</time>
      </trkpt>
      <trkpt lat="59.8597264" lon="17.7042213">
        <ele>9.75061</ele>
        <time>2014-05-16T18:02:13Z</time>
      </trkpt>
      <trkpt lat="59.859798" lon="17.7041843">
        <ele>9.2699</ele>
        <time>2014-05-16T18:02:14Z</time>
      </trkpt>
      <trkpt lat="59.8598721" lon="17.7041512">
        <ele>9.2699</ele>
        <time>2014-05-16T18:02:15Z</time>
      </trkpt>
      <trkpt lat="59.8599476" lon="17.7041162">
        <ele>9.2699</ele>
        <time>2014-05-16T18:02:16Z</time>
      </trkpt>
      <trkpt lat="59.8600241" lon="17.7040836">
        <ele>8.78918</ele>
        <time>2014-05-16T18:02:17Z</time>
      </trkpt>
      <trkpt lat="59.860101" lon="17.7040508">
        <ele>8.78918</ele>
        <time>2014-05-16T18:02:18Z</time>
      </trkpt>
      <trkpt lat="59.8601759" lon="17.7040177">
        <ele>8.78918</ele>
        <time>2014-05-16T18:02:19Z</time>
      </trkpt>
      <trkpt lat="59.8602512" lon="17.7039837">
        <ele>8.30859</ele>
        <time>2014-05-16T18:02:20Z</time>
      </trkpt>
      <trkpt lat="59.8603264" lon="17.7039493">
        <ele>8.30859</ele>
        <time>2014-05-16T18:02:21Z</time>
      </trkpt>
      <trkpt lat="59.8604044" lon="17.7039166">
        <ele>8.78918</ele>
        <time>2014-05-16T18:02:22Z</time>
      </trkpt>
      <trkpt lat="59.8604816" lon="17.7038803">
        <ele>9.2699</ele>
        <time>2014-05-16T18:02:23Z</time>
      </trkpt>
      <trkpt lat="59.8605582" lon="17.7038437">
        <ele>9.75061</ele>
        <time>2014-05-16T18:02:24Z</time>
      </trkpt>
      <trkpt lat="59.860635" lon="17.7038094">
        <ele>9.75061</ele>
        <time>2014-05-16T18:02:25Z</time>
      </trkpt>
      <trkpt lat="59.8607121" lon="17.7037742">
        <ele>9.75061</ele>
        <time>2014-05-16T18:02:26Z</time>
      </trkpt>
      <trkpt lat="59.8607899" lon="17.7037437">
        <ele>10.2312</ele>
        <time>2014-05-16T18:02:27Z</time>
      </trkpt>
      <trkpt lat="59.8608687" lon="17.7037231">
        <ele>10.2312</ele>
        <time>2014-05-16T18:02:28Z</time>
      </trkpt>
      <trkpt lat="59.8609479" lon="17.7037156">
        <ele>10.2312</ele>
        <time>2014-05-16T18:02:29Z</time>
      </trkpt>
      <trkpt lat="59.861027" lon="17.7037223">
        <ele>10.2312</ele>
        <time>2014-05-16T18:02:30Z</time>
      </trkpt>
      <trkpt lat="59.8611065" lon="17.7037383">
        <ele>10.7118</ele>
        <time>2014-05-16T18:02:31Z</time>
      </trkpt>
      <trkpt lat="59.8611861" lon="17.7037572">
        <ele>10.7118</ele>
        <time>2014-05-16T18:02:32Z</time>
      </trkpt>
      <trkpt lat="59.8612654" lon="17.7037787">
        <ele>11.1925</ele>
        <time>2014-05-16T18:02:33Z</time>
      </trkpt>
      <trkpt lat="59.8613445" lon="17.703805">
        <ele>11.1925</ele>
        <time>2014-05-16T18:02:34Z</time>
      </trkpt>
      <trkpt lat="59.8614228" lon="17.7038336">
        <ele>11.1925</ele>
        <time>2014-05-16T18:02:35Z</time>
      </trkpt>
      <trkpt lat="59.8615017" lon="17.7038619">
        <ele>11.6732</ele>
        <time>2014-05-16T18:02:36Z</time>
      </trkpt>
      <trkpt lat="59.8615793" lon="17.703894">
        <ele>11.6732</ele>
        <time>2014-05-16T18:02:37Z</time>
      </trkpt>
      <trkpt lat="59.8616579" lon="17.7039264">
        <ele>11.6732</ele>
        <time>2014-05-16T18:02:38Z</time>
      </trkpt>
      <trkpt lat="59.8617366" lon="17.7039572">
        <ele>12.1538</ele>
        <time>2014-05-16T18:02:39Z</time>
      </trkpt>
      <trkpt lat="59.8618178" lon="17.7039846">
        <ele>12.1538</ele>
        <time>2014-05-16T18:02:40Z</time>
      </trkpt>
      <trkpt lat="59.861898" lon="17.7040153">
        <ele>12.1538</ele>
        <time>2014-05-16T18:02:41Z</time>
      </trkpt>
      <trkpt lat="59.8619787" lon="17.7040474">
        <ele>12.1538</ele>
        <time>2014-05-16T18:02:42Z</time>
      </trkpt>
      <trkpt lat="59.8620594" lon="17.7040772">
        <ele>12.1538</ele>
        <time>2014-05-16T18:02:43Z</time>
      </trkpt>
      <trkpt lat="59.8621409" lon="17.7041006">
        <ele>12.1538</ele>
        <time>2014-05-16T18:02:44Z</time>
      </trkpt>
      <trkpt lat="59.862223" lon="17.7041214">
        <ele>12.6344</ele>
        <time>2014-05-16T18:02:45Z</time>
      </trkpt>
      <trkpt lat="59.8623029" lon="17.7041456">
        <ele>12.1538</ele>
        <time>2014-05-16T18:02:46Z</time>
      </trkpt>
      <trkpt lat="59.8623805" lon="17.7041756">
        <ele>12.1538</ele>
        <time>2014-05-16T18:02:47Z</time>
      </trkpt>
      <trkpt lat="59.8624562" lon="17.7042104">
        <ele>12.1538</ele>
        <time>2014-05-16T18:02:48Z</time>
      </trkpt>
      <trkpt lat="59.8625318" lon="17.7042476">
        <ele>12.6344</ele>
        <time>2014-05-16T18:02:49Z</time>
      </trkpt>
      <trkpt lat="59.8626071" lon="17.7042853">
        <ele>12.6344</ele>
        <time>2014-05-16T18:02:50Z</time>
      </trkpt>
      <trkpt lat="59.8626817" lon="17.7043223">
        <ele>12.6344</ele>
        <time>2014-05-16T18:02:51Z</time>
      </trkpt>
      <trkpt lat="59.8627562" lon="17.704355">
        <ele>12.6344</ele>
        <time>2014-05-16T18:02:52Z</time>
      </trkpt>
      <trkpt lat="59.8628317" lon="17.7043815">
        <ele>12.6344</ele>
        <time>2014-05-16T18:02:53Z</time>
      </trkpt>
      <trkpt lat="59.8629081" lon="17.7043941">
        <ele>12.6344</ele>
        <time>2014-05-16T18:02:54Z</time>
      </trkpt>
      <trkpt lat="59.8629871" lon="17.7043918">
        <ele>12.6344</ele>
        <time>2014-05-16T18:02:55Z</time>
      </trkpt>
      <trkpt lat="59.8630681" lon="17.7043855">
        <ele>12.6344</ele>
        <time>2014-05-16T18:02:56Z</time>
      </trkpt>
      <trkpt lat="59.8631489" lon="17.7043599">
        <ele>12.6344</ele>
        <time>2014-05-16T18:02:57Z</time>
      </trkpt>
      <trkpt lat="59.8632262" lon="17.7042974">
        <ele>12.6344</ele>
        <time>2014-05-16T18:02:58Z</time>
      </trkpt>
      <trkpt lat="59.8633012" lon="17.7042116">
        <ele>12.6344</ele>
        <time>2014-05-16T18:02:59Z</time>
      </trkpt>
      <trkpt lat="59.8633753" lon="17.7041177">
        <ele>12.6344</ele>
        <time>2014-05-16T18:03:00Z</time>
      </trkpt>
      <trkpt lat="59.8634483" lon="17.7040217">
        <ele>12.6344</ele>
        <time>2014-05-16T18:03:01Z</time>
      </trkpt>
      <trkpt lat="59.8635212" lon="17.7039276">
        <ele>12.6344</ele>
        <time>2014-05-16T18:03:02Z</time>
      </trkpt>
      <trkpt lat="59.8635943" lon="17.7038337">
        <ele>12.6344</ele>
        <time>2014-05-16T18:03:03Z</time>
      </trkpt>
      <trkpt lat="59.8636664" lon="17.7037375">
        <ele>12.6344</ele>
        <time>2014-05-16T18:03:04Z</time>
      </trkpt>
      <trkpt lat="59.8637364" lon="17.7036416">
        <ele>12.6344</ele>
        <time>2014-05-16T18:03:05Z</time>
      </trkpt>
      <trkpt lat="59.8638038" lon="17.703549">
        <ele>12.6344</ele>
        <time>2014-05-16T18:03:06Z</time>
      </trkpt>
      <trkpt lat="59.8638696" lon="17.7034618">
        <ele>12.6344</ele>
        <time>2014-05-16T18:03:07Z</time>
      </trkpt>
      <trkpt lat="59.8639354" lon="17.7033817">
        <ele>12.6344</ele>
        <time>2014-05-16T18:03:08Z</time>
      </trkpt>
      <trkpt lat="59.8640004" lon="17.703308">
        <ele>12.6344</ele>
        <time>2014-05-16T18:03:09Z</time>
      </trkpt>
      <trkpt lat="59.8640631" lon="17.7032381">
        <ele>12.6344</ele>
        <time>2014-05-16T18:03:10Z</time>
      </trkpt>
      <trkpt lat="59.8641196" lon="17.7031773">
        <ele>12.6344</ele>
        <time>2014-05-16T18:03:11Z</time>
      </trkpt>
      <trkpt lat="59.8641679" lon="17.7031278">
        <ele>12.6344</ele>
        <time>2014-05-16T18:03:12Z</time>
      </trkpt>
      <trkpt lat="59.8642057" lon="17.7030869">
        <ele>12.6344</ele>
        <time>2014-05-16T18:03:13Z</time>
      </trkpt>
      <trkpt lat="59.8642352" lon="17.7030536">
        <ele>13.1151</ele>
        <time>2014-05-16T18:03:14Z</time>
      </trkpt>
      <trkpt lat="59.8642553" lon="17.7030346">
        <ele>13.1151</ele>
        <time>2014-05-16T18:03:15Z</time>
      </trkpt>
      <trkpt lat="59.8642708" lon="17.7030312">
        <ele>13.5958</ele>
        <time>2014-05-16T18:03:16Z</time>
      </trkpt>
      <trkpt lat="59.8642795" lon="17.7030411">
        <ele>13.5958</ele>
        <time>2014-05-16T18:03:17Z</time>
      </trkpt>
      <trkpt lat="59.8642873" lon="17.7030458">
        <ele>13.5958</ele>
        <time>2014-05-16T18:03:18Z</time>
      </trkpt>
      <trkpt lat="59.8642971" lon="17.7030352">
        <ele>14.0764</ele>
        <time>2014-05-16T18:03:19Z</time>
      </trkpt>
      <trkpt lat="59.8643062" lon="17.7030138">
        <ele>14.0764</ele>
        <time>2014-05-16T18:03:20Z</time>
      </trkpt>
      <trkpt lat="59.8643138" lon="17.702991">
        <ele>14.0764</ele>
        <time>2014-05-16T18:03:21Z</time>
      </trkpt>
      <trkpt lat="59.8643233" lon="17.7029786">
        <ele>14.0764</ele>
        <time>2014-05-16T18:03:22Z</time>
      </trkpt>
      <trkpt lat="59.8643313" lon="17.7029785">
        <ele>14.0764</ele>
        <time>2014-05-16T18:03:23Z</time>
      </trkpt>
      <trkpt lat="59.8643345" lon="17.7029838">
        <ele>14.0764</ele>
        <time>2014-05-16T18:03:24Z</time>
      </trkpt>
      <trkpt lat="59.8643339" lon="17.7029853">
        <ele>14.557</ele>
        <time>2014-05-16T18:03:25Z</time>
      </trkpt>
      <trkpt lat="59.8643322" lon="17.7029842">
        <ele>15.0377</ele>
        <time>2014-05-16T18:03:26Z</time>
      </trkpt>
      <trkpt lat="59.8643651" lon="17.7029392">
        <ele>15.5184</ele>
        <time>2014-05-16T18:03:34Z</time>
      </trkpt>
      <trkpt lat="59.8643879" lon="17.7028968">
        <ele>15.5184</ele>
        <time>2014-05-16T18:03:35Z</time>
      </trkpt>
      <trkpt lat="59.8644175" lon="17.7028522">
        <ele>15.0377</ele>
        <time>2014-05-16T18:03:36Z</time>
      </trkpt>
      <trkpt lat="59.8644555" lon="17.7028047">
        <ele>15.0377</ele>
        <time>2014-05-16T18:03:37Z</time>
      </trkpt>
      <trkpt lat="59.8644985" lon="17.7027548">
        <ele>15.5184</ele>
        <time>2014-05-16T18:03:38Z</time>
      </trkpt>
      <trkpt lat="59.8645422" lon="17.7027052">
        <ele>15.5184</ele>
        <time>2014-05-16T18:03:39Z</time>
      </trkpt>
      <trkpt lat="59.8645853" lon="17.7026545">
        <ele>15.5184</ele>
        <time>2014-05-16T18:03:40Z</time>
      </trkpt>
      <trkpt lat="59.864629" lon="17.7026">
        <ele>15.5184</ele>
        <time>2014-05-16T18:03:41Z</time>
      </trkpt>
      <trkpt lat="59.864672" lon="17.7025422">
        <ele>15.5184</ele>
        <time>2014-05-16T18:03:42Z</time>
      </trkpt>
      <trkpt lat="59.8647144" lon="17.7024807">
        <ele>15.5184</ele>
        <time>2014-05-16T18:03:43Z</time>
      </trkpt>
      <trkpt lat="59.8647595" lon="17.7024161">
        <ele>15.5184</ele>
        <time>2014-05-16T18:03:44Z</time>
      </trkpt>
      <trkpt lat="59.8648048" lon="17.7023464">
        <ele>15.5184</ele>
        <time>2014-05-16T18:03:45Z</time>
      </trkpt>
      <trkpt lat="59.8648526" lon="17.702272">
        <ele>15.5184</ele>
        <time>2014-05-16T18:03:46Z</time>
      </trkpt>
      <trkpt lat="59.864903" lon="17.7021936">
        <ele>15.5184</ele>
        <time>2014-05-16T18:03:47Z</time>
      </trkpt>
      <trkpt lat="59.8649569" lon="17.7021182">
        <ele>15.5184</ele>
        <time>2014-05-16T18:03:48Z</time>
      </trkpt>
      <trkpt lat="59.86501" lon="17.7020399">
        <ele>15.999</ele>
        <time>2014-05-16T18:03:49Z</time>
      </trkpt>
      <trkpt lat="59.8650614" lon="17.701955">
        <ele>16.4797</ele>
        <time>2014-05-16T18:03:50Z</time>
      </trkpt>
      <trkpt lat="59.8651132" lon="17.70187">
        <ele>16.9604</ele>
        <time>2014-05-16T18:03:51Z</time>
      </trkpt>
      <trkpt lat="59.8651643" lon="17.7017841">
        <ele>16.9604</ele>
        <time>2014-05-16T18:03:52Z</time>
      </trkpt>
      <trkpt lat="59.8652137" lon="17.7016976">
        <ele>17.4412</ele>
        <time>2014-05-16T18:03:53Z</time>
      </trkpt>
      <trkpt lat="59.8652604" lon="17.7016085">
        <ele>17.9218</ele>
        <time>2014-05-16T18:03:54Z</time>
      </trkpt>
      <trkpt lat="59.8653059" lon="17.7015143">
        <ele>17.9218</ele>
        <time>2014-05-16T18:03:55Z</time>
      </trkpt>
      <trkpt lat="59.8653511" lon="17.7014132">
        <ele>17.9218</ele>
        <time>2014-05-16T18:03:56Z</time>
      </trkpt>
      <trkpt lat="59.8653951" lon="17.7013085">
        <ele>17.9218</ele>
        <time>2014-05-16T18:03:57Z</time>
      </trkpt>
      <trkpt lat="59.8654344" lon="17.7011996">
        <ele>17.9218</ele>
        <time>2014-05-16T18:03:58Z</time>
      </trkpt>
      <trkpt lat="59.8654669" lon="17.7010883">
        <ele>18.4023</ele>
        <time>2014-05-16T18:03:59Z</time>
      </trkpt>
      <trkpt lat="59.8654955" lon="17.7009799">
        <ele>18.4023</ele>
        <time>2014-05-16T18:04:00Z</time>
      </trkpt>
      <trkpt lat="59.8655226" lon="17.7008761">
        <ele>18.8831</ele>
        <time>2014-05-16T18:04:01Z</time>
      </trkpt>
      <trkpt lat="59.8655485" lon="17.7007769">
        <ele>18.8831</ele>
        <time>2014-05-16T18:04:02Z</time>
      </trkpt>
      <trkpt lat="59.8655757" lon="17.7006833">
        <ele>19.3638</ele>
        <time>2014-05-16T18:04:03Z</time>
      </trkpt>
      <trkpt lat="59.8656022" lon="17.7005961">
        <ele>19.8444</ele>
        <time>2014-05-16T18:04:04Z</time>
      </trkpt>
      <trkpt lat="59.8656269" lon="17.7005111">
        <ele>19.8444</ele>
        <time>2014-05-16T18:04:05Z</time>
      </trkpt>
      <trkpt lat="59.8656536" lon="17.7004285">
        <ele>20.325</ele>
        <time>2014-05-16T18:04:06Z</time>
      </trkpt>
      <trkpt lat="59.8656824" lon="17.7003503">
        <ele>20.325</ele>
        <time>2014-05-16T18:04:07Z</time>
      </trkpt>
      <trkpt lat="59.8657144" lon="17.7002754">
        <ele>20.8057</ele>
        <time>2014-05-16T18:04:08Z</time>
      </trkpt>
      <trkpt lat="59.8657469" lon="17.7002">
        <ele>20.8057</ele>
        <time>2014-05-16T18:04:09Z</time>
      </trkpt>
      <trkpt lat="59.8657793" lon="17.7001222">
        <ele>20.8057</ele>
        <time>2014-05-16T18:04:10Z</time>
      </trkpt>
      <trkpt lat="59.8658119" lon="17.7000406">
        <ele>21.2864</ele>
        <time>2014-05-16T18:04:11Z</time>
      </trkpt>
      <trkpt lat="59.8658457" lon="17.6999584">
        <ele>21.2864</ele>
        <time>2014-05-16T18:04:12Z</time>
      </trkpt>
      <trkpt lat="59.8658805" lon="17.6998732">
        <ele>21.2864</ele>
        <time>2014-05-16T18:04:13Z</time>
      </trkpt>
      <trkpt lat="59.8659168" lon="17.699786">
        <ele>21.2864</ele>
        <time>2014-05-16T18:04:14Z</time>
      </trkpt>
      <trkpt lat="59.8659553" lon="17.6996955">
        <ele>21.2864</ele>
        <time>2014-05-16T18:04:15Z</time>
      </trkpt>
      <trkpt lat="59.8659955" lon="17.6996053">
        <ele>21.2864</ele>
        <time>2014-05-16T18:04:16Z</time>
      </trkpt>
      <trkpt lat="59.8660378" lon="17.6995153">
        <ele>21.2864</ele>
        <time>2014-05-16T18:04:17Z</time>
      </trkpt>
      <trkpt lat="59.8660814" lon="17.6994251">
        <ele>21.2864</ele>
        <time>2014-05-16T18:04:18Z</time>
      </trkpt>
      <trkpt lat="59.8661268" lon="17.6993354">
        <ele>21.2864</ele>
        <time>2014-05-16T18:04:19Z</time>
      </trkpt>
      <trkpt lat="59.8661747" lon="17.6992495">
        <ele>21.2864</ele>
        <time>2014-05-16T18:04:20Z</time>
      </trkpt>
      <trkpt lat="59.8662257" lon="17.6991703">
        <ele>21.2864</ele>
        <time>2014-05-16T18:04:21Z</time>
      </trkpt>
      <trkpt lat="59.8662789" lon="17.6991007">
        <ele>21.2864</ele>
        <time>2014-05-16T18:04:22Z</time>
      </trkpt>
      <trkpt lat="59.8663352" lon="17.6990386">
        <ele>20.8057</ele>
        <time>2014-05-16T18:04:23Z</time>
      </trkpt>
      <trkpt lat="59.8663928" lon="17.6989794">
        <ele>20.8057</ele>
        <time>2014-05-16T18:04:24Z</time>
      </trkpt>
      <trkpt lat="59.8664492" lon="17.6989205">
        <ele>20.8057</ele>
        <time>2014-05-16T18:04:25Z</time>
      </trkpt>
      <trkpt lat="59.8665052" lon="17.6988554">
        <ele>20.325</ele>
        <time>2014-05-16T18:04:26Z</time>
      </trkpt>
      <trkpt lat="59.8665621" lon="17.6987834">
        <ele>20.325</ele>
        <time>2014-05-16T18:04:27Z</time>
      </trkpt>
      <trkpt lat="59.8666204" lon="17.698706">
        <ele>19.8444</ele>
        <time>2014-05-16T18:04:28Z</time>
      </trkpt>
      <trkpt lat="59.8666798" lon="17.6986217">
        <ele>19.8444</ele>
        <time>2014-05-16T18:04:29Z</time>
      </trkpt>
      <trkpt lat="59.8667402" lon="17.6985332">
        <ele>19.3638</ele>
        <time>2014-05-16T18:04:30Z</time>
      </trkpt>
      <trkpt lat="59.866801" lon="17.6984386">
        <ele>18.8831</ele>
        <time>2014-05-16T18:04:31Z</time>
      </trkpt>
      <trkpt lat="59.8668624" lon="17.698336">
        <ele>18.8831</ele>
        <time>2014-05-16T18:04:32Z</time>
      </trkpt>
      <trkpt lat="59.8669248" lon="17.6982305">
        <ele>18.4023</ele>
        <time>2014-05-16T18:04:33Z</time>
      </trkpt>
      <trkpt lat="59.8669899" lon="17.6981262">
        <ele>17.9218</ele>
        <time>2014-05-16T18:04:34Z</time>
      </trkpt>
      <trkpt lat="59.8670568" lon="17.6980239">
        <ele>17.9218</ele>
        <time>2014-05-16T18:04:35Z</time>
      </trkpt>
      <trkpt lat="59.8671258" lon="17.6979274">
        <ele>17.9218</ele>
        <time>2014-05-16T18:04:36Z</time>
      </trkpt>
      <trkpt lat="59.8671972" lon="17.6978395">
        <ele>17.9218</ele>
        <time>2014-05-16T18:04:37Z</time>
      </trkpt>
      <trkpt lat="59.8672687" lon="17.6977623">
        <ele>17.9218</ele>
        <time>2014-05-16T18:04:38Z</time>
      </trkpt>
      <trkpt lat="59.8673395" lon="17.6976937">
        <ele>17.9218</ele>
        <time>2014-05-16T18:04:39Z</time>
      </trkpt>
      <trkpt lat="59.8674106" lon="17.6976365">
        <ele>17.4412</ele>
        <time>2014-05-16T18:04:40Z</time>
      </trkpt>
      <trkpt lat="59.8674851" lon="17.6975921">
        <ele>17.9218</ele>
        <time>2014-05-16T18:04:41Z</time>
      </trkpt>
      <trkpt lat="59.8675592" lon="17.697554">
        <ele>17.9218</ele>
        <time>2014-05-16T18:04:42Z</time>
      </trkpt>
      <trkpt lat="59.8676321" lon="17.6975148">
        <ele>17.9218</ele>
        <time>2014-05-16T18:04:43Z</time>
      </trkpt>
      <trkpt lat="59.8677029" lon="17.6974673">
        <ele>17.9218</ele>
        <time>2014-05-16T18:04:44Z</time>
      </trkpt>
      <trkpt lat="59.867771" lon="17.6974088">
        <ele>17.9218</ele>
        <time>2014-05-16T18:04:45Z</time>
      </trkpt>
      <trkpt lat="59.8678353" lon="17.6973422">
        <ele>18.4023</ele>
        <time>2014-05-16T18:04:46Z</time>
      </trkpt>
      <trkpt lat="59.867898" lon="17.6972691">
        <ele>18.4023</ele>
        <time>2014-05-16T18:04:47Z</time>
      </trkpt>
      <trkpt lat="59.8679602" lon="17.6971926">
        <ele>18.4023</ele>
        <time>2014-05-16T18:04:48Z</time>
      </trkpt>
      <trkpt lat="59.8680238" lon="17.6971163">
        <ele>18.4023</ele>
        <time>2014-05-16T18:04:49Z</time>
      </trkpt>
      <trkpt lat="59.8680888" lon="17.6970392">
        <ele>18.4023</ele>
        <time>2014-05-16T18:04:50Z</time>
      </trkpt>
      <trkpt lat="59.8681554" lon="17.6969565">
        <ele>18.4023</ele>
        <time>2014-05-16T18:04:51Z</time>
      </trkpt>
      <trkpt lat="59.8682223" lon="17.6968737">
        <ele>18.8831</ele>
        <time>2014-05-16T18:04:52Z</time>
      </trkpt>
      <trkpt lat="59.8682915" lon="17.6967965">
        <ele>18.8831</ele>
        <time>2014-05-16T18:04:53Z</time>
      </trkpt>
      <trkpt lat="59.8683625" lon="17.6967279">
        <ele>18.8831</ele>
        <time>2014-05-16T18:04:54Z</time>
      </trkpt>
      <trkpt lat="59.868435" lon="17.6966656">
        <ele>18.8831</ele>
        <time>2014-05-16T18:04:55Z</time>
      </trkpt>
      <trkpt lat="59.8685075" lon="17.6966072">
        <ele>18.8831</ele>
        <time>2014-05-16T18:04:56Z</time>
      </trkpt>
      <trkpt lat="59.8685806" lon="17.6965531">
        <ele>19.3638</ele>
        <time>2014-05-16T18:04:57Z</time>
      </trkpt>
      <trkpt lat="59.8686516" lon="17.6964967">
        <ele>19.3638</ele>
        <time>2014-05-16T18:04:58Z</time>
      </trkpt>
      <trkpt lat="59.8687208" lon="17.6964332">
        <ele>19.3638</ele>
        <time>2014-05-16T18:04:59Z</time>
      </trkpt>
      <trkpt lat="59.8687881" lon="17.6963631">
        <ele>19.3638</ele>
        <time>2014-05-16T18:05:00Z</time>
      </trkpt>
      <trkpt lat="59.8688543" lon="17.696289">
        <ele>18.8831</ele>
        <time>2014-05-16T18:05:01Z</time>
      </trkpt>
      <trkpt lat="59.8689149" lon="17.6962144">
        <ele>18.8831</ele>
        <time>2014-05-16T18:05:02Z</time>
      </trkpt>
      <trkpt lat="59.868975" lon="17.6961346">
        <ele>18.8831</ele>
        <time>2014-05-16T18:05:03Z</time>
      </trkpt>
      <trkpt lat="59.8690393" lon="17.6960454">
        <ele>19.3638</ele>
        <time>2014-05-16T18:05:04Z</time>
      </trkpt>
      <trkpt lat="59.8691046" lon="17.6959549">
        <ele>18.8831</ele>
        <time>2014-05-16T18:05:05Z</time>
      </trkpt>
      <trkpt lat="59.8691712" lon="17.6958631">
        <ele>18.4023</ele>
        <time>2014-05-16T18:05:06Z</time>
      </trkpt>
      <trkpt lat="59.8692387" lon="17.6957714">
        <ele>18.4023</ele>
        <time>2014-05-16T18:05:07Z</time>
      </trkpt>
      <trkpt lat="59.8693073" lon="17.6956799">
        <ele>18.4023</ele>
        <time>2014-05-16T18:05:08Z</time>
      </trkpt>
      <trkpt lat="59.8693759" lon="17.6955874">
        <ele>18.4023</ele>
        <time>2014-05-16T18:05:09Z</time>
      </trkpt>
      <trkpt lat="59.8694449" lon="17.6954979">
        <ele>18.4023</ele>
        <time>2014-05-16T18:05:10Z</time>
      </trkpt>
      <trkpt lat="59.8695147" lon="17.6954122">
        <ele>18.4023</ele>
        <time>2014-05-16T18:05:11Z</time>
      </trkpt>
      <trkpt lat="59.8695842" lon="17.6953292">
        <ele>17.9218</ele>
        <time>2014-05-16T18:05:12Z</time>
      </trkpt>
      <trkpt lat="59.8696536" lon="17.6952473">
        <ele>17.9218</ele>
        <time>2014-05-16T18:05:13Z</time>
      </trkpt>
      <trkpt lat="59.8697234" lon="17.6951656">
        <ele>17.9218</ele>
        <time>2014-05-16T18:05:14Z</time>
      </trkpt>
      <trkpt lat="59.8697929" lon="17.6950836">
        <ele>17.9218</ele>
        <time>2014-05-16T18:05:15Z</time>
      </trkpt>
      <trkpt lat="59.8698623" lon="17.6950037">
        <ele>17.9218</ele>
        <time>2014-05-16T18:05:16Z</time>
      </trkpt>
      <trkpt lat="59.8699323" lon="17.6949275">
        <ele>18.4023</ele>
        <time>2014-05-16T18:05:17Z</time>
      </trkpt>
      <trkpt lat="59.8700027" lon="17.6948552">
        <ele>18.4023</ele>
        <time>2014-05-16T18:05:18Z</time>
      </trkpt>
      <trkpt lat="59.8700743" lon="17.6947832">
        <ele>18.4023</ele>
        <time>2014-05-16T18:05:19Z</time>
      </trkpt>
      <trkpt lat="59.8701466" lon="17.6947094">
        <ele>18.4023</ele>
        <time>2014-05-16T18:05:20Z</time>
      </trkpt>
      <trkpt lat="59.8702202" lon="17.6946344">
        <ele>17.9218</ele>
        <time>2014-05-16T18:05:21Z</time>
      </trkpt>
      <trkpt lat="59.8702942" lon="17.6945537">
        <ele>17.9218</ele>
        <time>2014-05-16T18:05:22Z</time>
      </trkpt>
      <trkpt lat="59.8703677" lon="17.6944641">
        <ele>17.9218</ele>
        <time>2014-05-16T18:05:23Z</time>
      </trkpt>
      <trkpt lat="59.8704413" lon="17.6943771">
        <ele>17.9218</ele>
        <time>2014-05-16T18:05:24Z</time>
      </trkpt>
      <trkpt lat="59.8705161" lon="17.6942942">
        <ele>17.9218</ele>
        <time>2014-05-16T18:05:25Z</time>
      </trkpt>
      <trkpt lat="59.8705912" lon="17.694213">
        <ele>17.9218</ele>
        <time>2014-05-16T18:05:26Z</time>
      </trkpt>
      <trkpt lat="59.8706654" lon="17.6941326">
        <ele>17.9218</ele>
        <time>2014-05-16T18:05:27Z</time>
      </trkpt>
      <trkpt lat="59.8707383" lon="17.6940497">
        <ele>17.9218</ele>
        <time>2014-05-16T18:05:28Z</time>
      </trkpt>
      <trkpt lat="59.8708104" lon="17.6939659">
        <ele>17.9218</ele>
        <time>2014-05-16T18:05:29Z</time>
      </trkpt>
      <trkpt lat="59.8708816" lon="17.6938791">
        <ele>18.4023</ele>
        <time>2014-05-16T18:05:30Z</time>
      </trkpt>
      <trkpt lat="59.87095" lon="17.6937879">
        <ele>18.4023</ele>
        <time>2014-05-16T18:05:31Z</time>
      </trkpt>
      <trkpt lat="59.8710154" lon="17.6936898">
        <ele>18.4023</ele>
        <time>2014-05-16T18:05:32Z</time>
      </trkpt>
      <trkpt lat="59.8710789" lon="17.6935871">
        <ele>18.4023</ele>
        <time>2014-05-16T18:05:33Z</time>
      </trkpt>
      <trkpt lat="59.8711408" lon="17.6934781">
        <ele>18.4023</ele>
        <time>2014-05-16T18:05:34Z</time>
      </trkpt>
      <trkpt lat="59.8712009" lon="17.6933605">
        <ele>17.9218</ele>
        <time>2014-05-16T18:05:35Z</time>
      </trkpt>
      <trkpt lat="59.8712604" lon="17.6932372">
        <ele>17.9218</ele>
        <time>2014-05-16T18:05:36Z</time>
      </trkpt>
      <trkpt lat="59.8713191" lon="17.6931106">
        <ele>17.9218</ele>
        <time>2014-05-16T18:05:37Z</time>
      </trkpt>
      <trkpt lat="59.871378" lon="17.6929873">
        <ele>17.4412</ele>
        <time>2014-05-16T18:05:38Z</time>
      </trkpt>
      <trkpt lat="59.8714364" lon="17.6928639">
        <ele>17.4412</ele>
        <time>2014-05-16T18:05:39Z</time>
      </trkpt>
      <trkpt lat="59.8714944" lon="17.6927413">
        <ele>17.4412</ele>
        <time>2014-05-16T18:05:40Z</time>
      </trkpt>
      <trkpt lat="59.8715516" lon="17.6926199">
        <ele>17.4412</ele>
        <time>2014-05-16T18:05:41Z</time>
      </trkpt>
      <trkpt lat="59.871607" lon="17.6924987">
        <ele>17.4412</ele>
        <time>2014-05-16T18:05:42Z</time>
      </trkpt>
      <trkpt lat="59.8716629" lon="17.6923799">
        <ele>17.4412</ele>
        <time>2014-05-16T18:05:43Z</time>
      </trkpt>
      <trkpt lat="59.8717153" lon="17.692262">
        <ele>17.4412</ele>
        <time>2014-05-16T18:05:44Z</time>
      </trkpt>
      <trkpt lat="59.8717689" lon="17.6921489">
        <ele>17.4412</ele>
        <time>2014-05-16T18:05:45Z</time>
      </trkpt>
      <trkpt lat="59.8718214" lon="17.6920381">
        <ele>17.4412</ele>
        <time>2014-05-16T18:05:46Z</time>
      </trkpt>
      <trkpt lat="59.8718728" lon="17.6919289">
        <ele>17.9218</ele>
        <time>2014-05-16T18:05:47Z</time>
      </trkpt>
      <trkpt lat="59.8719241" lon="17.6918218">
        <ele>17.9218</ele>
        <time>2014-05-16T18:05:48Z</time>
      </trkpt>
      <trkpt lat="59.8719753" lon="17.6917166">
        <ele>17.9218</ele>
        <time>2014-05-16T18:05:49Z</time>
      </trkpt>
      <trkpt lat="59.8720262" lon="17.6916089">
        <ele>18.4023</ele>
        <time>2014-05-16T18:05:50Z</time>
      </trkpt>
      <trkpt lat="59.8720752" lon="17.6915021">
        <ele>18.4023</ele>
        <time>2014-05-16T18:05:51Z</time>
      </trkpt>
      <trkpt lat="59.872124" lon="17.691398">
        <ele>18.4023</ele>
        <time>2014-05-16T18:05:52Z</time>
      </trkpt>
      <trkpt lat="59.872173" lon="17.6912957">
        <ele>18.4023</ele>
        <time>2014-05-16T18:05:53Z</time>
      </trkpt>
      <trkpt lat="59.8722214" lon="17.6911952">
        <ele>18.4023</ele>
        <time>2014-05-16T18:05:54Z</time>
      </trkpt>
      <trkpt lat="59.8722691" lon="17.6910942">
        <ele>18.4023</ele>
        <time>2014-05-16T18:05:55Z</time>
      </trkpt>
      <trkpt lat="59.8723156" lon="17.6909906">
        <ele>18.4023</ele>
        <time>2014-05-16T18:05:56Z</time>
      </trkpt>
      <trkpt lat="59.8723597" lon="17.690881">
        <ele>18.8831</ele>
        <time>2014-05-16T18:05:57Z</time>
      </trkpt>
      <trkpt lat="59.8724024" lon="17.6907691">
        <ele>18.8831</ele>
        <time>2014-05-16T18:05:58Z</time>
      </trkpt>
      <trkpt lat="59.8724436" lon="17.6906561">
        <ele>18.8831</ele>
        <time>2014-05-16T18:05:59Z</time>
      </trkpt>
      <trkpt lat="59.8724846" lon="17.6905413">
        <ele>18.8831</ele>
        <time>2014-05-16T18:06:00Z</time>
      </trkpt>
      <trkpt lat="59.8725242" lon="17.6904241">
        <ele>18.8831</ele>
        <time>2014-05-16T18:06:01Z</time>
      </trkpt>
      <trkpt lat="59.8725608" lon="17.6903033">
        <ele>18.8831</ele>
        <time>2014-05-16T18:06:02Z</time>
      </trkpt>
      <trkpt lat="59.8725955" lon="17.6901802">
        <ele>19.3638</ele>
        <time>2014-05-16T18:06:03Z</time>
      </trkpt>
      <trkpt lat="59.8726295" lon="17.6900574">
        <ele>19.3638</ele>
        <time>2014-05-16T18:06:04Z</time>
      </trkpt>
      <trkpt lat="59.8726663" lon="17.6899367">
        <ele>19.3638</ele>
        <time>2014-05-16T18:06:05Z</time>
      </trkpt>
      <trkpt lat="59.8727076" lon="17.6898176">
        <ele>19.8444</ele>
        <time>2014-05-16T18:06:06Z</time>
      </trkpt>
      <trkpt lat="59.8727487" lon="17.6896966">
        <ele>19.8444</ele>
        <time>2014-05-16T18:06:07Z</time>
      </trkpt>
      <trkpt lat="59.8727936" lon="17.6895761">
        <ele>19.8444</ele>
        <time>2014-05-16T18:06:08Z</time>
      </trkpt>
      <trkpt lat="59.8728422" lon="17.6894576">
        <ele>19.8444</ele>
        <time>2014-05-16T18:06:09Z</time>
      </trkpt>
      <trkpt lat="59.8728942" lon="17.6893402">
        <ele>19.8444</ele>
        <time>2014-05-16T18:06:10Z</time>
      </trkpt>
      <trkpt lat="59.8729485" lon="17.6892227">
        <ele>19.8444</ele>
        <time>2014-05-16T18:06:11Z</time>
      </trkpt>
      <trkpt lat="59.873005" lon="17.6891051">
        <ele>19.8444</ele>
        <time>2014-05-16T18:06:12Z</time>
      </trkpt>
      <trkpt lat="59.8730609" lon="17.6889872">
        <ele>19.8444</ele>
        <time>2014-05-16T18:06:13Z</time>
      </trkpt>
      <trkpt lat="59.8731196" lon="17.6888741">
        <ele>19.8444</ele>
        <time>2014-05-16T18:06:14Z</time>
      </trkpt>
      <trkpt lat="59.8731832" lon="17.6887727">
        <ele>19.3638</ele>
        <time>2014-05-16T18:06:15Z</time>
      </trkpt>
      <trkpt lat="59.8732501" lon="17.688683">
        <ele>19.3638</ele>
        <time>2014-05-16T18:06:16Z</time>
      </trkpt>
      <trkpt lat="59.873319" lon="17.6886002">
        <ele>19.3638</ele>
        <time>2014-05-16T18:06:17Z</time>
      </trkpt>
      <trkpt lat="59.8733884" lon="17.6885235">
        <ele>19.8444</ele>
        <time>2014-05-16T18:06:18Z</time>
      </trkpt>
      <trkpt lat="59.8734558" lon="17.6884499">
        <ele>19.3638</ele>
        <time>2014-05-16T18:06:19Z</time>
      </trkpt>
      <trkpt lat="59.8735208" lon="17.6883749">
        <ele>19.3638</ele>
        <time>2014-05-16T18:06:20Z</time>
      </trkpt>
      <trkpt lat="59.8735843" lon="17.6883002">
        <ele>19.3638</ele>
        <time>2014-05-16T18:06:21Z</time>
      </trkpt>
      <trkpt lat="59.8736484" lon="17.6882324">
        <ele>19.3638</ele>
        <time>2014-05-16T18:06:22Z</time>
      </trkpt>
      <trkpt lat="59.8737123" lon="17.6881737">
        <ele>19.3638</ele>
        <time>2014-05-16T18:06:23Z</time>
      </trkpt>
      <trkpt lat="59.8737745" lon="17.6881155">
        <ele>19.3638</ele>
        <time>2014-05-16T18:06:24Z</time>
      </trkpt>
      <trkpt lat="59.8738319" lon="17.6880509">
        <ele>19.3638</ele>
        <time>2014-05-16T18:06:25Z</time>
      </trkpt>
      <trkpt lat="59.8738827" lon="17.6879782">
        <ele>19.3638</ele>
        <time>2014-05-16T18:06:26Z</time>
      </trkpt>
      <trkpt lat="59.873922" lon="17.6878917">
        <ele>19.3638</ele>
        <time>2014-05-16T18:06:27Z</time>
      </trkpt>
      <trkpt lat="59.8739396" lon="17.6877826">
        <ele>19.3638</ele>
        <time>2014-05-16T18:06:28Z</time>
      </trkpt>
      <trkpt lat="59.8739472" lon="17.6876625">
        <ele>18.8831</ele>
        <time>2014-05-16T18:06:29Z</time>
      </trkpt>
      <trkpt lat="59.8739581" lon="17.6875378">
        <ele>18.8831</ele>
        <time>2014-05-16T18:06:30Z</time>
      </trkpt>
      <trkpt lat="59.873979" lon="17.6874151">
        <ele>18.8831</ele>
        <time>2014-05-16T18:06:31Z</time>
      </trkpt>
      <trkpt lat="59.8740124" lon="17.6873026">
        <ele>18.8831</ele>
        <time>2014-05-16T18:06:32Z</time>
      </trkpt>
      <trkpt lat="59.8740557" lon="17.6872031">
        <ele>18.8831</ele>
        <time>2014-05-16T18:06:33Z</time>
      </trkpt>
      <trkpt lat="59.8741048" lon="17.6871109">
        <ele>18.8831</ele>
        <time>2014-05-16T18:06:34Z</time>
      </trkpt>
      <trkpt lat="59.8741541" lon="17.6870157">
        <ele>18.8831</ele>
        <time>2014-05-16T18:06:35Z</time>
      </trkpt>
      <trkpt lat="59.8742013" lon="17.6869137">
        <ele>18.8831</ele>
        <time>2014-05-16T18:06:36Z</time>
      </trkpt>
      <trkpt lat="59.8742487" lon="17.6868095">
        <ele>18.8831</ele>
        <time>2014-05-16T18:06:37Z</time>
      </trkpt>
      <trkpt lat="59.8742971" lon="17.6867054">
        <ele>18.8831</ele>
        <time>2014-05-16T18:06:38Z</time>
      </trkpt>
      <trkpt lat="59.8743467" lon="17.6866001">
        <ele>18.8831</ele>
        <time>2014-05-16T18:06:39Z</time>
      </trkpt>
      <trkpt lat="59.874397" lon="17.6864929">
        <ele>18.8831</ele>
        <time>2014-05-16T18:06:40Z</time>
      </trkpt>
      <trkpt lat="59.8744482" lon="17.6863832">
        <ele>18.8831</ele>
        <time>2014-05-16T18:06:41Z</time>
      </trkpt>
      <trkpt lat="59.8744992" lon="17.6862719">
        <ele>18.8831</ele>
        <time>2014-05-16T18:06:42Z</time>
      </trkpt>
      <trkpt lat="59.8745503" lon="17.6861604">
        <ele>19.3638</ele>
        <time>2014-05-16T18:06:43Z</time>
      </trkpt>
      <trkpt lat="59.8746031" lon="17.6860495">
        <ele>19.3638</ele>
        <time>2014-05-16T18:06:44Z</time>
      </trkpt>
      <trkpt lat="59.8746565" lon="17.685938">
        <ele>19.3638</ele>
        <time>2014-05-16T18:06:45Z</time>
      </trkpt>
      <trkpt lat="59.8747094" lon="17.6858267">
        <ele>19.3638</ele>
        <time>2014-05-16T18:06:46Z</time>
      </trkpt>
      <trkpt lat="59.8747617" lon="17.6857157">
        <ele>19.8444</ele>
        <time>2014-05-16T18:06:47Z</time>
      </trkpt>
      <trkpt lat="59.8748134" lon="17.6856029">
        <ele>19.3638</ele>
        <time>2014-05-16T18:06:48Z</time>
      </trkpt>
      <trkpt lat="59.8748642" lon="17.6854931">
        <ele>19.8444</ele>
        <time>2014-05-16T18:06:49Z</time>
      </trkpt>
      <trkpt lat="59.874914" lon="17.6853838">
        <ele>19.8444</ele>
        <time>2014-05-16T18:06:50Z</time>
      </trkpt>
      <trkpt lat="59.874964" lon="17.6852729">
        <ele>19.8444</ele>
        <time>2014-05-16T18:06:51Z</time>
      </trkpt>
      <trkpt lat="59.8750144" lon="17.6851622">
        <ele>19.8444</ele>
        <time>2014-05-16T18:06:52Z</time>
      </trkpt>
      <trkpt lat="59.8750661" lon="17.6850517">
        <ele>20.325</ele>
        <time>2014-05-16T18:06:53Z</time>
      </trkpt>
      <trkpt lat="59.8751181" lon="17.684942">
        <ele>20.325</ele>
        <time>2014-05-16T18:06:54Z</time>
      </trkpt>
      <trkpt lat="59.8751694" lon="17.6848321">
        <ele>20.325</ele>
        <time>2014-05-16T18:06:55Z</time>
      </trkpt>
      <trkpt lat="59.8752202" lon="17.6847208">
        <ele>20.8057</ele>
        <time>2014-05-16T18:06:56Z</time>
      </trkpt>
      <trkpt lat="59.875271" lon="17.6846094">
        <ele>20.8057</ele>
        <time>2014-05-16T18:06:57Z</time>
      </trkpt>
      <trkpt lat="59.8753222" lon="17.6845003">
        <ele>20.8057</ele>
        <time>2014-05-16T18:06:58Z</time>
      </trkpt>
      <trkpt lat="59.8753732" lon="17.684394">
        <ele>21.2864</ele>
        <time>2014-05-16T18:06:59Z</time>
      </trkpt>
      <trkpt lat="59.8754228" lon="17.6842882">
        <ele>21.2864</ele>
        <time>2014-05-16T18:07:00Z</time>
      </trkpt>
      <trkpt lat="59.8754719" lon="17.6841831">
        <ele>21.767</ele>
        <time>2014-05-16T18:07:01Z</time>
      </trkpt>
      <trkpt lat="59.8755215" lon="17.6840791">
        <ele>21.767</ele>
        <time>2014-05-16T18:07:02Z</time>
      </trkpt>
      <trkpt lat="59.8755708" lon="17.6839758">
        <ele>21.767</ele>
        <time>2014-05-16T18:07:03Z</time>
      </trkpt>
      <trkpt lat="59.87562" lon="17.6838718">
        <ele>22.2476</ele>
        <time>2014-05-16T18:07:04Z</time>
      </trkpt>
      <trkpt lat="59.8756686" lon="17.6837667">
        <ele>22.2476</ele>
        <time>2014-05-16T18:07:05Z</time>
      </trkpt>
      <trkpt lat="59.8757174" lon="17.6836601">
        <ele>22.7283</ele>
        <time>2014-05-16T18:07:06Z</time>
      </trkpt>
      <trkpt lat="59.8757665" lon="17.6835527">
        <ele>22.7283</ele>
        <time>2014-05-16T18:07:07Z</time>
      </trkpt>
      <trkpt lat="59.8758159" lon="17.6834458">
        <ele>23.209</ele>
        <time>2014-05-16T18:07:08Z</time>
      </trkpt>
      <trkpt lat="59.8758646" lon="17.6833398">
        <ele>23.209</ele>
        <time>2014-05-16T18:07:09Z</time>
      </trkpt>
      <trkpt lat="59.8759123" lon="17.6832348">
        <ele>23.209</ele>
        <time>2014-05-16T18:07:10Z</time>
      </trkpt>
      <trkpt lat="59.8759598" lon="17.6831305">
        <ele>23.6896</ele>
        <time>2014-05-16T18:07:11Z</time>
      </trkpt>
      <trkpt lat="59.8760075" lon="17.683027">
        <ele>23.6896</ele>
        <time>2014-05-16T18:07:12Z</time>
      </trkpt>
      <trkpt lat="59.8760552" lon="17.6829257">
        <ele>24.1703</ele>
        <time>2014-05-16T18:07:13Z</time>
      </trkpt>
      <trkpt lat="59.8761022" lon="17.682825">
        <ele>24.1703</ele>
        <time>2014-05-16T18:07:14Z</time>
      </trkpt>
      <trkpt lat="59.8761479" lon="17.6827248">
        <ele>24.1703</ele>
        <time>2014-05-16T18:07:15Z</time>
      </trkpt>
      <trkpt lat="59.8761932" lon="17.682625">
        <ele>24.651</ele>
        <time>2014-05-16T18:07:16Z</time>
      </trkpt>
      <trkpt lat="59.8762389" lon="17.6825256">
        <ele>24.651</ele>
        <time>2014-05-16T18:07:17Z</time>
      </trkpt>
      <trkpt lat="59.8762849" lon="17.6824269">
        <ele>24.651</ele>
        <time>2014-05-16T18:07:18Z</time>
      </trkpt>
      <trkpt lat="59.8763311" lon="17.6823281">
        <ele>25.1317</ele>
        <time>2014-05-16T18:07:19Z</time>
      </trkpt>
      <trkpt lat="59.8763775" lon="17.6822285">
        <ele>25.1317</ele>
        <time>2014-05-16T18:07:20Z</time>
      </trkpt>
      <trkpt lat="59.8764245" lon="17.6821285">
        <ele>25.1317</ele>
        <time>2014-05-16T18:07:21Z</time>
      </trkpt>
      <trkpt lat="59.8764712" lon="17.6820275">
        <ele>25.1317</ele>
        <time>2014-05-16T18:07:22Z</time>
      </trkpt>
      <trkpt lat="59.8765181" lon="17.6819267">
        <ele>25.1317</ele>
        <time>2014-05-16T18:07:23Z</time>
      </trkpt>
      <trkpt lat="59.8765652" lon="17.6818266">
        <ele>25.6123</ele>
        <time>2014-05-16T18:07:24Z</time>
      </trkpt>
      <trkpt lat="59.8766126" lon="17.6817267">
        <ele>25.6123</ele>
        <time>2014-05-16T18:07:25Z</time>
      </trkpt>
      <trkpt lat="59.8766606" lon="17.6816268">
        <ele>25.6123</ele>
        <time>2014-05-16T18:07:26Z</time>
      </trkpt>
      <trkpt lat="59.8767074" lon="17.6815269">
        <ele>25.6123</ele>
        <time>2014-05-16T18:07:27Z</time>
      </trkpt>
      <trkpt lat="59.8767535" lon="17.6814283">
        <ele>25.6123</ele>
        <time>2014-05-16T18:07:28Z</time>
      </trkpt>
      <trkpt lat="59.8767998" lon="17.6813341">
        <ele>25.6123</ele>
        <time>2014-05-16T18:07:29Z</time>
      </trkpt>
      <trkpt lat="59.8768447" lon="17.6812425">
        <ele>25.6123</ele>
        <time>2014-05-16T18:07:30Z</time>
      </trkpt>
      <trkpt lat="59.8768869" lon="17.6811507">
        <ele>25.6123</ele>
        <time>2014-05-16T18:07:31Z</time>
      </trkpt>
      <trkpt lat="59.8769275" lon="17.6810595">
        <ele>25.6123</ele>
        <time>2014-05-16T18:07:32Z</time>
      </trkpt>
      <trkpt lat="59.8769679" lon="17.6809695">
        <ele>25.6123</ele>
        <time>2014-05-16T18:07:33Z</time>
      </trkpt>
      <trkpt lat="59.8770094" lon="17.6808803">
        <ele>25.6123</ele>
        <time>2014-05-16T18:07:34Z</time>
      </trkpt>
      <trkpt lat="59.8770511" lon="17.6807894">
        <ele>25.6123</ele>
        <time>2014-05-16T18:07:35Z</time>
      </trkpt>
      <trkpt lat="59.8770916" lon="17.6806975">
        <ele>25.6123</ele>
        <time>2014-05-16T18:07:36Z</time>
      </trkpt>
      <trkpt lat="59.877133" lon="17.6806079">
        <ele>25.6123</ele>
        <time>2014-05-16T18:07:37Z</time>
      </trkpt>
      <trkpt lat="59.8771735" lon="17.6805182">
        <ele>25.6123</ele>
        <time>2014-05-16T18:07:38Z</time>
      </trkpt>
      <trkpt lat="59.8772098" lon="17.6804294">
        <ele>25.6123</ele>
        <time>2014-05-16T18:07:39Z</time>
      </trkpt>
      <trkpt lat="59.8772428" lon="17.6803489">
        <ele>25.6123</ele>
        <time>2014-05-16T18:07:40Z</time>
      </trkpt>
      <trkpt lat="59.8772681" lon="17.6802716">
        <ele>25.6123</ele>
        <time>2014-05-16T18:07:41Z</time>
      </trkpt>
      <trkpt lat="59.8772774" lon="17.6801968">
        <ele>25.6123</ele>
        <time>2014-05-16T18:07:42Z</time>
      </trkpt>
      <trkpt lat="59.8772766" lon="17.6801264">
        <ele>25.6123</ele>
        <time>2014-05-16T18:07:43Z</time>
      </trkpt>
      <trkpt lat="59.8772714" lon="17.6800648">
        <ele>25.1317</ele>
        <time>2014-05-16T18:07:44Z</time>
      </trkpt>
      <trkpt lat="59.8772586" lon="17.6800168">
        <ele>25.1317</ele>
        <time>2014-05-16T18:07:45Z</time>
      </trkpt>
      <trkpt lat="59.8772383" lon="17.6799846">
        <ele>25.1317</ele>
        <time>2014-05-16T18:07:46Z</time>
      </trkpt>
      <trkpt lat="59.8772196" lon="17.6799479">
        <ele>25.1317</ele>
        <time>2014-05-16T18:07:47Z</time>
      </trkpt>
      <trkpt lat="59.8772145" lon="17.6798983">
        <ele>25.1317</ele>
        <time>2014-05-16T18:07:48Z</time>
      </trkpt>
      <trkpt lat="59.8772296" lon="17.6798557">
        <ele>25.1317</ele>
        <time>2014-05-16T18:07:49Z</time>
      </trkpt>
      <trkpt lat="59.877255" lon="17.6798206">
        <ele>25.1317</ele>
        <time>2014-05-16T18:07:50Z</time>
      </trkpt>
      <trkpt lat="59.8772835" lon="17.6797784">
        <ele>25.1317</ele>
        <time>2014-05-16T18:07:51Z</time>
      </trkpt>
      <trkpt lat="59.8773127" lon="17.679724">
        <ele>25.1317</ele>
        <time>2014-05-16T18:07:52Z</time>
      </trkpt>
      <trkpt lat="59.8773445" lon="17.67966">
        <ele>25.1317</ele>
        <time>2014-05-16T18:07:53Z</time>
      </trkpt>
      <trkpt lat="59.8773859" lon="17.6795997">
        <ele>24.651</ele>
        <time>2014-05-16T18:07:54Z</time>
      </trkpt>
      <trkpt lat="59.8774362" lon="17.679541">
        <ele>24.651</ele>
        <time>2014-05-16T18:07:55Z</time>
      </trkpt>
      <trkpt lat="59.8774858" lon="17.679466">
        <ele>24.651</ele>
        <time>2014-05-16T18:07:56Z</time>
      </trkpt>
      <trkpt lat="59.8775325" lon="17.6793758">
        <ele>24.651</ele>
        <time>2014-05-16T18:07:57Z</time>
      </trkpt>
      <trkpt lat="59.8775786" lon="17.6792763">
        <ele>24.651</ele>
        <time>2014-05-16T18:07:58Z</time>
      </trkpt>
      <trkpt lat="59.8776264" lon="17.6791766">
        <ele>24.651</ele>
        <time>2014-05-16T18:07:59Z</time>
      </trkpt>
      <trkpt lat="59.8776812" lon="17.6790849">
        <ele>24.651</ele>
        <time>2014-05-16T18:08:00Z</time>
      </trkpt>
      <trkpt lat="59.8777408" lon="17.6790036">
        <ele>24.651</ele>
        <time>2014-05-16T18:08:01Z</time>
      </trkpt>
      <trkpt lat="59.8778023" lon="17.6789264">
        <ele>25.1317</ele>
        <time>2014-05-16T18:08:02Z</time>
      </trkpt>
      <trkpt lat="59.877862" lon="17.6788452">
        <ele>25.1317</ele>
        <time>2014-05-16T18:08:03Z</time>
      </trkpt>
      <trkpt lat="59.8779184" lon="17.6787563">
        <ele>25.1317</ele>
        <time>2014-05-16T18:08:04Z</time>
      </trkpt>
      <trkpt lat="59.8779717" lon="17.6786606">
        <ele>25.1317</ele>
        <time>2014-05-16T18:08:05Z</time>
      </trkpt>
      <trkpt lat="59.8780223" lon="17.6785596">
        <ele>25.1317</ele>
        <time>2014-05-16T18:08:06Z</time>
      </trkpt>
      <trkpt lat="59.8780701" lon="17.6784543">
        <ele>25.1317</ele>
        <time>2014-05-16T18:08:07Z</time>
      </trkpt>
      <trkpt lat="59.8781158" lon="17.6783472">
        <ele>25.1317</ele>
        <time>2014-05-16T18:08:08Z</time>
      </trkpt>
      <trkpt lat="59.8781619" lon="17.67824">
        <ele>24.651</ele>
        <time>2014-05-16T18:08:09Z</time>
      </trkpt>
      <trkpt lat="59.8782093" lon="17.6781307">
        <ele>24.651</ele>
        <time>2014-05-16T18:08:10Z</time>
      </trkpt>
      <trkpt lat="59.878256" lon="17.6780193">
        <ele>24.651</ele>
        <time>2014-05-16T18:08:11Z</time>
      </trkpt>
      <trkpt lat="59.8783016" lon="17.6779104">
        <ele>24.651</ele>
        <time>2014-05-16T18:08:12Z</time>
      </trkpt>
      <trkpt lat="59.8783457" lon="17.677809">
        <ele>25.1317</ele>
        <time>2014-05-16T18:08:13Z</time>
      </trkpt>
      <trkpt lat="59.8783876" lon="17.677713">
        <ele>25.1317</ele>
        <time>2014-05-16T18:08:14Z</time>
      </trkpt>
      <trkpt lat="59.8784281" lon="17.677619">
        <ele>25.1317</ele>
        <time>2014-05-16T18:08:15Z</time>
      </trkpt>
      <trkpt lat="59.8784694" lon="17.6775267">
        <ele>25.1317</ele>
        <time>2014-05-16T18:08:16Z</time>
      </trkpt>
      <trkpt lat="59.8785111" lon="17.6774341">
        <ele>25.1317</ele>
        <time>2014-05-16T18:08:17Z</time>
      </trkpt>
      <trkpt lat="59.8785533" lon="17.6773385">
        <ele>25.1317</ele>
        <time>2014-05-16T18:08:18Z</time>
      </trkpt>
      <trkpt lat="59.8785961" lon="17.6772408">
        <ele>25.1317</ele>
        <time>2014-05-16T18:08:19Z</time>
      </trkpt>
      <trkpt lat="59.8786409" lon="17.6771434">
        <ele>25.1317</ele>
        <time>2014-05-16T18:08:20Z</time>
      </trkpt>
      <trkpt lat="59.8786864" lon="17.677045">
        <ele>25.6123</ele>
        <time>2014-05-16T18:08:21Z</time>
      </trkpt>
      <trkpt lat="59.8787321" lon="17.6769449">
        <ele>25.6123</ele>
        <time>2014-05-16T18:08:22Z</time>
      </trkpt>
      <trkpt lat="59.8787783" lon="17.6768438">
        <ele>25.6123</ele>
        <time>2014-05-16T18:08:23Z</time>
      </trkpt>
      <trkpt lat="59.8788258" lon="17.676743">
        <ele>25.6123</ele>
        <time>2014-05-16T18:08:24Z</time>
      </trkpt>
      <trkpt lat="59.8788747" lon="17.6766439">
        <ele>25.6123</ele>
        <time>2014-05-16T18:08:25Z</time>
      </trkpt>
      <trkpt lat="59.8789252" lon="17.6765452">
        <ele>25.6123</ele>
        <time>2014-05-16T18:08:26Z</time>
      </trkpt>
      <trkpt lat="59.8789777" lon="17.6764483">
        <ele>26.0929</ele>
        <time>2014-05-16T18:08:27Z</time>
      </trkpt>
      <trkpt lat="59.879032" lon="17.6763539">
        <ele>26.0929</ele>
        <time>2014-05-16T18:08:28Z</time>
      </trkpt>
      <trkpt lat="59.879088" lon="17.676262">
        <ele>26.0929</ele>
        <time>2014-05-16T18:08:29Z</time>
      </trkpt>
      <trkpt lat="59.8791455" lon="17.6761707">
        <ele>26.0929</ele>
        <time>2014-05-16T18:08:30Z</time>
      </trkpt>
      <trkpt lat="59.879203" lon="17.6760762">
        <ele>26.0929</ele>
        <time>2014-05-16T18:08:31Z</time>
      </trkpt>
      <trkpt lat="59.8792575" lon="17.6759882">
        <ele>26.0929</ele>
        <time>2014-05-16T18:08:32Z</time>
      </trkpt>
      <trkpt lat="59.8793081" lon="17.6759099">
        <ele>26.0929</ele>
        <time>2014-05-16T18:08:33Z</time>
      </trkpt>
      <trkpt lat="59.8793629" lon="17.6758275">
        <ele>26.5736</ele>
        <time>2014-05-16T18:08:34Z</time>
      </trkpt>
      <trkpt lat="59.8794225" lon="17.6757385">
        <ele>26.5736</ele>
        <time>2014-05-16T18:08:35Z</time>
      </trkpt>
      <trkpt lat="59.8794834" lon="17.6756484">
        <ele>26.0929</ele>
        <time>2014-05-16T18:08:36Z</time>
      </trkpt>
      <trkpt lat="59.879545" lon="17.6755562">
        <ele>26.0929</ele>
        <time>2014-05-16T18:08:37Z</time>
      </trkpt>
      <trkpt lat="59.8796078" lon="17.6754622">
        <ele>26.0929</ele>
        <time>2014-05-16T18:08:38Z</time>
      </trkpt>
      <trkpt lat="59.8796738" lon="17.6753662">
        <ele>25.6123</ele>
        <time>2014-05-16T18:08:39Z</time>
      </trkpt>
      <trkpt lat="59.8797424" lon="17.6752687">
        <ele>25.6123</ele>
        <time>2014-05-16T18:08:40Z</time>
      </trkpt>
      <trkpt lat="59.8798127" lon="17.6751697">
        <ele>25.6123</ele>
        <time>2014-05-16T18:08:41Z</time>
      </trkpt>
      <trkpt lat="59.8798842" lon="17.6750713">
        <ele>25.6123</ele>
        <time>2014-05-16T18:08:42Z</time>
      </trkpt>
      <trkpt lat="59.8799561" lon="17.6749727">
        <ele>25.1317</ele>
        <time>2014-05-16T18:08:43Z</time>
      </trkpt>
      <trkpt lat="59.8800294" lon="17.6748745">
        <ele>25.1317</ele>
        <time>2014-05-16T18:08:44Z</time>
      </trkpt>
      <trkpt lat="59.8801053" lon="17.6747802">
        <ele>25.1317</ele>
        <time>2014-05-16T18:08:45Z</time>
      </trkpt>
      <trkpt lat="59.8801841" lon="17.6746918">
        <ele>24.651</ele>
        <time>2014-05-16T18:08:46Z</time>
      </trkpt>
      <trkpt lat="59.8802651" lon="17.6746088">
        <ele>24.651</ele>
        <time>2014-05-16T18:08:47Z</time>
      </trkpt>
      <trkpt lat="59.8803474" lon="17.6745281">
        <ele>24.651</ele>
        <time>2014-05-16T18:08:48Z</time>
      </trkpt>
      <trkpt lat="59.8804307" lon="17.6744477">
        <ele>24.651</ele>
        <time>2014-05-16T18:08:49Z</time>
      </trkpt>
      <trkpt lat="59.880515" lon="17.6743674">
        <ele>24.651</ele>
        <time>2014-05-16T18:08:50Z</time>
      </trkpt>
      <trkpt lat="59.8806002" lon="17.6742881">
        <ele>24.1703</ele>
        <time>2014-05-16T18:08:51Z</time>
      </trkpt>
      <trkpt lat="59.8806851" lon="17.6742099">
        <ele>24.1703</ele>
        <time>2014-05-16T18:08:52Z</time>
      </trkpt>
      <trkpt lat="59.8807693" lon="17.6741336">
        <ele>24.1703</ele>
        <time>2014-05-16T18:08:53Z</time>
      </trkpt>
      <trkpt lat="59.8808523" lon="17.6740559">
        <ele>24.1703</ele>
        <time>2014-05-16T18:08:54Z</time>
      </trkpt>
      <trkpt lat="59.8809354" lon="17.6739756">
        <ele>24.1703</ele>
        <time>2014-05-16T18:08:55Z</time>
      </trkpt>
      <trkpt lat="59.8810186" lon="17.6738929">
        <ele>24.1703</ele>
        <time>2014-05-16T18:08:56Z</time>
      </trkpt>
      <trkpt lat="59.8811011" lon="17.6738094">
        <ele>24.1703</ele>
        <time>2014-05-16T18:08:57Z</time>
      </trkpt>
      <trkpt lat="59.881184" lon="17.6737266">
        <ele>24.1703</ele>
        <time>2014-05-16T18:08:58Z</time>
      </trkpt>
      <trkpt lat="59.8812659" lon="17.6736428">
        <ele>24.1703</ele>
        <time>2014-05-16T18:08:59Z</time>
      </trkpt>
      <trkpt lat="59.8813439" lon="17.6735463">
        <ele>24.1703</ele>
        <time>2014-05-16T18:09:00Z</time>
      </trkpt>
      <trkpt lat="59.8814212" lon="17.6734447">
        <ele>24.1703</ele>
        <time>2014-05-16T18:09:01Z</time>
      </trkpt>
      <trkpt lat="59.8815054" lon="17.6733697">
        <ele>24.1703</ele>
        <time>2014-05-16T18:09:02Z</time>
      </trkpt>
      <trkpt lat="59.8815949" lon="17.6733282">
        <ele>24.1703</ele>
        <time>2014-05-16T18:09:03Z</time>
      </trkpt>
      <trkpt lat="59.8816854" lon="17.6732892">
        <ele>24.1703</ele>
        <time>2014-05-16T18:09:04Z</time>
      </trkpt>
      <trkpt lat="59.8817738" lon="17.6732309">
        <ele>23.6896</ele>
        <time>2014-05-16T18:09:05Z</time>
      </trkpt>
      <trkpt lat="59.8818596" lon="17.6731578">
        <ele>23.6896</ele>
        <time>2014-05-16T18:09:06Z</time>
      </trkpt>
      <trkpt lat="59.8819439" lon="17.6730823">
        <ele>23.6896</ele>
        <time>2014-05-16T18:09:07Z</time>
      </trkpt>
      <trkpt lat="59.882025" lon="17.6730008">
        <ele>23.6896</ele>
        <time>2014-05-16T18:09:08Z</time>
      </trkpt>
      <trkpt lat="59.8820967" lon="17.6728974">
        <ele>23.6896</ele>
        <time>2014-05-16T18:09:09Z</time>
      </trkpt>
      <trkpt lat="59.8821584" lon="17.6727741">
        <ele>23.6896</ele>
        <time>2014-05-16T18:09:10Z</time>
      </trkpt>
      <trkpt lat="59.8822174" lon="17.6726507">
        <ele>23.6896</ele>
        <time>2014-05-16T18:09:11Z</time>
      </trkpt>
      <trkpt lat="59.8822827" lon="17.6725481">
        <ele>23.6896</ele>
        <time>2014-05-16T18:09:12Z</time>
      </trkpt>
      <trkpt lat="59.882355" lon="17.6724721">
        <ele>23.6896</ele>
        <time>2014-05-16T18:09:13Z</time>
      </trkpt>
      <trkpt lat="59.8824287" lon="17.6724098">
        <ele>23.6896</ele>
        <time>2014-05-16T18:09:14Z</time>
      </trkpt>
      <trkpt lat="59.8825039" lon="17.6723545">
        <ele>23.6896</ele>
        <time>2014-05-16T18:09:15Z</time>
      </trkpt>
      <trkpt lat="59.882584" lon="17.6723226">
        <ele>23.6896</ele>
        <time>2014-05-16T18:09:16Z</time>
      </trkpt>
      <trkpt lat="59.8826686" lon="17.6723195">
        <ele>23.6896</ele>
        <time>2014-05-16T18:09:17Z</time>
      </trkpt>
      <trkpt lat="59.8827556" lon="17.6723181">
        <ele>23.209</ele>
        <time>2014-05-16T18:09:18Z</time>
      </trkpt>
      <trkpt lat="59.8828437" lon="17.6722895">
        <ele>23.209</ele>
        <time>2014-05-16T18:09:19Z</time>
      </trkpt>
      <trkpt lat="59.8829291" lon="17.6722301">
        <ele>23.209</ele>
        <time>2014-05-16T18:09:20Z</time>
      </trkpt>
      <trkpt lat="59.8830124" lon="17.6721544">
        <ele>23.209</ele>
        <time>2014-05-16T18:09:21Z</time>
      </trkpt>
      <trkpt lat="59.8830949" lon="17.6720736">
        <ele>23.209</ele>
        <time>2014-05-16T18:09:22Z</time>
      </trkpt>
      <trkpt lat="59.8831773" lon="17.6719902">
        <ele>23.209</ele>
        <time>2014-05-16T18:09:23Z</time>
      </trkpt>
      <trkpt lat="59.883259" lon="17.6719037">
        <ele>22.7283</ele>
        <time>2014-05-16T18:09:24Z</time>
      </trkpt>
      <trkpt lat="59.8833387" lon="17.6718145">
        <ele>22.7283</ele>
        <time>2014-05-16T18:09:25Z</time>
      </trkpt>
      <trkpt lat="59.8834159" lon="17.6717227">
        <ele>22.7283</ele>
        <time>2014-05-16T18:09:26Z</time>
      </trkpt>
      <trkpt lat="59.8834906" lon="17.6716281">
        <ele>22.7283</ele>
        <time>2014-05-16T18:09:27Z</time>
      </trkpt>
      <trkpt lat="59.8835637" lon="17.6715328">
        <ele>22.7283</ele>
        <time>2014-05-16T18:09:28Z</time>
      </trkpt>
      <trkpt lat="59.8836366" lon="17.6714412">
        <ele>22.2476</ele>
        <time>2014-05-16T18:09:29Z</time>
      </trkpt>
      <trkpt lat="59.8837119" lon="17.6713639">
        <ele>22.2476</ele>
        <time>2014-05-16T18:09:30Z</time>
      </trkpt>
      <trkpt lat="59.88379" lon="17.6713152">
        <ele>22.2476</ele>
        <time>2014-05-16T18:09:31Z</time>
      </trkpt>
      <trkpt lat="59.8838642" lon="17.6712997">
        <ele>22.2476</ele>
        <time>2014-05-16T18:09:32Z</time>
      </trkpt>
      <trkpt lat="59.883929" lon="17.6712878">
        <ele>22.2476</ele>
        <time>2014-05-16T18:09:33Z</time>
      </trkpt>
      <trkpt lat="59.8839808" lon="17.6712496">
        <ele>22.2476</ele>
        <time>2014-05-16T18:09:34Z</time>
      </trkpt>
      <trkpt lat="59.8840189" lon="17.6711955">
        <ele>22.7283</ele>
        <time>2014-05-16T18:09:35Z</time>
      </trkpt>
      <trkpt lat="59.8840481" lon="17.6711417">
        <ele>22.7283</ele>
        <time>2014-05-16T18:09:36Z</time>
      </trkpt>
      <trkpt lat="59.8840723" lon="17.6710931">
        <ele>22.7283</ele>
        <time>2014-05-16T18:09:37Z</time>
      </trkpt>
      <trkpt lat="59.8840868" lon="17.6710458">
        <ele>22.2476</ele>
        <time>2014-05-16T18:09:38Z</time>
      </trkpt>
      <trkpt lat="59.8840883" lon="17.6709929">
        <ele>22.2476</ele>
        <time>2014-05-16T18:09:39Z</time>
      </trkpt>
      <trkpt lat="59.884079" lon="17.6709304">
        <ele>22.2476</ele>
        <time>2014-05-16T18:09:40Z</time>
      </trkpt>
      <trkpt lat="59.8840676" lon="17.6708558">
        <ele>22.2476</ele>
        <time>2014-05-16T18:09:41Z</time>
      </trkpt>
      <trkpt lat="59.8840651" lon="17.6707681">
        <ele>22.2476</ele>
        <time>2014-05-16T18:09:42Z</time>
      </trkpt>
      <trkpt lat="59.8840748" lon="17.6706697">
        <ele>22.2476</ele>
        <time>2014-05-16T18:09:43Z</time>
      </trkpt>
      <trkpt lat="59.8840926" lon="17.6705643">
        <ele>22.2476</ele>
        <time>2014-05-16T18:09:44Z</time>
      </trkpt>
      <trkpt lat="59.8841173" lon="17.6704557">
        <ele>22.2476</ele>
        <time>2014-05-16T18:09:45Z</time>
      </trkpt>
      <trkpt lat="59.8841505" lon="17.6703485">
        <ele>21.767</ele>
        <time>2014-05-16T18:09:46Z</time>
      </trkpt>
      <trkpt lat="59.8841929" lon="17.6702472">
        <ele>21.767</ele>
        <time>2014-05-16T18:09:47Z</time>
      </trkpt>
      <trkpt lat="59.8842416" lon="17.6701488">
        <ele>21.767</ele>
        <time>2014-05-16T18:09:48Z</time>
      </trkpt>
      <trkpt lat="59.8842934" lon="17.6700473">
        <ele>21.767</ele>
        <time>2014-05-16T18:09:49Z</time>
      </trkpt>
      <trkpt lat="59.8843449" lon="17.6699395">
        <ele>21.767</ele>
        <time>2014-05-16T18:09:50Z</time>
      </trkpt>
      <trkpt lat="59.8843957" lon="17.6698269">
        <ele>21.767</ele>
        <time>2014-05-16T18:09:51Z</time>
      </trkpt>
      <trkpt lat="59.8844474" lon="17.6697099">
        <ele>21.767</ele>
        <time>2014-05-16T18:09:52Z</time>
      </trkpt>
      <trkpt lat="59.8844992" lon="17.6695877">
        <ele>21.2864</ele>
        <time>2014-05-16T18:09:53Z</time>
      </trkpt>
      <trkpt lat="59.8845506" lon="17.6694598">
        <ele>21.2864</ele>
        <time>2014-05-16T18:09:54Z</time>
      </trkpt>
      <trkpt lat="59.8846013" lon="17.6693291">
        <ele>21.2864</ele>
        <time>2014-05-16T18:09:55Z</time>
      </trkpt>
      <trkpt lat="59.8846515" lon="17.6691939">
        <ele>21.2864</ele>
        <time>2014-05-16T18:09:56Z</time>
      </trkpt>
      <trkpt lat="59.8847008" lon="17.6690541">
        <ele>21.2864</ele>
        <time>2014-05-16T18:09:57Z</time>
      </trkpt>
      <trkpt lat="59.8847474" lon="17.668913">
        <ele>21.2864</ele>
        <time>2014-05-16T18:09:58Z</time>
      </trkpt>
      <trkpt lat="59.8847893" lon="17.6687729">
        <ele>21.2864</ele>
        <time>2014-05-16T18:09:59Z</time>
      </trkpt>
      <trkpt lat="59.8848256" lon="17.6686401">
        <ele>21.2864</ele>
        <time>2014-05-16T18:10:00Z</time>
      </trkpt>
      <trkpt lat="59.8848551" lon="17.6685193">
        <ele>21.2864</ele>
        <time>2014-05-16T18:10:01Z</time>
      </trkpt>
      <trkpt lat="59.8848814" lon="17.6684113">
        <ele>21.2864</ele>
        <time>2014-05-16T18:10:02Z</time>
      </trkpt>
      <trkpt lat="59.8849074" lon="17.6683108">
        <ele>21.2864</ele>
        <time>2014-05-16T18:10:03Z</time>
      </trkpt>
      <trkpt lat="59.8849344" lon="17.6682106">
        <ele>21.2864</ele>
        <time>2014-05-16T18:10:04Z</time>
      </trkpt>
      <trkpt lat="59.8849669" lon="17.6681115">
        <ele>21.2864</ele>
        <time>2014-05-16T18:10:05Z</time>
      </trkpt>
      <trkpt lat="59.8850088" lon="17.6680217">
        <ele>21.2864</ele>
        <time>2014-05-16T18:10:06Z</time>
      </trkpt>
      <trkpt lat="59.885058" lon="17.6679435">
        <ele>20.8057</ele>
        <time>2014-05-16T18:10:07Z</time>
      </trkpt>
      <trkpt lat="59.8851084" lon="17.6678643">
        <ele>20.8057</ele>
        <time>2014-05-16T18:10:08Z</time>
      </trkpt>
      <trkpt lat="59.8851528" lon="17.6677705">
        <ele>20.8057</ele>
        <time>2014-05-16T18:10:09Z</time>
      </trkpt>
      <trkpt lat="59.885184" lon="17.6676572">
        <ele>20.8057</ele>
        <time>2014-05-16T18:10:10Z</time>
      </trkpt>
      <trkpt lat="59.8851983" lon="17.6675292">
        <ele>20.8057</ele>
        <time>2014-05-16T18:10:11Z</time>
      </trkpt>
      <trkpt lat="59.8851964" lon="17.6673925">
        <ele>20.8057</ele>
        <time>2014-05-16T18:10:12Z</time>
      </trkpt>
      <trkpt lat="59.8851844" lon="17.667253">
        <ele>20.8057</ele>
        <time>2014-05-16T18:10:13Z</time>
      </trkpt>
      <trkpt lat="59.8851716" lon="17.6671095">
        <ele>20.325</ele>
        <time>2014-05-16T18:10:14Z</time>
      </trkpt>
      <trkpt lat="59.8851694" lon="17.6669604">
        <ele>20.325</ele>
        <time>2014-05-16T18:10:15Z</time>
      </trkpt>
      <trkpt lat="59.8851774" lon="17.6668086">
        <ele>20.325</ele>
        <time>2014-05-16T18:10:16Z</time>
      </trkpt>
      <trkpt lat="59.8851897" lon="17.6666567">
        <ele>20.325</ele>
        <time>2014-05-16T18:10:17Z</time>
      </trkpt>
      <trkpt lat="59.8852167" lon="17.666348">
        <ele>19.8444</ele>
        <time>2014-05-16T18:10:18Z</time>
      </trkpt>
      <trkpt lat="59.8852308" lon="17.6661911">
        <ele>19.8444</ele>
        <time>2014-05-16T18:10:19Z</time>
      </trkpt>
      <trkpt lat="59.8852462" lon="17.666035">
        <ele>19.8444</ele>
        <time>2014-05-16T18:10:20Z</time>
      </trkpt>
      <trkpt lat="59.8852636" lon="17.6658801">
        <ele>19.8444</ele>
        <time>2014-05-16T18:10:21Z</time>
      </trkpt>
      <trkpt lat="59.8852819" lon="17.6657238">
        <ele>19.8444</ele>
        <time>2014-05-16T18:10:22Z</time>
      </trkpt>
      <trkpt lat="59.8853042" lon="17.6655672">
        <ele>19.8444</ele>
        <time>2014-05-16T18:10:23Z</time>
      </trkpt>
      <trkpt lat="59.8853326" lon="17.6654146">
        <ele>19.3638</ele>
        <time>2014-05-16T18:10:24Z</time>
      </trkpt>
      <trkpt lat="59.8853675" lon="17.6652748">
        <ele>19.3638</ele>
        <time>2014-05-16T18:10:25Z</time>
      </trkpt>
      <trkpt lat="59.8854064" lon="17.6651578">
        <ele>19.3638</ele>
        <time>2014-05-16T18:10:26Z</time>
      </trkpt>
      <trkpt lat="59.8854444" lon="17.6650689">
        <ele>19.3638</ele>
        <time>2014-05-16T18:10:27Z</time>
      </trkpt>
      <trkpt lat="59.8854823" lon="17.6650003">
        <ele>19.3638</ele>
        <time>2014-05-16T18:10:28Z</time>
      </trkpt>
      <trkpt lat="59.8855259" lon="17.6649472">
        <ele>19.3638</ele>
        <time>2014-05-16T18:10:29Z</time>
      </trkpt>
      <trkpt lat="59.8855757" lon="17.6649091">
        <ele>19.3638</ele>
        <time>2014-05-16T18:10:30Z</time>
      </trkpt>
      <trkpt lat="59.8856315" lon="17.6648814">
        <ele>18.8831</ele>
        <time>2014-05-16T18:10:31Z</time>
      </trkpt>
      <trkpt lat="59.8856925" lon="17.6648646">
        <ele>18.8831</ele>
        <time>2014-05-16T18:10:32Z</time>
      </trkpt>
      <trkpt lat="59.8857568" lon="17.664864">
        <ele>18.8831</ele>
        <time>2014-05-16T18:10:33Z</time>
      </trkpt>
      <trkpt lat="59.8858238" lon="17.6648815">
        <ele>18.8831</ele>
        <time>2014-05-16T18:10:34Z</time>
      </trkpt>
      <trkpt lat="59.8858917" lon="17.664907">
        <ele>18.8831</ele>
        <time>2014-05-16T18:10:35Z</time>
      </trkpt>
      <trkpt lat="59.8859603" lon="17.6649204">
        <ele>18.8831</ele>
        <time>2014-05-16T18:10:36Z</time>
      </trkpt>
      <trkpt lat="59.8860289" lon="17.6649095">
        <ele>18.8831</ele>
        <time>2014-05-16T18:10:37Z</time>
      </trkpt>
      <trkpt lat="59.8860935" lon="17.66487">
        <ele>18.8831</ele>
        <time>2014-05-16T18:10:38Z</time>
      </trkpt>
      <trkpt lat="59.8861489" lon="17.6648014">
        <ele>18.8831</ele>
        <time>2014-05-16T18:10:39Z</time>
      </trkpt>
      <trkpt lat="59.8861936" lon="17.6647106">
        <ele>18.8831</ele>
        <time>2014-05-16T18:10:40Z</time>
      </trkpt>
      <trkpt lat="59.886229" lon="17.664609">
        <ele>18.8831</ele>
        <time>2014-05-16T18:10:41Z</time>
      </trkpt>
      <trkpt lat="59.8862599" lon="17.6645046">
        <ele>18.8831</ele>
        <time>2014-05-16T18:10:42Z</time>
      </trkpt>
      <trkpt lat="59.8862935" lon="17.6644058">
        <ele>18.8831</ele>
        <time>2014-05-16T18:10:43Z</time>
      </trkpt>
      <trkpt lat="59.8863287" lon="17.6643097">
        <ele>18.8831</ele>
        <time>2014-05-16T18:10:44Z</time>
      </trkpt>
      <trkpt lat="59.8863611" lon="17.6642079">
        <ele>18.8831</ele>
        <time>2014-05-16T18:10:45Z</time>
      </trkpt>
      <trkpt lat="59.886394" lon="17.6641014">
        <ele>19.3638</ele>
        <time>2014-05-16T18:10:46Z</time>
      </trkpt>
      <trkpt lat="59.8864289" lon="17.6639927">
        <ele>19.3638</ele>
        <time>2014-05-16T18:10:47Z</time>
      </trkpt>
      <trkpt lat="59.8864664" lon="17.6638813">
        <ele>19.3638</ele>
        <time>2014-05-16T18:10:48Z</time>
      </trkpt>
      <trkpt lat="59.886508" lon="17.6637685">
        <ele>19.3638</ele>
        <time>2014-05-16T18:10:49Z</time>
      </trkpt>
      <trkpt lat="59.886554" lon="17.6636564">
        <ele>19.3638</ele>
        <time>2014-05-16T18:10:50Z</time>
      </trkpt>
      <trkpt lat="59.8866034" lon="17.6635456">
        <ele>19.3638</ele>
        <time>2014-05-16T18:10:51Z</time>
      </trkpt>
      <trkpt lat="59.8866548" lon="17.6634373">
        <ele>19.3638</ele>
        <time>2014-05-16T18:10:52Z</time>
      </trkpt>
      <trkpt lat="59.8867084" lon="17.6633315">
        <ele>19.8444</ele>
        <time>2014-05-16T18:10:53Z</time>
      </trkpt>
      <trkpt lat="59.8867625" lon="17.6632249">
        <ele>19.8444</ele>
        <time>2014-05-16T18:10:54Z</time>
      </trkpt>
      <trkpt lat="59.8868167" lon="17.6631137">
        <ele>19.8444</ele>
        <time>2014-05-16T18:10:55Z</time>
      </trkpt>
      <trkpt lat="59.8868702" lon="17.6629949">
        <ele>19.8444</ele>
        <time>2014-05-16T18:10:56Z</time>
      </trkpt>
      <trkpt lat="59.8869215" lon="17.6628675">
        <ele>19.8444</ele>
        <time>2014-05-16T18:10:57Z</time>
      </trkpt>
      <trkpt lat="59.8869692" lon="17.6627318">
        <ele>19.8444</ele>
        <time>2014-05-16T18:10:58Z</time>
      </trkpt>
      <trkpt lat="59.8870114" lon="17.6625902">
        <ele>20.325</ele>
        <time>2014-05-16T18:10:59Z</time>
      </trkpt>
      <trkpt lat="59.8870473" lon="17.6624468">
        <ele>20.325</ele>
        <time>2014-05-16T18:11:00Z</time>
      </trkpt>
      <trkpt lat="59.8870772" lon="17.6623037">
        <ele>20.325</ele>
        <time>2014-05-16T18:11:01Z</time>
      </trkpt>
      <trkpt lat="59.8871023" lon="17.6621625">
        <ele>20.325</ele>
        <time>2014-05-16T18:11:02Z</time>
      </trkpt>
      <trkpt lat="59.8871229" lon="17.6620247">
        <ele>20.325</ele>
        <time>2014-05-16T18:11:03Z</time>
      </trkpt>
      <trkpt lat="59.887136" lon="17.6618896">
        <ele>20.325</ele>
        <time>2014-05-16T18:11:04Z</time>
      </trkpt>
      <trkpt lat="59.8871431" lon="17.6617565">
        <ele>20.325</ele>
        <time>2014-05-16T18:11:05Z</time>
      </trkpt>
      <trkpt lat="59.8871476" lon="17.6616309">
        <ele>20.325</ele>
        <time>2014-05-16T18:11:06Z</time>
      </trkpt>
      <trkpt lat="59.887157" lon="17.661513">
        <ele>20.325</ele>
        <time>2014-05-16T18:11:07Z</time>
      </trkpt>
      <trkpt lat="59.8871788" lon="17.661401">
        <ele>20.325</ele>
        <time>2014-05-16T18:11:08Z</time>
      </trkpt>
      <trkpt lat="59.8872126" lon="17.6612981">
        <ele>20.325</ele>
        <time>2014-05-16T18:11:09Z</time>
      </trkpt>
      <trkpt lat="59.8872562" lon="17.6612057">
        <ele>20.325</ele>
        <time>2014-05-16T18:11:10Z</time>
      </trkpt>
      <trkpt lat="59.8873084" lon="17.6611233">
        <ele>20.325</ele>
        <time>2014-05-16T18:11:11Z</time>
      </trkpt>
      <trkpt lat="59.8873674" lon="17.6610476">
        <ele>19.8444</ele>
        <time>2014-05-16T18:11:12Z</time>
      </trkpt>
      <trkpt lat="59.887432" lon="17.6609779">
        <ele>19.8444</ele>
        <time>2014-05-16T18:11:13Z</time>
      </trkpt>
      <trkpt lat="59.8875009" lon="17.6609136">
        <ele>19.8444</ele>
        <time>2014-05-16T18:11:14Z</time>
      </trkpt>
      <trkpt lat="59.8875725" lon="17.6608492">
        <ele>19.8444</ele>
        <time>2014-05-16T18:11:15Z</time>
      </trkpt>
      <trkpt lat="59.8876436" lon="17.6607738">
        <ele>19.3638</ele>
        <time>2014-05-16T18:11:16Z</time>
      </trkpt>
      <trkpt lat="59.8877113" lon="17.6606782">
        <ele>19.3638</ele>
        <time>2014-05-16T18:11:17Z</time>
      </trkpt>
      <trkpt lat="59.8877703" lon="17.6605578">
        <ele>19.3638</ele>
        <time>2014-05-16T18:11:18Z</time>
      </trkpt>
      <trkpt lat="59.8878189" lon="17.6604162">
        <ele>19.3638</ele>
        <time>2014-05-16T18:11:19Z</time>
      </trkpt>
      <trkpt lat="59.8878611" lon="17.6602635">
        <ele>19.3638</ele>
        <time>2014-05-16T18:11:20Z</time>
      </trkpt>
      <trkpt lat="59.887902" lon="17.6601081">
        <ele>19.3638</ele>
        <time>2014-05-16T18:11:21Z</time>
      </trkpt>
      <trkpt lat="59.8879451" lon="17.6599558">
        <ele>19.3638</ele>
        <time>2014-05-16T18:11:22Z</time>
      </trkpt>
      <trkpt lat="59.8879916" lon="17.6598097">
        <ele>19.8444</ele>
        <time>2014-05-16T18:11:23Z</time>
      </trkpt>
      <trkpt lat="59.8880404" lon="17.6596699">
        <ele>19.8444</ele>
        <time>2014-05-16T18:11:24Z</time>
      </trkpt>
      <trkpt lat="59.8880915" lon="17.6595336">
        <ele>19.8444</ele>
        <time>2014-05-16T18:11:25Z</time>
      </trkpt>
      <trkpt lat="59.8881429" lon="17.6593982">
        <ele>19.8444</ele>
        <time>2014-05-16T18:11:26Z</time>
      </trkpt>
      <trkpt lat="59.8881942" lon="17.6592622">
        <ele>19.8444</ele>
        <time>2014-05-16T18:11:27Z</time>
      </trkpt>
      <trkpt lat="59.888246" lon="17.659126">
        <ele>20.325</ele>
        <time>2014-05-16T18:11:28Z</time>
      </trkpt>
      <trkpt lat="59.8882973" lon="17.6589897">
        <ele>20.325</ele>
        <time>2014-05-16T18:11:29Z</time>
      </trkpt>
      <trkpt lat="59.8883474" lon="17.6588525">
        <ele>20.325</ele>
        <time>2014-05-16T18:11:30Z</time>
      </trkpt>
      <trkpt lat="59.8883965" lon="17.6587143">
        <ele>20.325</ele>
        <time>2014-05-16T18:11:31Z</time>
      </trkpt>
      <trkpt lat="59.8884453" lon="17.6585748">
        <ele>20.8057</ele>
        <time>2014-05-16T18:11:32Z</time>
      </trkpt>
      <trkpt lat="59.8884945" lon="17.6584359">
        <ele>20.8057</ele>
        <time>2014-05-16T18:11:33Z</time>
      </trkpt>
      <trkpt lat="59.8885449" lon="17.6582987">
        <ele>20.8057</ele>
        <time>2014-05-16T18:11:34Z</time>
      </trkpt>
      <trkpt lat="59.8885958" lon="17.6581617">
        <ele>20.8057</ele>
        <time>2014-05-16T18:11:35Z</time>
      </trkpt>
      <trkpt lat="59.8886469" lon="17.6580235">
        <ele>20.8057</ele>
        <time>2014-05-16T18:11:36Z</time>
      </trkpt>
      <trkpt lat="59.8886977" lon="17.6578852">
        <ele>20.8057</ele>
        <time>2014-05-16T18:11:37Z</time>
      </trkpt>
      <trkpt lat="59.8887485" lon="17.6577474">
        <ele>20.8057</ele>
        <time>2014-05-16T18:11:38Z</time>
      </trkpt>
      <trkpt lat="59.8887997" lon="17.6576101">
        <ele>20.8057</ele>
        <time>2014-05-16T18:11:39Z</time>
      </trkpt>
      <trkpt lat="59.8888517" lon="17.6574735">
        <ele>20.8057</ele>
        <time>2014-05-16T18:11:40Z</time>
      </trkpt>
      <trkpt lat="59.8889032" lon="17.6573366">
        <ele>20.8057</ele>
        <time>2014-05-16T18:11:41Z</time>
      </trkpt>
      <trkpt lat="59.888954" lon="17.6571979">
        <ele>20.8057</ele>
        <time>2014-05-16T18:11:42Z</time>
      </trkpt>
      <trkpt lat="59.8890038" lon="17.6570596">
        <ele>21.2864</ele>
        <time>2014-05-16T18:11:43Z</time>
      </trkpt>
      <trkpt lat="59.8890525" lon="17.6569255">
        <ele>21.2864</ele>
        <time>2014-05-16T18:11:44Z</time>
      </trkpt>
      <trkpt lat="59.8891008" lon="17.6567944">
        <ele>21.2864</ele>
        <time>2014-05-16T18:11:45Z</time>
      </trkpt>
      <trkpt lat="59.8891489" lon="17.6566648">
        <ele>21.2864</ele>
        <time>2014-05-16T18:11:46Z</time>
      </trkpt>
      <trkpt lat="59.8891969" lon="17.6565354">
        <ele>21.2864</ele>
        <time>2014-05-16T18:11:47Z</time>
      </trkpt>
      <trkpt lat="59.8892442" lon="17.6564068">
        <ele>21.767</ele>
        <time>2014-05-16T18:11:48Z</time>
      </trkpt>
      <trkpt lat="59.8892913" lon="17.6562783">
        <ele>21.767</ele>
        <time>2014-05-16T18:11:49Z</time>
      </trkpt>
      <trkpt lat="59.8893384" lon="17.656151">
        <ele>21.767</ele>
        <time>2014-05-16T18:11:50Z</time>
      </trkpt>
      <trkpt lat="59.8893864" lon="17.6560261">
        <ele>21.767</ele>
        <time>2014-05-16T18:11:51Z</time>
      </trkpt>
      <trkpt lat="59.8894334" lon="17.6559023">
        <ele>21.767</ele>
        <time>2014-05-16T18:11:52Z</time>
      </trkpt>
      <trkpt lat="59.8894788" lon="17.6557775">
        <ele>21.767</ele>
        <time>2014-05-16T18:11:53Z</time>
      </trkpt>
      <trkpt lat="59.8895239" lon="17.6556522">
        <ele>21.767</ele>
        <time>2014-05-16T18:11:54Z</time>
      </trkpt>
      <trkpt lat="59.8895698" lon="17.6555277">
        <ele>21.767</ele>
        <time>2014-05-16T18:11:55Z</time>
      </trkpt>
      <trkpt lat="59.8896164" lon="17.6554041">
        <ele>21.767</ele>
        <time>2014-05-16T18:11:56Z</time>
      </trkpt>
      <trkpt lat="59.8896637" lon="17.6552803">
        <ele>21.767</ele>
        <time>2014-05-16T18:11:57Z</time>
      </trkpt>
      <trkpt lat="59.889711" lon="17.655156">
        <ele>22.2476</ele>
        <time>2014-05-16T18:11:58Z</time>
      </trkpt>
      <trkpt lat="59.8897575" lon="17.6550293">
        <ele>22.2476</ele>
        <time>2014-05-16T18:11:59Z</time>
      </trkpt>
      <trkpt lat="59.8898005" lon="17.6548965">
        <ele>22.2476</ele>
        <time>2014-05-16T18:12:00Z</time>
      </trkpt>
      <trkpt lat="59.8898425" lon="17.654762">
        <ele>22.2476</ele>
        <time>2014-05-16T18:12:01Z</time>
      </trkpt>
      <trkpt lat="59.8898876" lon="17.6546358">
        <ele>22.2476</ele>
        <time>2014-05-16T18:12:02Z</time>
      </trkpt>
      <trkpt lat="59.8899364" lon="17.6545202">
        <ele>22.2476</ele>
        <time>2014-05-16T18:12:03Z</time>
      </trkpt>
      <trkpt lat="59.889985" lon="17.6544095">
        <ele>22.2476</ele>
        <time>2014-05-16T18:12:04Z</time>
      </trkpt>
      <trkpt lat="59.8900306" lon="17.654294">
        <ele>22.2476</ele>
        <time>2014-05-16T18:12:05Z</time>
      </trkpt>
      <trkpt lat="59.8900742" lon="17.6541736">
        <ele>22.2476</ele>
        <time>2014-05-16T18:12:06Z</time>
      </trkpt>
      <trkpt lat="59.8901168" lon="17.6540539">
        <ele>22.2476</ele>
        <time>2014-05-16T18:12:07Z</time>
      </trkpt>
      <trkpt lat="59.8901588" lon="17.6539348">
        <ele>22.7283</ele>
        <time>2014-05-16T18:12:08Z</time>
      </trkpt>
      <trkpt lat="59.8902014" lon="17.6538172">
        <ele>22.7283</ele>
        <time>2014-05-16T18:12:09Z</time>
      </trkpt>
      <trkpt lat="59.8902446" lon="17.6537006">
        <ele>22.7283</ele>
        <time>2014-05-16T18:12:10Z</time>
      </trkpt>
      <trkpt lat="59.8902881" lon="17.653583">
        <ele>22.7283</ele>
        <time>2014-05-16T18:12:11Z</time>
      </trkpt>
      <trkpt lat="59.8903315" lon="17.653465">
        <ele>22.7283</ele>
        <time>2014-05-16T18:12:12Z</time>
      </trkpt>
      <trkpt lat="59.8903745" lon="17.6533479">
        <ele>22.7283</ele>
        <time>2014-05-16T18:12:13Z</time>
      </trkpt>
      <trkpt lat="59.8904173" lon="17.6532314">
        <ele>22.7283</ele>
        <time>2014-05-16T18:12:14Z</time>
      </trkpt>
      <trkpt lat="59.8904599" lon="17.6531143">
        <ele>22.7283</ele>
        <time>2014-05-16T18:12:15Z</time>
      </trkpt>
      <trkpt lat="59.8905025" lon="17.652998">
        <ele>22.7283</ele>
        <time>2014-05-16T18:12:16Z</time>
      </trkpt>
      <trkpt lat="59.8905454" lon="17.6528824">
        <ele>22.7283</ele>
        <time>2014-05-16T18:12:17Z</time>
      </trkpt>
      <trkpt lat="59.8905878" lon="17.6527665">
        <ele>22.7283</ele>
        <time>2014-05-16T18:12:18Z</time>
      </trkpt>
      <trkpt lat="59.8906294" lon="17.6526498">
        <ele>23.209</ele>
        <time>2014-05-16T18:12:19Z</time>
      </trkpt>
      <trkpt lat="59.8906714" lon="17.6525341">
        <ele>23.209</ele>
        <time>2014-05-16T18:12:20Z</time>
      </trkpt>
      <trkpt lat="59.8907144" lon="17.6524194">
        <ele>23.209</ele>
        <time>2014-05-16T18:12:21Z</time>
      </trkpt>
      <trkpt lat="59.8907573" lon="17.6523049">
        <ele>23.209</ele>
        <time>2014-05-16T18:12:22Z</time>
      </trkpt>
      <trkpt lat="59.8908002" lon="17.6521902">
        <ele>23.209</ele>
        <time>2014-05-16T18:12:23Z</time>
      </trkpt>
      <trkpt lat="59.8908421" lon="17.6520743">
        <ele>23.209</ele>
        <time>2014-05-16T18:12:24Z</time>
      </trkpt>
      <trkpt lat="59.8908828" lon="17.6519568">
        <ele>23.209</ele>
        <time>2014-05-16T18:12:25Z</time>
      </trkpt>
      <trkpt lat="59.8909229" lon="17.651837">
        <ele>23.6896</ele>
        <time>2014-05-16T18:12:26Z</time>
      </trkpt>
      <trkpt lat="59.8909607" lon="17.6517139">
        <ele>23.6896</ele>
        <time>2014-05-16T18:12:27Z</time>
      </trkpt>
      <trkpt lat="59.8909982" lon="17.6515955">
        <ele>23.6896</ele>
        <time>2014-05-16T18:12:28Z</time>
      </trkpt>
      <trkpt lat="59.8910371" lon="17.6514838">
        <ele>23.6896</ele>
        <time>2014-05-16T18:12:29Z</time>
      </trkpt>
      <trkpt lat="59.8910728" lon="17.6513728">
        <ele>23.6896</ele>
        <time>2014-05-16T18:12:30Z</time>
      </trkpt>
      <trkpt lat="59.891104" lon="17.6512569">
        <ele>23.6896</ele>
        <time>2014-05-16T18:12:31Z</time>
      </trkpt>
      <trkpt lat="59.8911319" lon="17.6511362">
        <ele>23.6896</ele>
        <time>2014-05-16T18:12:32Z</time>
      </trkpt>
      <trkpt lat="59.8911628" lon="17.6510174">
        <ele>23.6896</ele>
        <time>2014-05-16T18:12:33Z</time>
      </trkpt>
      <trkpt lat="59.8911995" lon="17.6509023">
        <ele>23.6896</ele>
        <time>2014-05-16T18:12:34Z</time>
      </trkpt>
      <trkpt lat="59.8912373" lon="17.6507868">
        <ele>23.6896</ele>
        <time>2014-05-16T18:12:35Z</time>
      </trkpt>
      <trkpt lat="59.8912744" lon="17.6506704">
        <ele>23.6896</ele>
        <time>2014-05-16T18:12:36Z</time>
      </trkpt>
      <trkpt lat="59.8913109" lon="17.6505539">
        <ele>24.1703</ele>
        <time>2014-05-16T18:12:37Z</time>
      </trkpt>
      <trkpt lat="59.8913473" lon="17.6504395">
        <ele>24.1703</ele>
        <time>2014-05-16T18:12:38Z</time>
      </trkpt>
      <trkpt lat="59.8913836" lon="17.6503263">
        <ele>24.1703</ele>
        <time>2014-05-16T18:12:39Z</time>
      </trkpt>
      <trkpt lat="59.8914182" lon="17.6502124">
        <ele>24.1703</ele>
        <time>2014-05-16T18:12:40Z</time>
      </trkpt>
      <trkpt lat="59.8914509" lon="17.6500974">
        <ele>24.651</ele>
        <time>2014-05-16T18:12:41Z</time>
      </trkpt>
      <trkpt lat="59.8914829" lon="17.6499826">
        <ele>24.651</ele>
        <time>2014-05-16T18:12:42Z</time>
      </trkpt>
      <trkpt lat="59.8915124" lon="17.6498666">
        <ele>24.651</ele>
        <time>2014-05-16T18:12:43Z</time>
      </trkpt>
      <trkpt lat="59.8915364" lon="17.6497479">
        <ele>24.651</ele>
        <time>2014-05-16T18:12:44Z</time>
      </trkpt>
      <trkpt lat="59.8915517" lon="17.6496257">
        <ele>24.651</ele>
        <time>2014-05-16T18:12:45Z</time>
      </trkpt>
      <trkpt lat="59.8915549" lon="17.6495003">
        <ele>24.651</ele>
        <time>2014-05-16T18:12:46Z</time>
      </trkpt>
      <trkpt lat="59.8915543" lon="17.6493725">
        <ele>24.651</ele>
        <time>2014-05-16T18:12:47Z</time>
      </trkpt>
      <trkpt lat="59.8915653" lon="17.6492475">
        <ele>24.651</ele>
        <time>2014-05-16T18:12:48Z</time>
      </trkpt>
      <trkpt lat="59.8915897" lon="17.6491328">
        <ele>24.651</ele>
        <time>2014-05-16T18:12:49Z</time>
      </trkpt>
      <trkpt lat="59.8916203" lon="17.64903">
        <ele>24.651</ele>
        <time>2014-05-16T18:12:50Z</time>
      </trkpt>
      <trkpt lat="59.8916551" lon="17.6489372">
        <ele>25.1317</ele>
        <time>2014-05-16T18:12:51Z</time>
      </trkpt>
      <trkpt lat="59.8916949" lon="17.6488596">
        <ele>25.1317</ele>
        <time>2014-05-16T18:12:52Z</time>
      </trkpt>
      <trkpt lat="59.8917358" lon="17.6487886">
        <ele>25.6123</ele>
        <time>2014-05-16T18:12:53Z</time>
      </trkpt>
      <trkpt lat="59.891769" lon="17.6487037">
        <ele>25.6123</ele>
        <time>2014-05-16T18:12:54Z</time>
      </trkpt>
      <trkpt lat="59.8917927" lon="17.6486055">
        <ele>25.6123</ele>
        <time>2014-05-16T18:12:55Z</time>
      </trkpt>
      <trkpt lat="59.8918135" lon="17.6485027">
        <ele>26.0929</ele>
        <time>2014-05-16T18:12:56Z</time>
      </trkpt>
      <trkpt lat="59.891838" lon="17.6484011">
        <ele>26.0929</ele>
        <time>2014-05-16T18:12:57Z</time>
      </trkpt>
      <trkpt lat="59.8918667" lon="17.6482983">
        <ele>26.0929</ele>
        <time>2014-05-16T18:12:58Z</time>
      </trkpt>
      <trkpt lat="59.8918928" lon="17.6481891">
        <ele>26.0929</ele>
        <time>2014-05-16T18:12:59Z</time>
      </trkpt>
      <trkpt lat="59.8919149" lon="17.6480727">
        <ele>26.5736</ele>
        <time>2014-05-16T18:13:00Z</time>
      </trkpt>
      <trkpt lat="59.8919356" lon="17.647952">
        <ele>26.5736</ele>
        <time>2014-05-16T18:13:01Z</time>
      </trkpt>
      <trkpt lat="59.891956" lon="17.6478285">
        <ele>26.5736</ele>
        <time>2014-05-16T18:13:02Z</time>
      </trkpt>
      <trkpt lat="59.8919749" lon="17.6477028">
        <ele>26.5736</ele>
        <time>2014-05-16T18:13:03Z</time>
      </trkpt>
      <trkpt lat="59.8919913" lon="17.6475746">
        <ele>26.5736</ele>
        <time>2014-05-16T18:13:04Z</time>
      </trkpt>
      <trkpt lat="59.8920078" lon="17.6474448">
        <ele>26.5736</ele>
        <time>2014-05-16T18:13:05Z</time>
      </trkpt>
      <trkpt lat="59.8920274" lon="17.6473157">
        <ele>26.5736</ele>
        <time>2014-05-16T18:13:06Z</time>
      </trkpt>
      <trkpt lat="59.8920485" lon="17.6471867">
        <ele>26.5736</ele>
        <time>2014-05-16T18:13:07Z</time>
      </trkpt>
      <trkpt lat="59.8920699" lon="17.6470566">
        <ele>26.5736</ele>
        <time>2014-05-16T18:13:08Z</time>
      </trkpt>
      <trkpt lat="59.8920906" lon="17.6469233">
        <ele>26.5736</ele>
        <time>2014-05-16T18:13:09Z</time>
      </trkpt>
      <trkpt lat="59.8921098" lon="17.6467879">
        <ele>26.5736</ele>
        <time>2014-05-16T18:13:10Z</time>
      </trkpt>
      <trkpt lat="59.8921278" lon="17.6466498">
        <ele>26.5736</ele>
        <time>2014-05-16T18:13:11Z</time>
      </trkpt>
      <trkpt lat="59.8921444" lon="17.6464991">
        <ele>27.0543</ele>
        <time>2014-05-16T18:13:12Z</time>
      </trkpt>
      <trkpt lat="59.8921601" lon="17.6463518">
        <ele>27.0543</ele>
        <time>2014-05-16T18:13:13Z</time>
      </trkpt>
      <trkpt lat="59.892175" lon="17.6462066">
        <ele>27.0543</ele>
        <time>2014-05-16T18:13:14Z</time>
      </trkpt>
      <trkpt lat="59.8921878" lon="17.6460588">
        <ele>27.5349</ele>
        <time>2014-05-16T18:13:15Z</time>
      </trkpt>
      <trkpt lat="59.8922026" lon="17.6459151">
        <ele>27.5349</ele>
        <time>2014-05-16T18:13:16Z</time>
      </trkpt>
      <trkpt lat="59.8922186" lon="17.645773">
        <ele>27.5349</ele>
        <time>2014-05-16T18:13:17Z</time>
      </trkpt>
      <trkpt lat="59.8922352" lon="17.6456313">
        <ele>27.5349</ele>
        <time>2014-05-16T18:13:18Z</time>
      </trkpt>
      <trkpt lat="59.8922505" lon="17.6454894">
        <ele>28.0155</ele>
        <time>2014-05-16T18:13:19Z</time>
      </trkpt>
      <trkpt lat="59.892261" lon="17.6453516">
        <ele>28.0155</ele>
        <time>2014-05-16T18:13:20Z</time>
      </trkpt>
      <trkpt lat="59.8922694" lon="17.645208">
        <ele>28.4962</ele>
        <time>2014-05-16T18:13:21Z</time>
      </trkpt>
      <trkpt lat="59.8922788" lon="17.645073">
        <ele>28.4962</ele>
        <time>2014-05-16T18:13:22Z</time>
      </trkpt>
      <trkpt lat="59.8922922" lon="17.6449418">
        <ele>28.4962</ele>
        <time>2014-05-16T18:13:23Z</time>
      </trkpt>
      <trkpt lat="59.8923051" lon="17.6448154">
        <ele>28.4962</ele>
        <time>2014-05-16T18:13:24Z</time>
      </trkpt>
      <trkpt lat="59.8923174" lon="17.6446928">
        <ele>28.4962</ele>
        <time>2014-05-16T18:13:25Z</time>
      </trkpt>
      <trkpt lat="59.8923295" lon="17.6445725">
        <ele>28.4962</ele>
        <time>2014-05-16T18:13:26Z</time>
      </trkpt>
      <trkpt lat="59.8923422" lon="17.6444523">
        <ele>28.0155</ele>
        <time>2014-05-16T18:13:27Z</time>
      </trkpt>
      <trkpt lat="59.892359" lon="17.6443324">
        <ele>28.0155</ele>
        <time>2014-05-16T18:13:28Z</time>
      </trkpt>
      <trkpt lat="59.8923847" lon="17.6442187">
        <ele>28.0155</ele>
        <time>2014-05-16T18:13:29Z</time>
      </trkpt>
      <trkpt lat="59.8924148" lon="17.6441104">
        <ele>28.0155</ele>
        <time>2014-05-16T18:13:30Z</time>
      </trkpt>
      <trkpt lat="59.8924429" lon="17.6439966">
        <ele>27.5349</ele>
        <time>2014-05-16T18:13:31Z</time>
      </trkpt>
      <trkpt lat="59.8924655" lon="17.6438752">
        <ele>27.5349</ele>
        <time>2014-05-16T18:13:32Z</time>
      </trkpt>
      <trkpt lat="59.8924839" lon="17.6437457">
        <ele>27.5349</ele>
        <time>2014-05-16T18:13:33Z</time>
      </trkpt>
      <trkpt lat="59.8925025" lon="17.6436117">
        <ele>27.0543</ele>
        <time>2014-05-16T18:13:34Z</time>
      </trkpt>
      <trkpt lat="59.8925207" lon="17.6434744">
        <ele>27.0543</ele>
        <time>2014-05-16T18:13:35Z</time>
      </trkpt>
      <trkpt lat="59.8925382" lon="17.6433339">
        <ele>27.0543</ele>
        <time>2014-05-16T18:13:36Z</time>
      </trkpt>
      <trkpt lat="59.892557" lon="17.6431936">
        <ele>26.5736</ele>
        <time>2014-05-16T18:13:37Z</time>
      </trkpt>
      <trkpt lat="59.892578" lon="17.643053">
        <ele>26.5736</ele>
        <time>2014-05-16T18:13:38Z</time>
      </trkpt>
      <trkpt lat="59.8925976" lon="17.6429102">
        <ele>26.5736</ele>
        <time>2014-05-16T18:13:39Z</time>
      </trkpt>
      <trkpt lat="59.8926123" lon="17.6427647">
        <ele>26.0929</ele>
        <time>2014-05-16T18:13:40Z</time>
      </trkpt>
      <trkpt lat="59.892622" lon="17.6426152">
        <ele>25.6123</ele>
        <time>2014-05-16T18:13:41Z</time>
      </trkpt>
      <trkpt lat="59.8926295" lon="17.6424605">
        <ele>25.6123</ele>
        <time>2014-05-16T18:13:42Z</time>
      </trkpt>
      <trkpt lat="59.892639" lon="17.6423046">
        <ele>25.1317</ele>
        <time>2014-05-16T18:13:43Z</time>
      </trkpt>
      <trkpt lat="59.8926494" lon="17.642149">
        <ele>25.1317</ele>
        <time>2014-05-16T18:13:44Z</time>
      </trkpt>
      <trkpt lat="59.8926582" lon="17.6419911">
        <ele>24.651</ele>
        <time>2014-05-16T18:13:45Z</time>
      </trkpt>
      <trkpt lat="59.8926658" lon="17.6418316">
        <ele>24.1703</ele>
        <time>2014-05-16T18:13:46Z</time>
      </trkpt>
      <trkpt lat="59.8926741" lon="17.64167">
        <ele>24.1703</ele>
        <time>2014-05-16T18:13:47Z</time>
      </trkpt>
      <trkpt lat="59.8926833" lon="17.6415075">
        <ele>24.1703</ele>
        <time>2014-05-16T18:13:48Z</time>
      </trkpt>
      <trkpt lat="59.8926921" lon="17.6413453">
        <ele>24.1703</ele>
        <time>2014-05-16T18:13:49Z</time>
      </trkpt>
      <trkpt lat="59.8926988" lon="17.6411774">
        <ele>24.1703</ele>
        <time>2014-05-16T18:13:50Z</time>
      </trkpt>
      <trkpt lat="59.8927059" lon="17.6410173">
        <ele>23.6896</ele>
        <time>2014-05-16T18:13:51Z</time>
      </trkpt>
      <trkpt lat="59.8927124" lon="17.6408599">
        <ele>23.6896</ele>
        <time>2014-05-16T18:13:52Z</time>
      </trkpt>
      <trkpt lat="59.8927191" lon="17.640705">
        <ele>23.6896</ele>
        <time>2014-05-16T18:13:53Z</time>
      </trkpt>
      <trkpt lat="59.8927268" lon="17.6405527">
        <ele>23.6896</ele>
        <time>2014-05-16T18:13:54Z</time>
      </trkpt>
      <trkpt lat="59.892734" lon="17.6404029">
        <ele>23.209</ele>
        <time>2014-05-16T18:13:55Z</time>
      </trkpt>
      <trkpt lat="59.8927383" lon="17.6402536">
        <ele>23.209</ele>
        <time>2014-05-16T18:13:56Z</time>
      </trkpt>
      <trkpt lat="59.8927408" lon="17.6401055">
        <ele>23.209</ele>
        <time>2014-05-16T18:13:57Z</time>
      </trkpt>
      <trkpt lat="59.8927422" lon="17.6399587">
        <ele>23.209</ele>
        <time>2014-05-16T18:13:58Z</time>
      </trkpt>
      <trkpt lat="59.8927442" lon="17.6398151">
        <ele>23.209</ele>
        <time>2014-05-16T18:13:59Z</time>
      </trkpt>
      <trkpt lat="59.8927449" lon="17.6396861">
        <ele>23.209</ele>
        <time>2014-05-16T18:14:00Z</time>
      </trkpt>
      <trkpt lat="59.8927459" lon="17.6395569">
        <ele>23.209</ele>
        <time>2014-05-16T18:14:01Z</time>
      </trkpt>
      <trkpt lat="59.8927483" lon="17.6394172">
        <ele>23.209</ele>
        <time>2014-05-16T18:14:02Z</time>
      </trkpt>
      <trkpt lat="59.8927447" lon="17.6392727">
        <ele>22.7283</ele>
        <time>2014-05-16T18:14:03Z</time>
      </trkpt>
      <trkpt lat="59.8927432" lon="17.639136">
        <ele>22.7283</ele>
        <time>2014-05-16T18:14:04Z</time>
      </trkpt>
      <trkpt lat="59.8927424" lon="17.6390033">
        <ele>22.7283</ele>
        <time>2014-05-16T18:14:05Z</time>
      </trkpt>
      <trkpt lat="59.8927417" lon="17.6388795">
        <ele>22.2476</ele>
        <time>2014-05-16T18:14:06Z</time>
      </trkpt>
      <trkpt lat="59.8927457" lon="17.6387644">
        <ele>22.2476</ele>
        <time>2014-05-16T18:14:07Z</time>
      </trkpt>
      <trkpt lat="59.892753" lon="17.6386573">
        <ele>21.767</ele>
        <time>2014-05-16T18:14:08Z</time>
      </trkpt>
      <trkpt lat="59.8927571" lon="17.6385516">
        <ele>21.767</ele>
        <time>2014-05-16T18:14:09Z</time>
      </trkpt>
      <trkpt lat="59.8927702" lon="17.6384543">
        <ele>21.767</ele>
        <time>2014-05-16T18:14:10Z</time>
      </trkpt>
      <trkpt lat="59.8928006" lon="17.6383765">
        <ele>21.767</ele>
        <time>2014-05-16T18:14:11Z</time>
      </trkpt>
      <trkpt lat="59.8928444" lon="17.6383256">
        <ele>22.2476</ele>
        <time>2014-05-16T18:14:12Z</time>
      </trkpt>
      <trkpt lat="59.8928957" lon="17.6382957">
        <ele>22.2476</ele>
        <time>2014-05-16T18:14:13Z</time>
      </trkpt>
      <trkpt lat="59.8929509" lon="17.6382682">
        <ele>22.7283</ele>
        <time>2014-05-16T18:14:14Z</time>
      </trkpt>
      <trkpt lat="59.8930086" lon="17.6382372">
        <ele>22.7283</ele>
        <time>2014-05-16T18:14:15Z</time>
      </trkpt>
      <trkpt lat="59.8930682" lon="17.6382015">
        <ele>22.7283</ele>
        <time>2014-05-16T18:14:16Z</time>
      </trkpt>
      <trkpt lat="59.8931298" lon="17.6381617">
        <ele>22.7283</ele>
        <time>2014-05-16T18:14:17Z</time>
      </trkpt>
      <trkpt lat="59.8931944" lon="17.6381247">
        <ele>23.209</ele>
        <time>2014-05-16T18:14:18Z</time>
      </trkpt>
      <trkpt lat="59.893258" lon="17.6380901">
        <ele>23.209</ele>
        <time>2014-05-16T18:14:19Z</time>
      </trkpt>
      <trkpt lat="59.8933203" lon="17.6380544">
        <ele>23.6896</ele>
        <time>2014-05-16T18:14:20Z</time>
      </trkpt>
      <trkpt lat="59.893383" lon="17.6380164">
        <ele>23.6896</ele>
        <time>2014-05-16T18:14:21Z</time>
      </trkpt>
      <trkpt lat="59.8934456" lon="17.6379787">
        <ele>23.6896</ele>
        <time>2014-05-16T18:14:22Z</time>
      </trkpt>
      <trkpt lat="59.8935084" lon="17.6379405">
        <ele>24.1703</ele>
        <time>2014-05-16T18:14:23Z</time>
      </trkpt>
      <trkpt lat="59.8935707" lon="17.6379005">
        <ele>24.1703</ele>
        <time>2014-05-16T18:14:24Z</time>
      </trkpt>
      <trkpt lat="59.8936323" lon="17.6378586">
        <ele>24.1703</ele>
        <time>2014-05-16T18:14:25Z</time>
      </trkpt>
      <trkpt lat="59.8936943" lon="17.6378164">
        <ele>24.651</ele>
        <time>2014-05-16T18:14:26Z</time>
      </trkpt>
      <trkpt lat="59.8937566" lon="17.6377725">
        <ele>24.651</ele>
        <time>2014-05-16T18:14:27Z</time>
      </trkpt>
      <trkpt lat="59.8938189" lon="17.6377269">
        <ele>24.651</ele>
        <time>2014-05-16T18:14:28Z</time>
      </trkpt>
      <trkpt lat="59.893882" lon="17.6376787">
        <ele>25.1317</ele>
        <time>2014-05-16T18:14:29Z</time>
      </trkpt>
      <trkpt lat="59.8939462" lon="17.6376317">
        <ele>25.1317</ele>
        <time>2014-05-16T18:14:30Z</time>
      </trkpt>
      <trkpt lat="59.8940114" lon="17.6375851">
        <ele>25.1317</ele>
        <time>2014-05-16T18:14:31Z</time>
      </trkpt>
      <trkpt lat="59.8940778" lon="17.6375379">
        <ele>25.1317</ele>
        <time>2014-05-16T18:14:32Z</time>
      </trkpt>
      <trkpt lat="59.8941454" lon="17.637489">
        <ele>25.1317</ele>
        <time>2014-05-16T18:14:33Z</time>
      </trkpt>
      <trkpt lat="59.8942135" lon="17.6374403">
        <ele>25.1317</ele>
        <time>2014-05-16T18:14:34Z</time>
      </trkpt>
      <trkpt lat="59.8942827" lon="17.6373944">
        <ele>25.1317</ele>
        <time>2014-05-16T18:14:35Z</time>
      </trkpt>
      <trkpt lat="59.8943526" lon="17.6373476">
        <ele>25.1317</ele>
        <time>2014-05-16T18:14:36Z</time>
      </trkpt>
      <trkpt lat="59.8944231" lon="17.6372995">
        <ele>24.651</ele>
        <time>2014-05-16T18:14:37Z</time>
      </trkpt>
      <trkpt lat="59.8944952" lon="17.6372556">
        <ele>24.651</ele>
        <time>2014-05-16T18:14:38Z</time>
      </trkpt>
      <trkpt lat="59.8945677" lon="17.6372114">
        <ele>24.651</ele>
        <time>2014-05-16T18:14:39Z</time>
      </trkpt>
      <trkpt lat="59.8946402" lon="17.6371654">
        <ele>24.651</ele>
        <time>2014-05-16T18:14:40Z</time>
      </trkpt>
      <trkpt lat="59.8947132" lon="17.6371169">
        <ele>24.651</ele>
        <time>2014-05-16T18:14:41Z</time>
      </trkpt>
      <trkpt lat="59.8947862" lon="17.6370675">
        <ele>24.1703</ele>
        <time>2014-05-16T18:14:42Z</time>
      </trkpt>
      <trkpt lat="59.8948587" lon="17.6370142">
        <ele>24.651</ele>
        <time>2014-05-16T18:14:43Z</time>
      </trkpt>
      <trkpt lat="59.8949312" lon="17.6369629">
        <ele>24.651</ele>
        <time>2014-05-16T18:14:44Z</time>
      </trkpt>
      <trkpt lat="59.8950046" lon="17.6369132">
        <ele>24.651</ele>
        <time>2014-05-16T18:14:45Z</time>
      </trkpt>
      <trkpt lat="59.8950784" lon="17.6368655">
        <ele>25.1317</ele>
        <time>2014-05-16T18:14:46Z</time>
      </trkpt>
      <trkpt lat="59.8951517" lon="17.6368182">
        <ele>25.1317</ele>
        <time>2014-05-16T18:14:47Z</time>
      </trkpt>
      <trkpt lat="59.8952252" lon="17.6367692">
        <ele>25.1317</ele>
        <time>2014-05-16T18:14:48Z</time>
      </trkpt>
      <trkpt lat="59.8952992" lon="17.6367185">
        <ele>25.1317</ele>
        <time>2014-05-16T18:14:49Z</time>
      </trkpt>
      <trkpt lat="59.8953737" lon="17.6366707">
        <ele>25.1317</ele>
        <time>2014-05-16T18:14:50Z</time>
      </trkpt>
      <trkpt lat="59.8954492" lon="17.6366244">
        <ele>25.1317</ele>
        <time>2014-05-16T18:14:51Z</time>
      </trkpt>
      <trkpt lat="59.8955254" lon="17.6365804">
        <ele>25.1317</ele>
        <time>2014-05-16T18:14:52Z</time>
      </trkpt>
      <trkpt lat="59.8956026" lon="17.636541">
        <ele>25.6123</ele>
        <time>2014-05-16T18:14:53Z</time>
      </trkpt>
      <trkpt lat="59.8956811" lon="17.6365095">
        <ele>25.6123</ele>
        <time>2014-05-16T18:14:54Z</time>
      </trkpt>
      <trkpt lat="59.8957609" lon="17.6364882">
        <ele>25.6123</ele>
        <time>2014-05-16T18:14:55Z</time>
      </trkpt>
      <trkpt lat="59.8958421" lon="17.6364743">
        <ele>25.6123</ele>
        <time>2014-05-16T18:14:56Z</time>
      </trkpt>
      <trkpt lat="59.8959243" lon="17.6364707">
        <ele>25.6123</ele>
        <time>2014-05-16T18:14:57Z</time>
      </trkpt>
      <trkpt lat="59.8960074" lon="17.6364792">
        <ele>25.6123</ele>
        <time>2014-05-16T18:14:58Z</time>
      </trkpt>
      <trkpt lat="59.8960907" lon="17.6364988">
        <ele>25.6123</ele>
        <time>2014-05-16T18:14:59Z</time>
      </trkpt>
      <trkpt lat="59.8961746" lon="17.6365266">
        <ele>26.0929</ele>
        <time>2014-05-16T18:15:00Z</time>
      </trkpt>
      <trkpt lat="59.8962616" lon="17.6365707">
        <ele>26.0929</ele>
        <time>2014-05-16T18:15:01Z</time>
      </trkpt>
      <trkpt lat="59.8963466" lon="17.6366104">
        <ele>26.0929</ele>
        <time>2014-05-16T18:15:02Z</time>
      </trkpt>
      <trkpt lat="59.8964306" lon="17.6366454">
        <ele>26.0929</ele>
        <time>2014-05-16T18:15:03Z</time>
      </trkpt>
      <trkpt lat="59.896515" lon="17.6366837">
        <ele>26.0929</ele>
        <time>2014-05-16T18:15:04Z</time>
      </trkpt>
      <trkpt lat="59.8965987" lon="17.6367152">
        <ele>26.0929</ele>
        <time>2014-05-16T18:15:05Z</time>
      </trkpt>
      <trkpt lat="59.8966828" lon="17.6367483">
        <ele>26.0929</ele>
        <time>2014-05-16T18:15:06Z</time>
      </trkpt>
      <trkpt lat="59.8967683" lon="17.6367836">
        <ele>26.0929</ele>
        <time>2014-05-16T18:15:07Z</time>
      </trkpt>
      <trkpt lat="59.8968547" lon="17.6368213">
        <ele>26.0929</ele>
        <time>2014-05-16T18:15:08Z</time>
      </trkpt>
      <trkpt lat="59.8969416" lon="17.6368614">
        <ele>25.6123</ele>
        <time>2014-05-16T18:15:09Z</time>
      </trkpt>
      <trkpt lat="59.8970286" lon="17.6369039">
        <ele>25.6123</ele>
        <time>2014-05-16T18:15:10Z</time>
      </trkpt>
      <trkpt lat="59.897116" lon="17.6369472">
        <ele>25.6123</ele>
        <time>2014-05-16T18:15:11Z</time>
      </trkpt>
      <trkpt lat="59.897205" lon="17.6369917">
        <ele>25.6123</ele>
        <time>2014-05-16T18:15:12Z</time>
      </trkpt>
      <trkpt lat="59.897294" lon="17.6370383">
        <ele>25.1317</ele>
        <time>2014-05-16T18:15:13Z</time>
      </trkpt>
      <trkpt lat="59.8973816" lon="17.6370951">
        <ele>25.1317</ele>
        <time>2014-05-16T18:15:14Z</time>
      </trkpt>
      <trkpt lat="59.8974681" lon="17.6371659">
        <ele>24.651</ele>
        <time>2014-05-16T18:15:15Z</time>
      </trkpt>
      <trkpt lat="59.8975544" lon="17.6372467">
        <ele>24.651</ele>
        <time>2014-05-16T18:15:16Z</time>
      </trkpt>
      <trkpt lat="59.8976391" lon="17.6373348">
        <ele>24.1703</ele>
        <time>2014-05-16T18:15:17Z</time>
      </trkpt>
      <trkpt lat="59.897722" lon="17.6374275">
        <ele>24.1703</ele>
        <time>2014-05-16T18:15:18Z</time>
      </trkpt>
      <trkpt lat="59.8978036" lon="17.637525">
        <ele>24.1703</ele>
        <time>2014-05-16T18:15:19Z</time>
      </trkpt>
      <trkpt lat="59.8978832" lon="17.6376297">
        <ele>24.1703</ele>
        <time>2014-05-16T18:15:20Z</time>
      </trkpt>
      <trkpt lat="59.8979612" lon="17.6377372">
        <ele>24.1703</ele>
        <time>2014-05-16T18:15:21Z</time>
      </trkpt>
      <trkpt lat="59.8980419" lon="17.6378358">
        <ele>24.1703</ele>
        <time>2014-05-16T18:15:22Z</time>
      </trkpt>
      <trkpt lat="59.898126" lon="17.6379182">
        <ele>24.1703</ele>
        <time>2014-05-16T18:15:23Z</time>
      </trkpt>
      <trkpt lat="59.8982134" lon="17.6379844">
        <ele>24.1703</ele>
        <time>2014-05-16T18:15:24Z</time>
      </trkpt>
      <trkpt lat="59.8983042" lon="17.63803">
        <ele>24.1703</ele>
        <time>2014-05-16T18:15:25Z</time>
      </trkpt>
      <trkpt lat="59.8983977" lon="17.638047">
        <ele>24.1703</ele>
        <time>2014-05-16T18:15:26Z</time>
      </trkpt>
      <trkpt lat="59.8984916" lon="17.6380321">
        <ele>23.6896</ele>
        <time>2014-05-16T18:15:27Z</time>
      </trkpt>
      <trkpt lat="59.8985842" lon="17.6379928">
        <ele>23.6896</ele>
        <time>2014-05-16T18:15:28Z</time>
      </trkpt>
      <trkpt lat="59.8986751" lon="17.6379476">
        <ele>23.6896</ele>
        <time>2014-05-16T18:15:29Z</time>
      </trkpt>
      <trkpt lat="59.8987689" lon="17.6379174">
        <ele>23.209</ele>
        <time>2014-05-16T18:15:30Z</time>
      </trkpt>
      <trkpt lat="59.8988653" lon="17.6379193">
        <ele>23.209</ele>
        <time>2014-05-16T18:15:31Z</time>
      </trkpt>
      <trkpt lat="59.8989608" lon="17.6379605">
        <ele>23.209</ele>
        <time>2014-05-16T18:15:32Z</time>
      </trkpt>
      <trkpt lat="59.8990521" lon="17.6380317">
        <ele>23.209</ele>
        <time>2014-05-16T18:15:33Z</time>
      </trkpt>
      <trkpt lat="59.8991404" lon="17.6381186">
        <ele>23.209</ele>
        <time>2014-05-16T18:15:34Z</time>
      </trkpt>
      <trkpt lat="59.8992283" lon="17.6382092">
        <ele>22.7283</ele>
        <time>2014-05-16T18:15:35Z</time>
      </trkpt>
      <trkpt lat="59.8993174" lon="17.6382978">
        <ele>22.7283</ele>
        <time>2014-05-16T18:15:36Z</time>
      </trkpt>
      <trkpt lat="59.8994092" lon="17.6383775">
        <ele>22.7283</ele>
        <time>2014-05-16T18:15:37Z</time>
      </trkpt>
      <trkpt lat="59.8995039" lon="17.6384465">
        <ele>22.2476</ele>
        <time>2014-05-16T18:15:38Z</time>
      </trkpt>
      <trkpt lat="59.8996009" lon="17.6385112">
        <ele>22.2476</ele>
        <time>2014-05-16T18:15:39Z</time>
      </trkpt>
      <trkpt lat="59.8996996" lon="17.6385761">
        <ele>22.2476</ele>
        <time>2014-05-16T18:15:40Z</time>
      </trkpt>
      <trkpt lat="59.8997995" lon="17.638645">
        <ele>21.767</ele>
        <time>2014-05-16T18:15:41Z</time>
      </trkpt>
      <trkpt lat="59.8999006" lon="17.6387205">
        <ele>21.2864</ele>
        <time>2014-05-16T18:15:42Z</time>
      </trkpt>
      <trkpt lat="59.9000038" lon="17.6388004">
        <ele>21.2864</ele>
        <time>2014-05-16T18:15:43Z</time>
      </trkpt>
      <trkpt lat="59.9001095" lon="17.6388821">
        <ele>20.8057</ele>
        <time>2014-05-16T18:15:44Z</time>
      </trkpt>
      <trkpt lat="59.9002176" lon="17.6389661">
        <ele>20.325</ele>
        <time>2014-05-16T18:15:45Z</time>
      </trkpt>
      <trkpt lat="59.9003264" lon="17.6390521">
        <ele>19.8444</ele>
        <time>2014-05-16T18:15:46Z</time>
      </trkpt>
      <trkpt lat="59.9004346" lon="17.6391378">
        <ele>19.8444</ele>
        <time>2014-05-16T18:15:47Z</time>
      </trkpt>
      <trkpt lat="59.900541" lon="17.6392231">
        <ele>19.3638</ele>
        <time>2014-05-16T18:15:48Z</time>
      </trkpt>
      <trkpt lat="59.9006459" lon="17.6393094">
        <ele>19.3638</ele>
        <time>2014-05-16T18:15:49Z</time>
      </trkpt>
      <trkpt lat="59.9007483" lon="17.6393964">
        <ele>19.3638</ele>
        <time>2014-05-16T18:15:50Z</time>
      </trkpt>
      <trkpt lat="59.9008487" lon="17.6394826">
        <ele>19.3638</ele>
        <time>2014-05-16T18:15:51Z</time>
      </trkpt>
      <trkpt lat="59.9009464" lon="17.6395688">
        <ele>19.3638</ele>
        <time>2014-05-16T18:15:52Z</time>
      </trkpt>
      <trkpt lat="59.9010417" lon="17.6396549">
        <ele>18.8831</ele>
        <time>2014-05-16T18:15:53Z</time>
      </trkpt>
      <trkpt lat="59.9011357" lon="17.6397405">
        <ele>19.3638</ele>
        <time>2014-05-16T18:15:54Z</time>
      </trkpt>
      <trkpt lat="59.9012284" lon="17.6398265">
        <ele>18.8831</ele>
        <time>2014-05-16T18:15:55Z</time>
      </trkpt>
      <trkpt lat="59.9013205" lon="17.6399119">
        <ele>18.8831</ele>
        <time>2014-05-16T18:15:56Z</time>
      </trkpt>
      <trkpt lat="59.9014121" lon="17.6399943">
        <ele>18.8831</ele>
        <time>2014-05-16T18:15:57Z</time>
      </trkpt>
      <trkpt lat="59.9015023" lon="17.6400751">
        <ele>19.3638</ele>
        <time>2014-05-16T18:15:58Z</time>
      </trkpt>
      <trkpt lat="59.9015905" lon="17.6401544">
        <ele>19.3638</ele>
        <time>2014-05-16T18:15:59Z</time>
      </trkpt>
      <trkpt lat="59.9016773" lon="17.6402321">
        <ele>19.3638</ele>
        <time>2014-05-16T18:16:00Z</time>
      </trkpt>
      <trkpt lat="59.9017624" lon="17.6403077">
        <ele>19.3638</ele>
        <time>2014-05-16T18:16:01Z</time>
      </trkpt>
      <trkpt lat="59.9018457" lon="17.6403807">
        <ele>19.3638</ele>
        <time>2014-05-16T18:16:02Z</time>
      </trkpt>
      <trkpt lat="59.9019262" lon="17.6404537">
        <ele>19.3638</ele>
        <time>2014-05-16T18:16:03Z</time>
      </trkpt>
      <trkpt lat="59.9020032" lon="17.6405235">
        <ele>19.3638</ele>
        <time>2014-05-16T18:16:04Z</time>
      </trkpt>
      <trkpt lat="59.9020741" lon="17.6405836">
        <ele>19.3638</ele>
        <time>2014-05-16T18:16:05Z</time>
      </trkpt>
      <trkpt lat="59.9021362" lon="17.640634">
        <ele>19.3638</ele>
        <time>2014-05-16T18:16:06Z</time>
      </trkpt>
      <trkpt lat="59.9021896" lon="17.6406756">
        <ele>19.3638</ele>
        <time>2014-05-16T18:16:07Z</time>
      </trkpt>
      <trkpt lat="59.9022355" lon="17.6407043">
        <ele>19.3638</ele>
        <time>2014-05-16T18:16:08Z</time>
      </trkpt>
      <trkpt lat="59.9022751" lon="17.6407165">
        <ele>19.3638</ele>
        <time>2014-05-16T18:16:09Z</time>
      </trkpt>
      <trkpt lat="59.9023088" lon="17.640706">
        <ele>18.8831</ele>
        <time>2014-05-16T18:16:10Z</time>
      </trkpt>
      <trkpt lat="59.9023415" lon="17.6406915">
        <ele>18.8831</ele>
        <time>2014-05-16T18:16:11Z</time>
      </trkpt>
      <trkpt lat="59.9023763" lon="17.6407003">
        <ele>18.8831</ele>
        <time>2014-05-16T18:16:12Z</time>
      </trkpt>
      <trkpt lat="59.9024134" lon="17.640733">
        <ele>18.8831</ele>
        <time>2014-05-16T18:16:13Z</time>
      </trkpt>
      <trkpt lat="59.9024544" lon="17.6407785">
        <ele>18.8831</ele>
        <time>2014-05-16T18:16:14Z</time>
      </trkpt>
      <trkpt lat="59.9024993" lon="17.6408271">
        <ele>18.8831</ele>
        <time>2014-05-16T18:16:15Z</time>
      </trkpt>
      <trkpt lat="59.9025473" lon="17.6408765">
        <ele>18.4023</ele>
        <time>2014-05-16T18:16:16Z</time>
      </trkpt>
      <trkpt lat="59.902599" lon="17.6409276">
        <ele>18.4023</ele>
        <time>2014-05-16T18:16:17Z</time>
      </trkpt>
      <trkpt lat="59.9026534" lon="17.6409815">
        <ele>18.4023</ele>
        <time>2014-05-16T18:16:18Z</time>
      </trkpt>
      <trkpt lat="59.9027105" lon="17.6410381">
        <ele>18.4023</ele>
        <time>2014-05-16T18:16:19Z</time>
      </trkpt>
      <trkpt lat="59.9027694" lon="17.6410973">
        <ele>18.4023</ele>
        <time>2014-05-16T18:16:20Z</time>
      </trkpt>
      <trkpt lat="59.90283" lon="17.6411588">
        <ele>18.4023</ele>
        <time>2014-05-16T18:16:21Z</time>
      </trkpt>
      <trkpt lat="59.9028899" lon="17.6412241">
        <ele>18.4023</ele>
        <time>2014-05-16T18:16:22Z</time>
      </trkpt>
      <trkpt lat="59.9029445" lon="17.6412985">
        <ele>18.8831</ele>
        <time>2014-05-16T18:16:23Z</time>
      </trkpt>
      <trkpt lat="59.9029938" lon="17.6413836">
        <ele>18.4023</ele>
        <time>2014-05-16T18:16:24Z</time>
      </trkpt>
      <trkpt lat="59.9030393" lon="17.6414756">
        <ele>18.4023</ele>
        <time>2014-05-16T18:16:25Z</time>
      </trkpt>
      <trkpt lat="59.9030824" lon="17.641567">
        <ele>18.8831</ele>
        <time>2014-05-16T18:16:26Z</time>
      </trkpt>
      <trkpt lat="59.9031272" lon="17.6416524">
        <ele>18.8831</ele>
        <time>2014-05-16T18:16:27Z</time>
      </trkpt>
      <trkpt lat="59.9031743" lon="17.64173">
        <ele>18.8831</ele>
        <time>2014-05-16T18:16:28Z</time>
      </trkpt>
      <trkpt lat="59.9032247" lon="17.6417923">
        <ele>18.8831</ele>
        <time>2014-05-16T18:16:29Z</time>
      </trkpt>
      <trkpt lat="59.9032792" lon="17.6418333">
        <ele>18.8831</ele>
        <time>2014-05-16T18:16:30Z</time>
      </trkpt>
      <trkpt lat="59.9033326" lon="17.6418617">
        <ele>19.3638</ele>
        <time>2014-05-16T18:16:31Z</time>
      </trkpt>
      <trkpt lat="59.9033826" lon="17.6418882">
        <ele>19.3638</ele>
        <time>2014-05-16T18:16:32Z</time>
      </trkpt>
      <trkpt lat="59.9034269" lon="17.6419141">
        <ele>19.3638</ele>
        <time>2014-05-16T18:16:33Z</time>
      </trkpt>
      <trkpt lat="59.9034636" lon="17.6419374">
        <ele>19.8444</ele>
        <time>2014-05-16T18:16:34Z</time>
      </trkpt>
      <trkpt lat="59.903491" lon="17.6419569">
        <ele>19.8444</ele>
        <time>2014-05-16T18:16:35Z</time>
      </trkpt>
      <trkpt lat="59.9035086" lon="17.6419703">
        <ele>20.325</ele>
        <time>2014-05-16T18:16:36Z</time>
      </trkpt>
      <trkpt lat="59.903516" lon="17.6419747">
        <ele>20.325</ele>
        <time>2014-05-16T18:16:37Z</time>
      </trkpt>
      <trkpt lat="59.9035174" lon="17.6419741">
        <ele>20.325</ele>
        <time>2014-05-16T18:16:38Z</time>
      </trkpt>
      <trkpt lat="59.9035179" lon="17.641974">
        <ele>20.325</ele>
        <time>2014-05-16T18:16:39Z</time>
      </trkpt>
      <trkpt lat="59.9034973" lon="17.6419223">
        <ele>20.325</ele>
        <time>2014-05-16T18:17:49Z</time>
      </trkpt>
      <trkpt lat="59.9035154" lon="17.6419287">
        <ele>20.325</ele>
        <time>2014-05-16T18:17:50Z</time>
      </trkpt>
      <trkpt lat="59.903531" lon="17.6419415">
        <ele>20.325</ele>
        <time>2014-05-16T18:17:51Z</time>
      </trkpt>
      <trkpt lat="59.9035505" lon="17.6419532">
        <ele>20.325</ele>
        <time>2014-05-16T18:17:52Z</time>
      </trkpt>
      <trkpt lat="59.9035775" lon="17.6419555">
        <ele>20.325</ele>
        <time>2014-05-16T18:17:53Z</time>
      </trkpt>
      <trkpt lat="59.9036101" lon="17.6419457">
        <ele>20.325</ele>
        <time>2014-05-16T18:17:54Z</time>
      </trkpt>
      <trkpt lat="59.9036501" lon="17.6419403">
        <ele>20.325</ele>
        <time>2014-05-16T18:17:55Z</time>
      </trkpt>
      <trkpt lat="59.9036987" lon="17.6419544">
        <ele>20.325</ele>
        <time>2014-05-16T18:17:56Z</time>
      </trkpt>
      <trkpt lat="59.9037548" lon="17.6419827">
        <ele>20.325</ele>
        <time>2014-05-16T18:17:57Z</time>
      </trkpt>
      <trkpt lat="59.9038194" lon="17.6420181">
        <ele>20.325</ele>
        <time>2014-05-16T18:17:58Z</time>
      </trkpt>
      <trkpt lat="59.9038918" lon="17.6420549">
        <ele>20.325</ele>
        <time>2014-05-16T18:17:59Z</time>
      </trkpt>
      <trkpt lat="59.9039706" lon="17.6420938">
        <ele>19.8444</ele>
        <time>2014-05-16T18:18:00Z</time>
      </trkpt>
      <trkpt lat="59.904052" lon="17.6421402">
        <ele>19.8444</ele>
        <time>2014-05-16T18:18:01Z</time>
      </trkpt>
      <trkpt lat="59.9041344" lon="17.6421877">
        <ele>19.8444</ele>
        <time>2014-05-16T18:18:02Z</time>
      </trkpt>
      <trkpt lat="59.9042186" lon="17.6422327">
        <ele>19.8444</ele>
        <time>2014-05-16T18:18:03Z</time>
      </trkpt>
      <trkpt lat="59.9043051" lon="17.6422808">
        <ele>19.3638</ele>
        <time>2014-05-16T18:18:04Z</time>
      </trkpt>
      <trkpt lat="59.9043935" lon="17.6423321">
        <ele>19.3638</ele>
        <time>2014-05-16T18:18:05Z</time>
      </trkpt>
      <trkpt lat="59.9044836" lon="17.6423837">
        <ele>19.3638</ele>
        <time>2014-05-16T18:18:06Z</time>
      </trkpt>
      <trkpt lat="59.9045752" lon="17.6424372">
        <ele>19.3638</ele>
        <time>2014-05-16T18:18:07Z</time>
      </trkpt>
      <trkpt lat="59.9046674" lon="17.6424968">
        <ele>19.3638</ele>
        <time>2014-05-16T18:18:08Z</time>
      </trkpt>
      <trkpt lat="59.9047582" lon="17.6425636">
        <ele>19.3638</ele>
        <time>2014-05-16T18:18:09Z</time>
      </trkpt>
      <trkpt lat="59.9048477" lon="17.6426289">
        <ele>19.3638</ele>
        <time>2014-05-16T18:18:10Z</time>
      </trkpt>
      <trkpt lat="59.9049368" lon="17.6426827">
        <ele>19.3638</ele>
        <time>2014-05-16T18:18:11Z</time>
      </trkpt>
      <trkpt lat="59.905027" lon="17.6427279">
        <ele>19.3638</ele>
        <time>2014-05-16T18:18:12Z</time>
      </trkpt>
      <trkpt lat="59.9051176" lon="17.6427696">
        <ele>19.8444</ele>
        <time>2014-05-16T18:18:13Z</time>
      </trkpt>
      <trkpt lat="59.905208" lon="17.6428096">
        <ele>19.8444</ele>
        <time>2014-05-16T18:18:14Z</time>
      </trkpt>
      <trkpt lat="59.9052963" lon="17.6428501">
        <ele>19.8444</ele>
        <time>2014-05-16T18:18:15Z</time>
      </trkpt>
      <trkpt lat="59.9053849" lon="17.642881">
        <ele>19.8444</ele>
        <time>2014-05-16T18:18:16Z</time>
      </trkpt>
      <trkpt lat="59.9054739" lon="17.6428944">
        <ele>19.8444</ele>
        <time>2014-05-16T18:18:17Z</time>
      </trkpt>
      <trkpt lat="59.9055631" lon="17.642904">
        <ele>19.8444</ele>
        <time>2014-05-16T18:18:18Z</time>
      </trkpt>
      <trkpt lat="59.9056526" lon="17.6429252">
        <ele>19.8444</ele>
        <time>2014-05-16T18:18:19Z</time>
      </trkpt>
      <trkpt lat="59.9057409" lon="17.6429578">
        <ele>19.8444</ele>
        <time>2014-05-16T18:18:20Z</time>
      </trkpt>
      <trkpt lat="59.9058278" lon="17.6429956">
        <ele>19.8444</ele>
        <time>2014-05-16T18:18:21Z</time>
      </trkpt>
      <trkpt lat="59.9059133" lon="17.6430376">
        <ele>19.8444</ele>
        <time>2014-05-16T18:18:22Z</time>
      </trkpt>
      <trkpt lat="59.9059975" lon="17.6430811">
        <ele>20.325</ele>
        <time>2014-05-16T18:18:23Z</time>
      </trkpt>
      <trkpt lat="59.90608" lon="17.643123">
        <ele>20.325</ele>
        <time>2014-05-16T18:18:24Z</time>
      </trkpt>
      <trkpt lat="59.9061639" lon="17.6431609">
        <ele>20.325</ele>
        <time>2014-05-16T18:18:25Z</time>
      </trkpt>
      <trkpt lat="59.9062494" lon="17.6431956">
        <ele>20.8057</ele>
        <time>2014-05-16T18:18:26Z</time>
      </trkpt>
      <trkpt lat="59.9063345" lon="17.6432324">
        <ele>20.8057</ele>
        <time>2014-05-16T18:18:27Z</time>
      </trkpt>
      <trkpt lat="59.9064196" lon="17.6432686">
        <ele>21.2864</ele>
        <time>2014-05-16T18:18:28Z</time>
      </trkpt>
      <trkpt lat="59.9065059" lon="17.6433017">
        <ele>21.2864</ele>
        <time>2014-05-16T18:18:29Z</time>
      </trkpt>
      <trkpt lat="59.9065909" lon="17.6433316">
        <ele>21.767</ele>
        <time>2014-05-16T18:18:30Z</time>
      </trkpt>
      <trkpt lat="59.9066736" lon="17.6433594">
        <ele>21.767</ele>
        <time>2014-05-16T18:18:31Z</time>
      </trkpt>
      <trkpt lat="59.9067555" lon="17.6433847">
        <ele>21.767</ele>
        <time>2014-05-16T18:18:32Z</time>
      </trkpt>
      <trkpt lat="59.9068369" lon="17.6434053">
        <ele>22.2476</ele>
        <time>2014-05-16T18:18:33Z</time>
      </trkpt>
      <trkpt lat="59.9069177" lon="17.6434255">
        <ele>22.2476</ele>
        <time>2014-05-16T18:18:34Z</time>
      </trkpt>
      <trkpt lat="59.9069984" lon="17.6434468">
        <ele>22.2476</ele>
        <time>2014-05-16T18:18:35Z</time>
      </trkpt>
      <trkpt lat="59.9070789" lon="17.6434661">
        <ele>22.2476</ele>
        <time>2014-05-16T18:18:36Z</time>
      </trkpt>
      <trkpt lat="59.9071602" lon="17.6434827">
        <ele>22.7283</ele>
        <time>2014-05-16T18:18:37Z</time>
      </trkpt>
      <trkpt lat="59.9072419" lon="17.6434984">
        <ele>22.7283</ele>
        <time>2014-05-16T18:18:38Z</time>
      </trkpt>
      <trkpt lat="59.9073234" lon="17.6435137">
        <ele>22.7283</ele>
        <time>2014-05-16T18:18:39Z</time>
      </trkpt>
      <trkpt lat="59.9074051" lon="17.6435292">
        <ele>22.7283</ele>
        <time>2014-05-16T18:18:40Z</time>
      </trkpt>
      <trkpt lat="59.9074863" lon="17.6435447">
        <ele>23.209</ele>
        <time>2014-05-16T18:18:41Z</time>
      </trkpt>
      <trkpt lat="59.907567" lon="17.6435604">
        <ele>23.209</ele>
        <time>2014-05-16T18:18:42Z</time>
      </trkpt>
      <trkpt lat="59.9076471" lon="17.6435764">
        <ele>23.209</ele>
        <time>2014-05-16T18:18:43Z</time>
      </trkpt>
      <trkpt lat="59.9077267" lon="17.6435896">
        <ele>23.6896</ele>
        <time>2014-05-16T18:18:44Z</time>
      </trkpt>
      <trkpt lat="59.9078051" lon="17.6435998">
        <ele>23.6896</ele>
        <time>2014-05-16T18:18:45Z</time>
      </trkpt>
      <trkpt lat="59.9078825" lon="17.6436103">
        <ele>24.1703</ele>
        <time>2014-05-16T18:18:46Z</time>
      </trkpt>
      <trkpt lat="59.9079587" lon="17.6436222">
        <ele>24.1703</ele>
        <time>2014-05-16T18:18:47Z</time>
      </trkpt>
      <trkpt lat="59.9080344" lon="17.6436357">
        <ele>24.1703</ele>
        <time>2014-05-16T18:18:48Z</time>
      </trkpt>
      <trkpt lat="59.9081097" lon="17.6436483">
        <ele>24.1703</ele>
        <time>2014-05-16T18:18:49Z</time>
      </trkpt>
      <trkpt lat="59.9081848" lon="17.643659">
        <ele>24.651</ele>
        <time>2014-05-16T18:18:50Z</time>
      </trkpt>
      <trkpt lat="59.9082597" lon="17.6436692">
        <ele>24.651</ele>
        <time>2014-05-16T18:18:51Z</time>
      </trkpt>
      <trkpt lat="59.9083343" lon="17.6436794">
        <ele>24.651</ele>
        <time>2014-05-16T18:18:52Z</time>
      </trkpt>
      <trkpt lat="59.9084085" lon="17.643687">
        <ele>24.651</ele>
        <time>2014-05-16T18:18:53Z</time>
      </trkpt>
      <trkpt lat="59.9084846" lon="17.643692">
        <ele>24.651</ele>
        <time>2014-05-16T18:18:54Z</time>
      </trkpt>
      <trkpt lat="59.9085627" lon="17.6436944">
        <ele>24.651</ele>
        <time>2014-05-16T18:18:55Z</time>
      </trkpt>
      <trkpt lat="59.9086427" lon="17.6436928">
        <ele>24.651</ele>
        <time>2014-05-16T18:18:56Z</time>
      </trkpt>
      <trkpt lat="59.9087241" lon="17.6436872">
        <ele>24.651</ele>
        <time>2014-05-16T18:18:57Z</time>
      </trkpt>
      <trkpt lat="59.908807" lon="17.6436799">
        <ele>24.651</ele>
        <time>2014-05-16T18:18:58Z</time>
      </trkpt>
      <trkpt lat="59.9088917" lon="17.6436737">
        <ele>24.1703</ele>
        <time>2014-05-16T18:18:59Z</time>
      </trkpt>
      <trkpt lat="59.9089774" lon="17.643667">
        <ele>24.651</ele>
        <time>2014-05-16T18:19:00Z</time>
      </trkpt>
      <trkpt lat="59.9090628" lon="17.6436585">
        <ele>24.651</ele>
        <time>2014-05-16T18:19:01Z</time>
      </trkpt>
      <trkpt lat="59.9091481" lon="17.6436467">
        <ele>24.651</ele>
        <time>2014-05-16T18:19:02Z</time>
      </trkpt>
      <trkpt lat="59.9092336" lon="17.6436323">
        <ele>24.651</ele>
        <time>2014-05-16T18:19:03Z</time>
      </trkpt>
      <trkpt lat="59.9093198" lon="17.6436192">
        <ele>24.651</ele>
        <time>2014-05-16T18:19:04Z</time>
      </trkpt>
      <trkpt lat="59.9094065" lon="17.6436065">
        <ele>24.651</ele>
        <time>2014-05-16T18:19:05Z</time>
      </trkpt>
      <trkpt lat="59.9094932" lon="17.6435899">
        <ele>24.651</ele>
        <time>2014-05-16T18:19:06Z</time>
      </trkpt>
      <trkpt lat="59.9095802" lon="17.6435684">
        <ele>24.651</ele>
        <time>2014-05-16T18:19:07Z</time>
      </trkpt>
      <trkpt lat="59.9096669" lon="17.6435466">
        <ele>24.651</ele>
        <time>2014-05-16T18:19:08Z</time>
      </trkpt>
      <trkpt lat="59.9097537" lon="17.6435278">
        <ele>24.651</ele>
        <time>2014-05-16T18:19:09Z</time>
      </trkpt>
      <trkpt lat="59.9098393" lon="17.6435198">
        <ele>25.1317</ele>
        <time>2014-05-16T18:19:10Z</time>
      </trkpt>
      <trkpt lat="59.9099252" lon="17.6435324">
        <ele>25.1317</ele>
        <time>2014-05-16T18:19:11Z</time>
      </trkpt>
      <trkpt lat="59.9100106" lon="17.6435644">
        <ele>25.6123</ele>
        <time>2014-05-16T18:19:12Z</time>
      </trkpt>
      <trkpt lat="59.9100921" lon="17.6435944">
        <ele>26.0929</ele>
        <time>2014-05-16T18:19:13Z</time>
      </trkpt>
      <trkpt lat="59.9101707" lon="17.6436038">
        <ele>26.0929</ele>
        <time>2014-05-16T18:19:14Z</time>
      </trkpt>
      <trkpt lat="59.9102499" lon="17.6435967">
        <ele>26.5736</ele>
        <time>2014-05-16T18:19:15Z</time>
      </trkpt>
      <trkpt lat="59.9103317" lon="17.6435831">
        <ele>26.5736</ele>
        <time>2014-05-16T18:19:16Z</time>
      </trkpt>
      <trkpt lat="59.9104127" lon="17.6435628">
        <ele>26.5736</ele>
        <time>2014-05-16T18:19:17Z</time>
      </trkpt>
      <trkpt lat="59.9104917" lon="17.6435333">
        <ele>26.5736</ele>
        <time>2014-05-16T18:19:18Z</time>
      </trkpt>
      <trkpt lat="59.9105707" lon="17.6434958">
        <ele>26.5736</ele>
        <time>2014-05-16T18:19:19Z</time>
      </trkpt>
      <trkpt lat="59.9106519" lon="17.6434608">
        <ele>26.5736</ele>
        <time>2014-05-16T18:19:20Z</time>
      </trkpt>
      <trkpt lat="59.9107342" lon="17.6434359">
        <ele>26.5736</ele>
        <time>2014-05-16T18:19:21Z</time>
      </trkpt>
      <trkpt lat="59.9108163" lon="17.6434185">
        <ele>26.5736</ele>
        <time>2014-05-16T18:19:22Z</time>
      </trkpt>
      <trkpt lat="59.9108974" lon="17.6434054">
        <ele>27.0543</ele>
        <time>2014-05-16T18:19:23Z</time>
      </trkpt>
      <trkpt lat="59.9109771" lon="17.6433945">
        <ele>27.0543</ele>
        <time>2014-05-16T18:19:24Z</time>
      </trkpt>
      <trkpt lat="59.9110554" lon="17.6433822">
        <ele>27.0543</ele>
        <time>2014-05-16T18:19:25Z</time>
      </trkpt>
      <trkpt lat="59.9111325" lon="17.6433686">
        <ele>27.0543</ele>
        <time>2014-05-16T18:19:26Z</time>
      </trkpt>
      <trkpt lat="59.9112094" lon="17.6433531">
        <ele>27.0543</ele>
        <time>2014-05-16T18:19:27Z</time>
      </trkpt>
      <trkpt lat="59.9112862" lon="17.6433349">
        <ele>27.0543</ele>
        <time>2014-05-16T18:19:28Z</time>
      </trkpt>
      <trkpt lat="59.9113628" lon="17.6433132">
        <ele>27.0543</ele>
        <time>2014-05-16T18:19:29Z</time>
      </trkpt>
      <trkpt lat="59.9114398" lon="17.6432913">
        <ele>27.0543</ele>
        <time>2014-05-16T18:19:30Z</time>
      </trkpt>
      <trkpt lat="59.9115176" lon="17.6432728">
        <ele>27.0543</ele>
        <time>2014-05-16T18:19:31Z</time>
      </trkpt>
      <trkpt lat="59.9115974" lon="17.6432582">
        <ele>27.0543</ele>
        <time>2014-05-16T18:19:32Z</time>
      </trkpt>
      <trkpt lat="59.9116782" lon="17.6432444">
        <ele>27.0543</ele>
        <time>2014-05-16T18:19:33Z</time>
      </trkpt>
      <trkpt lat="59.911759" lon="17.6432294">
        <ele>27.0543</ele>
        <time>2014-05-16T18:19:34Z</time>
      </trkpt>
      <trkpt lat="59.9118388" lon="17.6432126">
        <ele>27.0543</ele>
        <time>2014-05-16T18:19:35Z</time>
      </trkpt>
      <trkpt lat="59.9119164" lon="17.6431946">
        <ele>27.0543</ele>
        <time>2014-05-16T18:19:36Z</time>
      </trkpt>
      <trkpt lat="59.9119942" lon="17.6431768">
        <ele>27.5349</ele>
        <time>2014-05-16T18:19:37Z</time>
      </trkpt>
      <trkpt lat="59.9120718" lon="17.6431555">
        <ele>27.0543</ele>
        <time>2014-05-16T18:19:38Z</time>
      </trkpt>
      <trkpt lat="59.9121501" lon="17.6431292">
        <ele>27.0543</ele>
        <time>2014-05-16T18:19:39Z</time>
      </trkpt>
      <trkpt lat="59.9122314" lon="17.6431012">
        <ele>26.5736</ele>
        <time>2014-05-16T18:19:40Z</time>
      </trkpt>
      <trkpt lat="59.9123148" lon="17.6430755">
        <ele>26.5736</ele>
        <time>2014-05-16T18:19:41Z</time>
      </trkpt>
      <trkpt lat="59.9124003" lon="17.6430563">
        <ele>26.0929</ele>
        <time>2014-05-16T18:19:42Z</time>
      </trkpt>
      <trkpt lat="59.9124872" lon="17.6430439">
        <ele>26.0929</ele>
        <time>2014-05-16T18:19:43Z</time>
      </trkpt>
      <trkpt lat="59.912575" lon="17.6430423">
        <ele>26.0929</ele>
        <time>2014-05-16T18:19:44Z</time>
      </trkpt>
      <trkpt lat="59.9126618" lon="17.6430633">
        <ele>26.5736</ele>
        <time>2014-05-16T18:19:45Z</time>
      </trkpt>
      <trkpt lat="59.9127422" lon="17.643096">
        <ele>27.0543</ele>
        <time>2014-05-16T18:19:46Z</time>
      </trkpt>
      <trkpt lat="59.9128187" lon="17.6431143">
        <ele>27.0543</ele>
        <time>2014-05-16T18:19:47Z</time>
      </trkpt>
      <trkpt lat="59.9128963" lon="17.6431135">
        <ele>27.0543</ele>
        <time>2014-05-16T18:19:48Z</time>
      </trkpt>
      <trkpt lat="59.9129747" lon="17.6431016">
        <ele>27.0543</ele>
        <time>2014-05-16T18:19:49Z</time>
      </trkpt>
      <trkpt lat="59.9130541" lon="17.6430867">
        <ele>27.0543</ele>
        <time>2014-05-16T18:19:50Z</time>
      </trkpt>
      <trkpt lat="59.9131357" lon="17.6430702">
        <ele>27.0543</ele>
        <time>2014-05-16T18:19:51Z</time>
      </trkpt>
      <trkpt lat="59.9132166" lon="17.6430507">
        <ele>27.0543</ele>
        <time>2014-05-16T18:19:52Z</time>
      </trkpt>
      <trkpt lat="59.9132986" lon="17.6430299">
        <ele>26.5736</ele>
        <time>2014-05-16T18:19:53Z</time>
      </trkpt>
      <trkpt lat="59.9133823" lon="17.643008">
        <ele>26.5736</ele>
        <time>2014-05-16T18:19:54Z</time>
      </trkpt>
      <trkpt lat="59.9134658" lon="17.6429867">
        <ele>26.5736</ele>
        <time>2014-05-16T18:19:55Z</time>
      </trkpt>
      <trkpt lat="59.9135493" lon="17.6429678">
        <ele>26.5736</ele>
        <time>2014-05-16T18:19:56Z</time>
      </trkpt>
      <trkpt lat="59.9136335" lon="17.6429516">
        <ele>26.5736</ele>
        <time>2014-05-16T18:19:57Z</time>
      </trkpt>
      <trkpt lat="59.9137175" lon="17.642936">
        <ele>26.0929</ele>
        <time>2014-05-16T18:19:58Z</time>
      </trkpt>
      <trkpt lat="59.913803" lon="17.6429195">
        <ele>26.0929</ele>
        <time>2014-05-16T18:19:59Z</time>
      </trkpt>
      <trkpt lat="59.9138885" lon="17.6429029">
        <ele>26.0929</ele>
        <time>2014-05-16T18:20:00Z</time>
      </trkpt>
      <trkpt lat="59.913975" lon="17.6428874">
        <ele>26.0929</ele>
        <time>2014-05-16T18:20:01Z</time>
      </trkpt>
      <trkpt lat="59.9140634" lon="17.6428724">
        <ele>26.0929</ele>
        <time>2014-05-16T18:20:02Z</time>
      </trkpt>
      <trkpt lat="59.9141511" lon="17.6428556">
        <ele>25.6123</ele>
        <time>2014-05-16T18:20:03Z</time>
      </trkpt>
      <trkpt lat="59.9142404" lon="17.6428376">
        <ele>25.6123</ele>
        <time>2014-05-16T18:20:04Z</time>
      </trkpt>
      <trkpt lat="59.9143312" lon="17.6428201">
        <ele>25.6123</ele>
        <time>2014-05-16T18:20:05Z</time>
      </trkpt>
      <trkpt lat="59.9144225" lon="17.6428045">
        <ele>25.6123</ele>
        <time>2014-05-16T18:20:06Z</time>
      </trkpt>
      <trkpt lat="59.9145148" lon="17.6427885">
        <ele>25.1317</ele>
        <time>2014-05-16T18:20:07Z</time>
      </trkpt>
      <trkpt lat="59.9146086" lon="17.6427714">
        <ele>25.1317</ele>
        <time>2014-05-16T18:20:08Z</time>
      </trkpt>
      <trkpt lat="59.9147018" lon="17.6427538">
        <ele>25.1317</ele>
        <time>2014-05-16T18:20:09Z</time>
      </trkpt>
      <trkpt lat="59.9147954" lon="17.6427381">
        <ele>24.651</ele>
        <time>2014-05-16T18:20:10Z</time>
      </trkpt>
      <trkpt lat="59.9148893" lon="17.6427228">
        <ele>24.651</ele>
        <time>2014-05-16T18:20:11Z</time>
      </trkpt>
      <trkpt lat="59.914983" lon="17.6427062">
        <ele>24.651</ele>
        <time>2014-05-16T18:20:12Z</time>
      </trkpt>
      <trkpt lat="59.9150774" lon="17.6426838">
        <ele>24.651</ele>
        <time>2014-05-16T18:20:13Z</time>
      </trkpt>
      <trkpt lat="59.9151706" lon="17.6426469">
        <ele>24.1703</ele>
        <time>2014-05-16T18:20:14Z</time>
      </trkpt>
      <trkpt lat="59.9152654" lon="17.642591">
        <ele>24.1703</ele>
        <time>2014-05-16T18:20:15Z</time>
      </trkpt>
      <trkpt lat="59.915366" lon="17.6425288">
        <ele>23.6896</ele>
        <time>2014-05-16T18:20:16Z</time>
      </trkpt>
      <trkpt lat="59.9154704" lon="17.6424826">
        <ele>23.6896</ele>
        <time>2014-05-16T18:20:17Z</time>
      </trkpt>
      <trkpt lat="59.9155741" lon="17.6424559">
        <ele>23.6896</ele>
        <time>2014-05-16T18:20:18Z</time>
      </trkpt>
      <trkpt lat="59.9156772" lon="17.6424392">
        <ele>23.6896</ele>
        <time>2014-05-16T18:20:19Z</time>
      </trkpt>
      <trkpt lat="59.9157791" lon="17.6424273">
        <ele>23.6896</ele>
        <time>2014-05-16T18:20:20Z</time>
      </trkpt>
      <trkpt lat="59.9158797" lon="17.6424202">
        <ele>23.6896</ele>
        <time>2014-05-16T18:20:21Z</time>
      </trkpt>
      <trkpt lat="59.9159787" lon="17.6424181">
        <ele>23.6896</ele>
        <time>2014-05-16T18:20:22Z</time>
      </trkpt>
      <trkpt lat="59.9160762" lon="17.6424187">
        <ele>23.6896</ele>
        <time>2014-05-16T18:20:23Z</time>
      </trkpt>
      <trkpt lat="59.9161719" lon="17.6424201">
        <ele>23.6896</ele>
        <time>2014-05-16T18:20:24Z</time>
      </trkpt>
      <trkpt lat="59.9162657" lon="17.642419">
        <ele>24.1703</ele>
        <time>2014-05-16T18:20:25Z</time>
      </trkpt>
      <trkpt lat="59.9163579" lon="17.6424104">
        <ele>24.1703</ele>
        <time>2014-05-16T18:20:26Z</time>
      </trkpt>
      <trkpt lat="59.9164499" lon="17.6423953">
        <ele>23.6896</ele>
        <time>2014-05-16T18:20:27Z</time>
      </trkpt>
      <trkpt lat="59.9165419" lon="17.6423792">
        <ele>23.6896</ele>
        <time>2014-05-16T18:20:28Z</time>
      </trkpt>
      <trkpt lat="59.9166343" lon="17.6423648">
        <ele>23.6896</ele>
        <time>2014-05-16T18:20:29Z</time>
      </trkpt>
      <trkpt lat="59.9167276" lon="17.6423518">
        <ele>23.209</ele>
        <time>2014-05-16T18:20:30Z</time>
      </trkpt>
      <trkpt lat="59.9168228" lon="17.6423386">
        <ele>23.209</ele>
        <time>2014-05-16T18:20:31Z</time>
      </trkpt>
      <trkpt lat="59.9169199" lon="17.6423221">
        <ele>22.7283</ele>
        <time>2014-05-16T18:20:32Z</time>
      </trkpt>
      <trkpt lat="59.9170177" lon="17.6423006">
        <ele>22.7283</ele>
        <time>2014-05-16T18:20:33Z</time>
      </trkpt>
      <trkpt lat="59.9171153" lon="17.6422735">
        <ele>22.7283</ele>
        <time>2014-05-16T18:20:34Z</time>
      </trkpt>
      <trkpt lat="59.9172143" lon="17.6422469">
        <ele>22.2476</ele>
        <time>2014-05-16T18:20:35Z</time>
      </trkpt>
      <trkpt lat="59.9173146" lon="17.6422352">
        <ele>22.2476</ele>
        <time>2014-05-16T18:20:36Z</time>
      </trkpt>
      <trkpt lat="59.9174141" lon="17.6422352">
        <ele>22.2476</ele>
        <time>2014-05-16T18:20:37Z</time>
      </trkpt>
      <trkpt lat="59.9175129" lon="17.6422356">
        <ele>22.2476</ele>
        <time>2014-05-16T18:20:38Z</time>
      </trkpt>
      <trkpt lat="59.9176109" lon="17.6422337">
        <ele>22.2476</ele>
        <time>2014-05-16T18:20:39Z</time>
      </trkpt>
      <trkpt lat="59.9177078" lon="17.6422332">
        <ele>22.2476</ele>
        <time>2014-05-16T18:20:40Z</time>
      </trkpt>
      <trkpt lat="59.9178037" lon="17.6422327">
        <ele>22.2476</ele>
        <time>2014-05-16T18:20:41Z</time>
      </trkpt>
      <trkpt lat="59.9178985" lon="17.6422283">
        <ele>22.2476</ele>
        <time>2014-05-16T18:20:42Z</time>
      </trkpt>
      <trkpt lat="59.9179927" lon="17.6422202">
        <ele>22.7283</ele>
        <time>2014-05-16T18:20:43Z</time>
      </trkpt>
      <trkpt lat="59.9180849" lon="17.6422128">
        <ele>22.7283</ele>
        <time>2014-05-16T18:20:44Z</time>
      </trkpt>
      <trkpt lat="59.9181741" lon="17.6422057">
        <ele>23.209</ele>
        <time>2014-05-16T18:20:45Z</time>
      </trkpt>
      <trkpt lat="59.9182622" lon="17.6421969">
        <ele>23.209</ele>
        <time>2014-05-16T18:20:46Z</time>
      </trkpt>
      <trkpt lat="59.9183495" lon="17.642188">
        <ele>23.6896</ele>
        <time>2014-05-16T18:20:47Z</time>
      </trkpt>
      <trkpt lat="59.9184359" lon="17.6421789">
        <ele>24.1703</ele>
        <time>2014-05-16T18:20:48Z</time>
      </trkpt>
      <trkpt lat="59.9185215" lon="17.6421698">
        <ele>24.1703</ele>
        <time>2014-05-16T18:20:49Z</time>
      </trkpt>
      <trkpt lat="59.9186069" lon="17.6421605">
        <ele>24.1703</ele>
        <time>2014-05-16T18:20:50Z</time>
      </trkpt>
      <trkpt lat="59.9186929" lon="17.6421509">
        <ele>24.1703</ele>
        <time>2014-05-16T18:20:51Z</time>
      </trkpt>
      <trkpt lat="59.9187807" lon="17.6421403">
        <ele>24.651</ele>
        <time>2014-05-16T18:20:52Z</time>
      </trkpt>
      <trkpt lat="59.9188685" lon="17.6421269">
        <ele>24.651</ele>
        <time>2014-05-16T18:20:53Z</time>
      </trkpt>
      <trkpt lat="59.9189541" lon="17.6421145">
        <ele>24.651</ele>
        <time>2014-05-16T18:20:54Z</time>
      </trkpt>
      <trkpt lat="59.919039" lon="17.6421047">
        <ele>24.651</ele>
        <time>2014-05-16T18:20:55Z</time>
      </trkpt>
      <trkpt lat="59.9191233" lon="17.6420965">
        <ele>24.651</ele>
        <time>2014-05-16T18:20:56Z</time>
      </trkpt>
      <trkpt lat="59.9192073" lon="17.6420877">
        <ele>24.651</ele>
        <time>2014-05-16T18:20:57Z</time>
      </trkpt>
      <trkpt lat="59.9192915" lon="17.6420772">
        <ele>24.1703</ele>
        <time>2014-05-16T18:20:58Z</time>
      </trkpt>
      <trkpt lat="59.9193766" lon="17.6420644">
        <ele>24.1703</ele>
        <time>2014-05-16T18:20:59Z</time>
      </trkpt>
      <trkpt lat="59.9194623" lon="17.6420524">
        <ele>24.1703</ele>
        <time>2014-05-16T18:21:00Z</time>
      </trkpt>
      <trkpt lat="59.9195488" lon="17.6420436">
        <ele>24.1703</ele>
        <time>2014-05-16T18:21:01Z</time>
      </trkpt>
      <trkpt lat="59.9196353" lon="17.6420358">
        <ele>24.1703</ele>
        <time>2014-05-16T18:21:02Z</time>
      </trkpt>
      <trkpt lat="59.9197218" lon="17.6420247">
        <ele>24.1703</ele>
        <time>2014-05-16T18:21:03Z</time>
      </trkpt>
      <trkpt lat="59.9198083" lon="17.642006">
        <ele>23.6896</ele>
        <time>2014-05-16T18:21:04Z</time>
      </trkpt>
      <trkpt lat="59.9198952" lon="17.641982">
        <ele>23.6896</ele>
        <time>2014-05-16T18:21:05Z</time>
      </trkpt>
      <trkpt lat="59.9199824" lon="17.64196">
        <ele>23.6896</ele>
        <time>2014-05-16T18:21:06Z</time>
      </trkpt>
      <trkpt lat="59.9200706" lon="17.6419431">
        <ele>23.6896</ele>
        <time>2014-05-16T18:21:07Z</time>
      </trkpt>
      <trkpt lat="59.9201581" lon="17.6419346">
        <ele>23.6896</ele>
        <time>2014-05-16T18:21:08Z</time>
      </trkpt>
      <trkpt lat="59.920244" lon="17.6419316">
        <ele>23.6896</ele>
        <time>2014-05-16T18:21:09Z</time>
      </trkpt>
      <trkpt lat="59.9203296" lon="17.6419275">
        <ele>23.6896</ele>
        <time>2014-05-16T18:21:10Z</time>
      </trkpt>
      <trkpt lat="59.9204168" lon="17.6419226">
        <ele>23.6896</ele>
        <time>2014-05-16T18:21:11Z</time>
      </trkpt>
      <trkpt lat="59.9205044" lon="17.6419177">
        <ele>23.6896</ele>
        <time>2014-05-16T18:21:12Z</time>
      </trkpt>
      <trkpt lat="59.9205925" lon="17.641911">
        <ele>23.6896</ele>
        <time>2014-05-16T18:21:13Z</time>
      </trkpt>
      <trkpt lat="59.920681" lon="17.6419028">
        <ele>23.6896</ele>
        <time>2014-05-16T18:21:14Z</time>
      </trkpt>
      <trkpt lat="59.9207691" lon="17.6418965">
        <ele>23.6896</ele>
        <time>2014-05-16T18:21:15Z</time>
      </trkpt>
      <trkpt lat="59.9208566" lon="17.6418893">
        <ele>23.209</ele>
        <time>2014-05-16T18:21:16Z</time>
      </trkpt>
      <trkpt lat="59.9209442" lon="17.641881">
        <ele>23.209</ele>
        <time>2014-05-16T18:21:17Z</time>
      </trkpt>
      <trkpt lat="59.9210319" lon="17.6418781">
        <ele>23.6896</ele>
        <time>2014-05-16T18:21:18Z</time>
      </trkpt>
      <trkpt lat="59.9211187" lon="17.6418791">
        <ele>23.6896</ele>
        <time>2014-05-16T18:21:19Z</time>
      </trkpt>
      <trkpt lat="59.9212055" lon="17.6418788">
        <ele>23.6896</ele>
        <time>2014-05-16T18:21:20Z</time>
      </trkpt>
      <trkpt lat="59.9212914" lon="17.6418776">
        <ele>24.1703</ele>
        <time>2014-05-16T18:21:21Z</time>
      </trkpt>
      <trkpt lat="59.9213732" lon="17.641871">
        <ele>23.6896</ele>
        <time>2014-05-16T18:21:22Z</time>
      </trkpt>
      <trkpt lat="59.9214545" lon="17.6418601">
        <ele>24.1703</ele>
        <time>2014-05-16T18:21:23Z</time>
      </trkpt>
      <trkpt lat="59.9215349" lon="17.6418486">
        <ele>24.1703</ele>
        <time>2014-05-16T18:21:24Z</time>
      </trkpt>
      <trkpt lat="59.9216148" lon="17.6418357">
        <ele>23.6896</ele>
        <time>2014-05-16T18:21:25Z</time>
      </trkpt>
      <trkpt lat="59.921696" lon="17.6418214">
        <ele>23.6896</ele>
        <time>2014-05-16T18:21:26Z</time>
      </trkpt>
      <trkpt lat="59.9217799" lon="17.6418094">
        <ele>23.209</ele>
        <time>2014-05-16T18:21:27Z</time>
      </trkpt>
      <trkpt lat="59.9218664" lon="17.6417991">
        <ele>23.209</ele>
        <time>2014-05-16T18:21:28Z</time>
      </trkpt>
      <trkpt lat="59.9219545" lon="17.6417887">
        <ele>23.209</ele>
        <time>2014-05-16T18:21:29Z</time>
      </trkpt>
      <trkpt lat="59.9220436" lon="17.6417786">
        <ele>22.7283</ele>
        <time>2014-05-16T18:21:30Z</time>
      </trkpt>
      <trkpt lat="59.9221324" lon="17.6417691">
        <ele>22.7283</ele>
        <time>2014-05-16T18:21:31Z</time>
      </trkpt>
      <trkpt lat="59.922221" lon="17.6417597">
        <ele>22.7283</ele>
        <time>2014-05-16T18:21:32Z</time>
      </trkpt>
      <trkpt lat="59.9223093" lon="17.6417493">
        <ele>22.7283</ele>
        <time>2014-05-16T18:21:33Z</time>
      </trkpt>
      <trkpt lat="59.9223974" lon="17.6417379">
        <ele>22.7283</ele>
        <time>2014-05-16T18:21:34Z</time>
      </trkpt>
      <trkpt lat="59.9224853" lon="17.6417265">
        <ele>22.7283</ele>
        <time>2014-05-16T18:21:35Z</time>
      </trkpt>
      <trkpt lat="59.9225735" lon="17.641714">
        <ele>22.7283</ele>
        <time>2014-05-16T18:21:36Z</time>
      </trkpt>
      <trkpt lat="59.9226626" lon="17.6416992">
        <ele>22.7283</ele>
        <time>2014-05-16T18:21:37Z</time>
      </trkpt>
      <trkpt lat="59.9227521" lon="17.641686">
        <ele>22.7283</ele>
        <time>2014-05-16T18:21:38Z</time>
      </trkpt>
      <trkpt lat="59.9228419" lon="17.6416756">
        <ele>22.7283</ele>
        <time>2014-05-16T18:21:39Z</time>
      </trkpt>
      <trkpt lat="59.9229335" lon="17.6416676">
        <ele>22.7283</ele>
        <time>2014-05-16T18:21:40Z</time>
      </trkpt>
      <trkpt lat="59.9230266" lon="17.6416595">
        <ele>22.2476</ele>
        <time>2014-05-16T18:21:41Z</time>
      </trkpt>
      <trkpt lat="59.9231208" lon="17.6416494">
        <ele>22.2476</ele>
        <time>2014-05-16T18:21:42Z</time>
      </trkpt>
      <trkpt lat="59.9232156" lon="17.641638">
        <ele>22.2476</ele>
        <time>2014-05-16T18:21:43Z</time>
      </trkpt>
      <trkpt lat="59.9233111" lon="17.6416255">
        <ele>21.767</ele>
        <time>2014-05-16T18:21:44Z</time>
      </trkpt>
      <trkpt lat="59.923407" lon="17.641612">
        <ele>21.767</ele>
        <time>2014-05-16T18:21:45Z</time>
      </trkpt>
      <trkpt lat="59.9235042" lon="17.6415984">
        <ele>21.767</ele>
        <time>2014-05-16T18:21:46Z</time>
      </trkpt>
      <trkpt lat="59.9236028" lon="17.6415847">
        <ele>21.2864</ele>
        <time>2014-05-16T18:21:47Z</time>
      </trkpt>
      <trkpt lat="59.923703" lon="17.6415701">
        <ele>21.2864</ele>
        <time>2014-05-16T18:21:48Z</time>
      </trkpt>
      <trkpt lat="59.9238048" lon="17.6415561">
        <ele>20.8057</ele>
        <time>2014-05-16T18:21:49Z</time>
      </trkpt>
      <trkpt lat="59.9239077" lon="17.6415429">
        <ele>20.8057</ele>
        <time>2014-05-16T18:21:50Z</time>
      </trkpt>
      <trkpt lat="59.9240104" lon="17.6415307">
        <ele>20.8057</ele>
        <time>2014-05-16T18:21:51Z</time>
      </trkpt>
      <trkpt lat="59.9241131" lon="17.6415203">
        <ele>20.8057</ele>
        <time>2014-05-16T18:21:52Z</time>
      </trkpt>
      <trkpt lat="59.9242154" lon="17.6415124">
        <ele>20.8057</ele>
        <time>2014-05-16T18:21:53Z</time>
      </trkpt>
      <trkpt lat="59.9243166" lon="17.6415064">
        <ele>20.8057</ele>
        <time>2014-05-16T18:21:54Z</time>
      </trkpt>
      <trkpt lat="59.9244176" lon="17.6415">
        <ele>20.8057</ele>
        <time>2014-05-16T18:21:55Z</time>
      </trkpt>
      <trkpt lat="59.9245185" lon="17.6414877">
        <ele>20.8057</ele>
        <time>2014-05-16T18:21:56Z</time>
      </trkpt>
      <trkpt lat="59.9246186" lon="17.6414674">
        <ele>20.8057</ele>
        <time>2014-05-16T18:21:57Z</time>
      </trkpt>
      <trkpt lat="59.9247183" lon="17.6414427">
        <ele>20.8057</ele>
        <time>2014-05-16T18:21:58Z</time>
      </trkpt>
      <trkpt lat="59.9248174" lon="17.6414176">
        <ele>20.8057</ele>
        <time>2014-05-16T18:21:59Z</time>
      </trkpt>
      <trkpt lat="59.9249167" lon="17.6413985">
        <ele>20.8057</ele>
        <time>2014-05-16T18:22:00Z</time>
      </trkpt>
      <trkpt lat="59.9250164" lon="17.6413884">
        <ele>20.8057</ele>
        <time>2014-05-16T18:22:01Z</time>
      </trkpt>
      <trkpt lat="59.9251163" lon="17.6413852">
        <ele>20.325</ele>
        <time>2014-05-16T18:22:02Z</time>
      </trkpt>
      <trkpt lat="59.9252164" lon="17.6413844">
        <ele>20.325</ele>
        <time>2014-05-16T18:22:03Z</time>
      </trkpt>
      <trkpt lat="59.9253163" lon="17.641382">
        <ele>20.325</ele>
        <time>2014-05-16T18:22:04Z</time>
      </trkpt>
      <trkpt lat="59.9254164" lon="17.6413764">
        <ele>20.325</ele>
        <time>2014-05-16T18:22:05Z</time>
      </trkpt>
      <trkpt lat="59.9255174" lon="17.6413682">
        <ele>20.325</ele>
        <time>2014-05-16T18:22:06Z</time>
      </trkpt>
      <trkpt lat="59.9256194" lon="17.6413572">
        <ele>20.325</ele>
        <time>2014-05-16T18:22:07Z</time>
      </trkpt>
      <trkpt lat="59.9257219" lon="17.6413438">
        <ele>19.8444</ele>
        <time>2014-05-16T18:22:08Z</time>
      </trkpt>
      <trkpt lat="59.9258244" lon="17.6413301">
        <ele>19.8444</ele>
        <time>2014-05-16T18:22:09Z</time>
      </trkpt>
      <trkpt lat="59.9259271" lon="17.6413162">
        <ele>19.8444</ele>
        <time>2014-05-16T18:22:10Z</time>
      </trkpt>
      <trkpt lat="59.9260298" lon="17.6413018">
        <ele>19.8444</ele>
        <time>2014-05-16T18:22:11Z</time>
      </trkpt>
      <trkpt lat="59.9261332" lon="17.6412876">
        <ele>19.8444</ele>
        <time>2014-05-16T18:22:12Z</time>
      </trkpt>
      <trkpt lat="59.9262369" lon="17.6412739">
        <ele>19.8444</ele>
        <time>2014-05-16T18:22:13Z</time>
      </trkpt>
      <trkpt lat="59.9263413" lon="17.6412618">
        <ele>19.8444</ele>
        <time>2014-05-16T18:22:14Z</time>
      </trkpt>
      <trkpt lat="59.9264457" lon="17.6412494">
        <ele>19.8444</ele>
        <time>2014-05-16T18:22:15Z</time>
      </trkpt>
      <trkpt lat="59.92655" lon="17.6412365">
        <ele>19.8444</ele>
        <time>2014-05-16T18:22:16Z</time>
      </trkpt>
      <trkpt lat="59.9266536" lon="17.6412238">
        <ele>19.8444</ele>
        <time>2014-05-16T18:22:17Z</time>
      </trkpt>
      <trkpt lat="59.9267569" lon="17.6412106">
        <ele>19.8444</ele>
        <time>2014-05-16T18:22:18Z</time>
      </trkpt>
      <trkpt lat="59.9268606" lon="17.6411982">
        <ele>19.8444</ele>
        <time>2014-05-16T18:22:19Z</time>
      </trkpt>
      <trkpt lat="59.926965" lon="17.6411879">
        <ele>19.8444</ele>
        <time>2014-05-16T18:22:20Z</time>
      </trkpt>
      <trkpt lat="59.9270694" lon="17.641178">
        <ele>19.8444</ele>
        <time>2014-05-16T18:22:21Z</time>
      </trkpt>
      <trkpt lat="59.9271739" lon="17.6411676">
        <ele>19.8444</ele>
        <time>2014-05-16T18:22:22Z</time>
      </trkpt>
      <trkpt lat="59.9272781" lon="17.6411594">
        <ele>19.8444</ele>
        <time>2014-05-16T18:22:23Z</time>
      </trkpt>
      <trkpt lat="59.9273827" lon="17.641152">
        <ele>19.8444</ele>
        <time>2014-05-16T18:22:24Z</time>
      </trkpt>
      <trkpt lat="59.9274879" lon="17.6411439">
        <ele>19.8444</ele>
        <time>2014-05-16T18:22:25Z</time>
      </trkpt>
      <trkpt lat="59.9275936" lon="17.641135">
        <ele>19.8444</ele>
        <time>2014-05-16T18:22:26Z</time>
      </trkpt>
      <trkpt lat="59.9276998" lon="17.6411239">
        <ele>19.8444</ele>
        <time>2014-05-16T18:22:27Z</time>
      </trkpt>
      <trkpt lat="59.9278062" lon="17.6411117">
        <ele>19.8444</ele>
        <time>2014-05-16T18:22:28Z</time>
      </trkpt>
      <trkpt lat="59.9279116" lon="17.6411006">
        <ele>20.325</ele>
        <time>2014-05-16T18:22:29Z</time>
      </trkpt>
      <trkpt lat="59.9280139" lon="17.6410897">
        <ele>20.325</ele>
        <time>2014-05-16T18:22:30Z</time>
      </trkpt>
      <trkpt lat="59.9281146" lon="17.641079">
        <ele>20.325</ele>
        <time>2014-05-16T18:22:31Z</time>
      </trkpt>
      <trkpt lat="59.9282131" lon="17.6410676">
        <ele>20.325</ele>
        <time>2014-05-16T18:22:32Z</time>
      </trkpt>
      <trkpt lat="59.9283093" lon="17.6410587">
        <ele>20.325</ele>
        <time>2014-05-16T18:22:33Z</time>
      </trkpt>
      <trkpt lat="59.9284043" lon="17.6410479">
        <ele>20.325</ele>
        <time>2014-05-16T18:22:34Z</time>
      </trkpt>
      <trkpt lat="59.9284989" lon="17.6410334">
        <ele>20.325</ele>
        <time>2014-05-16T18:22:35Z</time>
      </trkpt>
      <trkpt lat="59.9285922" lon="17.6410184">
        <ele>20.325</ele>
        <time>2014-05-16T18:22:36Z</time>
      </trkpt>
      <trkpt lat="59.9286849" lon="17.6410008">
        <ele>20.325</ele>
        <time>2014-05-16T18:22:37Z</time>
      </trkpt>
      <trkpt lat="59.9287781" lon="17.6409814">
        <ele>20.325</ele>
        <time>2014-05-16T18:22:38Z</time>
      </trkpt>
      <trkpt lat="59.9289677" lon="17.6409457">
        <ele>19.8444</ele>
        <time>2014-05-16T18:22:39Z</time>
      </trkpt>
      <trkpt lat="59.9290626" lon="17.6409334">
        <ele>19.8444</ele>
        <time>2014-05-16T18:22:40Z</time>
      </trkpt>
      <trkpt lat="59.9291574" lon="17.6409267">
        <ele>19.8444</ele>
        <time>2014-05-16T18:22:41Z</time>
      </trkpt>
      <trkpt lat="59.9292521" lon="17.6409236">
        <ele>19.8444</ele>
        <time>2014-05-16T18:22:42Z</time>
      </trkpt>
      <trkpt lat="59.9293459" lon="17.640921">
        <ele>19.8444</ele>
        <time>2014-05-16T18:22:43Z</time>
      </trkpt>
      <trkpt lat="59.9294398" lon="17.6409147">
        <ele>19.8444</ele>
        <time>2014-05-16T18:22:44Z</time>
      </trkpt>
      <trkpt lat="59.9295334" lon="17.6409024">
        <ele>19.8444</ele>
        <time>2014-05-16T18:22:45Z</time>
      </trkpt>
      <trkpt lat="59.9296261" lon="17.6408833">
        <ele>19.8444</ele>
        <time>2014-05-16T18:22:46Z</time>
      </trkpt>
      <trkpt lat="59.9297182" lon="17.6408612">
        <ele>20.325</ele>
        <time>2014-05-16T18:22:47Z</time>
      </trkpt>
      <trkpt lat="59.9298088" lon="17.6408428">
        <ele>20.325</ele>
        <time>2014-05-16T18:22:48Z</time>
      </trkpt>
      <trkpt lat="59.9298996" lon="17.6408333">
        <ele>20.325</ele>
        <time>2014-05-16T18:22:49Z</time>
      </trkpt>
      <trkpt lat="59.9299933" lon="17.6408317">
        <ele>19.8444</ele>
        <time>2014-05-16T18:22:50Z</time>
      </trkpt>
      <trkpt lat="59.9300877" lon="17.6408324">
        <ele>19.8444</ele>
        <time>2014-05-16T18:22:51Z</time>
      </trkpt>
      <trkpt lat="59.9301815" lon="17.6408341">
        <ele>20.325</ele>
        <time>2014-05-16T18:22:52Z</time>
      </trkpt>
      <trkpt lat="59.9302746" lon="17.6408374">
        <ele>20.325</ele>
        <time>2014-05-16T18:22:53Z</time>
      </trkpt>
      <trkpt lat="59.9303673" lon="17.6408408">
        <ele>20.325</ele>
        <time>2014-05-16T18:22:54Z</time>
      </trkpt>
      <trkpt lat="59.9304585" lon="17.6408434">
        <ele>20.325</ele>
        <time>2014-05-16T18:22:55Z</time>
      </trkpt>
      <trkpt lat="59.9305475" lon="17.6408397">
        <ele>20.8057</ele>
        <time>2014-05-16T18:22:56Z</time>
      </trkpt>
      <trkpt lat="59.9306342" lon="17.6408273">
        <ele>20.8057</ele>
        <time>2014-05-16T18:22:57Z</time>
      </trkpt>
      <trkpt lat="59.9307197" lon="17.6408132">
        <ele>21.2864</ele>
        <time>2014-05-16T18:22:58Z</time>
      </trkpt>
      <trkpt lat="59.9308045" lon="17.6408092">
        <ele>21.2864</ele>
        <time>2014-05-16T18:22:59Z</time>
      </trkpt>
      <trkpt lat="59.9308917" lon="17.6408209">
        <ele>21.2864</ele>
        <time>2014-05-16T18:23:00Z</time>
      </trkpt>
      <trkpt lat="59.9309793" lon="17.6408506">
        <ele>21.2864</ele>
        <time>2014-05-16T18:23:01Z</time>
      </trkpt>
      <trkpt lat="59.931065" lon="17.6408996">
        <ele>21.2864</ele>
        <time>2014-05-16T18:23:02Z</time>
      </trkpt>
      <trkpt lat="59.931149" lon="17.6409593">
        <ele>21.2864</ele>
        <time>2014-05-16T18:23:03Z</time>
      </trkpt>
      <trkpt lat="59.9312308" lon="17.6410232">
        <ele>21.767</ele>
        <time>2014-05-16T18:23:04Z</time>
      </trkpt>
      <trkpt lat="59.931309" lon="17.6410863">
        <ele>22.2476</ele>
        <time>2014-05-16T18:23:05Z</time>
      </trkpt>
      <trkpt lat="59.9313848" lon="17.6411434">
        <ele>22.7283</ele>
        <time>2014-05-16T18:23:06Z</time>
      </trkpt>
      <trkpt lat="59.9314614" lon="17.641199">
        <ele>22.7283</ele>
        <time>2014-05-16T18:23:07Z</time>
      </trkpt>
      <trkpt lat="59.9315407" lon="17.641257">
        <ele>22.7283</ele>
        <time>2014-05-16T18:23:08Z</time>
      </trkpt>
      <trkpt lat="59.9316215" lon="17.6413152">
        <ele>22.7283</ele>
        <time>2014-05-16T18:23:09Z</time>
      </trkpt>
      <trkpt lat="59.9317037" lon="17.6413744">
        <ele>22.7283</ele>
        <time>2014-05-16T18:23:10Z</time>
      </trkpt>
      <trkpt lat="59.9317872" lon="17.6414365">
        <ele>22.7283</ele>
        <time>2014-05-16T18:23:11Z</time>
      </trkpt>
      <trkpt lat="59.9318697" lon="17.6414955">
        <ele>22.7283</ele>
        <time>2014-05-16T18:23:12Z</time>
      </trkpt>
      <trkpt lat="59.9319496" lon="17.6415457">
        <ele>23.209</ele>
        <time>2014-05-16T18:23:13Z</time>
      </trkpt>
      <trkpt lat="59.9320256" lon="17.6415975">
        <ele>23.6896</ele>
        <time>2014-05-16T18:23:14Z</time>
      </trkpt>
      <trkpt lat="59.9320961" lon="17.6416597">
        <ele>23.209</ele>
        <time>2014-05-16T18:23:15Z</time>
      </trkpt>
      <trkpt lat="59.9321677" lon="17.641731">
        <ele>23.209</ele>
        <time>2014-05-16T18:23:16Z</time>
      </trkpt>
      <trkpt lat="59.932242" lon="17.6418045">
        <ele>22.7283</ele>
        <time>2014-05-16T18:23:17Z</time>
      </trkpt>
      <trkpt lat="59.9323182" lon="17.6418747">
        <ele>22.7283</ele>
        <time>2014-05-16T18:23:18Z</time>
      </trkpt>
      <trkpt lat="59.9323963" lon="17.641942">
        <ele>22.7283</ele>
        <time>2014-05-16T18:23:19Z</time>
      </trkpt>
      <trkpt lat="59.9324741" lon="17.6420128">
        <ele>22.7283</ele>
        <time>2014-05-16T18:23:20Z</time>
      </trkpt>
      <trkpt lat="59.9325497" lon="17.6420901">
        <ele>22.7283</ele>
        <time>2014-05-16T18:23:21Z</time>
      </trkpt>
      <trkpt lat="59.9326232" lon="17.642172">
        <ele>22.7283</ele>
        <time>2014-05-16T18:23:22Z</time>
      </trkpt>
      <trkpt lat="59.9326942" lon="17.6422588">
        <ele>23.209</ele>
        <time>2014-05-16T18:23:23Z</time>
      </trkpt>
      <trkpt lat="59.932761" lon="17.6423528">
        <ele>23.209</ele>
        <time>2014-05-16T18:23:24Z</time>
      </trkpt>
      <trkpt lat="59.9328209" lon="17.6424572">
        <ele>23.209</ele>
        <time>2014-05-16T18:23:25Z</time>
      </trkpt>
      <trkpt lat="59.9328772" lon="17.642566">
        <ele>23.209</ele>
        <time>2014-05-16T18:23:26Z</time>
      </trkpt>
      <trkpt lat="59.9329362" lon="17.6426657">
        <ele>23.6896</ele>
        <time>2014-05-16T18:23:27Z</time>
      </trkpt>
      <trkpt lat="59.9329989" lon="17.642753">
        <ele>23.6896</ele>
        <time>2014-05-16T18:23:28Z</time>
      </trkpt>
      <trkpt lat="59.9330616" lon="17.6428343">
        <ele>24.1703</ele>
        <time>2014-05-16T18:23:29Z</time>
      </trkpt>
      <trkpt lat="59.9331223" lon="17.6429155">
        <ele>24.1703</ele>
        <time>2014-05-16T18:23:30Z</time>
      </trkpt>
      <trkpt lat="59.9331792" lon="17.6429986">
        <ele>24.1703</ele>
        <time>2014-05-16T18:23:31Z</time>
      </trkpt>
      <trkpt lat="59.9332315" lon="17.6430816">
        <ele>24.651</ele>
        <time>2014-05-16T18:23:32Z</time>
      </trkpt>
      <trkpt lat="59.9332803" lon="17.6431645">
        <ele>25.1317</ele>
        <time>2014-05-16T18:23:33Z</time>
      </trkpt>
      <trkpt lat="59.9333259" lon="17.6432458">
        <ele>25.1317</ele>
        <time>2014-05-16T18:23:34Z</time>
      </trkpt>
      <trkpt lat="59.9333717" lon="17.6433225">
        <ele>25.6123</ele>
        <time>2014-05-16T18:23:35Z</time>
      </trkpt>
      <trkpt lat="59.933418" lon="17.643393">
        <ele>25.6123</ele>
        <time>2014-05-16T18:23:36Z</time>
      </trkpt>
      <trkpt lat="59.9334662" lon="17.6434582">
        <ele>26.0929</ele>
        <time>2014-05-16T18:23:37Z</time>
      </trkpt>
      <trkpt lat="59.9335118" lon="17.6435339">
        <ele>26.5736</ele>
        <time>2014-05-16T18:23:38Z</time>
      </trkpt>
      <trkpt lat="59.933558" lon="17.6436012">
        <ele>27.0543</ele>
        <time>2014-05-16T18:23:39Z</time>
      </trkpt>
      <trkpt lat="59.9336086" lon="17.6436618">
        <ele>27.5349</ele>
        <time>2014-05-16T18:23:40Z</time>
      </trkpt>
      <trkpt lat="59.9336599" lon="17.6437184">
        <ele>28.0155</ele>
        <time>2014-05-16T18:23:41Z</time>
      </trkpt>
      <trkpt lat="59.9337126" lon="17.6437746">
        <ele>28.0155</ele>
        <time>2014-05-16T18:23:42Z</time>
      </trkpt>
      <trkpt lat="59.9337675" lon="17.6438271">
        <ele>28.4962</ele>
        <time>2014-05-16T18:23:43Z</time>
      </trkpt>
      <trkpt lat="59.9338235" lon="17.6438758">
        <ele>28.4962</ele>
        <time>2014-05-16T18:23:44Z</time>
      </trkpt>
      <trkpt lat="59.9338812" lon="17.6439281">
        <ele>28.4962</ele>
        <time>2014-05-16T18:23:45Z</time>
      </trkpt>
      <trkpt lat="59.9339376" lon="17.643988">
        <ele>28.4962</ele>
        <time>2014-05-16T18:23:46Z</time>
      </trkpt>
      <trkpt lat="59.933993" lon="17.6440564">
        <ele>28.4962</ele>
        <time>2014-05-16T18:23:47Z</time>
      </trkpt>
      <trkpt lat="59.9340495" lon="17.6441317">
        <ele>28.4962</ele>
        <time>2014-05-16T18:23:48Z</time>
      </trkpt>
      <trkpt lat="59.9341091" lon="17.6442091">
        <ele>28.4962</ele>
        <time>2014-05-16T18:23:49Z</time>
      </trkpt>
      <trkpt lat="59.9341681" lon="17.6442844">
        <ele>28.4962</ele>
        <time>2014-05-16T18:23:50Z</time>
      </trkpt>
      <trkpt lat="59.9342242" lon="17.644357">
        <ele>28.4962</ele>
        <time>2014-05-16T18:23:51Z</time>
      </trkpt>
      <trkpt lat="59.9342787" lon="17.6444293">
        <ele>28.4962</ele>
        <time>2014-05-16T18:23:52Z</time>
      </trkpt>
      <trkpt lat="59.9343314" lon="17.6445003">
        <ele>28.9769</ele>
        <time>2014-05-16T18:23:53Z</time>
      </trkpt>
      <trkpt lat="59.93438" lon="17.6445726">
        <ele>28.9769</ele>
        <time>2014-05-16T18:23:54Z</time>
      </trkpt>
      <trkpt lat="59.9344222" lon="17.6446479">
        <ele>29.4575</ele>
        <time>2014-05-16T18:23:55Z</time>
      </trkpt>
      <trkpt lat="59.9344598" lon="17.644718">
        <ele>29.4575</ele>
        <time>2014-05-16T18:23:56Z</time>
      </trkpt>
      <trkpt lat="59.934498" lon="17.6447807">
        <ele>29.4575</ele>
        <time>2014-05-16T18:23:57Z</time>
      </trkpt>
      <trkpt lat="59.9345383" lon="17.6448392">
        <ele>29.4575</ele>
        <time>2014-05-16T18:23:58Z</time>
      </trkpt>
      <trkpt lat="59.9345805" lon="17.6448948">
        <ele>29.4575</ele>
        <time>2014-05-16T18:23:59Z</time>
      </trkpt>
      <trkpt lat="59.934624" lon="17.6449474">
        <ele>29.9381</ele>
        <time>2014-05-16T18:24:00Z</time>
      </trkpt>
      <trkpt lat="59.9346676" lon="17.6450001">
        <ele>29.9381</ele>
        <time>2014-05-16T18:24:01Z</time>
      </trkpt>
      <trkpt lat="59.9347115" lon="17.6450563">
        <ele>29.9381</ele>
        <time>2014-05-16T18:24:02Z</time>
      </trkpt>
      <trkpt lat="59.934755" lon="17.6451144">
        <ele>29.9381</ele>
        <time>2014-05-16T18:24:03Z</time>
      </trkpt>
      <trkpt lat="59.9347995" lon="17.6451721">
        <ele>29.9381</ele>
        <time>2014-05-16T18:24:04Z</time>
      </trkpt>
      <trkpt lat="59.9348452" lon="17.6452252">
        <ele>29.9381</ele>
        <time>2014-05-16T18:24:05Z</time>
      </trkpt>
      <trkpt lat="59.9348922" lon="17.645279">
        <ele>29.9381</ele>
        <time>2014-05-16T18:24:06Z</time>
      </trkpt>
      <trkpt lat="59.934939" lon="17.6453355">
        <ele>29.9381</ele>
        <time>2014-05-16T18:24:07Z</time>
      </trkpt>
      <trkpt lat="59.9349866" lon="17.645396">
        <ele>29.9381</ele>
        <time>2014-05-16T18:24:08Z</time>
      </trkpt>
      <trkpt lat="59.9350328" lon="17.6454645">
        <ele>29.9381</ele>
        <time>2014-05-16T18:24:09Z</time>
      </trkpt>
      <trkpt lat="59.9350754" lon="17.6455449">
        <ele>29.9381</ele>
        <time>2014-05-16T18:24:10Z</time>
      </trkpt>
      <trkpt lat="59.9351124" lon="17.6456375">
        <ele>29.9381</ele>
        <time>2014-05-16T18:24:11Z</time>
      </trkpt>
      <trkpt lat="59.9351487" lon="17.6457313">
        <ele>29.9381</ele>
        <time>2014-05-16T18:24:12Z</time>
      </trkpt>
      <trkpt lat="59.9351911" lon="17.6458183">
        <ele>29.9381</ele>
        <time>2014-05-16T18:24:13Z</time>
      </trkpt>
      <trkpt lat="59.9352388" lon="17.6458991">
        <ele>29.9381</ele>
        <time>2014-05-16T18:24:14Z</time>
      </trkpt>
      <trkpt lat="59.9352902" lon="17.6459757">
        <ele>29.9381</ele>
        <time>2014-05-16T18:24:15Z</time>
      </trkpt>
      <trkpt lat="59.9353451" lon="17.6460483">
        <ele>29.9381</ele>
        <time>2014-05-16T18:24:16Z</time>
      </trkpt>
      <trkpt lat="59.935402" lon="17.6461187">
        <ele>29.9381</ele>
        <time>2014-05-16T18:24:17Z</time>
      </trkpt>
      <trkpt lat="59.9354583" lon="17.6461902">
        <ele>29.9381</ele>
        <time>2014-05-16T18:24:18Z</time>
      </trkpt>
      <trkpt lat="59.9355154" lon="17.6462613">
        <ele>29.9381</ele>
        <time>2014-05-16T18:24:19Z</time>
      </trkpt>
      <trkpt lat="59.9355746" lon="17.6463332">
        <ele>29.9381</ele>
        <time>2014-05-16T18:24:20Z</time>
      </trkpt>
      <trkpt lat="59.9356333" lon="17.6464073">
        <ele>29.9381</ele>
        <time>2014-05-16T18:24:21Z</time>
      </trkpt>
      <trkpt lat="59.9356919" lon="17.6464819">
        <ele>29.9381</ele>
        <time>2014-05-16T18:24:22Z</time>
      </trkpt>
      <trkpt lat="59.9357506" lon="17.6465573">
        <ele>29.9381</ele>
        <time>2014-05-16T18:24:23Z</time>
      </trkpt>
      <trkpt lat="59.9358097" lon="17.6466319">
        <ele>29.9381</ele>
        <time>2014-05-16T18:24:24Z</time>
      </trkpt>
      <trkpt lat="59.9358692" lon="17.6467057">
        <ele>29.9381</ele>
        <time>2014-05-16T18:24:25Z</time>
      </trkpt>
      <trkpt lat="59.9359288" lon="17.6467806">
        <ele>29.9381</ele>
        <time>2014-05-16T18:24:26Z</time>
      </trkpt>
      <trkpt lat="59.9359889" lon="17.6468559">
        <ele>29.9381</ele>
        <time>2014-05-16T18:24:27Z</time>
      </trkpt>
      <trkpt lat="59.93605" lon="17.6469319">
        <ele>30.4188</ele>
        <time>2014-05-16T18:24:28Z</time>
      </trkpt>
      <trkpt lat="59.9361117" lon="17.6470091">
        <ele>29.9381</ele>
        <time>2014-05-16T18:24:29Z</time>
      </trkpt>
      <trkpt lat="59.9361743" lon="17.6470885">
        <ele>30.4188</ele>
        <time>2014-05-16T18:24:30Z</time>
      </trkpt>
      <trkpt lat="59.9362376" lon="17.6471681">
        <ele>30.4188</ele>
        <time>2014-05-16T18:24:31Z</time>
      </trkpt>
      <trkpt lat="59.9363021" lon="17.647248">
        <ele>30.4188</ele>
        <time>2014-05-16T18:24:32Z</time>
      </trkpt>
      <trkpt lat="59.9363659" lon="17.6473286">
        <ele>30.4188</ele>
        <time>2014-05-16T18:24:33Z</time>
      </trkpt>
      <trkpt lat="59.9364296" lon="17.6474099">
        <ele>30.4188</ele>
        <time>2014-05-16T18:24:34Z</time>
      </trkpt>
      <trkpt lat="59.9364943" lon="17.6474907">
        <ele>30.4188</ele>
        <time>2014-05-16T18:24:35Z</time>
      </trkpt>
      <trkpt lat="59.9365592" lon="17.6475718">
        <ele>29.9381</ele>
        <time>2014-05-16T18:24:36Z</time>
      </trkpt>
      <trkpt lat="59.936624" lon="17.6476539">
        <ele>29.9381</ele>
        <time>2014-05-16T18:24:37Z</time>
      </trkpt>
      <trkpt lat="59.9366887" lon="17.6477364">
        <ele>29.9381</ele>
        <time>2014-05-16T18:24:38Z</time>
      </trkpt>
      <trkpt lat="59.9367535" lon="17.6478197">
        <ele>29.9381</ele>
        <time>2014-05-16T18:24:39Z</time>
      </trkpt>
      <trkpt lat="59.9368186" lon="17.6479053">
        <ele>29.9381</ele>
        <time>2014-05-16T18:24:40Z</time>
      </trkpt>
      <trkpt lat="59.9368845" lon="17.6479919">
        <ele>29.4575</ele>
        <time>2014-05-16T18:24:41Z</time>
      </trkpt>
      <trkpt lat="59.9369519" lon="17.6480789">
        <ele>29.4575</ele>
        <time>2014-05-16T18:24:42Z</time>
      </trkpt>
      <trkpt lat="59.9370197" lon="17.6481665">
        <ele>29.4575</ele>
        <time>2014-05-16T18:24:43Z</time>
      </trkpt>
      <trkpt lat="59.9370881" lon="17.6482541">
        <ele>29.4575</ele>
        <time>2014-05-16T18:24:44Z</time>
      </trkpt>
      <trkpt lat="59.9371564" lon="17.6483439">
        <ele>28.9769</ele>
        <time>2014-05-16T18:24:45Z</time>
      </trkpt>
      <trkpt lat="59.9372247" lon="17.6484368">
        <ele>28.9769</ele>
        <time>2014-05-16T18:24:46Z</time>
      </trkpt>
      <trkpt lat="59.9372934" lon="17.6485337">
        <ele>28.9769</ele>
        <time>2014-05-16T18:24:47Z</time>
      </trkpt>
      <trkpt lat="59.9373623" lon="17.6486331">
        <ele>28.4962</ele>
        <time>2014-05-16T18:24:48Z</time>
      </trkpt>
      <trkpt lat="59.9374306" lon="17.6487348">
        <ele>28.4962</ele>
        <time>2014-05-16T18:24:49Z</time>
      </trkpt>
      <trkpt lat="59.9374979" lon="17.6488402">
        <ele>28.4962</ele>
        <time>2014-05-16T18:24:50Z</time>
      </trkpt>
      <trkpt lat="59.9375642" lon="17.6489492">
        <ele>28.4962</ele>
        <time>2014-05-16T18:24:51Z</time>
      </trkpt>
      <trkpt lat="59.9376282" lon="17.6490636">
        <ele>28.4962</ele>
        <time>2014-05-16T18:24:52Z</time>
      </trkpt>
      <trkpt lat="59.9376904" lon="17.6491833">
        <ele>28.4962</ele>
        <time>2014-05-16T18:24:53Z</time>
      </trkpt>
      <trkpt lat="59.9377502" lon="17.6493092">
        <ele>28.4962</ele>
        <time>2014-05-16T18:24:54Z</time>
      </trkpt>
      <trkpt lat="59.9378031" lon="17.649448">
        <ele>28.0155</ele>
        <time>2014-05-16T18:24:55Z</time>
      </trkpt>
      <trkpt lat="59.9378531" lon="17.649593">
        <ele>28.0155</ele>
        <time>2014-05-16T18:24:56Z</time>
      </trkpt>
      <trkpt lat="59.9379051" lon="17.6497338">
        <ele>28.0155</ele>
        <time>2014-05-16T18:24:57Z</time>
      </trkpt>
      <trkpt lat="59.937958" lon="17.6498742">
        <ele>28.0155</ele>
        <time>2014-05-16T18:24:58Z</time>
      </trkpt>
      <trkpt lat="59.9380108" lon="17.6500162">
        <ele>28.0155</ele>
        <time>2014-05-16T18:24:59Z</time>
      </trkpt>
      <trkpt lat="59.9380644" lon="17.6501595">
        <ele>28.0155</ele>
        <time>2014-05-16T18:25:00Z</time>
      </trkpt>
      <trkpt lat="59.9381178" lon="17.6503056">
        <ele>28.0155</ele>
        <time>2014-05-16T18:25:01Z</time>
      </trkpt>
      <trkpt lat="59.9381702" lon="17.6504546">
        <ele>28.0155</ele>
        <time>2014-05-16T18:25:02Z</time>
      </trkpt>
      <trkpt lat="59.9382239" lon="17.6506022">
        <ele>28.0155</ele>
        <time>2014-05-16T18:25:03Z</time>
      </trkpt>
      <trkpt lat="59.9382812" lon="17.6507454">
        <ele>27.5349</ele>
        <time>2014-05-16T18:25:04Z</time>
      </trkpt>
      <trkpt lat="59.9383417" lon="17.6508844">
        <ele>27.5349</ele>
        <time>2014-05-16T18:25:05Z</time>
      </trkpt>
      <trkpt lat="59.9384028" lon="17.6510222">
        <ele>27.5349</ele>
        <time>2014-05-16T18:25:06Z</time>
      </trkpt>
      <trkpt lat="59.9384608" lon="17.6511641">
        <ele>28.0155</ele>
        <time>2014-05-16T18:25:07Z</time>
      </trkpt>
      <trkpt lat="59.9385133" lon="17.6513114">
        <ele>28.0155</ele>
        <time>2014-05-16T18:25:08Z</time>
      </trkpt>
      <trkpt lat="59.9385627" lon="17.6514616">
        <ele>28.0155</ele>
        <time>2014-05-16T18:25:09Z</time>
      </trkpt>
      <trkpt lat="59.93861" lon="17.6516132">
        <ele>28.0155</ele>
        <time>2014-05-16T18:25:10Z</time>
      </trkpt>
      <trkpt lat="59.9386561" lon="17.651765">
        <ele>28.0155</ele>
        <time>2014-05-16T18:25:11Z</time>
      </trkpt>
      <trkpt lat="59.9387011" lon="17.6519173">
        <ele>28.0155</ele>
        <time>2014-05-16T18:25:12Z</time>
      </trkpt>
      <trkpt lat="59.9387447" lon="17.6520705">
        <ele>28.0155</ele>
        <time>2014-05-16T18:25:13Z</time>
      </trkpt>
      <trkpt lat="59.9387877" lon="17.6522251">
        <ele>28.0155</ele>
        <time>2014-05-16T18:25:14Z</time>
      </trkpt>
      <trkpt lat="59.9388307" lon="17.652381">
        <ele>28.0155</ele>
        <time>2014-05-16T18:25:15Z</time>
      </trkpt>
      <trkpt lat="59.9388735" lon="17.6525369">
        <ele>28.0155</ele>
        <time>2014-05-16T18:25:16Z</time>
      </trkpt>
      <trkpt lat="59.9389157" lon="17.6526924">
        <ele>28.0155</ele>
        <time>2014-05-16T18:25:17Z</time>
      </trkpt>
      <trkpt lat="59.9389572" lon="17.6528487">
        <ele>28.4962</ele>
        <time>2014-05-16T18:25:18Z</time>
      </trkpt>
      <trkpt lat="59.938997" lon="17.6530063">
        <ele>28.4962</ele>
        <time>2014-05-16T18:25:19Z</time>
      </trkpt>
      <trkpt lat="59.9390352" lon="17.6531651">
        <ele>28.4962</ele>
        <time>2014-05-16T18:25:20Z</time>
      </trkpt>
      <trkpt lat="59.9390724" lon="17.6533237">
        <ele>28.4962</ele>
        <time>2014-05-16T18:25:21Z</time>
      </trkpt>
      <trkpt lat="59.9391095" lon="17.6534828">
        <ele>28.4962</ele>
        <time>2014-05-16T18:25:22Z</time>
      </trkpt>
      <trkpt lat="59.9391465" lon="17.6536423">
        <ele>28.4962</ele>
        <time>2014-05-16T18:25:23Z</time>
      </trkpt>
      <trkpt lat="59.939182" lon="17.6538017">
        <ele>28.4962</ele>
        <time>2014-05-16T18:25:24Z</time>
      </trkpt>
      <trkpt lat="59.9392166" lon="17.6539612">
        <ele>28.4962</ele>
        <time>2014-05-16T18:25:25Z</time>
      </trkpt>
      <trkpt lat="59.9392503" lon="17.6541221">
        <ele>28.4962</ele>
        <time>2014-05-16T18:25:26Z</time>
      </trkpt>
      <trkpt lat="59.9392829" lon="17.6542836">
        <ele>28.4962</ele>
        <time>2014-05-16T18:25:27Z</time>
      </trkpt>
      <trkpt lat="59.9393149" lon="17.6544441">
        <ele>28.4962</ele>
        <time>2014-05-16T18:25:28Z</time>
      </trkpt>
      <trkpt lat="59.9393465" lon="17.6546048">
        <ele>28.4962</ele>
        <time>2014-05-16T18:25:29Z</time>
      </trkpt>
      <trkpt lat="59.9393775" lon="17.6547653">
        <ele>28.4962</ele>
        <time>2014-05-16T18:25:30Z</time>
      </trkpt>
      <trkpt lat="59.9394088" lon="17.6549234">
        <ele>28.4962</ele>
        <time>2014-05-16T18:25:31Z</time>
      </trkpt>
      <trkpt lat="59.9394399" lon="17.6550817">
        <ele>28.4962</ele>
        <time>2014-05-16T18:25:32Z</time>
      </trkpt>
      <trkpt lat="59.9394706" lon="17.6552388">
        <ele>28.4962</ele>
        <time>2014-05-16T18:25:33Z</time>
      </trkpt>
      <trkpt lat="59.9395026" lon="17.6553945">
        <ele>28.4962</ele>
        <time>2014-05-16T18:25:34Z</time>
      </trkpt>
      <trkpt lat="59.9395346" lon="17.6555496">
        <ele>28.0155</ele>
        <time>2014-05-16T18:25:35Z</time>
      </trkpt>
      <trkpt lat="59.9395671" lon="17.6557035">
        <ele>28.4962</ele>
        <time>2014-05-16T18:25:36Z</time>
      </trkpt>
      <trkpt lat="59.9395974" lon="17.6558543">
        <ele>28.4962</ele>
        <time>2014-05-16T18:25:37Z</time>
      </trkpt>
      <trkpt lat="59.9396269" lon="17.6560043">
        <ele>28.4962</ele>
        <time>2014-05-16T18:25:38Z</time>
      </trkpt>
      <trkpt lat="59.9396554" lon="17.6561542">
        <ele>28.4962</ele>
        <time>2014-05-16T18:25:39Z</time>
      </trkpt>
      <trkpt lat="59.9396848" lon="17.6563043">
        <ele>28.4962</ele>
        <time>2014-05-16T18:25:40Z</time>
      </trkpt>
      <trkpt lat="59.939715" lon="17.656454">
        <ele>28.0155</ele>
        <time>2014-05-16T18:25:41Z</time>
      </trkpt>
      <trkpt lat="59.939746" lon="17.6566037">
        <ele>28.0155</ele>
        <time>2014-05-16T18:25:42Z</time>
      </trkpt>
      <trkpt lat="59.9397769" lon="17.6567543">
        <ele>28.0155</ele>
        <time>2014-05-16T18:25:43Z</time>
      </trkpt>
      <trkpt lat="59.9398077" lon="17.6569073">
        <ele>28.0155</ele>
        <time>2014-05-16T18:25:44Z</time>
      </trkpt>
      <trkpt lat="59.9398382" lon="17.6570622">
        <ele>27.5349</ele>
        <time>2014-05-16T18:25:45Z</time>
      </trkpt>
      <trkpt lat="59.9398687" lon="17.657219">
        <ele>27.5349</ele>
        <time>2014-05-16T18:25:46Z</time>
      </trkpt>
      <trkpt lat="59.9398997" lon="17.6573772">
        <ele>27.5349</ele>
        <time>2014-05-16T18:25:47Z</time>
      </trkpt>
      <trkpt lat="59.939932" lon="17.6575367">
        <ele>27.0543</ele>
        <time>2014-05-16T18:25:48Z</time>
      </trkpt>
      <trkpt lat="59.9399655" lon="17.657696">
        <ele>27.0543</ele>
        <time>2014-05-16T18:25:49Z</time>
      </trkpt>
      <trkpt lat="59.9400002" lon="17.6578558">
        <ele>27.0543</ele>
        <time>2014-05-16T18:25:50Z</time>
      </trkpt>
      <trkpt lat="59.9400351" lon="17.6580164">
        <ele>26.5736</ele>
        <time>2014-05-16T18:25:51Z</time>
      </trkpt>
      <trkpt lat="59.9400701" lon="17.6581789">
        <ele>26.5736</ele>
        <time>2014-05-16T18:25:52Z</time>
      </trkpt>
      <trkpt lat="59.9401056" lon="17.6583437">
        <ele>26.0929</ele>
        <time>2014-05-16T18:25:53Z</time>
      </trkpt>
      <trkpt lat="59.9401422" lon="17.6585102">
        <ele>26.0929</ele>
        <time>2014-05-16T18:25:54Z</time>
      </trkpt>
      <trkpt lat="59.9401792" lon="17.6586774">
        <ele>26.0929</ele>
        <time>2014-05-16T18:25:55Z</time>
      </trkpt>
      <trkpt lat="59.9402155" lon="17.658846">
        <ele>26.0929</ele>
        <time>2014-05-16T18:25:56Z</time>
      </trkpt>
      <trkpt lat="59.9402498" lon="17.659016">
        <ele>26.0929</ele>
        <time>2014-05-16T18:25:57Z</time>
      </trkpt>
      <trkpt lat="59.9402809" lon="17.6591845">
        <ele>26.0929</ele>
        <time>2014-05-16T18:25:58Z</time>
      </trkpt>
      <trkpt lat="59.940309" lon="17.6593504">
        <ele>26.0929</ele>
        <time>2014-05-16T18:25:59Z</time>
      </trkpt>
      <trkpt lat="59.940335" lon="17.6595129">
        <ele>26.5736</ele>
        <time>2014-05-16T18:26:00Z</time>
      </trkpt>
      <trkpt lat="59.9403618" lon="17.6596664">
        <ele>26.5736</ele>
        <time>2014-05-16T18:26:01Z</time>
      </trkpt>
      <trkpt lat="59.9403936" lon="17.6598143">
        <ele>26.5736</ele>
        <time>2014-05-16T18:26:02Z</time>
      </trkpt>
      <trkpt lat="59.9404265" lon="17.6599647">
        <ele>26.5736</ele>
        <time>2014-05-16T18:26:03Z</time>
      </trkpt>
      <trkpt lat="59.9404633" lon="17.6601106">
        <ele>27.0543</ele>
        <time>2014-05-16T18:26:04Z</time>
      </trkpt>
      <trkpt lat="59.9404971" lon="17.6602545">
        <ele>27.0543</ele>
        <time>2014-05-16T18:26:05Z</time>
      </trkpt>
      <trkpt lat="59.9405151" lon="17.660406">
        <ele>27.5349</ele>
        <time>2014-05-16T18:26:06Z</time>
      </trkpt>
      <trkpt lat="59.940504" lon="17.6605682">
        <ele>27.0543</ele>
        <time>2014-05-16T18:26:07Z</time>
      </trkpt>
      <trkpt lat="59.9404724" lon="17.6607305">
        <ele>27.0543</ele>
        <time>2014-05-16T18:26:08Z</time>
      </trkpt>
      <trkpt lat="59.9404354" lon="17.6608929">
        <ele>26.5736</ele>
        <time>2014-05-16T18:26:09Z</time>
      </trkpt>
      <trkpt lat="59.9404061" lon="17.6610591">
        <ele>26.5736</ele>
        <time>2014-05-16T18:26:10Z</time>
      </trkpt>
      <trkpt lat="59.940389" lon="17.66123">
        <ele>26.5736</ele>
        <time>2014-05-16T18:26:11Z</time>
      </trkpt>
      <trkpt lat="59.9403848" lon="17.6614031">
        <ele>26.5736</ele>
        <time>2014-05-16T18:26:12Z</time>
      </trkpt>
      <trkpt lat="59.9403936" lon="17.661571">
        <ele>26.0929</ele>
        <time>2014-05-16T18:26:13Z</time>
      </trkpt>
      <trkpt lat="59.940419" lon="17.661731">
        <ele>26.0929</ele>
        <time>2014-05-16T18:26:14Z</time>
      </trkpt>
      <trkpt lat="59.9404593" lon="17.6618714">
        <ele>26.0929</ele>
        <time>2014-05-16T18:26:15Z</time>
      </trkpt>
      <trkpt lat="59.9405187" lon="17.6619878">
        <ele>26.5736</ele>
        <time>2014-05-16T18:26:16Z</time>
      </trkpt>
      <trkpt lat="59.9405904" lon="17.6620745">
        <ele>27.0543</ele>
        <time>2014-05-16T18:26:17Z</time>
      </trkpt>
      <trkpt lat="59.9406681" lon="17.6621314">
        <ele>27.0543</ele>
        <time>2014-05-16T18:26:18Z</time>
      </trkpt>
      <trkpt lat="59.9407494" lon="17.6621611">
        <ele>27.5349</ele>
        <time>2014-05-16T18:26:19Z</time>
      </trkpt>
      <trkpt lat="59.9408312" lon="17.662177">
        <ele>27.5349</ele>
        <time>2014-05-16T18:26:20Z</time>
      </trkpt>
      <trkpt lat="59.9409134" lon="17.6621952">
        <ele>27.5349</ele>
        <time>2014-05-16T18:26:21Z</time>
      </trkpt>
      <trkpt lat="59.9409947" lon="17.662222">
        <ele>27.5349</ele>
        <time>2014-05-16T18:26:22Z</time>
      </trkpt>
      <trkpt lat="59.9410752" lon="17.6622578">
        <ele>27.5349</ele>
        <time>2014-05-16T18:26:23Z</time>
      </trkpt>
      <trkpt lat="59.9411546" lon="17.6623029">
        <ele>28.0155</ele>
        <time>2014-05-16T18:26:24Z</time>
      </trkpt>
      <trkpt lat="59.9412322" lon="17.6623573">
        <ele>28.0155</ele>
        <time>2014-05-16T18:26:25Z</time>
      </trkpt>
      <trkpt lat="59.9413073" lon="17.6624217">
        <ele>28.0155</ele>
        <time>2014-05-16T18:26:26Z</time>
      </trkpt>
      <trkpt lat="59.9413793" lon="17.6624955">
        <ele>28.0155</ele>
        <time>2014-05-16T18:26:27Z</time>
      </trkpt>
      <trkpt lat="59.9414486" lon="17.6625765">
        <ele>28.0155</ele>
        <time>2014-05-16T18:26:28Z</time>
      </trkpt>
      <trkpt lat="59.9415146" lon="17.6626635">
        <ele>28.4962</ele>
        <time>2014-05-16T18:26:29Z</time>
      </trkpt>
      <trkpt lat="59.9415765" lon="17.6627568">
        <ele>28.4962</ele>
        <time>2014-05-16T18:26:30Z</time>
      </trkpt>
      <trkpt lat="59.9416352" lon="17.6628568">
        <ele>28.4962</ele>
        <time>2014-05-16T18:26:31Z</time>
      </trkpt>
      <trkpt lat="59.9416922" lon="17.6629591">
        <ele>28.4962</ele>
        <time>2014-05-16T18:26:32Z</time>
      </trkpt>
      <trkpt lat="59.9417487" lon="17.6630598">
        <ele>28.4962</ele>
        <time>2014-05-16T18:26:33Z</time>
      </trkpt>
      <trkpt lat="59.9418056" lon="17.6631597">
        <ele>28.4962</ele>
        <time>2014-05-16T18:26:34Z</time>
      </trkpt>
      <trkpt lat="59.941863" lon="17.6632587">
        <ele>28.4962</ele>
        <time>2014-05-16T18:26:35Z</time>
      </trkpt>
      <trkpt lat="59.9419213" lon="17.6633558">
        <ele>28.4962</ele>
        <time>2014-05-16T18:26:36Z</time>
      </trkpt>
      <trkpt lat="59.9419807" lon="17.6634518">
        <ele>28.4962</ele>
        <time>2014-05-16T18:26:37Z</time>
      </trkpt>
      <trkpt lat="59.9420413" lon="17.6635476">
        <ele>28.4962</ele>
        <time>2014-05-16T18:26:38Z</time>
      </trkpt>
      <trkpt lat="59.9421025" lon="17.6636425">
        <ele>28.4962</ele>
        <time>2014-05-16T18:26:39Z</time>
      </trkpt>
      <trkpt lat="59.9421652" lon="17.6637348">
        <ele>28.4962</ele>
        <time>2014-05-16T18:26:40Z</time>
      </trkpt>
      <trkpt lat="59.942229" lon="17.6638253">
        <ele>28.4962</ele>
        <time>2014-05-16T18:26:41Z</time>
      </trkpt>
      <trkpt lat="59.9422942" lon="17.663917">
        <ele>28.4962</ele>
        <time>2014-05-16T18:26:42Z</time>
      </trkpt>
      <trkpt lat="59.9423608" lon="17.664008">
        <ele>28.4962</ele>
        <time>2014-05-16T18:26:43Z</time>
      </trkpt>
      <trkpt lat="59.9424288" lon="17.6640963">
        <ele>28.4962</ele>
        <time>2014-05-16T18:26:44Z</time>
      </trkpt>
      <trkpt lat="59.9424987" lon="17.6641831">
        <ele>28.4962</ele>
        <time>2014-05-16T18:26:45Z</time>
      </trkpt>
      <trkpt lat="59.9425701" lon="17.6642692">
        <ele>28.4962</ele>
        <time>2014-05-16T18:26:46Z</time>
      </trkpt>
      <trkpt lat="59.9426426" lon="17.6643549">
        <ele>28.0155</ele>
        <time>2014-05-16T18:26:47Z</time>
      </trkpt>
      <trkpt lat="59.9427157" lon="17.6644407">
        <ele>28.0155</ele>
        <time>2014-05-16T18:26:48Z</time>
      </trkpt>
      <trkpt lat="59.9427899" lon="17.6645241">
        <ele>28.0155</ele>
        <time>2014-05-16T18:26:49Z</time>
      </trkpt>
      <trkpt lat="59.9428655" lon="17.6646043">
        <ele>28.0155</ele>
        <time>2014-05-16T18:26:50Z</time>
      </trkpt>
      <trkpt lat="59.9429428" lon="17.6646826">
        <ele>28.0155</ele>
        <time>2014-05-16T18:26:51Z</time>
      </trkpt>
      <trkpt lat="59.943022" lon="17.6647602">
        <ele>27.5349</ele>
        <time>2014-05-16T18:26:52Z</time>
      </trkpt>
      <trkpt lat="59.9431027" lon="17.6648365">
        <ele>27.5349</ele>
        <time>2014-05-16T18:26:53Z</time>
      </trkpt>
      <trkpt lat="59.9431851" lon="17.6649106">
        <ele>27.5349</ele>
        <time>2014-05-16T18:26:54Z</time>
      </trkpt>
      <trkpt lat="59.9432693" lon="17.6649826">
        <ele>27.0543</ele>
        <time>2014-05-16T18:26:55Z</time>
      </trkpt>
      <trkpt lat="59.9433554" lon="17.665053">
        <ele>27.0543</ele>
        <time>2014-05-16T18:26:56Z</time>
      </trkpt>
      <trkpt lat="59.9434426" lon="17.6651203">
        <ele>26.5736</ele>
        <time>2014-05-16T18:26:57Z</time>
      </trkpt>
      <trkpt lat="59.9435316" lon="17.6651851">
        <ele>26.5736</ele>
        <time>2014-05-16T18:26:58Z</time>
      </trkpt>
      <trkpt lat="59.9436217" lon="17.6652505">
        <ele>26.0929</ele>
        <time>2014-05-16T18:26:59Z</time>
      </trkpt>
      <trkpt lat="59.9437138" lon="17.6653141">
        <ele>26.0929</ele>
        <time>2014-05-16T18:27:00Z</time>
      </trkpt>
      <trkpt lat="59.9438081" lon="17.6653706">
        <ele>26.0929</ele>
        <time>2014-05-16T18:27:01Z</time>
      </trkpt>
      <trkpt lat="59.943904" lon="17.6654227">
        <ele>25.6123</ele>
        <time>2014-05-16T18:27:02Z</time>
      </trkpt>
      <trkpt lat="59.944001" lon="17.6654737">
        <ele>25.6123</ele>
        <time>2014-05-16T18:27:03Z</time>
      </trkpt>
      <trkpt lat="59.9440992" lon="17.6655224">
        <ele>25.6123</ele>
        <time>2014-05-16T18:27:04Z</time>
      </trkpt>
      <trkpt lat="59.9441983" lon="17.6655685">
        <ele>25.1317</ele>
        <time>2014-05-16T18:27:05Z</time>
      </trkpt>
      <trkpt lat="59.9442986" lon="17.6656124">
        <ele>25.1317</ele>
        <time>2014-05-16T18:27:06Z</time>
      </trkpt>
      <trkpt lat="59.9444002" lon="17.6656528">
        <ele>25.1317</ele>
        <time>2014-05-16T18:27:07Z</time>
      </trkpt>
      <trkpt lat="59.9445024" lon="17.6656915">
        <ele>25.1317</ele>
        <time>2014-05-16T18:27:08Z</time>
      </trkpt>
      <trkpt lat="59.9446045" lon="17.6657293">
        <ele>25.1317</ele>
        <time>2014-05-16T18:27:09Z</time>
      </trkpt>
      <trkpt lat="59.9447066" lon="17.6657658">
        <ele>25.1317</ele>
        <time>2014-05-16T18:27:10Z</time>
      </trkpt>
      <trkpt lat="59.9448081" lon="17.6658031">
        <ele>25.1317</ele>
        <time>2014-05-16T18:27:11Z</time>
      </trkpt>
      <trkpt lat="59.9449086" lon="17.6658426">
        <ele>25.1317</ele>
        <time>2014-05-16T18:27:12Z</time>
      </trkpt>
      <trkpt lat="59.9450093" lon="17.6658822">
        <ele>25.1317</ele>
        <time>2014-05-16T18:27:13Z</time>
      </trkpt>
      <trkpt lat="59.9451093" lon="17.6659193">
        <ele>25.1317</ele>
        <time>2014-05-16T18:27:14Z</time>
      </trkpt>
      <trkpt lat="59.9452098" lon="17.6659554">
        <ele>25.1317</ele>
        <time>2014-05-16T18:27:15Z</time>
      </trkpt>
      <trkpt lat="59.9453103" lon="17.6659918">
        <ele>25.1317</ele>
        <time>2014-05-16T18:27:16Z</time>
      </trkpt>
      <trkpt lat="59.945411" lon="17.6660285">
        <ele>24.651</ele>
        <time>2014-05-16T18:27:17Z</time>
      </trkpt>
      <trkpt lat="59.9455128" lon="17.666065">
        <ele>24.651</ele>
        <time>2014-05-16T18:27:18Z</time>
      </trkpt>
      <trkpt lat="59.945615" lon="17.6661023">
        <ele>24.651</ele>
        <time>2014-05-16T18:27:19Z</time>
      </trkpt>
      <trkpt lat="59.9457177" lon="17.6661406">
        <ele>24.651</ele>
        <time>2014-05-16T18:27:20Z</time>
      </trkpt>
      <trkpt lat="59.9458212" lon="17.6661787">
        <ele>24.651</ele>
        <time>2014-05-16T18:27:21Z</time>
      </trkpt>
      <trkpt lat="59.9459247" lon="17.6662166">
        <ele>24.651</ele>
        <time>2014-05-16T18:27:22Z</time>
      </trkpt>
      <trkpt lat="59.9460274" lon="17.6662567">
        <ele>24.651</ele>
        <time>2014-05-16T18:27:23Z</time>
      </trkpt>
      <trkpt lat="59.9461299" lon="17.666302">
        <ele>24.651</ele>
        <time>2014-05-16T18:27:24Z</time>
      </trkpt>
      <trkpt lat="59.9462303" lon="17.6663542">
        <ele>24.651</ele>
        <time>2014-05-16T18:27:25Z</time>
      </trkpt>
      <trkpt lat="59.9463299" lon="17.6664126">
        <ele>24.651</ele>
        <time>2014-05-16T18:27:26Z</time>
      </trkpt>
      <trkpt lat="59.9464295" lon="17.6664693">
        <ele>24.1703</ele>
        <time>2014-05-16T18:27:27Z</time>
      </trkpt>
      <trkpt lat="59.9465309" lon="17.6665142">
        <ele>24.1703</ele>
        <time>2014-05-16T18:27:28Z</time>
      </trkpt>
      <trkpt lat="59.9466335" lon="17.6665408">
        <ele>24.1703</ele>
        <time>2014-05-16T18:27:29Z</time>
      </trkpt>
      <trkpt lat="59.9467367" lon="17.6665573">
        <ele>24.1703</ele>
        <time>2014-05-16T18:27:30Z</time>
      </trkpt>
      <trkpt lat="59.9468397" lon="17.6665846">
        <ele>24.1703</ele>
        <time>2014-05-16T18:27:31Z</time>
      </trkpt>
      <trkpt lat="59.9469416" lon="17.6666256">
        <ele>24.1703</ele>
        <time>2014-05-16T18:27:32Z</time>
      </trkpt>
      <trkpt lat="59.9470426" lon="17.6666687">
        <ele>24.1703</ele>
        <time>2014-05-16T18:27:33Z</time>
      </trkpt>
      <trkpt lat="59.947143" lon="17.6667117">
        <ele>24.1703</ele>
        <time>2014-05-16T18:27:34Z</time>
      </trkpt>
      <trkpt lat="59.9472432" lon="17.6667564">
        <ele>24.1703</ele>
        <time>2014-05-16T18:27:35Z</time>
      </trkpt>
      <trkpt lat="59.9473415" lon="17.6668037">
        <ele>24.1703</ele>
        <time>2014-05-16T18:27:36Z</time>
      </trkpt>
      <trkpt lat="59.9474384" lon="17.6668524">
        <ele>24.1703</ele>
        <time>2014-05-16T18:27:37Z</time>
      </trkpt>
      <trkpt lat="59.9475343" lon="17.6669018">
        <ele>24.1703</ele>
        <time>2014-05-16T18:27:38Z</time>
      </trkpt>
      <trkpt lat="59.9476295" lon="17.6669515">
        <ele>24.1703</ele>
        <time>2014-05-16T18:27:39Z</time>
      </trkpt>
      <trkpt lat="59.9477239" lon="17.667">
        <ele>23.6896</ele>
        <time>2014-05-16T18:27:40Z</time>
      </trkpt>
      <trkpt lat="59.9478188" lon="17.667047">
        <ele>23.6896</ele>
        <time>2014-05-16T18:27:41Z</time>
      </trkpt>
      <trkpt lat="59.9479138" lon="17.667095">
        <ele>23.6896</ele>
        <time>2014-05-16T18:27:42Z</time>
      </trkpt>
      <trkpt lat="59.9480083" lon="17.6671448">
        <ele>23.6896</ele>
        <time>2014-05-16T18:27:43Z</time>
      </trkpt>
      <trkpt lat="59.9481025" lon="17.6671956">
        <ele>23.6896</ele>
        <time>2014-05-16T18:27:44Z</time>
      </trkpt>
      <trkpt lat="59.9481968" lon="17.6672464">
        <ele>23.6896</ele>
        <time>2014-05-16T18:27:45Z</time>
      </trkpt>
      <trkpt lat="59.9482907" lon="17.6672974">
        <ele>23.6896</ele>
        <time>2014-05-16T18:27:46Z</time>
      </trkpt>
      <trkpt lat="59.9483827" lon="17.6673478">
        <ele>23.6896</ele>
        <time>2014-05-16T18:27:47Z</time>
      </trkpt>
      <trkpt lat="59.9484749" lon="17.6673979">
        <ele>23.6896</ele>
        <time>2014-05-16T18:27:48Z</time>
      </trkpt>
      <trkpt lat="59.9485657" lon="17.6674494">
        <ele>23.6896</ele>
        <time>2014-05-16T18:27:49Z</time>
      </trkpt>
      <trkpt lat="59.9486537" lon="17.6675017">
        <ele>23.6896</ele>
        <time>2014-05-16T18:27:50Z</time>
      </trkpt>
      <trkpt lat="59.9487413" lon="17.6675538">
        <ele>23.209</ele>
        <time>2014-05-16T18:27:51Z</time>
      </trkpt>
      <trkpt lat="59.9488292" lon="17.6676061">
        <ele>23.209</ele>
        <time>2014-05-16T18:27:52Z</time>
      </trkpt>
      <trkpt lat="59.9489169" lon="17.6676581">
        <ele>23.209</ele>
        <time>2014-05-16T18:27:53Z</time>
      </trkpt>
      <trkpt lat="59.9490049" lon="17.6677092">
        <ele>23.209</ele>
        <time>2014-05-16T18:27:54Z</time>
      </trkpt>
      <trkpt lat="59.9490928" lon="17.6677602">
        <ele>23.209</ele>
        <time>2014-05-16T18:27:55Z</time>
      </trkpt>
      <trkpt lat="59.9491809" lon="17.6678112">
        <ele>23.209</ele>
        <time>2014-05-16T18:27:56Z</time>
      </trkpt>
      <trkpt lat="59.9492691" lon="17.6678616">
        <ele>23.209</ele>
        <time>2014-05-16T18:27:57Z</time>
      </trkpt>
      <trkpt lat="59.9493582" lon="17.6679119">
        <ele>23.209</ele>
        <time>2014-05-16T18:27:58Z</time>
      </trkpt>
      <trkpt lat="59.9494477" lon="17.667961">
        <ele>22.7283</ele>
        <time>2014-05-16T18:27:59Z</time>
      </trkpt>
      <trkpt lat="59.949537" lon="17.6680079">
        <ele>22.7283</ele>
        <time>2014-05-16T18:28:00Z</time>
      </trkpt>
      <trkpt lat="59.9496269" lon="17.6680535">
        <ele>22.7283</ele>
        <time>2014-05-16T18:28:01Z</time>
      </trkpt>
      <trkpt lat="59.9497167" lon="17.6680973">
        <ele>22.7283</ele>
        <time>2014-05-16T18:28:02Z</time>
      </trkpt>
      <trkpt lat="59.9498068" lon="17.6681393">
        <ele>22.7283</ele>
        <time>2014-05-16T18:28:03Z</time>
      </trkpt>
      <trkpt lat="59.9498973" lon="17.6681791">
        <ele>22.7283</ele>
        <time>2014-05-16T18:28:04Z</time>
      </trkpt>
      <trkpt lat="59.9499881" lon="17.6682138">
        <ele>22.7283</ele>
        <time>2014-05-16T18:28:05Z</time>
      </trkpt>
      <trkpt lat="59.9500793" lon="17.6682424">
        <ele>22.7283</ele>
        <time>2014-05-16T18:28:06Z</time>
      </trkpt>
      <trkpt lat="59.9501708" lon="17.6682655">
        <ele>22.7283</ele>
        <time>2014-05-16T18:28:07Z</time>
      </trkpt>
      <trkpt lat="59.9502628" lon="17.6682843">
        <ele>22.7283</ele>
        <time>2014-05-16T18:28:08Z</time>
      </trkpt>
      <trkpt lat="59.9503558" lon="17.6682989">
        <ele>22.7283</ele>
        <time>2014-05-16T18:28:09Z</time>
      </trkpt>
      <trkpt lat="59.9504493" lon="17.6683082">
        <ele>22.2476</ele>
        <time>2014-05-16T18:28:10Z</time>
      </trkpt>
      <trkpt lat="59.9505429" lon="17.6683099">
        <ele>22.2476</ele>
        <time>2014-05-16T18:28:11Z</time>
      </trkpt>
      <trkpt lat="59.9506359" lon="17.6683026">
        <ele>22.2476</ele>
        <time>2014-05-16T18:28:12Z</time>
      </trkpt>
      <trkpt lat="59.9507283" lon="17.668288">
        <ele>22.2476</ele>
        <time>2014-05-16T18:28:13Z</time>
      </trkpt>
      <trkpt lat="59.9508189" lon="17.6682683">
        <ele>22.2476</ele>
        <time>2014-05-16T18:28:14Z</time>
      </trkpt>
      <trkpt lat="59.950908" lon="17.6682454">
        <ele>21.767</ele>
        <time>2014-05-16T18:28:15Z</time>
      </trkpt>
      <trkpt lat="59.9509967" lon="17.6682212">
        <ele>21.767</ele>
        <time>2014-05-16T18:28:16Z</time>
      </trkpt>
      <trkpt lat="59.9510849" lon="17.6681961">
        <ele>21.2864</ele>
        <time>2014-05-16T18:28:17Z</time>
      </trkpt>
      <trkpt lat="59.9511728" lon="17.6681689">
        <ele>21.2864</ele>
        <time>2014-05-16T18:28:18Z</time>
      </trkpt>
      <trkpt lat="59.9512603" lon="17.6681381">
        <ele>20.8057</ele>
        <time>2014-05-16T18:28:19Z</time>
      </trkpt>
      <trkpt lat="59.9513473" lon="17.6681057">
        <ele>20.8057</ele>
        <time>2014-05-16T18:28:20Z</time>
      </trkpt>
      <trkpt lat="59.9514344" lon="17.6680801">
        <ele>20.8057</ele>
        <time>2014-05-16T18:28:21Z</time>
      </trkpt>
      <trkpt lat="59.9515204" lon="17.6680756">
        <ele>20.8057</ele>
        <time>2014-05-16T18:28:22Z</time>
      </trkpt>
      <trkpt lat="59.9516038" lon="17.6681098">
        <ele>20.325</ele>
        <time>2014-05-16T18:28:23Z</time>
      </trkpt>
      <trkpt lat="59.9516764" lon="17.6681961">
        <ele>20.325</ele>
        <time>2014-05-16T18:28:24Z</time>
      </trkpt>
      <trkpt lat="59.9517318" lon="17.6683254">
        <ele>20.325</ele>
        <time>2014-05-16T18:28:25Z</time>
      </trkpt>
      <trkpt lat="59.9517732" lon="17.668476">
        <ele>19.8444</ele>
        <time>2014-05-16T18:28:26Z</time>
      </trkpt>
      <trkpt lat="59.9518053" lon="17.6686345">
        <ele>20.325</ele>
        <time>2014-05-16T18:28:27Z</time>
      </trkpt>
      <trkpt lat="59.951826" lon="17.6687971">
        <ele>20.325</ele>
        <time>2014-05-16T18:28:28Z</time>
      </trkpt>
      <trkpt lat="59.9518328" lon="17.6689615">
        <ele>20.325</ele>
        <time>2014-05-16T18:28:29Z</time>
      </trkpt>
      <trkpt lat="59.9518305" lon="17.6691229">
        <ele>20.325</ele>
        <time>2014-05-16T18:28:30Z</time>
      </trkpt>
      <trkpt lat="59.9518245" lon="17.6692808">
        <ele>20.325</ele>
        <time>2014-05-16T18:28:31Z</time>
      </trkpt>
      <trkpt lat="59.9518172" lon="17.6694391">
        <ele>20.325</ele>
        <time>2014-05-16T18:28:32Z</time>
      </trkpt>
      <trkpt lat="59.9518096" lon="17.6695986">
        <ele>20.325</ele>
        <time>2014-05-16T18:28:33Z</time>
      </trkpt>
      <trkpt lat="59.9518026" lon="17.6697579">
        <ele>20.325</ele>
        <time>2014-05-16T18:28:34Z</time>
      </trkpt>
      <trkpt lat="59.9517949" lon="17.6699143">
        <ele>20.325</ele>
        <time>2014-05-16T18:28:35Z</time>
      </trkpt>
      <trkpt lat="59.9517846" lon="17.6700684">
        <ele>20.325</ele>
        <time>2014-05-16T18:28:36Z</time>
      </trkpt>
      <trkpt lat="59.951774" lon="17.6702237">
        <ele>20.8057</ele>
        <time>2014-05-16T18:28:37Z</time>
      </trkpt>
      <trkpt lat="59.9517632" lon="17.6703797">
        <ele>20.8057</ele>
        <time>2014-05-16T18:28:38Z</time>
      </trkpt>
      <trkpt lat="59.9517524" lon="17.6705361">
        <ele>21.2864</ele>
        <time>2014-05-16T18:28:39Z</time>
      </trkpt>
      <trkpt lat="59.9517431" lon="17.6706912">
        <ele>21.2864</ele>
        <time>2014-05-16T18:28:40Z</time>
      </trkpt>
      <trkpt lat="59.951739" lon="17.6708454">
        <ele>21.2864</ele>
        <time>2014-05-16T18:28:41Z</time>
      </trkpt>
      <trkpt lat="59.9517441" lon="17.6709998">
        <ele>21.2864</ele>
        <time>2014-05-16T18:28:42Z</time>
      </trkpt>
      <trkpt lat="59.9517617" lon="17.6711486">
        <ele>22.2476</ele>
        <time>2014-05-16T18:28:43Z</time>
      </trkpt>
      <trkpt lat="59.9517856" lon="17.6712888">
        <ele>22.2476</ele>
        <time>2014-05-16T18:28:44Z</time>
      </trkpt>
      <trkpt lat="59.9518054" lon="17.6714275">
        <ele>22.7283</ele>
        <time>2014-05-16T18:28:45Z</time>
      </trkpt>
      <trkpt lat="59.9518151" lon="17.6715676">
        <ele>23.209</ele>
        <time>2014-05-16T18:28:46Z</time>
      </trkpt>
      <trkpt lat="59.9518166" lon="17.6717072">
        <ele>23.6896</ele>
        <time>2014-05-16T18:28:47Z</time>
      </trkpt>
      <trkpt lat="59.9518162" lon="17.6718455">
        <ele>23.6896</ele>
        <time>2014-05-16T18:28:48Z</time>
      </trkpt>
      <trkpt lat="59.9518197" lon="17.6719836">
        <ele>24.1703</ele>
        <time>2014-05-16T18:28:49Z</time>
      </trkpt>
      <trkpt lat="59.9518289" lon="17.6721249">
        <ele>24.1703</ele>
        <time>2014-05-16T18:28:50Z</time>
      </trkpt>
      <trkpt lat="59.9518408" lon="17.6722682">
        <ele>24.1703</ele>
        <time>2014-05-16T18:28:51Z</time>
      </trkpt>
      <trkpt lat="59.951855" lon="17.6724119">
        <ele>24.1703</ele>
        <time>2014-05-16T18:28:52Z</time>
      </trkpt>
      <trkpt lat="59.9518704" lon="17.6725541">
        <ele>24.651</ele>
        <time>2014-05-16T18:28:53Z</time>
      </trkpt>
      <trkpt lat="59.9518882" lon="17.6726956">
        <ele>24.651</ele>
        <time>2014-05-16T18:28:54Z</time>
      </trkpt>
      <trkpt lat="59.9519072" lon="17.6728372">
        <ele>25.1317</ele>
        <time>2014-05-16T18:28:55Z</time>
      </trkpt>
      <trkpt lat="59.951925" lon="17.6729794">
        <ele>25.1317</ele>
        <time>2014-05-16T18:28:56Z</time>
      </trkpt>
      <trkpt lat="59.9519429" lon="17.6731243">
        <ele>25.6123</ele>
        <time>2014-05-16T18:28:57Z</time>
      </trkpt>
      <trkpt lat="59.9519623" lon="17.6732713">
        <ele>25.6123</ele>
        <time>2014-05-16T18:28:58Z</time>
      </trkpt>
      <trkpt lat="59.9519841" lon="17.6734173">
        <ele>26.0929</ele>
        <time>2014-05-16T18:28:59Z</time>
      </trkpt>
      <trkpt lat="59.9520073" lon="17.6735624">
        <ele>26.0929</ele>
        <time>2014-05-16T18:29:00Z</time>
      </trkpt>
      <trkpt lat="59.9520322" lon="17.6737089">
        <ele>26.0929</ele>
        <time>2014-05-16T18:29:01Z</time>
      </trkpt>
      <trkpt lat="59.9520586" lon="17.6738561">
        <ele>26.5736</ele>
        <time>2014-05-16T18:29:02Z</time>
      </trkpt>
      <trkpt lat="59.9520866" lon="17.6740012">
        <ele>26.5736</ele>
        <time>2014-05-16T18:29:03Z</time>
      </trkpt>
      <trkpt lat="59.952116" lon="17.6741436">
        <ele>27.0543</ele>
        <time>2014-05-16T18:29:04Z</time>
      </trkpt>
      <trkpt lat="59.9521461" lon="17.6742855">
        <ele>27.0543</ele>
        <time>2014-05-16T18:29:05Z</time>
      </trkpt>
      <trkpt lat="59.9521765" lon="17.67443">
        <ele>27.0543</ele>
        <time>2014-05-16T18:29:06Z</time>
      </trkpt>
      <trkpt lat="59.9522051" lon="17.6745762">
        <ele>27.0543</ele>
        <time>2014-05-16T18:29:07Z</time>
      </trkpt>
      <trkpt lat="59.9522301" lon="17.6747204">
        <ele>27.0543</ele>
        <time>2014-05-16T18:29:08Z</time>
      </trkpt>
      <trkpt lat="59.9522498" lon="17.6748548">
        <ele>27.5349</ele>
        <time>2014-05-16T18:29:09Z</time>
      </trkpt>
      <trkpt lat="59.9522693" lon="17.6749733">
        <ele>28.0155</ele>
        <time>2014-05-16T18:29:10Z</time>
      </trkpt>
      <trkpt lat="59.9522907" lon="17.675079">
        <ele>28.0155</ele>
        <time>2014-05-16T18:29:11Z</time>
      </trkpt>
      <trkpt lat="59.952315" lon="17.6751781">
        <ele>28.0155</ele>
        <time>2014-05-16T18:29:12Z</time>
      </trkpt>
      <trkpt lat="59.9523438" lon="17.6752752">
        <ele>28.0155</ele>
        <time>2014-05-16T18:29:13Z</time>
      </trkpt>
      <trkpt lat="59.9523763" lon="17.6753731">
        <ele>28.0155</ele>
        <time>2014-05-16T18:29:14Z</time>
      </trkpt>
      <trkpt lat="59.9524129" lon="17.6754739">
        <ele>28.0155</ele>
        <time>2014-05-16T18:29:15Z</time>
      </trkpt>
      <trkpt lat="59.9524522" lon="17.675579">
        <ele>27.5349</ele>
        <time>2014-05-16T18:29:16Z</time>
      </trkpt>
      <trkpt lat="59.9524941" lon="17.6756887">
        <ele>27.5349</ele>
        <time>2014-05-16T18:29:17Z</time>
      </trkpt>
      <trkpt lat="59.9525394" lon="17.6758028">
        <ele>27.0543</ele>
        <time>2014-05-16T18:29:18Z</time>
      </trkpt>
      <trkpt lat="59.9525869" lon="17.6759217">
        <ele>26.5736</ele>
        <time>2014-05-16T18:29:19Z</time>
      </trkpt>
      <trkpt lat="59.9526336" lon="17.6760463">
        <ele>26.5736</ele>
        <time>2014-05-16T18:29:20Z</time>
      </trkpt>
      <trkpt lat="59.9526791" lon="17.6761761">
        <ele>26.0929</ele>
        <time>2014-05-16T18:29:21Z</time>
      </trkpt>
      <trkpt lat="59.9527237" lon="17.6763053">
        <ele>26.0929</ele>
        <time>2014-05-16T18:29:22Z</time>
      </trkpt>
      <trkpt lat="59.9527691" lon="17.6764314">
        <ele>26.0929</ele>
        <time>2014-05-16T18:29:23Z</time>
      </trkpt>
      <trkpt lat="59.9528173" lon="17.6765552">
        <ele>25.6123</ele>
        <time>2014-05-16T18:29:24Z</time>
      </trkpt>
      <trkpt lat="59.9528677" lon="17.6766798">
        <ele>25.6123</ele>
        <time>2014-05-16T18:29:25Z</time>
      </trkpt>
      <trkpt lat="59.9529171" lon="17.6768045">
        <ele>25.6123</ele>
        <time>2014-05-16T18:29:26Z</time>
      </trkpt>
      <trkpt lat="59.9529665" lon="17.6769294">
        <ele>25.6123</ele>
        <time>2014-05-16T18:29:27Z</time>
      </trkpt>
      <trkpt lat="59.9530154" lon="17.6770552">
        <ele>25.1317</ele>
        <time>2014-05-16T18:29:28Z</time>
      </trkpt>
      <trkpt lat="59.9530649" lon="17.6771805">
        <ele>25.1317</ele>
        <time>2014-05-16T18:29:29Z</time>
      </trkpt>
      <trkpt lat="59.9531133" lon="17.677305">
        <ele>25.6123</ele>
        <time>2014-05-16T18:29:30Z</time>
      </trkpt>
      <trkpt lat="59.9531605" lon="17.67743">
        <ele>25.6123</ele>
        <time>2014-05-16T18:29:31Z</time>
      </trkpt>
      <trkpt lat="59.9532068" lon="17.6775569">
        <ele>25.6123</ele>
        <time>2014-05-16T18:29:32Z</time>
      </trkpt>
      <trkpt lat="59.9532524" lon="17.6776852">
        <ele>25.6123</ele>
        <time>2014-05-16T18:29:33Z</time>
      </trkpt>
      <trkpt lat="59.9532977" lon="17.6778145">
        <ele>25.6123</ele>
        <time>2014-05-16T18:29:34Z</time>
      </trkpt>
      <trkpt lat="59.9533432" lon="17.6779433">
        <ele>25.6123</ele>
        <time>2014-05-16T18:29:35Z</time>
      </trkpt>
      <trkpt lat="59.9533888" lon="17.678072">
        <ele>25.1317</ele>
        <time>2014-05-16T18:29:36Z</time>
      </trkpt>
      <trkpt lat="59.9534332" lon="17.6782015">
        <ele>25.1317</ele>
        <time>2014-05-16T18:29:37Z</time>
      </trkpt>
      <trkpt lat="59.9534748" lon="17.6783315">
        <ele>25.1317</ele>
        <time>2014-05-16T18:29:38Z</time>
      </trkpt>
      <trkpt lat="59.9535167" lon="17.6784622">
        <ele>25.1317</ele>
        <time>2014-05-16T18:29:39Z</time>
      </trkpt>
      <trkpt lat="59.9535591" lon="17.6785934">
        <ele>25.1317</ele>
        <time>2014-05-16T18:29:40Z</time>
      </trkpt>
      <trkpt lat="59.9536023" lon="17.6787244">
        <ele>24.651</ele>
        <time>2014-05-16T18:29:41Z</time>
      </trkpt>
      <trkpt lat="59.9536468" lon="17.678855">
        <ele>24.651</ele>
        <time>2014-05-16T18:29:42Z</time>
      </trkpt>
      <trkpt lat="59.9536919" lon="17.6789866">
        <ele>24.651</ele>
        <time>2014-05-16T18:29:43Z</time>
      </trkpt>
      <trkpt lat="59.9537354" lon="17.6791185">
        <ele>24.651</ele>
        <time>2014-05-16T18:29:44Z</time>
      </trkpt>
      <trkpt lat="59.9537788" lon="17.6792512">
        <ele>24.651</ele>
        <time>2014-05-16T18:29:45Z</time>
      </trkpt>
      <trkpt lat="59.9538227" lon="17.6793836">
        <ele>24.651</ele>
        <time>2014-05-16T18:29:46Z</time>
      </trkpt>
      <trkpt lat="59.9538665" lon="17.6795143">
        <ele>24.651</ele>
        <time>2014-05-16T18:29:47Z</time>
      </trkpt>
      <trkpt lat="59.9539111" lon="17.6796454">
        <ele>24.651</ele>
        <time>2014-05-16T18:29:48Z</time>
      </trkpt>
      <trkpt lat="59.9539555" lon="17.6797778">
        <ele>24.651</ele>
        <time>2014-05-16T18:29:49Z</time>
      </trkpt>
      <trkpt lat="59.9539987" lon="17.6799121">
        <ele>24.651</ele>
        <time>2014-05-16T18:29:50Z</time>
      </trkpt>
      <trkpt lat="59.954042" lon="17.6800474">
        <ele>24.651</ele>
        <time>2014-05-16T18:29:51Z</time>
      </trkpt>
      <trkpt lat="59.954087" lon="17.680182">
        <ele>24.651</ele>
        <time>2014-05-16T18:29:52Z</time>
      </trkpt>
      <trkpt lat="59.9541337" lon="17.6803146">
        <ele>24.651</ele>
        <time>2014-05-16T18:29:53Z</time>
      </trkpt>
      <trkpt lat="59.9541798" lon="17.6804453">
        <ele>24.651</ele>
        <time>2014-05-16T18:29:54Z</time>
      </trkpt>
      <trkpt lat="59.9542249" lon="17.6805751">
        <ele>24.651</ele>
        <time>2014-05-16T18:29:55Z</time>
      </trkpt>
      <trkpt lat="59.9542699" lon="17.6807047">
        <ele>24.651</ele>
        <time>2014-05-16T18:29:56Z</time>
      </trkpt>
      <trkpt lat="59.954314" lon="17.6808342">
        <ele>24.651</ele>
        <time>2014-05-16T18:29:57Z</time>
      </trkpt>
      <trkpt lat="59.9543566" lon="17.6809647">
        <ele>24.651</ele>
        <time>2014-05-16T18:29:58Z</time>
      </trkpt>
      <trkpt lat="59.9543979" lon="17.6810989">
        <ele>24.651</ele>
        <time>2014-05-16T18:29:59Z</time>
      </trkpt>
      <trkpt lat="59.9544368" lon="17.6812345">
        <ele>24.651</ele>
        <time>2014-05-16T18:30:00Z</time>
      </trkpt>
      <trkpt lat="59.9544767" lon="17.681365">
        <ele>24.651</ele>
        <time>2014-05-16T18:30:01Z</time>
      </trkpt>
      <trkpt lat="59.9545186" lon="17.6814905">
        <ele>25.1317</ele>
        <time>2014-05-16T18:30:02Z</time>
      </trkpt>
      <trkpt lat="59.9545614" lon="17.6816141">
        <ele>25.1317</ele>
        <time>2014-05-16T18:30:03Z</time>
      </trkpt>
      <trkpt lat="59.9546044" lon="17.6817345">
        <ele>25.1317</ele>
        <time>2014-05-16T18:30:04Z</time>
      </trkpt>
      <trkpt lat="59.9546518" lon="17.6818459">
        <ele>25.1317</ele>
        <time>2014-05-16T18:30:05Z</time>
      </trkpt>
      <trkpt lat="59.9547099" lon="17.6819392">
        <ele>25.1317</ele>
        <time>2014-05-16T18:30:06Z</time>
      </trkpt>
      <trkpt lat="59.9547726" lon="17.6820255">
        <ele>25.1317</ele>
        <time>2014-05-16T18:30:07Z</time>
      </trkpt>
      <trkpt lat="59.9548279" lon="17.6821282">
        <ele>25.1317</ele>
        <time>2014-05-16T18:30:08Z</time>
      </trkpt>
      <trkpt lat="59.954871" lon="17.6822504">
        <ele>25.1317</ele>
        <time>2014-05-16T18:30:09Z</time>
      </trkpt>
      <trkpt lat="59.9549095" lon="17.6823774">
        <ele>25.1317</ele>
        <time>2014-05-16T18:30:10Z</time>
      </trkpt>
      <trkpt lat="59.9549475" lon="17.6825046">
        <ele>25.1317</ele>
        <time>2014-05-16T18:30:11Z</time>
      </trkpt>
      <trkpt lat="59.9549854" lon="17.6826321">
        <ele>25.1317</ele>
        <time>2014-05-16T18:30:12Z</time>
      </trkpt>
      <trkpt lat="59.9550217" lon="17.6827612">
        <ele>25.1317</ele>
        <time>2014-05-16T18:30:13Z</time>
      </trkpt>
      <trkpt lat="59.955058" lon="17.6828907">
        <ele>25.1317</ele>
        <time>2014-05-16T18:30:14Z</time>
      </trkpt>
      <trkpt lat="59.9550935" lon="17.6830224">
        <ele>25.1317</ele>
        <time>2014-05-16T18:30:15Z</time>
      </trkpt>
      <trkpt lat="59.9551278" lon="17.6831566">
        <ele>25.1317</ele>
        <time>2014-05-16T18:30:16Z</time>
      </trkpt>
      <trkpt lat="59.9551629" lon="17.6832936">
        <ele>25.1317</ele>
        <time>2014-05-16T18:30:17Z</time>
      </trkpt>
      <trkpt lat="59.955197" lon="17.6834331">
        <ele>25.1317</ele>
        <time>2014-05-16T18:30:18Z</time>
      </trkpt>
      <trkpt lat="59.9552295" lon="17.6835772">
        <ele>24.651</ele>
        <time>2014-05-16T18:30:19Z</time>
      </trkpt>
      <trkpt lat="59.9552615" lon="17.6837241">
        <ele>24.651</ele>
        <time>2014-05-16T18:30:20Z</time>
      </trkpt>
      <trkpt lat="59.9552926" lon="17.6838708">
        <ele>24.651</ele>
        <time>2014-05-16T18:30:21Z</time>
      </trkpt>
      <trkpt lat="59.955323" lon="17.6840174">
        <ele>25.1317</ele>
        <time>2014-05-16T18:30:22Z</time>
      </trkpt>
      <trkpt lat="59.9553521" lon="17.684164">
        <ele>25.1317</ele>
        <time>2014-05-16T18:30:23Z</time>
      </trkpt>
      <trkpt lat="59.9553796" lon="17.684312">
        <ele>25.1317</ele>
        <time>2014-05-16T18:30:24Z</time>
      </trkpt>
      <trkpt lat="59.9554059" lon="17.6844608">
        <ele>25.1317</ele>
        <time>2014-05-16T18:30:25Z</time>
      </trkpt>
      <trkpt lat="59.9554303" lon="17.6846113">
        <ele>25.6123</ele>
        <time>2014-05-16T18:30:26Z</time>
      </trkpt>
      <trkpt lat="59.9554543" lon="17.6847616">
        <ele>25.6123</ele>
        <time>2014-05-16T18:30:27Z</time>
      </trkpt>
      <trkpt lat="59.955478" lon="17.6849109">
        <ele>25.6123</ele>
        <time>2014-05-16T18:30:28Z</time>
      </trkpt>
      <trkpt lat="59.9555008" lon="17.6850604">
        <ele>25.6123</ele>
        <time>2014-05-16T18:30:29Z</time>
      </trkpt>
      <trkpt lat="59.9555231" lon="17.6852105">
        <ele>25.6123</ele>
        <time>2014-05-16T18:30:30Z</time>
      </trkpt>
      <trkpt lat="59.9555443" lon="17.6853606">
        <ele>26.0929</ele>
        <time>2014-05-16T18:30:31Z</time>
      </trkpt>
      <trkpt lat="59.9555654" lon="17.6855098">
        <ele>26.0929</ele>
        <time>2014-05-16T18:30:32Z</time>
      </trkpt>
      <trkpt lat="59.9555861" lon="17.6856574">
        <ele>26.0929</ele>
        <time>2014-05-16T18:30:33Z</time>
      </trkpt>
      <trkpt lat="59.955607" lon="17.6858039">
        <ele>26.0929</ele>
        <time>2014-05-16T18:30:34Z</time>
      </trkpt>
      <trkpt lat="59.9556277" lon="17.6859489">
        <ele>26.5736</ele>
        <time>2014-05-16T18:30:35Z</time>
      </trkpt>
      <trkpt lat="59.9556488" lon="17.6860936">
        <ele>26.5736</ele>
        <time>2014-05-16T18:30:36Z</time>
      </trkpt>
      <trkpt lat="59.9556701" lon="17.6862396">
        <ele>26.5736</ele>
        <time>2014-05-16T18:30:37Z</time>
      </trkpt>
      <trkpt lat="59.9556914" lon="17.6863861">
        <ele>26.5736</ele>
        <time>2014-05-16T18:30:38Z</time>
      </trkpt>
      <trkpt lat="59.955712" lon="17.6865318">
        <ele>26.5736</ele>
        <time>2014-05-16T18:30:39Z</time>
      </trkpt>
      <trkpt lat="59.9557328" lon="17.6866761">
        <ele>26.5736</ele>
        <time>2014-05-16T18:30:40Z</time>
      </trkpt>
      <trkpt lat="59.9557539" lon="17.6868171">
        <ele>27.0543</ele>
        <time>2014-05-16T18:30:41Z</time>
      </trkpt>
      <trkpt lat="59.9557749" lon="17.686956">
        <ele>27.0543</ele>
        <time>2014-05-16T18:30:42Z</time>
      </trkpt>
      <trkpt lat="59.9557948" lon="17.6870933">
        <ele>27.0543</ele>
        <time>2014-05-16T18:30:43Z</time>
      </trkpt>
      <trkpt lat="59.9558152" lon="17.6872295">
        <ele>27.0543</ele>
        <time>2014-05-16T18:30:44Z</time>
      </trkpt>
      <trkpt lat="59.9558394" lon="17.6873643">
        <ele>27.0543</ele>
        <time>2014-05-16T18:30:45Z</time>
      </trkpt>
      <trkpt lat="59.9558628" lon="17.6874995">
        <ele>27.0543</ele>
        <time>2014-05-16T18:30:46Z</time>
      </trkpt>
      <trkpt lat="59.9558837" lon="17.6876351">
        <ele>27.0543</ele>
        <time>2014-05-16T18:30:47Z</time>
      </trkpt>
      <trkpt lat="59.9559044" lon="17.6877689">
        <ele>27.0543</ele>
        <time>2014-05-16T18:30:48Z</time>
      </trkpt>
      <trkpt lat="59.9559244" lon="17.6879019">
        <ele>27.0543</ele>
        <time>2014-05-16T18:30:49Z</time>
      </trkpt>
      <trkpt lat="59.9559446" lon="17.6880328">
        <ele>27.0543</ele>
        <time>2014-05-16T18:30:50Z</time>
      </trkpt>
      <trkpt lat="59.9559661" lon="17.6881619">
        <ele>27.5349</ele>
        <time>2014-05-16T18:30:51Z</time>
      </trkpt>
      <trkpt lat="59.9559878" lon="17.6882914">
        <ele>27.5349</ele>
        <time>2014-05-16T18:30:52Z</time>
      </trkpt>
      <trkpt lat="59.9560091" lon="17.6884219">
        <ele>27.5349</ele>
        <time>2014-05-16T18:30:53Z</time>
      </trkpt>
      <trkpt lat="59.9560302" lon="17.6885534">
        <ele>27.5349</ele>
        <time>2014-05-16T18:30:54Z</time>
      </trkpt>
      <trkpt lat="59.956056" lon="17.6886815">
        <ele>27.5349</ele>
        <time>2014-05-16T18:30:55Z</time>
      </trkpt>
      <trkpt lat="59.9560867" lon="17.6888017">
        <ele>28.0155</ele>
        <time>2014-05-16T18:30:56Z</time>
      </trkpt>
      <trkpt lat="59.9561193" lon="17.6889171">
        <ele>28.0155</ele>
        <time>2014-05-16T18:30:57Z</time>
      </trkpt>
      <trkpt lat="59.9561529" lon="17.689031">
        <ele>28.0155</ele>
        <time>2014-05-16T18:30:58Z</time>
      </trkpt>
      <trkpt lat="59.9561843" lon="17.6891477">
        <ele>28.0155</ele>
        <time>2014-05-16T18:30:59Z</time>
      </trkpt>
      <trkpt lat="59.9562119" lon="17.6892695">
        <ele>28.0155</ele>
        <time>2014-05-16T18:31:00Z</time>
      </trkpt>
      <trkpt lat="59.9562374" lon="17.6893928">
        <ele>28.0155</ele>
        <time>2014-05-16T18:31:01Z</time>
      </trkpt>
      <trkpt lat="59.9562624" lon="17.6895166">
        <ele>28.0155</ele>
        <time>2014-05-16T18:31:02Z</time>
      </trkpt>
      <trkpt lat="59.9562886" lon="17.6896404">
        <ele>28.0155</ele>
        <time>2014-05-16T18:31:03Z</time>
      </trkpt>
      <trkpt lat="59.9563152" lon="17.6897635">
        <ele>28.0155</ele>
        <time>2014-05-16T18:31:04Z</time>
      </trkpt>
      <trkpt lat="59.9563447" lon="17.6898854">
        <ele>28.0155</ele>
        <time>2014-05-16T18:31:05Z</time>
      </trkpt>
      <trkpt lat="59.9563778" lon="17.690004">
        <ele>28.0155</ele>
        <time>2014-05-16T18:31:06Z</time>
      </trkpt>
      <trkpt lat="59.9564141" lon="17.6901222">
        <ele>28.0155</ele>
        <time>2014-05-16T18:31:07Z</time>
      </trkpt>
      <trkpt lat="59.9564514" lon="17.6902422">
        <ele>28.0155</ele>
        <time>2014-05-16T18:31:08Z</time>
      </trkpt>
      <trkpt lat="59.9564911" lon="17.6903609">
        <ele>28.0155</ele>
        <time>2014-05-16T18:31:09Z</time>
      </trkpt>
      <trkpt lat="59.9565332" lon="17.6904799">
        <ele>27.5349</ele>
        <time>2014-05-16T18:31:10Z</time>
      </trkpt>
      <trkpt lat="59.9565766" lon="17.6906021">
        <ele>27.0543</ele>
        <time>2014-05-16T18:31:11Z</time>
      </trkpt>
      <trkpt lat="59.9566205" lon="17.6907303">
        <ele>26.5736</ele>
        <time>2014-05-16T18:31:12Z</time>
      </trkpt>
      <trkpt lat="59.9566651" lon="17.6908629">
        <ele>26.0929</ele>
        <time>2014-05-16T18:31:13Z</time>
      </trkpt>
      <trkpt lat="59.9567104" lon="17.6909996">
        <ele>25.6123</ele>
        <time>2014-05-16T18:31:14Z</time>
      </trkpt>
      <trkpt lat="59.9567579" lon="17.6911399">
        <ele>25.1317</ele>
        <time>2014-05-16T18:31:15Z</time>
      </trkpt>
      <trkpt lat="59.9568066" lon="17.6912861">
        <ele>24.651</ele>
        <time>2014-05-16T18:31:16Z</time>
      </trkpt>
      <trkpt lat="59.956857" lon="17.691438">
        <ele>24.1703</ele>
        <time>2014-05-16T18:31:17Z</time>
      </trkpt>
      <trkpt lat="59.9569093" lon="17.6915937">
        <ele>24.1703</ele>
        <time>2014-05-16T18:31:18Z</time>
      </trkpt>
      <trkpt lat="59.956962" lon="17.6917502">
        <ele>24.1703</ele>
        <time>2014-05-16T18:31:19Z</time>
      </trkpt>
      <trkpt lat="59.9570145" lon="17.6919062">
        <ele>23.6896</ele>
        <time>2014-05-16T18:31:20Z</time>
      </trkpt>
      <trkpt lat="59.957067" lon="17.6920616">
        <ele>23.6896</ele>
        <time>2014-05-16T18:31:21Z</time>
      </trkpt>
      <trkpt lat="59.9571204" lon="17.6922164">
        <ele>23.209</ele>
        <time>2014-05-16T18:31:22Z</time>
      </trkpt>
      <trkpt lat="59.9571738" lon="17.6923699">
        <ele>23.209</ele>
        <time>2014-05-16T18:31:23Z</time>
      </trkpt>
      <trkpt lat="59.9572264" lon="17.6925241">
        <ele>23.209</ele>
        <time>2014-05-16T18:31:24Z</time>
      </trkpt>
      <trkpt lat="59.9572786" lon="17.692678">
        <ele>23.209</ele>
        <time>2014-05-16T18:31:25Z</time>
      </trkpt>
      <trkpt lat="59.9573305" lon="17.6928292">
        <ele>23.209</ele>
        <time>2014-05-16T18:31:26Z</time>
      </trkpt>
      <trkpt lat="59.9573825" lon="17.6929779">
        <ele>23.209</ele>
        <time>2014-05-16T18:31:27Z</time>
      </trkpt>
      <trkpt lat="59.9574338" lon="17.6931248">
        <ele>23.209</ele>
        <time>2014-05-16T18:31:28Z</time>
      </trkpt>
      <trkpt lat="59.9574844" lon="17.6932707">
        <ele>23.209</ele>
        <time>2014-05-16T18:31:29Z</time>
      </trkpt>
      <trkpt lat="59.9575344" lon="17.6934155">
        <ele>23.209</ele>
        <time>2014-05-16T18:31:30Z</time>
      </trkpt>
      <trkpt lat="59.9575843" lon="17.6935581">
        <ele>23.209</ele>
        <time>2014-05-16T18:31:31Z</time>
      </trkpt>
      <trkpt lat="59.9576345" lon="17.6936994">
        <ele>23.209</ele>
        <time>2014-05-16T18:31:32Z</time>
      </trkpt>
      <trkpt lat="59.9576836" lon="17.69384">
        <ele>23.209</ele>
        <time>2014-05-16T18:31:33Z</time>
      </trkpt>
      <trkpt lat="59.9577316" lon="17.6939797">
        <ele>23.6896</ele>
        <time>2014-05-16T18:31:34Z</time>
      </trkpt>
      <trkpt lat="59.9577795" lon="17.6941166">
        <ele>23.6896</ele>
        <time>2014-05-16T18:31:35Z</time>
      </trkpt>
      <trkpt lat="59.9578277" lon="17.6942516">
        <ele>23.6896</ele>
        <time>2014-05-16T18:31:36Z</time>
      </trkpt>
      <trkpt lat="59.9578752" lon="17.6943855">
        <ele>23.6896</ele>
        <time>2014-05-16T18:31:37Z</time>
      </trkpt>
      <trkpt lat="59.9579219" lon="17.694519">
        <ele>23.6896</ele>
        <time>2014-05-16T18:31:38Z</time>
      </trkpt>
      <trkpt lat="59.9579681" lon="17.6946527">
        <ele>24.1703</ele>
        <time>2014-05-16T18:31:39Z</time>
      </trkpt>
      <trkpt lat="59.9580132" lon="17.6947864">
        <ele>24.1703</ele>
        <time>2014-05-16T18:31:40Z</time>
      </trkpt>
      <trkpt lat="59.9580592" lon="17.6949187">
        <ele>24.1703</ele>
        <time>2014-05-16T18:31:41Z</time>
      </trkpt>
      <trkpt lat="59.958106" lon="17.695049">
        <ele>24.1703</ele>
        <time>2014-05-16T18:31:42Z</time>
      </trkpt>
      <trkpt lat="59.9581536" lon="17.6951778">
        <ele>24.1703</ele>
        <time>2014-05-16T18:31:43Z</time>
      </trkpt>
      <trkpt lat="59.9582017" lon="17.6953049">
        <ele>24.651</ele>
        <time>2014-05-16T18:31:44Z</time>
      </trkpt>
      <trkpt lat="59.9582493" lon="17.6954322">
        <ele>24.651</ele>
        <time>2014-05-16T18:31:45Z</time>
      </trkpt>
      <trkpt lat="59.9582983" lon="17.6955595">
        <ele>24.651</ele>
        <time>2014-05-16T18:31:46Z</time>
      </trkpt>
      <trkpt lat="59.9583488" lon="17.6956856">
        <ele>24.651</ele>
        <time>2014-05-16T18:31:47Z</time>
      </trkpt>
      <trkpt lat="59.9584002" lon="17.695811">
        <ele>24.651</ele>
        <time>2014-05-16T18:31:48Z</time>
      </trkpt>
      <trkpt lat="59.9584518" lon="17.6959371">
        <ele>24.651</ele>
        <time>2014-05-16T18:31:49Z</time>
      </trkpt>
      <trkpt lat="59.9585033" lon="17.6960637">
        <ele>24.651</ele>
        <time>2014-05-16T18:31:50Z</time>
      </trkpt>
      <trkpt lat="59.9585549" lon="17.6961916">
        <ele>24.651</ele>
        <time>2014-05-16T18:31:51Z</time>
      </trkpt>
      <trkpt lat="59.9586056" lon="17.6963222">
        <ele>25.1317</ele>
        <time>2014-05-16T18:31:52Z</time>
      </trkpt>
      <trkpt lat="59.9586544" lon="17.6964556">
        <ele>25.1317</ele>
        <time>2014-05-16T18:31:53Z</time>
      </trkpt>
      <trkpt lat="59.9587004" lon="17.6965936">
        <ele>25.1317</ele>
        <time>2014-05-16T18:31:54Z</time>
      </trkpt>
      <trkpt lat="59.958743" lon="17.6967376">
        <ele>25.1317</ele>
        <time>2014-05-16T18:31:55Z</time>
      </trkpt>
      <trkpt lat="59.9587819" lon="17.6968858">
        <ele>25.1317</ele>
        <time>2014-05-16T18:31:56Z</time>
      </trkpt>
      <trkpt lat="59.9588175" lon="17.6970381">
        <ele>25.6123</ele>
        <time>2014-05-16T18:31:57Z</time>
      </trkpt>
      <trkpt lat="59.9588491" lon="17.6971926">
        <ele>25.6123</ele>
        <time>2014-05-16T18:31:58Z</time>
      </trkpt>
      <trkpt lat="59.9588772" lon="17.6973467">
        <ele>26.0929</ele>
        <time>2014-05-16T18:31:59Z</time>
      </trkpt>
      <trkpt lat="59.9589041" lon="17.6974981">
        <ele>26.0929</ele>
        <time>2014-05-16T18:32:00Z</time>
      </trkpt>
      <trkpt lat="59.9589283" lon="17.6976463">
        <ele>26.0929</ele>
        <time>2014-05-16T18:32:01Z</time>
      </trkpt>
      <trkpt lat="59.9589479" lon="17.6977926">
        <ele>26.5736</ele>
        <time>2014-05-16T18:32:02Z</time>
      </trkpt>
      <trkpt lat="59.958964" lon="17.6979362">
        <ele>26.5736</ele>
        <time>2014-05-16T18:32:03Z</time>
      </trkpt>
      <trkpt lat="59.9589791" lon="17.6980772">
        <ele>27.0543</ele>
        <time>2014-05-16T18:32:04Z</time>
      </trkpt>
      <trkpt lat="59.9589911" lon="17.6982176">
        <ele>27.0543</ele>
        <time>2014-05-16T18:32:05Z</time>
      </trkpt>
      <trkpt lat="59.9589989" lon="17.6983576">
        <ele>27.5349</ele>
        <time>2014-05-16T18:32:06Z</time>
      </trkpt>
      <trkpt lat="59.9590041" lon="17.698495">
        <ele>27.5349</ele>
        <time>2014-05-16T18:32:07Z</time>
      </trkpt>
      <trkpt lat="59.9590072" lon="17.6986294">
        <ele>27.5349</ele>
        <time>2014-05-16T18:32:08Z</time>
      </trkpt>
      <trkpt lat="59.9590094" lon="17.6987639">
        <ele>27.5349</ele>
        <time>2014-05-16T18:32:09Z</time>
      </trkpt>
      <trkpt lat="59.9590124" lon="17.6988992">
        <ele>28.0155</ele>
        <time>2014-05-16T18:32:10Z</time>
      </trkpt>
      <trkpt lat="59.9590165" lon="17.6990355">
        <ele>28.0155</ele>
        <time>2014-05-16T18:32:11Z</time>
      </trkpt>
      <trkpt lat="59.9590221" lon="17.6991745">
        <ele>28.0155</ele>
        <time>2014-05-16T18:32:12Z</time>
      </trkpt>
      <trkpt lat="59.9590284" lon="17.6993164">
        <ele>28.0155</ele>
        <time>2014-05-16T18:32:13Z</time>
      </trkpt>
      <trkpt lat="59.9590365" lon="17.6994603">
        <ele>28.0155</ele>
        <time>2014-05-16T18:32:14Z</time>
      </trkpt>
      <trkpt lat="59.9590467" lon="17.6996051">
        <ele>28.0155</ele>
        <time>2014-05-16T18:32:15Z</time>
      </trkpt>
      <trkpt lat="59.9590585" lon="17.6997505">
        <ele>28.0155</ele>
        <time>2014-05-16T18:32:16Z</time>
      </trkpt>
      <trkpt lat="59.9590705" lon="17.6998974">
        <ele>28.0155</ele>
        <time>2014-05-16T18:32:17Z</time>
      </trkpt>
      <trkpt lat="59.9590832" lon="17.7000458">
        <ele>28.0155</ele>
        <time>2014-05-16T18:32:18Z</time>
      </trkpt>
      <trkpt lat="59.9590966" lon="17.7001963">
        <ele>28.0155</ele>
        <time>2014-05-16T18:32:19Z</time>
      </trkpt>
      <trkpt lat="59.9591102" lon="17.7003488">
        <ele>28.0155</ele>
        <time>2014-05-16T18:32:20Z</time>
      </trkpt>
      <trkpt lat="59.9591235" lon="17.7005026">
        <ele>28.4962</ele>
        <time>2014-05-16T18:32:21Z</time>
      </trkpt>
      <trkpt lat="59.9591375" lon="17.7006564">
        <ele>28.4962</ele>
        <time>2014-05-16T18:32:22Z</time>
      </trkpt>
      <trkpt lat="59.9591528" lon="17.7008086">
        <ele>28.4962</ele>
        <time>2014-05-16T18:32:23Z</time>
      </trkpt>
      <trkpt lat="59.9591691" lon="17.7009592">
        <ele>28.9769</ele>
        <time>2014-05-16T18:32:24Z</time>
      </trkpt>
      <trkpt lat="59.9591869" lon="17.7011081">
        <ele>28.9769</ele>
        <time>2014-05-16T18:32:25Z</time>
      </trkpt>
      <trkpt lat="59.9592051" lon="17.7012541">
        <ele>28.9769</ele>
        <time>2014-05-16T18:32:26Z</time>
      </trkpt>
      <trkpt lat="59.9592246" lon="17.7013952">
        <ele>28.9769</ele>
        <time>2014-05-16T18:32:27Z</time>
      </trkpt>
      <trkpt lat="59.9592481" lon="17.7015327">
        <ele>29.4575</ele>
        <time>2014-05-16T18:32:28Z</time>
      </trkpt>
      <trkpt lat="59.9592754" lon="17.701669">
        <ele>29.4575</ele>
        <time>2014-05-16T18:32:29Z</time>
      </trkpt>
      <trkpt lat="59.9593054" lon="17.7018048">
        <ele>29.4575</ele>
        <time>2014-05-16T18:32:30Z</time>
      </trkpt>
      <trkpt lat="59.9593383" lon="17.701939">
        <ele>29.4575</ele>
        <time>2014-05-16T18:32:31Z</time>
      </trkpt>
      <trkpt lat="59.9593719" lon="17.7020721">
        <ele>29.4575</ele>
        <time>2014-05-16T18:32:32Z</time>
      </trkpt>
      <trkpt lat="59.9594081" lon="17.7022033">
        <ele>29.4575</ele>
        <time>2014-05-16T18:32:33Z</time>
      </trkpt>
      <trkpt lat="59.9594459" lon="17.7023346">
        <ele>29.4575</ele>
        <time>2014-05-16T18:32:34Z</time>
      </trkpt>
      <trkpt lat="59.9594847" lon="17.7024653">
        <ele>29.9381</ele>
        <time>2014-05-16T18:32:35Z</time>
      </trkpt>
      <trkpt lat="59.9595241" lon="17.7025931">
        <ele>30.4188</ele>
        <time>2014-05-16T18:32:36Z</time>
      </trkpt>
      <trkpt lat="59.9595639" lon="17.7027191">
        <ele>30.4188</ele>
        <time>2014-05-16T18:32:37Z</time>
      </trkpt>
      <trkpt lat="59.9596043" lon="17.702845">
        <ele>30.8995</ele>
        <time>2014-05-16T18:32:38Z</time>
      </trkpt>
      <trkpt lat="59.9596429" lon="17.7029722">
        <ele>31.3801</ele>
        <time>2014-05-16T18:32:39Z</time>
      </trkpt>
      <trkpt lat="59.9596815" lon="17.7030992">
        <ele>31.3801</ele>
        <time>2014-05-16T18:32:40Z</time>
      </trkpt>
      <trkpt lat="59.959721" lon="17.7032255">
        <ele>31.3801</ele>
        <time>2014-05-16T18:32:41Z</time>
      </trkpt>
      <trkpt lat="59.9597629" lon="17.7033527">
        <ele>31.3801</ele>
        <time>2014-05-16T18:32:42Z</time>
      </trkpt>
      <trkpt lat="59.9598047" lon="17.7034827">
        <ele>31.3801</ele>
        <time>2014-05-16T18:32:43Z</time>
      </trkpt>
      <trkpt lat="59.9598459" lon="17.7036162">
        <ele>30.8995</ele>
        <time>2014-05-16T18:32:44Z</time>
      </trkpt>
      <trkpt lat="59.9598894" lon="17.703754">
        <ele>30.8995</ele>
        <time>2014-05-16T18:32:45Z</time>
      </trkpt>
      <trkpt lat="59.9599369" lon="17.7038906">
        <ele>30.4188</ele>
        <time>2014-05-16T18:32:46Z</time>
      </trkpt>
      <trkpt lat="59.9599842" lon="17.7040258">
        <ele>30.4188</ele>
        <time>2014-05-16T18:32:47Z</time>
      </trkpt>
      <trkpt lat="59.9600352" lon="17.7041577">
        <ele>29.9381</ele>
        <time>2014-05-16T18:32:48Z</time>
      </trkpt>
      <trkpt lat="59.9600922" lon="17.7042794">
        <ele>29.9381</ele>
        <time>2014-05-16T18:32:49Z</time>
      </trkpt>
      <trkpt lat="59.960155" lon="17.7043876">
        <ele>29.4575</ele>
        <time>2014-05-16T18:32:50Z</time>
      </trkpt>
      <trkpt lat="59.9602265" lon="17.7044854">
        <ele>29.4575</ele>
        <time>2014-05-16T18:32:51Z</time>
      </trkpt>
      <trkpt lat="59.9602999" lon="17.704575">
        <ele>28.9769</ele>
        <time>2014-05-16T18:32:52Z</time>
      </trkpt>
      <trkpt lat="59.960374" lon="17.7046621">
        <ele>28.9769</ele>
        <time>2014-05-16T18:32:53Z</time>
      </trkpt>
      <trkpt lat="59.9604484" lon="17.7047518">
        <ele>28.4962</ele>
        <time>2014-05-16T18:32:54Z</time>
      </trkpt>
      <trkpt lat="59.9605219" lon="17.7048443">
        <ele>28.4962</ele>
        <time>2014-05-16T18:32:55Z</time>
      </trkpt>
      <trkpt lat="59.9605955" lon="17.704937">
        <ele>28.4962</ele>
        <time>2014-05-16T18:32:56Z</time>
      </trkpt>
      <trkpt lat="59.9606689" lon="17.7050299">
        <ele>28.0155</ele>
        <time>2014-05-16T18:32:57Z</time>
      </trkpt>
      <trkpt lat="59.9607431" lon="17.7051242">
        <ele>28.4962</ele>
        <time>2014-05-16T18:32:58Z</time>
      </trkpt>
      <trkpt lat="59.960815" lon="17.7052169">
        <ele>28.4962</ele>
        <time>2014-05-16T18:32:59Z</time>
      </trkpt>
      <trkpt lat="59.9608853" lon="17.705312">
        <ele>28.4962</ele>
        <time>2014-05-16T18:33:00Z</time>
      </trkpt>
      <trkpt lat="59.9609544" lon="17.7054107">
        <ele>28.4962</ele>
        <time>2014-05-16T18:33:01Z</time>
      </trkpt>
      <trkpt lat="59.9610228" lon="17.7055137">
        <ele>28.4962</ele>
        <time>2014-05-16T18:33:02Z</time>
      </trkpt>
      <trkpt lat="59.9610889" lon="17.705621">
        <ele>28.0155</ele>
        <time>2014-05-16T18:33:03Z</time>
      </trkpt>
      <trkpt lat="59.9611531" lon="17.705735">
        <ele>28.0155</ele>
        <time>2014-05-16T18:33:04Z</time>
      </trkpt>
      <trkpt lat="59.9612158" lon="17.7058515">
        <ele>28.0155</ele>
        <time>2014-05-16T18:33:05Z</time>
      </trkpt>
      <trkpt lat="59.9612775" lon="17.7059687">
        <ele>28.0155</ele>
        <time>2014-05-16T18:33:06Z</time>
      </trkpt>
      <trkpt lat="59.9613398" lon="17.7060842">
        <ele>28.0155</ele>
        <time>2014-05-16T18:33:07Z</time>
      </trkpt>
      <trkpt lat="59.961403" lon="17.7061979">
        <ele>28.0155</ele>
        <time>2014-05-16T18:33:08Z</time>
      </trkpt>
      <trkpt lat="59.9614675" lon="17.7063084">
        <ele>28.0155</ele>
        <time>2014-05-16T18:33:09Z</time>
      </trkpt>
      <trkpt lat="59.9615342" lon="17.7064125">
        <ele>28.0155</ele>
        <time>2014-05-16T18:33:10Z</time>
      </trkpt>
      <trkpt lat="59.961604" lon="17.7065094">
        <ele>28.0155</ele>
        <time>2014-05-16T18:33:11Z</time>
      </trkpt>
      <trkpt lat="59.9616758" lon="17.7065984">
        <ele>28.0155</ele>
        <time>2014-05-16T18:33:12Z</time>
      </trkpt>
      <trkpt lat="59.9617504" lon="17.7066782">
        <ele>28.0155</ele>
        <time>2014-05-16T18:33:13Z</time>
      </trkpt>
      <trkpt lat="59.9618277" lon="17.7067488">
        <ele>27.5349</ele>
        <time>2014-05-16T18:33:14Z</time>
      </trkpt>
      <trkpt lat="59.961908" lon="17.7068125">
        <ele>27.5349</ele>
        <time>2014-05-16T18:33:15Z</time>
      </trkpt>
      <trkpt lat="59.9619899" lon="17.7068694">
        <ele>27.5349</ele>
        <time>2014-05-16T18:33:16Z</time>
      </trkpt>
      <trkpt lat="59.9620733" lon="17.7069208">
        <ele>27.5349</ele>
        <time>2014-05-16T18:33:17Z</time>
      </trkpt>
      <trkpt lat="59.9621577" lon="17.7069692">
        <ele>27.0543</ele>
        <time>2014-05-16T18:33:18Z</time>
      </trkpt>
      <trkpt lat="59.9622427" lon="17.7070137">
        <ele>27.0543</ele>
        <time>2014-05-16T18:33:19Z</time>
      </trkpt>
      <trkpt lat="59.9623291" lon="17.7070528">
        <ele>27.0543</ele>
        <time>2014-05-16T18:33:20Z</time>
      </trkpt>
      <trkpt lat="59.9624157" lon="17.707088">
        <ele>27.0543</ele>
        <time>2014-05-16T18:33:21Z</time>
      </trkpt>
      <trkpt lat="59.9625018" lon="17.7071202">
        <ele>27.0543</ele>
        <time>2014-05-16T18:33:22Z</time>
      </trkpt>
      <trkpt lat="59.9625886" lon="17.7071465">
        <ele>27.0543</ele>
        <time>2014-05-16T18:33:23Z</time>
      </trkpt>
      <trkpt lat="59.9626764" lon="17.7071655">
        <ele>26.5736</ele>
        <time>2014-05-16T18:33:24Z</time>
      </trkpt>
      <trkpt lat="59.9627643" lon="17.7071765">
        <ele>26.5736</ele>
        <time>2014-05-16T18:33:25Z</time>
      </trkpt>
      <trkpt lat="59.9628519" lon="17.7071807">
        <ele>26.5736</ele>
        <time>2014-05-16T18:33:26Z</time>
      </trkpt>
      <trkpt lat="59.9629404" lon="17.707181">
        <ele>26.0929</ele>
        <time>2014-05-16T18:33:27Z</time>
      </trkpt>
      <trkpt lat="59.9630309" lon="17.7071796">
        <ele>26.0929</ele>
        <time>2014-05-16T18:33:28Z</time>
      </trkpt>
      <trkpt lat="59.9631207" lon="17.7071767">
        <ele>25.6123</ele>
        <time>2014-05-16T18:33:29Z</time>
      </trkpt>
      <trkpt lat="59.9632124" lon="17.7071759">
        <ele>25.6123</ele>
        <time>2014-05-16T18:33:30Z</time>
      </trkpt>
      <trkpt lat="59.9633031" lon="17.7071772">
        <ele>25.1317</ele>
        <time>2014-05-16T18:33:31Z</time>
      </trkpt>
      <trkpt lat="59.9633938" lon="17.7071797">
        <ele>25.1317</ele>
        <time>2014-05-16T18:33:32Z</time>
      </trkpt>
      <trkpt lat="59.9634855" lon="17.7071827">
        <ele>24.651</ele>
        <time>2014-05-16T18:33:33Z</time>
      </trkpt>
      <trkpt lat="59.9635771" lon="17.7071885">
        <ele>24.651</ele>
        <time>2014-05-16T18:33:34Z</time>
      </trkpt>
      <trkpt lat="59.9636681" lon="17.7071978">
        <ele>24.1703</ele>
        <time>2014-05-16T18:33:35Z</time>
      </trkpt>
      <trkpt lat="59.9637584" lon="17.7072082">
        <ele>24.1703</ele>
        <time>2014-05-16T18:33:36Z</time>
      </trkpt>
      <trkpt lat="59.9638483" lon="17.7072186">
        <ele>23.6896</ele>
        <time>2014-05-16T18:33:37Z</time>
      </trkpt>
      <trkpt lat="59.9639379" lon="17.7072299">
        <ele>23.209</ele>
        <time>2014-05-16T18:33:38Z</time>
      </trkpt>
      <trkpt lat="59.9640293" lon="17.7072445">
        <ele>23.209</ele>
        <time>2014-05-16T18:33:39Z</time>
      </trkpt>
      <trkpt lat="59.9641204" lon="17.7072629">
        <ele>23.209</ele>
        <time>2014-05-16T18:33:40Z</time>
      </trkpt>
      <trkpt lat="59.9642106" lon="17.7072855">
        <ele>23.209</ele>
        <time>2014-05-16T18:33:41Z</time>
      </trkpt>
      <trkpt lat="59.9642998" lon="17.7073128">
        <ele>22.7283</ele>
        <time>2014-05-16T18:33:42Z</time>
      </trkpt>
      <trkpt lat="59.9643898" lon="17.7073454">
        <ele>22.2476</ele>
        <time>2014-05-16T18:33:43Z</time>
      </trkpt>
      <trkpt lat="59.9644798" lon="17.7073847">
        <ele>22.2476</ele>
        <time>2014-05-16T18:33:44Z</time>
      </trkpt>
      <trkpt lat="59.9645689" lon="17.7074303">
        <ele>22.2476</ele>
        <time>2014-05-16T18:33:45Z</time>
      </trkpt>
      <trkpt lat="59.9646574" lon="17.7074822">
        <ele>22.2476</ele>
        <time>2014-05-16T18:33:46Z</time>
      </trkpt>
      <trkpt lat="59.9647452" lon="17.7075407">
        <ele>22.2476</ele>
        <time>2014-05-16T18:33:47Z</time>
      </trkpt>
      <trkpt lat="59.964833" lon="17.7076045">
        <ele>22.2476</ele>
        <time>2014-05-16T18:33:48Z</time>
      </trkpt>
      <trkpt lat="59.9649217" lon="17.7076706">
        <ele>22.7283</ele>
        <time>2014-05-16T18:33:49Z</time>
      </trkpt>
      <trkpt lat="59.9650112" lon="17.707739">
        <ele>22.7283</ele>
        <time>2014-05-16T18:33:50Z</time>
      </trkpt>
      <trkpt lat="59.9651012" lon="17.7078109">
        <ele>22.7283</ele>
        <time>2014-05-16T18:33:51Z</time>
      </trkpt>
      <trkpt lat="59.9651917" lon="17.707886">
        <ele>22.7283</ele>
        <time>2014-05-16T18:33:52Z</time>
      </trkpt>
      <trkpt lat="59.9652819" lon="17.7079649">
        <ele>22.7283</ele>
        <time>2014-05-16T18:33:53Z</time>
      </trkpt>
      <trkpt lat="59.9653713" lon="17.7080453">
        <ele>22.7283</ele>
        <time>2014-05-16T18:33:54Z</time>
      </trkpt>
      <trkpt lat="59.9654598" lon="17.7081288">
        <ele>22.7283</ele>
        <time>2014-05-16T18:33:55Z</time>
      </trkpt>
      <trkpt lat="59.965545" lon="17.7082236">
        <ele>22.7283</ele>
        <time>2014-05-16T18:33:56Z</time>
      </trkpt>
      <trkpt lat="59.9656261" lon="17.7083341">
        <ele>22.7283</ele>
        <time>2014-05-16T18:33:57Z</time>
      </trkpt>
      <trkpt lat="59.9657015" lon="17.7084588">
        <ele>22.7283</ele>
        <time>2014-05-16T18:33:58Z</time>
      </trkpt>
      <trkpt lat="59.9657707" lon="17.7085948">
        <ele>22.7283</ele>
        <time>2014-05-16T18:33:59Z</time>
      </trkpt>
      <trkpt lat="59.9658335" lon="17.7087397">
        <ele>23.209</ele>
        <time>2014-05-16T18:34:00Z</time>
      </trkpt>
      <trkpt lat="59.9658899" lon="17.7088933">
        <ele>23.209</ele>
        <time>2014-05-16T18:34:01Z</time>
      </trkpt>
      <trkpt lat="59.9659413" lon="17.7090531">
        <ele>22.7283</ele>
        <time>2014-05-16T18:34:02Z</time>
      </trkpt>
      <trkpt lat="59.9659905" lon="17.7092144">
        <ele>23.209</ele>
        <time>2014-05-16T18:34:03Z</time>
      </trkpt>
      <trkpt lat="59.9660377" lon="17.7093749">
        <ele>23.209</ele>
        <time>2014-05-16T18:34:04Z</time>
      </trkpt>
      <trkpt lat="59.966083" lon="17.7095329">
        <ele>23.209</ele>
        <time>2014-05-16T18:34:05Z</time>
      </trkpt>
      <trkpt lat="59.9661271" lon="17.7096894">
        <ele>23.209</ele>
        <time>2014-05-16T18:34:06Z</time>
      </trkpt>
      <trkpt lat="59.9661712" lon="17.7098441">
        <ele>23.209</ele>
        <time>2014-05-16T18:34:07Z</time>
      </trkpt>
      <trkpt lat="59.9662132" lon="17.7099971">
        <ele>23.209</ele>
        <time>2014-05-16T18:34:08Z</time>
      </trkpt>
      <trkpt lat="59.9662548" lon="17.7101489">
        <ele>23.6896</ele>
        <time>2014-05-16T18:34:09Z</time>
      </trkpt>
      <trkpt lat="59.9662965" lon="17.7102979">
        <ele>23.6896</ele>
        <time>2014-05-16T18:34:10Z</time>
      </trkpt>
      <trkpt lat="59.9663374" lon="17.7104447">
        <ele>23.6896</ele>
        <time>2014-05-16T18:34:11Z</time>
      </trkpt>
      <trkpt lat="59.9663779" lon="17.7105912">
        <ele>23.6896</ele>
        <time>2014-05-16T18:34:12Z</time>
      </trkpt>
      <trkpt lat="59.9664178" lon="17.7107341">
        <ele>24.1703</ele>
        <time>2014-05-16T18:34:13Z</time>
      </trkpt>
      <trkpt lat="59.9664563" lon="17.7108715">
        <ele>24.1703</ele>
        <time>2014-05-16T18:34:14Z</time>
      </trkpt>
      <trkpt lat="59.9664935" lon="17.7110065">
        <ele>24.1703</ele>
        <time>2014-05-16T18:34:15Z</time>
      </trkpt>
      <trkpt lat="59.9665308" lon="17.7111394">
        <ele>24.651</ele>
        <time>2014-05-16T18:34:16Z</time>
      </trkpt>
      <trkpt lat="59.9665681" lon="17.7112703">
        <ele>24.651</ele>
        <time>2014-05-16T18:34:17Z</time>
      </trkpt>
      <trkpt lat="59.9666065" lon="17.7113978">
        <ele>24.651</ele>
        <time>2014-05-16T18:34:18Z</time>
      </trkpt>
      <trkpt lat="59.9666463" lon="17.7115205">
        <ele>24.651</ele>
        <time>2014-05-16T18:34:19Z</time>
      </trkpt>
      <trkpt lat="59.9666876" lon="17.7116419">
        <ele>25.1317</ele>
        <time>2014-05-16T18:34:20Z</time>
      </trkpt>
      <trkpt lat="59.9667291" lon="17.7117635">
        <ele>25.1317</ele>
        <time>2014-05-16T18:34:21Z</time>
      </trkpt>
      <trkpt lat="59.9667706" lon="17.7118817">
        <ele>25.1317</ele>
        <time>2014-05-16T18:34:22Z</time>
      </trkpt>
      <trkpt lat="59.9668127" lon="17.7119978">
        <ele>25.1317</ele>
        <time>2014-05-16T18:34:23Z</time>
      </trkpt>
      <trkpt lat="59.9668552" lon="17.7121166">
        <ele>25.6123</ele>
        <time>2014-05-16T18:34:24Z</time>
      </trkpt>
      <trkpt lat="59.966898" lon="17.7122361">
        <ele>25.6123</ele>
        <time>2014-05-16T18:34:25Z</time>
      </trkpt>
      <trkpt lat="59.9669409" lon="17.7123567">
        <ele>25.6123</ele>
        <time>2014-05-16T18:34:26Z</time>
      </trkpt>
      <trkpt lat="59.9669835" lon="17.7124789">
        <ele>25.6123</ele>
        <time>2014-05-16T18:34:27Z</time>
      </trkpt>
      <trkpt lat="59.9670251" lon="17.7126044">
        <ele>25.6123</ele>
        <time>2014-05-16T18:34:28Z</time>
      </trkpt>
      <trkpt lat="59.9670652" lon="17.7127359">
        <ele>25.1317</ele>
        <time>2014-05-16T18:34:29Z</time>
      </trkpt>
      <trkpt lat="59.967104" lon="17.7128729">
        <ele>25.1317</ele>
        <time>2014-05-16T18:34:30Z</time>
      </trkpt>
      <trkpt lat="59.967141" lon="17.7130149">
        <ele>25.1317</ele>
        <time>2014-05-16T18:34:31Z</time>
      </trkpt>
      <trkpt lat="59.9671766" lon="17.713164">
        <ele>25.1317</ele>
        <time>2014-05-16T18:34:32Z</time>
      </trkpt>
      <trkpt lat="59.9672095" lon="17.7133203">
        <ele>24.651</ele>
        <time>2014-05-16T18:34:33Z</time>
      </trkpt>
      <trkpt lat="59.9672404" lon="17.7134843">
        <ele>24.1703</ele>
        <time>2014-05-16T18:34:34Z</time>
      </trkpt>
      <trkpt lat="59.9672705" lon="17.7136553">
        <ele>24.1703</ele>
        <time>2014-05-16T18:34:35Z</time>
      </trkpt>
      <trkpt lat="59.9672993" lon="17.7138343">
        <ele>23.6896</ele>
        <time>2014-05-16T18:34:36Z</time>
      </trkpt>
      <trkpt lat="59.9673267" lon="17.714021">
        <ele>23.6896</ele>
        <time>2014-05-16T18:34:37Z</time>
      </trkpt>
      <trkpt lat="59.9673542" lon="17.7142153">
        <ele>23.209</ele>
        <time>2014-05-16T18:34:38Z</time>
      </trkpt>
      <trkpt lat="59.9673824" lon="17.7144164">
        <ele>22.7283</ele>
        <time>2014-05-16T18:34:39Z</time>
      </trkpt>
      <trkpt lat="59.9674097" lon="17.7146239">
        <ele>22.2476</ele>
        <time>2014-05-16T18:34:40Z</time>
      </trkpt>
      <trkpt lat="59.9674383" lon="17.7148347">
        <ele>22.2476</ele>
        <time>2014-05-16T18:34:41Z</time>
      </trkpt>
      <trkpt lat="59.9674685" lon="17.7150431">
        <ele>21.767</ele>
        <time>2014-05-16T18:34:42Z</time>
      </trkpt>
      <trkpt lat="59.9674969" lon="17.7152559">
        <ele>20.8057</ele>
        <time>2014-05-16T18:34:43Z</time>
      </trkpt>
      <trkpt lat="59.9675326" lon="17.7154599">
        <ele>20.8057</ele>
        <time>2014-05-16T18:34:44Z</time>
      </trkpt>
      <trkpt lat="59.9675745" lon="17.7156552">
        <ele>21.2864</ele>
        <time>2014-05-16T18:34:45Z</time>
      </trkpt>
      <trkpt lat="59.9676208" lon="17.7158388">
        <ele>21.2864</ele>
        <time>2014-05-16T18:34:46Z</time>
      </trkpt>
      <trkpt lat="59.9676714" lon="17.7160082">
        <ele>21.767</ele>
        <time>2014-05-16T18:34:47Z</time>
      </trkpt>
      <trkpt lat="59.9677257" lon="17.7161642">
        <ele>22.2476</ele>
        <time>2014-05-16T18:34:48Z</time>
      </trkpt>
      <trkpt lat="59.9677818" lon="17.7163069">
        <ele>22.7283</ele>
        <time>2014-05-16T18:34:49Z</time>
      </trkpt>
      <trkpt lat="59.9678383" lon="17.7164361">
        <ele>23.209</ele>
        <time>2014-05-16T18:34:50Z</time>
      </trkpt>
      <trkpt lat="59.9678967" lon="17.7165516">
        <ele>23.6896</ele>
        <time>2014-05-16T18:34:51Z</time>
      </trkpt>
      <trkpt lat="59.9679568" lon="17.7166556">
        <ele>24.1703</ele>
        <time>2014-05-16T18:34:52Z</time>
      </trkpt>
      <trkpt lat="59.9680175" lon="17.7167492">
        <ele>24.651</ele>
        <time>2014-05-16T18:34:53Z</time>
      </trkpt>
      <trkpt lat="59.9680791" lon="17.7168333">
        <ele>25.1317</ele>
        <time>2014-05-16T18:34:54Z</time>
      </trkpt>
      <trkpt lat="59.9681413" lon="17.7169099">
        <ele>25.6123</ele>
        <time>2014-05-16T18:34:55Z</time>
      </trkpt>
      <trkpt lat="59.9682039" lon="17.7169785">
        <ele>25.6123</ele>
        <time>2014-05-16T18:34:56Z</time>
      </trkpt>
      <trkpt lat="59.9682675" lon="17.7170396">
        <ele>26.0929</ele>
        <time>2014-05-16T18:34:57Z</time>
      </trkpt>
      <trkpt lat="59.968332" lon="17.7170932">
        <ele>26.5736</ele>
        <time>2014-05-16T18:34:58Z</time>
      </trkpt>
      <trkpt lat="59.9683987" lon="17.7171406">
        <ele>27.0543</ele>
        <time>2014-05-16T18:34:59Z</time>
      </trkpt>
      <trkpt lat="59.9684653" lon="17.7171839">
        <ele>27.0543</ele>
        <time>2014-05-16T18:35:00Z</time>
      </trkpt>
      <trkpt lat="59.9685324" lon="17.7172233">
        <ele>27.5349</ele>
        <time>2014-05-16T18:35:01Z</time>
      </trkpt>
      <trkpt lat="59.9686001" lon="17.7172577">
        <ele>27.5349</ele>
        <time>2014-05-16T18:35:02Z</time>
      </trkpt>
      <trkpt lat="59.9686707" lon="17.7172869">
        <ele>27.5349</ele>
        <time>2014-05-16T18:35:03Z</time>
      </trkpt>
      <trkpt lat="59.9687416" lon="17.7173099">
        <ele>27.5349</ele>
        <time>2014-05-16T18:35:04Z</time>
      </trkpt>
      <trkpt lat="59.968811" lon="17.7173299">
        <ele>28.0155</ele>
        <time>2014-05-16T18:35:05Z</time>
      </trkpt>
      <trkpt lat="59.9688808" lon="17.7173517">
        <ele>28.0155</ele>
        <time>2014-05-16T18:35:06Z</time>
      </trkpt>
      <trkpt lat="59.9689494" lon="17.7173788">
        <ele>28.4962</ele>
        <time>2014-05-16T18:35:07Z</time>
      </trkpt>
      <trkpt lat="59.9690199" lon="17.7174104">
        <ele>28.9769</ele>
        <time>2014-05-16T18:35:08Z</time>
      </trkpt>
      <trkpt lat="59.9690901" lon="17.7174369">
        <ele>28.9769</ele>
        <time>2014-05-16T18:35:09Z</time>
      </trkpt>
      <trkpt lat="59.9691636" lon="17.7174631">
        <ele>28.9769</ele>
        <time>2014-05-16T18:35:10Z</time>
      </trkpt>
      <trkpt lat="59.9692363" lon="17.7174921">
        <ele>28.9769</ele>
        <time>2014-05-16T18:35:11Z</time>
      </trkpt>
      <trkpt lat="59.9693099" lon="17.7175268">
        <ele>28.9769</ele>
        <time>2014-05-16T18:35:12Z</time>
      </trkpt>
      <trkpt lat="59.9693853" lon="17.7175673">
        <ele>28.4962</ele>
        <time>2014-05-16T18:35:13Z</time>
      </trkpt>
      <trkpt lat="59.9694628" lon="17.7176109">
        <ele>28.4962</ele>
        <time>2014-05-16T18:35:14Z</time>
      </trkpt>
      <trkpt lat="59.969542" lon="17.717658">
        <ele>28.4962</ele>
        <time>2014-05-16T18:35:15Z</time>
      </trkpt>
      <trkpt lat="59.9696224" lon="17.7177093">
        <ele>28.0155</ele>
        <time>2014-05-16T18:35:16Z</time>
      </trkpt>
      <trkpt lat="59.9697034" lon="17.7177637">
        <ele>28.0155</ele>
        <time>2014-05-16T18:35:17Z</time>
      </trkpt>
      <trkpt lat="59.9697839" lon="17.7178222">
        <ele>28.0155</ele>
        <time>2014-05-16T18:35:18Z</time>
      </trkpt>
      <trkpt lat="59.9698642" lon="17.7178867">
        <ele>28.0155</ele>
        <time>2014-05-16T18:35:19Z</time>
      </trkpt>
      <trkpt lat="59.9699448" lon="17.7179559">
        <ele>28.0155</ele>
        <time>2014-05-16T18:35:20Z</time>
      </trkpt>
      <trkpt lat="59.9700256" lon="17.7180279">
        <ele>27.5349</ele>
        <time>2014-05-16T18:35:21Z</time>
      </trkpt>
      <trkpt lat="59.9701071" lon="17.7181015">
        <ele>27.5349</ele>
        <time>2014-05-16T18:35:22Z</time>
      </trkpt>
      <trkpt lat="59.9701889" lon="17.718176">
        <ele>27.5349</ele>
        <time>2014-05-16T18:35:23Z</time>
      </trkpt>
      <trkpt lat="59.9702708" lon="17.7182511">
        <ele>27.5349</ele>
        <time>2014-05-16T18:35:24Z</time>
      </trkpt>
      <trkpt lat="59.9703525" lon="17.7183271">
        <ele>27.5349</ele>
        <time>2014-05-16T18:35:25Z</time>
      </trkpt>
      <trkpt lat="59.970434" lon="17.7184029">
        <ele>27.5349</ele>
        <time>2014-05-16T18:35:26Z</time>
      </trkpt>
      <trkpt lat="59.9705161" lon="17.7184773">
        <ele>27.0543</ele>
        <time>2014-05-16T18:35:27Z</time>
      </trkpt>
      <trkpt lat="59.9705992" lon="17.7185504">
        <ele>27.0543</ele>
        <time>2014-05-16T18:35:28Z</time>
      </trkpt>
      <trkpt lat="59.9706826" lon="17.7186231">
        <ele>27.0543</ele>
        <time>2014-05-16T18:35:29Z</time>
      </trkpt>
      <trkpt lat="59.9707658" lon="17.7186967">
        <ele>27.0543</ele>
        <time>2014-05-16T18:35:30Z</time>
      </trkpt>
      <trkpt lat="59.9708489" lon="17.7187728">
        <ele>27.0543</ele>
        <time>2014-05-16T18:35:31Z</time>
      </trkpt>
      <trkpt lat="59.9709319" lon="17.7188494">
        <ele>27.0543</ele>
        <time>2014-05-16T18:35:32Z</time>
      </trkpt>
      <trkpt lat="59.971016" lon="17.7189246">
        <ele>27.0543</ele>
        <time>2014-05-16T18:35:33Z</time>
      </trkpt>
      <trkpt lat="59.9710999" lon="17.7190007">
        <ele>27.0543</ele>
        <time>2014-05-16T18:35:34Z</time>
      </trkpt>
      <trkpt lat="59.9711841" lon="17.7190776">
        <ele>27.0543</ele>
        <time>2014-05-16T18:35:35Z</time>
      </trkpt>
      <trkpt lat="59.9712688" lon="17.7191539">
        <ele>27.0543</ele>
        <time>2014-05-16T18:35:36Z</time>
      </trkpt>
      <trkpt lat="59.9713538" lon="17.7192305">
        <ele>26.5736</ele>
        <time>2014-05-16T18:35:37Z</time>
      </trkpt>
      <trkpt lat="59.9714394" lon="17.7193084">
        <ele>26.5736</ele>
        <time>2014-05-16T18:35:38Z</time>
      </trkpt>
      <trkpt lat="59.971526" lon="17.719387">
        <ele>26.5736</ele>
        <time>2014-05-16T18:35:39Z</time>
      </trkpt>
      <trkpt lat="59.9716131" lon="17.7194664">
        <ele>26.5736</ele>
        <time>2014-05-16T18:35:40Z</time>
      </trkpt>
      <trkpt lat="59.9717009" lon="17.7195457">
        <ele>26.5736</ele>
        <time>2014-05-16T18:35:41Z</time>
      </trkpt>
      <trkpt lat="59.9717885" lon="17.7196239">
        <ele>26.5736</ele>
        <time>2014-05-16T18:35:42Z</time>
      </trkpt>
      <trkpt lat="59.971876" lon="17.7197022">
        <ele>26.5736</ele>
        <time>2014-05-16T18:35:43Z</time>
      </trkpt>
      <trkpt lat="59.9719638" lon="17.7197813">
        <ele>26.5736</ele>
        <time>2014-05-16T18:35:44Z</time>
      </trkpt>
      <trkpt lat="59.9720522" lon="17.7198604">
        <ele>26.5736</ele>
        <time>2014-05-16T18:35:45Z</time>
      </trkpt>
      <trkpt lat="59.9721414" lon="17.7199381">
        <ele>26.5736</ele>
        <time>2014-05-16T18:35:46Z</time>
      </trkpt>
      <trkpt lat="59.9722309" lon="17.7200153">
        <ele>26.5736</ele>
        <time>2014-05-16T18:35:47Z</time>
      </trkpt>
      <trkpt lat="59.9723202" lon="17.7200952">
        <ele>26.0929</ele>
        <time>2014-05-16T18:35:48Z</time>
      </trkpt>
      <trkpt lat="59.9724091" lon="17.7201782">
        <ele>26.0929</ele>
        <time>2014-05-16T18:35:49Z</time>
      </trkpt>
      <trkpt lat="59.9724975" lon="17.720263">
        <ele>26.0929</ele>
        <time>2014-05-16T18:35:50Z</time>
      </trkpt>
      <trkpt lat="59.9725857" lon="17.7203475">
        <ele>26.0929</ele>
        <time>2014-05-16T18:35:51Z</time>
      </trkpt>
      <trkpt lat="59.9726742" lon="17.7204319">
        <ele>26.0929</ele>
        <time>2014-05-16T18:35:52Z</time>
      </trkpt>
      <trkpt lat="59.9727625" lon="17.7205199">
        <ele>26.0929</ele>
        <time>2014-05-16T18:35:53Z</time>
      </trkpt>
      <trkpt lat="59.9728495" lon="17.7206153">
        <ele>26.0929</ele>
        <time>2014-05-16T18:35:54Z</time>
      </trkpt>
      <trkpt lat="59.9729348" lon="17.7207184">
        <ele>26.0929</ele>
        <time>2014-05-16T18:35:55Z</time>
      </trkpt>
      <trkpt lat="59.9730178" lon="17.7208288">
        <ele>25.6123</ele>
        <time>2014-05-16T18:35:56Z</time>
      </trkpt>
      <trkpt lat="59.9730987" lon="17.7209468">
        <ele>25.6123</ele>
        <time>2014-05-16T18:35:57Z</time>
      </trkpt>
      <trkpt lat="59.9731779" lon="17.7210691">
        <ele>25.6123</ele>
        <time>2014-05-16T18:35:58Z</time>
      </trkpt>
      <trkpt lat="59.9732556" lon="17.7211951">
        <ele>25.6123</ele>
        <time>2014-05-16T18:35:59Z</time>
      </trkpt>
      <trkpt lat="59.9733312" lon="17.7213265">
        <ele>25.6123</ele>
        <time>2014-05-16T18:36:00Z</time>
      </trkpt>
      <trkpt lat="59.9734037" lon="17.7214643">
        <ele>25.6123</ele>
        <time>2014-05-16T18:36:01Z</time>
      </trkpt>
      <trkpt lat="59.973473" lon="17.7216089">
        <ele>25.6123</ele>
        <time>2014-05-16T18:36:02Z</time>
      </trkpt>
      <trkpt lat="59.9735395" lon="17.721761">
        <ele>25.1317</ele>
        <time>2014-05-16T18:36:03Z</time>
      </trkpt>
      <trkpt lat="59.9736035" lon="17.7219191">
        <ele>25.1317</ele>
        <time>2014-05-16T18:36:04Z</time>
      </trkpt>
      <trkpt lat="59.9736647" lon="17.7220827">
        <ele>25.1317</ele>
        <time>2014-05-16T18:36:05Z</time>
      </trkpt>
      <trkpt lat="59.9737228" lon="17.7222517">
        <ele>25.1317</ele>
        <time>2014-05-16T18:36:06Z</time>
      </trkpt>
      <trkpt lat="59.9737776" lon="17.7224247">
        <ele>25.1317</ele>
        <time>2014-05-16T18:36:07Z</time>
      </trkpt>
      <trkpt lat="59.9738289" lon="17.7226008">
        <ele>24.651</ele>
        <time>2014-05-16T18:36:08Z</time>
      </trkpt>
      <trkpt lat="59.9738771" lon="17.7227802">
        <ele>24.651</ele>
        <time>2014-05-16T18:36:09Z</time>
      </trkpt>
      <trkpt lat="59.9739215" lon="17.7229627">
        <ele>24.651</ele>
        <time>2014-05-16T18:36:10Z</time>
      </trkpt>
      <trkpt lat="59.9739616" lon="17.7231487">
        <ele>24.651</ele>
        <time>2014-05-16T18:36:11Z</time>
      </trkpt>
      <trkpt lat="59.9739979" lon="17.7233374">
        <ele>24.651</ele>
        <time>2014-05-16T18:36:12Z</time>
      </trkpt>
      <trkpt lat="59.9740313" lon="17.7235274">
        <ele>24.651</ele>
        <time>2014-05-16T18:36:13Z</time>
      </trkpt>
      <trkpt lat="59.9740625" lon="17.7237166">
        <ele>24.651</ele>
        <time>2014-05-16T18:36:14Z</time>
      </trkpt>
      <trkpt lat="59.9740916" lon="17.7239052">
        <ele>24.651</ele>
        <time>2014-05-16T18:36:15Z</time>
      </trkpt>
      <trkpt lat="59.9741192" lon="17.7240926">
        <ele>24.651</ele>
        <time>2014-05-16T18:36:16Z</time>
      </trkpt>
      <trkpt lat="59.9741465" lon="17.7242772">
        <ele>24.651</ele>
        <time>2014-05-16T18:36:17Z</time>
      </trkpt>
      <trkpt lat="59.974173" lon="17.7244595">
        <ele>24.651</ele>
        <time>2014-05-16T18:36:18Z</time>
      </trkpt>
      <trkpt lat="59.9741983" lon="17.7246401">
        <ele>24.651</ele>
        <time>2014-05-16T18:36:19Z</time>
      </trkpt>
      <trkpt lat="59.9742227" lon="17.7248183">
        <ele>24.651</ele>
        <time>2014-05-16T18:36:20Z</time>
      </trkpt>
      <trkpt lat="59.9742472" lon="17.724994">
        <ele>24.651</ele>
        <time>2014-05-16T18:36:21Z</time>
      </trkpt>
      <trkpt lat="59.9742703" lon="17.725168">
        <ele>24.651</ele>
        <time>2014-05-16T18:36:22Z</time>
      </trkpt>
      <trkpt lat="59.974291" lon="17.725341">
        <ele>24.651</ele>
        <time>2014-05-16T18:36:23Z</time>
      </trkpt>
      <trkpt lat="59.974309" lon="17.7255126">
        <ele>24.651</ele>
        <time>2014-05-16T18:36:24Z</time>
      </trkpt>
      <trkpt lat="59.9743242" lon="17.725683">
        <ele>24.651</ele>
        <time>2014-05-16T18:36:25Z</time>
      </trkpt>
      <trkpt lat="59.9743367" lon="17.7258524">
        <ele>24.651</ele>
        <time>2014-05-16T18:36:26Z</time>
      </trkpt>
      <trkpt lat="59.9743476" lon="17.7260213">
        <ele>24.651</ele>
        <time>2014-05-16T18:36:27Z</time>
      </trkpt>
      <trkpt lat="59.9743562" lon="17.7261901">
        <ele>24.651</ele>
        <time>2014-05-16T18:36:28Z</time>
      </trkpt>
      <trkpt lat="59.9743624" lon="17.7263583">
        <ele>24.651</ele>
        <time>2014-05-16T18:36:29Z</time>
      </trkpt>
      <trkpt lat="59.9743673" lon="17.7265254">
        <ele>24.651</ele>
        <time>2014-05-16T18:36:30Z</time>
      </trkpt>
      <trkpt lat="59.9743719" lon="17.726692">
        <ele>24.651</ele>
        <time>2014-05-16T18:36:31Z</time>
      </trkpt>
      <trkpt lat="59.9743764" lon="17.7268584">
        <ele>24.1703</ele>
        <time>2014-05-16T18:36:32Z</time>
      </trkpt>
      <trkpt lat="59.9743807" lon="17.7270262">
        <ele>24.1703</ele>
        <time>2014-05-16T18:36:33Z</time>
      </trkpt>
      <trkpt lat="59.9743848" lon="17.7271946">
        <ele>24.1703</ele>
        <time>2014-05-16T18:36:34Z</time>
      </trkpt>
      <trkpt lat="59.9743879" lon="17.7273656">
        <ele>24.1703</ele>
        <time>2014-05-16T18:36:35Z</time>
      </trkpt>
      <trkpt lat="59.97439" lon="17.7275386">
        <ele>23.6896</ele>
        <time>2014-05-16T18:36:36Z</time>
      </trkpt>
      <trkpt lat="59.9743926" lon="17.7277142">
        <ele>23.6896</ele>
        <time>2014-05-16T18:36:37Z</time>
      </trkpt>
      <trkpt lat="59.9743955" lon="17.7278922">
        <ele>23.209</ele>
        <time>2014-05-16T18:36:38Z</time>
      </trkpt>
      <trkpt lat="59.9743986" lon="17.728071">
        <ele>23.209</ele>
        <time>2014-05-16T18:36:39Z</time>
      </trkpt>
      <trkpt lat="59.9744019" lon="17.7282492">
        <ele>23.209</ele>
        <time>2014-05-16T18:36:40Z</time>
      </trkpt>
      <trkpt lat="59.9744057" lon="17.7284269">
        <ele>23.209</ele>
        <time>2014-05-16T18:36:41Z</time>
      </trkpt>
      <trkpt lat="59.9744106" lon="17.728603">
        <ele>23.209</ele>
        <time>2014-05-16T18:36:42Z</time>
      </trkpt>
      <trkpt lat="59.9744159" lon="17.7287785">
        <ele>23.209</ele>
        <time>2014-05-16T18:36:43Z</time>
      </trkpt>
      <trkpt lat="59.9744209" lon="17.7289537">
        <ele>23.209</ele>
        <time>2014-05-16T18:36:44Z</time>
      </trkpt>
      <trkpt lat="59.9744258" lon="17.7291288">
        <ele>23.209</ele>
        <time>2014-05-16T18:36:45Z</time>
      </trkpt>
      <trkpt lat="59.9744298" lon="17.729304">
        <ele>23.209</ele>
        <time>2014-05-16T18:36:46Z</time>
      </trkpt>
      <trkpt lat="59.9744294" lon="17.7294789">
        <ele>23.6896</ele>
        <time>2014-05-16T18:36:47Z</time>
      </trkpt>
      <trkpt lat="59.974423" lon="17.7296519">
        <ele>23.6896</ele>
        <time>2014-05-16T18:36:48Z</time>
      </trkpt>
      <trkpt lat="59.9744122" lon="17.7298224">
        <ele>23.6896</ele>
        <time>2014-05-16T18:36:49Z</time>
      </trkpt>
      <trkpt lat="59.9743993" lon="17.7299912">
        <ele>23.6896</ele>
        <time>2014-05-16T18:36:50Z</time>
      </trkpt>
      <trkpt lat="59.974386" lon="17.7301582">
        <ele>23.6896</ele>
        <time>2014-05-16T18:36:51Z</time>
      </trkpt>
      <trkpt lat="59.9743725" lon="17.7303249">
        <ele>24.1703</ele>
        <time>2014-05-16T18:36:52Z</time>
      </trkpt>
      <trkpt lat="59.9743587" lon="17.7304915">
        <ele>24.1703</ele>
        <time>2014-05-16T18:36:53Z</time>
      </trkpt>
      <trkpt lat="59.9743448" lon="17.7306586">
        <ele>24.1703</ele>
        <time>2014-05-16T18:36:54Z</time>
      </trkpt>
      <trkpt lat="59.9743313" lon="17.7308274">
        <ele>24.1703</ele>
        <time>2014-05-16T18:36:55Z</time>
      </trkpt>
      <trkpt lat="59.9743196" lon="17.7309966">
        <ele>24.1703</ele>
        <time>2014-05-16T18:36:56Z</time>
      </trkpt>
      <trkpt lat="59.9743117" lon="17.7311661">
        <ele>24.1703</ele>
        <time>2014-05-16T18:36:57Z</time>
      </trkpt>
      <trkpt lat="59.9743066" lon="17.7313364">
        <ele>24.1703</ele>
        <time>2014-05-16T18:36:58Z</time>
      </trkpt>
      <trkpt lat="59.9743023" lon="17.7315075">
        <ele>24.1703</ele>
        <time>2014-05-16T18:36:59Z</time>
      </trkpt>
      <trkpt lat="59.9742992" lon="17.731679">
        <ele>24.1703</ele>
        <time>2014-05-16T18:37:00Z</time>
      </trkpt>
      <trkpt lat="59.9742983" lon="17.7318502">
        <ele>24.1703</ele>
        <time>2014-05-16T18:37:01Z</time>
      </trkpt>
      <trkpt lat="59.9742994" lon="17.7320204">
        <ele>24.1703</ele>
        <time>2014-05-16T18:37:02Z</time>
      </trkpt>
      <trkpt lat="59.9743025" lon="17.7321905">
        <ele>24.1703</ele>
        <time>2014-05-16T18:37:03Z</time>
      </trkpt>
      <trkpt lat="59.9743075" lon="17.7323608">
        <ele>24.1703</ele>
        <time>2014-05-16T18:37:04Z</time>
      </trkpt>
      <trkpt lat="59.9743119" lon="17.7325322">
        <ele>24.1703</ele>
        <time>2014-05-16T18:37:05Z</time>
      </trkpt>
      <trkpt lat="59.9743139" lon="17.7327047">
        <ele>23.6896</ele>
        <time>2014-05-16T18:37:06Z</time>
      </trkpt>
      <trkpt lat="59.9743124" lon="17.7328779">
        <ele>23.6896</ele>
        <time>2014-05-16T18:37:07Z</time>
      </trkpt>
      <trkpt lat="59.974309" lon="17.7330513">
        <ele>23.6896</ele>
        <time>2014-05-16T18:37:08Z</time>
      </trkpt>
      <trkpt lat="59.9743045" lon="17.7332252">
        <ele>23.6896</ele>
        <time>2014-05-16T18:37:09Z</time>
      </trkpt>
      <trkpt lat="59.9742978" lon="17.7333992">
        <ele>23.6896</ele>
        <time>2014-05-16T18:37:10Z</time>
      </trkpt>
      <trkpt lat="59.9742895" lon="17.7335723">
        <ele>23.6896</ele>
        <time>2014-05-16T18:37:11Z</time>
      </trkpt>
      <trkpt lat="59.9742811" lon="17.7337438">
        <ele>23.6896</ele>
        <time>2014-05-16T18:37:12Z</time>
      </trkpt>
      <trkpt lat="59.9742724" lon="17.733913">
        <ele>23.6896</ele>
        <time>2014-05-16T18:37:13Z</time>
      </trkpt>
      <trkpt lat="59.9742637" lon="17.7340813">
        <ele>23.6896</ele>
        <time>2014-05-16T18:37:14Z</time>
      </trkpt>
      <trkpt lat="59.9742564" lon="17.7342502">
        <ele>23.6896</ele>
        <time>2014-05-16T18:37:15Z</time>
      </trkpt>
      <trkpt lat="59.9742517" lon="17.7344191">
        <ele>23.6896</ele>
        <time>2014-05-16T18:37:16Z</time>
      </trkpt>
      <trkpt lat="59.9742512" lon="17.7345876">
        <ele>23.6896</ele>
        <time>2014-05-16T18:37:17Z</time>
      </trkpt>
      <trkpt lat="59.9742551" lon="17.7347544">
        <ele>23.6896</ele>
        <time>2014-05-16T18:37:18Z</time>
      </trkpt>
      <trkpt lat="59.974263" lon="17.7349181">
        <ele>24.1703</ele>
        <time>2014-05-16T18:37:19Z</time>
      </trkpt>
      <trkpt lat="59.974274" lon="17.7350781">
        <ele>24.1703</ele>
        <time>2014-05-16T18:37:20Z</time>
      </trkpt>
      <trkpt lat="59.9742875" lon="17.7352351">
        <ele>24.1703</ele>
        <time>2014-05-16T18:37:21Z</time>
      </trkpt>
      <trkpt lat="59.9743026" lon="17.7353884">
        <ele>24.1703</ele>
        <time>2014-05-16T18:37:22Z</time>
      </trkpt>
      <trkpt lat="59.9743191" lon="17.7355387">
        <ele>24.1703</ele>
        <time>2014-05-16T18:37:23Z</time>
      </trkpt>
      <trkpt lat="59.9743387" lon="17.7356859">
        <ele>24.1703</ele>
        <time>2014-05-16T18:37:24Z</time>
      </trkpt>
      <trkpt lat="59.9743619" lon="17.7358308">
        <ele>24.1703</ele>
        <time>2014-05-16T18:37:25Z</time>
      </trkpt>
      <trkpt lat="59.9743879" lon="17.7359743">
        <ele>24.1703</ele>
        <time>2014-05-16T18:37:26Z</time>
      </trkpt>
      <trkpt lat="59.9744169" lon="17.7361156">
        <ele>24.651</ele>
        <time>2014-05-16T18:37:27Z</time>
      </trkpt>
      <trkpt lat="59.9744475" lon="17.7362525">
        <ele>24.651</ele>
        <time>2014-05-16T18:37:28Z</time>
      </trkpt>
      <trkpt lat="59.9744799" lon="17.7363872">
        <ele>24.1703</ele>
        <time>2014-05-16T18:37:29Z</time>
      </trkpt>
      <trkpt lat="59.9745147" lon="17.7365216">
        <ele>24.1703</ele>
        <time>2014-05-16T18:37:30Z</time>
      </trkpt>
      <trkpt lat="59.974552" lon="17.7366558">
        <ele>24.1703</ele>
        <time>2014-05-16T18:37:31Z</time>
      </trkpt>
      <trkpt lat="59.9745915" lon="17.7367872">
        <ele>24.1703</ele>
        <time>2014-05-16T18:37:32Z</time>
      </trkpt>
      <trkpt lat="59.9746339" lon="17.7369167">
        <ele>24.1703</ele>
        <time>2014-05-16T18:37:33Z</time>
      </trkpt>
      <trkpt lat="59.9746785" lon="17.7370444">
        <ele>24.1703</ele>
        <time>2014-05-16T18:37:34Z</time>
      </trkpt>
      <trkpt lat="59.9747248" lon="17.7371688">
        <ele>24.1703</ele>
        <time>2014-05-16T18:37:35Z</time>
      </trkpt>
      <trkpt lat="59.9747734" lon="17.737289">
        <ele>24.1703</ele>
        <time>2014-05-16T18:37:36Z</time>
      </trkpt>
      <trkpt lat="59.9748241" lon="17.7374039">
        <ele>24.1703</ele>
        <time>2014-05-16T18:37:37Z</time>
      </trkpt>
      <trkpt lat="59.9748769" lon="17.7375136">
        <ele>24.1703</ele>
        <time>2014-05-16T18:37:38Z</time>
      </trkpt>
      <trkpt lat="59.9749313" lon="17.737619">
        <ele>24.1703</ele>
        <time>2014-05-16T18:37:39Z</time>
      </trkpt>
      <trkpt lat="59.9749866" lon="17.737722">
        <ele>24.1703</ele>
        <time>2014-05-16T18:37:40Z</time>
      </trkpt>
      <trkpt lat="59.9750423" lon="17.7378241">
        <ele>24.1703</ele>
        <time>2014-05-16T18:37:41Z</time>
      </trkpt>
      <trkpt lat="59.9750985" lon="17.7379262">
        <ele>24.1703</ele>
        <time>2014-05-16T18:37:42Z</time>
      </trkpt>
      <trkpt lat="59.9751555" lon="17.7380272">
        <ele>24.1703</ele>
        <time>2014-05-16T18:37:43Z</time>
      </trkpt>
      <trkpt lat="59.9752131" lon="17.738128">
        <ele>24.1703</ele>
        <time>2014-05-16T18:37:44Z</time>
      </trkpt>
      <trkpt lat="59.9752711" lon="17.7382312">
        <ele>24.1703</ele>
        <time>2014-05-16T18:37:45Z</time>
      </trkpt>
      <trkpt lat="59.9753292" lon="17.7383345">
        <ele>24.1703</ele>
        <time>2014-05-16T18:37:46Z</time>
      </trkpt>
      <trkpt lat="59.9753887" lon="17.7384359">
        <ele>24.1703</ele>
        <time>2014-05-16T18:37:47Z</time>
      </trkpt>
      <trkpt lat="59.9754487" lon="17.7385363">
        <ele>24.1703</ele>
        <time>2014-05-16T18:37:48Z</time>
      </trkpt>
      <trkpt lat="59.975508" lon="17.7386377">
        <ele>24.1703</ele>
        <time>2014-05-16T18:37:49Z</time>
      </trkpt>
      <trkpt lat="59.9755673" lon="17.73874">
        <ele>24.1703</ele>
        <time>2014-05-16T18:37:50Z</time>
      </trkpt>
      <trkpt lat="59.9756261" lon="17.7388421">
        <ele>24.1703</ele>
        <time>2014-05-16T18:37:51Z</time>
      </trkpt>
      <trkpt lat="59.9756845" lon="17.7389438">
        <ele>24.1703</ele>
        <time>2014-05-16T18:37:52Z</time>
      </trkpt>
      <trkpt lat="59.9757424" lon="17.739044">
        <ele>24.1703</ele>
        <time>2014-05-16T18:37:53Z</time>
      </trkpt>
      <trkpt lat="59.9758" lon="17.7391404">
        <ele>24.651</ele>
        <time>2014-05-16T18:37:54Z</time>
      </trkpt>
      <trkpt lat="59.9758575" lon="17.7392337">
        <ele>24.651</ele>
        <time>2014-05-16T18:37:55Z</time>
      </trkpt>
      <trkpt lat="59.9759138" lon="17.7393269">
        <ele>25.1317</ele>
        <time>2014-05-16T18:37:56Z</time>
      </trkpt>
      <trkpt lat="59.9759693" lon="17.7394176">
        <ele>25.1317</ele>
        <time>2014-05-16T18:37:57Z</time>
      </trkpt>
      <trkpt lat="59.9760228" lon="17.739505">
        <ele>25.6123</ele>
        <time>2014-05-16T18:37:58Z</time>
      </trkpt>
      <trkpt lat="59.9760713" lon="17.739588">
        <ele>26.0929</ele>
        <time>2014-05-16T18:37:59Z</time>
      </trkpt>
      <trkpt lat="59.9761176" lon="17.7396629">
        <ele>26.0929</ele>
        <time>2014-05-16T18:38:00Z</time>
      </trkpt>
      <trkpt lat="59.9761661" lon="17.7397215">
        <ele>26.5736</ele>
        <time>2014-05-16T18:38:01Z</time>
      </trkpt>
      <trkpt lat="59.9762177" lon="17.7397588">
        <ele>27.0543</ele>
        <time>2014-05-16T18:38:02Z</time>
      </trkpt>
      <trkpt lat="59.9762719" lon="17.7397729">
        <ele>27.5349</ele>
        <time>2014-05-16T18:38:03Z</time>
      </trkpt>
      <trkpt lat="59.9763283" lon="17.7397646">
        <ele>27.5349</ele>
        <time>2014-05-16T18:38:04Z</time>
      </trkpt>
      <trkpt lat="59.9763841" lon="17.7397335">
        <ele>28.0155</ele>
        <time>2014-05-16T18:38:05Z</time>
      </trkpt>
      <trkpt lat="59.9764408" lon="17.739687">
        <ele>28.0155</ele>
        <time>2014-05-16T18:38:06Z</time>
      </trkpt>
      <trkpt lat="59.9764988" lon="17.7396305">
        <ele>28.0155</ele>
        <time>2014-05-16T18:38:07Z</time>
      </trkpt>
      <trkpt lat="59.9765569" lon="17.7395681">
        <ele>28.0155</ele>
        <time>2014-05-16T18:38:08Z</time>
      </trkpt>
      <trkpt lat="59.9766195" lon="17.7395123">
        <ele>28.4962</ele>
        <time>2014-05-16T18:38:09Z</time>
      </trkpt>
      <trkpt lat="59.9766827" lon="17.7394673">
        <ele>28.9769</ele>
        <time>2014-05-16T18:38:10Z</time>
      </trkpt>
      <trkpt lat="59.976746" lon="17.7394311">
        <ele>28.9769</ele>
        <time>2014-05-16T18:38:11Z</time>
      </trkpt>
      <trkpt lat="59.976806" lon="17.7394026">
        <ele>28.4962</ele>
        <time>2014-05-16T18:38:12Z</time>
      </trkpt>
      <trkpt lat="59.9768692" lon="17.7393764">
        <ele>28.4962</ele>
        <time>2014-05-16T18:38:13Z</time>
      </trkpt>
      <trkpt lat="59.9769271" lon="17.7393506">
        <ele>27.5349</ele>
        <time>2014-05-16T18:38:14Z</time>
      </trkpt>
      <trkpt lat="59.9769935" lon="17.7393175">
        <ele>28.4962</ele>
        <time>2014-05-16T18:38:15Z</time>
      </trkpt>
      <trkpt lat="59.9770608" lon="17.7392839">
        <ele>28.9769</ele>
        <time>2014-05-16T18:38:16Z</time>
      </trkpt>
      <trkpt lat="59.977129" lon="17.7392529">
        <ele>29.9381</ele>
        <time>2014-05-16T18:38:17Z</time>
      </trkpt>
      <trkpt lat="59.9771944" lon="17.7392119">
        <ele>29.9381</ele>
        <time>2014-05-16T18:38:18Z</time>
      </trkpt>
      <trkpt lat="59.9772594" lon="17.7391694">
        <ele>29.4575</ele>
        <time>2014-05-16T18:38:19Z</time>
      </trkpt>
      <trkpt lat="59.9773226" lon="17.7391285">
        <ele>29.4575</ele>
        <time>2014-05-16T18:38:20Z</time>
      </trkpt>
      <trkpt lat="59.9773858" lon="17.7390918">
        <ele>29.9381</ele>
        <time>2014-05-16T18:38:21Z</time>
      </trkpt>
      <trkpt lat="59.9774456" lon="17.739064">
        <ele>29.9381</ele>
        <time>2014-05-16T18:38:22Z</time>
      </trkpt>
      <trkpt lat="59.9775053" lon="17.7390443">
        <ele>30.4188</ele>
        <time>2014-05-16T18:38:23Z</time>
      </trkpt>
      <trkpt lat="59.977564" lon="17.7390279">
        <ele>30.8995</ele>
        <time>2014-05-16T18:38:24Z</time>
      </trkpt>
      <trkpt lat="59.9776232" lon="17.7390174">
        <ele>31.3801</ele>
        <time>2014-05-16T18:38:25Z</time>
      </trkpt>
      <trkpt lat="59.9776803" lon="17.7390197">
        <ele>32.3416</ele>
        <time>2014-05-16T18:38:26Z</time>
      </trkpt>
      <trkpt lat="59.9777334" lon="17.7390335">
        <ele>32.8223</ele>
        <time>2014-05-16T18:38:27Z</time>
      </trkpt>
      <trkpt lat="59.9777856" lon="17.7390518">
        <ele>33.3029</ele>
        <time>2014-05-16T18:38:28Z</time>
      </trkpt>
      <trkpt lat="59.9778364" lon="17.7390736">
        <ele>33.7834</ele>
        <time>2014-05-16T18:38:29Z</time>
      </trkpt>
      <trkpt lat="59.9778886" lon="17.7390999">
        <ele>34.2642</ele>
        <time>2014-05-16T18:38:30Z</time>
      </trkpt>
      <trkpt lat="59.9779399" lon="17.7391279">
        <ele>34.7449</ele>
        <time>2014-05-16T18:38:31Z</time>
      </trkpt>
      <trkpt lat="59.9779911" lon="17.7391528">
        <ele>34.7449</ele>
        <time>2014-05-16T18:38:32Z</time>
      </trkpt>
      <trkpt lat="59.9780437" lon="17.7391769">
        <ele>35.2255</ele>
        <time>2014-05-16T18:38:33Z</time>
      </trkpt>
      <trkpt lat="59.9780964" lon="17.7391983">
        <ele>35.7061</ele>
        <time>2014-05-16T18:38:34Z</time>
      </trkpt>
      <trkpt lat="59.9781498" lon="17.7392176">
        <ele>36.1868</ele>
        <time>2014-05-16T18:38:35Z</time>
      </trkpt>
      <trkpt lat="59.9782042" lon="17.7392342">
        <ele>36.6675</ele>
        <time>2014-05-16T18:38:36Z</time>
      </trkpt>
      <trkpt lat="59.9782611" lon="17.7392498">
        <ele>37.1481</ele>
        <time>2014-05-16T18:38:37Z</time>
      </trkpt>
      <trkpt lat="59.9783194" lon="17.7392626">
        <ele>37.6287</ele>
        <time>2014-05-16T18:38:38Z</time>
      </trkpt>
      <trkpt lat="59.9783788" lon="17.7392726">
        <ele>37.6287</ele>
        <time>2014-05-16T18:38:39Z</time>
      </trkpt>
      <trkpt lat="59.9784417" lon="17.7392808">
        <ele>37.6287</ele>
        <time>2014-05-16T18:38:40Z</time>
      </trkpt>
      <trkpt lat="59.9785034" lon="17.7392897">
        <ele>37.6287</ele>
        <time>2014-05-16T18:38:41Z</time>
      </trkpt>
      <trkpt lat="59.9785709" lon="17.7393008">
        <ele>38.1094</ele>
        <time>2014-05-16T18:38:42Z</time>
      </trkpt>
      <trkpt lat="59.9786382" lon="17.7393099">
        <ele>38.1094</ele>
        <time>2014-05-16T18:38:43Z</time>
      </trkpt>
    </trkseg>
  </trk>
</gpx>